<?xml version='1.0' encoding='UTF-8'?><gpx version="1.1" creator="JPX - https://github.com/jenetics/jpx" xmlns="http://www.topografix.com/GPX/1/1"><trk><trkseg><trkpt lat="39.32679788700372" lon="16.046373386169186"><ele>21.0</ele><time>2026-03-29T10:38:53.999Z</time></trkpt><trkpt lat="39.32679261328149" lon="16.04646809860265"><ele>21.0</ele><time>2026-03-29T10:38:55.999Z</time></trkpt><trkpt lat="39.326804447687906" lon="16.04655924415196"><ele>21.0</ele><time>2026-03-29T10:38:57.999Z</time></trkpt><trkpt lat="39.32681424318633" lon="16.046671320569796"><ele>21.0</ele><time>2026-03-29T10:38:59.999Z</time></trkpt><trkpt lat="39.326821982593444" lon="16.04678445290128"><ele>21.0</ele><time>2026-03-29T10:39:01.999Z</time></trkpt><trkpt lat="39.3268210773187" lon="16.046911468676033"><ele>21.0</ele><time>2026-03-29T10:39:03.998Z</time></trkpt><trkpt lat="39.326854506416865" lon="16.047034917450876"><ele>22.200000000000003</ele><time>2026-03-29T10:39:05.998Z</time></trkpt><trkpt lat="39.3269303771132" lon="16.047140758882158"><ele>23.400000000000002</ele><time>2026-03-29T10:39:07.998Z</time></trkpt><trkpt lat="39.32699927679598" lon="16.04720965623596"><ele>24.6</ele><time>2026-03-29T10:39:09.998Z</time></trkpt><trkpt lat="39.327097239223185" lon="16.04726312720327"><ele>25.8</ele><time>2026-03-29T10:39:11.998Z</time></trkpt><trkpt lat="39.32720477899243" lon="16.047288640845583"><ele>27.0</ele><time>2026-03-29T10:39:13.998Z</time></trkpt><trkpt lat="39.327321294212815" lon="16.047277014191287"><ele>27.833333333333332</ele><time>2026-03-29T10:39:15.998Z</time></trkpt><trkpt lat="39.32738888670603" lon="16.04726505582512"><ele>28.666666666666664</ele><time>2026-03-29T10:39:16.998Z</time></trkpt><trkpt lat="39.32745862762888" lon="16.047260974541807"><ele>29.5</ele><time>2026-03-29T10:39:17.998Z</time></trkpt><trkpt lat="39.32752285797156" lon="16.04724948869743"><ele>30.333333333333332</ele><time>2026-03-29T10:39:18.998Z</time></trkpt><trkpt lat="39.327620034076155" lon="16.04720777803823"><ele>31.166666666666664</ele><time>2026-03-29T10:39:20.998Z</time></trkpt><trkpt lat="39.327716761928315" lon="16.04718678512874"><ele>32.0</ele><time>2026-03-29T10:39:22.998Z</time></trkpt><trkpt lat="39.32776265962854" lon="16.047293653625722"><ele>32.0</ele><time>2026-03-29T10:39:24.998Z</time></trkpt><trkpt lat="39.327711817933036" lon="16.047397836960602"><ele>32.0</ele><time>2026-03-29T10:39:26.998Z</time></trkpt><trkpt lat="39.32766834548005" lon="16.0474723970472"><ele>32.0</ele><time>2026-03-29T10:39:28.998Z</time></trkpt><trkpt lat="39.3275333801461" lon="16.04747244476679"><ele>32.0</ele><time>2026-03-29T10:39:30.998Z</time></trkpt><trkpt lat="39.32743988367858" lon="16.04746495047372"><ele>32.0</ele><time>2026-03-29T10:39:31.999Z</time></trkpt><trkpt lat="39.327321890226386" lon="16.04746408766824"><ele>35.666666666666664</ele><time>2026-03-29T10:39:32.999Z</time></trkpt><trkpt lat="39.32718255467342" lon="16.047468601344956"><ele>39.333333333333336</ele><time>2026-03-29T10:39:33.999Z</time></trkpt><trkpt lat="39.32701900291054" lon="16.047469707916033"><ele>43.0</ele><time>2026-03-29T10:39:34.999Z</time></trkpt><trkpt lat="39.32684783561031" lon="16.04746968936757"><ele>43.0</ele><time>2026-03-29T10:39:35.999Z</time></trkpt><trkpt lat="39.326681570463194" lon="16.0474714341178"><ele>43.0</ele><time>2026-03-29T10:39:36.999Z</time></trkpt><trkpt lat="39.326529033451" lon="16.047474431766787"><ele>43.0</ele><time>2026-03-29T10:39:37.999Z</time></trkpt><trkpt lat="39.3263955971346" lon="16.047472032694323"><ele>42.199999999999996</ele><time>2026-03-29T10:39:38.999Z</time></trkpt><trkpt lat="39.326285783058054" lon="16.04750298232638"><ele>41.4</ele><time>2026-03-29T10:39:39.999Z</time></trkpt><trkpt lat="39.326222290294155" lon="16.04762226584694"><ele>40.599999999999994</ele><time>2026-03-29T10:39:40.999Z</time></trkpt><trkpt lat="39.326202063591026" lon="16.04774414771576"><ele>39.8</ele><time>2026-03-29T10:39:41.999Z</time></trkpt><trkpt lat="39.326167950599135" lon="16.047849275260592"><ele>39.0</ele><time>2026-03-29T10:39:42.999Z</time></trkpt><trkpt lat="39.32612764084912" lon="16.047962781220647"><ele>39.0</ele><time>2026-03-29T10:39:43.999Z</time></trkpt><trkpt lat="39.326083962722514" lon="16.04805823874951"><ele>39.0</ele><time>2026-03-29T10:39:44.999Z</time></trkpt><trkpt lat="39.32606044475833" lon="16.048140896107924"><ele>39.0</ele><time>2026-03-29T10:39:45.999Z</time></trkpt><trkpt lat="39.32601019209481" lon="16.048229276926016"><ele>39.0</ele><time>2026-03-29T10:39:50.999Z</time></trkpt><trkpt lat="39.325960194333796" lon="16.048286609449104"><ele>39.0</ele><time>2026-03-29T10:39:51.999Z</time></trkpt><trkpt lat="39.325853734892725" lon="16.048339406423352"><ele>39.0</ele><time>2026-03-29T10:39:52.999Z</time></trkpt><trkpt lat="39.32575555175974" lon="16.048410400806777"><ele>40.75</ele><time>2026-03-29T10:39:53.999Z</time></trkpt><trkpt lat="39.325646299630975" lon="16.048490456450242"><ele>42.5</ele><time>2026-03-29T10:39:54.999Z</time></trkpt><trkpt lat="39.32552187491137" lon="16.04859982518444"><ele>44.25</ele><time>2026-03-29T10:39:55.999Z</time></trkpt><trkpt lat="39.32539694834106" lon="16.048712060807272"><ele>46.0</ele><time>2026-03-29T10:39:56.999Z</time></trkpt><trkpt lat="39.32527456866769" lon="16.04882801247446"><ele>46.0</ele><time>2026-03-29T10:39:57.999Z</time></trkpt><trkpt lat="39.325157770711144" lon="16.0489485053088"><ele>46.0</ele><time>2026-03-29T10:39:58.999Z</time></trkpt><trkpt lat="39.32504083638715" lon="16.049070836377652"><ele>46.0</ele><time>2026-03-29T10:39:59.999Z</time></trkpt><trkpt lat="39.32492725971882" lon="16.049205688097956"><ele>45.66666666666667</ele><time>2026-03-29T10:40:00.999Z</time></trkpt><trkpt lat="39.324816004744655" lon="16.049344219844905"><ele>45.333333333333336</ele><time>2026-03-29T10:40:01.999Z</time></trkpt><trkpt lat="39.3247036693283" lon="16.04948029537286"><ele>45.0</ele><time>2026-03-29T10:40:02.999Z</time></trkpt><trkpt lat="39.32458855539247" lon="16.049612817754486"><ele>45.0</ele><time>2026-03-29T10:40:03.999Z</time></trkpt><trkpt lat="39.3244726256173" lon="16.049750359691576"><ele>45.0</ele><time>2026-03-29T10:40:04.999Z</time></trkpt><trkpt lat="39.32435180349009" lon="16.049888068597085"><ele>45.0</ele><time>2026-03-29T10:40:05.999Z</time></trkpt><trkpt lat="39.32422895178652" lon="16.05002386716526"><ele>45.0</ele><time>2026-03-29T10:40:06.999Z</time></trkpt><trkpt lat="39.32409469334179" lon="16.05015498038805"><ele>45.0</ele><time>2026-03-29T10:40:07.999Z</time></trkpt><trkpt lat="39.32396438873716" lon="16.05027708959594"><ele>45.0</ele><time>2026-03-29T10:40:08.999Z</time></trkpt><trkpt lat="39.32382912981814" lon="16.050393456204816"><ele>45.0</ele><time>2026-03-29T10:40:09.999Z</time></trkpt><trkpt lat="39.32369427175243" lon="16.05050534542374"><ele>45.0</ele><time>2026-03-29T10:40:10.999Z</time></trkpt><trkpt lat="39.32355899961047" lon="16.050615206892548"><ele>45.0</ele><time>2026-03-29T10:40:11.999Z</time></trkpt><trkpt lat="39.32342230095107" lon="16.050724336378007"><ele>47.66666666666667</ele><time>2026-03-29T10:40:12.999Z</time></trkpt><trkpt lat="39.32328525361496" lon="16.05083071349677"><ele>50.333333333333336</ele><time>2026-03-29T10:40:13.999Z</time></trkpt><trkpt lat="39.32314910429351" lon="16.050930765325305"><ele>53.0</ele><time>2026-03-29T10:40:14.999Z</time></trkpt><trkpt lat="39.32300955630628" lon="16.051032357151655"><ele>53.0</ele><time>2026-03-29T10:40:15.999Z</time></trkpt><trkpt lat="39.32287064624666" lon="16.05112594398781"><ele>53.0</ele><time>2026-03-29T10:40:16.999Z</time></trkpt><trkpt lat="39.32273405676078" lon="16.05121713131514"><ele>53.0</ele><time>2026-03-29T10:40:17.999Z</time></trkpt><trkpt lat="39.32260019782517" lon="16.051314102220054"><ele>53.0</ele><time>2026-03-29T10:40:18.999Z</time></trkpt><trkpt lat="39.32246575624266" lon="16.051404951322873"><ele>53.0</ele><time>2026-03-29T10:40:19.999Z</time></trkpt><trkpt lat="39.32233207689199" lon="16.051480103940083"><ele>53.0</ele><time>2026-03-29T10:40:20.999Z</time></trkpt><trkpt lat="39.322199207574634" lon="16.051546107564075"><ele>53.0</ele><time>2026-03-29T10:40:21.999Z</time></trkpt><trkpt lat="39.32206466515118" lon="16.051598190016087"><ele>54.75</ele><time>2026-03-29T10:40:22.999Z</time></trkpt><trkpt lat="39.32192941291377" lon="16.05163549808484"><ele>56.5</ele><time>2026-03-29T10:40:23.999Z</time></trkpt><trkpt lat="39.32179363104205" lon="16.051678620036864"><ele>58.25</ele><time>2026-03-29T10:40:24.999Z</time></trkpt><trkpt lat="39.32165532313276" lon="16.051726806392036"><ele>60.0</ele><time>2026-03-29T10:40:25.999Z</time></trkpt><trkpt lat="39.321520120177965" lon="16.051768084576565"><ele>61.75</ele><time>2026-03-29T10:40:26.999Z</time></trkpt><trkpt lat="39.32138615923814" lon="16.051806077572962"><ele>63.5</ele><time>2026-03-29T10:40:27.999Z</time></trkpt><trkpt lat="39.32125516636777" lon="16.05184189676123"><ele>65.25</ele><time>2026-03-29T10:40:28.999Z</time></trkpt><trkpt lat="39.32112859607698" lon="16.051870108844508"><ele>67.0</ele><time>2026-03-29T10:40:29.999Z</time></trkpt><trkpt lat="39.32100838380096" lon="16.051893172377873"><ele>67.0</ele><time>2026-03-29T10:40:30.999Z</time></trkpt><trkpt lat="39.320890937134806" lon="16.051906974185332"><ele>67.0</ele><time>2026-03-29T10:40:31.999Z</time></trkpt><trkpt lat="39.32078628415305" lon="16.051914386653223"><ele>67.0</ele><time>2026-03-29T10:40:32.999Z</time></trkpt><trkpt lat="39.32069592281599" lon="16.0519177062148"><ele>67.0</ele><time>2026-03-29T10:40:33.999Z</time></trkpt><trkpt lat="39.32061869320148" lon="16.051915751306552"><ele>67.0</ele><time>2026-03-29T10:40:34.999Z</time></trkpt><trkpt lat="39.3205480732596" lon="16.051907242143553"><ele>68.0</ele><time>2026-03-29T10:40:35.999Z</time></trkpt><trkpt lat="39.32048137564994" lon="16.051877238502325"><ele>69.0</ele><time>2026-03-29T10:40:36.999Z</time></trkpt><trkpt lat="39.32041735716991" lon="16.05185170700953"><ele>70.0</ele><time>2026-03-29T10:40:37.999Z</time></trkpt><trkpt lat="39.32030730464257" lon="16.051885105977966"><ele>71.0</ele><time>2026-03-29T10:40:39.999Z</time></trkpt><trkpt lat="39.32023983510883" lon="16.051987514913808"><ele>72.0</ele><time>2026-03-29T10:40:41.999Z</time></trkpt><trkpt lat="39.32026148186066" lon="16.052098921582918"><ele>73.0</ele><time>2026-03-29T10:40:42.999Z</time></trkpt><trkpt lat="39.32033824604272" lon="16.052213887566797"><ele>73.0</ele><time>2026-03-29T10:40:44.999Z</time></trkpt><trkpt lat="39.320414546501794" lon="16.05223677293646"><ele>73.0</ele><time>2026-03-29T10:40:45.999Z</time></trkpt><trkpt lat="39.320494283120155" lon="16.052267809215188"><ele>73.0</ele><time>2026-03-29T10:40:46.999Z</time></trkpt><trkpt lat="39.32056966323946" lon="16.05231397319339"><ele>73.0</ele><time>2026-03-29T10:40:47.999Z</time></trkpt><trkpt lat="39.3206619546818" lon="16.052348804043532"><ele>73.0</ele><time>2026-03-29T10:40:48.998Z</time></trkpt><trkpt lat="39.32071979576231" lon="16.05243624357473"><ele>73.0</ele><time>2026-03-29T10:40:49.998Z</time></trkpt><trkpt lat="39.320800829726785" lon="16.052497326464618"><ele>73.6</ele><time>2026-03-29T10:40:50.998Z</time></trkpt><trkpt lat="39.32088594273935" lon="16.052569868727414"><ele>74.19999999999999</ele><time>2026-03-29T10:40:51.998Z</time></trkpt><trkpt lat="39.3209718484421" lon="16.052629621225815"><ele>74.8</ele><time>2026-03-29T10:40:52.998Z</time></trkpt><trkpt lat="39.32106650196196" lon="16.05266010353659"><ele>75.39999999999999</ele><time>2026-03-29T10:40:53.998Z</time></trkpt><trkpt lat="39.32116177815914" lon="16.052679369455547"><ele>76.0</ele><time>2026-03-29T10:40:54.998Z</time></trkpt><trkpt lat="39.3212479015629" lon="16.05269609146031"><ele>76.0</ele><time>2026-03-29T10:40:55.998Z</time></trkpt><trkpt lat="39.321328666490665" lon="16.052718763026867"><ele>76.0</ele><time>2026-03-29T10:40:56.998Z</time></trkpt><trkpt lat="39.32140998636906" lon="16.052746282020102"><ele>76.0</ele><time>2026-03-29T10:40:57.998Z</time></trkpt><trkpt lat="39.32148130295589" lon="16.052807582342265"><ele>76.0</ele><time>2026-03-29T10:40:58.998Z</time></trkpt><trkpt lat="39.32156751476808" lon="16.05285309248291"><ele>76.0</ele><time>2026-03-29T10:40:59.998Z</time></trkpt><trkpt lat="39.32165493218793" lon="16.052925948016725"><ele>76.0</ele><time>2026-03-29T10:41:00.998Z</time></trkpt><trkpt lat="39.321751917490445" lon="16.053010685479894"><ele>74.5</ele><time>2026-03-29T10:41:01.998Z</time></trkpt><trkpt lat="39.32185566804837" lon="16.053100908321973"><ele>73.0</ele><time>2026-03-29T10:41:02.998Z</time></trkpt><trkpt lat="39.32195773126819" lon="16.053192462584136"><ele>71.5</ele><time>2026-03-29T10:41:03.998Z</time></trkpt><trkpt lat="39.32205571400609" lon="16.053281719758623"><ele>70.0</ele><time>2026-03-29T10:41:04.998Z</time></trkpt><trkpt lat="39.322149479579835" lon="16.0533665195215"><ele>71.75</ele><time>2026-03-29T10:41:05.998Z</time></trkpt><trkpt lat="39.32224262225939" lon="16.05345342626951"><ele>73.5</ele><time>2026-03-29T10:41:06.998Z</time></trkpt><trkpt lat="39.32233577981916" lon="16.05353862690544"><ele>75.25</ele><time>2026-03-29T10:41:07.998Z</time></trkpt><trkpt lat="39.32243271774842" lon="16.053617891929047"><ele>77.0</ele><time>2026-03-29T10:41:08.998Z</time></trkpt><trkpt lat="39.32252980348696" lon="16.05370029020707"><ele>77.0</ele><time>2026-03-29T10:41:09.998Z</time></trkpt><trkpt lat="39.32263091455909" lon="16.053790974501478"><ele>77.0</ele><time>2026-03-29T10:41:10.998Z</time></trkpt><trkpt lat="39.32273509754633" lon="16.053880408331032"><ele>77.0</ele><time>2026-03-29T10:41:11.998Z</time></trkpt><trkpt lat="39.32284585094356" lon="16.05397083130374"><ele>77.0</ele><time>2026-03-29T10:41:12.998Z</time></trkpt><trkpt lat="39.32295232777866" lon="16.05406186932589"><ele>77.0</ele><time>2026-03-29T10:41:13.998Z</time></trkpt><trkpt lat="39.32304668257611" lon="16.054128457725042"><ele>77.0</ele><time>2026-03-29T10:41:14.998Z</time></trkpt><trkpt lat="39.3231450607288" lon="16.05416710334149"><ele>77.0</ele><time>2026-03-29T10:41:15.998Z</time></trkpt><trkpt lat="39.32323973748554" lon="16.054183703761822"><ele>77.0</ele><time>2026-03-29T10:41:16.998Z</time></trkpt><trkpt lat="39.32334033746155" lon="16.054140210705093"><ele>77.0</ele><time>2026-03-29T10:41:17.998Z</time></trkpt><trkpt lat="39.323430856397216" lon="16.054052850378802"><ele>77.0</ele><time>2026-03-29T10:41:18.998Z</time></trkpt><trkpt lat="39.32349496894701" lon="16.053920973787907"><ele>77.0</ele><time>2026-03-29T10:41:19.998Z</time></trkpt><trkpt lat="39.323534998251276" lon="16.053790146026824"><ele>77.0</ele><time>2026-03-29T10:41:20.998Z</time></trkpt><trkpt lat="39.32354779971399" lon="16.053642207343433"><ele>77.0</ele><time>2026-03-29T10:41:21.998Z</time></trkpt><trkpt lat="39.323552044254306" lon="16.053500262512856"><ele>77.0</ele><time>2026-03-29T10:41:22.998Z</time></trkpt><trkpt lat="39.323559696356" lon="16.053368849306718"><ele>77.0</ele><time>2026-03-29T10:41:23.998Z</time></trkpt><trkpt lat="39.32357055201017" lon="16.053249573131932"><ele>77.0</ele><time>2026-03-29T10:41:24.998Z</time></trkpt><trkpt lat="39.32358726912076" lon="16.053137498264874"><ele>77.0</ele><time>2026-03-29T10:41:25.998Z</time></trkpt><trkpt lat="39.32361201703887" lon="16.05302623017258"><ele>77.0</ele><time>2026-03-29T10:41:26.998Z</time></trkpt><trkpt lat="39.323649235216884" lon="16.052912318976375"><ele>76.2</ele><time>2026-03-29T10:41:27.998Z</time></trkpt><trkpt lat="39.32369632834138" lon="16.052800145303063"><ele>75.4</ele><time>2026-03-29T10:41:28.998Z</time></trkpt><trkpt lat="39.32374502362621" lon="16.0526842000015"><ele>74.6</ele><time>2026-03-29T10:41:29.998Z</time></trkpt><trkpt lat="39.323798004345264" lon="16.052571001754764"><ele>73.8</ele><time>2026-03-29T10:41:30.998Z</time></trkpt><trkpt lat="39.323865843823825" lon="16.052478623223227"><ele>73.0</ele><time>2026-03-29T10:41:31.998Z</time></trkpt><trkpt lat="39.323944188317114" lon="16.052411535318907"><ele>73.0</ele><time>2026-03-29T10:41:32.998Z</time></trkpt><trkpt lat="39.32403679542279" lon="16.05239076197943"><ele>73.0</ele><time>2026-03-29T10:41:33.998Z</time></trkpt><trkpt lat="39.32413011914959" lon="16.052356303630628"><ele>73.0</ele><time>2026-03-29T10:41:34.998Z</time></trkpt><trkpt lat="39.32422084231518" lon="16.05229670237218"><ele>73.0</ele><time>2026-03-29T10:41:35.998Z</time></trkpt><trkpt lat="39.32432836363941" lon="16.052272074694216"><ele>73.0</ele><time>2026-03-29T10:41:36.998Z</time></trkpt><trkpt lat="39.324426289629685" lon="16.052220791958725"><ele>73.0</ele><time>2026-03-29T10:41:37.999Z</time></trkpt><trkpt lat="39.32451336627138" lon="16.052157528589195"><ele>73.0</ele><time>2026-03-29T10:41:38.999Z</time></trkpt><trkpt lat="39.32459453680456" lon="16.052093573273567"><ele>73.0</ele><time>2026-03-29T10:41:39.999Z</time></trkpt><trkpt lat="39.32466858274745" lon="16.05202039225351"><ele>73.0</ele><time>2026-03-29T10:41:40.999Z</time></trkpt><trkpt lat="39.324740394226836" lon="16.05194032195625"><ele>73.0</ele><time>2026-03-29T10:41:41.999Z</time></trkpt><trkpt lat="39.32481109224129" lon="16.051846838479513"><ele>74.4</ele><time>2026-03-29T10:41:42.999Z</time></trkpt><trkpt lat="39.32488213228001" lon="16.05173652967493"><ele>75.8</ele><time>2026-03-29T10:41:43.999Z</time></trkpt><trkpt lat="39.32494695518116" lon="16.051624561190607"><ele>77.2</ele><time>2026-03-29T10:41:44.999Z</time></trkpt><trkpt lat="39.32500174118043" lon="16.051525256987663"><ele>78.6</ele><time>2026-03-29T10:41:45.999Z</time></trkpt><trkpt lat="39.325050621505106" lon="16.05143802617964"><ele>80.0</ele><time>2026-03-29T10:41:46.999Z</time></trkpt><trkpt lat="39.32512467563545" lon="16.05136180120993"><ele>80.0</ele><time>2026-03-29T10:41:47.999Z</time></trkpt><trkpt lat="39.32519494963843" lon="16.051286336292442"><ele>80.0</ele><time>2026-03-29T10:41:48.999Z</time></trkpt><trkpt lat="39.325273068894774" lon="16.05123056936261"><ele>80.0</ele><time>2026-03-29T10:41:49.999Z</time></trkpt><trkpt lat="39.325352149806754" lon="16.05120049879927"><ele>80.0</ele><time>2026-03-29T10:41:50.999Z</time></trkpt><trkpt lat="39.32543165619542" lon="16.05119325391674"><ele>80.0</ele><time>2026-03-29T10:41:51.999Z</time></trkpt><trkpt lat="39.325509064598315" lon="16.051212772640984"><ele>80.0</ele><time>2026-03-29T10:41:52.999Z</time></trkpt><trkpt lat="39.325584281059975" lon="16.051267226641244"><ele>80.83333333333334</ele><time>2026-03-29T10:41:53.999Z</time></trkpt><trkpt lat="39.325639288155166" lon="16.051346601022342"><ele>81.66666666666667</ele><time>2026-03-29T10:41:54.999Z</time></trkpt><trkpt lat="39.325691432055876" lon="16.051433553951338"><ele>82.5</ele><time>2026-03-29T10:41:55.999Z</time></trkpt><trkpt lat="39.32575178937791" lon="16.05152776772973"><ele>83.33333333333333</ele><time>2026-03-29T10:41:56.999Z</time></trkpt><trkpt lat="39.3257971408362" lon="16.051612975633446"><ele>84.16666666666666</ele><time>2026-03-29T10:41:57.999Z</time></trkpt><trkpt lat="39.32584053452122" lon="16.051688294192747"><ele>85.0</ele><time>2026-03-29T10:41:58.999Z</time></trkpt><trkpt lat="39.32588634491898" lon="16.051809273039833"><ele>86.16666666666666</ele><time>2026-03-29T10:42:00.999Z</time></trkpt><trkpt lat="39.325929095478536" lon="16.051886392394287"><ele>87.33333333333333</ele><time>2026-03-29T10:42:02.999Z</time></trkpt><trkpt lat="39.325976910462124" lon="16.051972647661835"><ele>88.5</ele><time>2026-03-29T10:42:04.999Z</time></trkpt><trkpt lat="39.3260419720433" lon="16.052089053548283"><ele>89.66666666666667</ele><time>2026-03-29T10:42:06.999Z</time></trkpt><trkpt lat="39.32608036822155" lon="16.052156192457023"><ele>90.83333333333334</ele><time>2026-03-29T10:42:07.999Z</time></trkpt><trkpt lat="39.326131306706316" lon="16.052215049474285"><ele>92.0</ele><time>2026-03-29T10:42:08.999Z</time></trkpt><trkpt lat="39.326182501063165" lon="16.052277173057092"><ele>92.0</ele><time>2026-03-29T10:42:09.999Z</time></trkpt><trkpt lat="39.32624141299906" lon="16.052336222211775"><ele>92.0</ele><time>2026-03-29T10:42:10.999Z</time></trkpt><trkpt lat="39.32630758419612" lon="16.052389591203745"><ele>92.0</ele><time>2026-03-29T10:42:11.999Z</time></trkpt><trkpt lat="39.326374810110316" lon="16.052443058355365"><ele>92.0</ele><time>2026-03-29T10:42:12.999Z</time></trkpt><trkpt lat="39.326438989629224" lon="16.052488219664884"><ele>92.0</ele><time>2026-03-29T10:42:13.999Z</time></trkpt><trkpt lat="39.326505853948504" lon="16.05252402356292"><ele>92.0</ele><time>2026-03-29T10:42:14.999Z</time></trkpt><trkpt lat="39.32658047314856" lon="16.05252454267446"><ele>91.5</ele><time>2026-03-29T10:42:15.999Z</time></trkpt><trkpt lat="39.32665396578891" lon="16.052489921380495"><ele>91.0</ele><time>2026-03-29T10:42:16.999Z</time></trkpt><trkpt lat="39.326711724384914" lon="16.052430540670684"><ele>90.5</ele><time>2026-03-29T10:42:17.999Z</time></trkpt><trkpt lat="39.326748598397515" lon="16.05231920985571"><ele>90.0</ele><time>2026-03-29T10:42:18.999Z</time></trkpt><trkpt lat="39.326786372947" lon="16.05221846013926"><ele>89.5</ele><time>2026-03-29T10:42:19.999Z</time></trkpt><trkpt lat="39.32683500445525" lon="16.05213153682904"><ele>89.0</ele><time>2026-03-29T10:42:20.999Z</time></trkpt><trkpt lat="39.32690923915155" lon="16.052070898439617"><ele>89.0</ele><time>2026-03-29T10:42:21.999Z</time></trkpt><trkpt lat="39.32699232647157" lon="16.05201927652944"><ele>89.0</ele><time>2026-03-29T10:42:22.999Z</time></trkpt><trkpt lat="39.32708232442549" lon="16.05196500487505"><ele>89.0</ele><time>2026-03-29T10:42:23.999Z</time></trkpt><trkpt lat="39.32717144073298" lon="16.05191294091232"><ele>89.0</ele><time>2026-03-29T10:42:24.999Z</time></trkpt><trkpt lat="39.32726108187887" lon="16.051867113059316"><ele>89.0</ele><time>2026-03-29T10:42:25.999Z</time></trkpt><trkpt lat="39.32734446872475" lon="16.05182107111375"><ele>90.33333333333334</ele><time>2026-03-29T10:42:26.999Z</time></trkpt><trkpt lat="39.32741907443845" lon="16.051772518999204"><ele>91.66666666666667</ele><time>2026-03-29T10:42:27.999Z</time></trkpt><trkpt lat="39.32748972256961" lon="16.051725927571837"><ele>93.0</ele><time>2026-03-29T10:42:28.999Z</time></trkpt><trkpt lat="39.32755190123544" lon="16.051685602139422"><ele>94.33333333333334</ele><time>2026-03-29T10:42:29.999Z</time></trkpt><trkpt lat="39.32766296982021" lon="16.05172570126226"><ele>95.66666666666667</ele><time>2026-03-29T10:42:31.999Z</time></trkpt><trkpt lat="39.327715107230475" lon="16.051784556359777"><ele>97.0</ele><time>2026-03-29T10:42:32.999Z</time></trkpt><trkpt lat="39.327786127721346" lon="16.05186001571955"><ele>97.00000000000001</ele><time>2026-03-29T10:42:33.999Z</time></trkpt><trkpt lat="39.327837764136056" lon="16.051963425785495"><ele>97.0</ele><time>2026-03-29T10:42:34.999Z</time></trkpt><trkpt lat="39.327889153465904" lon="16.05206832959035"><ele>97.0</ele><time>2026-03-29T10:42:35.999Z</time></trkpt><trkpt lat="39.32794404729911" lon="16.0521668841135"><ele>97.0</ele><time>2026-03-29T10:42:36.999Z</time></trkpt><trkpt lat="39.32799772440362" lon="16.052252934187237"><ele>97.00000000000001</ele><time>2026-03-29T10:42:37.999Z</time></trkpt><trkpt lat="39.3280494990731" lon="16.05231552084388"><ele>97.0</ele><time>2026-03-29T10:42:38.999Z</time></trkpt><trkpt lat="39.32815489832023" lon="16.052383715315695"><ele>99.50000000000001</ele><time>2026-03-29T10:42:40.999Z</time></trkpt><trkpt lat="39.328161288391776" lon="16.05250239946879"><ele>102.0</ele><time>2026-03-29T10:42:41.999Z</time></trkpt><trkpt lat="39.32819853974968" lon="16.052596232082358"><ele>104.5</ele><time>2026-03-29T10:42:42.999Z</time></trkpt><trkpt lat="39.328237607913394" lon="16.052692686939455"><ele>107.0</ele><time>2026-03-29T10:42:43.999Z</time></trkpt><trkpt lat="39.328280811057965" lon="16.05278987397635"><ele>109.50000000000001</ele><time>2026-03-29T10:42:44.999Z</time></trkpt><trkpt lat="39.328338727086035" lon="16.05286718362539"><ele>112.0</ele><time>2026-03-29T10:42:45.999Z</time></trkpt><trkpt lat="39.32837795488094" lon="16.052955951993635"><ele>112.00000000000001</ele><time>2026-03-29T10:42:46.999Z</time></trkpt><trkpt lat="39.32842383256152" lon="16.053039155500826"><ele>112.0</ele><time>2026-03-29T10:42:47.999Z</time></trkpt><trkpt lat="39.328469176257556" lon="16.05311728855425"><ele>112.0</ele><time>2026-03-29T10:42:48.999Z</time></trkpt><trkpt lat="39.32850458378433" lon="16.05323819140631"><ele>112.0</ele><time>2026-03-29T10:42:50.999Z</time></trkpt><trkpt lat="39.32846255081385" lon="16.05332284641537"><ele>112.00000000000001</ele><time>2026-03-29T10:42:52.999Z</time></trkpt><trkpt lat="39.32836025049911" lon="16.053303192053882"><ele>112.0</ele><time>2026-03-29T10:42:54.999Z</time></trkpt><trkpt lat="39.32828367420846" lon="16.05327802130273"><ele>112.00000000000001</ele><time>2026-03-29T10:42:55.999Z</time></trkpt><trkpt lat="39.32820493948721" lon="16.053249661879292"><ele>112.0</ele><time>2026-03-29T10:42:56.999Z</time></trkpt><trkpt lat="39.328127993389835" lon="16.053221875176572"><ele>112.0</ele><time>2026-03-29T10:42:57.999Z</time></trkpt><trkpt lat="39.32805545211342" lon="16.053192289105553"><ele>112.0</ele><time>2026-03-29T10:42:58.999Z</time></trkpt><trkpt lat="39.32799262371251" lon="16.053158020267045"><ele>112.00000000000001</ele><time>2026-03-29T10:42:59.999Z</time></trkpt><trkpt lat="39.32789575156142" lon="16.05310251092738"><ele>112.0</ele><time>2026-03-29T10:43:01.998Z</time></trkpt><trkpt lat="39.32781502275073" lon="16.053088247165487"><ele>112.6</ele><time>2026-03-29T10:43:03.998Z</time></trkpt><trkpt lat="39.327723807744135" lon="16.0530740892808"><ele>113.19999999999999</ele><time>2026-03-29T10:43:05.998Z</time></trkpt><trkpt lat="39.327625239925446" lon="16.05313392582257"><ele>113.8</ele><time>2026-03-29T10:43:07.998Z</time></trkpt><trkpt lat="39.32753742081064" lon="16.053223549185276"><ele>114.4</ele><time>2026-03-29T10:43:09.998Z</time></trkpt><trkpt lat="39.327472596092996" lon="16.053317438807724"><ele>115.0</ele><time>2026-03-29T10:43:11.998Z</time></trkpt><trkpt lat="39.32742408388661" lon="16.05343166862168"><ele>117.2</ele><time>2026-03-29T10:43:13.998Z</time></trkpt><trkpt lat="39.327426332426015" lon="16.053591926321726"><ele>119.4</ele><time>2026-03-29T10:43:15.998Z</time></trkpt><trkpt lat="39.327428562718175" lon="16.05369132190456"><ele>121.6</ele><time>2026-03-29T10:43:16.998Z</time></trkpt><trkpt lat="39.32743199977686" lon="16.053813496037172"><ele>123.8</ele><time>2026-03-29T10:43:17.998Z</time></trkpt><trkpt lat="39.32742965024351" lon="16.053941451228457"><ele>126.0</ele><time>2026-03-29T10:43:18.998Z</time></trkpt><trkpt lat="39.3274331281612" lon="16.05406331137962"><ele>128.5</ele><time>2026-03-29T10:43:19.998Z</time></trkpt><trkpt lat="39.32742002622167" lon="16.054182518550547"><ele>131.0</ele><time>2026-03-29T10:43:20.998Z</time></trkpt><trkpt lat="39.327421661218004" lon="16.054298347635545"><ele>133.5</ele><time>2026-03-29T10:43:21.998Z</time></trkpt><trkpt lat="39.32743806389516" lon="16.054409249934338"><ele>136.0</ele><time>2026-03-29T10:43:22.998Z</time></trkpt><trkpt lat="39.32743919569788" lon="16.054516422095055"><ele>138.5</ele><time>2026-03-29T10:43:23.998Z</time></trkpt><trkpt lat="39.32744158887438" lon="16.054624015952776"><ele>141.0</ele><time>2026-03-29T10:43:24.998Z</time></trkpt><trkpt lat="39.32744540852285" lon="16.05473341328933"><ele>141.0</ele><time>2026-03-29T10:43:25.998Z</time></trkpt><trkpt lat="39.327432815935964" lon="16.0548417507198"><ele>141.0</ele><time>2026-03-29T10:43:26.998Z</time></trkpt><trkpt lat="39.32743274468226" lon="16.054947663248083"><ele>141.0</ele><time>2026-03-29T10:43:27.998Z</time></trkpt><trkpt lat="39.32742489198788" lon="16.055052534498362"><ele>141.0</ele><time>2026-03-29T10:43:28.998Z</time></trkpt><trkpt lat="39.327408301399856" lon="16.055150681077187"><ele>141.0</ele><time>2026-03-29T10:43:29.998Z</time></trkpt><trkpt lat="39.32738663438953" lon="16.055251472162286"><ele>141.0</ele><time>2026-03-29T10:43:30.998Z</time></trkpt><trkpt lat="39.32736310554273" lon="16.05535888866084"><ele>142.33333333333334</ele><time>2026-03-29T10:43:31.998Z</time></trkpt><trkpt lat="39.32733832630239" lon="16.05546646264471"><ele>143.66666666666666</ele><time>2026-03-29T10:43:32.998Z</time></trkpt><trkpt lat="39.32731389758498" lon="16.05557155225649"><ele>145.0</ele><time>2026-03-29T10:43:33.998Z</time></trkpt><trkpt lat="39.32730829971516" lon="16.055673872019593"><ele>146.33333333333331</ele><time>2026-03-29T10:43:34.998Z</time></trkpt><trkpt lat="39.32729141840998" lon="16.05576324145888"><ele>147.66666666666666</ele><time>2026-03-29T10:43:35.998Z</time></trkpt><trkpt lat="39.32727655638834" lon="16.055900661734988"><ele>149.0</ele><time>2026-03-29T10:43:37.998Z</time></trkpt><trkpt lat="39.327290009837306" lon="16.056023840388363"><ele>150.83333333333331</ele><time>2026-03-29T10:43:39.998Z</time></trkpt><trkpt lat="39.32730841950668" lon="16.056109819723243"><ele>152.66666666666666</ele><time>2026-03-29T10:43:41.998Z</time></trkpt><trkpt lat="39.32733044127644" lon="16.056199055730122"><ele>154.5</ele><time>2026-03-29T10:43:47.999Z</time></trkpt><trkpt lat="39.327354531229446" lon="16.05628160429017"><ele>156.33333333333334</ele><time>2026-03-29T10:43:54.999Z</time></trkpt><trkpt lat="39.32739372604979" lon="16.056394595620862"><ele>158.16666666666669</ele><time>2026-03-29T10:43:57.999Z</time></trkpt><trkpt lat="39.32745308916576" lon="16.05652181819953"><ele>160.0</ele><time>2026-03-29T10:43:59.999Z</time></trkpt><trkpt lat="39.32749232443578" lon="16.05659722917888"><ele>161.83333333333334</ele><time>2026-03-29T10:44:00.999Z</time></trkpt><trkpt lat="39.327532912042585" lon="16.056674444483743"><ele>163.66666666666669</ele><time>2026-03-29T10:44:01.999Z</time></trkpt><trkpt lat="39.32758810545168" lon="16.056792684964464"><ele>165.5</ele><time>2026-03-29T10:44:03.999Z</time></trkpt><trkpt lat="39.3276141355299" lon="16.056887378194425"><ele>167.33333333333334</ele><time>2026-03-29T10:44:05.999Z</time></trkpt><trkpt lat="39.327669697644275" lon="16.0570056342718"><ele>169.16666666666666</ele><time>2026-03-29T10:44:07.999Z</time></trkpt><trkpt lat="39.32770669737623" lon="16.057082925681218"><ele>171.0</ele><time>2026-03-29T10:44:08.999Z</time></trkpt><trkpt lat="39.32776114400415" lon="16.057161031279982"><ele>171.0</ele><time>2026-03-29T10:44:09.999Z</time></trkpt><trkpt lat="39.32779680716022" lon="16.057238134652632"><ele>171.0</ele><time>2026-03-29T10:44:10.999Z</time></trkpt><trkpt lat="39.32782579643418" lon="16.057330179508558"><ele>171.0</ele><time>2026-03-29T10:44:12.999Z</time></trkpt><trkpt lat="39.32796829056939" lon="16.05721428422421"><ele>171.0</ele><time>2026-03-29T10:44:18.999Z</time></trkpt><trkpt lat="39.32803373115824" lon="16.057128929907012"><ele>171.0</ele><time>2026-03-29T10:44:20.999Z</time></trkpt><trkpt lat="39.32810083919122" lon="16.05707338016246"><ele>171.0</ele><time>2026-03-29T10:44:22.999Z</time></trkpt><trkpt lat="39.32816120817228" lon="16.057005921021112"><ele>171.0</ele><time>2026-03-29T10:44:24.999Z</time></trkpt><trkpt lat="39.32818693601548" lon="16.056916019138292"><ele>171.0</ele><time>2026-03-29T10:44:26.999Z</time></trkpt><trkpt lat="39.32820093301549" lon="16.056808862297387"><ele>171.0</ele><time>2026-03-29T10:44:29.999Z</time></trkpt><trkpt lat="39.3282434789105" lon="16.056734121414042"><ele>171.0</ele><time>2026-03-29T10:44:33.999Z</time></trkpt><trkpt lat="39.328296178979365" lon="16.056672749900883"><ele>171.0</ele><time>2026-03-29T10:46:20.999Z</time></trkpt><trkpt lat="39.32839657322562" lon="16.056579480470436"><ele>171.0</ele><time>2026-03-29T10:46:22.999Z</time></trkpt><trkpt lat="39.32848863862965" lon="16.05657546512641"><ele>171.0</ele><time>2026-03-29T10:46:24.999Z</time></trkpt><trkpt lat="39.32870372573198" lon="16.05661776151922"><ele>171.0</ele><time>2026-03-29T10:46:26.999Z</time></trkpt><trkpt lat="39.32876474712155" lon="16.05669709607272"><ele>171.0</ele><time>2026-03-29T10:46:28.999Z</time></trkpt><trkpt lat="39.328813354756186" lon="16.056762116369832"><ele>171.0</ele><time>2026-03-29T10:46:29.999Z</time></trkpt><trkpt lat="39.32885689158223" lon="16.056823081934326"><ele>171.0</ele><time>2026-03-29T10:46:30.999Z</time></trkpt><trkpt lat="39.32893180074726" lon="16.056943737456987"><ele>171.0</ele><time>2026-03-29T10:46:31.999Z</time></trkpt><trkpt lat="39.32857342656981" lon="16.05637961282814"><ele>171.0</ele><time>2026-03-29T10:46:32.999Z</time></trkpt><trkpt lat="39.32840664111017" lon="16.056603282453334"><ele>171.0</ele><time>2026-03-29T10:46:34.999Z</time></trkpt><trkpt lat="39.32847137020397" lon="16.05657780297505"><ele>171.0</ele><time>2026-03-29T10:46:40.999Z</time></trkpt><trkpt lat="39.32853127253668" lon="16.056524418461912"><ele>171.0</ele><time>2026-03-29T10:46:45.999Z</time></trkpt><trkpt lat="39.3285877006074" lon="16.056475349506165"><ele>171.0</ele><time>2026-03-29T10:46:52.999Z</time></trkpt><trkpt lat="39.32864550647476" lon="16.056510848632307"><ele>171.0</ele><time>2026-03-29T10:46:54.999Z</time></trkpt><trkpt lat="39.32868451236783" lon="16.056592782086938"><ele>171.0</ele><time>2026-03-29T10:46:56.999Z</time></trkpt><trkpt lat="39.32874415452927" lon="16.056642551504126"><ele>171.0</ele><time>2026-03-29T10:46:58.999Z</time></trkpt><trkpt lat="39.3287921437131" lon="16.056710462206134"><ele>171.0</ele><time>2026-03-29T10:47:01.999Z</time></trkpt><trkpt lat="39.32884351113697" lon="16.05678458998266"><ele>171.0</ele><time>2026-03-29T10:47:04.999Z</time></trkpt><trkpt lat="39.328901784519786" lon="16.0568720548725"><ele>171.0</ele><time>2026-03-29T10:47:07.999Z</time></trkpt><trkpt lat="39.32894877323463" lon="16.05695951144994"><ele>173.0</ele><time>2026-03-29T10:47:10.999Z</time></trkpt><trkpt lat="39.32891293680163" lon="16.057071412732665"><ele>175.0</ele><time>2026-03-29T10:47:15.999Z</time></trkpt><trkpt lat="39.32885873495908" lon="16.05717242416197"><ele>177.0</ele><time>2026-03-29T10:47:17.999Z</time></trkpt><trkpt lat="39.32881229269514" lon="16.057270339284106"><ele>179.0</ele><time>2026-03-29T10:47:20Z</time></trkpt><trkpt lat="39.3287624446147" lon="16.057340111313522"><ele>181.0</ele><time>2026-03-29T10:47:22Z</time></trkpt><trkpt lat="39.3287059357178" lon="16.05742274168706"><ele>183.0</ele><time>2026-03-29T10:47:24Z</time></trkpt><trkpt lat="39.328627019657006" lon="16.057503280185095"><ele>184.2</ele><time>2026-03-29T10:47:26Z</time></trkpt><trkpt lat="39.32853946810277" lon="16.05758570429284"><ele>185.4</ele><time>2026-03-29T10:47:28Z</time></trkpt><trkpt lat="39.32841930589908" lon="16.05765043214099"><ele>186.6</ele><time>2026-03-29T10:47:30Z</time></trkpt><trkpt lat="39.32834023916706" lon="16.057653946949195"><ele>187.79999999999998</ele><time>2026-03-29T10:47:31Z</time></trkpt><trkpt lat="39.32826598459226" lon="16.057680142015545"><ele>189.0</ele><time>2026-03-29T10:47:31.999Z</time></trkpt><trkpt lat="39.32819413991403" lon="16.05770548693826"><ele>189.0</ele><time>2026-03-29T10:47:32.999Z</time></trkpt><trkpt lat="39.32812937678337" lon="16.057746166111695"><ele>189.0</ele><time>2026-03-29T10:47:33.999Z</time></trkpt><trkpt lat="39.328063023282645" lon="16.057757625427488"><ele>189.0</ele><time>2026-03-29T10:47:34.999Z</time></trkpt><trkpt lat="39.328004980063085" lon="16.057723882887455"><ele>189.0</ele><time>2026-03-29T10:47:36.999Z</time></trkpt><trkpt lat="39.327968877578705" lon="16.057588875367955"><ele>189.0</ele><time>2026-03-29T10:47:38.999Z</time></trkpt><trkpt lat="39.327933582608296" lon="16.05750999290269"><ele>189.0</ele><time>2026-03-29T10:47:39.999Z</time></trkpt><trkpt lat="39.327889295689474" lon="16.05742012395444"><ele>186.0</ele><time>2026-03-29T10:47:40.999Z</time></trkpt><trkpt lat="39.3278455708163" lon="16.05732588537008"><ele>183.0</ele><time>2026-03-29T10:47:41.999Z</time></trkpt><trkpt lat="39.3278033794542" lon="16.057231425397582"><ele>180.0</ele><time>2026-03-29T10:47:42.999Z</time></trkpt><trkpt lat="39.32776234860076" lon="16.057140257155435"><ele>177.0</ele><time>2026-03-29T10:47:43.999Z</time></trkpt><trkpt lat="39.32772349749014" lon="16.05705558932038"><ele>174.0</ele><time>2026-03-29T10:47:44.999Z</time></trkpt><trkpt lat="39.32768468473551" lon="16.05697173519572"><ele>171.0</ele><time>2026-03-29T10:47:45.999Z</time></trkpt><trkpt lat="39.32764599928482" lon="16.056887699077734"><ele>170.99999999999997</ele><time>2026-03-29T10:47:46.999Z</time></trkpt><trkpt lat="39.32761072491537" lon="16.056807271478974"><ele>171.0</ele><time>2026-03-29T10:47:47.999Z</time></trkpt><trkpt lat="39.32757493970842" lon="16.05673368629321"><ele>171.0</ele><time>2026-03-29T10:47:48.999Z</time></trkpt><trkpt lat="39.32753896750662" lon="16.05665268215745"><ele>171.0</ele><time>2026-03-29T10:47:49.999Z</time></trkpt><trkpt lat="39.32750034571346" lon="16.056569185968193"><ele>171.0</ele><time>2026-03-29T10:47:50.999Z</time></trkpt><trkpt lat="39.32746114777763" lon="16.05648860232107"><ele>170.99999999999997</ele><time>2026-03-29T10:47:51.999Z</time></trkpt><trkpt lat="39.32742162993065" lon="16.056411247860215"><ele>171.0</ele><time>2026-03-29T10:47:52.999Z</time></trkpt><trkpt lat="39.32738993988187" lon="16.05632787581156"><ele>169.16666666666666</ele><time>2026-03-29T10:47:53.999Z</time></trkpt><trkpt lat="39.327360430967325" lon="16.056251164145593"><ele>167.33333333333334</ele><time>2026-03-29T10:47:54.999Z</time></trkpt><trkpt lat="39.32731741276741" lon="16.0560998797407"><ele>165.5</ele><time>2026-03-29T10:47:57Z</time></trkpt><trkpt lat="39.32729994695829" lon="16.056013003299537"><ele>163.66666666666669</ele><time>2026-03-29T10:47:58Z</time></trkpt><trkpt lat="39.32728697518058" lon="16.055921909157238"><ele>161.83333333333334</ele><time>2026-03-29T10:47:59Z</time></trkpt><trkpt lat="39.32728775690993" lon="16.055829041374366"><ele>160.0</ele><time>2026-03-29T10:48:00Z</time></trkpt><trkpt lat="39.32730230300127" lon="16.055742201597248"><ele>158.16666666666669</ele><time>2026-03-29T10:48:01Z</time></trkpt><trkpt lat="39.32731975819696" lon="16.055652979358655"><ele>156.33333333333334</ele><time>2026-03-29T10:48:02Z</time></trkpt><trkpt lat="39.32733747477618" lon="16.055562109911484"><ele>154.5</ele><time>2026-03-29T10:48:03Z</time></trkpt><trkpt lat="39.327358985196014" lon="16.055466461382945"><ele>152.66666666666666</ele><time>2026-03-29T10:48:04Z</time></trkpt><trkpt lat="39.327382400778966" lon="16.055366444662987"><ele>150.83333333333331</ele><time>2026-03-29T10:48:05Z</time></trkpt><trkpt lat="39.327405403455124" lon="16.05526659254329"><ele>149.0</ele><time>2026-03-29T10:48:06Z</time></trkpt><trkpt lat="39.327426370021165" lon="16.055170497028342"><ele>149.0</ele><time>2026-03-29T10:48:07Z</time></trkpt><trkpt lat="39.327445952936976" lon="16.055076258220062"><ele>149.0</ele><time>2026-03-29T10:48:08Z</time></trkpt><trkpt lat="39.32745608273323" lon="16.05498497436625"><ele>149.0</ele><time>2026-03-29T10:48:09Z</time></trkpt><trkpt lat="39.327457475717765" lon="16.05488936282161"><ele>149.0</ele><time>2026-03-29T10:48:10Z</time></trkpt><trkpt lat="39.32745983638221" lon="16.05478721913688"><ele>149.0</ele><time>2026-03-29T10:48:11Z</time></trkpt><trkpt lat="39.32745635330578" lon="16.054682700303527"><ele>149.0</ele><time>2026-03-29T10:48:12Z</time></trkpt><trkpt lat="39.327452656289076" lon="16.054575195195934"><ele>147.66666666666666</ele><time>2026-03-29T10:48:13Z</time></trkpt><trkpt lat="39.327449186569815" lon="16.054462846234706"><ele>146.33333333333331</ele><time>2026-03-29T10:48:14Z</time></trkpt><trkpt lat="39.32744771651292" lon="16.054351622357125"><ele>145.0</ele><time>2026-03-29T10:48:15Z</time></trkpt><trkpt lat="39.32744559198497" lon="16.054244593525315"><ele>143.66666666666666</ele><time>2026-03-29T10:48:16Z</time></trkpt><trkpt lat="39.327444717846475" lon="16.054146044155154"><ele>142.33333333333334</ele><time>2026-03-29T10:48:17Z</time></trkpt><trkpt lat="39.32744444502159" lon="16.05404910653551"><ele>141.0</ele><time>2026-03-29T10:48:18Z</time></trkpt><trkpt lat="39.327443370712004" lon="16.053962980604236"><ele>138.0</ele><time>2026-03-29T10:48:19Z</time></trkpt><trkpt lat="39.32744134780605" lon="16.05378891230228"><ele>135.0</ele><time>2026-03-29T10:48:21Z</time></trkpt><trkpt lat="39.32743850729183" lon="16.053692267113277"><ele>132.0</ele><time>2026-03-29T10:48:22Z</time></trkpt><trkpt lat="39.32743707171258" lon="16.053586554594492"><ele>129.0</ele><time>2026-03-29T10:48:23Z</time></trkpt><trkpt lat="39.32743425371661" lon="16.053488761061477"><ele>126.0</ele><time>2026-03-29T10:48:24Z</time></trkpt><trkpt lat="39.32746209473161" lon="16.053340548362232"><ele>126.0</ele><time>2026-03-29T10:48:26Z</time></trkpt><trkpt lat="39.32751240419828" lon="16.053290763456623"><ele>126.0</ele><time>2026-03-29T10:48:27Z</time></trkpt><trkpt lat="39.327559919072456" lon="16.053234270153514"><ele>126.0</ele><time>2026-03-29T10:48:28Z</time></trkpt><trkpt lat="39.32765282391688" lon="16.053147191435126"><ele>126.0</ele><time>2026-03-29T10:48:30Z</time></trkpt><trkpt lat="39.32774524359337" lon="16.053095879752888"><ele>126.0</ele><time>2026-03-29T10:48:32Z</time></trkpt><trkpt lat="39.32782109954882" lon="16.053091450940038"><ele>126.0</ele><time>2026-03-29T10:48:34Z</time></trkpt><trkpt lat="39.3279053518676" lon="16.05315382221557"><ele>126.33333333333333</ele><time>2026-03-29T10:48:37Z</time></trkpt><trkpt lat="39.32799368798838" lon="16.053189202648845"><ele>126.66666666666666</ele><time>2026-03-29T10:48:39Z</time></trkpt><trkpt lat="39.328107655409475" lon="16.053240269694175"><ele>127.0</ele><time>2026-03-29T10:48:41Z</time></trkpt><trkpt lat="39.328172420493765" lon="16.05326763973948"><ele>127.33333333333333</ele><time>2026-03-29T10:48:42Z</time></trkpt><trkpt lat="39.32823906306505" lon="16.053294656851886"><ele>127.66666666666666</ele><time>2026-03-29T10:48:43Z</time></trkpt><trkpt lat="39.3283068944999" lon="16.05332122383871"><ele>128.0</ele><time>2026-03-29T10:48:44Z</time></trkpt><trkpt lat="39.32837133856431" lon="16.053342604649522"><ele>128.0</ele><time>2026-03-29T10:48:45Z</time></trkpt><trkpt lat="39.32847558644537" lon="16.053346591630557"><ele>128.0</ele><time>2026-03-29T10:48:47Z</time></trkpt><trkpt lat="39.328538136181656" lon="16.053251332408337"><ele>128.0</ele><time>2026-03-29T10:48:49Z</time></trkpt><trkpt lat="39.32850281112387" lon="16.053126880105903"><ele>128.0</ele><time>2026-03-29T10:48:51Z</time></trkpt><trkpt lat="39.32845383368198" lon="16.053052552161972"><ele>128.0</ele><time>2026-03-29T10:48:52Z</time></trkpt><trkpt lat="39.32840267935554" lon="16.052962954846475"><ele>125.33333333333333</ele><time>2026-03-29T10:48:53Z</time></trkpt><trkpt lat="39.32835283039432" lon="16.052864538009175"><ele>122.66666666666666</ele><time>2026-03-29T10:48:54Z</time></trkpt><trkpt lat="39.328309455817845" lon="16.052768733639056"><ele>120.0</ele><time>2026-03-29T10:48:55Z</time></trkpt><trkpt lat="39.328271995755586" lon="16.052677641077235"><ele>117.33333333333334</ele><time>2026-03-29T10:48:56Z</time></trkpt><trkpt lat="39.32823344963147" lon="16.052590998248238"><ele>114.66666666666667</ele><time>2026-03-29T10:48:57Z</time></trkpt><trkpt lat="39.328198548667295" lon="16.052510134109205"><ele>112.0</ele><time>2026-03-29T10:48:58Z</time></trkpt><trkpt lat="39.32816637944361" lon="16.05243867308332"><ele>109.66666666666667</ele><time>2026-03-29T10:48:59Z</time></trkpt><trkpt lat="39.3281308202538" lon="16.052361840578"><ele>107.33333333333334</ele><time>2026-03-29T10:49:01Z</time></trkpt><trkpt lat="39.32810404899945" lon="16.052282332272217"><ele>105.0</ele><time>2026-03-29T10:49:04Z</time></trkpt><trkpt lat="39.328011200271575" lon="16.05222375632348"><ele>102.66666666666666</ele><time>2026-03-29T10:49:06Z</time></trkpt><trkpt lat="39.327931964594754" lon="16.052100645536086"><ele>100.33333333333333</ele><time>2026-03-29T10:49:08Z</time></trkpt><trkpt lat="39.327892110369085" lon="16.052034096469583"><ele>98.0</ele><time>2026-03-29T10:49:09Z</time></trkpt><trkpt lat="39.327853423866394" lon="16.051965642186506"><ele>97.83333333333333</ele><time>2026-03-29T10:49:10Z</time></trkpt><trkpt lat="39.32781581095517" lon="16.051897897748752"><ele>97.66666666666666</ele><time>2026-03-29T10:49:11Z</time></trkpt><trkpt lat="39.32774443394006" lon="16.051779690944283"><ele>97.5</ele><time>2026-03-29T10:49:13Z</time></trkpt><trkpt lat="39.32769348444525" lon="16.05169260820482"><ele>97.33333333333334</ele><time>2026-03-29T10:49:15Z</time></trkpt><trkpt lat="39.327610054295434" lon="16.05166706964312"><ele>97.16666666666667</ele><time>2026-03-29T10:49:17Z</time></trkpt><trkpt lat="39.327513734320725" lon="16.051651359560076"><ele>97.0</ele><time>2026-03-29T10:49:19Z</time></trkpt><trkpt lat="39.32739678524794" lon="16.05173417339947"><ele>97.0</ele><time>2026-03-29T10:49:21Z</time></trkpt><trkpt lat="39.32733577640851" lon="16.051772616901033"><ele>97.0</ele><time>2026-03-29T10:49:22Z</time></trkpt><trkpt lat="39.327274039080585" lon="16.05181013419071"><ele>97.0</ele><time>2026-03-29T10:49:23Z</time></trkpt><trkpt lat="39.327211561123725" lon="16.051847614285855"><ele>97.0</ele><time>2026-03-29T10:49:24Z</time></trkpt><trkpt lat="39.32715028463473" lon="16.051885393978598"><ele>97.0</ele><time>2026-03-29T10:49:25Z</time></trkpt><trkpt lat="39.32708830499503" lon="16.051923054581174"><ele>97.0</ele><time>2026-03-29T10:49:26Z</time></trkpt><trkpt lat="39.32702817485203" lon="16.051959025550552"><ele>97.0</ele><time>2026-03-29T10:49:26.999Z</time></trkpt><trkpt lat="39.32697086460281" lon="16.051993466228613"><ele>97.8</ele><time>2026-03-29T10:49:27.999Z</time></trkpt><trkpt lat="39.32691146813775" lon="16.052027854716272"><ele>98.6</ele><time>2026-03-29T10:49:28.999Z</time></trkpt><trkpt lat="39.32681087811851" lon="16.052115205367784"><ele>99.39999999999999</ele><time>2026-03-29T10:49:30.999Z</time></trkpt><trkpt lat="39.32674261782372" lon="16.05224531117229"><ele>100.19999999999999</ele><time>2026-03-29T10:49:32.999Z</time></trkpt><trkpt lat="39.32668592937492" lon="16.05238273238609"><ele>101.0</ele><time>2026-03-29T10:49:34.999Z</time></trkpt><trkpt lat="39.32662591398312" lon="16.052459183120142"><ele>101.0</ele><time>2026-03-29T10:49:36.999Z</time></trkpt><trkpt lat="39.326540820575445" lon="16.052494305946382"><ele>101.0</ele><time>2026-03-29T10:49:38.999Z</time></trkpt><trkpt lat="39.32643879514493" lon="16.052466221889294"><ele>101.0</ele><time>2026-03-29T10:49:40.999Z</time></trkpt><trkpt lat="39.326349025555935" lon="16.05239114394083"><ele>101.0</ele><time>2026-03-29T10:49:42.999Z</time></trkpt><trkpt lat="39.32626600492807" lon="16.052324568378964"><ele>101.0</ele><time>2026-03-29T10:49:44.999Z</time></trkpt><trkpt lat="39.326189546944086" lon="16.052257376123293"><ele>99.19999999999999</ele><time>2026-03-29T10:49:46.999Z</time></trkpt><trkpt lat="39.32611958012425" lon="16.052174083123973"><ele>97.39999999999999</ele><time>2026-03-29T10:49:48.999Z</time></trkpt><trkpt lat="39.32606075250201" lon="16.052064917476812"><ele>95.6</ele><time>2026-03-29T10:49:50.999Z</time></trkpt><trkpt lat="39.32599240611687" lon="16.051938076900694"><ele>93.8</ele><time>2026-03-29T10:49:52.999Z</time></trkpt><trkpt lat="39.32591261939131" lon="16.05180601225612"><ele>92.0</ele><time>2026-03-29T10:49:54.999Z</time></trkpt><trkpt lat="39.325865529019545" lon="16.051730128083253"><ele>92.0</ele><time>2026-03-29T10:49:55.999Z</time></trkpt><trkpt lat="39.325822960937764" lon="16.051646122252766"><ele>92.0</ele><time>2026-03-29T10:49:56.999Z</time></trkpt><trkpt lat="39.325779354678915" lon="16.051559904269006"><ele>92.0</ele><time>2026-03-29T10:49:57.999Z</time></trkpt><trkpt lat="39.32573653784404" lon="16.05147342825208"><ele>92.0</ele><time>2026-03-29T10:49:58.999Z</time></trkpt><trkpt lat="39.325689375368874" lon="16.051387723109933"><ele>92.0</ele><time>2026-03-29T10:49:59.999Z</time></trkpt><trkpt lat="39.32563991811892" lon="16.051306136713215"><ele>92.0</ele><time>2026-03-29T10:50:00.999Z</time></trkpt><trkpt lat="39.32558633908817" lon="16.05123051442163"><ele>90.0</ele><time>2026-03-29T10:50:02Z</time></trkpt><trkpt lat="39.325515111722886" lon="16.051175412752865"><ele>88.0</ele><time>2026-03-29T10:50:03Z</time></trkpt><trkpt lat="39.3254419154126" lon="16.051150905321904"><ele>86.0</ele><time>2026-03-29T10:50:04Z</time></trkpt><trkpt lat="39.325365622541675" lon="16.05114666984391"><ele>84.0</ele><time>2026-03-29T10:50:05Z</time></trkpt><trkpt lat="39.32529180137213" lon="16.051173627891846"><ele>82.0</ele><time>2026-03-29T10:50:06Z</time></trkpt><trkpt lat="39.32522203487836" lon="16.051220610367814"><ele>80.0</ele><time>2026-03-29T10:50:07Z</time></trkpt><trkpt lat="39.32515235416331" lon="16.05126785905775"><ele>80.0</ele><time>2026-03-29T10:50:08Z</time></trkpt><trkpt lat="39.32509023022056" lon="16.051331235138772"><ele>80.0</ele><time>2026-03-29T10:50:09Z</time></trkpt><trkpt lat="39.32503510412178" lon="16.05140825984621"><ele>80.0</ele><time>2026-03-29T10:50:10Z</time></trkpt><trkpt lat="39.32497940266415" lon="16.051488316684615"><ele>80.0</ele><time>2026-03-29T10:50:11Z</time></trkpt><trkpt lat="39.324926970710386" lon="16.0515766615671"><ele>80.0</ele><time>2026-03-29T10:50:12Z</time></trkpt><trkpt lat="39.32487863571514" lon="16.051667123568663"><ele>80.0</ele><time>2026-03-29T10:50:13Z</time></trkpt><trkpt lat="39.324829614455524" lon="16.051759627666257"><ele>81.16666666666667</ele><time>2026-03-29T10:50:14Z</time></trkpt><trkpt lat="39.32477501741392" lon="16.051846001596406"><ele>82.33333333333334</ele><time>2026-03-29T10:50:15Z</time></trkpt><trkpt lat="39.32471303997873" lon="16.051923284828877"><ele>83.5</ele><time>2026-03-29T10:50:16Z</time></trkpt><trkpt lat="39.324647742818186" lon="16.0519992716955"><ele>84.66666666666667</ele><time>2026-03-29T10:50:17Z</time></trkpt><trkpt lat="39.32457585356847" lon="16.05206674048001"><ele>85.83333333333333</ele><time>2026-03-29T10:50:18Z</time></trkpt><trkpt lat="39.324500629575816" lon="16.05212919575694"><ele>87.0</ele><time>2026-03-29T10:50:19Z</time></trkpt><trkpt lat="39.324419004966344" lon="16.052181267186388"><ele>84.66666666666667</ele><time>2026-03-29T10:50:20Z</time></trkpt><trkpt lat="39.324334854869996" lon="16.05222761926439"><ele>82.33333333333333</ele><time>2026-03-29T10:50:21Z</time></trkpt><trkpt lat="39.324247672067415" lon="16.052269279304298"><ele>80.0</ele><time>2026-03-29T10:50:22Z</time></trkpt><trkpt lat="39.32415961708161" lon="16.05230598307402"><ele>77.66666666666666</ele><time>2026-03-29T10:50:23Z</time></trkpt><trkpt lat="39.32407303724949" lon="16.052337122303754"><ele>75.33333333333333</ele><time>2026-03-29T10:50:24Z</time></trkpt><trkpt lat="39.32399547674499" lon="16.052364616561338"><ele>73.0</ele><time>2026-03-29T10:50:25Z</time></trkpt><trkpt lat="39.32392706187307" lon="16.052392658331147"><ele>73.0</ele><time>2026-03-29T10:50:26Z</time></trkpt><trkpt lat="39.32386529944062" lon="16.05243298010294"><ele>73.0</ele><time>2026-03-29T10:50:27Z</time></trkpt><trkpt lat="39.32380963992255" lon="16.052484251119136"><ele>73.0</ele><time>2026-03-29T10:50:28Z</time></trkpt><trkpt lat="39.32376736018313" lon="16.052555407753108"><ele>73.0</ele><time>2026-03-29T10:50:29Z</time></trkpt><trkpt lat="39.323732691724594" lon="16.05263506385651"><ele>73.0</ele><time>2026-03-29T10:50:30Z</time></trkpt><trkpt lat="39.323694207612704" lon="16.052715917689365"><ele>73.0</ele><time>2026-03-29T10:50:31Z</time></trkpt><trkpt lat="39.323658925797176" lon="16.052796560832018"><ele>73.0</ele><time>2026-03-29T10:50:32Z</time></trkpt><trkpt lat="39.32362618546231" lon="16.05288041006069"><ele>73.0</ele><time>2026-03-29T10:50:33Z</time></trkpt><trkpt lat="39.32359821083545" lon="16.052962925548417"><ele>73.0</ele><time>2026-03-29T10:50:34Z</time></trkpt><trkpt lat="39.3235750156326" lon="16.053053985714214"><ele>73.0</ele><time>2026-03-29T10:50:35Z</time></trkpt><trkpt lat="39.32355730107606" lon="16.053153808221243"><ele>73.0</ele><time>2026-03-29T10:50:36Z</time></trkpt><trkpt lat="39.32354175860146" lon="16.053258244331122"><ele>73.0</ele><time>2026-03-29T10:50:37Z</time></trkpt><trkpt lat="39.323533236951654" lon="16.053367782846035"><ele>73.0</ele><time>2026-03-29T10:50:38Z</time></trkpt><trkpt lat="39.3235254825743" lon="16.053477194801907"><ele>73.66666666666666</ele><time>2026-03-29T10:50:39Z</time></trkpt><trkpt lat="39.323517619851366" lon="16.05358536969141"><ele>74.33333333333333</ele><time>2026-03-29T10:50:40Z</time></trkpt><trkpt lat="39.32350477952768" lon="16.053691084486378"><ele>75.0</ele><time>2026-03-29T10:50:41Z</time></trkpt><trkpt lat="39.323486521407126" lon="16.053793753183683"><ele>75.66666666666667</ele><time>2026-03-29T10:50:42Z</time></trkpt><trkpt lat="39.32344356762625" lon="16.05388110288876"><ele>76.33333333333334</ele><time>2026-03-29T10:50:43Z</time></trkpt><trkpt lat="39.323416599497754" lon="16.053976008793917"><ele>77.0</ele><time>2026-03-29T10:50:44Z</time></trkpt><trkpt lat="39.32336423476861" lon="16.05404638107412"><ele>77.0</ele><time>2026-03-29T10:50:45Z</time></trkpt><trkpt lat="39.32330310574883" lon="16.054097574119496"><ele>77.0</ele><time>2026-03-29T10:50:46Z</time></trkpt><trkpt lat="39.32323422670293" lon="16.054132245353095"><ele>77.0</ele><time>2026-03-29T10:50:47Z</time></trkpt><trkpt lat="39.32315478489568" lon="16.054139076332916"><ele>77.0</ele><time>2026-03-29T10:50:48Z</time></trkpt><trkpt lat="39.32307207585315" lon="16.054109644919546"><ele>77.0</ele><time>2026-03-29T10:50:49Z</time></trkpt><trkpt lat="39.32299304494222" lon="16.054064109337943"><ele>77.0</ele><time>2026-03-29T10:50:50Z</time></trkpt><trkpt lat="39.32291323480106" lon="16.054000097415337"><ele>77.0</ele><time>2026-03-29T10:50:51Z</time></trkpt><trkpt lat="39.322834344636284" lon="16.05393053286105"><ele>77.0</ele><time>2026-03-29T10:50:52Z</time></trkpt><trkpt lat="39.32275215703994" lon="16.05386354278185"><ele>77.0</ele><time>2026-03-29T10:50:53Z</time></trkpt><trkpt lat="39.32266885432127" lon="16.053796388965747"><ele>77.0</ele><time>2026-03-29T10:50:54Z</time></trkpt><trkpt lat="39.32258688732013" lon="16.053724780048338"><ele>77.0</ele><time>2026-03-29T10:50:55Z</time></trkpt><trkpt lat="39.32250446632271" lon="16.05365414824273"><ele>77.0</ele><time>2026-03-29T10:50:56Z</time></trkpt><trkpt lat="39.32242086855812" lon="16.05358389598192"><ele>77.0</ele><time>2026-03-29T10:50:57Z</time></trkpt><trkpt lat="39.32234753891813" lon="16.053503291538398"><ele>77.0</ele><time>2026-03-29T10:50:58Z</time></trkpt><trkpt lat="39.32226703803962" lon="16.053432698840243"><ele>77.0</ele><time>2026-03-29T10:50:59Z</time></trkpt><trkpt lat="39.32218009066837" lon="16.05338071671497"><ele>77.0</ele><time>2026-03-29T10:51:00Z</time></trkpt><trkpt lat="39.32210811114652" lon="16.053305675170822"><ele>75.83333333333334</ele><time>2026-03-29T10:51:01Z</time></trkpt><trkpt lat="39.32203823512702" lon="16.053233622381203"><ele>74.66666666666667</ele><time>2026-03-29T10:51:02Z</time></trkpt><trkpt lat="39.321968286022255" lon="16.053170860325793"><ele>73.5</ele><time>2026-03-29T10:51:03Z</time></trkpt><trkpt lat="39.32189805448983" lon="16.053113158090415"><ele>72.33333333333333</ele><time>2026-03-29T10:51:04Z</time></trkpt><trkpt lat="39.3218290121244" lon="16.05305450642013"><ele>71.16666666666666</ele><time>2026-03-29T10:51:05Z</time></trkpt><trkpt lat="39.321762438567966" lon="16.052998656239787"><ele>70.0</ele><time>2026-03-29T10:51:06Z</time></trkpt><trkpt lat="39.32169654409551" lon="16.052946303068357"><ele>70.0</ele><time>2026-03-29T10:51:07Z</time></trkpt><trkpt lat="39.32163353849679" lon="16.052893827682286"><ele>70.0</ele><time>2026-03-29T10:51:08Z</time></trkpt><trkpt lat="39.32156912023156" lon="16.05283687073453"><ele>70.0</ele><time>2026-03-29T10:51:09Z</time></trkpt><trkpt lat="39.321501974023136" lon="16.052785153410852"><ele>70.0</ele><time>2026-03-29T10:51:10Z</time></trkpt><trkpt lat="39.32143481747203" lon="16.05273965568955"><ele>70.0</ele><time>2026-03-29T10:51:11Z</time></trkpt><trkpt lat="39.321362908535875" lon="16.052707837751978"><ele>70.0</ele><time>2026-03-29T10:51:12Z</time></trkpt><trkpt lat="39.321283816336106" lon="16.0526871265225"><ele>71.0</ele><time>2026-03-29T10:51:13Z</time></trkpt><trkpt lat="39.32120303851557" lon="16.052669719355794"><ele>72.0</ele><time>2026-03-29T10:51:14Z</time></trkpt><trkpt lat="39.321122192383875" lon="16.052651241519847"><ele>73.0</ele><time>2026-03-29T10:51:15Z</time></trkpt><trkpt lat="39.32104343896694" lon="16.052624679582756"><ele>74.0</ele><time>2026-03-29T10:51:16Z</time></trkpt><trkpt lat="39.320965097476694" lon="16.052596684047845"><ele>75.0</ele><time>2026-03-29T10:51:17Z</time></trkpt><trkpt lat="39.320891358046296" lon="16.052558108711228"><ele>76.0</ele><time>2026-03-29T10:51:18Z</time></trkpt><trkpt lat="39.32082670913823" lon="16.052502048374148"><ele>75.5</ele><time>2026-03-29T10:51:19Z</time></trkpt><trkpt lat="39.3207822300612" lon="16.05242358345771"><ele>75.0</ele><time>2026-03-29T10:51:20Z</time></trkpt><trkpt lat="39.32072882589425" lon="16.052360457452117"><ele>74.5</ele><time>2026-03-29T10:51:21Z</time></trkpt><trkpt lat="39.32067855408015" lon="16.052301033839317"><ele>74.0</ele><time>2026-03-29T10:51:22Z</time></trkpt><trkpt lat="39.32060934444203" lon="16.052194053431503"><ele>73.5</ele><time>2026-03-29T10:51:24Z</time></trkpt><trkpt lat="39.32053257523749" lon="16.05214570536575"><ele>73.0</ele><time>2026-03-29T10:51:31Z</time></trkpt><trkpt lat="39.32052768112404" lon="16.052042113377045"><ele>73.0</ele><time>2026-03-29T10:51:33Z</time></trkpt><trkpt lat="39.32051311280199" lon="16.05191406437018"><ele>73.0</ele><time>2026-03-29T10:51:35Z</time></trkpt><trkpt lat="39.320415315911156" lon="16.05183986327672"><ele>73.0</ele><time>2026-03-29T10:51:37Z</time></trkpt><trkpt lat="39.32029732333564" lon="16.05186937941249"><ele>73.0</ele><time>2026-03-29T10:51:38.999Z</time></trkpt><trkpt lat="39.320227145697324" lon="16.051989039939226"><ele>73.0</ele><time>2026-03-29T10:51:40.999Z</time></trkpt><trkpt lat="39.32019013831481" lon="16.052056237873703"><ele>73.0</ele><time>2026-03-29T10:51:41.999Z</time></trkpt><trkpt lat="39.32019302460261" lon="16.052143727129025"><ele>73.0</ele><time>2026-03-29T10:51:42.999Z</time></trkpt><trkpt lat="39.320080834477054" lon="16.052173834720982"><ele>73.0</ele><time>2026-03-29T10:51:43.999Z</time></trkpt><trkpt lat="39.32001343396469" lon="16.052215618005864"><ele>73.0</ele><time>2026-03-29T10:51:44.999Z</time></trkpt><trkpt lat="39.319939971874334" lon="16.05225323388827"><ele>73.0</ele><time>2026-03-29T10:51:45.999Z</time></trkpt><trkpt lat="39.31985868417016" lon="16.052297036586435"><ele>73.0</ele><time>2026-03-29T10:51:46.999Z</time></trkpt><trkpt lat="39.31976266579218" lon="16.052346795495858"><ele>73.0</ele><time>2026-03-29T10:51:47.999Z</time></trkpt><trkpt lat="39.3196609375614" lon="16.05239778701302"><ele>73.0</ele><time>2026-03-29T10:51:48.999Z</time></trkpt><trkpt lat="39.319553801653434" lon="16.052449783938965"><ele>73.0</ele><time>2026-03-29T10:51:49.999Z</time></trkpt><trkpt lat="39.31944301786576" lon="16.05250132985058"><ele>73.0</ele><time>2026-03-29T10:51:50.999Z</time></trkpt><trkpt lat="39.3193279076504" lon="16.052555521127"><ele>73.5</ele><time>2026-03-29T10:51:51.999Z</time></trkpt><trkpt lat="39.3192049445693" lon="16.05261315638923"><ele>74.0</ele><time>2026-03-29T10:51:52.999Z</time></trkpt><trkpt lat="39.31907639164432" lon="16.05267029556097"><ele>74.5</ele><time>2026-03-29T10:51:53.999Z</time></trkpt><trkpt lat="39.31894939531207" lon="16.052731200619505"><ele>75.0</ele><time>2026-03-29T10:51:54.999Z</time></trkpt><trkpt lat="39.318821571887895" lon="16.052791416779364"><ele>75.0</ele><time>2026-03-29T10:51:55.999Z</time></trkpt><trkpt lat="39.318692208816806" lon="16.052848967994425"><ele>75.0</ele><time>2026-03-29T10:51:56.999Z</time></trkpt><trkpt lat="39.31856229451304" lon="16.052906336351793"><ele>75.0</ele><time>2026-03-29T10:51:57.999Z</time></trkpt><trkpt lat="39.31843016739882" lon="16.052962263516203"><ele>75.0</ele><time>2026-03-29T10:51:58.999Z</time></trkpt><trkpt lat="39.318297415403826" lon="16.05301920428601"><ele>75.0</ele><time>2026-03-29T10:51:59.999Z</time></trkpt><trkpt lat="39.31816411867423" lon="16.053077735487367"><ele>75.0</ele><time>2026-03-29T10:52:00.999Z</time></trkpt><trkpt lat="39.31802933368408" lon="16.053135682270867"><ele>75.0</ele><time>2026-03-29T10:52:01.999Z</time></trkpt><trkpt lat="39.31789214755019" lon="16.053190458936676"><ele>75.0</ele><time>2026-03-29T10:52:02.999Z</time></trkpt><trkpt lat="39.31775276281299" lon="16.053239128265346"><ele>76.0</ele><time>2026-03-29T10:52:03.999Z</time></trkpt><trkpt lat="39.317611137200146" lon="16.05327953341738"><ele>77.0</ele><time>2026-03-29T10:52:04.999Z</time></trkpt><trkpt lat="39.31746634437844" lon="16.053308712659806"><ele>78.0</ele><time>2026-03-29T10:52:05.999Z</time></trkpt><trkpt lat="39.31731917178725" lon="16.053325543648075"><ele>79.0</ele><time>2026-03-29T10:52:06.999Z</time></trkpt><trkpt lat="39.317174367553655" lon="16.053329242469665"><ele>79.25</ele><time>2026-03-29T10:52:08Z</time></trkpt><trkpt lat="39.317028348101395" lon="16.053326249349645"><ele>79.5</ele><time>2026-03-29T10:52:09Z</time></trkpt><trkpt lat="39.31688196321617" lon="16.053320786607348"><ele>79.75</ele><time>2026-03-29T10:52:10Z</time></trkpt><trkpt lat="39.316735935962704" lon="16.053313971108082"><ele>80.0</ele><time>2026-03-29T10:52:11Z</time></trkpt><trkpt lat="39.316591987152705" lon="16.05330580191063"><ele>80.0</ele><time>2026-03-29T10:52:12Z</time></trkpt><trkpt lat="39.31645018906539" lon="16.05329633138076"><ele>80.0</ele><time>2026-03-29T10:52:13Z</time></trkpt><trkpt lat="39.316309777667605" lon="16.0532856333402"><ele>80.0</ele><time>2026-03-29T10:52:14Z</time></trkpt><trkpt lat="39.31617106530708" lon="16.053273356409687"><ele>80.0</ele><time>2026-03-29T10:52:15Z</time></trkpt><trkpt lat="39.316033033774644" lon="16.053260902312193"><ele>78.75</ele><time>2026-03-29T10:52:16Z</time></trkpt><trkpt lat="39.31589430515625" lon="16.053249142973144"><ele>77.5</ele><time>2026-03-29T10:52:17Z</time></trkpt><trkpt lat="39.31575761178631" lon="16.053237192116008"><ele>76.25</ele><time>2026-03-29T10:52:18Z</time></trkpt><trkpt lat="39.31562323508828" lon="16.053226995342964"><ele>75.0</ele><time>2026-03-29T10:52:19Z</time></trkpt><trkpt lat="39.3154898100802" lon="16.053215506068412"><ele>75.0</ele><time>2026-03-29T10:52:20Z</time></trkpt><trkpt lat="39.31535725495215" lon="16.053198222154016"><ele>75.0</ele><time>2026-03-29T10:52:21Z</time></trkpt><trkpt lat="39.31522594699232" lon="16.053180558085977"><ele>75.0</ele><time>2026-03-29T10:52:22Z</time></trkpt><trkpt lat="39.315092930943706" lon="16.05316861269859"><ele>75.0</ele><time>2026-03-29T10:52:23Z</time></trkpt><trkpt lat="39.31495863729316" lon="16.05315787592239"><ele>75.0</ele><time>2026-03-29T10:52:24Z</time></trkpt><trkpt lat="39.31482364146293" lon="16.0531464433335"><ele>75.0</ele><time>2026-03-29T10:52:25Z</time></trkpt><trkpt lat="39.314690599045626" lon="16.0531372413974"><ele>75.0</ele><time>2026-03-29T10:52:26Z</time></trkpt><trkpt lat="39.3145604808775" lon="16.05312708150851"><ele>75.0</ele><time>2026-03-29T10:52:27Z</time></trkpt><trkpt lat="39.314431884961" lon="16.0531153789791"><ele>74.25</ele><time>2026-03-29T10:52:28Z</time></trkpt><trkpt lat="39.31430272617942" lon="16.053101949263308"><ele>73.5</ele><time>2026-03-29T10:52:29Z</time></trkpt><trkpt lat="39.31417033072925" lon="16.05308968511097"><ele>72.75</ele><time>2026-03-29T10:52:30Z</time></trkpt><trkpt lat="39.3140354926184" lon="16.05308235789271"><ele>72.0</ele><time>2026-03-29T10:52:31Z</time></trkpt><trkpt lat="39.31389809896045" lon="16.053073036574858"><ele>72.0</ele><time>2026-03-29T10:52:32Z</time></trkpt><trkpt lat="39.31375882769227" lon="16.05306427642447"><ele>72.0</ele><time>2026-03-29T10:52:33Z</time></trkpt><trkpt lat="39.313617446710836" lon="16.053054529695792"><ele>72.0</ele><time>2026-03-29T10:52:34Z</time></trkpt><trkpt lat="39.31347342837284" lon="16.053043445575526"><ele>72.0</ele><time>2026-03-29T10:52:35Z</time></trkpt><trkpt lat="39.313329861999236" lon="16.053031687588906"><ele>72.0</ele><time>2026-03-29T10:52:36Z</time></trkpt><trkpt lat="39.313187423422214" lon="16.053019747660752"><ele>72.0</ele><time>2026-03-29T10:52:37Z</time></trkpt><trkpt lat="39.31304542401788" lon="16.053006058019232"><ele>72.0</ele><time>2026-03-29T10:52:38Z</time></trkpt><trkpt lat="39.31290183067263" lon="16.05299489812055"><ele>72.0</ele><time>2026-03-29T10:52:39Z</time></trkpt><trkpt lat="39.31275744790624" lon="16.05298366653276"><ele>72.5</ele><time>2026-03-29T10:52:40Z</time></trkpt><trkpt lat="39.312610434851145" lon="16.052970817022462"><ele>73.0</ele><time>2026-03-29T10:52:41Z</time></trkpt><trkpt lat="39.31246252435608" lon="16.052960019811607"><ele>73.5</ele><time>2026-03-29T10:52:42Z</time></trkpt><trkpt lat="39.312317264882786" lon="16.052947048746514"><ele>74.0</ele><time>2026-03-29T10:52:43Z</time></trkpt><trkpt lat="39.31217731977064" lon="16.052934929952766"><ele>74.5</ele><time>2026-03-29T10:52:44Z</time></trkpt><trkpt lat="39.31204134650463" lon="16.052923633304747"><ele>75.0</ele><time>2026-03-29T10:52:45Z</time></trkpt><trkpt lat="39.31190922104598" lon="16.052913468767713"><ele>75.5</ele><time>2026-03-29T10:52:46Z</time></trkpt><trkpt lat="39.31177943969282" lon="16.052903837772767"><ele>76.0</ele><time>2026-03-29T10:52:47Z</time></trkpt><trkpt lat="39.31165062625145" lon="16.052895617011124"><ele>76.0</ele><time>2026-03-29T10:52:48Z</time></trkpt><trkpt lat="39.31152461727926" lon="16.05288911647261"><ele>76.0</ele><time>2026-03-29T10:52:49Z</time></trkpt><trkpt lat="39.311401349703" lon="16.05288312323918"><ele>76.0</ele><time>2026-03-29T10:52:50Z</time></trkpt><trkpt lat="39.31127700154897" lon="16.052872390211757"><ele>76.0</ele><time>2026-03-29T10:52:51Z</time></trkpt><trkpt lat="39.31115023851082" lon="16.052861544511025"><ele>75.5</ele><time>2026-03-29T10:52:52Z</time></trkpt><trkpt lat="39.31102212320776" lon="16.052849387390292"><ele>75.0</ele><time>2026-03-29T10:52:53Z</time></trkpt><trkpt lat="39.31089450587711" lon="16.052839519310297"><ele>74.5</ele><time>2026-03-29T10:52:54Z</time></trkpt><trkpt lat="39.31076657219451" lon="16.052829938480265"><ele>74.0</ele><time>2026-03-29T10:52:55Z</time></trkpt><trkpt lat="39.31063851520188" lon="16.052821068348493"><ele>74.5</ele><time>2026-03-29T10:52:56Z</time></trkpt><trkpt lat="39.31050981911379" lon="16.052809840311756"><ele>75.0</ele><time>2026-03-29T10:52:57Z</time></trkpt><trkpt lat="39.31038004525075" lon="16.052799722377458"><ele>75.5</ele><time>2026-03-29T10:52:58Z</time></trkpt><trkpt lat="39.31024869016022" lon="16.052791529124317"><ele>76.0</ele><time>2026-03-29T10:52:59Z</time></trkpt><trkpt lat="39.31011594028798" lon="16.052786993946757"><ele>76.0</ele><time>2026-03-29T10:53:00Z</time></trkpt><trkpt lat="39.30998096853337" lon="16.05277843713386"><ele>76.0</ele><time>2026-03-29T10:53:01Z</time></trkpt><trkpt lat="39.30984360435211" lon="16.052768845845332"><ele>76.0</ele><time>2026-03-29T10:53:02Z</time></trkpt><trkpt lat="39.30970421279371" lon="16.05276264099988"><ele>76.0</ele><time>2026-03-29T10:53:03Z</time></trkpt><trkpt lat="39.309563056874076" lon="16.052766233787633"><ele>75.0</ele><time>2026-03-29T10:53:04Z</time></trkpt><trkpt lat="39.30942045288906" lon="16.052778547010284"><ele>74.0</ele><time>2026-03-29T10:53:05Z</time></trkpt><trkpt lat="39.30927634743272" lon="16.052798339064793"><ele>73.0</ele><time>2026-03-29T10:53:06Z</time></trkpt><trkpt lat="39.3091314057808" lon="16.052826456474712"><ele>72.0</ele><time>2026-03-29T10:53:07Z</time></trkpt><trkpt lat="39.30898380362867" lon="16.052861026073355"><ele>70.66666666666667</ele><time>2026-03-29T10:53:08Z</time></trkpt><trkpt lat="39.30883639106878" lon="16.052898428331883"><ele>69.33333333333334</ele><time>2026-03-29T10:53:09Z</time></trkpt><trkpt lat="39.308688381598216" lon="16.052935970994582"><ele>68.0</ele><time>2026-03-29T10:53:10Z</time></trkpt><trkpt lat="39.308539336617656" lon="16.05297333967077"><ele>68.0</ele><time>2026-03-29T10:53:11Z</time></trkpt><trkpt lat="39.30838839976887" lon="16.05301414365282"><ele>68.0</ele><time>2026-03-29T10:53:12Z</time></trkpt><trkpt lat="39.308235446814436" lon="16.053055505947647"><ele>68.0</ele><time>2026-03-29T10:53:13Z</time></trkpt><trkpt lat="39.308081457141306" lon="16.053096731732392"><ele>69.66666666666667</ele><time>2026-03-29T10:53:14Z</time></trkpt><trkpt lat="39.30792505559947" lon="16.053137971702455"><ele>71.33333333333333</ele><time>2026-03-29T10:53:15Z</time></trkpt><trkpt lat="39.307767671682655" lon="16.053181079427137"><ele>73.0</ele><time>2026-03-29T10:53:16Z</time></trkpt><trkpt lat="39.30760663985614" lon="16.053223005684224"><ele>73.0</ele><time>2026-03-29T10:53:17Z</time></trkpt><trkpt lat="39.30744187641951" lon="16.053258752537115"><ele>73.0</ele><time>2026-03-29T10:53:18Z</time></trkpt><trkpt lat="39.307275283472904" lon="16.053285725435632"><ele>73.0</ele><time>2026-03-29T10:53:19Z</time></trkpt><trkpt lat="39.30710664191343" lon="16.053298261177787"><ele>72.66666666666666</ele><time>2026-03-29T10:53:20Z</time></trkpt><trkpt lat="39.30693774605858" lon="16.053290491059506"><ele>72.33333333333333</ele><time>2026-03-29T10:53:21Z</time></trkpt><trkpt lat="39.30678826467075" lon="16.05325553511261"><ele>72.0</ele><time>2026-03-29T10:53:22Z</time></trkpt><trkpt lat="39.30661610052414" lon="16.053216700604118"><ele>70.33333333333333</ele><time>2026-03-29T10:53:23Z</time></trkpt><trkpt lat="39.30644389404734" lon="16.05317841662033"><ele>68.66666666666666</ele><time>2026-03-29T10:53:24Z</time></trkpt><trkpt lat="39.30626491357538" lon="16.053142205509623"><ele>67.0</ele><time>2026-03-29T10:53:25Z</time></trkpt><trkpt lat="39.30608927812715" lon="16.053091418701733"><ele>63.666666666666664</ele><time>2026-03-29T10:53:26Z</time></trkpt><trkpt lat="39.30591634745649" lon="16.053041421208416"><ele>60.33333333333333</ele><time>2026-03-29T10:53:27Z</time></trkpt><trkpt lat="39.3057364467298" lon="16.052996979412203"><ele>57.0</ele><time>2026-03-29T10:53:28Z</time></trkpt><trkpt lat="39.305562972862546" lon="16.052945497553008"><ele>57.0</ele><time>2026-03-29T10:53:29Z</time></trkpt><trkpt lat="39.30539014117752" lon="16.05289422865601"><ele>57.0</ele><time>2026-03-29T10:53:30Z</time></trkpt><trkpt lat="39.30521877646341" lon="16.05284563226829"><ele>57.0</ele><time>2026-03-29T10:53:31Z</time></trkpt><trkpt lat="39.305046626559" lon="16.05280436716801"><ele>57.0</ele><time>2026-03-29T10:53:32Z</time></trkpt><trkpt lat="39.304872875895356" lon="16.052776681468774"><ele>57.0</ele><time>2026-03-29T10:53:33Z</time></trkpt><trkpt lat="39.304699025803494" lon="16.052757439849895"><ele>57.0</ele><time>2026-03-29T10:53:34Z</time></trkpt><trkpt lat="39.304523250572636" lon="16.052750471434422"><ele>55.0</ele><time>2026-03-29T10:53:35Z</time></trkpt><trkpt lat="39.304347241534565" lon="16.05275091865179"><ele>53.0</ele><time>2026-03-29T10:53:36Z</time></trkpt><trkpt lat="39.30417043695849" lon="16.05275632947994"><ele>51.0</ele><time>2026-03-29T10:53:37Z</time></trkpt><trkpt lat="39.30399516287061" lon="16.052769691591187"><ele>49.333333333333336</ele><time>2026-03-29T10:53:38Z</time></trkpt><trkpt lat="39.30381891752432" lon="16.052797372820585"><ele>47.66666666666667</ele><time>2026-03-29T10:53:39Z</time></trkpt><trkpt lat="39.303648328162275" lon="16.05283552674966"><ele>46.0</ele><time>2026-03-29T10:53:40Z</time></trkpt><trkpt lat="39.30347860369361" lon="16.05288159716376"><ele>46.0</ele><time>2026-03-29T10:53:41Z</time></trkpt><trkpt lat="39.303308205996636" lon="16.05293783019741"><ele>46.0</ele><time>2026-03-29T10:53:42Z</time></trkpt><trkpt lat="39.303138625096565" lon="16.053001215236627"><ele>46.0</ele><time>2026-03-29T10:53:43Z</time></trkpt><trkpt lat="39.302969591871076" lon="16.053076873226484"><ele>45.0</ele><time>2026-03-29T10:53:44Z</time></trkpt><trkpt lat="39.3027992186688" lon="16.053154892664672"><ele>44.0</ele><time>2026-03-29T10:53:45Z</time></trkpt><trkpt lat="39.30262801431401" lon="16.053232995895453"><ele>43.0</ele><time>2026-03-29T10:53:46Z</time></trkpt><trkpt lat="39.30245890002015" lon="16.05330836546905"><ele>43.0</ele><time>2026-03-29T10:53:47Z</time></trkpt><trkpt lat="39.30229220259273" lon="16.053378731324305"><ele>43.0</ele><time>2026-03-29T10:53:48Z</time></trkpt><trkpt lat="39.30212594566088" lon="16.053447210970297"><ele>43.0</ele><time>2026-03-29T10:53:49Z</time></trkpt><trkpt lat="39.301958766579034" lon="16.05351472936825"><ele>42.0</ele><time>2026-03-29T10:53:50Z</time></trkpt><trkpt lat="39.30179006698064" lon="16.05358316135101"><ele>41.0</ele><time>2026-03-29T10:53:51Z</time></trkpt><trkpt lat="39.301620560974825" lon="16.053650564365565"><ele>40.0</ele><time>2026-03-29T10:53:52Z</time></trkpt><trkpt lat="39.30145077108199" lon="16.053716510148007"><ele>38.333333333333336</ele><time>2026-03-29T10:53:53Z</time></trkpt><trkpt lat="39.30128072262995" lon="16.05378261175913"><ele>36.666666666666664</ele><time>2026-03-29T10:53:54Z</time></trkpt><trkpt lat="39.301111472222175" lon="16.053853173720363"><ele>35.0</ele><time>2026-03-29T10:53:55Z</time></trkpt><trkpt lat="39.30094214104501" lon="16.053922406214042"><ele>35.0</ele><time>2026-03-29T10:53:56Z</time></trkpt><trkpt lat="39.300771737482265" lon="16.053991266918402"><ele>35.0</ele><time>2026-03-29T10:53:57Z</time></trkpt><trkpt lat="39.30060069163182" lon="16.054059697039833"><ele>35.0</ele><time>2026-03-29T10:53:58Z</time></trkpt><trkpt lat="39.30042967608058" lon="16.054127487633444"><ele>37.33333333333333</ele><time>2026-03-29T10:53:59Z</time></trkpt><trkpt lat="39.300258409720755" lon="16.054198350815827"><ele>39.666666666666664</ele><time>2026-03-29T10:54:00Z</time></trkpt><trkpt lat="39.300087208951" lon="16.054274783038274"><ele>42.0</ele><time>2026-03-29T10:54:01Z</time></trkpt><trkpt lat="39.299917431627925" lon="16.05435614394421"><ele>40.0</ele><time>2026-03-29T10:54:02Z</time></trkpt><trkpt lat="39.299746817229064" lon="16.05444082862635"><ele>38.0</ele><time>2026-03-29T10:54:03Z</time></trkpt><trkpt lat="39.29957656869771" lon="16.054529664867314"><ele>36.0</ele><time>2026-03-29T10:54:04Z</time></trkpt><trkpt lat="39.29940650063222" lon="16.054622139829558"><ele>36.0</ele><time>2026-03-29T10:54:05Z</time></trkpt><trkpt lat="39.29923616878191" lon="16.05471565267064"><ele>36.0</ele><time>2026-03-29T10:54:06Z</time></trkpt><trkpt lat="39.299065096550656" lon="16.05480936415733"><ele>36.0</ele><time>2026-03-29T10:54:07Z</time></trkpt><trkpt lat="39.29889278713491" lon="16.054903282218334"><ele>39.0</ele><time>2026-03-29T10:54:08Z</time></trkpt><trkpt lat="39.29871807240985" lon="16.054998679448747"><ele>42.0</ele><time>2026-03-29T10:54:09Z</time></trkpt><trkpt lat="39.29854260013998" lon="16.05509512248955"><ele>45.0</ele><time>2026-03-29T10:54:10Z</time></trkpt><trkpt lat="39.29836635850139" lon="16.055193204478332"><ele>45.0</ele><time>2026-03-29T10:54:11Z</time></trkpt><trkpt lat="39.29819184361553" lon="16.05529089520541"><ele>45.0</ele><time>2026-03-29T10:54:12Z</time></trkpt><trkpt lat="39.298017015058996" lon="16.05538764445878"><ele>45.0</ele><time>2026-03-29T10:54:13Z</time></trkpt><trkpt lat="39.29784148162455" lon="16.05548116217598"><ele>42.666666666666664</ele><time>2026-03-29T10:54:14.001Z</time></trkpt><trkpt lat="39.297667134458955" lon="16.055568120227544"><ele>40.33333333333333</ele><time>2026-03-29T10:54:15.001Z</time></trkpt><trkpt lat="39.29749111218764" lon="16.05564563876242"><ele>38.0</ele><time>2026-03-29T10:54:16.001Z</time></trkpt><trkpt lat="39.297313435011645" lon="16.055711396354276"><ele>39.666666666666664</ele><time>2026-03-29T10:54:17.001Z</time></trkpt><trkpt lat="39.2971340134288" lon="16.055763496424618"><ele>41.333333333333336</ele><time>2026-03-29T10:54:18.001Z</time></trkpt><trkpt lat="39.296954274919074" lon="16.055804243429595"><ele>43.0</ele><time>2026-03-29T10:54:19.001Z</time></trkpt><trkpt lat="39.29677326119943" lon="16.055841044911475"><ele>43.0</ele><time>2026-03-29T10:54:20.001Z</time></trkpt><trkpt lat="39.296592814855984" lon="16.05587442401818"><ele>43.0</ele><time>2026-03-29T10:54:21.001Z</time></trkpt><trkpt lat="39.29641288375586" lon="16.055905911410537"><ele>43.0</ele><time>2026-03-29T10:54:22.001Z</time></trkpt><trkpt lat="39.29623420048631" lon="16.055938385922754"><ele>41.66666666666667</ele><time>2026-03-29T10:54:23.001Z</time></trkpt><trkpt lat="39.29605449677723" lon="16.055972551149136"><ele>40.333333333333336</ele><time>2026-03-29T10:54:24.001Z</time></trkpt><trkpt lat="39.295875162904274" lon="16.05600553701088"><ele>39.0</ele><time>2026-03-29T10:54:25.001Z</time></trkpt><trkpt lat="39.295694251803525" lon="16.056039789024002"><ele>37.333333333333336</ele><time>2026-03-29T10:54:26.001Z</time></trkpt><trkpt lat="39.29551446224674" lon="16.056074743955982"><ele>35.66666666666667</ele><time>2026-03-29T10:54:27.001Z</time></trkpt><trkpt lat="39.295335138688145" lon="16.056110183779975"><ele>34.0</ele><time>2026-03-29T10:54:28.001Z</time></trkpt><trkpt lat="39.295155526394325" lon="16.056146424803945"><ele>34.0</ele><time>2026-03-29T10:54:29.001Z</time></trkpt><trkpt lat="39.29497642695395" lon="16.05618321785709"><ele>34.0</ele><time>2026-03-29T10:54:30.001Z</time></trkpt><trkpt lat="39.294797392432756" lon="16.056222118136162"><ele>34.0</ele><time>2026-03-29T10:54:31.001Z</time></trkpt><trkpt lat="39.294619238374366" lon="16.05625902291809"><ele>32.66666666666667</ele><time>2026-03-29T10:54:32.001Z</time></trkpt><trkpt lat="39.29444034178923" lon="16.056294531550382"><ele>31.333333333333336</ele><time>2026-03-29T10:54:33.001Z</time></trkpt><trkpt lat="39.29426149698937" lon="16.056328766015127"><ele>30.0</ele><time>2026-03-29T10:54:34.001Z</time></trkpt><trkpt lat="39.29408145039545" lon="16.056360576613177"><ele>28.666666666666664</ele><time>2026-03-29T10:54:35.001Z</time></trkpt><trkpt lat="39.293900451099546" lon="16.056392309307306"><ele>27.333333333333332</ele><time>2026-03-29T10:54:36.001Z</time></trkpt><trkpt lat="39.29371946859213" lon="16.056423727463113"><ele>26.0</ele><time>2026-03-29T10:54:37.001Z</time></trkpt><trkpt lat="39.29353770486763" lon="16.056453882028023"><ele>26.0</ele><time>2026-03-29T10:54:38.001Z</time></trkpt><trkpt lat="39.29335754705039" lon="16.056485983518627"><ele>26.0</ele><time>2026-03-29T10:54:39.001Z</time></trkpt><trkpt lat="39.293179009616395" lon="16.056517515085673"><ele>26.0</ele><time>2026-03-29T10:54:40.001Z</time></trkpt><trkpt lat="39.293003460344174" lon="16.05654857423979"><ele>25.333333333333332</ele><time>2026-03-29T10:54:41.001Z</time></trkpt><trkpt lat="39.292829152740836" lon="16.056585172658362"><ele>24.666666666666664</ele><time>2026-03-29T10:54:42.001Z</time></trkpt><trkpt lat="39.29265726534071" lon="16.056626509607476"><ele>24.0</ele><time>2026-03-29T10:54:43.001Z</time></trkpt><trkpt lat="39.29248688641627" lon="16.056674008891218"><ele>25.666666666666664</ele><time>2026-03-29T10:54:44Z</time></trkpt><trkpt lat="39.29231905956323" lon="16.056730681816198"><ele>27.333333333333332</ele><time>2026-03-29T10:54:45Z</time></trkpt><trkpt lat="39.292152884854765" lon="16.056791364251865"><ele>29.0</ele><time>2026-03-29T10:54:46Z</time></trkpt><trkpt lat="39.291986828831696" lon="16.05685609174276"><ele>29.0</ele><time>2026-03-29T10:54:47Z</time></trkpt><trkpt lat="39.291821588114864" lon="16.056923200310095"><ele>29.0</ele><time>2026-03-29T10:54:48Z</time></trkpt><trkpt lat="39.29165525550413" lon="16.0569901926608"><ele>29.0</ele><time>2026-03-29T10:54:49Z</time></trkpt><trkpt lat="39.29148896234312" lon="16.05705807487663"><ele>24.666666666666664</ele><time>2026-03-29T10:54:50Z</time></trkpt><trkpt lat="39.29132301489809" lon="16.05712425692358"><ele>20.333333333333332</ele><time>2026-03-29T10:54:51Z</time></trkpt><trkpt lat="39.29115713211645" lon="16.057190975224433"><ele>16.0</ele><time>2026-03-29T10:54:52Z</time></trkpt><trkpt lat="39.290991498854375" lon="16.057258609630775"><ele>16.0</ele><time>2026-03-29T10:54:53Z</time></trkpt><trkpt lat="39.29082718005503" lon="16.05732985102618"><ele>16.0</ele><time>2026-03-29T10:54:54Z</time></trkpt><trkpt lat="39.29066088991858" lon="16.05739918326076"><ele>16.0</ele><time>2026-03-29T10:54:55Z</time></trkpt><trkpt lat="39.290493494181476" lon="16.05747070591477"><ele>17.333333333333332</ele><time>2026-03-29T10:54:56Z</time></trkpt><trkpt lat="39.2903214291655" lon="16.05754124893792"><ele>18.666666666666668</ele><time>2026-03-29T10:54:57Z</time></trkpt><trkpt lat="39.290149238331544" lon="16.057610053087405"><ele>20.0</ele><time>2026-03-29T10:54:58Z</time></trkpt><trkpt lat="39.28997484821816" lon="16.057675240735186"><ele>20.0</ele><time>2026-03-29T10:54:59Z</time></trkpt><trkpt lat="39.289795912800344" lon="16.057727020009835"><ele>20.0</ele><time>2026-03-29T10:55:00Z</time></trkpt><trkpt lat="39.289614830400026" lon="16.05776668145863"><ele>20.0</ele><time>2026-03-29T10:55:01Z</time></trkpt><trkpt lat="39.28943157362078" lon="16.057790433563408"><ele>18.666666666666668</ele><time>2026-03-29T10:55:02Z</time></trkpt><trkpt lat="39.28924762849678" lon="16.057799579060003"><ele>17.333333333333332</ele><time>2026-03-29T10:55:03Z</time></trkpt><trkpt lat="39.28906360538107" lon="16.05779697061163"><ele>16.0</ele><time>2026-03-29T10:55:04Z</time></trkpt><trkpt lat="39.28887986647618" lon="16.057786251998124"><ele>15.0</ele><time>2026-03-29T10:55:05Z</time></trkpt><trkpt lat="39.28869578469814" lon="16.057774435420146"><ele>14.0</ele><time>2026-03-29T10:55:06Z</time></trkpt><trkpt lat="39.28851121137139" lon="16.05776202457802"><ele>13.0</ele><time>2026-03-29T10:55:07Z</time></trkpt><trkpt lat="39.28832759442281" lon="16.057749413487024"><ele>13.0</ele><time>2026-03-29T10:55:08Z</time></trkpt><trkpt lat="39.28814523232607" lon="16.05773449372358"><ele>13.0</ele><time>2026-03-29T10:55:09Z</time></trkpt><trkpt lat="39.287962636557076" lon="16.05771803231872"><ele>13.0</ele><time>2026-03-29T10:55:10Z</time></trkpt><trkpt lat="39.28777863814234" lon="16.057701073303356"><ele>13.0</ele><time>2026-03-29T10:55:11Z</time></trkpt><trkpt lat="39.28759297570844" lon="16.057686102171054"><ele>13.0</ele><time>2026-03-29T10:55:12Z</time></trkpt><trkpt lat="39.28740522260307" lon="16.057670679819225"><ele>13.0</ele><time>2026-03-29T10:55:13Z</time></trkpt><trkpt lat="39.28721776051092" lon="16.057653138641566"><ele>13.0</ele><time>2026-03-29T10:55:14Z</time></trkpt><trkpt lat="39.287030931828085" lon="16.05763400308824"><ele>13.0</ele><time>2026-03-29T10:55:15Z</time></trkpt><trkpt lat="39.28684447278568" lon="16.057613455014266"><ele>13.0</ele><time>2026-03-29T10:55:16Z</time></trkpt><trkpt lat="39.286658253495546" lon="16.057593643038818"><ele>13.0</ele><time>2026-03-29T10:55:17Z</time></trkpt><trkpt lat="39.28647242560201" lon="16.057575155365228"><ele>13.0</ele><time>2026-03-29T10:55:18Z</time></trkpt><trkpt lat="39.28628719346931" lon="16.05755768880597"><ele>13.0</ele><time>2026-03-29T10:55:19Z</time></trkpt><trkpt lat="39.286101873732534" lon="16.057544728624876"><ele>13.333333333333332</ele><time>2026-03-29T10:55:20Z</time></trkpt><trkpt lat="39.28591760158369" lon="16.057534963789617"><ele>13.666666666666668</ele><time>2026-03-29T10:55:21Z</time></trkpt><trkpt lat="39.285733445316886" lon="16.05752663549362"><ele>14.0</ele><time>2026-03-29T10:55:22Z</time></trkpt><trkpt lat="39.28555039464262" lon="16.05752351699422"><ele>12.666666666666668</ele><time>2026-03-29T10:55:23Z</time></trkpt><trkpt lat="39.28536861315348" lon="16.057519732770675"><ele>11.333333333333334</ele><time>2026-03-29T10:55:24Z</time></trkpt><trkpt lat="39.28518799498247" lon="16.05751401579437"><ele>10.0</ele><time>2026-03-29T10:55:25Z</time></trkpt><trkpt lat="39.28500924546239" lon="16.057510105741965"><ele>10.0</ele><time>2026-03-29T10:55:26Z</time></trkpt><trkpt lat="39.28483157256024" lon="16.057502052053948"><ele>10.0</ele><time>2026-03-29T10:55:27Z</time></trkpt><trkpt lat="39.28465603870189" lon="16.057492556068873"><ele>10.0</ele><time>2026-03-29T10:55:28Z</time></trkpt><trkpt lat="39.284482255935636" lon="16.05748175449151"><ele>9.666666666666668</ele><time>2026-03-29T10:55:29Z</time></trkpt><trkpt lat="39.28431129046781" lon="16.057471135310234"><ele>9.333333333333334</ele><time>2026-03-29T10:55:30Z</time></trkpt><trkpt lat="39.28414174286918" lon="16.05745964499291"><ele>9.0</ele><time>2026-03-29T10:55:31Z</time></trkpt><trkpt lat="39.283973810055656" lon="16.057448025846906"><ele>8.0</ele><time>2026-03-29T10:55:32Z</time></trkpt><trkpt lat="39.28380689402268" lon="16.057436075866917"><ele>7.0</ele><time>2026-03-29T10:55:33Z</time></trkpt><trkpt lat="39.283641113180764" lon="16.057424897290353"><ele>6.0</ele><time>2026-03-29T10:55:34Z</time></trkpt><trkpt lat="39.28347629281288" lon="16.057414630676146"><ele>6.0</ele><time>2026-03-29T10:55:35Z</time></trkpt><trkpt lat="39.28331228792737" lon="16.057405209855382"><ele>6.0</ele><time>2026-03-29T10:55:36Z</time></trkpt><trkpt lat="39.283148613855516" lon="16.057395731317374"><ele>6.0</ele><time>2026-03-29T10:55:37Z</time></trkpt><trkpt lat="39.28298413666041" lon="16.057385189723604"><ele>6.333333333333334</ele><time>2026-03-29T10:55:38Z</time></trkpt><trkpt lat="39.28282068428464" lon="16.05737394903179"><ele>6.666666666666667</ele><time>2026-03-29T10:55:39Z</time></trkpt><trkpt lat="39.28265720299138" lon="16.057360780270454"><ele>7.0</ele><time>2026-03-29T10:55:40Z</time></trkpt><trkpt lat="39.282495676221636" lon="16.057347451768255"><ele>7.0</ele><time>2026-03-29T10:55:41Z</time></trkpt><trkpt lat="39.28233420409415" lon="16.057335337762634"><ele>7.0</ele><time>2026-03-29T10:55:42Z</time></trkpt><trkpt lat="39.28217347361027" lon="16.0573238191642"><ele>7.0</ele><time>2026-03-29T10:55:43Z</time></trkpt><trkpt lat="39.28201188536303" lon="16.057312851312513"><ele>7.333333333333334</ele><time>2026-03-29T10:55:44Z</time></trkpt><trkpt lat="39.281849841884494" lon="16.057299735829538"><ele>7.666666666666666</ele><time>2026-03-29T10:55:45Z</time></trkpt><trkpt lat="39.28168579015065" lon="16.057287309545526"><ele>8.0</ele><time>2026-03-29T10:55:46Z</time></trkpt><trkpt lat="39.28152037761877" lon="16.057275452546616"><ele>8.333333333333332</ele><time>2026-03-29T10:55:47Z</time></trkpt><trkpt lat="39.28135285184786" lon="16.05726334447294"><ele>8.666666666666666</ele><time>2026-03-29T10:55:48Z</time></trkpt><trkpt lat="39.28118581594541" lon="16.05725143580795"><ele>9.0</ele><time>2026-03-29T10:55:49Z</time></trkpt><trkpt lat="39.28102202066334" lon="16.057240362050543"><ele>9.0</ele><time>2026-03-29T10:55:50Z</time></trkpt><trkpt lat="39.280859858131926" lon="16.05723057114929"><ele>9.0</ele><time>2026-03-29T10:55:51Z</time></trkpt><trkpt lat="39.28069531163071" lon="16.05722679246352"><ele>9.0</ele><time>2026-03-29T10:55:52Z</time></trkpt><trkpt lat="39.2805294453383" lon="16.057234701470843"><ele>8.666666666666666</ele><time>2026-03-29T10:55:53Z</time></trkpt><trkpt lat="39.280360044426054" lon="16.0572443179976"><ele>8.333333333333332</ele><time>2026-03-29T10:55:54Z</time></trkpt><trkpt lat="39.280187506772826" lon="16.05725860950956"><ele>8.0</ele><time>2026-03-29T10:55:55Z</time></trkpt><trkpt lat="39.280011544017775" lon="16.05728221485148"><ele>8.0</ele><time>2026-03-29T10:55:56Z</time></trkpt><trkpt lat="39.27983299257543" lon="16.057308317890797"><ele>8.0</ele><time>2026-03-29T10:55:57Z</time></trkpt><trkpt lat="39.27965375706972" lon="16.057336715854646"><ele>8.0</ele><time>2026-03-29T10:55:58Z</time></trkpt><trkpt lat="39.27947695832609" lon="16.057365641832998"><ele>8.0</ele><time>2026-03-29T10:55:59Z</time></trkpt><trkpt lat="39.27930042068736" lon="16.057394793252758"><ele>8.0</ele><time>2026-03-29T10:56:00Z</time></trkpt><trkpt lat="39.27912137379871" lon="16.057424770717535"><ele>8.0</ele><time>2026-03-29T10:56:01Z</time></trkpt><trkpt lat="39.278939005956865" lon="16.057454375163847"><ele>8.0</ele><time>2026-03-29T10:56:02Z</time></trkpt><trkpt lat="39.27875709375292" lon="16.05748475954881"><ele>8.0</ele><time>2026-03-29T10:56:03Z</time></trkpt><trkpt lat="39.278577685634424" lon="16.057513947626095"><ele>8.0</ele><time>2026-03-29T10:56:04Z</time></trkpt><trkpt lat="39.27840135391549" lon="16.057542896642186"><ele>8.0</ele><time>2026-03-29T10:56:05Z</time></trkpt><trkpt lat="39.278227690108785" lon="16.057573989336284"><ele>8.0</ele><time>2026-03-29T10:56:06Z</time></trkpt><trkpt lat="39.278056063341666" lon="16.057603561474505"><ele>8.0</ele><time>2026-03-29T10:56:07Z</time></trkpt><trkpt lat="39.27788743913432" lon="16.05763244553348"><ele>7.666666666666666</ele><time>2026-03-29T10:56:08Z</time></trkpt><trkpt lat="39.27772269345753" lon="16.057659416659355"><ele>7.333333333333334</ele><time>2026-03-29T10:56:09Z</time></trkpt><trkpt lat="39.277559896352535" lon="16.05768815581192"><ele>7.0</ele><time>2026-03-29T10:56:10Z</time></trkpt><trkpt lat="39.27739892091838" lon="16.057715022143974"><ele>7.333333333333334</ele><time>2026-03-29T10:56:11Z</time></trkpt><trkpt lat="39.27723804212427" lon="16.057744434354802"><ele>7.666666666666666</ele><time>2026-03-29T10:56:12Z</time></trkpt><trkpt lat="39.27707907153483" lon="16.05777251792054"><ele>8.0</ele><time>2026-03-29T10:56:13Z</time></trkpt><trkpt lat="39.27692208508183" lon="16.057799252254487"><ele>8.0</ele><time>2026-03-29T10:56:14Z</time></trkpt><trkpt lat="39.27676712075327" lon="16.057825364461245"><ele>8.0</ele><time>2026-03-29T10:56:15Z</time></trkpt><trkpt lat="39.27661459215659" lon="16.05785104442996"><ele>8.0</ele><time>2026-03-29T10:56:16Z</time></trkpt><trkpt lat="39.276464856622646" lon="16.05787850756069"><ele>8.0</ele><time>2026-03-29T10:56:17Z</time></trkpt><trkpt lat="39.27631700256161" lon="16.05790511873506"><ele>8.0</ele><time>2026-03-29T10:56:18Z</time></trkpt><trkpt lat="39.276171945250276" lon="16.05792980861433"><ele>8.0</ele><time>2026-03-29T10:56:19Z</time></trkpt><trkpt lat="39.276029197012015" lon="16.057952924508847"><ele>8.0</ele><time>2026-03-29T10:56:20.001Z</time></trkpt><trkpt lat="39.275887532620814" lon="16.057976344446086"><ele>8.0</ele><time>2026-03-29T10:56:21.001Z</time></trkpt><trkpt lat="39.27574572888119" lon="16.05799992290196"><ele>8.0</ele><time>2026-03-29T10:56:22.001Z</time></trkpt><trkpt lat="39.27560343894012" lon="16.058024642280216"><ele>8.0</ele><time>2026-03-29T10:56:23.001Z</time></trkpt><trkpt lat="39.275460874408566" lon="16.058048897846316"><ele>8.0</ele><time>2026-03-29T10:56:24.001Z</time></trkpt><trkpt lat="39.275317237944975" lon="16.058072391639218"><ele>8.0</ele><time>2026-03-29T10:56:25.001Z</time></trkpt><trkpt lat="39.27517459893154" lon="16.05809532236106"><ele>8.0</ele><time>2026-03-29T10:56:26.001Z</time></trkpt><trkpt lat="39.275034792599605" lon="16.058118711145415"><ele>8.0</ele><time>2026-03-29T10:56:27.001Z</time></trkpt><trkpt lat="39.274896045025805" lon="16.05814282355226"><ele>8.0</ele><time>2026-03-29T10:56:28.001Z</time></trkpt><trkpt lat="39.27475419188282" lon="16.058166820783928"><ele>7.5</ele><time>2026-03-29T10:56:29.001Z</time></trkpt><trkpt lat="39.274609133160816" lon="16.058190754885917"><ele>7.0</ele><time>2026-03-29T10:56:30.001Z</time></trkpt><trkpt lat="39.27446527239164" lon="16.058215391476526"><ele>6.5</ele><time>2026-03-29T10:56:31.001Z</time></trkpt><trkpt lat="39.27432228876475" lon="16.05824219643239"><ele>6.0</ele><time>2026-03-29T10:56:32.001Z</time></trkpt><trkpt lat="39.274181658989555" lon="16.058268733560496"><ele>6.0</ele><time>2026-03-29T10:56:33.001Z</time></trkpt><trkpt lat="39.274042596031414" lon="16.058293502998104"><ele>6.0</ele><time>2026-03-29T10:56:34.001Z</time></trkpt><trkpt lat="39.273901869686256" lon="16.058317274176424"><ele>6.0</ele><time>2026-03-29T10:56:35.001Z</time></trkpt><trkpt lat="39.27376195467604" lon="16.058339807732448"><ele>6.0</ele><time>2026-03-29T10:56:36.001Z</time></trkpt><trkpt lat="39.27362224839495" lon="16.05836407215623"><ele>6.0</ele><time>2026-03-29T10:56:37.001Z</time></trkpt><trkpt lat="39.27348214661885" lon="16.05838768047975"><ele>6.0</ele><time>2026-03-29T10:56:38.001Z</time></trkpt><trkpt lat="39.27334036979956" lon="16.05841143696893"><ele>6.0</ele><time>2026-03-29T10:56:39.001Z</time></trkpt><trkpt lat="39.27319736551108" lon="16.058433924540125"><ele>6.0</ele><time>2026-03-29T10:56:40.001Z</time></trkpt><trkpt lat="39.27305768678973" lon="16.05845678260916"><ele>7.0</ele><time>2026-03-29T10:56:41.001Z</time></trkpt><trkpt lat="39.27291963644174" lon="16.058479704840323"><ele>8.0</ele><time>2026-03-29T10:56:42.001Z</time></trkpt><trkpt lat="39.27278260241715" lon="16.05850384696283"><ele>9.0</ele><time>2026-03-29T10:56:43.001Z</time></trkpt><trkpt lat="39.27264391149313" lon="16.058527121647458"><ele>10.0</ele><time>2026-03-29T10:56:44.001Z</time></trkpt><trkpt lat="39.2725017739802" lon="16.0585521854661"><ele>10.0</ele><time>2026-03-29T10:56:45.001Z</time></trkpt><trkpt lat="39.272357509451" lon="16.058576466360567"><ele>10.0</ele><time>2026-03-29T10:56:46.001Z</time></trkpt><trkpt lat="39.2722130352026" lon="16.058599905554487"><ele>10.0</ele><time>2026-03-29T10:56:47.001Z</time></trkpt><trkpt lat="39.2720680318737" lon="16.05862223587363"><ele>10.0</ele><time>2026-03-29T10:56:48.001Z</time></trkpt><trkpt lat="39.271922396607856" lon="16.058644429813008"><ele>9.75</ele><time>2026-03-29T10:56:49.001Z</time></trkpt><trkpt lat="39.27177654596618" lon="16.05866624857119"><ele>9.5</ele><time>2026-03-29T10:56:50.001Z</time></trkpt><trkpt lat="39.271629893591914" lon="16.058688990193662"><ele>9.25</ele><time>2026-03-29T10:56:51.001Z</time></trkpt><trkpt lat="39.271481046184476" lon="16.05871616730166"><ele>9.0</ele><time>2026-03-29T10:56:52.001Z</time></trkpt><trkpt lat="39.27133083571011" lon="16.058744882105376"><ele>8.666666666666666</ele><time>2026-03-29T10:56:53.001Z</time></trkpt><trkpt lat="39.2711841018854" lon="16.058776048091815"><ele>8.333333333333332</ele><time>2026-03-29T10:56:54Z</time></trkpt><trkpt lat="39.271036334494994" lon="16.058809068633376"><ele>8.0</ele><time>2026-03-29T10:56:55Z</time></trkpt><trkpt lat="39.27088557672045" lon="16.058845978055793"><ele>8.0</ele><time>2026-03-29T10:56:56Z</time></trkpt><trkpt lat="39.27073269672629" lon="16.058886517988455"><ele>8.0</ele><time>2026-03-29T10:56:57Z</time></trkpt><trkpt lat="39.270578672123655" lon="16.058927591382744"><ele>8.0</ele><time>2026-03-29T10:56:58Z</time></trkpt><trkpt lat="39.270424190611266" lon="16.058973234035424"><ele>7.333333333333333</ele><time>2026-03-29T10:56:59Z</time></trkpt><trkpt lat="39.27026878730843" lon="16.059017271003825"><ele>6.666666666666666</ele><time>2026-03-29T10:57:00Z</time></trkpt><trkpt lat="39.270112073120124" lon="16.059062971592617"><ele>6.0</ele><time>2026-03-29T10:57:01Z</time></trkpt><trkpt lat="39.26995230536781" lon="16.059109763906168"><ele>6.333333333333334</ele><time>2026-03-29T10:57:02Z</time></trkpt><trkpt lat="39.26978940331922" lon="16.059156607422842"><ele>6.666666666666667</ele><time>2026-03-29T10:57:03Z</time></trkpt><trkpt lat="39.26962438768071" lon="16.059203734209973"><ele>7.0</ele><time>2026-03-29T10:57:04Z</time></trkpt><trkpt lat="39.26946028272384" lon="16.059254398896368"><ele>7.0</ele><time>2026-03-29T10:57:05Z</time></trkpt><trkpt lat="39.269295967610596" lon="16.05930388884908"><ele>7.0</ele><time>2026-03-29T10:57:06Z</time></trkpt><trkpt lat="39.26913470490338" lon="16.059351732018744"><ele>7.0</ele><time>2026-03-29T10:57:07Z</time></trkpt><trkpt lat="39.26897371330754" lon="16.05939898602461"><ele>6.666666666666667</ele><time>2026-03-29T10:57:08Z</time></trkpt><trkpt lat="39.26881465529033" lon="16.059447135696562"><ele>6.333333333333334</ele><time>2026-03-29T10:57:09Z</time></trkpt><trkpt lat="39.26865778927362" lon="16.05949437001248"><ele>6.0</ele><time>2026-03-29T10:57:10Z</time></trkpt><trkpt lat="39.26850256084479" lon="16.059539378126818"><ele>6.0</ele><time>2026-03-29T10:57:11Z</time></trkpt><trkpt lat="39.268348914075204" lon="16.059582529523833"><ele>6.0</ele><time>2026-03-29T10:57:12Z</time></trkpt><trkpt lat="39.26819414397036" lon="16.059625393850194"><ele>6.0</ele><time>2026-03-29T10:57:13Z</time></trkpt><trkpt lat="39.268039149142076" lon="16.05966591210379"><ele>6.0</ele><time>2026-03-29T10:57:14Z</time></trkpt><trkpt lat="39.26788156843082" lon="16.059701618802343"><ele>6.0</ele><time>2026-03-29T10:57:15Z</time></trkpt><trkpt lat="39.26772397171123" lon="16.05973249599327"><ele>6.0</ele><time>2026-03-29T10:57:16Z</time></trkpt><trkpt lat="39.267568595918306" lon="16.059756292830983"><ele>6.0</ele><time>2026-03-29T10:57:17Z</time></trkpt><trkpt lat="39.26741486059784" lon="16.05977471123786"><ele>6.0</ele><time>2026-03-29T10:57:18Z</time></trkpt><trkpt lat="39.267263940856665" lon="16.05978856908021"><ele>6.0</ele><time>2026-03-29T10:57:19Z</time></trkpt><trkpt lat="39.26711408501066" lon="16.05979742772874"><ele>5.666666666666667</ele><time>2026-03-29T10:57:20Z</time></trkpt><trkpt lat="39.26696171121095" lon="16.059803383360833"><ele>5.333333333333334</ele><time>2026-03-29T10:57:21Z</time></trkpt><trkpt lat="39.26680641474291" lon="16.059804082847247"><ele>5.0</ele><time>2026-03-29T10:57:22Z</time></trkpt><trkpt lat="39.26664923420791" lon="16.059804008155258"><ele>5.0</ele><time>2026-03-29T10:57:23Z</time></trkpt><trkpt lat="39.26648971166455" lon="16.059802554979907"><ele>5.0</ele><time>2026-03-29T10:57:24Z</time></trkpt><trkpt lat="39.26632798823813" lon="16.05980029273935"><ele>5.0</ele><time>2026-03-29T10:57:25Z</time></trkpt><trkpt lat="39.266167766579734" lon="16.059798244129823"><ele>5.0</ele><time>2026-03-29T10:57:26Z</time></trkpt><trkpt lat="39.266010010524255" lon="16.059795548294236"><ele>5.0</ele><time>2026-03-29T10:57:27Z</time></trkpt><trkpt lat="39.265855327342244" lon="16.05979315499206"><ele>5.0</ele><time>2026-03-29T10:57:28Z</time></trkpt><trkpt lat="39.26570386270118" lon="16.059791546864858"><ele>5.333333333333334</ele><time>2026-03-29T10:57:29Z</time></trkpt><trkpt lat="39.26555354011381" lon="16.05978984776792"><ele>5.666666666666667</ele><time>2026-03-29T10:57:30Z</time></trkpt><trkpt lat="39.26539893840525" lon="16.05978912516968"><ele>6.0</ele><time>2026-03-29T10:57:31Z</time></trkpt><trkpt lat="39.26523769527216" lon="16.05979224601908"><ele>6.0</ele><time>2026-03-29T10:57:32Z</time></trkpt><trkpt lat="39.26506644801135" lon="16.059796687566166"><ele>6.0</ele><time>2026-03-29T10:57:33Z</time></trkpt><trkpt lat="39.264880194251695" lon="16.0597813646705"><ele>6.0</ele><time>2026-03-29T10:57:34Z</time></trkpt><trkpt lat="39.26468667415659" lon="16.059779676510114"><ele>6.0</ele><time>2026-03-29T10:57:35Z</time></trkpt><trkpt lat="39.26448817269462" lon="16.059779067125767"><ele>6.0</ele><time>2026-03-29T10:57:36Z</time></trkpt><trkpt lat="39.264282601138454" lon="16.059778436036595"><ele>6.0</ele><time>2026-03-29T10:57:37Z</time></trkpt><trkpt lat="39.26406792130931" lon="16.05979079426131"><ele>6.666666666666666</ele><time>2026-03-29T10:57:38Z</time></trkpt><trkpt lat="39.26385062727976" lon="16.059780157669366"><ele>7.333333333333333</ele><time>2026-03-29T10:57:39Z</time></trkpt><trkpt lat="39.263630938116094" lon="16.0597756265552"><ele>8.0</ele><time>2026-03-29T10:57:40Z</time></trkpt><trkpt lat="39.26340956397588" lon="16.059772715861534"><ele>8.0</ele><time>2026-03-29T10:57:41Z</time></trkpt><trkpt lat="39.26318675078344" lon="16.059770065634027"><ele>8.0</ele><time>2026-03-29T10:57:42Z</time></trkpt><trkpt lat="39.26296329967803" lon="16.05976593346398"><ele>8.0</ele><time>2026-03-29T10:57:43Z</time></trkpt><trkpt lat="39.262737188861756" lon="16.059763873591415"><ele>7.5</ele><time>2026-03-29T10:57:44Z</time></trkpt><trkpt lat="39.26251015726725" lon="16.05976334145049"><ele>7.0</ele><time>2026-03-29T10:57:45Z</time></trkpt><trkpt lat="39.262280685649046" lon="16.059760369282916"><ele>6.0</ele><time>2026-03-29T10:57:46Z</time></trkpt><trkpt lat="39.26205075452963" lon="16.0597574679176"><ele>5.0</ele><time>2026-03-29T10:57:47Z</time></trkpt><trkpt lat="39.26182015070119" lon="16.05975306809924"><ele>5.0</ele><time>2026-03-29T10:57:48Z</time></trkpt><trkpt lat="39.26158840901559" lon="16.05975013514657"><ele>5.0</ele><time>2026-03-29T10:57:49Z</time></trkpt><trkpt lat="39.26135518323203" lon="16.059746969085754"><ele>4.5</ele><time>2026-03-29T10:57:50Z</time></trkpt><trkpt lat="39.261121246199615" lon="16.05974828411835"><ele>4.0</ele><time>2026-03-29T10:57:51Z</time></trkpt><trkpt lat="39.260885005556574" lon="16.059751399218673"><ele>4.0</ele><time>2026-03-29T10:57:52Z</time></trkpt><trkpt lat="39.26064702594012" lon="16.059757336620365"><ele>4.0</ele><time>2026-03-29T10:57:53Z</time></trkpt><trkpt lat="39.26040635192692" lon="16.05976502564446"><ele>5.5</ele><time>2026-03-29T10:57:54Z</time></trkpt><trkpt lat="39.26016352864413" lon="16.05977278192487"><ele>7.0</ele><time>2026-03-29T10:57:55Z</time></trkpt><trkpt lat="39.25991865005938" lon="16.059779731239818"><ele>7.5</ele><time>2026-03-29T10:57:56Z</time></trkpt><trkpt lat="39.25967096729471" lon="16.05978542749294"><ele>8.0</ele><time>2026-03-29T10:57:57Z</time></trkpt><trkpt lat="39.2594211344901" lon="16.05979360010315"><ele>8.0</ele><time>2026-03-29T10:57:58Z</time></trkpt><trkpt lat="39.259172198284205" lon="16.05980155751774"><ele>8.0</ele><time>2026-03-29T10:57:59Z</time></trkpt><trkpt lat="39.258927657642026" lon="16.059809866796016"><ele>8.5</ele><time>2026-03-29T10:58:00Z</time></trkpt><trkpt lat="39.258686842942005" lon="16.059816580980414"><ele>9.0</ele><time>2026-03-29T10:58:01Z</time></trkpt><trkpt lat="39.25844929969791" lon="16.059825173227065"><ele>9.0</ele><time>2026-03-29T10:58:02Z</time></trkpt><trkpt lat="39.258212854981686" lon="16.059832932118873"><ele>9.0</ele><time>2026-03-29T10:58:03Z</time></trkpt><trkpt lat="39.25797580193723" lon="16.059839592629302"><ele>8.0</ele><time>2026-03-29T10:58:04Z</time></trkpt><trkpt lat="39.257737150744994" lon="16.059846273934465"><ele>7.0</ele><time>2026-03-29T10:58:05Z</time></trkpt><trkpt lat="39.257497355777865" lon="16.059853281124457"><ele>5.5</ele><time>2026-03-29T10:58:06Z</time></trkpt><trkpt lat="39.2572566947209" lon="16.05986275817273"><ele>4.0</ele><time>2026-03-29T10:58:07Z</time></trkpt><trkpt lat="39.25701818763846" lon="16.05987260077535"><ele>4.0</ele><time>2026-03-29T10:58:08Z</time></trkpt><trkpt lat="39.256781129951875" lon="16.05987885923929"><ele>4.0</ele><time>2026-03-29T10:58:09Z</time></trkpt><trkpt lat="39.25654599760967" lon="16.059884965482144"><ele>4.0</ele><time>2026-03-29T10:58:10Z</time></trkpt><trkpt lat="39.25631045232902" lon="16.059893575629484"><ele>4.0</ele><time>2026-03-29T10:58:11Z</time></trkpt><trkpt lat="39.25607531905227" lon="16.059903497786376"><ele>4.0</ele><time>2026-03-29T10:58:12Z</time></trkpt><trkpt lat="39.25584262343772" lon="16.059913779907905"><ele>4.0</ele><time>2026-03-29T10:58:13Z</time></trkpt><trkpt lat="39.25560662144146" lon="16.05992009035725"><ele>4.5</ele><time>2026-03-29T10:58:14Z</time></trkpt><trkpt lat="39.255370053086" lon="16.05992559113324"><ele>5.0</ele><time>2026-03-29T10:58:15Z</time></trkpt><trkpt lat="39.25513486828428" lon="16.0599308427126"><ele>5.0</ele><time>2026-03-29T10:58:16Z</time></trkpt><trkpt lat="39.25490062295397" lon="16.05993513248489"><ele>5.0</ele><time>2026-03-29T10:58:17Z</time></trkpt><trkpt lat="39.25466383166493" lon="16.059940642471577"><ele>5.5</ele><time>2026-03-29T10:58:18Z</time></trkpt><trkpt lat="39.254425506994686" lon="16.059951674209056"><ele>6.0</ele><time>2026-03-29T10:58:19Z</time></trkpt><trkpt lat="39.254183818579214" lon="16.059962527050676"><ele>5.0</ele><time>2026-03-29T10:58:20Z</time></trkpt><trkpt lat="39.2539410213063" lon="16.059972538552863"><ele>4.0</ele><time>2026-03-29T10:58:21Z</time></trkpt><trkpt lat="39.25369841669142" lon="16.05998130644733"><ele>4.0</ele><time>2026-03-29T10:58:22Z</time></trkpt><trkpt lat="39.25345700360673" lon="16.059989647747578"><ele>4.0</ele><time>2026-03-29T10:58:23Z</time></trkpt><trkpt lat="39.25321499140109" lon="16.059995830204922"><ele>4.0</ele><time>2026-03-29T10:58:24Z</time></trkpt><trkpt lat="39.252976971269796" lon="16.060000336088912"><ele>4.0</ele><time>2026-03-29T10:58:25.001Z</time></trkpt><trkpt lat="39.25274108256712" lon="16.06000469323964"><ele>4.0</ele><time>2026-03-29T10:58:26.001Z</time></trkpt><trkpt lat="39.252505769295084" lon="16.06001349216107"><ele>4.0</ele><time>2026-03-29T10:58:27.001Z</time></trkpt><trkpt lat="39.2522694422031" lon="16.06002479729756"><ele>4.0</ele><time>2026-03-29T10:58:28.001Z</time></trkpt><trkpt lat="39.2520317843678" lon="16.06004260939162"><ele>4.0</ele><time>2026-03-29T10:58:29.001Z</time></trkpt><trkpt lat="39.25179392213831" lon="16.060073036112737"><ele>4.0</ele><time>2026-03-29T10:58:30.001Z</time></trkpt><trkpt lat="39.251558553599146" lon="16.060116427917627"><ele>4.0</ele><time>2026-03-29T10:58:31.001Z</time></trkpt><trkpt lat="39.25132752931218" lon="16.060175728588856"><ele>4.5</ele><time>2026-03-29T10:58:32.001Z</time></trkpt><trkpt lat="39.251099374158734" lon="16.060247453351536"><ele>5.0</ele><time>2026-03-29T10:58:33.001Z</time></trkpt><trkpt lat="39.25087466526184" lon="16.0603295345213"><ele>5.0</ele><time>2026-03-29T10:58:34.001Z</time></trkpt><trkpt lat="39.250653157311056" lon="16.060425608620687"><ele>5.0</ele><time>2026-03-29T10:58:35.001Z</time></trkpt><trkpt lat="39.25043414291378" lon="16.060532050949785"><ele>4.5</ele><time>2026-03-29T10:58:36.001Z</time></trkpt><trkpt lat="39.250217766917295" lon="16.060647196910374"><ele>4.0</ele><time>2026-03-29T10:58:37.001Z</time></trkpt><trkpt lat="39.25000290182006" lon="16.060764612356614"><ele>6.5</ele><time>2026-03-29T10:58:38.001Z</time></trkpt><trkpt lat="39.249791239274735" lon="16.06088285402152"><ele>9.0</ele><time>2026-03-29T10:58:39.001Z</time></trkpt><trkpt lat="39.24958367197658" lon="16.061000367659144"><ele>9.0</ele><time>2026-03-29T10:58:40.001Z</time></trkpt><trkpt lat="39.24938006233262" lon="16.061116245197837"><ele>9.0</ele><time>2026-03-29T10:58:41.001Z</time></trkpt><trkpt lat="39.24917695439287" lon="16.061229415652402"><ele>9.0</ele><time>2026-03-29T10:58:42.001Z</time></trkpt><trkpt lat="39.24897326165127" lon="16.061339273039433"><ele>10.0</ele><time>2026-03-29T10:58:43.001Z</time></trkpt><trkpt lat="39.248773483189545" lon="16.06144971311668"><ele>11.0</ele><time>2026-03-29T10:58:44.001Z</time></trkpt><trkpt lat="39.24857497458618" lon="16.06155969550778"><ele>12.0</ele><time>2026-03-29T10:58:45.001Z</time></trkpt><trkpt lat="39.24837845164846" lon="16.061669382541737"><ele>12.0</ele><time>2026-03-29T10:58:46.001Z</time></trkpt><trkpt lat="39.24818254730344" lon="16.061781381159953"><ele>12.0</ele><time>2026-03-29T10:58:47.001Z</time></trkpt><trkpt lat="39.24797421457873" lon="16.061875465869445"><ele>12.0</ele><time>2026-03-29T10:58:48.001Z</time></trkpt><trkpt lat="39.247768015261556" lon="16.061990570614874"><ele>12.0</ele><time>2026-03-29T10:58:49.001Z</time></trkpt><trkpt lat="39.247568924092725" lon="16.06212355716978"><ele>12.0</ele><time>2026-03-29T10:58:50.001Z</time></trkpt><trkpt lat="39.247352047537916" lon="16.062215018178172"><ele>10.666666666666666</ele><time>2026-03-29T10:58:51.001Z</time></trkpt><trkpt lat="39.247145183609604" lon="16.062322301764834"><ele>9.333333333333332</ele><time>2026-03-29T10:58:52.001Z</time></trkpt><trkpt lat="39.24694039399607" lon="16.06241968782138"><ele>8.0</ele><time>2026-03-29T10:58:53.001Z</time></trkpt><trkpt lat="39.24673359695697" lon="16.062500788439387"><ele>9.333333333333332</ele><time>2026-03-29T10:58:54.001Z</time></trkpt><trkpt lat="39.246525800775444" lon="16.062572470821387"><ele>10.666666666666666</ele><time>2026-03-29T10:58:55.001Z</time></trkpt><trkpt lat="39.24631554266337" lon="16.06263261976137"><ele>12.0</ele><time>2026-03-29T10:58:56.001Z</time></trkpt><trkpt lat="39.246102727881755" lon="16.062675519694174"><ele>12.0</ele><time>2026-03-29T10:58:57Z</time></trkpt><trkpt lat="39.24588826073529" lon="16.062704441634715"><ele>12.0</ele><time>2026-03-29T10:58:58Z</time></trkpt><trkpt lat="39.24567460319629" lon="16.062719668777277"><ele>12.0</ele><time>2026-03-29T10:58:59Z</time></trkpt><trkpt lat="39.24547536084497" lon="16.062727965589847"><ele>13.333333333333332</ele><time>2026-03-29T10:59:00Z</time></trkpt><trkpt lat="39.24530293583259" lon="16.062733448353956"><ele>14.666666666666666</ele><time>2026-03-29T10:59:01Z</time></trkpt><trkpt lat="39.245143714533626" lon="16.062735532760904"><ele>16.0</ele><time>2026-03-29T10:59:02Z</time></trkpt><trkpt lat="39.24498571315702" lon="16.062734318036775"><ele>16.0</ele><time>2026-03-29T10:59:03Z</time></trkpt><trkpt lat="39.2448248930092" lon="16.06273366115561"><ele>16.0</ele><time>2026-03-29T10:59:04Z</time></trkpt><trkpt lat="39.24465946613833" lon="16.062733588587456"><ele>16.0</ele><time>2026-03-29T10:59:05Z</time></trkpt><trkpt lat="39.24448981664748" lon="16.06273521161852"><ele>15.333333333333332</ele><time>2026-03-29T10:59:06Z</time></trkpt><trkpt lat="39.244314439873065" lon="16.06274581817018"><ele>14.666666666666668</ele><time>2026-03-29T10:59:07Z</time></trkpt><trkpt lat="39.24413523681382" lon="16.06275582221232"><ele>14.0</ele><time>2026-03-29T10:59:08Z</time></trkpt><trkpt lat="39.243950511198015" lon="16.06276130312362"><ele>13.666666666666668</ele><time>2026-03-29T10:59:09Z</time></trkpt><trkpt lat="39.24376165004416" lon="16.06276231596104"><ele>13.333333333333332</ele><time>2026-03-29T10:59:10Z</time></trkpt><trkpt lat="39.24356894223664" lon="16.0627539227887"><ele>13.0</ele><time>2026-03-29T10:59:11Z</time></trkpt><trkpt lat="39.24337364848996" lon="16.062739674488725"><ele>13.0</ele><time>2026-03-29T10:59:12Z</time></trkpt><trkpt lat="39.243176973708415" lon="16.062710229038267"><ele>13.0</ele><time>2026-03-29T10:59:13Z</time></trkpt><trkpt lat="39.24298010671436" lon="16.062662482846033"><ele>13.0</ele><time>2026-03-29T10:59:14Z</time></trkpt><trkpt lat="39.24278533734216" lon="16.062592629413814"><ele>12.666666666666666</ele><time>2026-03-29T10:59:15Z</time></trkpt><trkpt lat="39.24259345905426" lon="16.06250039346301"><ele>12.333333333333332</ele><time>2026-03-29T10:59:16Z</time></trkpt><trkpt lat="39.24240197594045" lon="16.06239272737896"><ele>12.0</ele><time>2026-03-29T10:59:17Z</time></trkpt><trkpt lat="39.242216766291364" lon="16.06226472335363"><ele>12.0</ele><time>2026-03-29T10:59:18Z</time></trkpt><trkpt lat="39.24203594043531" lon="16.062118243387925"><ele>12.0</ele><time>2026-03-29T10:59:19Z</time></trkpt><trkpt lat="39.2418552169453" lon="16.06196550679466"><ele>12.0</ele><time>2026-03-29T10:59:20Z</time></trkpt><trkpt lat="39.241674358884666" lon="16.061808669745872"><ele>12.0</ele><time>2026-03-29T10:59:21Z</time></trkpt><trkpt lat="39.24149603786661" lon="16.061651671344745"><ele>12.0</ele><time>2026-03-29T10:59:22Z</time></trkpt><trkpt lat="39.24131613895913" lon="16.06149544644086"><ele>12.0</ele><time>2026-03-29T10:59:23Z</time></trkpt><trkpt lat="39.24113878630669" lon="16.061341652392993"><ele>12.333333333333332</ele><time>2026-03-29T10:59:24Z</time></trkpt><trkpt lat="39.240956161275875" lon="16.061182365402882"><ele>12.666666666666666</ele><time>2026-03-29T10:59:25Z</time></trkpt><trkpt lat="39.24077300644097" lon="16.061024416082994"><ele>13.0</ele><time>2026-03-29T10:59:26Z</time></trkpt><trkpt lat="39.24058949699513" lon="16.060866455644057"><ele>11.666666666666666</ele><time>2026-03-29T10:59:27Z</time></trkpt><trkpt lat="39.240403077953864" lon="16.06070962955617"><ele>10.333333333333332</ele><time>2026-03-29T10:59:28Z</time></trkpt><trkpt lat="39.240215212750996" lon="16.060555404998542"><ele>9.0</ele><time>2026-03-29T10:59:29Z</time></trkpt><trkpt lat="39.24002486566274" lon="16.060408147323354"><ele>9.0</ele><time>2026-03-29T10:59:30Z</time></trkpt><trkpt lat="39.23982776783237" lon="16.060270575279116"><ele>9.0</ele><time>2026-03-29T10:59:31Z</time></trkpt><trkpt lat="39.239623956817184" lon="16.060144715510106"><ele>7.5</ele><time>2026-03-29T10:59:32Z</time></trkpt><trkpt lat="39.2394135604543" lon="16.06003546409494"><ele>6.0</ele><time>2026-03-29T10:59:33Z</time></trkpt><trkpt lat="39.23919963056584" lon="16.059939498953387"><ele>6.0</ele><time>2026-03-29T10:59:34Z</time></trkpt><trkpt lat="39.23898126488452" lon="16.05985581102256"><ele>6.0</ele><time>2026-03-29T10:59:35Z</time></trkpt><trkpt lat="39.238759064925574" lon="16.059780476956536"><ele>5.5</ele><time>2026-03-29T10:59:36Z</time></trkpt><trkpt lat="39.23853398394366" lon="16.059728540101524"><ele>5.0</ele><time>2026-03-29T10:59:37Z</time></trkpt><trkpt lat="39.2383073196987" lon="16.059692870829995"><ele>5.0</ele><time>2026-03-29T10:59:38Z</time></trkpt><trkpt lat="39.23807976328531" lon="16.059668596321654"><ele>5.0</ele><time>2026-03-29T10:59:39Z</time></trkpt><trkpt lat="39.237853974728864" lon="16.059659714581322"><ele>5.0</ele><time>2026-03-29T10:59:40Z</time></trkpt><trkpt lat="39.2376280781275" lon="16.05966095256569"><ele>5.0</ele><time>2026-03-29T10:59:41Z</time></trkpt><trkpt lat="39.237401122424224" lon="16.059665882377605"><ele>5.0</ele><time>2026-03-29T10:59:42Z</time></trkpt><trkpt lat="39.23717223147595" lon="16.059670742271113"><ele>5.0</ele><time>2026-03-29T10:59:43Z</time></trkpt><trkpt lat="39.23694038597438" lon="16.059675834854836"><ele>5.0</ele><time>2026-03-29T10:59:44Z</time></trkpt><trkpt lat="39.236705721540694" lon="16.05968032176984"><ele>5.0</ele><time>2026-03-29T10:59:45Z</time></trkpt><trkpt lat="39.236469320519454" lon="16.05968412888786"><ele>4.5</ele><time>2026-03-29T10:59:46Z</time></trkpt><trkpt lat="39.236232446157956" lon="16.05968838987793"><ele>4.0</ele><time>2026-03-29T10:59:47Z</time></trkpt><trkpt lat="39.23599516557518" lon="16.059694995093388"><ele>4.0</ele><time>2026-03-29T10:59:48Z</time></trkpt><trkpt lat="39.235762377177124" lon="16.059701896149186"><ele>4.0</ele><time>2026-03-29T10:59:49Z</time></trkpt><trkpt lat="39.23553004861451" lon="16.059709407140602"><ele>4.0</ele><time>2026-03-29T10:59:50Z</time></trkpt><trkpt lat="39.23529710898234" lon="16.05972060265951"><ele>4.0</ele><time>2026-03-29T10:59:51Z</time></trkpt><trkpt lat="39.23506674291067" lon="16.05974022765382"><ele>4.0</ele><time>2026-03-29T10:59:52Z</time></trkpt><trkpt lat="39.23484042849598" lon="16.059765966747943"><ele>4.0</ele><time>2026-03-29T10:59:53Z</time></trkpt><trkpt lat="39.234617172068916" lon="16.05979639442201"><ele>4.0</ele><time>2026-03-29T10:59:54Z</time></trkpt><trkpt lat="39.23439639176676" lon="16.059829927331425"><ele>4.0</ele><time>2026-03-29T10:59:55Z</time></trkpt><trkpt lat="39.234178886078546" lon="16.05986664205859"><ele>4.0</ele><time>2026-03-29T10:59:56Z</time></trkpt><trkpt lat="39.23396307164845" lon="16.059903144612946"><ele>4.333333333333333</ele><time>2026-03-29T10:59:57Z</time></trkpt><trkpt lat="39.233746548682795" lon="16.059938331821552"><ele>4.666666666666667</ele><time>2026-03-29T10:59:58Z</time></trkpt><trkpt lat="39.23353245086988" lon="16.05996961229357"><ele>5.0</ele><time>2026-03-29T10:59:59Z</time></trkpt><trkpt lat="39.23331985292018" lon="16.059998517134566"><ele>5.333333333333334</ele><time>2026-03-29T11:00:00Z</time></trkpt><trkpt lat="39.23310886678414" lon="16.060022721412412"><ele>5.666666666666667</ele><time>2026-03-29T11:00:01Z</time></trkpt><trkpt lat="39.23289926578385" lon="16.06004377815205"><ele>6.0</ele><time>2026-03-29T11:00:02Z</time></trkpt><trkpt lat="39.23269106840203" lon="16.060060139978443"><ele>6.0</ele><time>2026-03-29T11:00:03Z</time></trkpt><trkpt lat="39.23248486214981" lon="16.06007361158666"><ele>6.0</ele><time>2026-03-29T11:00:04Z</time></trkpt><trkpt lat="39.232279635926524" lon="16.0600857484391"><ele>6.0</ele><time>2026-03-29T11:00:05Z</time></trkpt><trkpt lat="39.23207515949571" lon="16.06009826203307"><ele>6.0</ele><time>2026-03-29T11:00:06Z</time></trkpt><trkpt lat="39.231870091122644" lon="16.060113346469983"><ele>6.0</ele><time>2026-03-29T11:00:07Z</time></trkpt><trkpt lat="39.23166552690902" lon="16.060126346504312"><ele>6.0</ele><time>2026-03-29T11:00:08Z</time></trkpt><trkpt lat="39.231461326214024" lon="16.06013780375797"><ele>6.0</ele><time>2026-03-29T11:00:09Z</time></trkpt><trkpt lat="39.23125658667161" lon="16.060149368328148"><ele>6.0</ele><time>2026-03-29T11:00:10Z</time></trkpt><trkpt lat="39.23105254632061" lon="16.06016024108415"><ele>6.0</ele><time>2026-03-29T11:00:11Z</time></trkpt><trkpt lat="39.23084669991489" lon="16.060172965972775"><ele>6.0</ele><time>2026-03-29T11:00:12Z</time></trkpt><trkpt lat="39.230642458205416" lon="16.060185665000887"><ele>6.0</ele><time>2026-03-29T11:00:13Z</time></trkpt><trkpt lat="39.230439057518474" lon="16.06019715500163"><ele>6.0</ele><time>2026-03-29T11:00:14Z</time></trkpt><trkpt lat="39.230235054480744" lon="16.060207446982453"><ele>6.333333333333334</ele><time>2026-03-29T11:00:15Z</time></trkpt><trkpt lat="39.23003073048243" lon="16.06021715909148"><ele>6.666666666666667</ele><time>2026-03-29T11:00:16Z</time></trkpt><trkpt lat="39.229827597098925" lon="16.06022695444925"><ele>7.0</ele><time>2026-03-29T11:00:17Z</time></trkpt><trkpt lat="39.22962586557378" lon="16.0602385553125"><ele>7.0</ele><time>2026-03-29T11:00:18Z</time></trkpt><trkpt lat="39.22942412920791" lon="16.06025091247833"><ele>7.0</ele><time>2026-03-29T11:00:19Z</time></trkpt><trkpt lat="39.22922421927414" lon="16.06026361700947"><ele>7.0</ele><time>2026-03-29T11:00:20Z</time></trkpt><trkpt lat="39.22902489002296" lon="16.060275586035843"><ele>7.0</ele><time>2026-03-29T11:00:21Z</time></trkpt><trkpt lat="39.22882561205589" lon="16.060286877823764"><ele>7.0</ele><time>2026-03-29T11:00:22Z</time></trkpt><trkpt lat="39.22862787568366" lon="16.06029919162432"><ele>7.0</ele><time>2026-03-29T11:00:23Z</time></trkpt><trkpt lat="39.228430677983226" lon="16.060310713742012"><ele>7.0</ele><time>2026-03-29T11:00:24Z</time></trkpt><trkpt lat="39.22823362520087" lon="16.060322268489365"><ele>7.0</ele><time>2026-03-29T11:00:25Z</time></trkpt><trkpt lat="39.228037904799514" lon="16.06033298420829"><ele>7.0</ele><time>2026-03-29T11:00:26Z</time></trkpt><trkpt lat="39.22784237397169" lon="16.060343843670264"><ele>7.0</ele><time>2026-03-29T11:00:27Z</time></trkpt><trkpt lat="39.22764693397681" lon="16.060353563996863"><ele>7.0</ele><time>2026-03-29T11:00:28Z</time></trkpt><trkpt lat="39.227452054939924" lon="16.060365334153797"><ele>7.0</ele><time>2026-03-29T11:00:29Z</time></trkpt><trkpt lat="39.22725735322383" lon="16.06037759242741"><ele>7.0</ele><time>2026-03-29T11:00:30Z</time></trkpt><trkpt lat="39.22706243011495" lon="16.06039094772327"><ele>7.0</ele><time>2026-03-29T11:00:31.001Z</time></trkpt><trkpt lat="39.226867461791315" lon="16.06040519675571"><ele>7.0</ele><time>2026-03-29T11:00:32.001Z</time></trkpt><trkpt lat="39.22667251205159" lon="16.060415909388645"><ele>6.666666666666667</ele><time>2026-03-29T11:00:33.001Z</time></trkpt><trkpt lat="39.22647734496298" lon="16.06042721652052"><ele>6.333333333333334</ele><time>2026-03-29T11:00:34.001Z</time></trkpt><trkpt lat="39.2262804626063" lon="16.060437335256136"><ele>6.0</ele><time>2026-03-29T11:00:35.001Z</time></trkpt><trkpt lat="39.22608304009339" lon="16.060445746332032"><ele>6.0</ele><time>2026-03-29T11:00:36.001Z</time></trkpt><trkpt lat="39.22588457242257" lon="16.060457451754715"><ele>6.0</ele><time>2026-03-29T11:00:37.001Z</time></trkpt><trkpt lat="39.22568394850862" lon="16.060470071951592"><ele>6.0</ele><time>2026-03-29T11:00:38.001Z</time></trkpt><trkpt lat="39.22548083932882" lon="16.06048283182885"><ele>6.333333333333334</ele><time>2026-03-29T11:00:39.001Z</time></trkpt><trkpt lat="39.22527626107754" lon="16.060496443251463"><ele>6.666666666666667</ele><time>2026-03-29T11:00:40.001Z</time></trkpt><trkpt lat="39.225072500236976" lon="16.06050824437156"><ele>7.0</ele><time>2026-03-29T11:00:41.001Z</time></trkpt><trkpt lat="39.224869939720435" lon="16.060520927814615"><ele>7.666666666666667</ele><time>2026-03-29T11:00:42.001Z</time></trkpt><trkpt lat="39.224668402186914" lon="16.06053192362301"><ele>8.333333333333334</ele><time>2026-03-29T11:00:43.001Z</time></trkpt><trkpt lat="39.22446584147071" lon="16.06054450972704"><ele>9.0</ele><time>2026-03-29T11:00:44.001Z</time></trkpt><trkpt lat="39.224259714396254" lon="16.06055942239859"><ele>9.0</ele><time>2026-03-29T11:00:45.001Z</time></trkpt><trkpt lat="39.224051266242846" lon="16.060572971150794"><ele>9.0</ele><time>2026-03-29T11:00:46.001Z</time></trkpt><trkpt lat="39.223840840008926" lon="16.06058493891545"><ele>9.0</ele><time>2026-03-29T11:00:47.001Z</time></trkpt><trkpt lat="39.22362984866416" lon="16.060599166883076"><ele>9.0</ele><time>2026-03-29T11:00:48.001Z</time></trkpt><trkpt lat="39.2234210427706" lon="16.06061173566291"><ele>9.0</ele><time>2026-03-29T11:00:49.001Z</time></trkpt><trkpt lat="39.22321218366694" lon="16.06062486507401"><ele>9.0</ele><time>2026-03-29T11:00:50.001Z</time></trkpt><trkpt lat="39.22300277802301" lon="16.060638881070403"><ele>9.333333333333334</ele><time>2026-03-29T11:00:51.001Z</time></trkpt><trkpt lat="39.22279622595524" lon="16.060654657541935"><ele>9.666666666666668</ele><time>2026-03-29T11:00:52.001Z</time></trkpt><trkpt lat="39.222592813530945" lon="16.060672004670817"><ele>10.0</ele><time>2026-03-29T11:00:53.001Z</time></trkpt><trkpt lat="39.222390735941225" lon="16.060694949389106"><ele>10.666666666666668</ele><time>2026-03-29T11:00:54.001Z</time></trkpt><trkpt lat="39.2221873766815" lon="16.060726165042677"><ele>11.333333333333334</ele><time>2026-03-29T11:00:55.001Z</time></trkpt><trkpt lat="39.22198364973807" lon="16.060770961746098"><ele>12.0</ele><time>2026-03-29T11:00:56.001Z</time></trkpt><trkpt lat="39.2217825675036" lon="16.06082405758274"><ele>12.0</ele><time>2026-03-29T11:00:57Z</time></trkpt><trkpt lat="39.221583179179" lon="16.06088352815406"><ele>12.0</ele><time>2026-03-29T11:00:58Z</time></trkpt><trkpt lat="39.22138634046646" lon="16.06094828066867"><ele>12.0</ele><time>2026-03-29T11:00:59Z</time></trkpt><trkpt lat="39.22119098337305" lon="16.061018428105946"><ele>12.0</ele><time>2026-03-29T11:01:00Z</time></trkpt><trkpt lat="39.2209968318052" lon="16.06108204010282"><ele>12.0</ele><time>2026-03-29T11:01:01Z</time></trkpt><trkpt lat="39.22080157606867" lon="16.061147679162833"><ele>12.0</ele><time>2026-03-29T11:01:02Z</time></trkpt><trkpt lat="39.220604720460926" lon="16.061211878389535"><ele>12.0</ele><time>2026-03-29T11:01:03Z</time></trkpt><trkpt lat="39.220404862246326" lon="16.061279335552587"><ele>12.0</ele><time>2026-03-29T11:01:04Z</time></trkpt><trkpt lat="39.220203385189365" lon="16.061345556844067"><ele>12.0</ele><time>2026-03-29T11:01:05Z</time></trkpt><trkpt lat="39.22000394106358" lon="16.061409890146365"><ele>11.666666666666666</ele><time>2026-03-29T11:01:06Z</time></trkpt><trkpt lat="39.219806155869506" lon="16.061474377708215"><ele>11.333333333333332</ele><time>2026-03-29T11:01:07Z</time></trkpt><trkpt lat="39.219606231822404" lon="16.061537318353277"><ele>11.0</ele><time>2026-03-29T11:01:08Z</time></trkpt><trkpt lat="39.219404090185684" lon="16.06160397641101"><ele>11.666666666666666</ele><time>2026-03-29T11:01:09Z</time></trkpt><trkpt lat="39.21920014634134" lon="16.061673588692486"><ele>12.333333333333332</ele><time>2026-03-29T11:01:10Z</time></trkpt><trkpt lat="39.21899884474469" lon="16.06174180762675"><ele>13.0</ele><time>2026-03-29T11:01:11Z</time></trkpt><trkpt lat="39.21879828979418" lon="16.06181109644468"><ele>11.333333333333332</ele><time>2026-03-29T11:01:12Z</time></trkpt><trkpt lat="39.21859920637878" lon="16.061878343458947"><ele>9.666666666666666</ele><time>2026-03-29T11:01:13Z</time></trkpt><trkpt lat="39.21840175027978" lon="16.06194498095995"><ele>8.0</ele><time>2026-03-29T11:01:14Z</time></trkpt><trkpt lat="39.21820555663317" lon="16.062012170076077"><ele>7.333333333333333</ele><time>2026-03-29T11:01:15Z</time></trkpt><trkpt lat="39.2180097165913" lon="16.06207768717213"><ele>6.666666666666666</ele><time>2026-03-29T11:01:16Z</time></trkpt><trkpt lat="39.21781523560372" lon="16.062140882491086"><ele>6.0</ele><time>2026-03-29T11:01:17Z</time></trkpt><trkpt lat="39.21762159755894" lon="16.062204747989156"><ele>6.0</ele><time>2026-03-29T11:01:18Z</time></trkpt><trkpt lat="39.21742798153261" lon="16.062269154513"><ele>6.0</ele><time>2026-03-29T11:01:19Z</time></trkpt><trkpt lat="39.21723263396613" lon="16.06232902635906"><ele>6.0</ele><time>2026-03-29T11:01:20Z</time></trkpt><trkpt lat="39.21703337162434" lon="16.06237858788273"><ele>6.0</ele><time>2026-03-29T11:01:21Z</time></trkpt><trkpt lat="39.21683142094479" lon="16.062414472334396"><ele>6.0</ele><time>2026-03-29T11:01:22Z</time></trkpt><trkpt lat="39.216627901202784" lon="16.06244051339849"><ele>6.0</ele><time>2026-03-29T11:01:23Z</time></trkpt><trkpt lat="39.21641911535672" lon="16.062458873644935"><ele>6.0</ele><time>2026-03-29T11:01:24Z</time></trkpt><trkpt lat="39.216209646514315" lon="16.06246905023017"><ele>6.0</ele><time>2026-03-29T11:01:25Z</time></trkpt><trkpt lat="39.21599799645756" lon="16.062479820722224"><ele>6.0</ele><time>2026-03-29T11:01:26Z</time></trkpt><trkpt lat="39.21578902165942" lon="16.062491392265432"><ele>6.0</ele><time>2026-03-29T11:01:27Z</time></trkpt><trkpt lat="39.215583973496834" lon="16.062502574411255"><ele>6.0</ele><time>2026-03-29T11:01:28Z</time></trkpt><trkpt lat="39.21537931333658" lon="16.062510244901848"><ele>6.0</ele><time>2026-03-29T11:01:29Z</time></trkpt><trkpt lat="39.215178228894075" lon="16.062519739315004"><ele>6.0</ele><time>2026-03-29T11:01:30Z</time></trkpt><trkpt lat="39.214976659482026" lon="16.06252972993061"><ele>6.0</ele><time>2026-03-29T11:01:31Z</time></trkpt><trkpt lat="39.21477529094426" lon="16.062538675336185"><ele>6.0</ele><time>2026-03-29T11:01:32Z</time></trkpt><trkpt lat="39.21457209314259" lon="16.06254865989542"><ele>6.333333333333334</ele><time>2026-03-29T11:01:33Z</time></trkpt><trkpt lat="39.21436870992642" lon="16.062558376687274"><ele>6.666666666666667</ele><time>2026-03-29T11:01:34Z</time></trkpt><trkpt lat="39.2141701012414" lon="16.06256727120849"><ele>7.0</ele><time>2026-03-29T11:01:35Z</time></trkpt><trkpt lat="39.21397414627722" lon="16.06257637909082"><ele>7.0</ele><time>2026-03-29T11:01:36Z</time></trkpt><trkpt lat="39.21377915686653" lon="16.062585576401982"><ele>7.0</ele><time>2026-03-29T11:01:37Z</time></trkpt><trkpt lat="39.21358776936985" lon="16.062596131553615"><ele>7.0</ele><time>2026-03-29T11:01:38Z</time></trkpt><trkpt lat="39.213398653846795" lon="16.06260666231433"><ele>7.0</ele><time>2026-03-29T11:01:39Z</time></trkpt><trkpt lat="39.21321184573178" lon="16.062616420422675"><ele>7.0</ele><time>2026-03-29T11:01:40Z</time></trkpt><trkpt lat="39.21302608169808" lon="16.06262641120858"><ele>7.0</ele><time>2026-03-29T11:01:41Z</time></trkpt><trkpt lat="39.21283918576817" lon="16.062636044871095"><ele>7.0</ele><time>2026-03-29T11:01:42Z</time></trkpt><trkpt lat="39.212652865939205" lon="16.062644226441343"><ele>7.0</ele><time>2026-03-29T11:01:43Z</time></trkpt><trkpt lat="39.21247008088844" lon="16.062650544811323"><ele>7.0</ele><time>2026-03-29T11:01:44Z</time></trkpt><trkpt lat="39.212286041306875" lon="16.062659870499196"><ele>7.0</ele><time>2026-03-29T11:01:45Z</time></trkpt><trkpt lat="39.2121036977123" lon="16.06267050183853"><ele>7.0</ele><time>2026-03-29T11:01:46Z</time></trkpt><trkpt lat="39.21191815370825" lon="16.06268491331268"><ele>7.0</ele><time>2026-03-29T11:01:47Z</time></trkpt><trkpt lat="39.21172935469036" lon="16.06269967157556"><ele>7.0</ele><time>2026-03-29T11:01:48Z</time></trkpt><trkpt lat="39.21153672788279" lon="16.062710404867584"><ele>7.0</ele><time>2026-03-29T11:01:49Z</time></trkpt><trkpt lat="39.211341424152906" lon="16.062709798404377"><ele>7.0</ele><time>2026-03-29T11:01:50Z</time></trkpt><trkpt lat="39.21114602749544" lon="16.062710451662248"><ele>7.0</ele><time>2026-03-29T11:01:51Z</time></trkpt><trkpt lat="39.21095300262528" lon="16.062716222631575"><ele>7.0</ele><time>2026-03-29T11:01:52Z</time></trkpt><trkpt lat="39.21076096344793" lon="16.06272640081987"><ele>7.0</ele><time>2026-03-29T11:01:53Z</time></trkpt><trkpt lat="39.210570835725576" lon="16.06273695706402"><ele>7.0</ele><time>2026-03-29T11:01:54Z</time></trkpt><trkpt lat="39.21038019098979" lon="16.06274678310112"><ele>7.0</ele><time>2026-03-29T11:01:55Z</time></trkpt><trkpt lat="39.21019320629072" lon="16.062756694511485"><ele>7.0</ele><time>2026-03-29T11:01:56Z</time></trkpt><trkpt lat="39.21000795809103" lon="16.06276583899165"><ele>7.0</ele><time>2026-03-29T11:01:57Z</time></trkpt><trkpt lat="39.20982605627798" lon="16.06277309651012"><ele>7.0</ele><time>2026-03-29T11:01:58Z</time></trkpt><trkpt lat="39.20964550322506" lon="16.062779649481534"><ele>7.0</ele><time>2026-03-29T11:01:59Z</time></trkpt><trkpt lat="39.2094674697173" lon="16.06278220463056"><ele>7.333333333333334</ele><time>2026-03-29T11:02:00Z</time></trkpt><trkpt lat="39.20929071919483" lon="16.06277593696683"><ele>7.666666666666666</ele><time>2026-03-29T11:02:01Z</time></trkpt><trkpt lat="39.20911578024868" lon="16.062753694836477"><ele>8.0</ele><time>2026-03-29T11:02:02Z</time></trkpt><trkpt lat="39.20894126260424" lon="16.06272772323284"><ele>8.333333333333332</ele><time>2026-03-29T11:02:03Z</time></trkpt><trkpt lat="39.20876771927955" lon="16.06269711424836"><ele>8.666666666666666</ele><time>2026-03-29T11:02:04Z</time></trkpt><trkpt lat="39.208596273802904" lon="16.062666928648866"><ele>9.0</ele><time>2026-03-29T11:02:05Z</time></trkpt><trkpt lat="39.20842431130839" lon="16.06263472240343"><ele>9.0</ele><time>2026-03-29T11:02:06Z</time></trkpt><trkpt lat="39.20825036852662" lon="16.06260209023711"><ele>9.0</ele><time>2026-03-29T11:02:07Z</time></trkpt><trkpt lat="39.2080738471265" lon="16.062571332676836"><ele>9.0</ele><time>2026-03-29T11:02:08Z</time></trkpt><trkpt lat="39.20789627659344" lon="16.06253755020457"><ele>8.333333333333334</ele><time>2026-03-29T11:02:09Z</time></trkpt><trkpt lat="39.20771945588839" lon="16.062505532759218"><ele>7.666666666666667</ele><time>2026-03-29T11:02:10Z</time></trkpt><trkpt lat="39.20754457486494" lon="16.062472347075403"><ele>7.0</ele><time>2026-03-29T11:02:11Z</time></trkpt><trkpt lat="39.207367256504476" lon="16.062437954832646"><ele>7.333333333333334</ele><time>2026-03-29T11:02:12Z</time></trkpt><trkpt lat="39.20719008283428" lon="16.062402894407395"><ele>7.666666666666666</ele><time>2026-03-29T11:02:13Z</time></trkpt><trkpt lat="39.2070117524963" lon="16.06236895274896"><ele>8.0</ele><time>2026-03-29T11:02:14Z</time></trkpt><trkpt lat="39.20683333762209" lon="16.062335056249474"><ele>8.0</ele><time>2026-03-29T11:02:15Z</time></trkpt><trkpt lat="39.206652883981725" lon="16.062301073161436"><ele>8.0</ele><time>2026-03-29T11:02:16Z</time></trkpt><trkpt lat="39.20646918242097" lon="16.062266019540115"><ele>8.0</ele><time>2026-03-29T11:02:17Z</time></trkpt><trkpt lat="39.20628239278462" lon="16.06223423027985"><ele>9.0</ele><time>2026-03-29T11:02:18Z</time></trkpt><trkpt lat="39.20609494796666" lon="16.06220796224391"><ele>10.0</ele><time>2026-03-29T11:02:19Z</time></trkpt><trkpt lat="39.20590604469887" lon="16.062184115929455"><ele>11.0</ele><time>2026-03-29T11:02:20Z</time></trkpt><trkpt lat="39.20571657585384" lon="16.062168247168184"><ele>11.666666666666666</ele><time>2026-03-29T11:02:21Z</time></trkpt><trkpt lat="39.20552254757746" lon="16.062161001224993"><ele>12.333333333333332</ele><time>2026-03-29T11:02:22Z</time></trkpt><trkpt lat="39.205326149574276" lon="16.06215884232038"><ele>13.0</ele><time>2026-03-29T11:02:23Z</time></trkpt><trkpt lat="39.205129664542056" lon="16.062158938721623"><ele>13.0</ele><time>2026-03-29T11:02:24Z</time></trkpt><trkpt lat="39.204933363070275" lon="16.06216168604229"><ele>13.0</ele><time>2026-03-29T11:02:25Z</time></trkpt><trkpt lat="39.20473901835242" lon="16.06216338823629"><ele>13.0</ele><time>2026-03-29T11:02:25.999Z</time></trkpt><trkpt lat="39.204546438708846" lon="16.06216055766459"><ele>13.333333333333332</ele><time>2026-03-29T11:02:26.999Z</time></trkpt><trkpt lat="39.20435424488242" lon="16.062156143237374"><ele>13.666666666666668</ele><time>2026-03-29T11:02:27.999Z</time></trkpt><trkpt lat="39.20416012110174" lon="16.062155156066424"><ele>14.0</ele><time>2026-03-29T11:02:28.999Z</time></trkpt><trkpt lat="39.20396306173286" lon="16.0621552528711"><ele>14.0</ele><time>2026-03-29T11:02:29.999Z</time></trkpt><trkpt lat="39.203764290196126" lon="16.062157035391117"><ele>14.0</ele><time>2026-03-29T11:02:30.999Z</time></trkpt><trkpt lat="39.20356489493814" lon="16.062158887437167"><ele>14.0</ele><time>2026-03-29T11:02:31.999Z</time></trkpt><trkpt lat="39.20336850708343" lon="16.062158404952072"><ele>14.0</ele><time>2026-03-29T11:02:32.999Z</time></trkpt><trkpt lat="39.20317657602143" lon="16.0621583273636"><ele>14.0</ele><time>2026-03-29T11:02:33.999Z</time></trkpt><trkpt lat="39.20298666054798" lon="16.062159451706776"><ele>14.0</ele><time>2026-03-29T11:02:34.999Z</time></trkpt><trkpt lat="39.20279874396847" lon="16.06216127012906"><ele>15.0</ele><time>2026-03-29T11:02:35.999Z</time></trkpt><trkpt lat="39.202610996121756" lon="16.062163618515896"><ele>16.0</ele><time>2026-03-29T11:02:37.001Z</time></trkpt><trkpt lat="39.202423235347915" lon="16.06216538651507"><ele>17.0</ele><time>2026-03-29T11:02:38.001Z</time></trkpt><trkpt lat="39.20223625700263" lon="16.062165533415314"><ele>17.0</ele><time>2026-03-29T11:02:39.001Z</time></trkpt><trkpt lat="39.20205004355576" lon="16.062172033374253"><ele>17.0</ele><time>2026-03-29T11:02:40.001Z</time></trkpt><trkpt lat="39.20186392180772" lon="16.062186559872984"><ele>17.0</ele><time>2026-03-29T11:02:41.001Z</time></trkpt><trkpt lat="39.20167865217153" lon="16.06220964253328"><ele>16.0</ele><time>2026-03-29T11:02:42.001Z</time></trkpt><trkpt lat="39.201491925396276" lon="16.062241114658082"><ele>15.0</ele><time>2026-03-29T11:02:43.001Z</time></trkpt><trkpt lat="39.20130264845532" lon="16.062281833800853"><ele>14.0</ele><time>2026-03-29T11:02:44.001Z</time></trkpt><trkpt lat="39.2011127841816" lon="16.062325551658226"><ele>14.0</ele><time>2026-03-29T11:02:45.001Z</time></trkpt><trkpt lat="39.20092527838773" lon="16.06237276238341"><ele>14.0</ele><time>2026-03-29T11:02:46.001Z</time></trkpt><trkpt lat="39.20074104560998" lon="16.062416575505633"><ele>14.0</ele><time>2026-03-29T11:02:47.001Z</time></trkpt><trkpt lat="39.200560721860306" lon="16.06245970220229"><ele>15.0</ele><time>2026-03-29T11:02:48.001Z</time></trkpt><trkpt lat="39.20038300905449" lon="16.06250240465296"><ele>16.0</ele><time>2026-03-29T11:02:49.001Z</time></trkpt><trkpt lat="39.20020812805111" lon="16.06254258882364"><ele>17.0</ele><time>2026-03-29T11:02:50.001Z</time></trkpt><trkpt lat="39.200034200111816" lon="16.06258473872468"><ele>17.0</ele><time>2026-03-29T11:02:51.001Z</time></trkpt><trkpt lat="39.199861971422806" lon="16.062627328457513"><ele>17.0</ele><time>2026-03-29T11:02:52.001Z</time></trkpt><trkpt lat="39.1996911959153" lon="16.06266989970444"><ele>17.0</ele><time>2026-03-29T11:02:53.001Z</time></trkpt><trkpt lat="39.199518865667144" lon="16.06271385683364"><ele>16.0</ele><time>2026-03-29T11:02:54.001Z</time></trkpt><trkpt lat="39.19934842714374" lon="16.062757873533013"><ele>15.0</ele><time>2026-03-29T11:02:55.001Z</time></trkpt><trkpt lat="39.19918041586535" lon="16.062797545656398"><ele>14.0</ele><time>2026-03-29T11:02:56Z</time></trkpt><trkpt lat="39.19901036190395" lon="16.062837087009772"><ele>12.0</ele><time>2026-03-29T11:02:57Z</time></trkpt><trkpt lat="39.19883775757571" lon="16.062877531895964"><ele>10.0</ele><time>2026-03-29T11:02:58Z</time></trkpt><trkpt lat="39.19865721773551" lon="16.062920611707327"><ele>8.0</ele><time>2026-03-29T11:02:59Z</time></trkpt><trkpt lat="39.198470759627256" lon="16.06296466823958"><ele>8.0</ele><time>2026-03-29T11:03:00Z</time></trkpt><trkpt lat="39.19827397279878" lon="16.06301227197491"><ele>8.0</ele><time>2026-03-29T11:03:01Z</time></trkpt><trkpt lat="39.19806627852416" lon="16.06306337709958"><ele>8.0</ele><time>2026-03-29T11:03:02Z</time></trkpt><trkpt lat="39.1978581659637" lon="16.06311416879924"><ele>7.333333333333333</ele><time>2026-03-29T11:03:03Z</time></trkpt><trkpt lat="39.197649331212375" lon="16.063160039371173"><ele>6.666666666666666</ele><time>2026-03-29T11:03:04Z</time></trkpt><trkpt lat="39.197441878101465" lon="16.063204007423018"><ele>6.0</ele><time>2026-03-29T11:03:05Z</time></trkpt><trkpt lat="39.19723323424056" lon="16.06324234677529"><ele>5.666666666666667</ele><time>2026-03-29T11:03:06Z</time></trkpt><trkpt lat="39.19702115293051" lon="16.063268114448217"><ele>5.333333333333334</ele><time>2026-03-29T11:03:07Z</time></trkpt><trkpt lat="39.19680068624325" lon="16.063286519713063"><ele>5.0</ele><time>2026-03-29T11:03:08Z</time></trkpt><trkpt lat="39.19657903115967" lon="16.063299678517367"><ele>5.0</ele><time>2026-03-29T11:03:09Z</time></trkpt><trkpt lat="39.196353320079794" lon="16.063314216783574"><ele>5.0</ele><time>2026-03-29T11:03:10Z</time></trkpt><trkpt lat="39.19612540687209" lon="16.063328311223426"><ele>5.0</ele><time>2026-03-29T11:03:11Z</time></trkpt><trkpt lat="39.19589532609521" lon="16.063344007755358"><ele>5.0</ele><time>2026-03-29T11:03:12Z</time></trkpt><trkpt lat="39.1956657465379" lon="16.063358259017107"><ele>5.5</ele><time>2026-03-29T11:03:13Z</time></trkpt><trkpt lat="39.19543613306626" lon="16.06337180338202"><ele>6.0</ele><time>2026-03-29T11:03:14Z</time></trkpt><trkpt lat="39.19520844119932" lon="16.063387055531674"><ele>6.0</ele><time>2026-03-29T11:03:15Z</time></trkpt><trkpt lat="39.1949796991473" lon="16.063400917038187"><ele>6.0</ele><time>2026-03-29T11:03:16Z</time></trkpt><trkpt lat="39.19474630427189" lon="16.06341417171526"><ele>6.5</ele><time>2026-03-29T11:03:17Z</time></trkpt><trkpt lat="39.194511682650024" lon="16.063430630051663"><ele>7.0</ele><time>2026-03-29T11:03:18Z</time></trkpt><trkpt lat="39.19427984746107" lon="16.06345072050886"><ele>7.0</ele><time>2026-03-29T11:03:19Z</time></trkpt><trkpt lat="39.194049589786026" lon="16.063471449933335"><ele>7.0</ele><time>2026-03-29T11:03:20Z</time></trkpt><trkpt lat="39.19382104853927" lon="16.063494468944015"><ele>6.5</ele><time>2026-03-29T11:03:21Z</time></trkpt><trkpt lat="39.19359310453228" lon="16.06352152625016"><ele>6.0</ele><time>2026-03-29T11:03:22Z</time></trkpt><trkpt lat="39.193365301280664" lon="16.063553024904557"><ele>6.0</ele><time>2026-03-29T11:03:23Z</time></trkpt><trkpt lat="39.19313746829112" lon="16.063587158674807"><ele>6.0</ele><time>2026-03-29T11:03:24Z</time></trkpt><trkpt lat="39.19290801184606" lon="16.063620140050464"><ele>6.0</ele><time>2026-03-29T11:03:25Z</time></trkpt><trkpt lat="39.19267764867034" lon="16.063652646111404"><ele>6.0</ele><time>2026-03-29T11:03:26Z</time></trkpt><trkpt lat="39.192449851136146" lon="16.06368218022035"><ele>5.5</ele><time>2026-03-29T11:03:27Z</time></trkpt><trkpt lat="39.19222464277059" lon="16.06371415881698"><ele>5.0</ele><time>2026-03-29T11:03:28Z</time></trkpt><trkpt lat="39.192000684633136" lon="16.06374719793266"><ele>5.0</ele><time>2026-03-29T11:03:29Z</time></trkpt><trkpt lat="39.19177719095177" lon="16.063780434638378"><ele>5.0</ele><time>2026-03-29T11:03:30Z</time></trkpt><trkpt lat="39.19155296158435" lon="16.063813361157262"><ele>6.0</ele><time>2026-03-29T11:03:31Z</time></trkpt><trkpt lat="39.191326634120294" lon="16.063846629536716"><ele>7.0</ele><time>2026-03-29T11:03:32Z</time></trkpt><trkpt lat="39.19109721890015" lon="16.06388090051891"><ele>7.0</ele><time>2026-03-29T11:03:33Z</time></trkpt><trkpt lat="39.19087218770558" lon="16.06391558373566"><ele>7.0</ele><time>2026-03-29T11:03:34Z</time></trkpt><trkpt lat="39.19064863495808" lon="16.06394958566569"><ele>7.0</ele><time>2026-03-29T11:03:35Z</time></trkpt><trkpt lat="39.190426796939796" lon="16.063983038007052"><ele>7.0</ele><time>2026-03-29T11:03:36Z</time></trkpt><trkpt lat="39.190205096644505" lon="16.064013343962888"><ele>7.0</ele><time>2026-03-29T11:03:37Z</time></trkpt><trkpt lat="39.18998070088544" lon="16.06404356933861"><ele>7.333333333333334</ele><time>2026-03-29T11:03:38Z</time></trkpt><trkpt lat="39.189756604784506" lon="16.06408053211771"><ele>7.666666666666666</ele><time>2026-03-29T11:03:39Z</time></trkpt><trkpt lat="39.18953503213956" lon="16.064116151764896"><ele>8.0</ele><time>2026-03-29T11:03:40Z</time></trkpt><trkpt lat="39.18931826785895" lon="16.064152457663173"><ele>8.333333333333332</ele><time>2026-03-29T11:03:41Z</time></trkpt><trkpt lat="39.189101739724705" lon="16.06418727771499"><ele>8.666666666666666</ele><time>2026-03-29T11:03:42Z</time></trkpt><trkpt lat="39.18888367839681" lon="16.064221301316245"><ele>9.0</ele><time>2026-03-29T11:03:43Z</time></trkpt><trkpt lat="39.18866317238069" lon="16.064252621411732"><ele>9.0</ele><time>2026-03-29T11:03:44Z</time></trkpt><trkpt lat="39.18843789040245" lon="16.064277355204887"><ele>9.0</ele><time>2026-03-29T11:03:45Z</time></trkpt><trkpt lat="39.18821318539493" lon="16.064312040658578"><ele>8.5</ele><time>2026-03-29T11:03:46Z</time></trkpt><trkpt lat="39.187987254124224" lon="16.06434826835416"><ele>8.0</ele><time>2026-03-29T11:03:47Z</time></trkpt><trkpt lat="39.187762022544746" lon="16.064382245633695"><ele>8.0</ele><time>2026-03-29T11:03:48Z</time></trkpt><trkpt lat="39.1875377267455" lon="16.064413800112273"><ele>8.0</ele><time>2026-03-29T11:03:49Z</time></trkpt><trkpt lat="39.18731437490021" lon="16.064447910498778"><ele>7.5</ele><time>2026-03-29T11:03:50Z</time></trkpt><trkpt lat="39.18709021892371" lon="16.064480273866536"><ele>7.0</ele><time>2026-03-29T11:03:51Z</time></trkpt><trkpt lat="39.18686314314829" lon="16.064514889827514"><ele>7.0</ele><time>2026-03-29T11:03:52Z</time></trkpt><trkpt lat="39.186632951064155" lon="16.06455026585274"><ele>7.0</ele><time>2026-03-29T11:03:53Z</time></trkpt><trkpt lat="39.186406812764154" lon="16.064585542786787"><ele>6.5</ele><time>2026-03-29T11:03:54Z</time></trkpt><trkpt lat="39.18618230300244" lon="16.064618654205976"><ele>6.0</ele><time>2026-03-29T11:03:55Z</time></trkpt><trkpt lat="39.18595840017605" lon="16.0646508127341"><ele>6.0</ele><time>2026-03-29T11:03:56Z</time></trkpt><trkpt lat="39.185732859790406" lon="16.06468266475647"><ele>6.0</ele><time>2026-03-29T11:03:57Z</time></trkpt><trkpt lat="39.18550615281331" lon="16.064715735237083"><ele>6.5</ele><time>2026-03-29T11:03:58Z</time></trkpt><trkpt lat="39.18527841186058" lon="16.064749301848757"><ele>7.0</ele><time>2026-03-29T11:03:59Z</time></trkpt><trkpt lat="39.18505092066286" lon="16.064778883502697"><ele>8.5</ele><time>2026-03-29T11:04:00Z</time></trkpt><trkpt lat="39.1848225970899" lon="16.06480304404522"><ele>10.0</ele><time>2026-03-29T11:04:01Z</time></trkpt><trkpt lat="39.18459406053782" lon="16.064823225968635"><ele>10.0</ele><time>2026-03-29T11:04:02Z</time></trkpt><trkpt lat="39.18436510176455" lon="16.064840233378835"><ele>10.0</ele><time>2026-03-29T11:04:03Z</time></trkpt><trkpt lat="39.184135368178055" lon="16.0648600044888"><ele>8.0</ele><time>2026-03-29T11:04:04Z</time></trkpt><trkpt lat="39.183906281023965" lon="16.064878395171082"><ele>6.0</ele><time>2026-03-29T11:04:05Z</time></trkpt><trkpt lat="39.1836744315686" lon="16.064895422042543"><ele>6.0</ele><time>2026-03-29T11:04:06Z</time></trkpt><trkpt lat="39.18344284875141" lon="16.064907745034407"><ele>6.0</ele><time>2026-03-29T11:04:07Z</time></trkpt><trkpt lat="39.18319509791234" lon="16.064924735119916"><ele>7.5</ele><time>2026-03-29T11:04:08Z</time></trkpt><trkpt lat="39.18294988722354" lon="16.064949175859436"><ele>9.0</ele><time>2026-03-29T11:04:09Z</time></trkpt><trkpt lat="39.18270472804762" lon="16.06496798076247"><ele>9.0</ele><time>2026-03-29T11:04:10Z</time></trkpt><trkpt lat="39.18245816341131" lon="16.064986064684664"><ele>9.0</ele><time>2026-03-29T11:04:11Z</time></trkpt><trkpt lat="39.18221351110731" lon="16.065003704177176"><ele>12.0</ele><time>2026-03-29T11:04:12Z</time></trkpt><trkpt lat="39.181969451157606" lon="16.065019604189725"><ele>15.0</ele><time>2026-03-29T11:04:13Z</time></trkpt><trkpt lat="39.18172607051425" lon="16.065038131245"><ele>13.5</ele><time>2026-03-29T11:04:14Z</time></trkpt><trkpt lat="39.181483463833416" lon="16.065053908151175"><ele>12.0</ele><time>2026-03-29T11:04:15Z</time></trkpt><trkpt lat="39.18124201530308" lon="16.06507122525568"><ele>12.0</ele><time>2026-03-29T11:04:16Z</time></trkpt><trkpt lat="39.18100214806636" lon="16.065085246030115"><ele>12.0</ele><time>2026-03-29T11:04:17Z</time></trkpt><trkpt lat="39.18076114262273" lon="16.06510301505822"><ele>10.0</ele><time>2026-03-29T11:04:18Z</time></trkpt><trkpt lat="39.18052045821787" lon="16.065120433595652"><ele>8.0</ele><time>2026-03-29T11:04:19Z</time></trkpt><trkpt lat="39.18027902746483" lon="16.06514195681247"><ele>8.0</ele><time>2026-03-29T11:04:20Z</time></trkpt><trkpt lat="39.180035140452176" lon="16.065159371014776"><ele>8.0</ele><time>2026-03-29T11:04:21Z</time></trkpt><trkpt lat="39.179793906022745" lon="16.065176689887064"><ele>7.0</ele><time>2026-03-29T11:04:22Z</time></trkpt><trkpt lat="39.179554533399006" lon="16.065193677246903"><ele>6.0</ele><time>2026-03-29T11:04:22.999Z</time></trkpt><trkpt lat="39.1793160785709" lon="16.06521157126797"><ele>6.0</ele><time>2026-03-29T11:04:23.999Z</time></trkpt><trkpt lat="39.17907828615351" lon="16.065230798392125"><ele>6.0</ele><time>2026-03-29T11:04:24.999Z</time></trkpt><trkpt lat="39.17883718574809" lon="16.065251686475637"><ele>6.0</ele><time>2026-03-29T11:04:25.999Z</time></trkpt><trkpt lat="39.17859473861347" lon="16.065270485356766"><ele>6.0</ele><time>2026-03-29T11:04:26.999Z</time></trkpt><trkpt lat="39.17835042350382" lon="16.06528963899936"><ele>6.0</ele><time>2026-03-29T11:04:27.999Z</time></trkpt><trkpt lat="39.178103766839456" lon="16.065309827403272"><ele>6.0</ele><time>2026-03-29T11:04:28.999Z</time></trkpt><trkpt lat="39.17785625458561" lon="16.06532783383005"><ele>6.0</ele><time>2026-03-29T11:04:29.999Z</time></trkpt><trkpt lat="39.17760688835539" lon="16.065347209666832"><ele>6.0</ele><time>2026-03-29T11:04:30.999Z</time></trkpt><trkpt lat="39.17735800765334" lon="16.065368311197524"><ele>7.0</ele><time>2026-03-29T11:04:31.999Z</time></trkpt><trkpt lat="39.17711055580959" lon="16.065389995474376"><ele>8.0</ele><time>2026-03-29T11:04:32.999Z</time></trkpt><trkpt lat="39.176864895827215" lon="16.065410467274663"><ele>8.0</ele><time>2026-03-29T11:04:33.999Z</time></trkpt><trkpt lat="39.17662076034879" lon="16.06542899410395"><ele>8.0</ele><time>2026-03-29T11:04:34.999Z</time></trkpt><trkpt lat="39.1763799054949" lon="16.065448406065688"><ele>7.5</ele><time>2026-03-29T11:04:35.999Z</time></trkpt><trkpt lat="39.17613976185538" lon="16.06546782758532"><ele>7.0</ele><time>2026-03-29T11:04:36.999Z</time></trkpt><trkpt lat="39.1758975329377" lon="16.065487379723695"><ele>8.0</ele><time>2026-03-29T11:04:37.999Z</time></trkpt><trkpt lat="39.17565380603701" lon="16.065507654008236"><ele>9.0</ele><time>2026-03-29T11:04:38.999Z</time></trkpt><trkpt lat="39.17541386969512" lon="16.06552430599597"><ele>9.0</ele><time>2026-03-29T11:04:39.999Z</time></trkpt><trkpt lat="39.17517698463394" lon="16.065540093437566"><ele>9.0</ele><time>2026-03-29T11:04:40.999Z</time></trkpt><trkpt lat="39.17494176355673" lon="16.06555267872935"><ele>10.0</ele><time>2026-03-29T11:04:41.999Z</time></trkpt><trkpt lat="39.174704582808445" lon="16.065561204119025"><ele>11.0</ele><time>2026-03-29T11:04:43Z</time></trkpt><trkpt lat="39.17447073150796" lon="16.065555995787726"><ele>11.0</ele><time>2026-03-29T11:04:44Z</time></trkpt><trkpt lat="39.1742397639796" lon="16.065538481978436"><ele>11.0</ele><time>2026-03-29T11:04:45Z</time></trkpt><trkpt lat="39.17400994522809" lon="16.065509640309823"><ele>11.5</ele><time>2026-03-29T11:04:46Z</time></trkpt><trkpt lat="39.17378027736881" lon="16.065467933269638"><ele>12.0</ele><time>2026-03-29T11:04:47Z</time></trkpt><trkpt lat="39.17354962265433" lon="16.065424475769568"><ele>12.0</ele><time>2026-03-29T11:04:48Z</time></trkpt><trkpt lat="39.17331551351533" lon="16.065382541543638"><ele>12.0</ele><time>2026-03-29T11:04:49Z</time></trkpt><trkpt lat="39.17307957907354" lon="16.065339948766656"><ele>10.0</ele><time>2026-03-29T11:04:50Z</time></trkpt><trkpt lat="39.17284544690975" lon="16.065297036120143"><ele>8.0</ele><time>2026-03-29T11:04:51Z</time></trkpt><trkpt lat="39.17260005644048" lon="16.065250104080167"><ele>8.0</ele><time>2026-03-29T11:04:52Z</time></trkpt><trkpt lat="39.172359959621616" lon="16.065207735407924"><ele>8.0</ele><time>2026-03-29T11:04:53Z</time></trkpt><trkpt lat="39.17211984630194" lon="16.065164148021495"><ele>7.5</ele><time>2026-03-29T11:04:54Z</time></trkpt><trkpt lat="39.171881426309795" lon="16.06511999430374"><ele>7.0</ele><time>2026-03-29T11:04:55Z</time></trkpt><trkpt lat="39.171643696719485" lon="16.065075078235445"><ele>7.5</ele><time>2026-03-29T11:04:56Z</time></trkpt><trkpt lat="39.171407428128305" lon="16.065029007127045"><ele>8.0</ele><time>2026-03-29T11:04:57Z</time></trkpt><trkpt lat="39.17117363322406" lon="16.064983611411062"><ele>6.5</ele><time>2026-03-29T11:04:58Z</time></trkpt><trkpt lat="39.170942983317055" lon="16.064941094590797"><ele>5.0</ele><time>2026-03-29T11:04:59Z</time></trkpt><trkpt lat="39.17071697838218" lon="16.064900011734405"><ele>5.333333333333334</ele><time>2026-03-29T11:05:00Z</time></trkpt><trkpt lat="39.17049526243732" lon="16.06485932079785"><ele>5.666666666666667</ele><time>2026-03-29T11:05:01Z</time></trkpt><trkpt lat="39.17027759387806" lon="16.06482525329082"><ele>6.0</ele><time>2026-03-29T11:05:02Z</time></trkpt><trkpt lat="39.17006245689195" lon="16.064798687116795"><ele>6.666666666666666</ele><time>2026-03-29T11:05:03Z</time></trkpt><trkpt lat="39.169848587897455" lon="16.06478153089744"><ele>7.333333333333333</ele><time>2026-03-29T11:05:04Z</time></trkpt><trkpt lat="39.169634125110385" lon="16.064774550516322"><ele>8.0</ele><time>2026-03-29T11:05:05Z</time></trkpt><trkpt lat="39.16941747108324" lon="16.064779535990752"><ele>8.0</ele><time>2026-03-29T11:05:06Z</time></trkpt><trkpt lat="39.16920045773856" lon="16.064794099773238"><ele>8.0</ele><time>2026-03-29T11:05:07Z</time></trkpt><trkpt lat="39.168985738825384" lon="16.06480850811136"><ele>8.0</ele><time>2026-03-29T11:05:08Z</time></trkpt><trkpt lat="39.168774782767734" lon="16.064823347202072"><ele>7.666666666666666</ele><time>2026-03-29T11:05:09Z</time></trkpt><trkpt lat="39.16856592585614" lon="16.06483532713401"><ele>7.333333333333334</ele><time>2026-03-29T11:05:10Z</time></trkpt><trkpt lat="39.16835490517677" lon="16.06485055770021"><ele>7.0</ele><time>2026-03-29T11:05:11Z</time></trkpt><trkpt lat="39.16814098660438" lon="16.064864606818766"><ele>6.333333333333334</ele><time>2026-03-29T11:05:12Z</time></trkpt><trkpt lat="39.16792720302256" lon="16.064880721033603"><ele>5.666666666666667</ele><time>2026-03-29T11:05:13Z</time></trkpt><trkpt lat="39.16771161780314" lon="16.064894306263717"><ele>5.0</ele><time>2026-03-29T11:05:14Z</time></trkpt><trkpt lat="39.167498752379814" lon="16.06490499468286"><ele>5.333333333333334</ele><time>2026-03-29T11:05:15Z</time></trkpt><trkpt lat="39.16728834738946" lon="16.064919405527043"><ele>5.666666666666667</ele><time>2026-03-29T11:05:16Z</time></trkpt><trkpt lat="39.16708017455814" lon="16.064934407698765"><ele>6.0</ele><time>2026-03-29T11:05:17Z</time></trkpt><trkpt lat="39.16687471699968" lon="16.064949693266264"><ele>6.0</ele><time>2026-03-29T11:05:18Z</time></trkpt><trkpt lat="39.166674064423184" lon="16.06496294314904"><ele>6.0</ele><time>2026-03-29T11:05:19Z</time></trkpt><trkpt lat="39.16647970700232" lon="16.0649744229112"><ele>6.0</ele><time>2026-03-29T11:05:20Z</time></trkpt><trkpt lat="39.16629782557455" lon="16.06498640260636"><ele>6.333333333333334</ele><time>2026-03-29T11:05:21Z</time></trkpt><trkpt lat="39.166124808750084" lon="16.064998217789807"><ele>6.666666666666667</ele><time>2026-03-29T11:05:22Z</time></trkpt><trkpt lat="39.16595771948698" lon="16.065009330019787"><ele>7.0</ele><time>2026-03-29T11:05:23Z</time></trkpt><trkpt lat="39.16580098026299" lon="16.06501997038955"><ele>7.25</ele><time>2026-03-29T11:05:24Z</time></trkpt><trkpt lat="39.165652610052554" lon="16.065031057700576"><ele>7.5</ele><time>2026-03-29T11:05:25Z</time></trkpt><trkpt lat="39.16550395894679" lon="16.06504290391679"><ele>7.75</ele><time>2026-03-29T11:05:26Z</time></trkpt><trkpt lat="39.16535654990733" lon="16.065052975163475"><ele>8.0</ele><time>2026-03-29T11:05:27Z</time></trkpt><trkpt lat="39.165210246969366" lon="16.065065807663636"><ele>8.0</ele><time>2026-03-29T11:05:28Z</time></trkpt><trkpt lat="39.165057921630456" lon="16.065080134185603"><ele>8.0</ele><time>2026-03-29T11:05:29Z</time></trkpt><trkpt lat="39.164890371081576" lon="16.06509471373836"><ele>8.0</ele><time>2026-03-29T11:05:30Z</time></trkpt><trkpt lat="39.16470741668484" lon="16.06510685863857"><ele>7.666666666666666</ele><time>2026-03-29T11:05:31Z</time></trkpt><trkpt lat="39.16451340798943" lon="16.06511062218799"><ele>7.333333333333334</ele><time>2026-03-29T11:05:32Z</time></trkpt><trkpt lat="39.16431249579995" lon="16.065123720900786"><ele>7.0</ele><time>2026-03-29T11:05:33Z</time></trkpt><trkpt lat="39.16410752664917" lon="16.065136629673603"><ele>7.333333333333334</ele><time>2026-03-29T11:05:34Z</time></trkpt><trkpt lat="39.16389874511999" lon="16.06515015675021"><ele>7.666666666666666</ele><time>2026-03-29T11:05:35Z</time></trkpt><trkpt lat="39.16368745501316" lon="16.06516463052624"><ele>8.0</ele><time>2026-03-29T11:05:36Z</time></trkpt><trkpt lat="39.1634764357776" lon="16.0651801617936"><ele>8.0</ele><time>2026-03-29T11:05:37Z</time></trkpt><trkpt lat="39.163263699108455" lon="16.065196170860567"><ele>8.0</ele><time>2026-03-29T11:05:38Z</time></trkpt><trkpt lat="39.16304920934124" lon="16.065208476022022"><ele>8.0</ele><time>2026-03-29T11:05:39Z</time></trkpt><trkpt lat="39.16283429437418" lon="16.06521356960678"><ele>8.0</ele><time>2026-03-29T11:05:40Z</time></trkpt><trkpt lat="39.16261549172633" lon="16.06521164538823"><ele>8.0</ele><time>2026-03-29T11:05:41Z</time></trkpt><trkpt lat="39.16239449046569" lon="16.065197627307384"><ele>8.0</ele><time>2026-03-29T11:05:42Z</time></trkpt><trkpt lat="39.16216602524005" lon="16.065175084525524"><ele>8.0</ele><time>2026-03-29T11:05:43Z</time></trkpt><trkpt lat="39.16193633802893" lon="16.065146368815093"><ele>8.0</ele><time>2026-03-29T11:05:44Z</time></trkpt><trkpt lat="39.161706227971365" lon="16.065117755424875"><ele>8.0</ele><time>2026-03-29T11:05:45Z</time></trkpt><trkpt lat="39.16147395681754" lon="16.065087791830177"><ele>8.0</ele><time>2026-03-29T11:05:46Z</time></trkpt><trkpt lat="39.161242241306404" lon="16.065057355238988"><ele>8.0</ele><time>2026-03-29T11:05:47Z</time></trkpt><trkpt lat="39.16101005796513" lon="16.065027795400066"><ele>8.0</ele><time>2026-03-29T11:05:48Z</time></trkpt><trkpt lat="39.160775294447184" lon="16.06499908818996"><ele>8.5</ele><time>2026-03-29T11:05:49Z</time></trkpt><trkpt lat="39.16053688273049" lon="16.06497175161238"><ele>9.0</ele><time>2026-03-29T11:05:50Z</time></trkpt><trkpt lat="39.16030046543662" lon="16.06494572573648"><ele>8.0</ele><time>2026-03-29T11:05:51Z</time></trkpt><trkpt lat="39.160066934958934" lon="16.064923692685177"><ele>7.0</ele><time>2026-03-29T11:05:52Z</time></trkpt><trkpt lat="39.15983136794081" lon="16.064910336112305"><ele>7.0</ele><time>2026-03-29T11:05:53Z</time></trkpt><trkpt lat="39.159596851436184" lon="16.064906201310414"><ele>7.0</ele><time>2026-03-29T11:05:54Z</time></trkpt><trkpt lat="39.15936210866811" lon="16.064908143020403"><ele>7.0</ele><time>2026-03-29T11:05:55Z</time></trkpt><trkpt lat="39.15912144758277" lon="16.0649171049668"><ele>7.0</ele><time>2026-03-29T11:05:56Z</time></trkpt><trkpt lat="39.15888266325601" lon="16.064934517121273"><ele>9.5</ele><time>2026-03-29T11:05:57Z</time></trkpt><trkpt lat="39.15864543135037" lon="16.064958991702046"><ele>12.0</ele><time>2026-03-29T11:05:58Z</time></trkpt><trkpt lat="39.158409025080154" lon="16.06499082494402"><ele>10.5</ele><time>2026-03-29T11:05:59Z</time></trkpt><trkpt lat="39.158170412365635" lon="16.06502185116477"><ele>9.0</ele><time>2026-03-29T11:06:00Z</time></trkpt><trkpt lat="39.15792799509426" lon="16.0650534556434"><ele>9.0</ele><time>2026-03-29T11:06:01Z</time></trkpt><trkpt lat="39.15768080340122" lon="16.06508698346405"><ele>9.0</ele><time>2026-03-29T11:06:02Z</time></trkpt><trkpt lat="39.157428615500784" lon="16.065119728850835"><ele>9.0</ele><time>2026-03-29T11:06:03Z</time></trkpt><trkpt lat="39.15717410911032" lon="16.065149875613322"><ele>9.0</ele><time>2026-03-29T11:06:04Z</time></trkpt><trkpt lat="39.15691780062349" lon="16.065180551574695"><ele>9.0</ele><time>2026-03-29T11:06:05Z</time></trkpt><trkpt lat="39.156660857983056" lon="16.065212796453523"><ele>9.0</ele><time>2026-03-29T11:06:06Z</time></trkpt><trkpt lat="39.15640308955565" lon="16.06524379813111"><ele>7.0</ele><time>2026-03-29T11:06:07Z</time></trkpt><trkpt lat="39.15614884017826" lon="16.06527681021744"><ele>5.0</ele><time>2026-03-29T11:06:08Z</time></trkpt><trkpt lat="39.155897097026035" lon="16.065308143308922"><ele>4.0</ele><time>2026-03-29T11:06:09Z</time></trkpt><trkpt lat="39.15564683098088" lon="16.06534020910808"><ele>3.0</ele><time>2026-03-29T11:06:10Z</time></trkpt><trkpt lat="39.155399465582015" lon="16.0653702543591"><ele>3.0</ele><time>2026-03-29T11:06:11Z</time></trkpt><trkpt lat="39.15515326758555" lon="16.065400185876236"><ele>3.0</ele><time>2026-03-29T11:06:12Z</time></trkpt><trkpt lat="39.15490763384865" lon="16.065429203196135"><ele>2.0</ele><time>2026-03-29T11:06:13Z</time></trkpt><trkpt lat="39.154662065574236" lon="16.065459423143807"><ele>1.0</ele><time>2026-03-29T11:06:14Z</time></trkpt><trkpt lat="39.15441755384483" lon="16.065493755993717"><ele>1.0</ele><time>2026-03-29T11:06:15Z</time></trkpt><trkpt lat="39.154174134553365" lon="16.065525445801203"><ele>1.0</ele><time>2026-03-29T11:06:16Z</time></trkpt><trkpt lat="39.15393159649437" lon="16.06555545929232"><ele>0.5</ele><time>2026-03-29T11:06:17Z</time></trkpt><trkpt lat="39.153690420775206" lon="16.065589569099586"><ele>0.0</ele><time>2026-03-29T11:06:17.999Z</time></trkpt><trkpt lat="39.15345143441459" lon="16.0656217055361"><ele>0.0</ele><time>2026-03-29T11:06:18.999Z</time></trkpt><trkpt lat="39.15321623336384" lon="16.065650896180536"><ele>0.0</ele><time>2026-03-29T11:06:19.999Z</time></trkpt><trkpt lat="39.15298516804618" lon="16.065674939055025"><ele>0.0</ele><time>2026-03-29T11:06:20.999Z</time></trkpt><trkpt lat="39.152756866126204" lon="16.06569434766748"><ele>0.0</ele><time>2026-03-29T11:06:21.999Z</time></trkpt><trkpt lat="39.152530004275285" lon="16.065704822428803"><ele>0.0</ele><time>2026-03-29T11:06:22.999Z</time></trkpt><trkpt lat="39.152304179945055" lon="16.065711289651354"><ele>0.0</ele><time>2026-03-29T11:06:23.999Z</time></trkpt><trkpt lat="39.152078211158184" lon="16.065716363602593"><ele>0.0</ele><time>2026-03-29T11:06:24.999Z</time></trkpt><trkpt lat="39.151854536783745" lon="16.065722764393854"><ele>0.0</ele><time>2026-03-29T11:06:25.999Z</time></trkpt><trkpt lat="39.151633345708355" lon="16.065726376220514"><ele>0.0</ele><time>2026-03-29T11:06:26.999Z</time></trkpt><trkpt lat="39.151414334607594" lon="16.06572992224995"><ele>0.0</ele><time>2026-03-29T11:06:27.999Z</time></trkpt><trkpt lat="39.15119785592063" lon="16.06573243938063"><ele>0.0</ele><time>2026-03-29T11:06:28.999Z</time></trkpt><trkpt lat="39.15098472175155" lon="16.065736711325147"><ele>0.0</ele><time>2026-03-29T11:06:29.999Z</time></trkpt><trkpt lat="39.15077393720106" lon="16.065740836072763"><ele>0.0</ele><time>2026-03-29T11:06:30.999Z</time></trkpt><trkpt lat="39.15056347971874" lon="16.065744493129866"><ele>0.0</ele><time>2026-03-29T11:06:31.999Z</time></trkpt><trkpt lat="39.15035402916475" lon="16.065750620123772"><ele>0.0</ele><time>2026-03-29T11:06:32.999Z</time></trkpt><trkpt lat="39.150143489872995" lon="16.065755922207472"><ele>0.0</ele><time>2026-03-29T11:06:33.999Z</time></trkpt><trkpt lat="39.14993049647658" lon="16.06575656510619"><ele>0.0</ele><time>2026-03-29T11:06:34.999Z</time></trkpt><trkpt lat="39.14971577126846" lon="16.065757721376116"><ele>0.0</ele><time>2026-03-29T11:06:35.999Z</time></trkpt><trkpt lat="39.14950297462618" lon="16.06576067787086"><ele>0.0</ele><time>2026-03-29T11:06:36.999Z</time></trkpt><trkpt lat="39.14929394025334" lon="16.065768398703227"><ele>0.0</ele><time>2026-03-29T11:06:37.999Z</time></trkpt><trkpt lat="39.14908406453775" lon="16.065773375376555"><ele>0.0</ele><time>2026-03-29T11:06:38.999Z</time></trkpt><trkpt lat="39.14887619152831" lon="16.065781837356873"><ele>2.6666666666666665</ele><time>2026-03-29T11:06:39.999Z</time></trkpt><trkpt lat="39.14867048572482" lon="16.06579390920892"><ele>5.333333333333333</ele><time>2026-03-29T11:06:40.999Z</time></trkpt><trkpt lat="39.14846800472242" lon="16.065808293050775"><ele>8.0</ele><time>2026-03-29T11:06:41.999Z</time></trkpt><trkpt lat="39.148267926379724" lon="16.065822217467154"><ele>7.333333333333333</ele><time>2026-03-29T11:06:42.999Z</time></trkpt><trkpt lat="39.148070090144515" lon="16.065837222929662"><ele>6.666666666666666</ele><time>2026-03-29T11:06:43.999Z</time></trkpt><trkpt lat="39.14787436218501" lon="16.06584989844723"><ele>6.0</ele><time>2026-03-29T11:06:44.999Z</time></trkpt><trkpt lat="39.14768194296643" lon="16.065864813440754"><ele>6.0</ele><time>2026-03-29T11:06:45.999Z</time></trkpt><trkpt lat="39.147492500463" lon="16.065878848244477"><ele>6.0</ele><time>2026-03-29T11:06:46.999Z</time></trkpt><trkpt lat="39.14730529409428" lon="16.065894621455993"><ele>6.0</ele><time>2026-03-29T11:06:47.999Z</time></trkpt><trkpt lat="39.147117136424555" lon="16.0659108662132"><ele>6.666666666666666</ele><time>2026-03-29T11:06:49Z</time></trkpt><trkpt lat="39.146927433963434" lon="16.065930132420107"><ele>7.333333333333333</ele><time>2026-03-29T11:06:50Z</time></trkpt><trkpt lat="39.146737840954806" lon="16.065952852751952"><ele>8.0</ele><time>2026-03-29T11:06:51Z</time></trkpt><trkpt lat="39.146549996378084" lon="16.06598113508068"><ele>7.0</ele><time>2026-03-29T11:06:52Z</time></trkpt><trkpt lat="39.14636493168249" lon="16.066013711273193"><ele>6.0</ele><time>2026-03-29T11:06:53Z</time></trkpt><trkpt lat="39.146182653363915" lon="16.066047812205813"><ele>5.0</ele><time>2026-03-29T11:06:54Z</time></trkpt><trkpt lat="39.14600266886602" lon="16.06608272564536"><ele>5.0</ele><time>2026-03-29T11:06:55Z</time></trkpt><trkpt lat="39.14582222912231" lon="16.06612061071015"><ele>5.0</ele><time>2026-03-29T11:06:56Z</time></trkpt><trkpt lat="39.14564040264764" lon="16.066158715481258"><ele>5.0</ele><time>2026-03-29T11:06:57Z</time></trkpt><trkpt lat="39.14545765173763" lon="16.066202103126844"><ele>4.666666666666667</ele><time>2026-03-29T11:06:58Z</time></trkpt><trkpt lat="39.14527585190166" lon="16.06625069597731"><ele>4.333333333333333</ele><time>2026-03-29T11:06:59Z</time></trkpt><trkpt lat="39.14509222406009" lon="16.06630906035748"><ele>4.0</ele><time>2026-03-29T11:07:00Z</time></trkpt><trkpt lat="39.14490636912209" lon="16.066369085640755"><ele>4.0</ele><time>2026-03-29T11:07:01Z</time></trkpt><trkpt lat="39.14471964585284" lon="16.066432797845167"><ele>4.0</ele><time>2026-03-29T11:07:02Z</time></trkpt><trkpt lat="39.14453236550994" lon="16.0664955153157"><ele>4.0</ele><time>2026-03-29T11:07:03Z</time></trkpt><trkpt lat="39.144346937648976" lon="16.066554601943587"><ele>5.0</ele><time>2026-03-29T11:07:04Z</time></trkpt><trkpt lat="39.144165398912705" lon="16.06661834391291"><ele>6.0</ele><time>2026-03-29T11:07:05Z</time></trkpt><trkpt lat="39.1439855576945" lon="16.066683955876172"><ele>7.0</ele><time>2026-03-29T11:07:06Z</time></trkpt><trkpt lat="39.14380543487521" lon="16.066747236489153"><ele>7.0</ele><time>2026-03-29T11:07:07Z</time></trkpt><trkpt lat="39.14362342444741" lon="16.066811405202138"><ele>7.0</ele><time>2026-03-29T11:07:08Z</time></trkpt><trkpt lat="39.143440311301326" lon="16.06687604219655"><ele>7.0</ele><time>2026-03-29T11:07:09Z</time></trkpt><trkpt lat="39.14325654981094" lon="16.066943880727717"><ele>6.666666666666667</ele><time>2026-03-29T11:07:10Z</time></trkpt><trkpt lat="39.143070724198104" lon="16.067012623653603"><ele>6.333333333333334</ele><time>2026-03-29T11:07:11Z</time></trkpt><trkpt lat="39.142883236793494" lon="16.067080422272408"><ele>6.0</ele><time>2026-03-29T11:07:12Z</time></trkpt><trkpt lat="39.142695795164364" lon="16.06714608427135"><ele>6.0</ele><time>2026-03-29T11:07:13Z</time></trkpt><trkpt lat="39.14251456273577" lon="16.067207116870968"><ele>6.0</ele><time>2026-03-29T11:07:14Z</time></trkpt><trkpt lat="39.14235471040521" lon="16.067249971623784"><ele>6.0</ele><time>2026-03-29T11:07:15Z</time></trkpt><trkpt lat="39.14221971184518" lon="16.067272476164444"><ele>6.199999999999999</ele><time>2026-03-29T11:07:16Z</time></trkpt><trkpt lat="39.14210123112401" lon="16.06727402560516"><ele>6.3999999999999995</ele><time>2026-03-29T11:07:17Z</time></trkpt><trkpt lat="39.141989867470635" lon="16.067250661967478"><ele>6.6</ele><time>2026-03-29T11:07:18Z</time></trkpt><trkpt lat="39.141888126187354" lon="16.067198170312434"><ele>6.8</ele><time>2026-03-29T11:07:19Z</time></trkpt><trkpt lat="39.141803938390254" lon="16.067118985465626"><ele>7.0</ele><time>2026-03-29T11:07:20Z</time></trkpt><trkpt lat="39.1417363233538" lon="16.06702809419614"><ele>7.0</ele><time>2026-03-29T11:07:21Z</time></trkpt><trkpt lat="39.14167102994712" lon="16.066957269035967"><ele>6.999999999999999</ele><time>2026-03-29T11:07:22Z</time></trkpt><trkpt lat="39.14157333625912" lon="16.066915822277192"><ele>6.999999999999999</ele><time>2026-03-29T11:07:23Z</time></trkpt><trkpt lat="39.14150288346038" lon="16.06694089775425"><ele>7.0</ele><time>2026-03-29T11:07:24Z</time></trkpt><trkpt lat="39.14141799671868" lon="16.066985922669176"><ele>7.0</ele><time>2026-03-29T11:07:25Z</time></trkpt><trkpt lat="39.14133418497306" lon="16.067064088332945"><ele>6.5</ele><time>2026-03-29T11:07:26Z</time></trkpt><trkpt lat="39.1412517543732" lon="16.06716159816773"><ele>6.0</ele><time>2026-03-29T11:07:27Z</time></trkpt><trkpt lat="39.14116569512551" lon="16.06727281834743"><ele>5.5</ele><time>2026-03-29T11:07:28Z</time></trkpt><trkpt lat="39.1410735419137" lon="16.06738410148122"><ele>5.0</ele><time>2026-03-29T11:07:29Z</time></trkpt><trkpt lat="39.14097788272923" lon="16.067495634662386"><ele>5.0</ele><time>2026-03-29T11:07:30Z</time></trkpt><trkpt lat="39.14088510272524" lon="16.067607484484604"><ele>5.0</ele><time>2026-03-29T11:07:31Z</time></trkpt><trkpt lat="39.14079458553642" lon="16.067727865765583"><ele>5.0</ele><time>2026-03-29T11:07:32Z</time></trkpt><trkpt lat="39.14070694962939" lon="16.067853208279843"><ele>5.0</ele><time>2026-03-29T11:07:33Z</time></trkpt><trkpt lat="39.14062059879578" lon="16.06798621071183"><ele>5.0</ele><time>2026-03-29T11:07:34Z</time></trkpt><trkpt lat="39.140537060989224" lon="16.06813097621632"><ele>5.0</ele><time>2026-03-29T11:07:35Z</time></trkpt><trkpt lat="39.140457509638004" lon="16.06828808673197"><ele>5.0</ele><time>2026-03-29T11:07:36Z</time></trkpt><trkpt lat="39.14039243718777" lon="16.068455253314188"><ele>5.0</ele><time>2026-03-29T11:07:37Z</time></trkpt><trkpt lat="39.140334889408145" lon="16.068639462359094"><ele>5.0</ele><time>2026-03-29T11:07:38Z</time></trkpt><trkpt lat="39.140285266396674" lon="16.06882981271227"><ele>5.0</ele><time>2026-03-29T11:07:39Z</time></trkpt><trkpt lat="39.14024236590414" lon="16.069023772912054"><ele>5.0</ele><time>2026-03-29T11:07:40Z</time></trkpt><trkpt lat="39.14020247843995" lon="16.069220829368994"><ele>6.0</ele><time>2026-03-29T11:07:41Z</time></trkpt><trkpt lat="39.1401642659383" lon="16.069419655696787"><ele>7.0</ele><time>2026-03-29T11:07:42Z</time></trkpt><trkpt lat="39.14012727160324" lon="16.06962258078624"><ele>8.0</ele><time>2026-03-29T11:07:43Z</time></trkpt><trkpt lat="39.14008557445543" lon="16.069827784750228"><ele>12.0</ele><time>2026-03-29T11:07:44Z</time></trkpt><trkpt lat="39.14005535095521" lon="16.070037820054612"><ele>16.0</ele><time>2026-03-29T11:07:45Z</time></trkpt><trkpt lat="39.14002212634351" lon="16.070244287462042"><ele>20.0</ele><time>2026-03-29T11:07:46Z</time></trkpt><trkpt lat="39.13998965828649" lon="16.070451319060748"><ele>20.0</ele><time>2026-03-29T11:07:47Z</time></trkpt><trkpt lat="39.13995583443309" lon="16.070664161284995"><ele>20.0</ele><time>2026-03-29T11:07:48Z</time></trkpt><trkpt lat="39.1399272312073" lon="16.07086285474809"><ele>20.0</ele><time>2026-03-29T11:07:49Z</time></trkpt><trkpt lat="39.139896155788314" lon="16.071055345410173"><ele>24.0</ele><time>2026-03-29T11:07:50Z</time></trkpt><trkpt lat="39.139871136856335" lon="16.071256925426457"><ele>28.0</ele><time>2026-03-29T11:07:51Z</time></trkpt><trkpt lat="39.13986425014492" lon="16.071469667889154"><ele>32.0</ele><time>2026-03-29T11:07:52Z</time></trkpt><trkpt lat="39.13988536371678" lon="16.071684757500073"><ele>33.666666666666664</ele><time>2026-03-29T11:07:53Z</time></trkpt><trkpt lat="39.13992696729066" lon="16.07188806875105"><ele>35.333333333333336</ele><time>2026-03-29T11:07:54Z</time></trkpt><trkpt lat="39.13998792190231" lon="16.072078508496233"><ele>37.0</ele><time>2026-03-29T11:07:55Z</time></trkpt><trkpt lat="39.14005649586525" lon="16.072272037293107"><ele>32.0</ele><time>2026-03-29T11:07:56Z</time></trkpt><trkpt lat="39.14012263037997" lon="16.07247291619112"><ele>27.0</ele><time>2026-03-29T11:07:57Z</time></trkpt><trkpt lat="39.14019482987739" lon="16.072651888478514"><ele>22.0</ele><time>2026-03-29T11:07:58Z</time></trkpt><trkpt lat="39.140280112771634" lon="16.07288294768143"><ele>22.0</ele><time>2026-03-29T11:07:59Z</time></trkpt><trkpt lat="39.14035344530309" lon="16.073105310304378"><ele>22.0</ele><time>2026-03-29T11:08:00Z</time></trkpt><trkpt lat="39.140406932050475" lon="16.07334256254475"><ele>22.0</ele><time>2026-03-29T11:08:01Z</time></trkpt><trkpt lat="39.1404256337528" lon="16.073592680951304"><ele>23.0</ele><time>2026-03-29T11:08:02Z</time></trkpt><trkpt lat="39.14042786464548" lon="16.0738467488633"><ele>24.0</ele><time>2026-03-29T11:08:03Z</time></trkpt><trkpt lat="39.14038795901233" lon="16.074104323400185"><ele>25.0</ele><time>2026-03-29T11:08:04Z</time></trkpt><trkpt lat="39.14031067713495" lon="16.074352710545618"><ele>26.666666666666668</ele><time>2026-03-29T11:08:05Z</time></trkpt><trkpt lat="39.140210787788455" lon="16.07459661639351"><ele>28.333333333333336</ele><time>2026-03-29T11:08:06Z</time></trkpt><trkpt lat="39.14010104400099" lon="16.074841305549842"><ele>30.0</ele><time>2026-03-29T11:08:07Z</time></trkpt><trkpt lat="39.13998286205151" lon="16.075084646873556"><ele>45.5</ele><time>2026-03-29T11:08:08Z</time></trkpt><trkpt lat="39.1398603051009" lon="16.075335948477584"><ele>61.0</ele><time>2026-03-29T11:08:09Z</time></trkpt><trkpt lat="39.13975376246882" lon="16.075602278734326"><ele>54.5</ele><time>2026-03-29T11:08:10Z</time></trkpt><trkpt lat="39.139662742353735" lon="16.07587937003949"><ele>48.0</ele><time>2026-03-29T11:08:11Z</time></trkpt><trkpt lat="39.13958111311962" lon="16.076163848311246"><ele>48.0</ele><time>2026-03-29T11:08:12Z</time></trkpt><trkpt lat="39.139497946581514" lon="16.07644819962682"><ele>48.0</ele><time>2026-03-29T11:08:13Z</time></trkpt><trkpt lat="39.1394135410754" lon="16.076725170252"><ele>42.0</ele><time>2026-03-29T11:08:14Z</time></trkpt><trkpt lat="39.13933068901135" lon="16.076999088658553"><ele>36.0</ele><time>2026-03-29T11:08:15Z</time></trkpt><trkpt lat="39.13924068449833" lon="16.0772670914247"><ele>32.5</ele><time>2026-03-29T11:08:16Z</time></trkpt><trkpt lat="39.13912986914847" lon="16.077528219458735"><ele>29.0</ele><time>2026-03-29T11:08:17Z</time></trkpt><trkpt lat="39.13899836253738" lon="16.077781244040786"><ele>38.0</ele><time>2026-03-29T11:08:18Z</time></trkpt><trkpt lat="39.138848428939696" lon="16.078021700531927"><ele>47.0</ele><time>2026-03-29T11:08:19Z</time></trkpt><trkpt lat="39.1386849963683" lon="16.07825241821348"><ele>43.5</ele><time>2026-03-29T11:08:20Z</time></trkpt><trkpt lat="39.13852056436027" lon="16.07848830980688"><ele>40.0</ele><time>2026-03-29T11:08:20.999Z</time></trkpt><trkpt lat="39.13835484474849" lon="16.078726052406758"><ele>41.0</ele><time>2026-03-29T11:08:21.999Z</time></trkpt><trkpt lat="39.13818805771427" lon="16.078960476037903"><ele>42.0</ele><time>2026-03-29T11:08:22.999Z</time></trkpt><trkpt lat="39.13802127955672" lon="16.079193326980032"><ele>42.0</ele><time>2026-03-29T11:08:23.999Z</time></trkpt><trkpt lat="39.13785323315278" lon="16.079429387263794"><ele>42.0</ele><time>2026-03-29T11:08:24.999Z</time></trkpt><trkpt lat="39.13768680190273" lon="16.079666483408577"><ele>42.0</ele><time>2026-03-29T11:08:25.999Z</time></trkpt><trkpt lat="39.137523682991834" lon="16.0799017130428"><ele>42.0</ele><time>2026-03-29T11:08:26.999Z</time></trkpt><trkpt lat="39.137364354236226" lon="16.08012830368016"><ele>44.5</ele><time>2026-03-29T11:08:27.999Z</time></trkpt><trkpt lat="39.13720800501524" lon="16.080347196058852"><ele>47.0</ele><time>2026-03-29T11:08:28.999Z</time></trkpt><trkpt lat="39.13705616602513" lon="16.080563411110496"><ele>46.33333333333333</ele><time>2026-03-29T11:08:29.999Z</time></trkpt><trkpt lat="39.1369108015587" lon="16.08078271455068"><ele>45.666666666666664</ele><time>2026-03-29T11:08:30.999Z</time></trkpt><trkpt lat="39.1367769960583" lon="16.081014136455337"><ele>45.0</ele><time>2026-03-29T11:08:31.999Z</time></trkpt><trkpt lat="39.136646111402804" lon="16.081249332530312"><ele>57.0</ele><time>2026-03-29T11:08:32.999Z</time></trkpt><trkpt lat="39.136515427081356" lon="16.0814859822511"><ele>69.0</ele><time>2026-03-29T11:08:33.999Z</time></trkpt><trkpt lat="39.13638877181742" lon="16.081719835434154"><ele>81.0</ele><time>2026-03-29T11:08:34.999Z</time></trkpt><trkpt lat="39.13626629190203" lon="16.081947622944142"><ele>81.0</ele><time>2026-03-29T11:08:35.999Z</time></trkpt><trkpt lat="39.13614062823363" lon="16.08217577411293"><ele>81.0</ele><time>2026-03-29T11:08:36.999Z</time></trkpt><trkpt lat="39.136016420284584" lon="16.082398339759695"><ele>81.0</ele><time>2026-03-29T11:08:37.999Z</time></trkpt><trkpt lat="39.13590136080808" lon="16.082625906145708"><ele>75.0</ele><time>2026-03-29T11:08:38.999Z</time></trkpt><trkpt lat="39.13580092348626" lon="16.082867622085836"><ele>69.0</ele><time>2026-03-29T11:08:39.999Z</time></trkpt><trkpt lat="39.135722914603285" lon="16.08312252217031"><ele>63.0</ele><time>2026-03-29T11:08:40.999Z</time></trkpt><trkpt lat="39.13566395144504" lon="16.083389010304515"><ele>63.0</ele><time>2026-03-29T11:08:41.999Z</time></trkpt><trkpt lat="39.1356293137763" lon="16.083663778522"><ele>63.0</ele><time>2026-03-29T11:08:42.999Z</time></trkpt><trkpt lat="39.13561941094434" lon="16.083936009466875"><ele>63.0</ele><time>2026-03-29T11:08:43.999Z</time></trkpt><trkpt lat="39.13563739409382" lon="16.084198420319538"><ele>60.33333333333333</ele><time>2026-03-29T11:08:44.999Z</time></trkpt><trkpt lat="39.13563538368544" lon="16.084463219821533"><ele>57.666666666666664</ele><time>2026-03-29T11:08:45.999Z</time></trkpt><trkpt lat="39.13564663830517" lon="16.084726397939114"><ele>55.0</ele><time>2026-03-29T11:08:46.999Z</time></trkpt><trkpt lat="39.13580673822596" lon="16.084978735095945"><ele>52.33333333333333</ele><time>2026-03-29T11:08:47.999Z</time></trkpt><trkpt lat="39.13587872863697" lon="16.08523302716771"><ele>49.666666666666664</ele><time>2026-03-29T11:08:48.999Z</time></trkpt><trkpt lat="39.13595057423795" lon="16.085481797622208"><ele>47.0</ele><time>2026-03-29T11:08:49.999Z</time></trkpt><trkpt lat="39.136022359066935" lon="16.085721479739174"><ele>47.666666666666664</ele><time>2026-03-29T11:08:50.999Z</time></trkpt><trkpt lat="39.13610440647568" lon="16.085947944166954"><ele>48.33333333333333</ele><time>2026-03-29T11:08:51.999Z</time></trkpt><trkpt lat="39.1361947037922" lon="16.086165312782356"><ele>49.0</ele><time>2026-03-29T11:08:52.999Z</time></trkpt><trkpt lat="39.13629520633595" lon="16.086372173959916"><ele>49.0</ele><time>2026-03-29T11:08:54Z</time></trkpt><trkpt lat="39.13640014309319" lon="16.086572456585625"><ele>49.0</ele><time>2026-03-29T11:08:55Z</time></trkpt><trkpt lat="39.13651215580676" lon="16.086759856443045"><ele>49.0</ele><time>2026-03-29T11:08:56Z</time></trkpt><trkpt lat="39.13663187258576" lon="16.086940463652624"><ele>50.33333333333333</ele><time>2026-03-29T11:08:57Z</time></trkpt><trkpt lat="39.13675752038088" lon="16.087110947657287"><ele>51.66666666666667</ele><time>2026-03-29T11:08:58Z</time></trkpt><trkpt lat="39.136888163315874" lon="16.0872704776438"><ele>53.0</ele><time>2026-03-29T11:08:59Z</time></trkpt><trkpt lat="39.1370253051451" lon="16.087424750369554"><ele>53.66666666666667</ele><time>2026-03-29T11:09:00Z</time></trkpt><trkpt lat="39.137168151047064" lon="16.087575240179564"><ele>54.33333333333333</ele><time>2026-03-29T11:09:01Z</time></trkpt><trkpt lat="39.13731690946104" lon="16.08771582269965"><ele>55.0</ele><time>2026-03-29T11:09:02Z</time></trkpt><trkpt lat="39.137470559961486" lon="16.087844730053718"><ele>55.0</ele><time>2026-03-29T11:09:03Z</time></trkpt><trkpt lat="39.137624519126" lon="16.08797269479702"><ele>55.0</ele><time>2026-03-29T11:09:04Z</time></trkpt><trkpt lat="39.13778126493188" lon="16.088103252750653"><ele>55.0</ele><time>2026-03-29T11:09:05Z</time></trkpt><trkpt lat="39.1379401178269" lon="16.088233464061542"><ele>54.666666666666664</ele><time>2026-03-29T11:09:06Z</time></trkpt><trkpt lat="39.13810197775438" lon="16.088364938468366"><ele>54.33333333333333</ele><time>2026-03-29T11:09:07Z</time></trkpt><trkpt lat="39.138268521739946" lon="16.08850168727291"><ele>54.0</ele><time>2026-03-29T11:09:08Z</time></trkpt><trkpt lat="39.138437845661365" lon="16.088640978102188"><ele>55.0</ele><time>2026-03-29T11:09:09Z</time></trkpt><trkpt lat="39.13861186593457" lon="16.08878290303306"><ele>56.0</ele><time>2026-03-29T11:09:10Z</time></trkpt><trkpt lat="39.13878890999965" lon="16.088927172335623"><ele>57.0</ele><time>2026-03-29T11:09:11Z</time></trkpt><trkpt lat="39.13896733545311" lon="16.089069400337475"><ele>57.66666666666667</ele><time>2026-03-29T11:09:12Z</time></trkpt><trkpt lat="39.13914665560601" lon="16.089214341323338"><ele>58.333333333333336</ele><time>2026-03-29T11:09:13Z</time></trkpt><trkpt lat="39.13932425320264" lon="16.08935921488266"><ele>59.0</ele><time>2026-03-29T11:09:14Z</time></trkpt><trkpt lat="39.139495650818986" lon="16.08950194217069"><ele>59.0</ele><time>2026-03-29T11:09:15Z</time></trkpt><trkpt lat="39.139664890417365" lon="16.089642683871375"><ele>59.0</ele><time>2026-03-29T11:09:16Z</time></trkpt><trkpt lat="39.139834262544696" lon="16.089782344009727"><ele>59.0</ele><time>2026-03-29T11:09:17Z</time></trkpt><trkpt lat="39.14000218872579" lon="16.089920541201177"><ele>61.66666666666667</ele><time>2026-03-29T11:09:18Z</time></trkpt><trkpt lat="39.14016390710824" lon="16.090057974439087"><ele>64.33333333333333</ele><time>2026-03-29T11:09:19Z</time></trkpt><trkpt lat="39.140316242964495" lon="16.090205570269802"><ele>67.0</ele><time>2026-03-29T11:09:20Z</time></trkpt><trkpt lat="39.14045940581671" lon="16.09036575770158"><ele>67.0</ele><time>2026-03-29T11:09:21Z</time></trkpt><trkpt lat="39.14059366545776" lon="16.090538410676313"><ele>67.0</ele><time>2026-03-29T11:09:22Z</time></trkpt><trkpt lat="39.140718620746334" lon="16.090719052497434"><ele>67.0</ele><time>2026-03-29T11:09:23Z</time></trkpt><trkpt lat="39.140834032041454" lon="16.090910307419602"><ele>67.66666666666666</ele><time>2026-03-29T11:09:24Z</time></trkpt><trkpt lat="39.14093836685621" lon="16.091113807419593"><ele>68.33333333333333</ele><time>2026-03-29T11:09:25Z</time></trkpt><trkpt lat="39.14103090877791" lon="16.09132795956146"><ele>69.0</ele><time>2026-03-29T11:09:26Z</time></trkpt><trkpt lat="39.141113137728524" lon="16.091551214351078"><ele>71.0</ele><time>2026-03-29T11:09:27Z</time></trkpt><trkpt lat="39.14118542140133" lon="16.0917816609349"><ele>73.0</ele><time>2026-03-29T11:09:28Z</time></trkpt><trkpt lat="39.14125527417699" lon="16.09201384881903"><ele>75.0</ele><time>2026-03-29T11:09:29Z</time></trkpt><trkpt lat="39.14132665467779" lon="16.092249232491085"><ele>77.33333333333333</ele><time>2026-03-29T11:09:30Z</time></trkpt><trkpt lat="39.14139761394245" lon="16.09248689832514"><ele>79.66666666666666</ele><time>2026-03-29T11:09:31Z</time></trkpt><trkpt lat="39.1414699452149" lon="16.092726771399114"><ele>82.0</ele><time>2026-03-29T11:09:32Z</time></trkpt><trkpt lat="39.14154149860419" lon="16.09297085681286"><ele>81.33333333333333</ele><time>2026-03-29T11:09:33Z</time></trkpt><trkpt lat="39.141613971717874" lon="16.093219886068745"><ele>80.66666666666667</ele><time>2026-03-29T11:09:34Z</time></trkpt><trkpt lat="39.14168949591983" lon="16.093470115367086"><ele>80.0</ele><time>2026-03-29T11:09:35Z</time></trkpt><trkpt lat="39.14176757811676" lon="16.093718426923076"><ele>80.0</ele><time>2026-03-29T11:09:36Z</time></trkpt><trkpt lat="39.141844646189824" lon="16.093969586105626"><ele>80.0</ele><time>2026-03-29T11:09:37Z</time></trkpt><trkpt lat="39.14192257291081" lon="16.09422507955207"><ele>80.0</ele><time>2026-03-29T11:09:38Z</time></trkpt><trkpt lat="39.142001968261894" lon="16.0944838575723"><ele>86.0</ele><time>2026-03-29T11:09:39Z</time></trkpt><trkpt lat="39.14208567456837" lon="16.094740791975763"><ele>92.0</ele><time>2026-03-29T11:09:40Z</time></trkpt><trkpt lat="39.14217901842495" lon="16.094996943165892"><ele>98.0</ele><time>2026-03-29T11:09:41Z</time></trkpt><trkpt lat="39.14227558278684" lon="16.095247236726895"><ele>97.66666666666666</ele><time>2026-03-29T11:09:42Z</time></trkpt><trkpt lat="39.1423776441532" lon="16.095496123751754"><ele>97.33333333333334</ele><time>2026-03-29T11:09:43Z</time></trkpt><trkpt lat="39.14248914782453" lon="16.095743854455836"><ele>97.0</ele><time>2026-03-29T11:09:44Z</time></trkpt><trkpt lat="39.142602709655094" lon="16.09598843876448"><ele>97.0</ele><time>2026-03-29T11:09:45Z</time></trkpt><trkpt lat="39.14271817692827" lon="16.096232172563965"><ele>97.0</ele><time>2026-03-29T11:09:46Z</time></trkpt><trkpt lat="39.14282904693205" lon="16.096474756176374"><ele>97.0</ele><time>2026-03-29T11:09:47Z</time></trkpt><trkpt lat="39.14293834433996" lon="16.096721041964134"><ele>95.0</ele><time>2026-03-29T11:09:48Z</time></trkpt><trkpt lat="39.14304634531312" lon="16.09696157999754"><ele>93.0</ele><time>2026-03-29T11:09:49Z</time></trkpt><trkpt lat="39.14315663435004" lon="16.097198297972774"><ele>91.0</ele><time>2026-03-29T11:09:50Z</time></trkpt><trkpt lat="39.14326754342163" lon="16.097430851059624"><ele>91.0</ele><time>2026-03-29T11:09:51Z</time></trkpt><trkpt lat="39.143384537265696" lon="16.09765535561438"><ele>91.0</ele><time>2026-03-29T11:09:52Z</time></trkpt><trkpt lat="39.14351490555205" lon="16.097871894578837"><ele>91.0</ele><time>2026-03-29T11:09:53Z</time></trkpt><trkpt lat="39.143661405221394" lon="16.098075601930677"><ele>92.0</ele><time>2026-03-29T11:09:54Z</time></trkpt><trkpt lat="39.14382090593694" lon="16.09826948190077"><ele>93.0</ele><time>2026-03-29T11:09:55Z</time></trkpt><trkpt lat="39.143992848822975" lon="16.0984507021887"><ele>94.0</ele><time>2026-03-29T11:09:56Z</time></trkpt><trkpt lat="39.14417418549058" lon="16.09861264854512"><ele>94.0</ele><time>2026-03-29T11:09:57Z</time></trkpt><trkpt lat="39.1443683089775" lon="16.09874986813071"><ele>94.0</ele><time>2026-03-29T11:09:58Z</time></trkpt><trkpt lat="39.14457201293682" lon="16.098860453684296"><ele>94.0</ele><time>2026-03-29T11:09:59Z</time></trkpt><trkpt lat="39.144785070953176" lon="16.098951619205604"><ele>94.5</ele><time>2026-03-29T11:10:00Z</time></trkpt><trkpt lat="39.145002046513305" lon="16.099027033248717"><ele>95.0</ele><time>2026-03-29T11:10:01Z</time></trkpt><trkpt lat="39.145222486031564" lon="16.099094217750995"><ele>99.5</ele><time>2026-03-29T11:10:02Z</time></trkpt><trkpt lat="39.14544371149225" lon="16.0991573002733"><ele>104.0</ele><time>2026-03-29T11:10:03Z</time></trkpt><trkpt lat="39.145662527813286" lon="16.09921965376601"><ele>102.66666666666666</ele><time>2026-03-29T11:10:04Z</time></trkpt><trkpt lat="39.14588071586996" lon="16.099284132347904"><ele>101.33333333333334</ele><time>2026-03-29T11:10:05Z</time></trkpt><trkpt lat="39.146096898439176" lon="16.09935142999297"><ele>100.0</ele><time>2026-03-29T11:10:06Z</time></trkpt><trkpt lat="39.14630936803003" lon="16.099417141924402"><ele>100.0</ele><time>2026-03-29T11:10:07Z</time></trkpt><trkpt lat="39.14652119497965" lon="16.099478043746338"><ele>100.0</ele><time>2026-03-29T11:10:08Z</time></trkpt><trkpt lat="39.14672386726" lon="16.099535487006367"><ele>100.0</ele><time>2026-03-29T11:10:09Z</time></trkpt><trkpt lat="39.14692295902991" lon="16.099591853241698"><ele>103.0</ele><time>2026-03-29T11:10:10Z</time></trkpt><trkpt lat="39.14712118451036" lon="16.099641092271735"><ele>106.0</ele><time>2026-03-29T11:10:11Z</time></trkpt><trkpt lat="39.14732013772747" lon="16.09967604415235"><ele>109.0</ele><time>2026-03-29T11:10:12Z</time></trkpt><trkpt lat="39.147518688403224" lon="16.099686755664305"><ele>109.0</ele><time>2026-03-29T11:10:13Z</time></trkpt><trkpt lat="39.14771564285984" lon="16.09966785982562"><ele>109.0</ele><time>2026-03-29T11:10:14Z</time></trkpt><trkpt lat="39.14790772459365" lon="16.09962500471629"><ele>109.0</ele><time>2026-03-29T11:10:15Z</time></trkpt><trkpt lat="39.14809523267358" lon="16.09955668254002"><ele>108.66666666666667</ele><time>2026-03-29T11:10:16Z</time></trkpt><trkpt lat="39.14827750956437" lon="16.099480705826714"><ele>108.33333333333334</ele><time>2026-03-29T11:10:17Z</time></trkpt><trkpt lat="39.148462149714184" lon="16.09940181076582"><ele>108.0</ele><time>2026-03-29T11:10:18Z</time></trkpt><trkpt lat="39.14864499142734" lon="16.099323000337005"><ele>108.0</ele><time>2026-03-29T11:10:19Z</time></trkpt><trkpt lat="39.148829568425604" lon="16.09924977305704"><ele>108.0</ele><time>2026-03-29T11:10:20Z</time></trkpt><trkpt lat="39.149012511572174" lon="16.099179096331845"><ele>108.0</ele><time>2026-03-29T11:10:21Z</time></trkpt><trkpt lat="39.149187382699175" lon="16.099113467647232"><ele>110.66666666666666</ele><time>2026-03-29T11:10:22Z</time></trkpt><trkpt lat="39.1493600875542" lon="16.09905245578003"><ele>113.33333333333333</ele><time>2026-03-29T11:10:22.999Z</time></trkpt><trkpt lat="39.149532810948195" lon="16.099006748766687"><ele>116.0</ele><time>2026-03-29T11:10:23.999Z</time></trkpt><trkpt lat="39.1497070087623" lon="16.09898015076507"><ele>129.0</ele><time>2026-03-29T11:10:24.999Z</time></trkpt><trkpt lat="39.149882617918806" lon="16.0989760806607"><ele>142.0</ele><time>2026-03-29T11:10:25.999Z</time></trkpt><trkpt lat="39.15006063174931" lon="16.09899006548119"><ele>155.0</ele><time>2026-03-29T11:10:26.999Z</time></trkpt><trkpt lat="39.15023961069906" lon="16.09902637375751"><ele>155.0</ele><time>2026-03-29T11:10:27.999Z</time></trkpt><trkpt lat="39.15041880743203" lon="16.099072946611013"><ele>155.0</ele><time>2026-03-29T11:10:28.999Z</time></trkpt><trkpt lat="39.15059580635612" lon="16.09911963441495"><ele>155.0</ele><time>2026-03-29T11:10:29.999Z</time></trkpt><trkpt lat="39.15076388208357" lon="16.0991662069468"><ele>152.66666666666666</ele><time>2026-03-29T11:10:30.999Z</time></trkpt><trkpt lat="39.15092495740769" lon="16.09921931845019"><ele>150.33333333333334</ele><time>2026-03-29T11:10:31.999Z</time></trkpt><trkpt lat="39.151082396100755" lon="16.099289658775678"><ele>148.0</ele><time>2026-03-29T11:10:32.999Z</time></trkpt><trkpt lat="39.151232601825214" lon="16.099384013075056"><ele>148.0</ele><time>2026-03-29T11:10:33.999Z</time></trkpt><trkpt lat="39.151371031776506" lon="16.099504850654352"><ele>148.0</ele><time>2026-03-29T11:10:34.999Z</time></trkpt><trkpt lat="39.151498213035985" lon="16.099649999894474"><ele>148.0</ele><time>2026-03-29T11:10:35.999Z</time></trkpt><trkpt lat="39.151609409942076" lon="16.099817990866473"><ele>150.0</ele><time>2026-03-29T11:10:36.999Z</time></trkpt><trkpt lat="39.151703868569335" lon="16.100008750668646"><ele>152.0</ele><time>2026-03-29T11:10:37.999Z</time></trkpt><trkpt lat="39.15178746192393" lon="16.100212306952354"><ele>154.0</ele><time>2026-03-29T11:10:38.999Z</time></trkpt><trkpt lat="39.15185592158923" lon="16.100426130136753"><ele>154.0</ele><time>2026-03-29T11:10:39.999Z</time></trkpt><trkpt lat="39.15192472619083" lon="16.10063997978207"><ele>154.0</ele><time>2026-03-29T11:10:40.999Z</time></trkpt><trkpt lat="39.1519928229307" lon="16.100849886045776"><ele>154.0</ele><time>2026-03-29T11:10:41.999Z</time></trkpt><trkpt lat="39.15206389694704" lon="16.101056977603754"><ele>151.0</ele><time>2026-03-29T11:10:42.999Z</time></trkpt><trkpt lat="39.15213855709521" lon="16.10126136445402"><ele>148.0</ele><time>2026-03-29T11:10:43.999Z</time></trkpt><trkpt lat="39.152224400705364" lon="16.101454166779366"><ele>145.0</ele><time>2026-03-29T11:10:44.999Z</time></trkpt><trkpt lat="39.15232052821814" lon="16.1016419267241"><ele>152.33333333333334</ele><time>2026-03-29T11:10:45.999Z</time></trkpt><trkpt lat="39.15242173237274" lon="16.10182778357181"><ele>159.66666666666666</ele><time>2026-03-29T11:10:46.999Z</time></trkpt><trkpt lat="39.1525257904713" lon="16.102009777416995"><ele>167.0</ele><time>2026-03-29T11:10:47.999Z</time></trkpt><trkpt lat="39.152632860839155" lon="16.102192538936016"><ele>167.0</ele><time>2026-03-29T11:10:48.999Z</time></trkpt><trkpt lat="39.15274282255012" lon="16.102378651363214"><ele>167.0</ele><time>2026-03-29T11:10:49.999Z</time></trkpt><trkpt lat="39.15285107631757" lon="16.102565379579126"><ele>167.0</ele><time>2026-03-29T11:10:50.999Z</time></trkpt><trkpt lat="39.15295470214578" lon="16.102751588386322"><ele>164.33333333333331</ele><time>2026-03-29T11:10:51.999Z</time></trkpt><trkpt lat="39.15305053353802" lon="16.10294084626209"><ele>161.66666666666666</ele><time>2026-03-29T11:10:52.999Z</time></trkpt><trkpt lat="39.15313189150247" lon="16.103142261139293"><ele>159.0</ele><time>2026-03-29T11:10:53.999Z</time></trkpt><trkpt lat="39.15319714400886" lon="16.103356639749272"><ele>167.66666666666666</ele><time>2026-03-29T11:10:54.999Z</time></trkpt><trkpt lat="39.15324644810491" lon="16.10357624138583"><ele>176.33333333333331</ele><time>2026-03-29T11:10:55.999Z</time></trkpt><trkpt lat="39.15328194172814" lon="16.103803047472432"><ele>185.0</ele><time>2026-03-29T11:10:56.999Z</time></trkpt><trkpt lat="39.15330658866296" lon="16.10403780542664"><ele>185.0</ele><time>2026-03-29T11:10:57.999Z</time></trkpt><trkpt lat="39.15333135720672" lon="16.10427553709513"><ele>185.0</ele><time>2026-03-29T11:10:58.999Z</time></trkpt><trkpt lat="39.153354048476345" lon="16.10451931713911"><ele>185.0</ele><time>2026-03-29T11:11:00Z</time></trkpt><trkpt lat="39.15337623190591" lon="16.104770110230504"><ele>184.66666666666666</ele><time>2026-03-29T11:11:01Z</time></trkpt><trkpt lat="39.15340001944947" lon="16.105024980438213"><ele>184.33333333333334</ele><time>2026-03-29T11:11:02Z</time></trkpt><trkpt lat="39.153422700539366" lon="16.10528351911389"><ele>184.0</ele><time>2026-03-29T11:11:03Z</time></trkpt><trkpt lat="39.153445987512754" lon="16.10555009952964"><ele>183.66666666666669</ele><time>2026-03-29T11:11:04Z</time></trkpt><trkpt lat="39.153471972133396" lon="16.105817623716657"><ele>183.33333333333334</ele><time>2026-03-29T11:11:05Z</time></trkpt><trkpt lat="39.15349761895568" lon="16.10608081317957"><ele>183.0</ele><time>2026-03-29T11:11:06Z</time></trkpt><trkpt lat="39.153521656027266" lon="16.10633849313846"><ele>183.0</ele><time>2026-03-29T11:11:07Z</time></trkpt><trkpt lat="39.15354432268325" lon="16.10659613011407"><ele>183.0</ele><time>2026-03-29T11:11:08Z</time></trkpt><trkpt lat="39.153562953738835" lon="16.106843080735192"><ele>183.0</ele><time>2026-03-29T11:11:09Z</time></trkpt><trkpt lat="39.15356668391567" lon="16.107083128457973"><ele>183.0</ele><time>2026-03-29T11:11:10Z</time></trkpt><trkpt lat="39.153550267500286" lon="16.10732065719445"><ele>183.0</ele><time>2026-03-29T11:11:11Z</time></trkpt><trkpt lat="39.1535049726907" lon="16.107560013399212"><ele>183.0</ele><time>2026-03-29T11:11:12Z</time></trkpt><trkpt lat="39.15344016935928" lon="16.107800205667473"><ele>182.66666666666666</ele><time>2026-03-29T11:11:13Z</time></trkpt><trkpt lat="39.153359815522094" lon="16.108038331155743"><ele>182.33333333333331</ele><time>2026-03-29T11:11:14Z</time></trkpt><trkpt lat="39.15327676363342" lon="16.108291236696317"><ele>182.0</ele><time>2026-03-29T11:11:15Z</time></trkpt><trkpt lat="39.153193967955566" lon="16.108554091850614"><ele>169.5</ele><time>2026-03-29T11:11:16Z</time></trkpt><trkpt lat="39.15310730212786" lon="16.108829437435187"><ele>157.0</ele><time>2026-03-29T11:11:17Z</time></trkpt><trkpt lat="39.153017908559974" lon="16.109102669620714"><ele>157.0</ele><time>2026-03-29T11:11:18Z</time></trkpt><trkpt lat="39.15293245532053" lon="16.109362427211508"><ele>157.0</ele><time>2026-03-29T11:11:19Z</time></trkpt><trkpt lat="39.1528486733587" lon="16.109617150436573"><ele>157.0</ele><time>2026-03-29T11:11:20Z</time></trkpt><trkpt lat="39.15276522492817" lon="16.109867243526107"><ele>166.66666666666669</ele><time>2026-03-29T11:11:21Z</time></trkpt><trkpt lat="39.15268308211419" lon="16.110118518525717"><ele>176.33333333333334</ele><time>2026-03-29T11:11:22Z</time></trkpt><trkpt lat="39.152609073945214" lon="16.110359757302085"><ele>186.0</ele><time>2026-03-29T11:11:23Z</time></trkpt><trkpt lat="39.15254370591121" lon="16.110599450537695"><ele>194.33333333333331</ele><time>2026-03-29T11:11:24Z</time></trkpt><trkpt lat="39.15249255290714" lon="16.11084234548664"><ele>202.66666666666666</ele><time>2026-03-29T11:11:25Z</time></trkpt><trkpt lat="39.15248114467927" lon="16.11109586100543"><ele>211.0</ele><time>2026-03-29T11:11:26Z</time></trkpt><trkpt lat="39.15249875084726" lon="16.111359517539455"><ele>211.0</ele><time>2026-03-29T11:11:27Z</time></trkpt><trkpt lat="39.152547435207765" lon="16.11162334332728"><ele>211.0</ele><time>2026-03-29T11:11:28Z</time></trkpt><trkpt lat="39.15261085128682" lon="16.111887849537354"><ele>211.0</ele><time>2026-03-29T11:11:29Z</time></trkpt><trkpt lat="39.15268149705029" lon="16.112152316347803"><ele>210.33333333333331</ele><time>2026-03-29T11:11:30Z</time></trkpt><trkpt lat="39.15274925056859" lon="16.11241929742506"><ele>209.66666666666669</ele><time>2026-03-29T11:11:31Z</time></trkpt><trkpt lat="39.15281322508292" lon="16.11268071686913"><ele>209.0</ele><time>2026-03-29T11:11:32Z</time></trkpt><trkpt lat="39.15285242167089" lon="16.11294523178858"><ele>209.0</ele><time>2026-03-29T11:11:33Z</time></trkpt><trkpt lat="39.15285879611365" lon="16.11321220502645"><ele>209.0</ele><time>2026-03-29T11:11:34Z</time></trkpt><trkpt lat="39.152843661296636" lon="16.113480858899603"><ele>209.0</ele><time>2026-03-29T11:11:35Z</time></trkpt><trkpt lat="39.15282025048739" lon="16.11375545727732"><ele>210.33333333333334</ele><time>2026-03-29T11:11:36Z</time></trkpt><trkpt lat="39.15280492171439" lon="16.114027105196907"><ele>211.66666666666669</ele><time>2026-03-29T11:11:37Z</time></trkpt><trkpt lat="39.15281478615036" lon="16.114295662003666"><ele>213.0</ele><time>2026-03-29T11:11:38Z</time></trkpt><trkpt lat="39.15286176683816" lon="16.11455679575477"><ele>213.33333333333331</ele><time>2026-03-29T11:11:39Z</time></trkpt><trkpt lat="39.152951123810126" lon="16.11480354378473"><ele>213.66666666666666</ele><time>2026-03-29T11:11:40Z</time></trkpt><trkpt lat="39.15307455042953" lon="16.115018748347374"><ele>214.0</ele><time>2026-03-29T11:11:41Z</time></trkpt><trkpt lat="39.15322276737084" lon="16.115203114921364"><ele>226.33333333333331</ele><time>2026-03-29T11:11:42Z</time></trkpt><trkpt lat="39.15338344672952" lon="16.115357905520092"><ele>238.66666666666669</ele><time>2026-03-29T11:11:43Z</time></trkpt><trkpt lat="39.15352925264023" lon="16.115519113959117"><ele>251.0</ele><time>2026-03-29T11:11:44Z</time></trkpt><trkpt lat="39.15365144560719" lon="16.115707121205393"><ele>245.66666666666669</ele><time>2026-03-29T11:11:45Z</time></trkpt><trkpt lat="39.15375016144831" lon="16.115918814903555"><ele>240.33333333333331</ele><time>2026-03-29T11:11:46Z</time></trkpt><trkpt lat="39.1538280490851" lon="16.11613946242075"><ele>235.0</ele><time>2026-03-29T11:11:47Z</time></trkpt><trkpt lat="39.15387739547219" lon="16.116365926758494"><ele>234.66666666666666</ele><time>2026-03-29T11:11:48Z</time></trkpt><trkpt lat="39.15389947212696" lon="16.11660319600787"><ele>234.33333333333331</ele><time>2026-03-29T11:11:49Z</time></trkpt><trkpt lat="39.15388875273955" lon="16.116843078004376"><ele>234.0</ele><time>2026-03-29T11:11:50Z</time></trkpt><trkpt lat="39.15384858194017" lon="16.117078837612976"><ele>234.0</ele><time>2026-03-29T11:11:51Z</time></trkpt><trkpt lat="39.153780843269914" lon="16.11731228807947"><ele>234.0</ele><time>2026-03-29T11:11:52Z</time></trkpt><trkpt lat="39.153740053712134" lon="16.1175502595302"><ele>234.0</ele><time>2026-03-29T11:11:53Z</time></trkpt><trkpt lat="39.15360922548776" lon="16.11776852071524"><ele>236.33333333333331</ele><time>2026-03-29T11:11:54Z</time></trkpt><trkpt lat="39.153529244618014" lon="16.1179972819195"><ele>238.66666666666666</ele><time>2026-03-29T11:11:55Z</time></trkpt><trkpt lat="39.15346078721344" lon="16.11822984680144"><ele>241.0</ele><time>2026-03-29T11:11:56Z</time></trkpt><trkpt lat="39.15342244155416" lon="16.118470222591963"><ele>244.66666666666666</ele><time>2026-03-29T11:11:57Z</time></trkpt><trkpt lat="39.15341566144402" lon="16.118717586010277"><ele>248.33333333333331</ele><time>2026-03-29T11:11:58Z</time></trkpt><trkpt lat="39.15343827794115" lon="16.118970695219957"><ele>252.0</ele><time>2026-03-29T11:11:59Z</time></trkpt><trkpt lat="39.15349015088695" lon="16.11922206440203"><ele>253.0</ele><time>2026-03-29T11:12:00Z</time></trkpt><trkpt lat="39.15356394166415" lon="16.11947178669172"><ele>254.0</ele><time>2026-03-29T11:12:01Z</time></trkpt><trkpt lat="39.15363687470253" lon="16.119726394326054"><ele>255.0</ele><time>2026-03-29T11:12:02Z</time></trkpt><trkpt lat="39.153711627274205" lon="16.119985554738644"><ele>250.0</ele><time>2026-03-29T11:12:03Z</time></trkpt><trkpt lat="39.153784614703106" lon="16.120248979270148"><ele>245.0</ele><time>2026-03-29T11:12:04Z</time></trkpt><trkpt lat="39.15385737339036" lon="16.120512378692347"><ele>240.0</ele><time>2026-03-29T11:12:05Z</time></trkpt><trkpt lat="39.15393054360065" lon="16.12077042223875"><ele>235.0</ele><time>2026-03-29T11:12:06Z</time></trkpt><trkpt lat="39.15400366256373" lon="16.121024811433983"><ele>230.0</ele><time>2026-03-29T11:12:07Z</time></trkpt><trkpt lat="39.15407413001428" lon="16.12127379162493"><ele>225.0</ele><time>2026-03-29T11:12:08Z</time></trkpt><trkpt lat="39.15414280698732" lon="16.1215189643577"><ele>241.66666666666669</ele><time>2026-03-29T11:12:09Z</time></trkpt><trkpt lat="39.15420961833338" lon="16.121760881890474"><ele>258.33333333333337</ele><time>2026-03-29T11:12:10Z</time></trkpt><trkpt lat="39.15427422215453" lon="16.12199368588531"><ele>275.0</ele><time>2026-03-29T11:12:11Z</time></trkpt><trkpt lat="39.15433628827501" lon="16.122220916494943"><ele>273.0</ele><time>2026-03-29T11:12:12Z</time></trkpt><trkpt lat="39.1543944903749" lon="16.122444831577237"><ele>271.0</ele><time>2026-03-29T11:12:13Z</time></trkpt><trkpt lat="39.154441703557154" lon="16.122667433955456"><ele>269.0</ele><time>2026-03-29T11:12:14Z</time></trkpt><trkpt lat="39.15447375134641" lon="16.12289286380121"><ele>269.0</ele><time>2026-03-29T11:12:15Z</time></trkpt><trkpt lat="39.15449544370439" lon="16.123117156721033"><ele>269.0</ele><time>2026-03-29T11:12:16Z</time></trkpt><trkpt lat="39.15451319812863" lon="16.123340637223937"><ele>269.0</ele><time>2026-03-29T11:12:17Z</time></trkpt><trkpt lat="39.15453086982498" lon="16.12356656274459"><ele>268.33333333333337</ele><time>2026-03-29T11:12:18Z</time></trkpt><trkpt lat="39.1545455361761" lon="16.123797886205733"><ele>267.6666666666667</ele><time>2026-03-29T11:12:19Z</time></trkpt><trkpt lat="39.1545625425078" lon="16.12403302755181"><ele>267.0</ele><time>2026-03-29T11:12:20Z</time></trkpt><trkpt lat="39.1545794441643" lon="16.12427168172588"><ele>266.3333333333333</ele><time>2026-03-29T11:12:21Z</time></trkpt><trkpt lat="39.154596380423676" lon="16.124513597176353"><ele>265.66666666666663</ele><time>2026-03-29T11:12:22Z</time></trkpt><trkpt lat="39.154614769461645" lon="16.12476022371467"><ele>265.0</ele><time>2026-03-29T11:12:23Z</time></trkpt><trkpt lat="39.15463444576692" lon="16.125008027493053"><ele>262.66666666666663</ele><time>2026-03-29T11:12:24Z</time></trkpt><trkpt lat="39.154653728136076" lon="16.1252572405239"><ele>260.3333333333333</ele><time>2026-03-29T11:12:24.999Z</time></trkpt><trkpt lat="39.15467221020186" lon="16.12549873640325"><ele>258.0</ele><time>2026-03-29T11:12:25.999Z</time></trkpt><trkpt lat="39.15469157591439" lon="16.125734152644267"><ele>258.0</ele><time>2026-03-29T11:12:26.999Z</time></trkpt><trkpt lat="39.1547123820333" lon="16.125963954408444"><ele>258.0</ele><time>2026-03-29T11:12:27.999Z</time></trkpt><trkpt lat="39.154735234899924" lon="16.12619021428674"><ele>258.0</ele><time>2026-03-29T11:12:28.999Z</time></trkpt><trkpt lat="39.15476538467529" lon="16.126410576243913"><ele>258.0</ele><time>2026-03-29T11:12:29.999Z</time></trkpt><trkpt lat="39.154819763425095" lon="16.126611712220804"><ele>258.0</ele><time>2026-03-29T11:12:30.999Z</time></trkpt><trkpt lat="39.154890992294995" lon="16.12679961761253"><ele>258.0</ele><time>2026-03-29T11:12:31.999Z</time></trkpt><trkpt lat="39.154986502986986" lon="16.126967253168505"><ele>274.3333333333333</ele><time>2026-03-29T11:12:32.999Z</time></trkpt><trkpt lat="39.15510510191474" lon="16.12711980476704"><ele>290.66666666666663</ele><time>2026-03-29T11:12:33.999Z</time></trkpt><trkpt lat="39.15523154533056" lon="16.12726419171665"><ele>307.0</ele><time>2026-03-29T11:12:34.999Z</time></trkpt><trkpt lat="39.15537575342201" lon="16.127390118618013"><ele>311.3333333333333</ele><time>2026-03-29T11:12:35.999Z</time></trkpt><trkpt lat="39.15552863468705" lon="16.127504180687115"><ele>315.6666666666667</ele><time>2026-03-29T11:12:36.999Z</time></trkpt><trkpt lat="39.15569331754683" lon="16.127598199457246"><ele>320.0</ele><time>2026-03-29T11:12:37.999Z</time></trkpt><trkpt lat="39.15586745042531" lon="16.127670590701953"><ele>320.0</ele><time>2026-03-29T11:12:38.999Z</time></trkpt><trkpt lat="39.15604730674092" lon="16.127723475287723"><ele>320.0</ele><time>2026-03-29T11:12:39.999Z</time></trkpt><trkpt lat="39.156230738271" lon="16.1277675832632"><ele>320.0</ele><time>2026-03-29T11:12:40.999Z</time></trkpt><trkpt lat="39.15641367167275" lon="16.12781658480754"><ele>325.6666666666667</ele><time>2026-03-29T11:12:41.999Z</time></trkpt><trkpt lat="39.156599893933276" lon="16.12786437512332"><ele>331.3333333333333</ele><time>2026-03-29T11:12:42.999Z</time></trkpt><trkpt lat="39.15678052959245" lon="16.127910056188245"><ele>337.0</ele><time>2026-03-29T11:12:43.999Z</time></trkpt><trkpt lat="39.15695227016454" lon="16.127957531894623"><ele>337.0</ele><time>2026-03-29T11:12:44.999Z</time></trkpt><trkpt lat="39.15712034102246" lon="16.12800910131014"><ele>337.0</ele><time>2026-03-29T11:12:45.999Z</time></trkpt><trkpt lat="39.15728360160728" lon="16.128073737257857"><ele>337.0</ele><time>2026-03-29T11:12:46.999Z</time></trkpt><trkpt lat="39.15744538739682" lon="16.128159096595333"><ele>333.3333333333333</ele><time>2026-03-29T11:12:47.999Z</time></trkpt><trkpt lat="39.15759974281206" lon="16.128274965926906"><ele>329.6666666666667</ele><time>2026-03-29T11:12:48.999Z</time></trkpt><trkpt lat="39.15774259328219" lon="16.12840927966113"><ele>326.0</ele><time>2026-03-29T11:12:49.999Z</time></trkpt><trkpt lat="39.15787258836834" lon="16.128555035586785"><ele>326.0</ele><time>2026-03-29T11:12:50.999Z</time></trkpt><trkpt lat="39.15799130727146" lon="16.128715704555802"><ele>326.0</ele><time>2026-03-29T11:12:51.999Z</time></trkpt><trkpt lat="39.15809488496757" lon="16.12888901157937"><ele>326.0</ele><time>2026-03-29T11:12:52.999Z</time></trkpt><trkpt lat="39.15818012064472" lon="16.129081847923818"><ele>325.33333333333337</ele><time>2026-03-29T11:12:53.999Z</time></trkpt><trkpt lat="39.15825109751867" lon="16.129288484491312"><ele>324.6666666666667</ele><time>2026-03-29T11:12:54.999Z</time></trkpt><trkpt lat="39.158305778078635" lon="16.12949592150767"><ele>324.0</ele><time>2026-03-29T11:12:55.999Z</time></trkpt><trkpt lat="39.158339550715766" lon="16.12970897647424"><ele>324.6666666666667</ele><time>2026-03-29T11:12:56.999Z</time></trkpt><trkpt lat="39.15835130226822" lon="16.129927195063587"><ele>325.33333333333337</ele><time>2026-03-29T11:12:57.999Z</time></trkpt><trkpt lat="39.15834729507398" lon="16.13014486875707"><ele>326.0</ele><time>2026-03-29T11:12:58.999Z</time></trkpt><trkpt lat="39.15832341449071" lon="16.13036298039881"><ele>326.0</ele><time>2026-03-29T11:12:59.999Z</time></trkpt><trkpt lat="39.158281415435994" lon="16.13057761380405"><ele>326.0</ele><time>2026-03-29T11:13:00.999Z</time></trkpt><trkpt lat="39.15822619310132" lon="16.13078804165109"><ele>326.0</ele><time>2026-03-29T11:13:01.999Z</time></trkpt><trkpt lat="39.15816267609722" lon="16.131000732348216"><ele>324.6666666666667</ele><time>2026-03-29T11:13:02.999Z</time></trkpt><trkpt lat="39.15809793085984" lon="16.13121895135901"><ele>323.3333333333333</ele><time>2026-03-29T11:13:03.999Z</time></trkpt><trkpt lat="39.15803338302532" lon="16.13143836546246"><ele>322.0</ele><time>2026-03-29T11:13:04.999Z</time></trkpt><trkpt lat="39.15796454837504" lon="16.131665740269554"><ele>322.0</ele><time>2026-03-29T11:13:06Z</time></trkpt><trkpt lat="39.157899474840576" lon="16.13188768556383"><ele>322.0</ele><time>2026-03-29T11:13:07Z</time></trkpt><trkpt lat="39.1578337722752" lon="16.13210920121646"><ele>322.0</ele><time>2026-03-29T11:13:08Z</time></trkpt><trkpt lat="39.15777029558895" lon="16.132329579031776"><ele>326.66666666666663</ele><time>2026-03-29T11:13:09Z</time></trkpt><trkpt lat="39.1577119267432" lon="16.13255184576973"><ele>331.3333333333333</ele><time>2026-03-29T11:13:10Z</time></trkpt><trkpt lat="39.157672017919026" lon="16.13278001678953"><ele>336.0</ele><time>2026-03-29T11:13:11Z</time></trkpt><trkpt lat="39.15765485254574" lon="16.133007481238675"><ele>338.3333333333333</ele><time>2026-03-29T11:13:12Z</time></trkpt><trkpt lat="39.15765993373541" lon="16.133231936842076"><ele>340.66666666666663</ele><time>2026-03-29T11:13:13Z</time></trkpt><trkpt lat="39.157685935290495" lon="16.13345095624683"><ele>343.0</ele><time>2026-03-29T11:13:14Z</time></trkpt><trkpt lat="39.15773222544147" lon="16.133662961362052"><ele>343.0</ele><time>2026-03-29T11:13:15Z</time></trkpt><trkpt lat="39.15779765836782" lon="16.133864990424886"><ele>343.0</ele><time>2026-03-29T11:13:16Z</time></trkpt><trkpt lat="39.15788068697958" lon="16.134055148227187"><ele>343.0</ele><time>2026-03-29T11:13:17Z</time></trkpt><trkpt lat="39.157978967381354" lon="16.13423399269829"><ele>339.0</ele><time>2026-03-29T11:13:18Z</time></trkpt><trkpt lat="39.15809342067806" lon="16.1343968304066"><ele>335.0</ele><time>2026-03-29T11:13:19Z</time></trkpt><trkpt lat="39.15821146581168" lon="16.13455589145511"><ele>331.0</ele><time>2026-03-29T11:13:20Z</time></trkpt><trkpt lat="39.158330146460116" lon="16.134715181649568"><ele>340.0</ele><time>2026-03-29T11:13:21Z</time></trkpt><trkpt lat="39.15844792528407" lon="16.1348694421974"><ele>349.0</ele><time>2026-03-29T11:13:22Z</time></trkpt><trkpt lat="39.1585706754673" lon="16.135014361491653"><ele>358.0</ele><time>2026-03-29T11:13:23Z</time></trkpt><trkpt lat="39.158697474048054" lon="16.135152576710254"><ele>358.0</ele><time>2026-03-29T11:13:24Z</time></trkpt><trkpt lat="39.15882963730919" lon="16.13528049214318"><ele>358.0</ele><time>2026-03-29T11:13:25Z</time></trkpt><trkpt lat="39.15896689199923" lon="16.135400105582747"><ele>358.0</ele><time>2026-03-29T11:13:26Z</time></trkpt><trkpt lat="39.15911032932933" lon="16.13551481099374"><ele>358.66666666666663</ele><time>2026-03-29T11:13:27Z</time></trkpt><trkpt lat="39.159263867208224" lon="16.135619391171975"><ele>359.3333333333333</ele><time>2026-03-29T11:13:28Z</time></trkpt><trkpt lat="39.15942713146542" lon="16.135711107294842"><ele>360.0</ele><time>2026-03-29T11:13:29Z</time></trkpt><trkpt lat="39.159595073055996" lon="16.13580194107404"><ele>360.0</ele><time>2026-03-29T11:13:30Z</time></trkpt><trkpt lat="39.15976600226507" lon="16.13589149114831"><ele>360.0</ele><time>2026-03-29T11:13:31Z</time></trkpt><trkpt lat="39.159938121918586" lon="16.135977273476556"><ele>360.0</ele><time>2026-03-29T11:13:32Z</time></trkpt><trkpt lat="39.16011310197725" lon="16.136056924962926"><ele>365.6666666666667</ele><time>2026-03-29T11:13:33Z</time></trkpt><trkpt lat="39.16028996142443" lon="16.136134354071018"><ele>371.33333333333337</ele><time>2026-03-29T11:13:34Z</time></trkpt><trkpt lat="39.16046589828172" lon="16.136213744930718"><ele>377.0</ele><time>2026-03-29T11:13:35Z</time></trkpt><trkpt lat="39.16064214046054" lon="16.136292367098243"><ele>383.6666666666667</ele><time>2026-03-29T11:13:36Z</time></trkpt><trkpt lat="39.16081793622081" lon="16.136375185713238"><ele>390.33333333333337</ele><time>2026-03-29T11:13:37Z</time></trkpt><trkpt lat="39.160993124898816" lon="16.13645828120696"><ele>397.0</ele><time>2026-03-29T11:13:38Z</time></trkpt><trkpt lat="39.161168445821055" lon="16.1365425415731"><ele>396.33333333333337</ele><time>2026-03-29T11:13:39Z</time></trkpt><trkpt lat="39.16134737899254" lon="16.136627057282784"><ele>395.66666666666663</ele><time>2026-03-29T11:13:40Z</time></trkpt><trkpt lat="39.161527492022955" lon="16.13671403047195"><ele>395.0</ele><time>2026-03-29T11:13:41Z</time></trkpt><trkpt lat="39.161710936031355" lon="16.136802865451113"><ele>395.0</ele><time>2026-03-29T11:13:42Z</time></trkpt><trkpt lat="39.16189828410308" lon="16.136889093317997"><ele>395.0</ele><time>2026-03-29T11:13:43Z</time></trkpt><trkpt lat="39.16208822683291" lon="16.13697263083257"><ele>395.0</ele><time>2026-03-29T11:13:44Z</time></trkpt><trkpt lat="39.16228500587014" lon="16.137037313382745"><ele>401.0</ele><time>2026-03-29T11:13:45Z</time></trkpt><trkpt lat="39.16248443898254" lon="16.13708491090062"><ele>407.0</ele><time>2026-03-29T11:13:46Z</time></trkpt><trkpt lat="39.162683880411215" lon="16.137124671446994"><ele>413.0</ele><time>2026-03-29T11:13:47Z</time></trkpt><trkpt lat="39.162882633314084" lon="16.137163034268095"><ele>413.0</ele><time>2026-03-29T11:13:48Z</time></trkpt><trkpt lat="39.16307869707089" lon="16.137198203617665"><ele>413.0</ele><time>2026-03-29T11:13:49Z</time></trkpt><trkpt lat="39.16327744169181" lon="16.137234287214014"><ele>413.0</ele><time>2026-03-29T11:13:50Z</time></trkpt><trkpt lat="39.163479767875835" lon="16.13728049353633"><ele>410.3333333333333</ele><time>2026-03-29T11:13:51Z</time></trkpt><trkpt lat="39.16368614050117" lon="16.13732363243787"><ele>407.66666666666663</ele><time>2026-03-29T11:13:52Z</time></trkpt><trkpt lat="39.16389338814976" lon="16.13736525387681"><ele>405.0</ele><time>2026-03-29T11:13:53Z</time></trkpt><trkpt lat="39.164094538726296" lon="16.137408236884077"><ele>405.0</ele><time>2026-03-29T11:13:54Z</time></trkpt><trkpt lat="39.164300195831395" lon="16.137448971565313"><ele>405.0</ele><time>2026-03-29T11:13:55Z</time></trkpt><trkpt lat="39.16450761308678" lon="16.137488252951115"><ele>405.0</ele><time>2026-03-29T11:13:56Z</time></trkpt><trkpt lat="39.16471476010172" lon="16.137521974812593"><ele>407.66666666666663</ele><time>2026-03-29T11:13:57Z</time></trkpt><trkpt lat="39.16491669168408" lon="16.137535423999612"><ele>410.3333333333333</ele><time>2026-03-29T11:13:58Z</time></trkpt><trkpt lat="39.1651153086323" lon="16.137525478151755"><ele>413.0</ele><time>2026-03-29T11:13:59Z</time></trkpt><trkpt lat="39.16531517540335" lon="16.137506387368095"><ele>413.0</ele><time>2026-03-29T11:14:00Z</time></trkpt><trkpt lat="39.165514401541664" lon="16.137481773713088"><ele>413.0</ele><time>2026-03-29T11:14:01Z</time></trkpt><trkpt lat="39.16571437189412" lon="16.13745521681118"><ele>413.0</ele><time>2026-03-29T11:14:02Z</time></trkpt><trkpt lat="39.165909077811314" lon="16.137428797270566"><ele>412.66666666666663</ele><time>2026-03-29T11:14:03Z</time></trkpt><trkpt lat="39.16609585886727" lon="16.13740796711984"><ele>412.33333333333337</ele><time>2026-03-29T11:14:04Z</time></trkpt><trkpt lat="39.166272351725226" lon="16.137398096985212"><ele>412.0</ele><time>2026-03-29T11:14:05Z</time></trkpt><trkpt lat="39.16644749814889" lon="16.137404967626072"><ele>413.33333333333337</ele><time>2026-03-29T11:14:06Z</time></trkpt><trkpt lat="39.16660747225846" lon="16.137428394970133"><ele>414.66666666666663</ele><time>2026-03-29T11:14:07Z</time></trkpt><trkpt lat="39.16675772817935" lon="16.1374485997794"><ele>416.0</ele><time>2026-03-29T11:14:08Z</time></trkpt><trkpt lat="39.16690773976958" lon="16.137468550410937"><ele>416.0</ele><time>2026-03-29T11:14:09Z</time></trkpt><trkpt lat="39.167062601418166" lon="16.137486866379568"><ele>416.0</ele><time>2026-03-29T11:14:10Z</time></trkpt><trkpt lat="39.1672214137763" lon="16.137506632558914"><ele>416.0</ele><time>2026-03-29T11:14:11Z</time></trkpt><trkpt lat="39.167385333933794" lon="16.137526701430332"><ele>420.0</ele><time>2026-03-29T11:14:12Z</time></trkpt><trkpt lat="39.167555825869265" lon="16.137540314728785"><ele>424.0</ele><time>2026-03-29T11:14:13Z</time></trkpt><trkpt lat="39.16772196458911" lon="16.13754109792763"><ele>428.0</ele><time>2026-03-29T11:14:14Z</time></trkpt><trkpt lat="39.16788081738512" lon="16.137534376424643"><ele>428.0</ele><time>2026-03-29T11:14:15Z</time></trkpt><trkpt lat="39.16803240355398" lon="16.137525885861614"><ele>428.0</ele><time>2026-03-29T11:14:16Z</time></trkpt><trkpt lat="39.16816645932783" lon="16.137515013027883"><ele>428.0</ele><time>2026-03-29T11:14:17Z</time></trkpt><trkpt lat="39.168291790940614" lon="16.137501934667583"><ele>428.0</ele><time>2026-03-29T11:14:18Z</time></trkpt><trkpt lat="39.168413522859275" lon="16.137484881057997"><ele>429.0</ele><time>2026-03-29T11:14:19Z</time></trkpt><trkpt lat="39.16852752936675" lon="16.137468374049767"><ele>429.99999999999994</ele><time>2026-03-29T11:14:20Z</time></trkpt><trkpt lat="39.1686327881834" lon="16.137463199037864"><ele>430.99999999999994</ele><time>2026-03-29T11:14:21Z</time></trkpt><trkpt lat="39.168733567676426" lon="16.13746850878388"><ele>432.0</ele><time>2026-03-29T11:14:22Z</time></trkpt><trkpt lat="39.16883648693472" lon="16.137489486817834"><ele>433.0</ele><time>2026-03-29T11:14:23Z</time></trkpt><trkpt lat="39.16893559369259" lon="16.13751923623492"><ele>433.0</ele><time>2026-03-29T11:14:24Z</time></trkpt><trkpt lat="39.169020840523544" lon="16.13750286666481"><ele>432.99999999999994</ele><time>2026-03-29T11:14:25Z</time></trkpt><trkpt lat="39.169107986258894" lon="16.137602412379536"><ele>432.99999999999994</ele><time>2026-03-29T11:14:26Z</time></trkpt><trkpt lat="39.16919857258092" lon="16.13764890254968"><ele>433.0</ele><time>2026-03-29T11:14:27Z</time></trkpt><trkpt lat="39.16929411282366" lon="16.13767434651827"><ele>433.0</ele><time>2026-03-29T11:14:28Z</time></trkpt><trkpt lat="39.16939393403443" lon="16.13767548012155"><ele>433.0</ele><time>2026-03-29T11:14:29Z</time></trkpt><trkpt lat="39.169500958303644" lon="16.137630342326606"><ele>432.99999999999994</ele><time>2026-03-29T11:14:30Z</time></trkpt><trkpt lat="39.16961336878513" lon="16.137577117882515"><ele>432.99999999999994</ele><time>2026-03-29T11:14:31Z</time></trkpt><trkpt lat="39.169718465449094" lon="16.13753487532077"><ele>433.0</ele><time>2026-03-29T11:14:32Z</time></trkpt><trkpt lat="39.169813845901146" lon="16.137528879932674"><ele>433.0</ele><time>2026-03-29T11:14:33Z</time></trkpt><trkpt lat="39.16990336288102" lon="16.137558026568"><ele>433.79999999999995</ele><time>2026-03-29T11:14:33.999Z</time></trkpt><trkpt lat="39.16997178937203" lon="16.137646416361925"><ele>434.59999999999997</ele><time>2026-03-29T11:14:34.999Z</time></trkpt><trkpt lat="39.170023936696026" lon="16.137737282220947"><ele>435.40000000000003</ele><time>2026-03-29T11:14:35.999Z</time></trkpt><trkpt lat="39.17008611877305" lon="16.137824259076712"><ele>436.20000000000005</ele><time>2026-03-29T11:14:36.999Z</time></trkpt><trkpt lat="39.17016925586407" lon="16.137924476270364"><ele>437.0</ele><time>2026-03-29T11:14:37.999Z</time></trkpt><trkpt lat="39.17028547595563" lon="16.137998867015767"><ele>437.0</ele><time>2026-03-29T11:14:38.999Z</time></trkpt><trkpt lat="39.17039872747137" lon="16.13812714667289"><ele>437.0</ele><time>2026-03-29T11:14:39.999Z</time></trkpt><trkpt lat="39.170530403920964" lon="16.138246680016223"><ele>437.0</ele><time>2026-03-29T11:14:40.999Z</time></trkpt><trkpt lat="39.1706573039466" lon="16.13836027214754"><ele>433.25</ele><time>2026-03-29T11:14:41.999Z</time></trkpt><trkpt lat="39.17078667021512" lon="16.138457086855507"><ele>429.5</ele><time>2026-03-29T11:14:42.999Z</time></trkpt><trkpt lat="39.17087801857809" lon="16.13858668620876"><ele>425.75</ele><time>2026-03-29T11:14:43.999Z</time></trkpt><trkpt lat="39.170948077938085" lon="16.13871067147337"><ele>422.0</ele><time>2026-03-29T11:14:44.999Z</time></trkpt><trkpt lat="39.171010332913745" lon="16.13883108895702"><ele>422.0</ele><time>2026-03-29T11:14:45.999Z</time></trkpt><trkpt lat="39.171089116825144" lon="16.13891815205302"><ele>422.0</ele><time>2026-03-29T11:14:46.999Z</time></trkpt><trkpt lat="39.171163166907675" lon="16.13897518920573"><ele>422.0</ele><time>2026-03-29T11:14:47.999Z</time></trkpt><trkpt lat="39.17126276198492" lon="16.138991658794204"><ele>422.0</ele><time>2026-03-29T11:14:48.999Z</time></trkpt><trkpt lat="39.17136384935942" lon="16.138972224748866"><ele>422.0</ele><time>2026-03-29T11:14:49.999Z</time></trkpt><trkpt lat="39.17145043743305" lon="16.138952762506"><ele>420.99999999999994</ele><time>2026-03-29T11:14:50.999Z</time></trkpt><trkpt lat="39.1715280113381" lon="16.13894755916362"><ele>420.0</ele><time>2026-03-29T11:14:51.999Z</time></trkpt><trkpt lat="39.171591652153374" lon="16.13900014046728"><ele>419.0</ele><time>2026-03-29T11:14:52.999Z</time></trkpt><trkpt lat="39.17164257214915" lon="16.139062650452374"><ele>418.0</ele><time>2026-03-29T11:14:53.999Z</time></trkpt><trkpt lat="39.17169171730817" lon="16.13913920476753"><ele>416.99999999999994</ele><time>2026-03-29T11:14:54.999Z</time></trkpt><trkpt lat="39.171711861819475" lon="16.139234367501267"><ele>416.0</ele><time>2026-03-29T11:14:55.999Z</time></trkpt><trkpt lat="39.171693178006976" lon="16.139335695772388"><ele>416.0</ele><time>2026-03-29T11:14:56.999Z</time></trkpt><trkpt lat="39.17164919939582" lon="16.139440339783533"><ele>416.0</ele><time>2026-03-29T11:14:57.999Z</time></trkpt><trkpt lat="39.17158553167685" lon="16.13957753801289"><ele>416.0</ele><time>2026-03-29T11:14:58.999Z</time></trkpt><trkpt lat="39.171519553130075" lon="16.13972401122204"><ele>416.0</ele><time>2026-03-29T11:14:59.999Z</time></trkpt><trkpt lat="39.171459316357044" lon="16.13985769014464"><ele>411.49999999999994</ele><time>2026-03-29T11:15:00.999Z</time></trkpt><trkpt lat="39.171406233747454" lon="16.139975367979588"><ele>407.0</ele><time>2026-03-29T11:15:01.999Z</time></trkpt><trkpt lat="39.17136870756052" lon="16.140059229711518"><ele>402.5</ele><time>2026-03-29T11:15:02.999Z</time></trkpt><trkpt lat="39.17133612016374" lon="16.140132540744588"><ele>398.0</ele><time>2026-03-29T11:15:05.999Z</time></trkpt><trkpt lat="39.1713092239917" lon="16.140220308295333"><ele>393.49999999999994</ele><time>2026-03-29T11:18:21Z</time></trkpt><trkpt lat="39.17125579088247" lon="16.14032366291486"><ele>389.0</ele><time>2026-03-29T11:18:23Z</time></trkpt><trkpt lat="39.17121250518707" lon="16.14042652407544"><ele>388.99999999999994</ele><time>2026-03-29T11:18:25Z</time></trkpt><trkpt lat="39.17116227645252" lon="16.14055125592767"><ele>389.0</ele><time>2026-03-29T11:18:27Z</time></trkpt><trkpt lat="39.171100224775046" lon="16.140695681394487"><ele>389.0</ele><time>2026-03-29T11:18:29Z</time></trkpt><trkpt lat="39.17106673755675" lon="16.140772809126833"><ele>389.0</ele><time>2026-03-29T11:18:30Z</time></trkpt><trkpt lat="39.17103417454948" lon="16.140850367553515"><ele>388.99999999999994</ele><time>2026-03-29T11:18:31Z</time></trkpt><trkpt lat="39.171002416121105" lon="16.14092798868988"><ele>389.0</ele><time>2026-03-29T11:18:32Z</time></trkpt><trkpt lat="39.1709694731346" lon="16.141006209976446"><ele>389.3333333333333</ele><time>2026-03-29T11:18:33Z</time></trkpt><trkpt lat="39.17093350347677" lon="16.14109085220416"><ele>389.66666666666663</ele><time>2026-03-29T11:18:34Z</time></trkpt><trkpt lat="39.1708952387594" lon="16.1411795641177"><ele>390.0</ele><time>2026-03-29T11:18:35Z</time></trkpt><trkpt lat="39.170855937842354" lon="16.141266073260734"><ele>390.33333333333337</ele><time>2026-03-29T11:18:36Z</time></trkpt><trkpt lat="39.17081709339031" lon="16.141354445283774"><ele>390.6666666666667</ele><time>2026-03-29T11:18:37Z</time></trkpt><trkpt lat="39.17077913446104" lon="16.14144587347014"><ele>391.0</ele><time>2026-03-29T11:18:38Z</time></trkpt><trkpt lat="39.17074083267981" lon="16.14153746072897"><ele>391.83333333333337</ele><time>2026-03-29T11:18:39Z</time></trkpt><trkpt lat="39.170700855277204" lon="16.14162812624093"><ele>392.6666666666667</ele><time>2026-03-29T11:18:39.999Z</time></trkpt><trkpt lat="39.17065874691706" lon="16.141721809793122"><ele>393.5</ele><time>2026-03-29T11:18:40.999Z</time></trkpt><trkpt lat="39.170617203280905" lon="16.14181849236775"><ele>394.33333333333337</ele><time>2026-03-29T11:18:41.999Z</time></trkpt><trkpt lat="39.170571349568625" lon="16.141908872980757"><ele>395.1666666666667</ele><time>2026-03-29T11:18:42.999Z</time></trkpt><trkpt lat="39.17051092502019" lon="16.14198103350218"><ele>396.0</ele><time>2026-03-29T11:18:43.999Z</time></trkpt><trkpt lat="39.17043978427234" lon="16.142038424117143"><ele>397.0</ele><time>2026-03-29T11:18:44.999Z</time></trkpt><trkpt lat="39.17036312174871" lon="16.14208851670598"><ele>398.0</ele><time>2026-03-29T11:18:45.999Z</time></trkpt><trkpt lat="39.17027859023924" lon="16.14212135726161"><ele>399.0</ele><time>2026-03-29T11:18:46.999Z</time></trkpt><trkpt lat="39.17019269851884" lon="16.142137127987382"><ele>400.0</ele><time>2026-03-29T11:18:47.999Z</time></trkpt><trkpt lat="39.170111170951046" lon="16.142130761220404"><ele>401.0</ele><time>2026-03-29T11:18:48.999Z</time></trkpt><trkpt lat="39.17003769969162" lon="16.142134998515065"><ele>402.0</ele><time>2026-03-29T11:18:49.999Z</time></trkpt><trkpt lat="39.169970312381714" lon="16.142171608249352"><ele>402.0</ele><time>2026-03-29T11:18:50.999Z</time></trkpt><trkpt lat="39.169913617461525" lon="16.142234696811208"><ele>402.0</ele><time>2026-03-29T11:18:51.999Z</time></trkpt><trkpt lat="39.16986923275302" lon="16.14231799615046"><ele>402.0</ele><time>2026-03-29T11:18:52.999Z</time></trkpt><trkpt lat="39.16983204200487" lon="16.14241495122081"><ele>402.0</ele><time>2026-03-29T11:18:53.999Z</time></trkpt><trkpt lat="39.169799166894514" lon="16.142521199850474"><ele>402.0</ele><time>2026-03-29T11:18:54.999Z</time></trkpt><trkpt lat="39.169767517706106" lon="16.142627240521076"><ele>402.0</ele><time>2026-03-29T11:18:55.999Z</time></trkpt><trkpt lat="39.16972173131659" lon="16.142722474385977"><ele>402.8333333333333</ele><time>2026-03-29T11:18:56.999Z</time></trkpt><trkpt lat="39.169659649942695" lon="16.14280003789648"><ele>403.66666666666663</ele><time>2026-03-29T11:18:57.999Z</time></trkpt><trkpt lat="39.16958298583536" lon="16.14285778068716"><ele>404.5</ele><time>2026-03-29T11:18:58.999Z</time></trkpt><trkpt lat="39.16949730319777" lon="16.142898536618254"><ele>405.3333333333333</ele><time>2026-03-29T11:18:59.999Z</time></trkpt><trkpt lat="39.16941148553852" lon="16.14292708201252"><ele>406.16666666666663</ele><time>2026-03-29T11:19:00.999Z</time></trkpt><trkpt lat="39.16932772395064" lon="16.142946103364512"><ele>407.0</ele><time>2026-03-29T11:19:01.999Z</time></trkpt><trkpt lat="39.169246261396474" lon="16.14296553512033"><ele>407.00000000000006</ele><time>2026-03-29T11:19:02.999Z</time></trkpt><trkpt lat="39.16917023684315" lon="16.142987337638033"><ele>407.0</ele><time>2026-03-29T11:19:03.999Z</time></trkpt><trkpt lat="39.16910142370219" lon="16.14300818582258"><ele>407.0</ele><time>2026-03-29T11:19:04.999Z</time></trkpt><trkpt lat="39.16904430553943" lon="16.14304833011592"><ele>407.0</ele><time>2026-03-29T11:19:05.999Z</time></trkpt><trkpt lat="39.16900646708957" lon="16.14311953576871"><ele>407.0</ele><time>2026-03-29T11:19:06.999Z</time></trkpt><trkpt lat="39.168995660525" lon="16.143208710826208"><ele>407.00000000000006</ele><time>2026-03-29T11:19:07.999Z</time></trkpt><trkpt lat="39.16901936736909" lon="16.143297948422102"><ele>407.0</ele><time>2026-03-29T11:19:08.999Z</time></trkpt><trkpt lat="39.16907589401355" lon="16.1433677478934"><ele>406.99999999999994</ele><time>2026-03-29T11:19:09.999Z</time></trkpt><trkpt lat="39.16915733983479" lon="16.143387663913003"><ele>407.0</ele><time>2026-03-29T11:19:10.999Z</time></trkpt><trkpt lat="39.169241342193835" lon="16.143367592021068"><ele>407.0</ele><time>2026-03-29T11:19:11.999Z</time></trkpt><trkpt lat="39.16931744320563" lon="16.14332897476376"><ele>407.0</ele><time>2026-03-29T11:19:12.999Z</time></trkpt><trkpt lat="39.16939216350661" lon="16.143286855128366"><ele>406.99999999999994</ele><time>2026-03-29T11:19:13.999Z</time></trkpt><trkpt lat="39.16946694514967" lon="16.143244200514303"><ele>407.0</ele><time>2026-03-29T11:19:14.999Z</time></trkpt><trkpt lat="39.1695454541716" lon="16.14319930188204"><ele>407.00000000000006</ele><time>2026-03-29T11:19:15.999Z</time></trkpt><trkpt lat="39.169615139446286" lon="16.143160272282717"><ele>407.0</ele><time>2026-03-29T11:19:16.999Z</time></trkpt><trkpt lat="39.169681464221526" lon="16.14313757964837"><ele>407.0</ele><time>2026-03-29T11:19:17.999Z</time></trkpt><trkpt lat="39.16974656732885" lon="16.143136767413953"><ele>407.0</ele><time>2026-03-29T11:19:18.999Z</time></trkpt><trkpt lat="39.16980914896593" lon="16.14316606313925"><ele>407.0</ele><time>2026-03-29T11:19:19.999Z</time></trkpt><trkpt lat="39.169859904391174" lon="16.14323235340141"><ele>407.00000000000006</ele><time>2026-03-29T11:19:20.999Z</time></trkpt><trkpt lat="39.16985701074539" lon="16.14333974542056"><ele>407.0</ele><time>2026-03-29T11:19:21.999Z</time></trkpt><trkpt lat="39.16981577310412" lon="16.14342139207433"><ele>410.20000000000005</ele><time>2026-03-29T11:19:22.999Z</time></trkpt><trkpt lat="39.16975091447393" lon="16.143491313631372"><ele>413.4</ele><time>2026-03-29T11:19:24Z</time></trkpt><trkpt lat="39.1696653095807" lon="16.14353797408989"><ele>416.6</ele><time>2026-03-29T11:19:25Z</time></trkpt><trkpt lat="39.16957834534805" lon="16.143607542308594"><ele>419.79999999999995</ele><time>2026-03-29T11:19:26Z</time></trkpt><trkpt lat="39.16947760046216" lon="16.143631581734514"><ele>423.0</ele><time>2026-03-29T11:19:27Z</time></trkpt><trkpt lat="39.16937991127217" lon="16.143676664904742"><ele>423.0</ele><time>2026-03-29T11:19:28Z</time></trkpt><trkpt lat="39.169287347662" lon="16.143729724364636"><ele>423.0</ele><time>2026-03-29T11:19:29Z</time></trkpt><trkpt lat="39.16921481048922" lon="16.143797394147576"><ele>423.0</ele><time>2026-03-29T11:19:30Z</time></trkpt><trkpt lat="39.16914475305493" lon="16.143848226897198"><ele>423.0</ele><time>2026-03-29T11:19:31Z</time></trkpt><trkpt lat="39.16906966134045" lon="16.143866039176608"><ele>423.0</ele><time>2026-03-29T11:19:32Z</time></trkpt><trkpt lat="39.168999872145314" lon="16.143887274903424"><ele>423.0</ele><time>2026-03-29T11:19:33Z</time></trkpt><trkpt lat="39.16893640646729" lon="16.14382687471833"><ele>423.6666666666667</ele><time>2026-03-29T11:19:34Z</time></trkpt><trkpt lat="39.16886656801161" lon="16.143785262256323"><ele>424.33333333333337</ele><time>2026-03-29T11:19:35Z</time></trkpt><trkpt lat="39.16879752757909" lon="16.143722472325166"><ele>425.0</ele><time>2026-03-29T11:19:36Z</time></trkpt><trkpt lat="39.16872776986579" lon="16.143656969109944"><ele>425.6666666666667</ele><time>2026-03-29T11:19:37Z</time></trkpt><trkpt lat="39.16865996852652" lon="16.14359871547847"><ele>426.33333333333337</ele><time>2026-03-29T11:19:38Z</time></trkpt><trkpt lat="39.168590652334515" lon="16.14356531689399"><ele>427.0</ele><time>2026-03-29T11:19:39Z</time></trkpt><trkpt lat="39.168520794164955" lon="16.143564527072506"><ele>427.0</ele><time>2026-03-29T11:19:40Z</time></trkpt><trkpt lat="39.168443139461935" lon="16.143598686615682"><ele>427.00000000000006</ele><time>2026-03-29T11:19:41Z</time></trkpt><trkpt lat="39.168378613246766" lon="16.143668918110425"><ele>427.00000000000006</ele><time>2026-03-29T11:19:42Z</time></trkpt><trkpt lat="39.168312487494276" lon="16.143757384749378"><ele>427.0</ele><time>2026-03-29T11:19:43Z</time></trkpt><trkpt lat="39.168239848130206" lon="16.14385856490515"><ele>427.0</ele><time>2026-03-29T11:19:44Z</time></trkpt><trkpt lat="39.16817653380518" lon="16.143953370722702"><ele>429.1666666666667</ele><time>2026-03-29T11:19:45Z</time></trkpt><trkpt lat="39.16811978178933" lon="16.144037902981832"><ele>431.33333333333337</ele><time>2026-03-29T11:19:46Z</time></trkpt><trkpt lat="39.16806676339859" lon="16.144120009470683"><ele>433.5</ele><time>2026-03-29T11:19:47Z</time></trkpt><trkpt lat="39.16801317387982" lon="16.144201143649966"><ele>435.66666666666663</ele><time>2026-03-29T11:19:48Z</time></trkpt><trkpt lat="39.16796182144867" lon="16.14427789785023"><ele>437.8333333333333</ele><time>2026-03-29T11:19:49Z</time></trkpt><trkpt lat="39.16791540447326" lon="16.144360324978035"><ele>440.0</ele><time>2026-03-29T11:19:50Z</time></trkpt><trkpt lat="39.16786424153198" lon="16.14443922620423"><ele>441.49999999999994</ele><time>2026-03-29T11:19:51Z</time></trkpt><trkpt lat="39.1678069608967" lon="16.144518527118418"><ele>443.0</ele><time>2026-03-29T11:19:52Z</time></trkpt><trkpt lat="39.16774538124806" lon="16.14459191490252"><ele>444.5</ele><time>2026-03-29T11:19:53Z</time></trkpt><trkpt lat="39.167677557047966" lon="16.144648638912056"><ele>446.0</ele><time>2026-03-29T11:19:54Z</time></trkpt><trkpt lat="39.16760020247226" lon="16.14468802735716"><ele>447.49999999999994</ele><time>2026-03-29T11:19:55Z</time></trkpt><trkpt lat="39.167516925848254" lon="16.144714928288522"><ele>449.0</ele><time>2026-03-29T11:19:56Z</time></trkpt><trkpt lat="39.167428959346736" lon="16.144739098379517"><ele>448.79999999999995</ele><time>2026-03-29T11:19:57Z</time></trkpt><trkpt lat="39.16733569985147" lon="16.144762212007915"><ele>448.59999999999997</ele><time>2026-03-29T11:19:58Z</time></trkpt><trkpt lat="39.16724331990774" lon="16.144782476250583"><ele>448.4</ele><time>2026-03-29T11:19:59Z</time></trkpt><trkpt lat="39.1671534778773" lon="16.144810409232527"><ele>448.2</ele><time>2026-03-29T11:20:00Z</time></trkpt><trkpt lat="39.16706531012164" lon="16.1448408427576"><ele>448.0</ele><time>2026-03-29T11:20:01Z</time></trkpt><trkpt lat="39.166981827749346" lon="16.144885095835203"><ele>447.59999999999997</ele><time>2026-03-29T11:20:02Z</time></trkpt><trkpt lat="39.166903847307495" lon="16.14495307601653"><ele>447.19999999999993</ele><time>2026-03-29T11:20:03Z</time></trkpt><trkpt lat="39.16683372513638" lon="16.145027496349964"><ele>446.8</ele><time>2026-03-29T11:20:04Z</time></trkpt><trkpt lat="39.16676876769712" lon="16.145110743649905"><ele>446.4</ele><time>2026-03-29T11:20:05Z</time></trkpt><trkpt lat="39.16670801343525" lon="16.1451912421318"><ele>446.0</ele><time>2026-03-29T11:20:06Z</time></trkpt><trkpt lat="39.16664793581913" lon="16.145274442194232"><ele>446.0</ele><time>2026-03-29T11:20:07Z</time></trkpt><trkpt lat="39.16658310413326" lon="16.145362576914238"><ele>446.0</ele><time>2026-03-29T11:20:08Z</time></trkpt><trkpt lat="39.16651709593862" lon="16.14545586709699"><ele>446.0</ele><time>2026-03-29T11:20:09Z</time></trkpt><trkpt lat="39.166453851273886" lon="16.145552072570112"><ele>446.0</ele><time>2026-03-29T11:20:10Z</time></trkpt><trkpt lat="39.166393996095586" lon="16.145649819679416"><ele>446.0</ele><time>2026-03-29T11:20:11Z</time></trkpt><trkpt lat="39.16635116471607" lon="16.145760206866626"><ele>444.99999999999994</ele><time>2026-03-29T11:20:12Z</time></trkpt><trkpt lat="39.166319117232085" lon="16.145875052050858"><ele>444.0</ele><time>2026-03-29T11:20:13Z</time></trkpt><trkpt lat="39.16629501353482" lon="16.14598769105816"><ele>443.0</ele><time>2026-03-29T11:20:14Z</time></trkpt><trkpt lat="39.166262615311624" lon="16.146090645317685"><ele>442.0</ele><time>2026-03-29T11:20:15Z</time></trkpt><trkpt lat="39.166249077954156" lon="16.146190948974958"><ele>440.99999999999994</ele><time>2026-03-29T11:20:16Z</time></trkpt><trkpt lat="39.166238517246086" lon="16.14629209999112"><ele>440.0</ele><time>2026-03-29T11:20:17Z</time></trkpt><trkpt lat="39.166231108184704" lon="16.146382793719294"><ele>440.0</ele><time>2026-03-29T11:20:18Z</time></trkpt><trkpt lat="39.16622528429267" lon="16.14647873471414"><ele>440.0</ele><time>2026-03-29T11:20:19Z</time></trkpt><trkpt lat="39.16622552002042" lon="16.146571896027314"><ele>440.0</ele><time>2026-03-29T11:20:20Z</time></trkpt><trkpt lat="39.166179193529395" lon="16.146720001007683"><ele>440.0</ele><time>2026-03-29T11:20:22Z</time></trkpt><trkpt lat="39.16618023533546" lon="16.146839429543483"><ele>440.0</ele><time>2026-03-29T11:20:24Z</time></trkpt><trkpt lat="39.166332171508934" lon="16.146875340069958"><ele>442.4</ele><time>2026-03-29T11:20:25Z</time></trkpt><trkpt lat="39.16642730851848" lon="16.14690487387049"><ele>444.8</ele><time>2026-03-29T11:20:27Z</time></trkpt><trkpt lat="39.16654824089661" lon="16.14689065640253"><ele>447.20000000000005</ele><time>2026-03-29T11:20:29Z</time></trkpt><trkpt lat="39.16661326312531" lon="16.14688637786022"><ele>449.6</ele><time>2026-03-29T11:20:30Z</time></trkpt><trkpt lat="39.166675807174364" lon="16.146876405377064"><ele>452.0</ele><time>2026-03-29T11:20:31Z</time></trkpt><trkpt lat="39.166799050265986" lon="16.146860535444393"><ele>452.14285714285717</ele><time>2026-03-29T11:20:33Z</time></trkpt><trkpt lat="39.16686614302076" lon="16.146851162077994"><ele>452.2857142857142</ele><time>2026-03-29T11:20:34Z</time></trkpt><trkpt lat="39.16693739428258" lon="16.146847779476094"><ele>452.4285714285714</ele><time>2026-03-29T11:20:35Z</time></trkpt><trkpt lat="39.167010329373646" lon="16.146837971965617"><ele>452.57142857142856</ele><time>2026-03-29T11:20:36Z</time></trkpt><trkpt lat="39.16707561762469" lon="16.146821209319857"><ele>452.71428571428567</ele><time>2026-03-29T11:20:37Z</time></trkpt><trkpt lat="39.167153485484356" lon="16.146804033415847"><ele>452.8571428571428</ele><time>2026-03-29T11:20:38Z</time></trkpt><trkpt lat="39.167226793640886" lon="16.14676246347188"><ele>452.99999999999994</ele><time>2026-03-29T11:20:39Z</time></trkpt><trkpt lat="39.16730223562665" lon="16.146705855799866"><ele>452.59999999999997</ele><time>2026-03-29T11:20:40Z</time></trkpt><trkpt lat="39.16737383230765" lon="16.14663367851178"><ele>452.19999999999993</ele><time>2026-03-29T11:20:41Z</time></trkpt><trkpt lat="39.16744578245447" lon="16.146556084991712"><ele>451.8</ele><time>2026-03-29T11:20:42Z</time></trkpt><trkpt lat="39.167514930223874" lon="16.14648168897587"><ele>451.4</ele><time>2026-03-29T11:20:43Z</time></trkpt><trkpt lat="39.16758596264048" lon="16.146407657435173"><ele>451.0</ele><time>2026-03-29T11:20:44Z</time></trkpt><trkpt lat="39.1676609957292" lon="16.14634243638206"><ele>451.0</ele><time>2026-03-29T11:20:44.999Z</time></trkpt><trkpt lat="39.16774977740598" lon="16.146288854044"><ele>451.0</ele><time>2026-03-29T11:20:45.999Z</time></trkpt><trkpt lat="39.16784663563619" lon="16.14623390504313"><ele>451.0</ele><time>2026-03-29T11:20:46.999Z</time></trkpt><trkpt lat="39.16793357886813" lon="16.1461843538104"><ele>451.0</ele><time>2026-03-29T11:20:47.999Z</time></trkpt><trkpt lat="39.16801864855972" lon="16.146141934074972"><ele>451.0</ele><time>2026-03-29T11:20:48.999Z</time></trkpt><trkpt lat="39.168099854246655" lon="16.146108182027852"><ele>451.00000000000006</ele><time>2026-03-29T11:20:49.999Z</time></trkpt><trkpt lat="39.16818425516084" lon="16.146072268603685"><ele>451.0</ele><time>2026-03-29T11:20:50.999Z</time></trkpt><trkpt lat="39.16826867598012" lon="16.146056979628423"><ele>451.0</ele><time>2026-03-29T11:20:51.999Z</time></trkpt><trkpt lat="39.16835700529631" lon="16.146069736238122"><ele>451.0</ele><time>2026-03-29T11:20:52.999Z</time></trkpt><trkpt lat="39.16844263191565" lon="16.146101809106998"><ele>451.00000000000006</ele><time>2026-03-29T11:20:53.999Z</time></trkpt><trkpt lat="39.16851690827191" lon="16.146143279480707"><ele>451.0</ele><time>2026-03-29T11:20:54.999Z</time></trkpt><trkpt lat="39.168624297854855" lon="16.146185188059494"><ele>452.1666666666667</ele><time>2026-03-29T11:20:56.999Z</time></trkpt><trkpt lat="39.16868520120112" lon="16.14621780133096"><ele>453.33333333333337</ele><time>2026-03-29T11:20:57.999Z</time></trkpt><trkpt lat="39.168763117261754" lon="16.146254300524514"><ele>454.5</ele><time>2026-03-29T11:20:59.999Z</time></trkpt><trkpt lat="39.16880836709983" lon="16.146324170254527"><ele>455.66666666666663</ele><time>2026-03-29T11:21:03.999Z</time></trkpt><trkpt lat="39.16881415108383" lon="16.146428491294884"><ele>456.8333333333333</ele><time>2026-03-29T11:21:05.999Z</time></trkpt><trkpt lat="39.168772845651745" lon="16.14651133721754"><ele>458.0</ele><time>2026-03-29T11:21:07.999Z</time></trkpt><trkpt lat="39.16868767652205" lon="16.146545848268136"><ele>457.99999999999994</ele><time>2026-03-29T11:21:09.999Z</time></trkpt><trkpt lat="39.16857799801423" lon="16.14649596093431"><ele>458.0</ele><time>2026-03-29T11:21:11.999Z</time></trkpt><trkpt lat="39.16850205374587" lon="16.146447436366678"><ele>458.0</ele><time>2026-03-29T11:21:12.999Z</time></trkpt><trkpt lat="39.16842367885051" lon="16.146411734418702"><ele>458.0</ele><time>2026-03-29T11:21:13.999Z</time></trkpt><trkpt lat="39.168339267527706" lon="16.14642031797737"><ele>457.99999999999994</ele><time>2026-03-29T11:21:14.999Z</time></trkpt><trkpt lat="39.16827412954163" lon="16.146422892650378"><ele>458.0</ele><time>2026-03-29T11:21:15.999Z</time></trkpt><trkpt lat="39.16821524385197" lon="16.146470230221748"><ele>458.8333333333333</ele><time>2026-03-29T11:21:16.999Z</time></trkpt><trkpt lat="39.16818310356569" lon="16.146546281843403"><ele>459.66666666666663</ele><time>2026-03-29T11:21:17.999Z</time></trkpt><trkpt lat="39.168154072430184" lon="16.146669279343374"><ele>460.5</ele><time>2026-03-29T11:21:19.999Z</time></trkpt><trkpt lat="39.168111767036095" lon="16.146776139626542"><ele>461.33333333333337</ele><time>2026-03-29T11:21:21.999Z</time></trkpt><trkpt lat="39.16810813560643" lon="16.146863494731466"><ele>462.1666666666667</ele><time>2026-03-29T11:21:22.999Z</time></trkpt><trkpt lat="39.168080157282226" lon="16.146954311103464"><ele>463.0</ele><time>2026-03-29T11:21:23.999Z</time></trkpt><trkpt lat="39.168049943187896" lon="16.147060004808356"><ele>463.00000000000006</ele><time>2026-03-29T11:21:24.999Z</time></trkpt><trkpt lat="39.16799834998966" lon="16.147146364813185"><ele>463.0</ele><time>2026-03-29T11:21:25.999Z</time></trkpt><trkpt lat="39.16794483585065" lon="16.147217424511048"><ele>463.0</ele><time>2026-03-29T11:21:26.999Z</time></trkpt><trkpt lat="39.167889251090486" lon="16.147288932588314"><ele>463.0</ele><time>2026-03-29T11:21:27.999Z</time></trkpt><trkpt lat="39.167842286119715" lon="16.1473738456845"><ele>463.00000000000006</ele><time>2026-03-29T11:21:28.999Z</time></trkpt><trkpt lat="39.16778669015271" lon="16.14744004522637"><ele>463.0</ele><time>2026-03-29T11:21:30Z</time></trkpt><trkpt lat="39.167735393971014" lon="16.147498970763777"><ele>464.4</ele><time>2026-03-29T11:21:31Z</time></trkpt><trkpt lat="39.167667106425306" lon="16.147579450141127"><ele>465.79999999999995</ele><time>2026-03-29T11:21:33Z</time></trkpt><trkpt lat="39.16759403145474" lon="16.14766614561513"><ele>467.2</ele><time>2026-03-29T11:21:36Z</time></trkpt><trkpt lat="39.1674929552506" lon="16.147778704660855"><ele>468.6</ele><time>2026-03-29T11:21:38Z</time></trkpt><trkpt lat="39.16743133118361" lon="16.147825019661486"><ele>470.0</ele><time>2026-03-29T11:21:39Z</time></trkpt><trkpt lat="39.16735266303551" lon="16.147914080431416"><ele>469.99999999999994</ele><time>2026-03-29T11:21:41Z</time></trkpt><trkpt lat="39.16730031894236" lon="16.148002967324945"><ele>470.0</ele><time>2026-03-29T11:21:45Z</time></trkpt><trkpt lat="39.16721332809115" lon="16.148114014038253"><ele>470.0</ele><time>2026-03-29T11:21:47Z</time></trkpt><trkpt lat="39.16716222408569" lon="16.14817307069407"><ele>470.0</ele><time>2026-03-29T11:21:48Z</time></trkpt><trkpt lat="39.16710410572564" lon="16.148204689434"><ele>469.99999999999994</ele><time>2026-03-29T11:21:49Z</time></trkpt><trkpt lat="39.16703605712687" lon="16.148309961293428"><ele>470.0</ele><time>2026-03-29T11:21:51Z</time></trkpt><trkpt lat="39.167001852122304" lon="16.14839489522724"><ele>471.16666666666663</ele><time>2026-03-29T11:21:53Z</time></trkpt><trkpt lat="39.166982981519325" lon="16.148516388037145"><ele>472.3333333333333</ele><time>2026-03-29T11:21:55Z</time></trkpt><trkpt lat="39.166969758325365" lon="16.148675399553802"><ele>473.5</ele><time>2026-03-29T11:21:57Z</time></trkpt><trkpt lat="39.166967699092716" lon="16.148765562681263"><ele>474.66666666666663</ele><time>2026-03-29T11:21:58Z</time></trkpt><trkpt lat="39.16696368207401" lon="16.148859335445454"><ele>475.8333333333333</ele><time>2026-03-29T11:21:59Z</time></trkpt><trkpt lat="39.16695629187131" lon="16.148956965981487"><ele>477.0</ele><time>2026-03-29T11:22:00Z</time></trkpt><trkpt lat="39.16694804645327" lon="16.14905821454168"><ele>477.8333333333333</ele><time>2026-03-29T11:22:01Z</time></trkpt><trkpt lat="39.16694126696886" lon="16.149157959207702"><ele>478.66666666666663</ele><time>2026-03-29T11:22:02Z</time></trkpt><trkpt lat="39.166935993459255" lon="16.149259870332"><ele>479.5</ele><time>2026-03-29T11:22:03Z</time></trkpt><trkpt lat="39.16692920301285" lon="16.149364046871405"><ele>480.3333333333333</ele><time>2026-03-29T11:22:04Z</time></trkpt><trkpt lat="39.16692305058432" lon="16.149464919039694"><ele>481.16666666666663</ele><time>2026-03-29T11:22:05Z</time></trkpt><trkpt lat="39.16691648370654" lon="16.149556839546094"><ele>482.0</ele><time>2026-03-29T11:22:06Z</time></trkpt><trkpt lat="39.166906312072825" lon="16.149689461093494"><ele>482.0</ele><time>2026-03-29T11:22:08Z</time></trkpt><trkpt lat="39.16689605903044" lon="16.14983400405841"><ele>482.00000000000006</ele><time>2026-03-29T11:22:10Z</time></trkpt><trkpt lat="39.166879964935106" lon="16.14998533064757"><ele>482.00000000000006</ele><time>2026-03-29T11:22:12Z</time></trkpt><trkpt lat="39.166872259566254" lon="16.15011608614435"><ele>482.0</ele><time>2026-03-29T11:22:14Z</time></trkpt><trkpt lat="39.16687233868701" lon="16.15021585684787"><ele>482.0</ele><time>2026-03-29T11:22:16Z</time></trkpt><trkpt lat="39.1669078329414" lon="16.150302890814032"><ele>482.99999999999994</ele><time>2026-03-29T11:22:19Z</time></trkpt><trkpt lat="39.16699001545178" lon="16.15031777757962"><ele>484.0</ele><time>2026-03-29T11:22:22Z</time></trkpt><trkpt lat="39.16706009380216" lon="16.150311312080703"><ele>485.0</ele><time>2026-03-29T11:22:25Z</time></trkpt><trkpt lat="39.16707686302163" lon="16.150461771725183"><ele>486.0</ele><time>2026-03-29T11:22:27Z</time></trkpt><trkpt lat="39.167064557695426" lon="16.150573386234193"><ele>486.99999999999994</ele><time>2026-03-29T11:22:30Z</time></trkpt><trkpt lat="39.16706257584558" lon="16.150679561822535"><ele>488.0</ele><time>2026-03-29T11:22:32Z</time></trkpt><trkpt lat="39.16704512026361" lon="16.150802784197648"><ele>488.2</ele><time>2026-03-29T11:22:34Z</time></trkpt><trkpt lat="39.16704293407179" lon="16.150927930401103"><ele>488.4</ele><time>2026-03-29T11:22:36Z</time></trkpt><trkpt lat="39.167056828918334" lon="16.151048881887906"><ele>488.59999999999997</ele><time>2026-03-29T11:22:37.999Z</time></trkpt><trkpt lat="39.1670532727403" lon="16.151162391892864"><ele>488.79999999999995</ele><time>2026-03-29T11:22:39.999Z</time></trkpt><trkpt lat="39.167051715008135" lon="16.15128804583939"><ele>489.0</ele><time>2026-03-29T11:22:41.999Z</time></trkpt><trkpt lat="39.16705328937925" lon="16.1514072846108"><ele>489.0</ele><time>2026-03-29T11:22:43.999Z</time></trkpt><trkpt lat="39.1670766816885" lon="16.151514093337003"><ele>489.0</ele><time>2026-03-29T11:22:45.999Z</time></trkpt><trkpt lat="39.1671558671202" lon="16.151592649736035"><ele>489.0</ele><time>2026-03-29T11:22:47.999Z</time></trkpt><trkpt lat="39.16727442429576" lon="16.15165528892866"><ele>489.0</ele><time>2026-03-29T11:22:49.999Z</time></trkpt><trkpt lat="39.16733431409971" lon="16.15169667005197"><ele>489.0</ele><time>2026-03-29T11:22:50.999Z</time></trkpt><trkpt lat="39.16738976482416" lon="16.151747687634593"><ele>492.0</ele><time>2026-03-29T11:22:51.999Z</time></trkpt><trkpt lat="39.16743043873072" lon="16.151818032782263"><ele>495.0</ele><time>2026-03-29T11:22:52.999Z</time></trkpt><trkpt lat="39.1674800283135" lon="16.151888986038742"><ele>498.0</ele><time>2026-03-29T11:22:53.999Z</time></trkpt><trkpt lat="39.16752809977822" lon="16.151964790829894"><ele>501.0</ele><time>2026-03-29T11:22:54.999Z</time></trkpt><trkpt lat="39.16757361699559" lon="16.152048016552854"><ele>504.0</ele><time>2026-03-29T11:22:55.999Z</time></trkpt><trkpt lat="39.16761070659319" lon="16.152143116475887"><ele>507.0</ele><time>2026-03-29T11:22:56.999Z</time></trkpt><trkpt lat="39.16764876369382" lon="16.15223427635769"><ele>507.0</ele><time>2026-03-29T11:22:57.999Z</time></trkpt><trkpt lat="39.16768252496945" lon="16.15232664708678"><ele>507.0</ele><time>2026-03-29T11:22:58.999Z</time></trkpt><trkpt lat="39.167715965339326" lon="16.1524163744581"><ele>507.0</ele><time>2026-03-29T11:22:59.999Z</time></trkpt><trkpt lat="39.16775102571827" lon="16.15250968342983"><ele>507.0</ele><time>2026-03-29T11:23:00.999Z</time></trkpt><trkpt lat="39.16778807905032" lon="16.152608865603344"><ele>507.0</ele><time>2026-03-29T11:23:01.999Z</time></trkpt><trkpt lat="39.167818773545505" lon="16.152713613281886"><ele>507.0</ele><time>2026-03-29T11:23:02.999Z</time></trkpt><trkpt lat="39.16785830798316" lon="16.152805079514064"><ele>506.5</ele><time>2026-03-29T11:23:03.999Z</time></trkpt><trkpt lat="39.16789449557689" lon="16.152896214804315"><ele>506.0</ele><time>2026-03-29T11:23:04.999Z</time></trkpt><trkpt lat="39.16792626354754" lon="16.152980673623674"><ele>505.5</ele><time>2026-03-29T11:23:05.999Z</time></trkpt><trkpt lat="39.16793024896137" lon="16.153065348319814"><ele>505.0</ele><time>2026-03-29T11:23:06.999Z</time></trkpt><trkpt lat="39.16786276956068" lon="16.153186441896732"><ele>504.5</ele><time>2026-03-29T11:23:08.999Z</time></trkpt><trkpt lat="39.167782146524615" lon="16.153229510625504"><ele>504.0</ele><time>2026-03-29T11:23:09.999Z</time></trkpt><trkpt lat="39.16771222131197" lon="16.1532733568307"><ele>501.6666666666667</ele><time>2026-03-29T11:23:10.999Z</time></trkpt><trkpt lat="39.16764111648386" lon="16.153291380013698"><ele>499.33333333333337</ele><time>2026-03-29T11:23:11.999Z</time></trkpt><trkpt lat="39.16753989915063" lon="16.153294415025524"><ele>497.0</ele><time>2026-03-29T11:23:13.999Z</time></trkpt><trkpt lat="39.16747474419596" lon="16.15327920261197"><ele>494.6666666666667</ele><time>2026-03-29T11:23:14.999Z</time></trkpt><trkpt lat="39.16739657498172" lon="16.15324654707533"><ele>492.33333333333337</ele><time>2026-03-29T11:23:15.999Z</time></trkpt><trkpt lat="39.16732293092519" lon="16.153218867103195"><ele>490.0</ele><time>2026-03-29T11:23:16.999Z</time></trkpt><trkpt lat="39.16724806540648" lon="16.15315978046618"><ele>490.00000000000006</ele><time>2026-03-29T11:23:17.999Z</time></trkpt><trkpt lat="39.1671718564909" lon="16.15310501329289"><ele>490.0</ele><time>2026-03-29T11:23:18.999Z</time></trkpt><trkpt lat="39.16710149745241" lon="16.153057942187793"><ele>490.0</ele><time>2026-03-29T11:23:19.999Z</time></trkpt><trkpt lat="39.167032859327826" lon="16.15301895006953"><ele>490.0</ele><time>2026-03-29T11:23:20.999Z</time></trkpt><trkpt lat="39.166951809812524" lon="16.152998220775665"><ele>490.00000000000006</ele><time>2026-03-29T11:23:21.999Z</time></trkpt><trkpt lat="39.16686344183298" lon="16.153005811009503"><ele>490.0</ele><time>2026-03-29T11:23:22.999Z</time></trkpt><trkpt lat="39.1667670459082" lon="16.153048429554513"><ele>490.0</ele><time>2026-03-29T11:23:23.999Z</time></trkpt><trkpt lat="39.16666217497293" lon="16.153113907701776"><ele>490.0</ele><time>2026-03-29T11:23:24.999Z</time></trkpt><trkpt lat="39.16655721384428" lon="16.153199068109338"><ele>490.0</ele><time>2026-03-29T11:23:25.999Z</time></trkpt><trkpt lat="39.16644140451954" lon="16.15328951495698"><ele>490.0</ele><time>2026-03-29T11:23:26.999Z</time></trkpt><trkpt lat="39.16631734290881" lon="16.153391553687307"><ele>493.75</ele><time>2026-03-29T11:23:27.999Z</time></trkpt><trkpt lat="39.166198343145844" lon="16.153501392335393"><ele>497.5</ele><time>2026-03-29T11:23:28.999Z</time></trkpt><trkpt lat="39.166085793517375" lon="16.153608421726467"><ele>501.25</ele><time>2026-03-29T11:23:29.999Z</time></trkpt><trkpt lat="39.16597354329075" lon="16.15370507829638"><ele>505.0</ele><time>2026-03-29T11:23:30.999Z</time></trkpt><trkpt lat="39.16585564940856" lon="16.15377263033763"><ele>505.0</ele><time>2026-03-29T11:23:31.999Z</time></trkpt><trkpt lat="39.16575056843347" lon="16.153843187555765"><ele>505.0</ele><time>2026-03-29T11:23:32.999Z</time></trkpt><trkpt lat="39.16564804209836" lon="16.153916020759887"><ele>505.0</ele><time>2026-03-29T11:23:33.999Z</time></trkpt><trkpt lat="39.16555409565259" lon="16.153986944914454"><ele>505.0</ele><time>2026-03-29T11:23:34.999Z</time></trkpt><trkpt lat="39.16545411668309" lon="16.154060030701892"><ele>510.8</ele><time>2026-03-29T11:23:35.999Z</time></trkpt><trkpt lat="39.16535394671496" lon="16.15412442674046"><ele>516.6</ele><time>2026-03-29T11:23:36.999Z</time></trkpt><trkpt lat="39.16525578229457" lon="16.154161528472933"><ele>522.4</ele><time>2026-03-29T11:23:37.999Z</time></trkpt><trkpt lat="39.16516113774825" lon="16.154182562992556"><ele>528.2</ele><time>2026-03-29T11:23:38.999Z</time></trkpt><trkpt lat="39.16505876987785" lon="16.154189729959977"><ele>534.0</ele><time>2026-03-29T11:23:39.999Z</time></trkpt><trkpt lat="39.16494814874298" lon="16.154180524184884"><ele>532.0</ele><time>2026-03-29T11:23:40.999Z</time></trkpt><trkpt lat="39.16484138699948" lon="16.15416545527497"><ele>530.0</ele><time>2026-03-29T11:23:41.999Z</time></trkpt><trkpt lat="39.16474126082434" lon="16.15415581677896"><ele>528.0</ele><time>2026-03-29T11:23:42.999Z</time></trkpt><trkpt lat="39.16464729056869" lon="16.154162179501302"><ele>526.0</ele><time>2026-03-29T11:23:43.999Z</time></trkpt><trkpt lat="39.16456228066628" lon="16.15418792151432"><ele>524.0</ele><time>2026-03-29T11:23:44.999Z</time></trkpt><trkpt lat="39.16448403926853" lon="16.15423752005311"><ele>524.0</ele><time>2026-03-29T11:23:45.999Z</time></trkpt><trkpt lat="39.16441813705382" lon="16.15430423894371"><ele>524.0</ele><time>2026-03-29T11:23:46.999Z</time></trkpt><trkpt lat="39.16436521933872" lon="16.154387325017225"><ele>524.0</ele><time>2026-03-29T11:23:47.999Z</time></trkpt><trkpt lat="39.16432553897579" lon="16.154484062377417"><ele>524.0</ele><time>2026-03-29T11:23:48.999Z</time></trkpt><trkpt lat="39.16430469517553" lon="16.154595438238342"><ele>524.0</ele><time>2026-03-29T11:23:49.999Z</time></trkpt><trkpt lat="39.164295855368074" lon="16.15470998449345"><ele>524.0</ele><time>2026-03-29T11:23:50.999Z</time></trkpt><trkpt lat="39.16429128448132" lon="16.15482441025504"><ele>526.6666666666666</ele><time>2026-03-29T11:23:51.999Z</time></trkpt><trkpt lat="39.164288960583946" lon="16.154933115634318"><ele>529.3333333333333</ele><time>2026-03-29T11:23:52.999Z</time></trkpt><trkpt lat="39.164262558477255" lon="16.155036647375418"><ele>532.0</ele><time>2026-03-29T11:23:54Z</time></trkpt><trkpt lat="39.16421427343028" lon="16.155123631361437"><ele>534.6666666666666</ele><time>2026-03-29T11:23:55Z</time></trkpt><trkpt lat="39.16415242106506" lon="16.155183006745432"><ele>537.3333333333334</ele><time>2026-03-29T11:23:56Z</time></trkpt><trkpt lat="39.16408239462242" lon="16.15521133129856"><ele>540.0</ele><time>2026-03-29T11:23:57Z</time></trkpt><trkpt lat="39.164011276991396" lon="16.15521913601998"><ele>540.8333333333334</ele><time>2026-03-29T11:23:58Z</time></trkpt><trkpt lat="39.1639318318806" lon="16.155209154283416"><ele>541.6666666666666</ele><time>2026-03-29T11:23:59Z</time></trkpt><trkpt lat="39.163851245527454" lon="16.155218591203283"><ele>542.5</ele><time>2026-03-29T11:24:00Z</time></trkpt><trkpt lat="39.16376488090092" lon="16.155231467514664"><ele>543.3333333333333</ele><time>2026-03-29T11:24:01Z</time></trkpt><trkpt lat="39.163678801044455" lon="16.155246301040297"><ele>544.1666666666666</ele><time>2026-03-29T11:24:02Z</time></trkpt><trkpt lat="39.16359564451583" lon="16.155262005714313"><ele>545.0</ele><time>2026-03-29T11:24:03Z</time></trkpt><trkpt lat="39.16351582763223" lon="16.155273437220107"><ele>545.0</ele><time>2026-03-29T11:24:04Z</time></trkpt><trkpt lat="39.16343619528377" lon="16.155283540158578"><ele>545.0</ele><time>2026-03-29T11:24:05Z</time></trkpt><trkpt lat="39.16335848450279" lon="16.155247231331153"><ele>545.0</ele><time>2026-03-29T11:24:06Z</time></trkpt><trkpt lat="39.163284755760436" lon="16.15518856409639"><ele>545.0</ele><time>2026-03-29T11:24:07Z</time></trkpt><trkpt lat="39.163210467426765" lon="16.155118927971493"><ele>545.0</ele><time>2026-03-29T11:24:07.999Z</time></trkpt><trkpt lat="39.163143012497216" lon="16.155053956528366"><ele>545.0</ele><time>2026-03-29T11:24:08.999Z</time></trkpt><trkpt lat="39.16308769032653" lon="16.155000159581206"><ele>544.3333333333333</ele><time>2026-03-29T11:24:09.999Z</time></trkpt><trkpt lat="39.16301821480658" lon="16.15493940900898"><ele>543.6666666666666</ele><time>2026-03-29T11:24:11.999Z</time></trkpt><trkpt lat="39.16293937179361" lon="16.154895894211354"><ele>543.0</ele><time>2026-03-29T11:25:27.999Z</time></trkpt><trkpt lat="39.162827240992954" lon="16.154831962152297"><ele>542.3333333333334</ele><time>2026-03-29T11:25:29.999Z</time></trkpt><trkpt lat="39.16276482880582" lon="16.154791778506386"><ele>541.6666666666667</ele><time>2026-03-29T11:25:30.999Z</time></trkpt><trkpt lat="39.162702953031406" lon="16.15473907759098"><ele>541.0</ele><time>2026-03-29T11:25:31.999Z</time></trkpt><trkpt lat="39.162642094281296" lon="16.15468775214833"><ele>541.0</ele><time>2026-03-29T11:25:32.999Z</time></trkpt><trkpt lat="39.16258652018213" lon="16.154636856452978"><ele>541.0</ele><time>2026-03-29T11:25:33.999Z</time></trkpt><trkpt lat="39.16249816733685" lon="16.154563144336546"><ele>541.0</ele><time>2026-03-29T11:25:35.999Z</time></trkpt><trkpt lat="39.162434098668754" lon="16.154529868835684"><ele>541.0</ele><time>2026-03-29T11:25:37.999Z</time></trkpt><trkpt lat="39.16236235740131" lon="16.154584860221856"><ele>541.0</ele><time>2026-03-29T11:25:40.999Z</time></trkpt><trkpt lat="39.16240926086182" lon="16.154724160940987"><ele>541.0</ele><time>2026-03-29T11:25:44.999Z</time></trkpt><trkpt lat="39.16249936115975" lon="16.154823737116974"><ele>543.5714285714287</ele><time>2026-03-29T11:25:46.999Z</time></trkpt><trkpt lat="39.16254919341268" lon="16.15487526938108"><ele>546.1428571428571</ele><time>2026-03-29T11:25:47.999Z</time></trkpt><trkpt lat="39.16261719286966" lon="16.1549142164964"><ele>548.7142857142858</ele><time>2026-03-29T11:25:48.999Z</time></trkpt><trkpt lat="39.162689847393544" lon="16.154942160756253"><ele>551.2857142857143</ele><time>2026-03-29T11:25:49.999Z</time></trkpt><trkpt lat="39.16275890301845" lon="16.15496202743867"><ele>553.8571428571429</ele><time>2026-03-29T11:25:50.999Z</time></trkpt><trkpt lat="39.16282563518557" lon="16.15498853925926"><ele>556.4285714285714</ele><time>2026-03-29T11:25:51.999Z</time></trkpt><trkpt lat="39.16289008763416" lon="16.1550317986728"><ele>559.0</ele><time>2026-03-29T11:25:52.999Z</time></trkpt><trkpt lat="39.16296220315523" lon="16.15508707802895"><ele>559.0</ele><time>2026-03-29T11:25:53.999Z</time></trkpt><trkpt lat="39.16302967292281" lon="16.15515958744758"><ele>559.0</ele><time>2026-03-29T11:25:54.999Z</time></trkpt><trkpt lat="39.163078900547646" lon="16.155242752142012"><ele>559.0</ele><time>2026-03-29T11:25:55.999Z</time></trkpt><trkpt lat="39.163123240526616" lon="16.15533268398163"><ele>559.0</ele><time>2026-03-29T11:25:56.999Z</time></trkpt><trkpt lat="39.16316543873197" lon="16.155431661777097"><ele>559.0</ele><time>2026-03-29T11:25:57.999Z</time></trkpt><trkpt lat="39.16320722446229" lon="16.155524730007375"><ele>559.0</ele><time>2026-03-29T11:25:58.999Z</time></trkpt><trkpt lat="39.16324765516269" lon="16.155614620235248"><ele>560.3333333333334</ele><time>2026-03-29T11:25:59.999Z</time></trkpt><trkpt lat="39.16329825141785" lon="16.155699261689012"><ele>561.6666666666667</ele><time>2026-03-29T11:26:00.999Z</time></trkpt><trkpt lat="39.16336717404396" lon="16.155774950670903"><ele>563.0</ele><time>2026-03-29T11:26:01.999Z</time></trkpt><trkpt lat="39.16343629752484" lon="16.15584388402237"><ele>564.3333333333334</ele><time>2026-03-29T11:26:02.999Z</time></trkpt><trkpt lat="39.163514855121306" lon="16.15590907904798"><ele>565.6666666666666</ele><time>2026-03-29T11:26:03.999Z</time></trkpt><trkpt lat="39.1635949261218" lon="16.155965613420033"><ele>567.0</ele><time>2026-03-29T11:26:04.999Z</time></trkpt><trkpt lat="39.16366652427785" lon="16.15601504219688"><ele>567.0</ele><time>2026-03-29T11:26:05.999Z</time></trkpt><trkpt lat="39.16373109854493" lon="16.156059179871082"><ele>567.0</ele><time>2026-03-29T11:26:06.999Z</time></trkpt><trkpt lat="39.16379524128744" lon="16.15607503366582"><ele>567.0</ele><time>2026-03-29T11:26:07.999Z</time></trkpt><trkpt lat="39.163860886003924" lon="16.15612668276851"><ele>567.0</ele><time>2026-03-29T11:26:09.999Z</time></trkpt><trkpt lat="39.16394861561839" lon="16.15596920008641"><ele>567.0</ele><time>2026-03-29T11:26:10.999Z</time></trkpt><trkpt lat="39.164048444460526" lon="16.15587019898222"><ele>565.5</ele><time>2026-03-29T11:26:12.999Z</time></trkpt><trkpt lat="39.164113523339104" lon="16.15582413677234"><ele>564.0</ele><time>2026-03-29T11:26:13.999Z</time></trkpt><trkpt lat="39.164186570312786" lon="16.155779454401358"><ele>562.5</ele><time>2026-03-29T11:26:14.999Z</time></trkpt><trkpt lat="39.1642669387395" lon="16.155735712915227"><ele>561.0</ele><time>2026-03-29T11:26:15.999Z</time></trkpt><trkpt lat="39.16435463718894" lon="16.1556928650032"><ele>559.5</ele><time>2026-03-29T11:26:16.999Z</time></trkpt><trkpt lat="39.16445030312261" lon="16.155645995097018"><ele>558.0</ele><time>2026-03-29T11:26:17.999Z</time></trkpt><trkpt lat="39.164552019998126" lon="16.155595805622603"><ele>555.75</ele><time>2026-03-29T11:26:18.999Z</time></trkpt><trkpt lat="39.164657639581414" lon="16.155544237937736"><ele>553.5</ele><time>2026-03-29T11:26:19.999Z</time></trkpt><trkpt lat="39.16476681459109" lon="16.15548989683882"><ele>551.25</ele><time>2026-03-29T11:26:20.999Z</time></trkpt><trkpt lat="39.16487940561665" lon="16.155432772205764"><ele>549.0</ele><time>2026-03-29T11:26:21.999Z</time></trkpt><trkpt lat="39.16499516838815" lon="16.155374768048972"><ele>549.0</ele><time>2026-03-29T11:26:22.999Z</time></trkpt><trkpt lat="39.165114189494005" lon="16.155314202803893"><ele>549.0</ele><time>2026-03-29T11:26:23.999Z</time></trkpt><trkpt lat="39.16523661760872" lon="16.155251375610888"><ele>549.0</ele><time>2026-03-29T11:26:24.999Z</time></trkpt><trkpt lat="39.165363205030594" lon="16.155187552863882"><ele>549.0</ele><time>2026-03-29T11:26:25.999Z</time></trkpt><trkpt lat="39.16549100300126" lon="16.155124272296938"><ele>549.0</ele><time>2026-03-29T11:26:26.999Z</time></trkpt><trkpt lat="39.165618568887645" lon="16.15506017219172"><ele>549.0</ele><time>2026-03-29T11:26:27.999Z</time></trkpt><trkpt lat="39.165747204868154" lon="16.155000009731385"><ele>549.0</ele><time>2026-03-29T11:26:28.999Z</time></trkpt><trkpt lat="39.165875609911566" lon="16.15493866757179"><ele>549.0</ele><time>2026-03-29T11:26:29.999Z</time></trkpt><trkpt lat="39.16600480926399" lon="16.154876804436572"><ele>544.5</ele><time>2026-03-29T11:26:30.999Z</time></trkpt><trkpt lat="39.1661315904348" lon="16.154812960551553"><ele>540.0</ele><time>2026-03-29T11:26:31.999Z</time></trkpt><trkpt lat="39.16625867127479" lon="16.154749093207105"><ele>535.5</ele><time>2026-03-29T11:26:32.999Z</time></trkpt><trkpt lat="39.16638633682582" lon="16.154684299577042"><ele>531.0</ele><time>2026-03-29T11:26:33.999Z</time></trkpt><trkpt lat="39.16651355300099" lon="16.15461201488426"><ele>532.75</ele><time>2026-03-29T11:26:34.999Z</time></trkpt><trkpt lat="39.16663853285408" lon="16.154532316971533"><ele>534.5</ele><time>2026-03-29T11:26:35.999Z</time></trkpt><trkpt lat="39.16676065396963" lon="16.154442812403943"><ele>536.25</ele><time>2026-03-29T11:26:36.999Z</time></trkpt><trkpt lat="39.16687953109842" lon="16.154343352632704"><ele>538.0</ele><time>2026-03-29T11:26:37.999Z</time></trkpt><trkpt lat="39.16699496026834" lon="16.154234168724628"><ele>538.0</ele><time>2026-03-29T11:26:38.999Z</time></trkpt><trkpt lat="39.16710929028091" lon="16.15411822685196"><ele>538.0</ele><time>2026-03-29T11:26:39.999Z</time></trkpt><trkpt lat="39.16722006296603" lon="16.15399343576802"><ele>538.0</ele><time>2026-03-29T11:26:40.999Z</time></trkpt><trkpt lat="39.167325590079564" lon="16.153862999930393"><ele>538.0</ele><time>2026-03-29T11:26:41.999Z</time></trkpt><trkpt lat="39.16742663315827" lon="16.1537270653677"><ele>532.6666666666667</ele><time>2026-03-29T11:26:42.999Z</time></trkpt><trkpt lat="39.16752021463475" lon="16.15358265726056"><ele>527.3333333333334</ele><time>2026-03-29T11:26:43.999Z</time></trkpt><trkpt lat="39.16760905908353" lon="16.15342464500761"><ele>522.0</ele><time>2026-03-29T11:26:44.999Z</time></trkpt><trkpt lat="39.16768983741172" lon="16.153254892812505"><ele>516.0</ele><time>2026-03-29T11:26:45.999Z</time></trkpt><trkpt lat="39.16776454847696" lon="16.153078984206417"><ele>510.0</ele><time>2026-03-29T11:26:46.999Z</time></trkpt><trkpt lat="39.16783666632208" lon="16.152896332739868"><ele>504.0</ele><time>2026-03-29T11:26:47.999Z</time></trkpt><trkpt lat="39.16790312703864" lon="16.152702823251953"><ele>504.0</ele><time>2026-03-29T11:26:48.999Z</time></trkpt><trkpt lat="39.167964412452925" lon="16.152502888592696"><ele>504.0</ele><time>2026-03-29T11:26:49.999Z</time></trkpt><trkpt lat="39.16802364842717" lon="16.152297346621676"><ele>504.0</ele><time>2026-03-29T11:26:50.999Z</time></trkpt><trkpt lat="39.168082940706796" lon="16.152088668723366"><ele>505.0</ele><time>2026-03-29T11:26:51.999Z</time></trkpt><trkpt lat="39.16814064749225" lon="16.151881822766672"><ele>506.0</ele><time>2026-03-29T11:26:52.999Z</time></trkpt><trkpt lat="39.16819786341581" lon="16.15167601337365"><ele>507.0</ele><time>2026-03-29T11:26:53.999Z</time></trkpt><trkpt lat="39.16825786198393" lon="16.15147099175398"><ele>514.0</ele><time>2026-03-29T11:26:54.999Z</time></trkpt><trkpt lat="39.16831716874495" lon="16.15126427001862"><ele>521.0</ele><time>2026-03-29T11:26:55.999Z</time></trkpt><trkpt lat="39.1683762699223" lon="16.151059655328073"><ele>528.0</ele><time>2026-03-29T11:26:56.999Z</time></trkpt><trkpt lat="39.16843555854548" lon="16.150856281320095"><ele>525.0</ele><time>2026-03-29T11:26:57.999Z</time></trkpt><trkpt lat="39.16849230481809" lon="16.15065411014253"><ele>522.0</ele><time>2026-03-29T11:26:58.999Z</time></trkpt><trkpt lat="39.1685474368103" lon="16.150453884657836"><ele>519.0</ele><time>2026-03-29T11:26:59.999Z</time></trkpt><trkpt lat="39.16859921294469" lon="16.150256451180944"><ele>519.0</ele><time>2026-03-29T11:27:00.999Z</time></trkpt><trkpt lat="39.16865385172606" lon="16.15006415788825"><ele>519.0</ele><time>2026-03-29T11:27:01.999Z</time></trkpt><trkpt lat="39.168709550809" lon="16.149878534640873"><ele>519.0</ele><time>2026-03-29T11:27:02.999Z</time></trkpt><trkpt lat="39.16876458486751" lon="16.149697510732413"><ele>518.25</ele><time>2026-03-29T11:27:03.999Z</time></trkpt><trkpt lat="39.168819200882986" lon="16.14952027773354"><ele>517.5</ele><time>2026-03-29T11:27:04.999Z</time></trkpt><trkpt lat="39.1688720386906" lon="16.149346167995407"><ele>516.75</ele><time>2026-03-29T11:27:05.999Z</time></trkpt><trkpt lat="39.1689260928809" lon="16.149175325971182"><ele>516.0</ele><time>2026-03-29T11:27:06.999Z</time></trkpt><trkpt lat="39.16898372267726" lon="16.149005420252458"><ele>521.25</ele><time>2026-03-29T11:27:07.999Z</time></trkpt><trkpt lat="39.169045748257325" lon="16.148839880736098"><ele>526.5</ele><time>2026-03-29T11:27:08.999Z</time></trkpt><trkpt lat="39.1691143315169" lon="16.148678106905486"><ele>531.75</ele><time>2026-03-29T11:27:09.999Z</time></trkpt><trkpt lat="39.169190103177414" lon="16.148522468914113"><ele>537.0</ele><time>2026-03-29T11:27:10.999Z</time></trkpt><trkpt lat="39.16927077859805" lon="16.148372419585108"><ele>537.0</ele><time>2026-03-29T11:27:11.999Z</time></trkpt><trkpt lat="39.16936028507461" lon="16.148228507593732"><ele>537.0</ele><time>2026-03-29T11:27:12.999Z</time></trkpt><trkpt lat="39.16945410639079" lon="16.14809273701801"><ele>537.0</ele><time>2026-03-29T11:27:13.999Z</time></trkpt><trkpt lat="39.16955142489111" lon="16.147963879929478"><ele>537.0</ele><time>2026-03-29T11:27:14.999Z</time></trkpt><trkpt lat="39.169653209449116" lon="16.147844465073888"><ele>536.75</ele><time>2026-03-29T11:27:15.999Z</time></trkpt><trkpt lat="39.16975741910297" lon="16.147732319424318"><ele>536.5</ele><time>2026-03-29T11:27:16.999Z</time></trkpt><trkpt lat="39.169863138450324" lon="16.14762256949772"><ele>536.25</ele><time>2026-03-29T11:27:17.999Z</time></trkpt><trkpt lat="39.16997293826742" lon="16.14752066812939"><ele>536.0</ele><time>2026-03-29T11:27:18.999Z</time></trkpt><trkpt lat="39.17008430954758" lon="16.14742172471513"><ele>530.0</ele><time>2026-03-29T11:27:19.999Z</time></trkpt><trkpt lat="39.170194474494394" lon="16.147322139125766"><ele>524.0</ele><time>2026-03-29T11:27:20.999Z</time></trkpt><trkpt lat="39.170305434996195" lon="16.14722319132456"><ele>518.0</ele><time>2026-03-29T11:27:21.999Z</time></trkpt><trkpt lat="39.17041699182318" lon="16.147124461854258"><ele>512.0</ele><time>2026-03-29T11:27:22.999Z</time></trkpt><trkpt lat="39.17053067089244" lon="16.14702835089153"><ele>512.0</ele><time>2026-03-29T11:27:23.999Z</time></trkpt><trkpt lat="39.170646044648684" lon="16.146933834607317"><ele>512.0</ele><time>2026-03-29T11:27:24.999Z</time></trkpt><trkpt lat="39.17076229129806" lon="16.146839632075523"><ele>512.0</ele><time>2026-03-29T11:27:25.999Z</time></trkpt><trkpt lat="39.17088501117385" lon="16.146754152538552"><ele>512.0</ele><time>2026-03-29T11:27:26.999Z</time></trkpt><trkpt lat="39.17101303392577" lon="16.146677112190268"><ele>510.75</ele><time>2026-03-29T11:27:27.999Z</time></trkpt><trkpt lat="39.17114437245787" lon="16.146604606529767"><ele>509.5</ele><time>2026-03-29T11:27:28.999Z</time></trkpt><trkpt lat="39.17127856462488" lon="16.14653246887601"><ele>508.25</ele><time>2026-03-29T11:27:29.999Z</time></trkpt><trkpt lat="39.17141630881407" lon="16.146464925320306"><ele>507.0</ele><time>2026-03-29T11:27:30.999Z</time></trkpt><trkpt lat="39.171558771715624" lon="16.14640775935255"><ele>510.0</ele><time>2026-03-29T11:27:31.999Z</time></trkpt><trkpt lat="39.17170014761831" lon="16.14635568953183"><ele>513.0</ele><time>2026-03-29T11:27:32.999Z</time></trkpt><trkpt lat="39.1718286171466" lon="16.146316049727442"><ele>516.0</ele><time>2026-03-29T11:27:33.999Z</time></trkpt><trkpt lat="39.17194840857254" lon="16.146280096308583"><ele>519.0</ele><time>2026-03-29T11:27:34.999Z</time></trkpt><trkpt lat="39.172068842165245" lon="16.146250564350787"><ele>519.0</ele><time>2026-03-29T11:27:35.999Z</time></trkpt><trkpt lat="39.17219282347102" lon="16.146227173879115"><ele>519.0</ele><time>2026-03-29T11:27:36.999Z</time></trkpt><trkpt lat="39.17231921133422" lon="16.14621009686541"><ele>519.0</ele><time>2026-03-29T11:27:37.999Z</time></trkpt><trkpt lat="39.17244751995387" lon="16.146190063313657"><ele>519.0</ele><time>2026-03-29T11:27:38.999Z</time></trkpt><trkpt lat="39.172578528103536" lon="16.14617086707474"><ele>517.5</ele><time>2026-03-29T11:27:39.999Z</time></trkpt><trkpt lat="39.17271195101548" lon="16.146149979464063"><ele>516.0</ele><time>2026-03-29T11:27:40.999Z</time></trkpt><trkpt lat="39.17284512189779" lon="16.146128516847494"><ele>514.5</ele><time>2026-03-29T11:27:41.999Z</time></trkpt><trkpt lat="39.17298206537541" lon="16.14610755607195"><ele>513.0</ele><time>2026-03-29T11:27:42.999Z</time></trkpt><trkpt lat="39.17311858332159" lon="16.146083101354566"><ele>511.25</ele><time>2026-03-29T11:27:43.999Z</time></trkpt><trkpt lat="39.173250733442714" lon="16.146054869491287"><ele>509.5</ele><time>2026-03-29T11:27:44.999Z</time></trkpt><trkpt lat="39.173383466938965" lon="16.1460223418272"><ele>507.75</ele><time>2026-03-29T11:27:45.999Z</time></trkpt><trkpt lat="39.17351452330128" lon="16.145980748736992"><ele>506.0</ele><time>2026-03-29T11:27:46.999Z</time></trkpt><trkpt lat="39.17364449311465" lon="16.14592705927835"><ele>506.0</ele><time>2026-03-29T11:27:47.999Z</time></trkpt><trkpt lat="39.17377342857308" lon="16.145860958648818"><ele>506.0</ele><time>2026-03-29T11:27:48.999Z</time></trkpt><trkpt lat="39.1739000139976" lon="16.1457823693014"><ele>506.0</ele><time>2026-03-29T11:27:49.999Z</time></trkpt><trkpt lat="39.17402431291991" lon="16.14568507566536"><ele>506.0</ele><time>2026-03-29T11:27:50.999Z</time></trkpt><trkpt lat="39.17414458901188" lon="16.145568208794245"><ele>503.0</ele><time>2026-03-29T11:27:51.999Z</time></trkpt><trkpt lat="39.17426381398151" lon="16.14544576301057"><ele>500.0</ele><time>2026-03-29T11:27:52.999Z</time></trkpt><trkpt lat="39.17438202086647" lon="16.14531928433977"><ele>497.0</ele><time>2026-03-29T11:27:53.999Z</time></trkpt><trkpt lat="39.174497771174664" lon="16.14518190567646"><ele>497.0</ele><time>2026-03-29T11:27:54.999Z</time></trkpt><trkpt lat="39.174615952196156" lon="16.145043393992882"><ele>497.0</ele><time>2026-03-29T11:27:55.999Z</time></trkpt><trkpt lat="39.17473628193388" lon="16.14490434151249"><ele>497.0</ele><time>2026-03-29T11:27:56.999Z</time></trkpt><trkpt lat="39.174854676020985" lon="16.144765947527112"><ele>494.0</ele><time>2026-03-29T11:27:57.999Z</time></trkpt><trkpt lat="39.17497850512265" lon="16.144626372271652"><ele>491.0</ele><time>2026-03-29T11:27:58.999Z</time></trkpt><trkpt lat="39.1751021829421" lon="16.14448502172893"><ele>488.0</ele><time>2026-03-29T11:27:59.999Z</time></trkpt><trkpt lat="39.17521856019709" lon="16.144331322558845"><ele>488.0</ele><time>2026-03-29T11:28:00.999Z</time></trkpt><trkpt lat="39.17532772656209" lon="16.144167871710604"><ele>488.0</ele><time>2026-03-29T11:28:01.999Z</time></trkpt><trkpt lat="39.175424710211736" lon="16.143993598476065"><ele>488.0</ele><time>2026-03-29T11:28:02.999Z</time></trkpt><trkpt lat="39.17550746434673" lon="16.14380769396519"><ele>478.0</ele><time>2026-03-29T11:28:03.999Z</time></trkpt><trkpt lat="39.17558042183044" lon="16.143612793251847"><ele>468.0</ele><time>2026-03-29T11:28:04.999Z</time></trkpt><trkpt lat="39.17563566961427" lon="16.14340805346908"><ele>458.0</ele><time>2026-03-29T11:28:05.999Z</time></trkpt><trkpt lat="39.17567683057747" lon="16.143195145204"><ele>458.0</ele><time>2026-03-29T11:28:06.999Z</time></trkpt><trkpt lat="39.175700387639026" lon="16.142978833448403"><ele>458.0</ele><time>2026-03-29T11:28:07.999Z</time></trkpt><trkpt lat="39.175711101570464" lon="16.142760515994187"><ele>458.0</ele><time>2026-03-29T11:28:08.999Z</time></trkpt><trkpt lat="39.17570534715286" lon="16.142540338651997"><ele>458.0</ele><time>2026-03-29T11:28:09.999Z</time></trkpt><trkpt lat="39.17568169808674" lon="16.14232165554734"><ele>458.0</ele><time>2026-03-29T11:28:10.999Z</time></trkpt><trkpt lat="39.17564044760809" lon="16.142105167034824"><ele>458.0</ele><time>2026-03-29T11:28:11.999Z</time></trkpt><trkpt lat="39.175586233582145" lon="16.141893119512766"><ele>458.0</ele><time>2026-03-29T11:28:13Z</time></trkpt><trkpt lat="39.175515354479934" lon="16.1416886733794"><ele>458.0</ele><time>2026-03-29T11:28:14Z</time></trkpt><trkpt lat="39.17542783677697" lon="16.141493776196047"><ele>458.0</ele><time>2026-03-29T11:28:15Z</time></trkpt><trkpt lat="39.17532760428964" lon="16.141307852380795"><ele>464.0</ele><time>2026-03-29T11:28:16Z</time></trkpt><trkpt lat="39.17521443242785" lon="16.14113397314486"><ele>470.0</ele><time>2026-03-29T11:28:17Z</time></trkpt><trkpt lat="39.17508576297241" lon="16.1409771633142"><ele>476.0</ele><time>2026-03-29T11:28:18Z</time></trkpt><trkpt lat="39.17494394877757" lon="16.14083664069147"><ele>474.3333333333333</ele><time>2026-03-29T11:28:19Z</time></trkpt><trkpt lat="39.17479057210282" lon="16.14071654749633"><ele>472.66666666666663</ele><time>2026-03-29T11:28:20Z</time></trkpt><trkpt lat="39.17463423031682" lon="16.140603757506437"><ele>471.0</ele><time>2026-03-29T11:28:21Z</time></trkpt><trkpt lat="39.17447392708935" lon="16.140491128192707"><ele>468.66666666666663</ele><time>2026-03-29T11:28:22Z</time></trkpt><trkpt lat="39.17431446665297" lon="16.140375683275987"><ele>466.3333333333333</ele><time>2026-03-29T11:28:23Z</time></trkpt><trkpt lat="39.17415555055331" lon="16.140261493790867"><ele>464.0</ele><time>2026-03-29T11:28:24Z</time></trkpt><trkpt lat="39.17399843142918" lon="16.140146969680174"><ele>464.0</ele><time>2026-03-29T11:28:25Z</time></trkpt><trkpt lat="39.17384777647522" lon="16.140027961439234"><ele>464.0</ele><time>2026-03-29T11:28:26Z</time></trkpt><trkpt lat="39.173711767855416" lon="16.139891190588237"><ele>464.0</ele><time>2026-03-29T11:28:27Z</time></trkpt><trkpt lat="39.173588246705194" lon="16.139731002543133"><ele>466.66666666666663</ele><time>2026-03-29T11:28:28Z</time></trkpt><trkpt lat="39.17348400349794" lon="16.13954599672407"><ele>469.33333333333337</ele><time>2026-03-29T11:28:29Z</time></trkpt><trkpt lat="39.17337276327882" lon="16.13935796468824"><ele>472.0</ele><time>2026-03-29T11:28:30Z</time></trkpt><trkpt lat="39.173270054477946" lon="16.13916052404998"><ele>465.0</ele><time>2026-03-29T11:28:31Z</time></trkpt><trkpt lat="39.17316559396368" lon="16.138966663578277"><ele>458.0</ele><time>2026-03-29T11:28:32Z</time></trkpt><trkpt lat="39.173064920862686" lon="16.13877124461846"><ele>451.0</ele><time>2026-03-29T11:28:33Z</time></trkpt><trkpt lat="39.17296592631222" lon="16.138581886600104"><ele>451.0</ele><time>2026-03-29T11:28:34Z</time></trkpt><trkpt lat="39.172863586465404" lon="16.138399598971855"><ele>451.0</ele><time>2026-03-29T11:28:35Z</time></trkpt><trkpt lat="39.17275252296386" lon="16.138227177563724"><ele>451.0</ele><time>2026-03-29T11:28:36Z</time></trkpt><trkpt lat="39.17263460862718" lon="16.138061657969516"><ele>453.6666666666667</ele><time>2026-03-29T11:28:37Z</time></trkpt><trkpt lat="39.172507560564334" lon="16.137907315958763"><ele>456.33333333333337</ele><time>2026-03-29T11:28:38Z</time></trkpt><trkpt lat="39.17236836554539" lon="16.137771666082035"><ele>459.0</ele><time>2026-03-29T11:28:39Z</time></trkpt><trkpt lat="39.172222073364566" lon="16.13765977038924"><ele>459.0</ele><time>2026-03-29T11:28:40Z</time></trkpt><trkpt lat="39.17206980880835" lon="16.13757567259112"><ele>459.0</ele><time>2026-03-29T11:28:40.999Z</time></trkpt><trkpt lat="39.171916481574556" lon="16.13751040870214"><ele>459.0</ele><time>2026-03-29T11:28:41.999Z</time></trkpt><trkpt lat="39.17176023662024" lon="16.137468244919184"><ele>459.0</ele><time>2026-03-29T11:28:42.999Z</time></trkpt><trkpt lat="39.171602654643486" lon="16.1374386541206"><ele>459.0</ele><time>2026-03-29T11:28:43.999Z</time></trkpt><trkpt lat="39.17143569084296" lon="16.13742421810586"><ele>459.0</ele><time>2026-03-29T11:28:44.999Z</time></trkpt><trkpt lat="39.1712617710263" lon="16.13742188203437"><ele>456.0</ele><time>2026-03-29T11:28:45.999Z</time></trkpt><trkpt lat="39.17108107576761" lon="16.137420173002795"><ele>453.0</ele><time>2026-03-29T11:28:46.999Z</time></trkpt><trkpt lat="39.1708959680996" lon="16.13741698791067"><ele>450.0</ele><time>2026-03-29T11:28:47.999Z</time></trkpt><trkpt lat="39.170710264970815" lon="16.137413812431852"><ele>445.66666666666663</ele><time>2026-03-29T11:28:48.999Z</time></trkpt><trkpt lat="39.170527691271836" lon="16.137405285455433"><ele>441.3333333333333</ele><time>2026-03-29T11:28:49.999Z</time></trkpt><trkpt lat="39.17032572319607" lon="16.1373833438858"><ele>437.0</ele><time>2026-03-29T11:28:50.999Z</time></trkpt><trkpt lat="39.17013362028178" lon="16.13738709725276"><ele>448.0</ele><time>2026-03-29T11:28:51.999Z</time></trkpt><trkpt lat="39.169955802567095" lon="16.137380272870153"><ele>459.0</ele><time>2026-03-29T11:28:52.999Z</time></trkpt><trkpt lat="39.16980741912305" lon="16.137378170402645"><ele>470.0</ele><time>2026-03-29T11:28:53.999Z</time></trkpt><trkpt lat="39.16967085058338" lon="16.13737758453896"><ele>470.2</ele><time>2026-03-29T11:28:54.999Z</time></trkpt><trkpt lat="39.169563459183884" lon="16.137374933270973"><ele>470.4</ele><time>2026-03-29T11:28:55.999Z</time></trkpt><trkpt lat="39.169470079982815" lon="16.137375694167453"><ele>470.6</ele><time>2026-03-29T11:28:56.999Z</time></trkpt><trkpt lat="39.16937682542952" lon="16.137370818824085"><ele>470.8</ele><time>2026-03-29T11:28:57.999Z</time></trkpt><trkpt lat="39.16928845334719" lon="16.13736315927502"><ele>471.0</ele><time>2026-03-29T11:28:58.999Z</time></trkpt><trkpt lat="39.169211854023224" lon="16.137352251478262"><ele>471.0</ele><time>2026-03-29T11:28:59.999Z</time></trkpt><trkpt lat="39.16912150492966" lon="16.137325878137975"><ele>471.0</ele><time>2026-03-29T11:29:01.999Z</time></trkpt><trkpt lat="39.169056631527354" lon="16.137318900689962"><ele>471.0</ele><time>2026-03-29T11:29:04.999Z</time></trkpt></trkseg><trkseg><trkpt lat="39.16897892568072" lon="16.13737332691778"><ele>461.0</ele><time>2026-03-29T11:54:40.999Z</time></trkpt><trkpt lat="39.16888568000709" lon="16.137388138727484"><ele>453.99999999999994</ele><time>2026-03-29T11:54:42.999Z</time></trkpt><trkpt lat="39.168770686164876" lon="16.137401766354884"><ele>446.99999999999994</ele><time>2026-03-29T11:54:44.999Z</time></trkpt><trkpt lat="39.16865159562591" lon="16.137408571534838"><ele>440.0</ele><time>2026-03-29T11:54:46.999Z</time></trkpt><trkpt lat="39.16858500379935" lon="16.13741493306126"><ele>433.0</ele><time>2026-03-29T11:54:47.999Z</time></trkpt><trkpt lat="39.168519459962745" lon="16.137421441457008"><ele>432.99999999999994</ele><time>2026-03-29T11:54:48.999Z</time></trkpt><trkpt lat="39.16845381418028" lon="16.13743190649903"><ele>433.0</ele><time>2026-03-29T11:54:49.999Z</time></trkpt><trkpt lat="39.16838526644661" lon="16.13744055011744"><ele>433.0</ele><time>2026-03-29T11:54:50.999Z</time></trkpt><trkpt lat="39.168313112721556" lon="16.137449564018613"><ele>433.0</ele><time>2026-03-29T11:54:51.999Z</time></trkpt><trkpt lat="39.16823418668006" lon="16.13745909831431"><ele>433.0</ele><time>2026-03-29T11:54:52.999Z</time></trkpt><trkpt lat="39.16815532869835" lon="16.1374667412795"><ele>432.99999999999994</ele><time>2026-03-29T11:54:53.999Z</time></trkpt><trkpt lat="39.16807628219714" lon="16.137474893527322"><ele>433.0</ele><time>2026-03-29T11:54:54.999Z</time></trkpt><trkpt lat="39.16799445147404" lon="16.137479243698973"><ele>432.0</ele><time>2026-03-29T11:54:55.999Z</time></trkpt><trkpt lat="39.16791194182521" lon="16.137483768643506"><ele>430.99999999999994</ele><time>2026-03-29T11:54:56.999Z</time></trkpt><trkpt lat="39.167824104217864" lon="16.137485095155167"><ele>429.99999999999994</ele><time>2026-03-29T11:54:57.999Z</time></trkpt><trkpt lat="39.167729157734264" lon="16.13748935845343"><ele>429.0</ele><time>2026-03-29T11:54:58.999Z</time></trkpt><trkpt lat="39.16762792054639" lon="16.13749321709021"><ele>428.0</ele><time>2026-03-29T11:54:59.999Z</time></trkpt><trkpt lat="39.16752275456382" lon="16.137488068235648"><ele>428.0</ele><time>2026-03-29T11:55:00.999Z</time></trkpt><trkpt lat="39.16741486087705" lon="16.137482494780414"><ele>427.99999999999994</ele><time>2026-03-29T11:55:01.999Z</time></trkpt><trkpt lat="39.16730375142217" lon="16.137470037087027"><ele>427.99999999999994</ele><time>2026-03-29T11:55:03Z</time></trkpt><trkpt lat="39.16719287178643" lon="16.13745200408475"><ele>428.0</ele><time>2026-03-29T11:55:04Z</time></trkpt><trkpt lat="39.16707804536382" lon="16.13743221672072"><ele>428.0</ele><time>2026-03-29T11:55:05Z</time></trkpt><trkpt lat="39.166962083203295" lon="16.137416017302222"><ele>425.0</ele><time>2026-03-29T11:55:06Z</time></trkpt><trkpt lat="39.166846048151804" lon="16.13740240301381"><ele>422.0</ele><time>2026-03-29T11:55:07Z</time></trkpt><trkpt lat="39.16671472817177" lon="16.137390502703767"><ele>419.0</ele><time>2026-03-29T11:55:08Z</time></trkpt><trkpt lat="39.1666038105257" lon="16.13735293285876"><ele>416.0</ele><time>2026-03-29T11:55:09Z</time></trkpt><trkpt lat="39.166492217167345" lon="16.137350525588353"><ele>422.0</ele><time>2026-03-29T11:55:10Z</time></trkpt><trkpt lat="39.166375901518954" lon="16.137340755380535"><ele>428.0</ele><time>2026-03-29T11:55:11Z</time></trkpt><trkpt lat="39.166256528259126" lon="16.13733643775273"><ele>434.0</ele><time>2026-03-29T11:55:12Z</time></trkpt><trkpt lat="39.166133454622276" lon="16.13733546568976"><ele>440.0</ele><time>2026-03-29T11:55:13Z</time></trkpt><trkpt lat="39.16600808004486" lon="16.137350327247578"><ele>440.0</ele><time>2026-03-29T11:55:14Z</time></trkpt><trkpt lat="39.165878508939436" lon="16.13736707120359"><ele>440.0</ele><time>2026-03-29T11:55:15Z</time></trkpt><trkpt lat="39.16574990757805" lon="16.137385486508617"><ele>440.0</ele><time>2026-03-29T11:55:16Z</time></trkpt><trkpt lat="39.16562088474766" lon="16.137399758934563"><ele>440.0</ele><time>2026-03-29T11:55:17Z</time></trkpt><trkpt lat="39.16548737451422" lon="16.137417505123903"><ele>433.25</ele><time>2026-03-29T11:55:18Z</time></trkpt><trkpt lat="39.165349129393725" lon="16.137438054580905"><ele>426.5</ele><time>2026-03-29T11:55:19Z</time></trkpt><trkpt lat="39.165206688134504" lon="16.137461730850774"><ele>419.75</ele><time>2026-03-29T11:55:20Z</time></trkpt><trkpt lat="39.165062524703124" lon="16.13748021350523"><ele>413.0</ele><time>2026-03-29T11:55:21Z</time></trkpt><trkpt lat="39.16492275018226" lon="16.137495100739315"><ele>410.3333333333333</ele><time>2026-03-29T11:55:22Z</time></trkpt><trkpt lat="39.164776416820196" lon="16.137488182421418"><ele>407.66666666666663</ele><time>2026-03-29T11:55:23Z</time></trkpt><trkpt lat="39.16462518698713" lon="16.137469968527103"><ele>405.0</ele><time>2026-03-29T11:55:24Z</time></trkpt><trkpt lat="39.16447607841207" lon="16.13742309246455"><ele>405.0</ele><time>2026-03-29T11:55:25Z</time></trkpt><trkpt lat="39.16432244885567" lon="16.137404338277353"><ele>405.0</ele><time>2026-03-29T11:55:26Z</time></trkpt><trkpt lat="39.16416393964865" lon="16.137360478480574"><ele>405.0</ele><time>2026-03-29T11:55:27Z</time></trkpt><trkpt lat="39.164004173158006" lon="16.137325433897793"><ele>411.0</ele><time>2026-03-29T11:55:28Z</time></trkpt><trkpt lat="39.16384067724119" lon="16.137294671223746"><ele>417.0</ele><time>2026-03-29T11:55:29Z</time></trkpt><trkpt lat="39.163678618237626" lon="16.137263848539497"><ele>423.0</ele><time>2026-03-29T11:55:30Z</time></trkpt><trkpt lat="39.163514268338645" lon="16.13722844189766"><ele>423.0</ele><time>2026-03-29T11:55:31Z</time></trkpt><trkpt lat="39.16334994770847" lon="16.13719364422322"><ele>423.0</ele><time>2026-03-29T11:55:32Z</time></trkpt><trkpt lat="39.163185613742485" lon="16.137156478852276"><ele>423.0</ele><time>2026-03-29T11:55:33Z</time></trkpt><trkpt lat="39.163024600773674" lon="16.13712456360921"><ele>419.66666666666663</ele><time>2026-03-29T11:55:34Z</time></trkpt><trkpt lat="39.16286375202497" lon="16.137091732067955"><ele>416.3333333333333</ele><time>2026-03-29T11:55:35Z</time></trkpt><trkpt lat="39.162703170465605" lon="16.137063544915694"><ele>413.0</ele><time>2026-03-29T11:55:36Z</time></trkpt><trkpt lat="39.16254469847044" lon="16.13703214767157"><ele>413.0</ele><time>2026-03-29T11:55:37Z</time></trkpt><trkpt lat="39.16238643938911" lon="16.13699557524272"><ele>413.0</ele><time>2026-03-29T11:55:38Z</time></trkpt><trkpt lat="39.16222669232664" lon="16.136955618955156"><ele>413.0</ele><time>2026-03-29T11:55:39Z</time></trkpt><trkpt lat="39.162067275702384" lon="16.136908370223157"><ele>407.0</ele><time>2026-03-29T11:55:40Z</time></trkpt><trkpt lat="39.16191056467293" lon="16.13684544056261"><ele>401.0</ele><time>2026-03-29T11:55:41Z</time></trkpt><trkpt lat="39.16175608429296" lon="16.136771665017196"><ele>395.0</ele><time>2026-03-29T11:55:42Z</time></trkpt><trkpt lat="39.16160397357613" lon="16.136692289636713"><ele>395.66666666666663</ele><time>2026-03-29T11:55:43Z</time></trkpt><trkpt lat="39.161450698369514" lon="16.136612482426"><ele>396.33333333333337</ele><time>2026-03-29T11:55:44Z</time></trkpt><trkpt lat="39.161296556781465" lon="16.136538077347513"><ele>397.0</ele><time>2026-03-29T11:55:45Z</time></trkpt><trkpt lat="39.16114184364681" lon="16.136463450473702"><ele>397.0</ele><time>2026-03-29T11:55:46Z</time></trkpt><trkpt lat="39.16098564671714" lon="16.13639202045414"><ele>397.0</ele><time>2026-03-29T11:55:47Z</time></trkpt><trkpt lat="39.16082907913667" lon="16.136317497828873"><ele>397.0</ele><time>2026-03-29T11:55:48Z</time></trkpt><trkpt lat="39.1606706245134" lon="16.136245155163852"><ele>390.33333333333337</ele><time>2026-03-29T11:55:49Z</time></trkpt><trkpt lat="39.16051353160858" lon="16.136172682823652"><ele>383.6666666666667</ele><time>2026-03-29T11:55:50Z</time></trkpt><trkpt lat="39.16035714814204" lon="16.13609734367815"><ele>377.0</ele><time>2026-03-29T11:55:51Z</time></trkpt><trkpt lat="39.1601977586127" lon="16.13602796724853"><ele>377.0</ele><time>2026-03-29T11:55:52Z</time></trkpt><trkpt lat="39.16004121575318" lon="16.135953360172795"><ele>377.0</ele><time>2026-03-29T11:55:53Z</time></trkpt><trkpt lat="39.15988193853427" lon="16.135878595776525"><ele>377.0</ele><time>2026-03-29T11:55:54Z</time></trkpt><trkpt lat="39.159725614991174" lon="16.135800824520217"><ele>377.33333333333337</ele><time>2026-03-29T11:55:55Z</time></trkpt><trkpt lat="39.15957197345364" lon="16.135725963566706"><ele>377.6666666666667</ele><time>2026-03-29T11:55:56Z</time></trkpt><trkpt lat="39.15941668090724" lon="16.135643526943618"><ele>378.0</ele><time>2026-03-29T11:55:57Z</time></trkpt><trkpt lat="39.159265921811375" lon="16.135558374035345"><ele>378.0</ele><time>2026-03-29T11:55:58Z</time></trkpt><trkpt lat="39.15912249078944" lon="16.135460045791458"><ele>378.0</ele><time>2026-03-29T11:55:59Z</time></trkpt><trkpt lat="39.15898564851394" lon="16.13535203139723"><ele>378.0</ele><time>2026-03-29T11:56:00Z</time></trkpt><trkpt lat="39.158850663750776" lon="16.135234039618815"><ele>377.0</ele><time>2026-03-29T11:56:01Z</time></trkpt><trkpt lat="39.15871937236085" lon="16.135102238834186"><ele>376.0</ele><time>2026-03-29T11:56:02Z</time></trkpt><trkpt lat="39.158596432227725" lon="16.134965869538902"><ele>375.0</ele><time>2026-03-29T11:56:03Z</time></trkpt><trkpt lat="39.15847711607473" lon="16.134820150392596"><ele>375.0</ele><time>2026-03-29T11:56:03.999Z</time></trkpt><trkpt lat="39.158362642793165" lon="16.134670825282086"><ele>375.0</ele><time>2026-03-29T11:56:04.999Z</time></trkpt><trkpt lat="39.15824856423067" lon="16.134521409031162"><ele>375.0</ele><time>2026-03-29T11:56:05.999Z</time></trkpt><trkpt lat="39.15813872151193" lon="16.134367942185854"><ele>364.3333333333333</ele><time>2026-03-29T11:56:06.999Z</time></trkpt><trkpt lat="39.15803416561538" lon="16.134213039089378"><ele>353.66666666666663</ele><time>2026-03-29T11:56:07.999Z</time></trkpt><trkpt lat="39.15793722196089" lon="16.13405943541066"><ele>343.0</ele><time>2026-03-29T11:56:08.999Z</time></trkpt><trkpt lat="39.15785734040345" lon="16.133902705881223"><ele>343.0</ele><time>2026-03-29T11:56:09.999Z</time></trkpt><trkpt lat="39.157790012261515" lon="16.13373663384519"><ele>343.0</ele><time>2026-03-29T11:56:10.999Z</time></trkpt><trkpt lat="39.15773989972521" lon="16.133561415848533"><ele>343.0</ele><time>2026-03-29T11:56:11.999Z</time></trkpt><trkpt lat="39.15770462826221" lon="16.133378899388997"><ele>343.0</ele><time>2026-03-29T11:56:12.999Z</time></trkpt><trkpt lat="39.15768537033119" lon="16.13319363109896"><ele>341.25</ele><time>2026-03-29T11:56:13.999Z</time></trkpt><trkpt lat="39.15767894017679" lon="16.133000530966978"><ele>339.5</ele><time>2026-03-29T11:56:14.999Z</time></trkpt><trkpt lat="39.157688158055755" lon="16.13281234543225"><ele>337.75</ele><time>2026-03-29T11:56:15.999Z</time></trkpt><trkpt lat="39.15772020961493" lon="16.13262420828235"><ele>336.0</ele><time>2026-03-29T11:56:16.999Z</time></trkpt><trkpt lat="39.15776439379823" lon="16.13243883540103"><ele>331.3333333333333</ele><time>2026-03-29T11:56:17.999Z</time></trkpt><trkpt lat="39.157816304773554" lon="16.13225623392138"><ele>326.66666666666663</ele><time>2026-03-29T11:56:18.999Z</time></trkpt><trkpt lat="39.15787146766398" lon="16.132072170343168"><ele>322.0</ele><time>2026-03-29T11:56:19.999Z</time></trkpt><trkpt lat="39.15792698212428" lon="16.13188493549687"><ele>322.0</ele><time>2026-03-29T11:56:20.999Z</time></trkpt><trkpt lat="39.15798258474567" lon="16.131699705591778"><ele>322.0</ele><time>2026-03-29T11:56:21.999Z</time></trkpt><trkpt lat="39.15803984998141" lon="16.131508289116326"><ele>322.0</ele><time>2026-03-29T11:56:22.999Z</time></trkpt><trkpt lat="39.15809891704919" lon="16.131322215424024"><ele>321.3333333333333</ele><time>2026-03-29T11:56:23.999Z</time></trkpt><trkpt lat="39.1581568800336" lon="16.13113302590177"><ele>320.6666666666667</ele><time>2026-03-29T11:56:24.999Z</time></trkpt><trkpt lat="39.15821148198529" lon="16.1309446258574"><ele>320.0</ele><time>2026-03-29T11:56:25.999Z</time></trkpt><trkpt lat="39.158266725286204" lon="16.130756461300876"><ele>322.0</ele><time>2026-03-29T11:56:26.999Z</time></trkpt><trkpt lat="39.15831617475572" lon="16.130563662933064"><ele>324.0</ele><time>2026-03-29T11:56:27.999Z</time></trkpt><trkpt lat="39.158351731888715" lon="16.130366191398743"><ele>326.0</ele><time>2026-03-29T11:56:28.999Z</time></trkpt><trkpt lat="39.15837364981683" lon="16.13017319873442"><ele>326.0</ele><time>2026-03-29T11:56:29.999Z</time></trkpt><trkpt lat="39.158381824427615" lon="16.129978058473757"><ele>326.0</ele><time>2026-03-29T11:56:30.999Z</time></trkpt><trkpt lat="39.158375440883596" lon="16.129778069867854"><ele>326.0</ele><time>2026-03-29T11:56:31.999Z</time></trkpt><trkpt lat="39.15835323426937" lon="16.12958265176138"><ele>326.0</ele><time>2026-03-29T11:56:32.999Z</time></trkpt><trkpt lat="39.15831749276979" lon="16.129390604894052"><ele>326.0</ele><time>2026-03-29T11:56:33.999Z</time></trkpt><trkpt lat="39.158265774384255" lon="16.129201349406895"><ele>326.0</ele><time>2026-03-29T11:56:34.999Z</time></trkpt><trkpt lat="39.15820072052473" lon="16.129021120495924"><ele>326.0</ele><time>2026-03-29T11:56:35.999Z</time></trkpt><trkpt lat="39.158122248304714" lon="16.128846842660014"><ele>326.0</ele><time>2026-03-29T11:56:36.999Z</time></trkpt><trkpt lat="39.15803285669688" lon="16.128678874951316"><ele>326.0</ele><time>2026-03-29T11:56:37.999Z</time></trkpt><trkpt lat="39.15792924430837" lon="16.12853173898125"><ele>326.0</ele><time>2026-03-29T11:56:38.999Z</time></trkpt><trkpt lat="39.15781819459332" lon="16.12839079470868"><ele>326.0</ele><time>2026-03-29T11:56:39.999Z</time></trkpt><trkpt lat="39.15768392306478" lon="16.12826937382263"><ele>326.0</ele><time>2026-03-29T11:56:40.999Z</time></trkpt><trkpt lat="39.15755031768009" lon="16.128155078088582"><ele>329.6666666666667</ele><time>2026-03-29T11:56:41.999Z</time></trkpt><trkpt lat="39.157406626416" lon="16.128058422027706"><ele>333.3333333333333</ele><time>2026-03-29T11:56:42.999Z</time></trkpt><trkpt lat="39.15724819201378" lon="16.127983053897378"><ele>337.0</ele><time>2026-03-29T11:56:43.999Z</time></trkpt><trkpt lat="39.1570817298427" lon="16.127921662438045"><ele>337.0</ele><time>2026-03-29T11:56:44.999Z</time></trkpt><trkpt lat="39.15691313859577" lon="16.12787882968833"><ele>337.0</ele><time>2026-03-29T11:56:45.999Z</time></trkpt><trkpt lat="39.1567470150136" lon="16.127841662594566"><ele>337.0</ele><time>2026-03-29T11:56:46.999Z</time></trkpt><trkpt lat="39.15657994146736" lon="16.127800699947684"><ele>331.3333333333333</ele><time>2026-03-29T11:56:47.999Z</time></trkpt><trkpt lat="39.156415943575475" lon="16.12775155270276"><ele>325.6666666666667</ele><time>2026-03-29T11:56:48.999Z</time></trkpt><trkpt lat="39.156253060198125" lon="16.12770955418744"><ele>320.0</ele><time>2026-03-29T11:56:49.999Z</time></trkpt><trkpt lat="39.156095555816734" lon="16.127662331808068"><ele>320.0</ele><time>2026-03-29T11:56:50.999Z</time></trkpt><trkpt lat="39.15594370463196" lon="16.12762026689283"><ele>320.0</ele><time>2026-03-29T11:56:51.999Z</time></trkpt><trkpt lat="39.15579895222885" lon="16.127572251250626"><ele>320.0</ele><time>2026-03-29T11:56:52.999Z</time></trkpt><trkpt lat="39.15566206663184" lon="16.12751720584879"><ele>320.0</ele><time>2026-03-29T11:56:53.999Z</time></trkpt><trkpt lat="39.15553542806979" lon="16.127439047765964"><ele>316.75</ele><time>2026-03-29T11:56:54.999Z</time></trkpt><trkpt lat="39.15541466373296" lon="16.12734508542797"><ele>313.5</ele><time>2026-03-29T11:56:55.999Z</time></trkpt><trkpt lat="39.155293595385736" lon="16.127233601138695"><ele>310.25</ele><time>2026-03-29T11:56:56.999Z</time></trkpt><trkpt lat="39.155171250815734" lon="16.127105550880792"><ele>307.0</ele><time>2026-03-29T11:56:57.999Z</time></trkpt><trkpt lat="39.155051960836836" lon="16.126953372632453"><ele>307.0</ele><time>2026-03-29T11:56:58.999Z</time></trkpt><trkpt lat="39.15494316267918" lon="16.12679171496798"><ele>307.0</ele><time>2026-03-29T11:56:59.999Z</time></trkpt><trkpt lat="39.15485440118194" lon="16.126607611977626"><ele>307.0</ele><time>2026-03-29T11:57:00.999Z</time></trkpt><trkpt lat="39.15478990597401" lon="16.12640787256377"><ele>290.66666666666663</ele><time>2026-03-29T11:57:01.999Z</time></trkpt><trkpt lat="39.15476564587099" lon="16.12619454323587"><ele>274.3333333333333</ele><time>2026-03-29T11:57:02.999Z</time></trkpt><trkpt lat="39.15472861008807" lon="16.125987142140236"><ele>258.0</ele><time>2026-03-29T11:57:03.999Z</time></trkpt><trkpt lat="39.15472207708083" lon="16.125760685547245"><ele>256.0</ele><time>2026-03-29T11:57:04.999Z</time></trkpt><trkpt lat="39.154710157350124" lon="16.12553068750194"><ele>254.0</ele><time>2026-03-29T11:57:05.999Z</time></trkpt><trkpt lat="39.15469245481167" lon="16.125289916600384"><ele>252.0</ele><time>2026-03-29T11:57:06.999Z</time></trkpt><trkpt lat="39.15467379339812" lon="16.125043458368772"><ele>256.3333333333333</ele><time>2026-03-29T11:57:07.999Z</time></trkpt><trkpt lat="39.15465659410777" lon="16.124795562530903"><ele>260.66666666666663</ele><time>2026-03-29T11:57:09Z</time></trkpt><trkpt lat="39.154638344952325" lon="16.124544036436518"><ele>265.0</ele><time>2026-03-29T11:57:10Z</time></trkpt><trkpt lat="39.1546197126059" lon="16.124290174107536"><ele>265.66666666666663</ele><time>2026-03-29T11:57:11Z</time></trkpt><trkpt lat="39.154600526060726" lon="16.12403901617336"><ele>266.3333333333333</ele><time>2026-03-29T11:57:12Z</time></trkpt><trkpt lat="39.15458177596449" lon="16.12379537265639"><ele>267.0</ele><time>2026-03-29T11:57:13Z</time></trkpt><trkpt lat="39.15456227879561" lon="16.123559941053973"><ele>267.0</ele><time>2026-03-29T11:57:14Z</time></trkpt><trkpt lat="39.154539887704736" lon="16.12332979742295"><ele>267.0</ele><time>2026-03-29T11:57:15Z</time></trkpt><trkpt lat="39.154516851832" lon="16.12310007541422"><ele>267.0</ele><time>2026-03-29T11:57:16Z</time></trkpt><trkpt lat="39.15449571375117" lon="16.122869862873888"><ele>267.6666666666667</ele><time>2026-03-29T11:57:17Z</time></trkpt><trkpt lat="39.15446964914715" lon="16.12263771850075"><ele>268.33333333333337</ele><time>2026-03-29T11:57:18Z</time></trkpt><trkpt lat="39.15443037204893" lon="16.122407166824527"><ele>269.0</ele><time>2026-03-29T11:57:19Z</time></trkpt><trkpt lat="39.15437541360978" lon="16.122176107639994"><ele>271.0</ele><time>2026-03-29T11:57:20Z</time></trkpt><trkpt lat="39.154308498516805" lon="16.121946725646303"><ele>273.0</ele><time>2026-03-29T11:57:21Z</time></trkpt><trkpt lat="39.15423805586348" lon="16.121714490491474"><ele>275.0</ele><time>2026-03-29T11:57:22Z</time></trkpt><trkpt lat="39.15416941473326" lon="16.12148096231376"><ele>279.0</ele><time>2026-03-29T11:57:23Z</time></trkpt><trkpt lat="39.154099939206674" lon="16.121243906546624"><ele>283.0</ele><time>2026-03-29T11:57:24Z</time></trkpt><trkpt lat="39.15403107235728" lon="16.121003685258128"><ele>287.0</ele><time>2026-03-29T11:57:25Z</time></trkpt><trkpt lat="39.1539636220223" lon="16.120761287668913"><ele>271.33333333333337</ele><time>2026-03-29T11:57:26Z</time></trkpt><trkpt lat="39.15389736251014" lon="16.12051445995328"><ele>255.66666666666669</ele><time>2026-03-29T11:57:27Z</time></trkpt><trkpt lat="39.15382888412275" lon="16.12026660421917"><ele>240.0</ele><time>2026-03-29T11:57:28Z</time></trkpt><trkpt lat="39.15376052801752" lon="16.12001652065139"><ele>245.0</ele><time>2026-03-29T11:57:29Z</time></trkpt><trkpt lat="39.15368889659298" lon="16.119764856400792"><ele>250.0</ele><time>2026-03-29T11:57:30Z</time></trkpt><trkpt lat="39.15361872158019" lon="16.11950943180475"><ele>255.0</ele><time>2026-03-29T11:57:31Z</time></trkpt><trkpt lat="39.15355264612635" lon="16.119257623563342"><ele>254.0</ele><time>2026-03-29T11:57:32Z</time></trkpt><trkpt lat="39.153500739370386" lon="16.119027996784148"><ele>253.0</ele><time>2026-03-29T11:57:33Z</time></trkpt><trkpt lat="39.15346589804063" lon="16.11880279097237"><ele>252.0</ele><time>2026-03-29T11:57:34Z</time></trkpt><trkpt lat="39.15345380801291" lon="16.11857346459773"><ele>252.0</ele><time>2026-03-29T11:57:35Z</time></trkpt><trkpt lat="39.15346539922463" lon="16.11834168561269"><ele>252.0</ele><time>2026-03-29T11:57:36Z</time></trkpt><trkpt lat="39.15352772291535" lon="16.11812883734514"><ele>252.0</ele><time>2026-03-29T11:57:37Z</time></trkpt><trkpt lat="39.153583594729724" lon="16.11790164244166"><ele>248.33333333333331</ele><time>2026-03-29T11:57:38Z</time></trkpt><trkpt lat="39.1536722249353" lon="16.11769261825685"><ele>244.66666666666666</ele><time>2026-03-29T11:57:39Z</time></trkpt><trkpt lat="39.15375285160422" lon="16.117480496659443"><ele>241.0</ele><time>2026-03-29T11:57:40Z</time></trkpt><trkpt lat="39.15382541829415" lon="16.117277892432224"><ele>238.66666666666666</ele><time>2026-03-29T11:57:41Z</time></trkpt><trkpt lat="39.15388855898076" lon="16.117080473680257"><ele>236.33333333333331</ele><time>2026-03-29T11:57:42Z</time></trkpt><trkpt lat="39.15391488799499" lon="16.116876069516067"><ele>234.0</ele><time>2026-03-29T11:57:43Z</time></trkpt><trkpt lat="39.15392807592206" lon="16.116666056579845"><ele>234.33333333333331</ele><time>2026-03-29T11:57:44Z</time></trkpt><trkpt lat="39.15392421430331" lon="16.116459736575106"><ele>234.66666666666666</ele><time>2026-03-29T11:57:45Z</time></trkpt><trkpt lat="39.153897251469914" lon="16.116255399004768"><ele>235.0</ele><time>2026-03-29T11:57:46Z</time></trkpt><trkpt lat="39.15385121116929" lon="16.116053494806017"><ele>235.0</ele><time>2026-03-29T11:57:47Z</time></trkpt><trkpt lat="39.15378196948344" lon="16.115859127509044"><ele>235.0</ele><time>2026-03-29T11:57:48Z</time></trkpt><trkpt lat="39.1536952117596" lon="16.11567732692406"><ele>235.0</ele><time>2026-03-29T11:57:49Z</time></trkpt><trkpt lat="39.15359162971816" lon="16.11550501921694"><ele>240.33333333333331</ele><time>2026-03-29T11:57:50Z</time></trkpt><trkpt lat="39.15346907552876" lon="16.115352499755062"><ele>245.66666666666669</ele><time>2026-03-29T11:57:51Z</time></trkpt><trkpt lat="39.15333670749193" lon="16.11521197683429"><ele>251.0</ele><time>2026-03-29T11:57:52Z</time></trkpt><trkpt lat="39.1532017228982" lon="16.11507160863854"><ele>238.66666666666669</ele><time>2026-03-29T11:57:53Z</time></trkpt><trkpt lat="39.15308200179661" lon="16.114909738208972"><ele>226.33333333333331</ele><time>2026-03-29T11:57:54Z</time></trkpt><trkpt lat="39.15298389877572" lon="16.114724720511596"><ele>214.0</ele><time>2026-03-29T11:57:55Z</time></trkpt><trkpt lat="39.15290955987305" lon="16.114526871940676"><ele>214.0</ele><time>2026-03-29T11:57:56Z</time></trkpt><trkpt lat="39.15286013832243" lon="16.11432300761427"><ele>214.0</ele><time>2026-03-29T11:57:57Z</time></trkpt><trkpt lat="39.152840670947356" lon="16.114114504775767"><ele>214.0</ele><time>2026-03-29T11:57:58Z</time></trkpt><trkpt lat="39.15284088921321" lon="16.113910360774437"><ele>213.66666666666666</ele><time>2026-03-29T11:57:59Z</time></trkpt><trkpt lat="39.152858866753014" lon="16.113708356188287"><ele>213.33333333333331</ele><time>2026-03-29T11:58:00Z</time></trkpt><trkpt lat="39.152872817497986" lon="16.11350614656441"><ele>213.0</ele><time>2026-03-29T11:58:01Z</time></trkpt><trkpt lat="39.15288478749615" lon="16.113306769755916"><ele>212.0</ele><time>2026-03-29T11:58:02Z</time></trkpt><trkpt lat="39.15289232961582" lon="16.113112540292523"><ele>211.0</ele><time>2026-03-29T11:58:03Z</time></trkpt><trkpt lat="39.152883731905256" lon="16.112923077362005"><ele>210.0</ele><time>2026-03-29T11:58:04Z</time></trkpt><trkpt lat="39.15286231354191" lon="16.112734591581354"><ele>209.0</ele><time>2026-03-29T11:58:05Z</time></trkpt><trkpt lat="39.15282936555388" lon="16.11254968410168"><ele>209.5</ele><time>2026-03-29T11:58:06Z</time></trkpt><trkpt lat="39.152783006980194" lon="16.112371608830056"><ele>210.0</ele><time>2026-03-29T11:58:07Z</time></trkpt><trkpt lat="39.15273399505686" lon="16.112197668372517"><ele>210.5</ele><time>2026-03-29T11:58:07.999Z</time></trkpt><trkpt lat="39.152688625014896" lon="16.11202476008779"><ele>211.0</ele><time>2026-03-29T11:58:08.999Z</time></trkpt><trkpt lat="39.15264627646382" lon="16.111852774178455"><ele>211.0</ele><time>2026-03-29T11:58:09.999Z</time></trkpt><trkpt lat="39.15260618709241" lon="16.111682267457997"><ele>211.0</ele><time>2026-03-29T11:58:10.999Z</time></trkpt><trkpt lat="39.15256731603413" lon="16.111516349456583"><ele>211.0</ele><time>2026-03-29T11:58:11.999Z</time></trkpt><trkpt lat="39.15253674643629" lon="16.111355294039637"><ele>211.0</ele><time>2026-03-29T11:58:12.999Z</time></trkpt><trkpt lat="39.15252055450001" lon="16.111198070878412"><ele>211.0</ele><time>2026-03-29T11:58:13.999Z</time></trkpt><trkpt lat="39.1525167896094" lon="16.11103562542161"><ele>211.0</ele><time>2026-03-29T11:58:14.999Z</time></trkpt><trkpt lat="39.152526575562646" lon="16.11087099329893"><ele>211.0</ele><time>2026-03-29T11:58:15.999Z</time></trkpt><trkpt lat="39.152544507450735" lon="16.110704371173718"><ele>211.0</ele><time>2026-03-29T11:58:16.999Z</time></trkpt><trkpt lat="39.15257835386365" lon="16.110539694242988"><ele>204.75</ele><time>2026-03-29T11:58:17.999Z</time></trkpt><trkpt lat="39.152623005012444" lon="16.110378045070906"><ele>198.5</ele><time>2026-03-29T11:58:18.999Z</time></trkpt><trkpt lat="39.15267317670524" lon="16.110215237377798"><ele>192.25</ele><time>2026-03-29T11:58:19.999Z</time></trkpt><trkpt lat="39.152727630388476" lon="16.110050241931706"><ele>186.0</ele><time>2026-03-29T11:58:20.999Z</time></trkpt><trkpt lat="39.15278535976118" lon="16.109883056445835"><ele>178.75</ele><time>2026-03-29T11:58:21.999Z</time></trkpt><trkpt lat="39.15284313862944" lon="16.10971131148332"><ele>171.5</ele><time>2026-03-29T11:58:22.999Z</time></trkpt><trkpt lat="39.152897981246326" lon="16.109534288817127"><ele>164.25</ele><time>2026-03-29T11:58:23.999Z</time></trkpt><trkpt lat="39.15295312861107" lon="16.109354202110623"><ele>157.0</ele><time>2026-03-29T11:58:24.999Z</time></trkpt><trkpt lat="39.15301206397686" lon="16.109174959152156"><ele>154.33333333333334</ele><time>2026-03-29T11:58:25.999Z</time></trkpt><trkpt lat="39.153071551131234" lon="16.108993564265706"><ele>151.66666666666666</ele><time>2026-03-29T11:58:26.999Z</time></trkpt><trkpt lat="39.15313176169278" lon="16.108809739936664"><ele>149.0</ele><time>2026-03-29T11:58:27.999Z</time></trkpt><trkpt lat="39.15319271715969" lon="16.108623321807357"><ele>155.66666666666666</ele><time>2026-03-29T11:58:28.999Z</time></trkpt><trkpt lat="39.15325425009577" lon="16.10843544069447"><ele>162.33333333333334</ele><time>2026-03-29T11:58:29.999Z</time></trkpt><trkpt lat="39.15331690856205" lon="16.108247764597213"><ele>169.0</ele><time>2026-03-29T11:58:30.999Z</time></trkpt><trkpt lat="39.153378525034945" lon="16.108057271248658"><ele>173.33333333333334</ele><time>2026-03-29T11:58:31.999Z</time></trkpt><trkpt lat="39.15343792748474" lon="16.107869314387372"><ele>177.66666666666666</ele><time>2026-03-29T11:58:32.999Z</time></trkpt><trkpt lat="39.15349639859577" lon="16.107679300783904"><ele>182.0</ele><time>2026-03-29T11:58:33.999Z</time></trkpt><trkpt lat="39.15354794067352" lon="16.107487279077215"><ele>182.33333333333331</ele><time>2026-03-29T11:58:34.999Z</time></trkpt><trkpt lat="39.153583621111785" lon="16.10728741146665"><ele>182.66666666666666</ele><time>2026-03-29T11:58:35.999Z</time></trkpt><trkpt lat="39.15360079477921" lon="16.107082680567412"><ele>183.0</ele><time>2026-03-29T11:58:36.999Z</time></trkpt><trkpt lat="39.15359801120158" lon="16.10687459732622"><ele>183.0</ele><time>2026-03-29T11:58:37.999Z</time></trkpt><trkpt lat="39.15357971124114" lon="16.10666424587176"><ele>183.0</ele><time>2026-03-29T11:58:38.999Z</time></trkpt><trkpt lat="39.15355818546165" lon="16.106448589155573"><ele>183.0</ele><time>2026-03-29T11:58:39.999Z</time></trkpt><trkpt lat="39.15353451310735" lon="16.106229973807956"><ele>183.0</ele><time>2026-03-29T11:58:40.999Z</time></trkpt><trkpt lat="39.153512458509304" lon="16.106008044419546"><ele>183.0</ele><time>2026-03-29T11:58:41.999Z</time></trkpt><trkpt lat="39.15349428744006" lon="16.105782969788994"><ele>183.0</ele><time>2026-03-29T11:58:42.999Z</time></trkpt><trkpt lat="39.15347514121555" lon="16.105560954096127"><ele>183.33333333333334</ele><time>2026-03-29T11:58:43.999Z</time></trkpt><trkpt lat="39.15345693492946" lon="16.10534161879699"><ele>183.66666666666669</ele><time>2026-03-29T11:58:44.999Z</time></trkpt><trkpt lat="39.153438985255015" lon="16.10512663877859"><ele>184.0</ele><time>2026-03-29T11:58:45.999Z</time></trkpt><trkpt lat="39.15341944696208" lon="16.104911984628007"><ele>184.33333333333334</ele><time>2026-03-29T11:58:46.999Z</time></trkpt><trkpt lat="39.15340175483089" lon="16.104695187270593"><ele>184.66666666666666</ele><time>2026-03-29T11:58:47.999Z</time></trkpt><trkpt lat="39.15338507171541" lon="16.10448195465342"><ele>185.0</ele><time>2026-03-29T11:58:48.999Z</time></trkpt><trkpt lat="39.153366029138375" lon="16.104269766213818"><ele>185.0</ele><time>2026-03-29T11:58:49.999Z</time></trkpt><trkpt lat="39.153346018513" lon="16.104058475777748"><ele>185.0</ele><time>2026-03-29T11:58:50.999Z</time></trkpt><trkpt lat="39.15332269041825" lon="16.103847823361047"><ele>185.0</ele><time>2026-03-29T11:58:51.999Z</time></trkpt><trkpt lat="39.153293322228095" lon="16.103635732699974"><ele>185.0</ele><time>2026-03-29T11:58:52.999Z</time></trkpt><trkpt lat="39.1532556519064" lon="16.103424648814737"><ele>185.0</ele><time>2026-03-29T11:58:53.999Z</time></trkpt><trkpt lat="39.15320135383741" lon="16.10321829264348"><ele>185.0</ele><time>2026-03-29T11:58:54.999Z</time></trkpt><trkpt lat="39.15313109951127" lon="16.103025210885868"><ele>176.33333333333331</ele><time>2026-03-29T11:58:55.999Z</time></trkpt><trkpt lat="39.153045625002704" lon="16.102847243073292"><ele>167.66666666666666</ele><time>2026-03-29T11:58:56.999Z</time></trkpt><trkpt lat="39.152955485576" lon="16.102671511247692"><ele>159.0</ele><time>2026-03-29T11:58:57.999Z</time></trkpt><trkpt lat="39.15286029006721" lon="16.102503696674304"><ele>161.66666666666666</ele><time>2026-03-29T11:58:58.999Z</time></trkpt><trkpt lat="39.152762678346654" lon="16.102335265307"><ele>164.33333333333331</ele><time>2026-03-29T11:58:59.999Z</time></trkpt><trkpt lat="39.152666734648044" lon="16.10216500695231"><ele>167.0</ele><time>2026-03-29T11:59:00.999Z</time></trkpt><trkpt lat="39.1525716800402" lon="16.101995974207277"><ele>167.0</ele><time>2026-03-29T11:59:01.999Z</time></trkpt><trkpt lat="39.15247656128392" lon="16.10183007388416"><ele>167.0</ele><time>2026-03-29T11:59:02.999Z</time></trkpt><trkpt lat="39.15238381064925" lon="16.10166429522046"><ele>167.0</ele><time>2026-03-29T11:59:03.999Z</time></trkpt><trkpt lat="39.15229593546477" lon="16.101497860020267"><ele>159.66666666666666</ele><time>2026-03-29T11:59:04.999Z</time></trkpt><trkpt lat="39.152213473501135" lon="16.101324630577622"><ele>152.33333333333334</ele><time>2026-03-29T11:59:05.999Z</time></trkpt><trkpt lat="39.15213774629176" lon="16.10114232550322"><ele>145.0</ele><time>2026-03-29T11:59:06.999Z</time></trkpt><trkpt lat="39.15206880712282" lon="16.100952714735673"><ele>145.0</ele><time>2026-03-29T11:59:07.999Z</time></trkpt><trkpt lat="39.15200134390871" lon="16.10076010009819"><ele>145.0</ele><time>2026-03-29T11:59:08.999Z</time></trkpt><trkpt lat="39.1519355293866" lon="16.100564905147337"><ele>145.0</ele><time>2026-03-29T11:59:09.999Z</time></trkpt><trkpt lat="39.151871084357424" lon="16.10036554223534"><ele>148.0</ele><time>2026-03-29T11:59:10.999Z</time></trkpt><trkpt lat="39.15180610132721" lon="16.100174236687295"><ele>151.0</ele><time>2026-03-29T11:59:11.999Z</time></trkpt><trkpt lat="39.15173286065227" lon="16.09999113019474"><ele>154.0</ele><time>2026-03-29T11:59:12.999Z</time></trkpt><trkpt lat="39.151648096553515" lon="16.09981619130446"><ele>152.0</ele><time>2026-03-29T11:59:13.999Z</time></trkpt><trkpt lat="39.15154789127914" lon="16.09965522810394"><ele>150.0</ele><time>2026-03-29T11:59:15Z</time></trkpt><trkpt lat="39.151433749232815" lon="16.09950425362009"><ele>148.0</ele><time>2026-03-29T11:59:16Z</time></trkpt><trkpt lat="39.15130214911108" lon="16.09937275960618"><ele>148.0</ele><time>2026-03-29T11:59:17Z</time></trkpt><trkpt lat="39.151157270351845" lon="16.099263593823423"><ele>148.0</ele><time>2026-03-29T11:59:18Z</time></trkpt><trkpt lat="39.151000589793284" lon="16.099177036622887"><ele>148.0</ele><time>2026-03-29T11:59:19Z</time></trkpt><trkpt lat="39.15083455518035" lon="16.099112523106065"><ele>150.33333333333334</ele><time>2026-03-29T11:59:20Z</time></trkpt><trkpt lat="39.150664759424124" lon="16.099060755283723"><ele>152.66666666666666</ele><time>2026-03-29T11:59:21Z</time></trkpt><trkpt lat="39.150491283708654" lon="16.099016135835235"><ele>155.0</ele><time>2026-03-29T11:59:22Z</time></trkpt><trkpt lat="39.150314626890584" lon="16.098975987125765"><ele>155.0</ele><time>2026-03-29T11:59:23Z</time></trkpt><trkpt lat="39.15013760063323" lon="16.09893965497716"><ele>155.0</ele><time>2026-03-29T11:59:24Z</time></trkpt><trkpt lat="39.14996025349318" lon="16.098911558931096"><ele>155.0</ele><time>2026-03-29T11:59:25Z</time></trkpt><trkpt lat="39.14978377741973" lon="16.098905329419026"><ele>142.0</ele><time>2026-03-29T11:59:26Z</time></trkpt><trkpt lat="39.149610335370554" lon="16.09892102431004"><ele>129.0</ele><time>2026-03-29T11:59:27Z</time></trkpt><trkpt lat="39.149438219996576" lon="16.098956836939394"><ele>116.0</ele><time>2026-03-29T11:59:28Z</time></trkpt><trkpt lat="39.14926861408332" lon="16.09900337462905"><ele>116.0</ele><time>2026-03-29T11:59:29Z</time></trkpt><trkpt lat="39.14910405583696" lon="16.09906444890741"><ele>116.0</ele><time>2026-03-29T11:59:30Z</time></trkpt><trkpt lat="39.14893946205434" lon="16.099129407619984"><ele>116.0</ele><time>2026-03-29T11:59:31Z</time></trkpt><trkpt lat="39.14877327654378" lon="16.099194178394942"><ele>113.33333333333333</ele><time>2026-03-29T11:59:32Z</time></trkpt><trkpt lat="39.14860638397084" lon="16.09926175711854"><ele>110.66666666666666</ele><time>2026-03-29T11:59:33Z</time></trkpt><trkpt lat="39.14843852743442" lon="16.099331578660873"><ele>108.0</ele><time>2026-03-29T11:59:34Z</time></trkpt><trkpt lat="39.14826970447303" lon="16.09940168339281"><ele>108.33333333333334</ele><time>2026-03-29T11:59:35Z</time></trkpt><trkpt lat="39.14810240416819" lon="16.099472841676842"><ele>108.66666666666667</ele><time>2026-03-29T11:59:36Z</time></trkpt><trkpt lat="39.147934171470666" lon="16.099538591659332"><ele>109.0</ele><time>2026-03-29T11:59:37Z</time></trkpt><trkpt lat="39.14776306043743" lon="16.099584519863228"><ele>109.0</ele><time>2026-03-29T11:59:38Z</time></trkpt><trkpt lat="39.147589284629845" lon="16.099607908647283"><ele>109.0</ele><time>2026-03-29T11:59:39Z</time></trkpt><trkpt lat="39.1474140255696" lon="16.099608614710696"><ele>109.0</ele><time>2026-03-29T11:59:40Z</time></trkpt><trkpt lat="39.14723981532762" lon="16.099586387803075"><ele>109.0</ele><time>2026-03-29T11:59:41Z</time></trkpt><trkpt lat="39.147063764574504" lon="16.09954082946208"><ele>109.0</ele><time>2026-03-29T11:59:42Z</time></trkpt><trkpt lat="39.14688984380275" lon="16.09949911743041"><ele>109.0</ele><time>2026-03-29T11:59:43Z</time></trkpt><trkpt lat="39.14671603670089" lon="16.099450438409225"><ele>106.0</ele><time>2026-03-29T11:59:44Z</time></trkpt><trkpt lat="39.14654232559045" lon="16.099400417858167"><ele>103.0</ele><time>2026-03-29T11:59:45Z</time></trkpt><trkpt lat="39.14636686624457" lon="16.099350374914103"><ele>100.0</ele><time>2026-03-29T11:59:46Z</time></trkpt><trkpt lat="39.14619005954173" lon="16.099296723152484"><ele>100.0</ele><time>2026-03-29T11:59:47Z</time></trkpt><trkpt lat="39.146012431643065" lon="16.099246464861444"><ele>100.0</ele><time>2026-03-29T11:59:48Z</time></trkpt><trkpt lat="39.14583608449087" lon="16.099197366210404"><ele>100.0</ele><time>2026-03-29T11:59:49Z</time></trkpt><trkpt lat="39.14566149058721" lon="16.099147947857276"><ele>101.33333333333334</ele><time>2026-03-29T11:59:50Z</time></trkpt><trkpt lat="39.145487919512156" lon="16.0990982027676"><ele>102.66666666666666</ele><time>2026-03-29T11:59:51Z</time></trkpt><trkpt lat="39.14531953603345" lon="16.099048492129114"><ele>104.0</ele><time>2026-03-29T11:59:52Z</time></trkpt><trkpt lat="39.145154598534155" lon="16.099001797152212"><ele>101.0</ele><time>2026-03-29T11:59:53Z</time></trkpt><trkpt lat="39.14499212754772" lon="16.09895325999325"><ele>98.0</ele><time>2026-03-29T11:59:54Z</time></trkpt><trkpt lat="39.144833158201024" lon="16.09890104313091"><ele>95.0</ele><time>2026-03-29T11:59:55Z</time></trkpt><trkpt lat="39.14467714548347" lon="16.09883817686736"><ele>94.66666666666667</ele><time>2026-03-29T11:59:56Z</time></trkpt><trkpt lat="39.1445234518079" lon="16.098765389129312"><ele>94.33333333333333</ele><time>2026-03-29T11:59:57Z</time></trkpt><trkpt lat="39.144372771614684" lon="16.098678981779273"><ele>94.0</ele><time>2026-03-29T11:59:58Z</time></trkpt><trkpt lat="39.14422779056102" lon="16.09857835556869"><ele>94.0</ele><time>2026-03-29T11:59:59Z</time></trkpt><trkpt lat="39.14408913935362" lon="16.098464885268378"><ele>94.0</ele><time>2026-03-29T12:00:00Z</time></trkpt><trkpt lat="39.14395659162848" lon="16.098338885780194"><ele>94.0</ele><time>2026-03-29T12:00:01Z</time></trkpt><trkpt lat="39.143836313996" lon="16.098201386229764"><ele>93.0</ele><time>2026-03-29T12:00:02Z</time></trkpt><trkpt lat="39.143713295314946" lon="16.098059274711726"><ele>92.0</ele><time>2026-03-29T12:00:03Z</time></trkpt><trkpt lat="39.143594727766576" lon="16.097910851202034"><ele>91.0</ele><time>2026-03-29T12:00:04Z</time></trkpt><trkpt lat="39.14348370601623" lon="16.097754774039522"><ele>91.0</ele><time>2026-03-29T12:00:05Z</time></trkpt><trkpt lat="39.143385933777374" lon="16.09758853029899"><ele>91.0</ele><time>2026-03-29T12:00:06Z</time></trkpt><trkpt lat="39.143296685035" lon="16.097410853291965"><ele>91.0</ele><time>2026-03-29T12:00:07Z</time></trkpt><trkpt lat="39.14320947581897" lon="16.097227250593946"><ele>97.66666666666666</ele><time>2026-03-29T12:00:08Z</time></trkpt><trkpt lat="39.143122447192475" lon="16.097039681016515"><ele>104.33333333333333</ele><time>2026-03-29T12:00:09Z</time></trkpt><trkpt lat="39.14303629857887" lon="16.096851048534475"><ele>111.0</ele><time>2026-03-29T12:00:10Z</time></trkpt><trkpt lat="39.142949586427655" lon="16.096664641304994"><ele>106.33333333333334</ele><time>2026-03-29T12:00:11Z</time></trkpt><trkpt lat="39.14286426824888" lon="16.096479683799398"><ele>101.66666666666667</ele><time>2026-03-29T12:00:12Z</time></trkpt><trkpt lat="39.142781913660926" lon="16.096295631567653"><ele>97.0</ele><time>2026-03-29T12:00:13Z</time></trkpt><trkpt lat="39.142700961595544" lon="16.096113697057252"><ele>97.0</ele><time>2026-03-29T12:00:14Z</time></trkpt><trkpt lat="39.142620316419304" lon="16.09593272464731"><ele>97.0</ele><time>2026-03-29T12:00:15Z</time></trkpt><trkpt lat="39.14254039987244" lon="16.095754893411318"><ele>97.0</ele><time>2026-03-29T12:00:16Z</time></trkpt><trkpt lat="39.142460815113424" lon="16.09557829169939"><ele>92.33333333333334</ele><time>2026-03-29T12:00:17Z</time></trkpt><trkpt lat="39.1423822223493" lon="16.095402151523505"><ele>87.66666666666667</ele><time>2026-03-29T12:00:18Z</time></trkpt><trkpt lat="39.14230855643391" lon="16.095223961118922"><ele>83.0</ele><time>2026-03-29T12:00:19Z</time></trkpt><trkpt lat="39.14224047436178" lon="16.09504274450962"><ele>88.0</ele><time>2026-03-29T12:00:20Z</time></trkpt><trkpt lat="39.14217333342814" lon="16.094858584459278"><ele>93.0</ele><time>2026-03-29T12:00:21Z</time></trkpt><trkpt lat="39.14210701805779" lon="16.094670806714568"><ele>98.0</ele><time>2026-03-29T12:00:22Z</time></trkpt><trkpt lat="39.14204264725184" lon="16.094479895385415"><ele>98.0</ele><time>2026-03-29T12:00:22.999Z</time></trkpt><trkpt lat="39.14198048547916" lon="16.0942868484812"><ele>98.0</ele><time>2026-03-29T12:00:23.999Z</time></trkpt><trkpt lat="39.14191805648214" lon="16.094093452334494"><ele>98.0</ele><time>2026-03-29T12:00:24.999Z</time></trkpt><trkpt lat="39.14185591549514" lon="16.093900807770837"><ele>92.0</ele><time>2026-03-29T12:00:25.999Z</time></trkpt><trkpt lat="39.14179736304944" lon="16.093704196473563"><ele>86.0</ele><time>2026-03-29T12:00:26.999Z</time></trkpt><trkpt lat="39.14174246434663" lon="16.093507997460737"><ele>80.0</ele><time>2026-03-29T12:00:27.999Z</time></trkpt><trkpt lat="39.14168659146124" lon="16.093311480684715"><ele>80.66666666666667</ele><time>2026-03-29T12:00:28.999Z</time></trkpt><trkpt lat="39.141627958096116" lon="16.093116692876542"><ele>81.33333333333333</ele><time>2026-03-29T12:00:29.999Z</time></trkpt><trkpt lat="39.14156620125929" lon="16.092923370110643"><ele>82.0</ele><time>2026-03-29T12:00:30.999Z</time></trkpt><trkpt lat="39.14150580491377" lon="16.092731347422188"><ele>82.0</ele><time>2026-03-29T12:00:31.999Z</time></trkpt><trkpt lat="39.141448986179526" lon="16.09253662196188"><ele>82.0</ele><time>2026-03-29T12:00:32.999Z</time></trkpt><trkpt lat="39.14139258985994" lon="16.09234189576548"><ele>82.0</ele><time>2026-03-29T12:00:33.999Z</time></trkpt><trkpt lat="39.14133578937889" lon="16.092146287954417"><ele>79.66666666666666</ele><time>2026-03-29T12:00:34.999Z</time></trkpt><trkpt lat="39.14127621639354" lon="16.091951750229427"><ele>77.33333333333333</ele><time>2026-03-29T12:00:35.999Z</time></trkpt><trkpt lat="39.14121517897243" lon="16.091757421784717"><ele>75.0</ele><time>2026-03-29T12:00:36.999Z</time></trkpt><trkpt lat="39.141153314065924" lon="16.09156390343847"><ele>73.0</ele><time>2026-03-29T12:00:37.999Z</time></trkpt><trkpt lat="39.14108580408793" lon="16.091374028301907"><ele>71.0</ele><time>2026-03-29T12:00:38.999Z</time></trkpt><trkpt lat="39.14101368184855" lon="16.09118540383034"><ele>69.0</ele><time>2026-03-29T12:00:39.999Z</time></trkpt><trkpt lat="39.14093258048732" lon="16.091004421996836"><ele>69.0</ele><time>2026-03-29T12:00:40.999Z</time></trkpt><trkpt lat="39.14084083276387" lon="16.090834677525372"><ele>69.0</ele><time>2026-03-29T12:00:41.999Z</time></trkpt><trkpt lat="39.14074142555321" lon="16.09066906157239"><ele>69.0</ele><time>2026-03-29T12:00:42.999Z</time></trkpt><trkpt lat="39.14063678720241" lon="16.0905115884292"><ele>68.33333333333333</ele><time>2026-03-29T12:00:43.999Z</time></trkpt><trkpt lat="39.1405231401865" lon="16.090361069627733"><ele>67.66666666666666</ele><time>2026-03-29T12:00:44.999Z</time></trkpt><trkpt lat="39.14040321042865" lon="16.09022116779152"><ele>67.0</ele><time>2026-03-29T12:00:45.999Z</time></trkpt><trkpt lat="39.14027563441947" lon="16.09009153263404"><ele>67.0</ele><time>2026-03-29T12:00:46.999Z</time></trkpt><trkpt lat="39.14014496830926" lon="16.08997038309485"><ele>67.0</ele><time>2026-03-29T12:00:47.999Z</time></trkpt><trkpt lat="39.14001066604646" lon="16.089853831935887"><ele>67.0</ele><time>2026-03-29T12:00:48.999Z</time></trkpt><trkpt lat="39.139875736679606" lon="16.089739467126893"><ele>64.33333333333333</ele><time>2026-03-29T12:00:49.999Z</time></trkpt><trkpt lat="39.13973993232494" lon="16.08962749955308"><ele>61.66666666666667</ele><time>2026-03-29T12:00:50.999Z</time></trkpt><trkpt lat="39.1396035449148" lon="16.08951782325688"><ele>59.0</ele><time>2026-03-29T12:00:51.999Z</time></trkpt><trkpt lat="39.13946463176192" lon="16.089407962511444"><ele>59.0</ele><time>2026-03-29T12:00:52.999Z</time></trkpt><trkpt lat="39.13932658059161" lon="16.089297404848672"><ele>59.0</ele><time>2026-03-29T12:00:53.999Z</time></trkpt><trkpt lat="39.13918906834281" lon="16.08918604079322"><ele>59.0</ele><time>2026-03-29T12:00:54.999Z</time></trkpt><trkpt lat="39.13905446939276" lon="16.08907127838138"><ele>58.333333333333336</ele><time>2026-03-29T12:00:55.999Z</time></trkpt><trkpt lat="39.13891805093784" lon="16.088959704326033"><ele>57.66666666666667</ele><time>2026-03-29T12:00:56.999Z</time></trkpt><trkpt lat="39.13878020515936" lon="16.088847832270183"><ele>57.0</ele><time>2026-03-29T12:00:57.999Z</time></trkpt><trkpt lat="39.13864273669302" lon="16.088735761059656"><ele>57.0</ele><time>2026-03-29T12:00:58.999Z</time></trkpt><trkpt lat="39.13850677227288" lon="16.088624901006273"><ele>57.0</ele><time>2026-03-29T12:00:59.999Z</time></trkpt><trkpt lat="39.13837144805778" lon="16.088513768857617"><ele>57.0</ele><time>2026-03-29T12:01:00.999Z</time></trkpt><trkpt lat="39.138236263997904" lon="16.088401886094697"><ele>56.33333333333333</ele><time>2026-03-29T12:01:01.999Z</time></trkpt><trkpt lat="39.13810087261487" lon="16.088289603455436"><ele>55.666666666666664</ele><time>2026-03-29T12:01:02.999Z</time></trkpt><trkpt lat="39.13796582478915" lon="16.088176867386842"><ele>55.0</ele><time>2026-03-29T12:01:03.999Z</time></trkpt><trkpt lat="39.13783050115965" lon="16.088063477958485"><ele>55.0</ele><time>2026-03-29T12:01:04.999Z</time></trkpt><trkpt lat="39.137695226477334" lon="16.08795011485448"><ele>55.0</ele><time>2026-03-29T12:01:05.999Z</time></trkpt><trkpt lat="39.137560624417844" lon="16.087837965464683"><ele>55.0</ele><time>2026-03-29T12:01:06.999Z</time></trkpt><trkpt lat="39.1374255088536" lon="16.08772585698206"><ele>55.0</ele><time>2026-03-29T12:01:07.999Z</time></trkpt><trkpt lat="39.1372931615333" lon="16.087612209592933"><ele>55.0</ele><time>2026-03-29T12:01:08.999Z</time></trkpt><trkpt lat="39.13716320282163" lon="16.087491748742583"><ele>55.0</ele><time>2026-03-29T12:01:09.999Z</time></trkpt><trkpt lat="39.13704068276" lon="16.087364853425274"><ele>54.33333333333333</ele><time>2026-03-29T12:01:10.999Z</time></trkpt><trkpt lat="39.13692297817216" lon="16.08723161632775"><ele>53.66666666666667</ele><time>2026-03-29T12:01:11.999Z</time></trkpt><trkpt lat="39.13680845697284" lon="16.087094827451672"><ele>53.0</ele><time>2026-03-29T12:01:12.999Z</time></trkpt><trkpt lat="39.13669877219808" lon="16.08695018620462"><ele>53.0</ele><time>2026-03-29T12:01:13.999Z</time></trkpt><trkpt lat="39.136594878415956" lon="16.086798985523867"><ele>53.0</ele><time>2026-03-29T12:01:14.999Z</time></trkpt><trkpt lat="39.13649633957374" lon="16.08664159281263"><ele>53.0</ele><time>2026-03-29T12:01:15.999Z</time></trkpt><trkpt lat="39.13640407506153" lon="16.086477240450648"><ele>51.66666666666667</ele><time>2026-03-29T12:01:16.999Z</time></trkpt><trkpt lat="39.13631687698101" lon="16.086307234146755"><ele>50.33333333333333</ele><time>2026-03-29T12:01:17.999Z</time></trkpt><trkpt lat="39.13623400132106" lon="16.08613297017181"><ele>49.0</ele><time>2026-03-29T12:01:18.999Z</time></trkpt><trkpt lat="39.136154792317605" lon="16.085956468114084"><ele>49.0</ele><time>2026-03-29T12:01:19.999Z</time></trkpt><trkpt lat="39.13608394176343" lon="16.085773790842502"><ele>49.0</ele><time>2026-03-29T12:01:21Z</time></trkpt><trkpt lat="39.13601996355614" lon="16.085586400675975"><ele>49.0</ele><time>2026-03-29T12:01:22Z</time></trkpt><trkpt lat="39.13596116831887" lon="16.085395496591207"><ele>48.33333333333333</ele><time>2026-03-29T12:01:23Z</time></trkpt><trkpt lat="39.13590573099788" lon="16.085203327586235"><ele>47.666666666666664</ele><time>2026-03-29T12:01:24Z</time></trkpt><trkpt lat="39.13585132670258" lon="16.085011832026236"><ele>47.0</ele><time>2026-03-29T12:01:25Z</time></trkpt><trkpt lat="39.1357972841222" lon="16.084820723600124"><ele>46.666666666666664</ele><time>2026-03-29T12:01:26Z</time></trkpt><trkpt lat="39.135748618869606" lon="16.08462875135189"><ele>46.333333333333336</ele><time>2026-03-29T12:01:27Z</time></trkpt><trkpt lat="39.13571022437106" lon="16.084434873229696"><ele>46.0</ele><time>2026-03-29T12:01:28Z</time></trkpt><trkpt lat="39.135679471770175" lon="16.084238185643176"><ele>51.66666666666667</ele><time>2026-03-29T12:01:29Z</time></trkpt><trkpt lat="39.135658752527945" lon="16.08404060036884"><ele>57.333333333333336</ele><time>2026-03-29T12:01:30Z</time></trkpt><trkpt lat="39.1356514522021" lon="16.08384358836681"><ele>63.0</ele><time>2026-03-29T12:01:31Z</time></trkpt><trkpt lat="39.13565860761779" lon="16.083646895265947"><ele>63.0</ele><time>2026-03-29T12:01:32Z</time></trkpt><trkpt lat="39.13568091053193" lon="16.083453279657096"><ele>63.0</ele><time>2026-03-29T12:01:33Z</time></trkpt><trkpt lat="39.13571641106552" lon="16.083263285363532"><ele>63.0</ele><time>2026-03-29T12:01:34Z</time></trkpt><trkpt lat="39.1357644599144" lon="16.083077322079046"><ele>62.0</ele><time>2026-03-29T12:01:35Z</time></trkpt><trkpt lat="39.13582282646378" lon="16.082892780462945"><ele>61.0</ele><time>2026-03-29T12:01:36Z</time></trkpt><trkpt lat="39.13589420502059" lon="16.082716310196055"><ele>60.0</ele><time>2026-03-29T12:01:37Z</time></trkpt><trkpt lat="39.135977968732746" lon="16.082545683505774"><ele>67.0</ele><time>2026-03-29T12:01:38Z</time></trkpt><trkpt lat="39.13606589402786" lon="16.082376008477453"><ele>74.0</ele><time>2026-03-29T12:01:39Z</time></trkpt><trkpt lat="39.13615491476153" lon="16.08220829228718"><ele>81.0</ele><time>2026-03-29T12:01:40Z</time></trkpt><trkpt lat="39.136243949224486" lon="16.082041109311383"><ele>81.0</ele><time>2026-03-29T12:01:41Z</time></trkpt><trkpt lat="39.13633336069971" lon="16.081873375828465"><ele>81.0</ele><time>2026-03-29T12:01:42Z</time></trkpt><trkpt lat="39.1364225836177" lon="16.081707280185608"><ele>81.0</ele><time>2026-03-29T12:01:43Z</time></trkpt><trkpt lat="39.13651207260759" lon="16.081543895814654"><ele>72.0</ele><time>2026-03-29T12:01:44Z</time></trkpt><trkpt lat="39.13660003880086" lon="16.081387351965734"><ele>63.0</ele><time>2026-03-29T12:01:45Z</time></trkpt><trkpt lat="39.13668293830171" lon="16.081241343846806"><ele>54.0</ele><time>2026-03-29T12:01:46Z</time></trkpt><trkpt lat="39.13676160504133" lon="16.081106066793613"><ele>45.0</ele><time>2026-03-29T12:01:47Z</time></trkpt><trkpt lat="39.13683212896584" lon="16.08098714429128"><ele>45.0</ele><time>2026-03-29T12:01:48Z</time></trkpt><trkpt lat="39.136892421636944" lon="16.080886635327442"><ele>45.0</ele><time>2026-03-29T12:01:49Z</time></trkpt><trkpt lat="39.13694067526173" lon="16.08080963651254"><ele>45.0</ele><time>2026-03-29T12:01:50Z</time></trkpt><trkpt lat="39.136994148059465" lon="16.080721737693327"><ele>45.0</ele><time>2026-03-29T12:01:52Z</time></trkpt><trkpt lat="39.137039881790194" lon="16.080642971388013"><ele>45.0</ele><time>2026-03-29T12:02:00Z</time></trkpt><trkpt lat="39.13698720170785" lon="16.080576926279996"><ele>45.0</ele><time>2026-03-29T12:02:01Z</time></trkpt><trkpt lat="39.136924416279676" lon="16.080503855140087"><ele>45.4</ele><time>2026-03-29T12:02:03Z</time></trkpt><trkpt lat="39.136869131686105" lon="16.080383326457564"><ele>45.8</ele><time>2026-03-29T12:02:05Z</time></trkpt><trkpt lat="39.136851091784564" lon="16.080235151986784"><ele>46.2</ele><time>2026-03-29T12:02:07Z</time></trkpt><trkpt lat="39.1368270262778" lon="16.08008385526127"><ele>46.6</ele><time>2026-03-29T12:02:09Z</time></trkpt><trkpt lat="39.13679559523054" lon="16.080007200838303"><ele>47.0</ele><time>2026-03-29T12:02:10Z</time></trkpt><trkpt lat="39.13675701732211" lon="16.079936121236386"><ele>47.83333333333333</ele><time>2026-03-29T12:02:11Z</time></trkpt><trkpt lat="39.136721852290975" lon="16.07986008753801"><ele>48.666666666666664</ele><time>2026-03-29T12:02:12Z</time></trkpt><trkpt lat="39.136688472691944" lon="16.079786621096186"><ele>49.5</ele><time>2026-03-29T12:02:13Z</time></trkpt><trkpt lat="39.136658785921526" lon="16.079713343618998"><ele>50.33333333333333</ele><time>2026-03-29T12:02:14Z</time></trkpt><trkpt lat="39.13662446497755" lon="16.079577469608836"><ele>51.166666666666664</ele><time>2026-03-29T12:02:16Z</time></trkpt><trkpt lat="39.13658458449042" lon="16.079434157420163"><ele>52.0</ele><time>2026-03-29T12:02:18Z</time></trkpt><trkpt lat="39.136492233889186" lon="16.079324436142564"><ele>52.49999999999999</ele><time>2026-03-29T12:02:20Z</time></trkpt><trkpt lat="39.13644200924379" lon="16.079265155489196"><ele>53.0</ele><time>2026-03-29T12:02:21Z</time></trkpt><trkpt lat="39.136395085992795" lon="16.07920758664039"><ele>53.5</ele><time>2026-03-29T12:02:22Z</time></trkpt><trkpt lat="39.136323856309495" lon="16.079111937398544"><ele>54.0</ele><time>2026-03-29T12:02:24Z</time></trkpt><trkpt lat="39.13627050426599" lon="16.079037482736428"><ele>54.49999999999999</ele><time>2026-03-29T12:02:26Z</time></trkpt><trkpt lat="39.13622111207722" lon="16.078964793781687"><ele>55.0</ele><time>2026-03-29T12:02:28Z</time></trkpt><trkpt lat="39.1361698105911" lon="16.078893983507772"><ele>53.99999999999999</ele><time>2026-03-29T12:02:30Z</time></trkpt><trkpt lat="39.136133956637444" lon="16.07879071393254"><ele>53.0</ele><time>2026-03-29T12:02:33Z</time></trkpt><trkpt lat="39.136106301711564" lon="16.07871062580614"><ele>52.0</ele><time>2026-03-29T12:02:34.999Z</time></trkpt><trkpt lat="39.13599559261641" lon="16.078727413734907"><ele>51.0</ele><time>2026-03-29T12:02:36.999Z</time></trkpt><trkpt lat="39.13592885222505" lon="16.078783932947836"><ele>49.99999999999999</ele><time>2026-03-29T12:02:38.999Z</time></trkpt><trkpt lat="39.13585526774017" lon="16.078811051095165"><ele>49.0</ele><time>2026-03-29T12:02:40.999Z</time></trkpt><trkpt lat="39.13576211835905" lon="16.078832523077608"><ele>47.400000000000006</ele><time>2026-03-29T12:02:42.999Z</time></trkpt><trkpt lat="39.135662140955446" lon="16.07885500478373"><ele>45.8</ele><time>2026-03-29T12:02:44.999Z</time></trkpt><trkpt lat="39.13557462304626" lon="16.07887206751881"><ele>44.2</ele><time>2026-03-29T12:02:46.999Z</time></trkpt><trkpt lat="39.13548447589004" lon="16.07889091301766"><ele>42.599999999999994</ele><time>2026-03-29T12:02:49.999Z</time></trkpt><trkpt lat="39.135413500177826" lon="16.078856324985185"><ele>41.0</ele><time>2026-03-29T12:02:51.999Z</time></trkpt><trkpt lat="39.13528584035211" lon="16.07895671409395"><ele>40.99999999999999</ele><time>2026-03-29T12:02:53.999Z</time></trkpt><trkpt lat="39.135229738839456" lon="16.078998835348354"><ele>41.0</ele><time>2026-03-29T12:02:54.999Z</time></trkpt><trkpt lat="39.13516830816451" lon="16.079036201604804"><ele>41.0</ele><time>2026-03-29T12:02:55.999Z</time></trkpt><trkpt lat="39.13510745744701" lon="16.07908944306391"><ele>41.0</ele><time>2026-03-29T12:02:56.999Z</time></trkpt><trkpt lat="39.13504353101522" lon="16.079131496573847"><ele>41.0</ele><time>2026-03-29T12:02:57.999Z</time></trkpt><trkpt lat="39.13497658377808" lon="16.079177787470478"><ele>40.99999999999999</ele><time>2026-03-29T12:02:58.999Z</time></trkpt><trkpt lat="39.13491057028282" lon="16.079226658559076"><ele>41.0</ele><time>2026-03-29T12:02:59.999Z</time></trkpt><trkpt lat="39.134842245606734" lon="16.079275954808324"><ele>41.166666666666664</ele><time>2026-03-29T12:03:00.999Z</time></trkpt><trkpt lat="39.13477766553199" lon="16.079331041991487"><ele>41.33333333333333</ele><time>2026-03-29T12:03:01.999Z</time></trkpt><trkpt lat="39.134719972924046" lon="16.079393656567092"><ele>41.5</ele><time>2026-03-29T12:03:02.999Z</time></trkpt><trkpt lat="39.1346644557282" lon="16.07946238579993"><ele>41.666666666666664</ele><time>2026-03-29T12:03:03.999Z</time></trkpt><trkpt lat="39.13461127410892" lon="16.079532149248823"><ele>41.833333333333336</ele><time>2026-03-29T12:03:04.999Z</time></trkpt><trkpt lat="39.13455966996588" lon="16.079603837605905"><ele>42.0</ele><time>2026-03-29T12:03:05.999Z</time></trkpt><trkpt lat="39.13450954458639" lon="16.079680587982068"><ele>42.0</ele><time>2026-03-29T12:03:06.999Z</time></trkpt><trkpt lat="39.134459106901325" lon="16.079755495882168"><ele>42.0</ele><time>2026-03-29T12:03:07.999Z</time></trkpt><trkpt lat="39.13440522531542" lon="16.079827310305674"><ele>42.0</ele><time>2026-03-29T12:03:08.999Z</time></trkpt><trkpt lat="39.134350083221776" lon="16.079899395533374"><ele>42.0</ele><time>2026-03-29T12:03:09.999Z</time></trkpt><trkpt lat="39.13429499485671" lon="16.079969555955227"><ele>42.0</ele><time>2026-03-29T12:03:10.999Z</time></trkpt><trkpt lat="39.13424091901821" lon="16.08002682160332"><ele>42.0</ele><time>2026-03-29T12:03:11.999Z</time></trkpt><trkpt lat="39.13417588519436" lon="16.08005826195815"><ele>41.833333333333336</ele><time>2026-03-29T12:03:12.999Z</time></trkpt><trkpt lat="39.134110672641775" lon="16.080073863389543"><ele>41.666666666666664</ele><time>2026-03-29T12:03:13.999Z</time></trkpt><trkpt lat="39.133977627502794" lon="16.080045194303118"><ele>41.5</ele><time>2026-03-29T12:03:15.999Z</time></trkpt><trkpt lat="39.13390687902449" lon="16.080008898626353"><ele>41.33333333333333</ele><time>2026-03-29T12:03:16.999Z</time></trkpt><trkpt lat="39.133835900904906" lon="16.079966614669832"><ele>41.166666666666664</ele><time>2026-03-29T12:03:17.999Z</time></trkpt><trkpt lat="39.13376524946904" lon="16.079919380660755"><ele>41.0</ele><time>2026-03-29T12:03:18.999Z</time></trkpt><trkpt lat="39.13369616579845" lon="16.079876635281273"><ele>41.0</ele><time>2026-03-29T12:03:19.999Z</time></trkpt><trkpt lat="39.13363419572517" lon="16.07983168240209"><ele>41.0</ele><time>2026-03-29T12:03:20.999Z</time></trkpt><trkpt lat="39.13357759742111" lon="16.079794696454897"><ele>41.0</ele><time>2026-03-29T12:03:21.999Z</time></trkpt><trkpt lat="39.13352186316271" lon="16.079756287415876"><ele>41.0</ele><time>2026-03-29T12:03:22.999Z</time></trkpt><trkpt lat="39.13341504300098" lon="16.079679724137264"><ele>41.0</ele><time>2026-03-29T12:03:24.999Z</time></trkpt><trkpt lat="39.133309980715374" lon="16.079603917304663"><ele>41.0</ele><time>2026-03-29T12:03:27Z</time></trkpt><trkpt lat="39.13321250032182" lon="16.079560565732876"><ele>40.199999999999996</ele><time>2026-03-29T12:03:29Z</time></trkpt><trkpt lat="39.13309737375556" lon="16.079536998209136"><ele>39.4</ele><time>2026-03-29T12:03:31Z</time></trkpt><trkpt lat="39.13296702727866" lon="16.0795181450735"><ele>38.6</ele><time>2026-03-29T12:03:33Z</time></trkpt><trkpt lat="39.13289334081952" lon="16.079513599623056"><ele>37.8</ele><time>2026-03-29T12:03:34Z</time></trkpt><trkpt lat="39.13281418844512" lon="16.07950656181371"><ele>37.0</ele><time>2026-03-29T12:03:35Z</time></trkpt><trkpt lat="39.13272955032016" lon="16.079497047418343"><ele>37.0</ele><time>2026-03-29T12:03:36Z</time></trkpt><trkpt lat="39.13263810853411" lon="16.079486896211762"><ele>37.0</ele><time>2026-03-29T12:03:37Z</time></trkpt><trkpt lat="39.132537474915004" lon="16.079477551369155"><ele>37.0</ele><time>2026-03-29T12:03:38Z</time></trkpt><trkpt lat="39.132435964845946" lon="16.079467969641552"><ele>37.0</ele><time>2026-03-29T12:03:39Z</time></trkpt><trkpt lat="39.1323337378865" lon="16.07947190859764"><ele>37.0</ele><time>2026-03-29T12:03:40Z</time></trkpt><trkpt lat="39.13223177192847" lon="16.079486849698974"><ele>35.0</ele><time>2026-03-29T12:03:41Z</time></trkpt><trkpt lat="39.13213227506606" lon="16.079507096460603"><ele>33.0</ele><time>2026-03-29T12:03:42Z</time></trkpt><trkpt lat="39.13203638016445" lon="16.07953045614377"><ele>31.000000000000004</ele><time>2026-03-29T12:03:43Z</time></trkpt><trkpt lat="39.131943172587334" lon="16.07955963332556"><ele>29.0</ele><time>2026-03-29T12:03:44Z</time></trkpt><trkpt lat="39.131849830258794" lon="16.079593302164255"><ele>27.0</ele><time>2026-03-29T12:03:45Z</time></trkpt><trkpt lat="39.13175686167958" lon="16.07962583265891"><ele>27.0</ele><time>2026-03-29T12:03:46Z</time></trkpt><trkpt lat="39.1316649487761" lon="16.079666015026536"><ele>27.000000000000004</ele><time>2026-03-29T12:03:47Z</time></trkpt><trkpt lat="39.131573732711686" lon="16.079709739785393"><ele>27.000000000000004</ele><time>2026-03-29T12:03:48Z</time></trkpt><trkpt lat="39.131484400504974" lon="16.079755987430467"><ele>27.0</ele><time>2026-03-29T12:03:49Z</time></trkpt><trkpt lat="39.13139425618682" lon="16.079803201993517"><ele>27.0</ele><time>2026-03-29T12:03:50Z</time></trkpt><trkpt lat="39.13130550287209" lon="16.079853067387344"><ele>25.6</ele><time>2026-03-29T12:03:51Z</time></trkpt><trkpt lat="39.13121347944791" lon="16.079895118156315"><ele>24.200000000000003</ele><time>2026-03-29T12:03:52Z</time></trkpt><trkpt lat="39.131125019036894" lon="16.079945705779995"><ele>22.8</ele><time>2026-03-29T12:03:53Z</time></trkpt><trkpt lat="39.13103867167789" lon="16.079994095164196"><ele>21.4</ele><time>2026-03-29T12:03:54Z</time></trkpt><trkpt lat="39.13095512795492" lon="16.08004446473124"><ele>20.0</ele><time>2026-03-29T12:03:55Z</time></trkpt><trkpt lat="39.13087540452608" lon="16.080084325226462"><ele>24.833333333333336</ele><time>2026-03-29T12:03:56Z</time></trkpt><trkpt lat="39.130795829237634" lon="16.0801003716016"><ele>29.666666666666664</ele><time>2026-03-29T12:03:57Z</time></trkpt><trkpt lat="39.13072061512484" lon="16.080097828812328"><ele>34.5</ele><time>2026-03-29T12:03:58Z</time></trkpt><trkpt lat="39.13064409380824" lon="16.080085891868116"><ele>39.33333333333333</ele><time>2026-03-29T12:03:59Z</time></trkpt><trkpt lat="39.130564950018716" lon="16.080070769061738"><ele>44.166666666666664</ele><time>2026-03-29T12:04:00Z</time></trkpt><trkpt lat="39.13048374695694" lon="16.0800570102775"><ele>49.0</ele><time>2026-03-29T12:04:01Z</time></trkpt><trkpt lat="39.130400182797224" lon="16.080037472187186"><ele>49.0</ele><time>2026-03-29T12:04:02Z</time></trkpt><trkpt lat="39.130315998194924" lon="16.080030118560437"><ele>49.0</ele><time>2026-03-29T12:04:03Z</time></trkpt><trkpt lat="39.13022797573973" lon="16.08003770960118"><ele>49.0</ele><time>2026-03-29T12:04:04Z</time></trkpt><trkpt lat="39.130137617305806" lon="16.080057617257246"><ele>49.0</ele><time>2026-03-29T12:04:05Z</time></trkpt><trkpt lat="39.130046303796" lon="16.080086946480485"><ele>49.0</ele><time>2026-03-29T12:04:06Z</time></trkpt><trkpt lat="39.12995227759001" lon="16.08011437414772"><ele>47.800000000000004</ele><time>2026-03-29T12:04:07Z</time></trkpt><trkpt lat="39.12985308011809" lon="16.080145084363956"><ele>46.6</ele><time>2026-03-29T12:04:08Z</time></trkpt><trkpt lat="39.12975040014868" lon="16.080176147804625"><ele>45.4</ele><time>2026-03-29T12:04:09Z</time></trkpt><trkpt lat="39.12964445436245" lon="16.080204469771726"><ele>44.2</ele><time>2026-03-29T12:04:10Z</time></trkpt><trkpt lat="39.12953707797611" lon="16.080234704321725"><ele>43.0</ele><time>2026-03-29T12:04:11Z</time></trkpt><trkpt lat="39.129432652869205" lon="16.080272792800304"><ele>43.0</ele><time>2026-03-29T12:04:12Z</time></trkpt><trkpt lat="39.12932852478662" lon="16.080303697940025"><ele>43.0</ele><time>2026-03-29T12:04:13Z</time></trkpt><trkpt lat="39.129223109060106" lon="16.08034102334914"><ele>43.0</ele><time>2026-03-29T12:04:14Z</time></trkpt><trkpt lat="39.12911812008682" lon="16.080372962043928"><ele>43.0</ele><time>2026-03-29T12:04:15Z</time></trkpt><trkpt lat="39.12901381334808" lon="16.080403746345773"><ele>43.0</ele><time>2026-03-29T12:04:16Z</time></trkpt><trkpt lat="39.12890819740024" lon="16.080427808638944"><ele>42.599999999999994</ele><time>2026-03-29T12:04:17Z</time></trkpt><trkpt lat="39.12880659674214" lon="16.08043604746052"><ele>42.199999999999996</ele><time>2026-03-29T12:04:18Z</time></trkpt><trkpt lat="39.128710693997206" lon="16.08041473557041"><ele>41.8</ele><time>2026-03-29T12:04:19Z</time></trkpt><trkpt lat="39.128615213427956" lon="16.08037171083772"><ele>41.4</ele><time>2026-03-29T12:04:20Z</time></trkpt><trkpt lat="39.1285181778177" lon="16.08032619942325"><ele>41.0</ele><time>2026-03-29T12:04:21Z</time></trkpt><trkpt lat="39.12841981857981" lon="16.08028086324735"><ele>41.0</ele><time>2026-03-29T12:04:22Z</time></trkpt><trkpt lat="39.128321103614034" lon="16.080241516278225"><ele>41.0</ele><time>2026-03-29T12:04:23Z</time></trkpt><trkpt lat="39.12822403362996" lon="16.08020646257126"><ele>41.0</ele><time>2026-03-29T12:04:24Z</time></trkpt><trkpt lat="39.12812816206389" lon="16.080180347530018"><ele>41.0</ele><time>2026-03-29T12:04:25Z</time></trkpt><trkpt lat="39.12803432136894" lon="16.080171919949333"><ele>41.0</ele><time>2026-03-29T12:04:26Z</time></trkpt><trkpt lat="39.12794065850367" lon="16.08018886545349"><ele>40.599999999999994</ele><time>2026-03-29T12:04:27Z</time></trkpt><trkpt lat="39.127845308641504" lon="16.080222826896915"><ele>40.199999999999996</ele><time>2026-03-29T12:04:28Z</time></trkpt><trkpt lat="39.12775010291727" lon="16.080268060277998"><ele>39.8</ele><time>2026-03-29T12:04:29Z</time></trkpt><trkpt lat="39.127654562482725" lon="16.08030273833954"><ele>39.4</ele><time>2026-03-29T12:04:30Z</time></trkpt><trkpt lat="39.12755998281219" lon="16.080340721832567"><ele>39.0</ele><time>2026-03-29T12:04:31Z</time></trkpt><trkpt lat="39.12747075732184" lon="16.080376410429178"><ele>38.2</ele><time>2026-03-29T12:04:32Z</time></trkpt><trkpt lat="39.12737781493681" lon="16.080409384678354"><ele>37.4</ele><time>2026-03-29T12:04:33Z</time></trkpt><trkpt lat="39.12728971552279" lon="16.080444835999224"><ele>36.6</ele><time>2026-03-29T12:04:34Z</time></trkpt><trkpt lat="39.127200861655226" lon="16.08047837046785"><ele>35.8</ele><time>2026-03-29T12:04:35Z</time></trkpt><trkpt lat="39.12711402677113" lon="16.080510753790794"><ele>35.0</ele><time>2026-03-29T12:04:36Z</time></trkpt><trkpt lat="39.12703229357148" lon="16.080545095160915"><ele>35.0</ele><time>2026-03-29T12:04:36.999Z</time></trkpt><trkpt lat="39.12695156669052" lon="16.080576421569443"><ele>35.0</ele><time>2026-03-29T12:04:37.999Z</time></trkpt><trkpt lat="39.12687030323458" lon="16.080607642370136"><ele>35.0</ele><time>2026-03-29T12:04:38.999Z</time></trkpt><trkpt lat="39.126789360048015" lon="16.080637913367458"><ele>35.0</ele><time>2026-03-29T12:04:39.999Z</time></trkpt><trkpt lat="39.12671082074783" lon="16.08066811689671"><ele>35.0</ele><time>2026-03-29T12:04:40.999Z</time></trkpt><trkpt lat="39.12663405051363" lon="16.080696804098945"><ele>35.0</ele><time>2026-03-29T12:04:41.999Z</time></trkpt><trkpt lat="39.126561607378065" lon="16.08072111231982"><ele>34.6</ele><time>2026-03-29T12:04:42.999Z</time></trkpt><trkpt lat="39.12649151182738" lon="16.08073902295783"><ele>34.2</ele><time>2026-03-29T12:04:43.999Z</time></trkpt><trkpt lat="39.126423970425755" lon="16.080753793956145"><ele>33.8</ele><time>2026-03-29T12:04:44.999Z</time></trkpt><trkpt lat="39.12630961867696" lon="16.080763193982243"><ele>33.4</ele><time>2026-03-29T12:04:46.999Z</time></trkpt><trkpt lat="39.12620114488684" lon="16.08075945097529"><ele>33.0</ele><time>2026-03-29T12:04:48.999Z</time></trkpt><trkpt lat="39.126072931639726" lon="16.080748662467197"><ele>33.0</ele><time>2026-03-29T12:04:50.999Z</time></trkpt><trkpt lat="39.12600411320228" lon="16.080743078990903"><ele>33.0</ele><time>2026-03-29T12:04:51.999Z</time></trkpt><trkpt lat="39.12593203225097" lon="16.080737463706267"><ele>33.0</ele><time>2026-03-29T12:04:52.999Z</time></trkpt><trkpt lat="39.12585625502299" lon="16.08074123384925"><ele>33.0</ele><time>2026-03-29T12:04:53.999Z</time></trkpt><trkpt lat="39.12577651337802" lon="16.08075036202436"><ele>33.0</ele><time>2026-03-29T12:04:54.999Z</time></trkpt><trkpt lat="39.125694061839894" lon="16.080763865344185"><ele>33.0</ele><time>2026-03-29T12:04:55.999Z</time></trkpt><trkpt lat="39.12560928635636" lon="16.080779053883372"><ele>36.4</ele><time>2026-03-29T12:04:56.999Z</time></trkpt><trkpt lat="39.12551893842972" lon="16.080793925574003"><ele>39.8</ele><time>2026-03-29T12:04:57.999Z</time></trkpt><trkpt lat="39.125426233271774" lon="16.080802298620455"><ele>43.2</ele><time>2026-03-29T12:04:58.999Z</time></trkpt><trkpt lat="39.12533240746203" lon="16.08082293778561"><ele>46.6</ele><time>2026-03-29T12:04:59.999Z</time></trkpt><trkpt lat="39.125239635448395" lon="16.080845721506112"><ele>50.0</ele><time>2026-03-29T12:05:00.999Z</time></trkpt><trkpt lat="39.12514793346115" lon="16.080868469620906"><ele>50.0</ele><time>2026-03-29T12:05:01.999Z</time></trkpt><trkpt lat="39.12505256125789" lon="16.080887390526556"><ele>50.0</ele><time>2026-03-29T12:05:02.999Z</time></trkpt><trkpt lat="39.124956450821315" lon="16.080905826039366"><ele>50.0</ele><time>2026-03-29T12:05:03.999Z</time></trkpt><trkpt lat="39.12486399745338" lon="16.080928323357085"><ele>50.0</ele><time>2026-03-29T12:05:04.999Z</time></trkpt><trkpt lat="39.124775043622265" lon="16.08094382981783"><ele>50.0</ele><time>2026-03-29T12:05:05.999Z</time></trkpt><trkpt lat="39.12468680877968" lon="16.080962185876295"><ele>48.50000000000001</ele><time>2026-03-29T12:05:06.999Z</time></trkpt><trkpt lat="39.12460659753063" lon="16.080994720216946"><ele>47.0</ele><time>2026-03-29T12:05:07.999Z</time></trkpt><trkpt lat="39.124530338979106" lon="16.0810435930713"><ele>45.5</ele><time>2026-03-29T12:05:08.999Z</time></trkpt><trkpt lat="39.12445587476811" lon="16.081098248038767"><ele>44.0</ele><time>2026-03-29T12:05:09.999Z</time></trkpt><trkpt lat="39.12438494205304" lon="16.081158138796805"><ele>42.5</ele><time>2026-03-29T12:05:10.999Z</time></trkpt><trkpt lat="39.124312574254546" lon="16.081216401848085"><ele>41.0</ele><time>2026-03-29T12:05:11.999Z</time></trkpt><trkpt lat="39.124240990416496" lon="16.081266663046634"><ele>41.0</ele><time>2026-03-29T12:05:12.999Z</time></trkpt><trkpt lat="39.124164674190396" lon="16.081320201268248"><ele>41.0</ele><time>2026-03-29T12:05:13.999Z</time></trkpt><trkpt lat="39.124086467101954" lon="16.08136928497204"><ele>41.0</ele><time>2026-03-29T12:05:14.999Z</time></trkpt><trkpt lat="39.12400890672546" lon="16.081414245530937"><ele>41.0</ele><time>2026-03-29T12:05:15.999Z</time></trkpt><trkpt lat="39.12393187557974" lon="16.081442985130185"><ele>41.0</ele><time>2026-03-29T12:05:16.999Z</time></trkpt><trkpt lat="39.12385246275603" lon="16.081464352854745"><ele>41.0</ele><time>2026-03-29T12:05:17.999Z</time></trkpt><trkpt lat="39.123768848797994" lon="16.08147248855473"><ele>40.666666666666664</ele><time>2026-03-29T12:05:18.999Z</time></trkpt><trkpt lat="39.12368342644324" lon="16.08147450410695"><ele>40.33333333333333</ele><time>2026-03-29T12:05:19.999Z</time></trkpt><trkpt lat="39.123597364342565" lon="16.081471651291338"><ele>40.0</ele><time>2026-03-29T12:05:20.999Z</time></trkpt><trkpt lat="39.12351566610597" lon="16.081463114397046"><ele>39.666666666666664</ele><time>2026-03-29T12:05:21.999Z</time></trkpt><trkpt lat="39.12344151643234" lon="16.081442611922892"><ele>39.333333333333336</ele><time>2026-03-29T12:05:22.999Z</time></trkpt><trkpt lat="39.123369572196815" lon="16.081409285448004"><ele>39.0</ele><time>2026-03-29T12:05:23.999Z</time></trkpt><trkpt lat="39.123296111952435" lon="16.08137195124488"><ele>39.833333333333336</ele><time>2026-03-29T12:05:24.999Z</time></trkpt><trkpt lat="39.123220048341025" lon="16.08133260036963"><ele>40.666666666666664</ele><time>2026-03-29T12:05:25.999Z</time></trkpt><trkpt lat="39.12314283534952" lon="16.081289065507452"><ele>41.5</ele><time>2026-03-29T12:05:26.999Z</time></trkpt><trkpt lat="39.12306389365401" lon="16.081244118191265"><ele>42.33333333333333</ele><time>2026-03-29T12:05:27.999Z</time></trkpt><trkpt lat="39.12298331877212" lon="16.081199177993568"><ele>43.166666666666664</ele><time>2026-03-29T12:05:28.999Z</time></trkpt><trkpt lat="39.1229062354826" lon="16.081153650763632"><ele>44.0</ele><time>2026-03-29T12:05:29.999Z</time></trkpt><trkpt lat="39.12283206860742" lon="16.081109763913837"><ele>44.0</ele><time>2026-03-29T12:05:30.999Z</time></trkpt><trkpt lat="39.12275610975495" lon="16.081065798912018"><ele>44.0</ele><time>2026-03-29T12:05:31.999Z</time></trkpt><trkpt lat="39.12268026627054" lon="16.081020041216824"><ele>44.0</ele><time>2026-03-29T12:05:33Z</time></trkpt><trkpt lat="39.122605293916976" lon="16.080975071604517"><ele>44.0</ele><time>2026-03-29T12:05:34Z</time></trkpt><trkpt lat="39.122527832806455" lon="16.080928015649526"><ele>44.0</ele><time>2026-03-29T12:05:35Z</time></trkpt><trkpt lat="39.12244801040333" lon="16.08088348192375"><ele>44.0</ele><time>2026-03-29T12:05:36Z</time></trkpt><trkpt lat="39.122367566465925" lon="16.080836073019935"><ele>45.33333333333333</ele><time>2026-03-29T12:05:37Z</time></trkpt><trkpt lat="39.1222890124637" lon="16.080790032986854"><ele>46.666666666666664</ele><time>2026-03-29T12:05:38Z</time></trkpt><trkpt lat="39.12221130978247" lon="16.080742970432773"><ele>48.0</ele><time>2026-03-29T12:05:39Z</time></trkpt><trkpt lat="39.122132538021674" lon="16.080695771868225"><ele>49.33333333333333</ele><time>2026-03-29T12:05:40Z</time></trkpt><trkpt lat="39.12205065478146" lon="16.080646643198186"><ele>50.666666666666664</ele><time>2026-03-29T12:05:41Z</time></trkpt><trkpt lat="39.12196687309577" lon="16.080595516711647"><ele>52.0</ele><time>2026-03-29T12:05:42Z</time></trkpt><trkpt lat="39.12188421596328" lon="16.080549133728624"><ele>48.99999999999999</ele><time>2026-03-29T12:05:43Z</time></trkpt><trkpt lat="39.12180075480682" lon="16.080510376789853"><ele>46.0</ele><time>2026-03-29T12:05:44Z</time></trkpt><trkpt lat="39.1217175382944" lon="16.080485913985154"><ele>43.0</ele><time>2026-03-29T12:05:45Z</time></trkpt><trkpt lat="39.12163177661829" lon="16.080490830888547"><ele>40.0</ele><time>2026-03-29T12:05:46Z</time></trkpt><trkpt lat="39.12154731682478" lon="16.080516613699253"><ele>37.0</ele><time>2026-03-29T12:05:47Z</time></trkpt><trkpt lat="39.12146232686517" lon="16.080551530041525"><ele>34.0</ele><time>2026-03-29T12:05:48Z</time></trkpt><trkpt lat="39.12137604345222" lon="16.080593040169386"><ele>33.0</ele><time>2026-03-29T12:05:49Z</time></trkpt><trkpt lat="39.12128927973459" lon="16.08064306196201"><ele>32.0</ele><time>2026-03-29T12:05:50Z</time></trkpt><trkpt lat="39.12119809541896" lon="16.08069508789121"><ele>31.0</ele><time>2026-03-29T12:05:51Z</time></trkpt><trkpt lat="39.1211060779031" lon="16.080747125755227"><ele>30.0</ele><time>2026-03-29T12:05:52Z</time></trkpt><trkpt lat="39.12101499183008" lon="16.0807977152004"><ele>29.0</ele><time>2026-03-29T12:05:53Z</time></trkpt><trkpt lat="39.12092361988007" lon="16.080853050617293"><ele>30.799999999999997</ele><time>2026-03-29T12:05:54Z</time></trkpt><trkpt lat="39.12082891098663" lon="16.080908286154763"><ele>32.599999999999994</ele><time>2026-03-29T12:05:55Z</time></trkpt><trkpt lat="39.120736847715946" lon="16.08096343908228"><ele>34.4</ele><time>2026-03-29T12:05:56Z</time></trkpt><trkpt lat="39.12064789441133" lon="16.08101766899292"><ele>36.199999999999996</ele><time>2026-03-29T12:05:57Z</time></trkpt><trkpt lat="39.120559221326005" lon="16.081069796928947"><ele>38.0</ele><time>2026-03-29T12:05:58Z</time></trkpt><trkpt lat="39.12047503588372" lon="16.081120187171734"><ele>38.0</ele><time>2026-03-29T12:05:59Z</time></trkpt><trkpt lat="39.120392484338446" lon="16.081169591982462"><ele>38.0</ele><time>2026-03-29T12:06:00Z</time></trkpt><trkpt lat="39.12031267857738" lon="16.08121889707287"><ele>38.0</ele><time>2026-03-29T12:06:01Z</time></trkpt><trkpt lat="39.12023170419465" lon="16.081267870528716"><ele>38.0</ele><time>2026-03-29T12:06:02Z</time></trkpt><trkpt lat="39.12015058003605" lon="16.08131975277124"><ele>38.0</ele><time>2026-03-29T12:06:03Z</time></trkpt><trkpt lat="39.1200708066198" lon="16.081367374092867"><ele>38.0</ele><time>2026-03-29T12:06:04Z</time></trkpt><trkpt lat="39.11998460420928" lon="16.08139695958144"><ele>38.199999999999996</ele><time>2026-03-29T12:06:05Z</time></trkpt><trkpt lat="39.11989484205979" lon="16.081421218066474"><ele>38.4</ele><time>2026-03-29T12:06:06Z</time></trkpt><trkpt lat="39.119801991280845" lon="16.081434130052145"><ele>38.599999999999994</ele><time>2026-03-29T12:06:07Z</time></trkpt><trkpt lat="39.11970603757523" lon="16.081440750636045"><ele>38.8</ele><time>2026-03-29T12:06:08Z</time></trkpt><trkpt lat="39.11960736067374" lon="16.081448226352578"><ele>39.0</ele><time>2026-03-29T12:06:09Z</time></trkpt><trkpt lat="39.11950298955312" lon="16.081453780375455"><ele>39.0</ele><time>2026-03-29T12:06:10Z</time></trkpt><trkpt lat="39.11939883235793" lon="16.08146575101622"><ele>39.0</ele><time>2026-03-29T12:06:11Z</time></trkpt><trkpt lat="39.119293950847144" lon="16.08147985965516"><ele>39.0</ele><time>2026-03-29T12:06:12Z</time></trkpt><trkpt lat="39.11918658983357" lon="16.08149041084982"><ele>39.0</ele><time>2026-03-29T12:06:13Z</time></trkpt><trkpt lat="39.11907686433907" lon="16.081499185390243"><ele>39.0</ele><time>2026-03-29T12:06:14Z</time></trkpt><trkpt lat="39.11896658671793" lon="16.081510033339494"><ele>37.8</ele><time>2026-03-29T12:06:15Z</time></trkpt><trkpt lat="39.118855620977406" lon="16.081522534876576"><ele>36.599999999999994</ele><time>2026-03-29T12:06:16Z</time></trkpt><trkpt lat="39.11874743981359" lon="16.081537008239494"><ele>35.4</ele><time>2026-03-29T12:06:17Z</time></trkpt><trkpt lat="39.11863974731436" lon="16.08154917884982"><ele>34.199999999999996</ele><time>2026-03-29T12:06:18Z</time></trkpt><trkpt lat="39.118535021033495" lon="16.08155876806722"><ele>33.0</ele><time>2026-03-29T12:06:19Z</time></trkpt><trkpt lat="39.11842992918311" lon="16.08157001258834"><ele>33.0</ele><time>2026-03-29T12:06:20Z</time></trkpt><trkpt lat="39.11832572191632" lon="16.081579813529363"><ele>33.0</ele><time>2026-03-29T12:06:21Z</time></trkpt><trkpt lat="39.11822194123205" lon="16.081589636321308"><ele>33.0</ele><time>2026-03-29T12:06:22Z</time></trkpt><trkpt lat="39.118122041577145" lon="16.08159831683592"><ele>33.0</ele><time>2026-03-29T12:06:23Z</time></trkpt><trkpt lat="39.118023031413735" lon="16.081608864975635"><ele>33.0</ele><time>2026-03-29T12:06:24Z</time></trkpt><trkpt lat="39.1179240157306" lon="16.08161966101493"><ele>34.8</ele><time>2026-03-29T12:06:25Z</time></trkpt><trkpt lat="39.11782543910998" lon="16.081628909232737"><ele>36.599999999999994</ele><time>2026-03-29T12:06:26Z</time></trkpt><trkpt lat="39.117727157186486" lon="16.081636676573723"><ele>38.400000000000006</ele><time>2026-03-29T12:06:27Z</time></trkpt><trkpt lat="39.117629954758236" lon="16.081645061123265"><ele>40.2</ele><time>2026-03-29T12:06:28Z</time></trkpt><trkpt lat="39.117533431878805" lon="16.081655102504833"><ele>42.0</ele><time>2026-03-29T12:06:29Z</time></trkpt><trkpt lat="39.11743455799025" lon="16.081663773293805"><ele>42.400000000000006</ele><time>2026-03-29T12:06:29.999Z</time></trkpt><trkpt lat="39.117335082701324" lon="16.08167186508595"><ele>42.800000000000004</ele><time>2026-03-29T12:06:30.999Z</time></trkpt><trkpt lat="39.11723632536898" lon="16.08168332098093"><ele>43.2</ele><time>2026-03-29T12:06:31.999Z</time></trkpt><trkpt lat="39.11713932868725" lon="16.081693495937643"><ele>43.6</ele><time>2026-03-29T12:06:32.999Z</time></trkpt><trkpt lat="39.11704316903223" lon="16.08170542532147"><ele>44.0</ele><time>2026-03-29T12:06:33.999Z</time></trkpt><trkpt lat="39.11694276382801" lon="16.081718875375458"><ele>44.0</ele><time>2026-03-29T12:06:34.999Z</time></trkpt><trkpt lat="39.11684360200493" lon="16.08173100615323"><ele>44.0</ele><time>2026-03-29T12:06:35.999Z</time></trkpt><trkpt lat="39.116745674671314" lon="16.08173940008811"><ele>44.0</ele><time>2026-03-29T12:06:36.999Z</time></trkpt><trkpt lat="39.11664786725516" lon="16.081750428483698"><ele>44.0</ele><time>2026-03-29T12:06:37.999Z</time></trkpt><trkpt lat="39.11654925976923" lon="16.08176058971835"><ele>44.0</ele><time>2026-03-29T12:06:38.999Z</time></trkpt><trkpt lat="39.11645222451081" lon="16.081768632831047"><ele>43.400000000000006</ele><time>2026-03-29T12:06:39.999Z</time></trkpt><trkpt lat="39.11635582452783" lon="16.081777254052678"><ele>42.8</ele><time>2026-03-29T12:06:40.999Z</time></trkpt><trkpt lat="39.11625933115529" lon="16.081784569247997"><ele>42.2</ele><time>2026-03-29T12:06:41.999Z</time></trkpt><trkpt lat="39.11616484949973" lon="16.081790255673504"><ele>41.599999999999994</ele><time>2026-03-29T12:06:42.999Z</time></trkpt><trkpt lat="39.11607001154357" lon="16.08179468633047"><ele>41.0</ele><time>2026-03-29T12:06:43.999Z</time></trkpt><trkpt lat="39.115976203251755" lon="16.081796355922634"><ele>41.0</ele><time>2026-03-29T12:06:44.999Z</time></trkpt><trkpt lat="39.11588248385507" lon="16.081801036182313"><ele>41.0</ele><time>2026-03-29T12:06:45.999Z</time></trkpt><trkpt lat="39.11578845256304" lon="16.08180310489142"><ele>41.0</ele><time>2026-03-29T12:06:46.999Z</time></trkpt><trkpt lat="39.11569130432482" lon="16.081809962252816"><ele>41.0</ele><time>2026-03-29T12:06:47.999Z</time></trkpt><trkpt lat="39.11559312866025" lon="16.0818165325569"><ele>41.0</ele><time>2026-03-29T12:06:48.999Z</time></trkpt><trkpt lat="39.11549312804605" lon="16.0818164986111"><ele>40.199999999999996</ele><time>2026-03-29T12:06:49.999Z</time></trkpt><trkpt lat="39.115396705763466" lon="16.081823865225104"><ele>39.4</ele><time>2026-03-29T12:06:50.999Z</time></trkpt><trkpt lat="39.11530100584746" lon="16.081833464178654"><ele>38.6</ele><time>2026-03-29T12:06:51.999Z</time></trkpt><trkpt lat="39.115206121799375" lon="16.08184287629824"><ele>37.8</ele><time>2026-03-29T12:06:52.999Z</time></trkpt><trkpt lat="39.11511298650069" lon="16.081848730362815"><ele>37.0</ele><time>2026-03-29T12:06:53.999Z</time></trkpt><trkpt lat="39.11502168147702" lon="16.08185380170928"><ele>37.0</ele><time>2026-03-29T12:06:54.999Z</time></trkpt><trkpt lat="39.114931657673054" lon="16.081856423070818"><ele>37.0</ele><time>2026-03-29T12:06:55.999Z</time></trkpt><trkpt lat="39.11484443613313" lon="16.081847897427785"><ele>37.0</ele><time>2026-03-29T12:06:56.999Z</time></trkpt><trkpt lat="39.11475668241518" lon="16.08181869911931"><ele>37.0</ele><time>2026-03-29T12:06:57.999Z</time></trkpt><trkpt lat="39.11467822640855" lon="16.08177014820968"><ele>37.0</ele><time>2026-03-29T12:06:58.999Z</time></trkpt><trkpt lat="39.11460130652019" lon="16.081702325390403"><ele>37.0</ele><time>2026-03-29T12:06:59.999Z</time></trkpt><trkpt lat="39.114529267749035" lon="16.08161967159619"><ele>35.6</ele><time>2026-03-29T12:07:00.999Z</time></trkpt><trkpt lat="39.11446059340318" lon="16.08153609645842"><ele>34.2</ele><time>2026-03-29T12:07:01.999Z</time></trkpt><trkpt lat="39.11439354693565" lon="16.081453542188196"><ele>32.8</ele><time>2026-03-29T12:07:02.999Z</time></trkpt><trkpt lat="39.114325849250946" lon="16.08137439498682"><ele>31.4</ele><time>2026-03-29T12:07:03.999Z</time></trkpt><trkpt lat="39.11425900917125" lon="16.081298100398215"><ele>30.0</ele><time>2026-03-29T12:07:04.999Z</time></trkpt><trkpt lat="39.11419755739238" lon="16.08122542262528"><ele>30.0</ele><time>2026-03-29T12:07:05.999Z</time></trkpt><trkpt lat="39.114146168841046" lon="16.081165130069945"><ele>30.0</ele><time>2026-03-29T12:07:06.999Z</time></trkpt><trkpt lat="39.11407699000963" lon="16.081085079044318"><ele>30.0</ele><time>2026-03-29T12:07:08.999Z</time></trkpt><trkpt lat="39.114068042594454" lon="16.080996737005083"><ele>30.0</ele><time>2026-03-29T12:07:11.999Z</time></trkpt><trkpt lat="39.11412257290024" lon="16.080930212301848"><ele>30.0</ele><time>2026-03-29T12:07:13.999Z</time></trkpt><trkpt lat="39.11414571077069" lon="16.080823314297497"><ele>30.0</ele><time>2026-03-29T12:07:15.999Z</time></trkpt><trkpt lat="39.11418247221942" lon="16.080743308176267"><ele>27.166666666666668</ele><time>2026-03-29T12:07:17.999Z</time></trkpt><trkpt lat="39.11421992201476" lon="16.080655127200043"><ele>24.333333333333332</ele><time>2026-03-29T12:07:20.999Z</time></trkpt><trkpt lat="39.11425585892992" lon="16.08054624985965"><ele>21.5</ele><time>2026-03-29T12:07:23.999Z</time></trkpt><trkpt lat="39.11421076431749" lon="16.080470372421505"><ele>18.666666666666664</ele><time>2026-03-29T12:07:25.999Z</time></trkpt><trkpt lat="39.11419027852256" lon="16.080371035523093"><ele>15.833333333333332</ele><time>2026-03-29T12:07:28.999Z</time></trkpt><trkpt lat="39.11425742962895" lon="16.080324329036642"><ele>13.0</ele><time>2026-03-29T12:07:30.999Z</time></trkpt><trkpt lat="39.11436024480092" lon="16.080289510217483"><ele>12.999999999999998</ele><time>2026-03-29T12:07:32.999Z</time></trkpt><trkpt lat="39.114451383373655" lon="16.080266465762485"><ele>13.0</ele><time>2026-03-29T12:07:34.999Z</time></trkpt><trkpt lat="39.114518239781646" lon="16.08025090858597"><ele>13.0</ele><time>2026-03-29T12:07:36.999Z</time></trkpt><trkpt lat="39.114588853178205" lon="16.080235451136588"><ele>13.0</ele><time>2026-03-29T12:07:39Z</time></trkpt><trkpt lat="39.114668795060744" lon="16.080218695741017"><ele>12.999999999999998</ele><time>2026-03-29T12:07:41Z</time></trkpt><trkpt lat="39.114757655287875" lon="16.0801996409796"><ele>13.0</ele><time>2026-03-29T12:07:43Z</time></trkpt><trkpt lat="39.114855969814236" lon="16.0801714460067"><ele>13.600000000000001</ele><time>2026-03-29T12:07:45Z</time></trkpt><trkpt lat="39.11495811656912" lon="16.080122964398583"><ele>14.200000000000001</ele><time>2026-03-29T12:07:47Z</time></trkpt><trkpt lat="39.115033846837264" lon="16.080074183807014"><ele>14.8</ele><time>2026-03-29T12:07:49Z</time></trkpt><trkpt lat="39.11508960876324" lon="16.080023705102498"><ele>15.4</ele><time>2026-03-29T12:07:52Z</time></trkpt><trkpt lat="39.11510777107339" lon="16.079900563213506"><ele>16.0</ele><time>2026-03-29T12:07:55Z</time></trkpt><trkpt lat="39.11508140139352" lon="16.079776339288685"><ele>14.5</ele><time>2026-03-29T12:07:57Z</time></trkpt><trkpt lat="39.11504970066184" lon="16.07963912967026"><ele>13.0</ele><time>2026-03-29T12:07:59Z</time></trkpt><trkpt lat="39.115016034580684" lon="16.079499349182104"><ele>11.5</ele><time>2026-03-29T12:08:01Z</time></trkpt><trkpt lat="39.114981384869935" lon="16.079355798050223"><ele>10.0</ele><time>2026-03-29T12:08:03Z</time></trkpt><trkpt lat="39.114948688139066" lon="16.079203538434044"><ele>10.0</ele><time>2026-03-29T12:08:05Z</time></trkpt><trkpt lat="39.1149230676205" lon="16.079061656948614"><ele>10.0</ele><time>2026-03-29T12:08:07Z</time></trkpt><trkpt lat="39.11490003158013" lon="16.07896078727166"><ele>10.0</ele><time>2026-03-29T12:08:09Z</time></trkpt><trkpt lat="39.11486754959402" lon="16.07888973536432"><ele>10.0</ele><time>2026-03-29T12:08:11Z</time></trkpt><trkpt lat="39.11478838005026" lon="16.078869312941624"><ele>10.0</ele><time>2026-03-29T12:08:13Z</time></trkpt><trkpt lat="39.11470603765246" lon="16.0788889146806"><ele>10.0</ele><time>2026-03-29T12:08:15Z</time></trkpt><trkpt lat="39.11462827461919" lon="16.078918295321056"><ele>9.333333333333334</ele><time>2026-03-29T12:08:17Z</time></trkpt><trkpt lat="39.11456176962441" lon="16.078945724323656"><ele>8.666666666666668</ele><time>2026-03-29T12:08:19Z</time></trkpt><trkpt lat="39.11449587528807" lon="16.078972396575328"><ele>8.0</ele><time>2026-03-29T12:08:21Z</time></trkpt><trkpt lat="39.1144110036442" lon="16.079005955454992"><ele>7.333333333333334</ele><time>2026-03-29T12:08:24Z</time></trkpt><trkpt lat="39.114337928844336" lon="16.079035939863548"><ele>6.666666666666667</ele><time>2026-03-29T12:08:27Z</time></trkpt><trkpt lat="39.11427174039189" lon="16.07906443276291"><ele>6.0</ele><time>2026-03-29T12:08:30Z</time></trkpt><trkpt lat="39.11417466525857" lon="16.079103061153013"><ele>6.0</ele><time>2026-03-29T12:08:32.999Z</time></trkpt><trkpt lat="39.114088110909506" lon="16.07914338019239"><ele>6.0</ele><time>2026-03-29T12:08:34.999Z</time></trkpt><trkpt lat="39.11399912956627" lon="16.07917598739807"><ele>6.0</ele><time>2026-03-29T12:08:36.999Z</time></trkpt><trkpt lat="39.1139178838982" lon="16.079195261016025"><ele>6.0</ele><time>2026-03-29T12:08:38.999Z</time></trkpt><trkpt lat="39.11384260098223" lon="16.079084926776794"><ele>6.0</ele><time>2026-03-29T12:08:42.999Z</time></trkpt><trkpt lat="39.113826374473604" lon="16.078965435779686"><ele>6.0</ele><time>2026-03-29T12:08:44.999Z</time></trkpt><trkpt lat="39.11380835296259" lon="16.07881654986678"><ele>6.0</ele><time>2026-03-29T12:08:46.999Z</time></trkpt><trkpt lat="39.11380517615058" lon="16.078664078101646"><ele>6.0</ele><time>2026-03-29T12:08:48.999Z</time></trkpt><trkpt lat="39.1138130015214" lon="16.0785147874757"><ele>6.0</ele><time>2026-03-29T12:08:50.999Z</time></trkpt><trkpt lat="39.11382329872542" lon="16.078354959522127"><ele>5.999999999999999</ele><time>2026-03-29T12:08:52.999Z</time></trkpt><trkpt lat="39.11383073324073" lon="16.078264962413627"><ele>6.0</ele><time>2026-03-29T12:08:53.999Z</time></trkpt><trkpt lat="39.11382483223307" lon="16.078174568648567"><ele>6.0</ele><time>2026-03-29T12:08:54.999Z</time></trkpt><trkpt lat="39.1138626727575" lon="16.078087991107743"><ele>6.0</ele><time>2026-03-29T12:08:55.999Z</time></trkpt><trkpt lat="39.11387167497358" lon="16.077996656205762"><ele>6.0</ele><time>2026-03-29T12:08:56.999Z</time></trkpt><trkpt lat="39.113880667966775" lon="16.077906856785287"><ele>5.999999999999999</ele><time>2026-03-29T12:08:57.999Z</time></trkpt><trkpt lat="39.11388862301136" lon="16.07781973005101"><ele>6.0</ele><time>2026-03-29T12:08:58.999Z</time></trkpt><trkpt lat="39.1138951441842" lon="16.07773729764663"><ele>6.0</ele><time>2026-03-29T12:08:59.999Z</time></trkpt><trkpt lat="39.113902094351296" lon="16.077610478687234"><ele>6.0</ele><time>2026-03-29T12:09:01.999Z</time></trkpt><trkpt lat="39.11390891555734" lon="16.077526636706974"><ele>6.0</ele><time>2026-03-29T12:09:03.999Z</time></trkpt><trkpt lat="39.11392831227797" lon="16.07744846707704"><ele>6.0</ele><time>2026-03-29T12:09:05.999Z</time></trkpt><trkpt lat="39.11395102392686" lon="16.077343108159624"><ele>6.0</ele><time>2026-03-29T12:09:08.999Z</time></trkpt><trkpt lat="39.11384362674901" lon="16.077255659793348"><ele>6.0</ele><time>2026-03-29T12:09:11.999Z</time></trkpt><trkpt lat="39.113741595106895" lon="16.077299294532395"><ele>6.0</ele><time>2026-03-29T12:09:13.999Z</time></trkpt><trkpt lat="39.11365230879398" lon="16.077414463569387"><ele>6.0</ele><time>2026-03-29T12:09:15.999Z</time></trkpt><trkpt lat="39.11359645357965" lon="16.077467362496225"><ele>6.0</ele><time>2026-03-29T12:09:16.999Z</time></trkpt><trkpt lat="39.11353437533893" lon="16.077512833569127"><ele>6.0</ele><time>2026-03-29T12:09:17.999Z</time></trkpt><trkpt lat="39.11346708486996" lon="16.077557404520007"><ele>6.0</ele><time>2026-03-29T12:09:18.999Z</time></trkpt><trkpt lat="39.11339434083456" lon="16.077597627596813"><ele>6.0</ele><time>2026-03-29T12:09:19.999Z</time></trkpt><trkpt lat="39.11331624413423" lon="16.077635615486546"><ele>6.0</ele><time>2026-03-29T12:09:20.999Z</time></trkpt><trkpt lat="39.1132343237117" lon="16.07767339725546"><ele>6.0</ele><time>2026-03-29T12:09:21.999Z</time></trkpt><trkpt lat="39.11314918842758" lon="16.07771259482788"><ele>6.0</ele><time>2026-03-29T12:09:22.999Z</time></trkpt><trkpt lat="39.11306072099155" lon="16.07775286390563"><ele>6.0</ele><time>2026-03-29T12:09:23.999Z</time></trkpt><trkpt lat="39.112968718034615" lon="16.077795509336962"><ele>6.0</ele><time>2026-03-29T12:09:24.999Z</time></trkpt><trkpt lat="39.11287383347571" lon="16.077842282086763"><ele>6.0</ele><time>2026-03-29T12:09:25.999Z</time></trkpt><trkpt lat="39.11277863900651" lon="16.07788707417505"><ele>6.0</ele><time>2026-03-29T12:09:26.999Z</time></trkpt><trkpt lat="39.11268359775593" lon="16.077930342118034"><ele>6.0</ele><time>2026-03-29T12:09:27.999Z</time></trkpt><trkpt lat="39.112587428251004" lon="16.077971397915228"><ele>6.0</ele><time>2026-03-29T12:09:28.999Z</time></trkpt><trkpt lat="39.112485590196854" lon="16.07801091510261"><ele>6.0</ele><time>2026-03-29T12:09:29.999Z</time></trkpt><trkpt lat="39.11238176858166" lon="16.078052489227733"><ele>5.75</ele><time>2026-03-29T12:09:30.999Z</time></trkpt><trkpt lat="39.112275792698064" lon="16.078092471348427"><ele>5.5</ele><time>2026-03-29T12:09:31.999Z</time></trkpt><trkpt lat="39.112163078967626" lon="16.07813268356394"><ele>5.25</ele><time>2026-03-29T12:09:32.999Z</time></trkpt><trkpt lat="39.112043930364315" lon="16.07817291282133"><ele>5.0</ele><time>2026-03-29T12:09:33.999Z</time></trkpt><trkpt lat="39.11191948090493" lon="16.07821258812661"><ele>5.0</ele><time>2026-03-29T12:09:34.999Z</time></trkpt><trkpt lat="39.11179115241228" lon="16.078246637358923"><ele>5.0</ele><time>2026-03-29T12:09:35.999Z</time></trkpt><trkpt lat="39.11165949473584" lon="16.078278054633866"><ele>5.0</ele><time>2026-03-29T12:09:36.999Z</time></trkpt><trkpt lat="39.11152519445834" lon="16.07830611504495"><ele>5.0</ele><time>2026-03-29T12:09:37.999Z</time></trkpt><trkpt lat="39.111388026607315" lon="16.07833233258382"><ele>5.0</ele><time>2026-03-29T12:09:38.999Z</time></trkpt><trkpt lat="39.11124918036166" lon="16.07835607947384"><ele>5.0</ele><time>2026-03-29T12:09:39.999Z</time></trkpt><trkpt lat="39.11110758336319" lon="16.078376960033353"><ele>5.0</ele><time>2026-03-29T12:09:40.999Z</time></trkpt><trkpt lat="39.110962648406556" lon="16.078393104326192"><ele>5.0</ele><time>2026-03-29T12:09:41.999Z</time></trkpt><trkpt lat="39.110816947665384" lon="16.078408089770363"><ele>5.5</ele><time>2026-03-29T12:09:42.999Z</time></trkpt><trkpt lat="39.11067214365229" lon="16.07842223718673"><ele>6.0</ele><time>2026-03-29T12:09:43.999Z</time></trkpt><trkpt lat="39.110527979143434" lon="16.07843364850027"><ele>6.5</ele><time>2026-03-29T12:09:45Z</time></trkpt><trkpt lat="39.11038388923659" lon="16.078443730309253"><ele>7.0</ele><time>2026-03-29T12:09:46Z</time></trkpt><trkpt lat="39.11023892003253" lon="16.07845261192054"><ele>7.0</ele><time>2026-03-29T12:09:47Z</time></trkpt><trkpt lat="39.110094552031946" lon="16.078459507380266"><ele>7.0</ele><time>2026-03-29T12:09:48Z</time></trkpt><trkpt lat="39.10995441686163" lon="16.07846575300343"><ele>7.0</ele><time>2026-03-29T12:09:49Z</time></trkpt><trkpt lat="39.109817036170966" lon="16.07847424912311"><ele>7.0</ele><time>2026-03-29T12:09:50Z</time></trkpt><trkpt lat="39.10968236773244" lon="16.078482739466605"><ele>7.25</ele><time>2026-03-29T12:09:51Z</time></trkpt><trkpt lat="39.10954851321419" lon="16.07849230957239"><ele>7.5</ele><time>2026-03-29T12:09:52Z</time></trkpt><trkpt lat="39.10941679370444" lon="16.078501483078917"><ele>7.75</ele><time>2026-03-29T12:09:53Z</time></trkpt><trkpt lat="39.109290954590435" lon="16.078510507540514"><ele>8.0</ele><time>2026-03-29T12:09:54Z</time></trkpt><trkpt lat="39.10917482373785" lon="16.07852242961352"><ele>8.0</ele><time>2026-03-29T12:09:55Z</time></trkpt><trkpt lat="39.1090672366779" lon="16.07852857365351"><ele>8.0</ele><time>2026-03-29T12:09:56Z</time></trkpt><trkpt lat="39.10897045414763" lon="16.078516290512514"><ele>8.0</ele><time>2026-03-29T12:09:57Z</time></trkpt><trkpt lat="39.10887681922521" lon="16.078520419858123"><ele>8.0</ele><time>2026-03-29T12:09:58Z</time></trkpt><trkpt lat="39.10879762930733" lon="16.078416497022822"><ele>8.0</ele><time>2026-03-29T12:09:59Z</time></trkpt><trkpt lat="39.10872335204333" lon="16.07833906490152"><ele>6.800000000000001</ele><time>2026-03-29T12:10:00Z</time></trkpt><trkpt lat="39.10865201768607" lon="16.078249401663165"><ele>5.6000000000000005</ele><time>2026-03-29T12:10:01Z</time></trkpt><trkpt lat="39.108579960345466" lon="16.07815508212448"><ele>4.4</ele><time>2026-03-29T12:10:02Z</time></trkpt><trkpt lat="39.108494102171505" lon="16.07808959559804"><ele>3.2</ele><time>2026-03-29T12:10:03Z</time></trkpt><trkpt lat="39.10842882455903" lon="16.0779857803665"><ele>2.0</ele><time>2026-03-29T12:10:04Z</time></trkpt><trkpt lat="39.108351499987926" lon="16.077911776772346"><ele>2.0</ele><time>2026-03-29T12:10:05Z</time></trkpt><trkpt lat="39.108270767157336" lon="16.07784940297471"><ele>2.0</ele><time>2026-03-29T12:10:06Z</time></trkpt><trkpt lat="39.108187337427715" lon="16.077802508435436"><ele>2.0</ele><time>2026-03-29T12:10:07Z</time></trkpt><trkpt lat="39.10809890060637" lon="16.077785793802587"><ele>2.0</ele><time>2026-03-29T12:10:08Z</time></trkpt><trkpt lat="39.10801042918354" lon="16.077798651475685"><ele>2.0</ele><time>2026-03-29T12:10:09Z</time></trkpt><trkpt lat="39.107925760819406" lon="16.077842788623386"><ele>2.0</ele><time>2026-03-29T12:10:10Z</time></trkpt><trkpt lat="39.107840213869956" lon="16.077897717648778"><ele>2.0</ele><time>2026-03-29T12:10:11Z</time></trkpt><trkpt lat="39.107751533426786" lon="16.07795656159678"><ele>2.0</ele><time>2026-03-29T12:10:12Z</time></trkpt><trkpt lat="39.107658423603326" lon="16.07801556796288"><ele>2.0</ele><time>2026-03-29T12:10:13Z</time></trkpt><trkpt lat="39.10756126124846" lon="16.07806991763621"><ele>2.0</ele><time>2026-03-29T12:10:14Z</time></trkpt><trkpt lat="39.107460414035465" lon="16.078120310713146"><ele>2.0</ele><time>2026-03-29T12:10:15Z</time></trkpt><trkpt lat="39.10735770999619" lon="16.078160945046672"><ele>2.0</ele><time>2026-03-29T12:10:16Z</time></trkpt><trkpt lat="39.10725133871566" lon="16.07819688781035"><ele>2.0</ele><time>2026-03-29T12:10:17Z</time></trkpt><trkpt lat="39.10714396577545" lon="16.078228284283046"><ele>2.0</ele><time>2026-03-29T12:10:18Z</time></trkpt><trkpt lat="39.107036852862414" lon="16.0782576254119"><ele>2.0</ele><time>2026-03-29T12:10:19Z</time></trkpt><trkpt lat="39.10692848690392" lon="16.07828676656675"><ele>2.8</ele><time>2026-03-29T12:10:20Z</time></trkpt><trkpt lat="39.10682009434142" lon="16.07831470231582"><ele>3.6</ele><time>2026-03-29T12:10:21Z</time></trkpt><trkpt lat="39.106710878388824" lon="16.07834355139861"><ele>4.3999999999999995</ele><time>2026-03-29T12:10:22Z</time></trkpt><trkpt lat="39.10660103003608" lon="16.078371810619505"><ele>5.2</ele><time>2026-03-29T12:10:23Z</time></trkpt><trkpt lat="39.10649030736865" lon="16.07840102592743"><ele>6.0</ele><time>2026-03-29T12:10:24Z</time></trkpt><trkpt lat="39.10637953842678" lon="16.078429463417095"><ele>6.0</ele><time>2026-03-29T12:10:25Z</time></trkpt><trkpt lat="39.106268522241606" lon="16.0784579376134"><ele>6.0</ele><time>2026-03-29T12:10:26Z</time></trkpt><trkpt lat="39.10615743679597" lon="16.078484424096512"><ele>6.0</ele><time>2026-03-29T12:10:27Z</time></trkpt><trkpt lat="39.106047578454636" lon="16.07851099737383"><ele>6.0</ele><time>2026-03-29T12:10:28Z</time></trkpt><trkpt lat="39.10593815915548" lon="16.078537030489706"><ele>6.0</ele><time>2026-03-29T12:10:29Z</time></trkpt><trkpt lat="39.10582793931046" lon="16.07856593195755"><ele>6.0</ele><time>2026-03-29T12:10:30Z</time></trkpt><trkpt lat="39.1057173134282" lon="16.078594077875998"><ele>6.0</ele><time>2026-03-29T12:10:31Z</time></trkpt><trkpt lat="39.10560669384153" lon="16.078623624387426"><ele>6.0</ele><time>2026-03-29T12:10:32Z</time></trkpt><trkpt lat="39.10549590794918" lon="16.078654194729623"><ele>6.0</ele><time>2026-03-29T12:10:33Z</time></trkpt><trkpt lat="39.1053848299514" lon="16.07868490549589"><ele>6.0</ele><time>2026-03-29T12:10:33.999Z</time></trkpt><trkpt lat="39.105272789923504" lon="16.078714962335358"><ele>6.0</ele><time>2026-03-29T12:10:34.999Z</time></trkpt><trkpt lat="39.10515995695837" lon="16.078740665513543"><ele>6.0</ele><time>2026-03-29T12:10:35.999Z</time></trkpt><trkpt lat="39.10504674932975" lon="16.07876921187136"><ele>6.0</ele><time>2026-03-29T12:10:36.999Z</time></trkpt><trkpt lat="39.104934056172006" lon="16.078799296472507"><ele>5.25</ele><time>2026-03-29T12:10:37.999Z</time></trkpt><trkpt lat="39.10481979851162" lon="16.078828240042878"><ele>4.5</ele><time>2026-03-29T12:10:38.999Z</time></trkpt><trkpt lat="39.10470650978555" lon="16.078858422364778"><ele>3.75</ele><time>2026-03-29T12:10:39.999Z</time></trkpt><trkpt lat="39.104591730252146" lon="16.07888915434861"><ele>3.0</ele><time>2026-03-29T12:10:40.999Z</time></trkpt><trkpt lat="39.104476752494776" lon="16.078918655684667"><ele>3.0</ele><time>2026-03-29T12:10:41.999Z</time></trkpt><trkpt lat="39.10436149117609" lon="16.078949895235365"><ele>3.0</ele><time>2026-03-29T12:10:42.999Z</time></trkpt><trkpt lat="39.10424560723797" lon="16.07898026349493"><ele>3.0</ele><time>2026-03-29T12:10:43.999Z</time></trkpt><trkpt lat="39.10412902548971" lon="16.079009670569427"><ele>3.0</ele><time>2026-03-29T12:10:44.999Z</time></trkpt><trkpt lat="39.10401153260666" lon="16.079038717247023"><ele>3.25</ele><time>2026-03-29T12:10:45.999Z</time></trkpt><trkpt lat="39.10389422824757" lon="16.07906950373863"><ele>3.5</ele><time>2026-03-29T12:10:46.999Z</time></trkpt><trkpt lat="39.10377847504966" lon="16.079099313427868"><ele>3.75</ele><time>2026-03-29T12:10:47.999Z</time></trkpt><trkpt lat="39.10366189058748" lon="16.07912782266698"><ele>4.0</ele><time>2026-03-29T12:10:48.999Z</time></trkpt><trkpt lat="39.10354557108159" lon="16.079157546834278"><ele>4.0</ele><time>2026-03-29T12:10:49.999Z</time></trkpt><trkpt lat="39.103428789376956" lon="16.079188532687738"><ele>4.0</ele><time>2026-03-29T12:10:50.999Z</time></trkpt><trkpt lat="39.10331109282682" lon="16.079219832433182"><ele>4.0</ele><time>2026-03-29T12:10:51.999Z</time></trkpt><trkpt lat="39.10319286296779" lon="16.079250664122736"><ele>4.0</ele><time>2026-03-29T12:10:52.999Z</time></trkpt><trkpt lat="39.1030739728945" lon="16.079281952274368"><ele>3.75</ele><time>2026-03-29T12:10:53.999Z</time></trkpt><trkpt lat="39.102959065905935" lon="16.079312977767213"><ele>3.5</ele><time>2026-03-29T12:10:54.999Z</time></trkpt><trkpt lat="39.102847601020144" lon="16.07934432730695"><ele>3.25</ele><time>2026-03-29T12:10:55.999Z</time></trkpt><trkpt lat="39.10273816195658" lon="16.079372283089796"><ele>3.0</ele><time>2026-03-29T12:10:56.999Z</time></trkpt><trkpt lat="39.1026309582371" lon="16.079398714206647"><ele>3.0</ele><time>2026-03-29T12:10:57.999Z</time></trkpt><trkpt lat="39.10252614043836" lon="16.079427058543416"><ele>3.0</ele><time>2026-03-29T12:10:58.999Z</time></trkpt><trkpt lat="39.10242347315633" lon="16.079453573548427"><ele>3.0</ele><time>2026-03-29T12:10:59.999Z</time></trkpt><trkpt lat="39.10232062370656" lon="16.079480357590263"><ele>3.0</ele><time>2026-03-29T12:11:00.999Z</time></trkpt><trkpt lat="39.10221542755439" lon="16.079505438732458"><ele>3.0</ele><time>2026-03-29T12:11:01.999Z</time></trkpt><trkpt lat="39.10211108197972" lon="16.079533590469225"><ele>2.6</ele><time>2026-03-29T12:11:02.999Z</time></trkpt><trkpt lat="39.102008522312694" lon="16.07956149781368"><ele>2.1999999999999997</ele><time>2026-03-29T12:11:03.999Z</time></trkpt><trkpt lat="39.10190824649235" lon="16.07958966877908"><ele>1.8</ele><time>2026-03-29T12:11:04.999Z</time></trkpt><trkpt lat="39.10180925908989" lon="16.079617917679716"><ele>1.4</ele><time>2026-03-29T12:11:05.999Z</time></trkpt><trkpt lat="39.10171065812247" lon="16.079643971828936"><ele>1.0</ele><time>2026-03-29T12:11:06.999Z</time></trkpt><trkpt lat="39.10161462199861" lon="16.079669451647398"><ele>0.8</ele><time>2026-03-29T12:11:07.999Z</time></trkpt><trkpt lat="39.10151932178205" lon="16.079694720435135"><ele>0.6000000000000001</ele><time>2026-03-29T12:11:08.999Z</time></trkpt><trkpt lat="39.10142464747971" lon="16.079719025617262"><ele>0.4</ele><time>2026-03-29T12:11:09.999Z</time></trkpt><trkpt lat="39.10133056509431" lon="16.07974288705243"><ele>0.2</ele><time>2026-03-29T12:11:10.999Z</time></trkpt><trkpt lat="39.10123488775858" lon="16.079766384256324"><ele>0.0</ele><time>2026-03-29T12:11:11.999Z</time></trkpt><trkpt lat="39.10113892205584" lon="16.079796742211027"><ele>0.0</ele><time>2026-03-29T12:11:12.999Z</time></trkpt><trkpt lat="39.101039822954434" lon="16.079824797249593"><ele>0.0</ele><time>2026-03-29T12:11:13.999Z</time></trkpt><trkpt lat="39.10093787462418" lon="16.079851242409728"><ele>0.0</ele><time>2026-03-29T12:11:14.999Z</time></trkpt><trkpt lat="39.10083363910851" lon="16.07987589173457"><ele>0.0</ele><time>2026-03-29T12:11:15.999Z</time></trkpt><trkpt lat="39.10072648793061" lon="16.079898430154014"><ele>0.0</ele><time>2026-03-29T12:11:16.999Z</time></trkpt><trkpt lat="39.100617175499266" lon="16.07992002842757"><ele>1.25</ele><time>2026-03-29T12:11:17.999Z</time></trkpt><trkpt lat="39.10050533884999" lon="16.07994078133556"><ele>2.5</ele><time>2026-03-29T12:11:18.999Z</time></trkpt><trkpt lat="39.10039142436918" lon="16.07995951334492"><ele>3.75</ele><time>2026-03-29T12:11:19.999Z</time></trkpt><trkpt lat="39.10027489652671" lon="16.079977179473104"><ele>5.0</ele><time>2026-03-29T12:11:20.999Z</time></trkpt><trkpt lat="39.10015742703555" lon="16.07999517645696"><ele>5.0</ele><time>2026-03-29T12:11:21.999Z</time></trkpt><trkpt lat="39.100038612029046" lon="16.080015076565132"><ele>5.0</ele><time>2026-03-29T12:11:22.999Z</time></trkpt><trkpt lat="39.09991669578113" lon="16.08003384227319"><ele>5.0</ele><time>2026-03-29T12:11:23.999Z</time></trkpt><trkpt lat="39.09979690676746" lon="16.08005072396251"><ele>5.0</ele><time>2026-03-29T12:11:24.999Z</time></trkpt><trkpt lat="39.09967806017788" lon="16.080063669873336"><ele>5.0</ele><time>2026-03-29T12:11:25.999Z</time></trkpt><trkpt lat="39.099558767240985" lon="16.08007596491625"><ele>5.0</ele><time>2026-03-29T12:11:26.999Z</time></trkpt><trkpt lat="39.09943735429291" lon="16.080088757507824"><ele>5.0</ele><time>2026-03-29T12:11:27.999Z</time></trkpt><trkpt lat="39.09931389610961" lon="16.080104430314847"><ele>5.0</ele><time>2026-03-29T12:11:28.999Z</time></trkpt><trkpt lat="39.09918921196813" lon="16.080120373086064"><ele>4.5</ele><time>2026-03-29T12:11:29.999Z</time></trkpt><trkpt lat="39.099065018446375" lon="16.080138730825634"><ele>4.0</ele><time>2026-03-29T12:11:30.999Z</time></trkpt><trkpt lat="39.09894095925258" lon="16.08015854890227"><ele>3.5</ele><time>2026-03-29T12:11:31.999Z</time></trkpt><trkpt lat="39.09881682204666" lon="16.080177000967264"><ele>3.0</ele><time>2026-03-29T12:11:32.999Z</time></trkpt><trkpt lat="39.09869341033011" lon="16.080193952223052"><ele>3.0</ele><time>2026-03-29T12:11:33.999Z</time></trkpt><trkpt lat="39.09857090200956" lon="16.080209769329056"><ele>3.0</ele><time>2026-03-29T12:11:34.999Z</time></trkpt><trkpt lat="39.09844726504223" lon="16.080227619780775"><ele>3.0</ele><time>2026-03-29T12:11:35.999Z</time></trkpt><trkpt lat="39.09832315485576" lon="16.080246089181657"><ele>3.0</ele><time>2026-03-29T12:11:36.999Z</time></trkpt><trkpt lat="39.098198804381276" lon="16.080265382422528"><ele>3.25</ele><time>2026-03-29T12:11:37.999Z</time></trkpt><trkpt lat="39.09807387283686" lon="16.080284194618624"><ele>3.5</ele><time>2026-03-29T12:11:38.999Z</time></trkpt><trkpt lat="39.09794849255809" lon="16.080303097649185"><ele>3.75</ele><time>2026-03-29T12:11:39.999Z</time></trkpt><trkpt lat="39.09782363948868" lon="16.080321563481853"><ele>4.0</ele><time>2026-03-29T12:11:40.999Z</time></trkpt><trkpt lat="39.09769879304085" lon="16.08034033409128"><ele>4.0</ele><time>2026-03-29T12:11:41.999Z</time></trkpt><trkpt lat="39.097574575432446" lon="16.080357764340928"><ele>4.0</ele><time>2026-03-29T12:11:42.999Z</time></trkpt><trkpt lat="39.09745128061376" lon="16.080377096462502"><ele>4.0</ele><time>2026-03-29T12:11:43.999Z</time></trkpt><trkpt lat="39.09732821786685" lon="16.080398958346528"><ele>4.0</ele><time>2026-03-29T12:11:44.999Z</time></trkpt><trkpt lat="39.09720503287961" lon="16.080425729424608"><ele>3.0</ele><time>2026-03-29T12:11:45.999Z</time></trkpt><trkpt lat="39.09708488958895" lon="16.08045969398042"><ele>2.0</ele><time>2026-03-29T12:11:46.999Z</time></trkpt><trkpt lat="39.09696609125207" lon="16.080502091022694"><ele>1.0</ele><time>2026-03-29T12:11:47.999Z</time></trkpt><trkpt lat="39.09684865388503" lon="16.08055362851672"><ele>0.0</ele><time>2026-03-29T12:11:48.999Z</time></trkpt><trkpt lat="39.096734326404864" lon="16.0806162377059"><ele>0.0</ele><time>2026-03-29T12:11:49.999Z</time></trkpt><trkpt lat="39.096622384893" lon="16.08068705399478"><ele>0.0</ele><time>2026-03-29T12:11:51Z</time></trkpt><trkpt lat="39.096513054798535" lon="16.08076344779681"><ele>0.0</ele><time>2026-03-29T12:11:52Z</time></trkpt><trkpt lat="39.0964069632422" lon="16.08084637051734"><ele>0.0</ele><time>2026-03-29T12:11:53Z</time></trkpt><trkpt lat="39.09630602306663" lon="16.080938506060217"><ele>1.5</ele><time>2026-03-29T12:11:54Z</time></trkpt><trkpt lat="39.09620852614996" lon="16.081036111948116"><ele>3.0</ele><time>2026-03-29T12:11:55Z</time></trkpt><trkpt lat="39.09611488973122" lon="16.081135836213882"><ele>4.5</ele><time>2026-03-29T12:11:56Z</time></trkpt><trkpt lat="39.09602745089711" lon="16.08123356918022"><ele>6.0</ele><time>2026-03-29T12:11:57Z</time></trkpt><trkpt lat="39.095941028807175" lon="16.081317224749032"><ele>6.0</ele><time>2026-03-29T12:11:58Z</time></trkpt><trkpt lat="39.09586473088516" lon="16.08137352507545"><ele>6.0</ele><time>2026-03-29T12:11:59Z</time></trkpt><trkpt lat="39.095744145974194" lon="16.08142926677823"><ele>6.0</ele><time>2026-03-29T12:12:01Z</time></trkpt><trkpt lat="39.095624210185484" lon="16.081426780460188"><ele>6.0</ele><time>2026-03-29T12:12:03Z</time></trkpt><trkpt lat="39.09555816957392" lon="16.081430653078343"><ele>6.0</ele><time>2026-03-29T12:12:04Z</time></trkpt><trkpt lat="39.09548688285442" lon="16.081434909007"><ele>6.4</ele><time>2026-03-29T12:12:05Z</time></trkpt><trkpt lat="39.09542002223471" lon="16.081442805346093"><ele>6.8</ele><time>2026-03-29T12:12:06Z</time></trkpt><trkpt lat="39.09530783318754" lon="16.081461254973696"><ele>7.200000000000001</ele><time>2026-03-29T12:12:08Z</time></trkpt><trkpt lat="39.09520203835735" lon="16.081519146152388"><ele>7.6000000000000005</ele><time>2026-03-29T12:12:10Z</time></trkpt><trkpt lat="39.09511922024416" lon="16.081612841655215"><ele>8.0</ele><time>2026-03-29T12:12:12Z</time></trkpt><trkpt lat="39.09508400591903" lon="16.081760437249052"><ele>8.0</ele><time>2026-03-29T12:12:14Z</time></trkpt><trkpt lat="39.095080768408216" lon="16.081852552329863"><ele>8.0</ele><time>2026-03-29T12:12:15Z</time></trkpt><trkpt lat="39.09507538254767" lon="16.081936416961565"><ele>8.0</ele><time>2026-03-29T12:12:16Z</time></trkpt><trkpt lat="39.09506813037164" lon="16.082094107555854"><ele>8.0</ele><time>2026-03-29T12:12:18Z</time></trkpt><trkpt lat="39.09505232576703" lon="16.08223476232147"><ele>8.0</ele><time>2026-03-29T12:12:20Z</time></trkpt><trkpt lat="39.09503115752117" lon="16.082361540634174"><ele>8.8</ele><time>2026-03-29T12:12:22Z</time></trkpt><trkpt lat="39.09497958671343" lon="16.082487239872027"><ele>9.600000000000001</ele><time>2026-03-29T12:12:24Z</time></trkpt><trkpt lat="39.09491662691202" lon="16.082603834526967"><ele>10.399999999999999</ele><time>2026-03-29T12:12:26Z</time></trkpt><trkpt lat="39.09485402034937" lon="16.082664715785157"><ele>11.2</ele><time>2026-03-29T12:12:28Z</time></trkpt><trkpt lat="39.094805979130456" lon="16.08274336628446"><ele>12.0</ele><time>2026-03-29T12:12:30Z</time></trkpt><trkpt lat="39.09475223499278" lon="16.082826114304115"><ele>10.666666666666666</ele><time>2026-03-29T12:12:32Z</time></trkpt><trkpt lat="39.09469764725369" lon="16.08290731361817"><ele>9.333333333333334</ele><time>2026-03-29T12:12:34Z</time></trkpt><trkpt lat="39.09464263248114" lon="16.082984986920376"><ele>8.0</ele><time>2026-03-29T12:12:36Z</time></trkpt><trkpt lat="39.09459827309145" lon="16.083047497358862"><ele>6.666666666666666</ele><time>2026-03-29T12:12:38Z</time></trkpt><trkpt lat="39.09454988844044" lon="16.08313552535636"><ele>5.333333333333333</ele><time>2026-03-29T12:12:40.999Z</time></trkpt><trkpt lat="39.09449001990426" lon="16.08321113932297"><ele>4.0</ele><time>2026-03-29T12:12:43.999Z</time></trkpt><trkpt lat="39.09444174358782" lon="16.083265994556037"><ele>4.0</ele><time>2026-03-29T12:12:45.999Z</time></trkpt><trkpt lat="39.09439243620155" lon="16.083316949274646"><ele>3.9999999999999996</ele><time>2026-03-29T12:12:47.999Z</time></trkpt><trkpt lat="39.09434783465433" lon="16.083374923872448"><ele>4.0</ele><time>2026-03-29T12:12:49.999Z</time></trkpt><trkpt lat="39.09431104001107" lon="16.08344278666223"><ele>4.0</ele><time>2026-03-29T12:12:51.999Z</time></trkpt><trkpt lat="39.094308051792495" lon="16.083532445764124"><ele>3.9999999999999996</ele><time>2026-03-29T12:12:53.999Z</time></trkpt><trkpt lat="39.09432458099533" lon="16.08362887065328"><ele>4.0</ele><time>2026-03-29T12:12:55.999Z</time></trkpt><trkpt lat="39.094341077994834" lon="16.08372287604332"><ele>4.0</ele><time>2026-03-29T12:12:57.999Z</time></trkpt><trkpt lat="39.094351876566556" lon="16.083811379841002"><ele>3.9999999999999996</ele><time>2026-03-29T12:12:59.999Z</time></trkpt><trkpt lat="39.09432697039438" lon="16.08389387742421"><ele>4.0</ele><time>2026-03-29T12:13:01.999Z</time></trkpt><trkpt lat="39.09425912236681" lon="16.083940096334267"><ele>4.0</ele><time>2026-03-29T12:13:03.999Z</time></trkpt><trkpt lat="39.09417148217105" lon="16.083980111811293"><ele>4.0</ele><time>2026-03-29T12:13:05.999Z</time></trkpt><trkpt lat="39.09408406150227" lon="16.084033287271794"><ele>3.9999999999999996</ele><time>2026-03-29T12:13:07.999Z</time></trkpt><trkpt lat="39.09399730968155" lon="16.08409396128042"><ele>4.0</ele><time>2026-03-29T12:13:09.999Z</time></trkpt><trkpt lat="39.09391244939306" lon="16.084148470507948"><ele>4.166666666666666</ele><time>2026-03-29T12:13:11.999Z</time></trkpt><trkpt lat="39.09382569273892" lon="16.084210445497938"><ele>4.333333333333333</ele><time>2026-03-29T12:13:13.999Z</time></trkpt><trkpt lat="39.093743222924004" lon="16.084263233649637"><ele>4.5</ele><time>2026-03-29T12:13:15.999Z</time></trkpt><trkpt lat="39.093676051258065" lon="16.084303411310618"><ele>4.666666666666667</ele><time>2026-03-29T12:13:17.999Z</time></trkpt><trkpt lat="39.093614164863155" lon="16.084341050872244"><ele>4.833333333333334</ele><time>2026-03-29T12:13:19.999Z</time></trkpt><trkpt lat="39.093546627670854" lon="16.084380514366018"><ele>5.0</ele><time>2026-03-29T12:13:21.999Z</time></trkpt><trkpt lat="39.09347281089476" lon="16.08442305508508"><ele>5.0</ele><time>2026-03-29T12:13:24.999Z</time></trkpt><trkpt lat="39.09340602859888" lon="16.084461928586585"><ele>5.0</ele><time>2026-03-29T12:13:29.999Z</time></trkpt><trkpt lat="39.09334019087101" lon="16.084494752083152"><ele>5.0</ele><time>2026-03-29T12:13:33.999Z</time></trkpt><trkpt lat="39.09326959372002" lon="16.084525261706524"><ele>5.0</ele><time>2026-03-29T12:13:36.999Z</time></trkpt><trkpt lat="39.09319832682732" lon="16.084549114927935"><ele>5.0</ele><time>2026-03-29T12:13:38.999Z</time></trkpt><trkpt lat="39.09311930146169" lon="16.084585848081023"><ele>5.0</ele><time>2026-03-29T12:13:40.999Z</time></trkpt><trkpt lat="39.09305315510132" lon="16.084607127076982"><ele>5.0</ele><time>2026-03-29T12:13:42.999Z</time></trkpt><trkpt lat="39.092982430613276" lon="16.084634837882756"><ele>5.0</ele><time>2026-03-29T12:13:45.999Z</time></trkpt><trkpt lat="39.09292083399525" lon="16.084656005135166"><ele>5.0</ele><time>2026-03-29T12:13:47.999Z</time></trkpt><trkpt lat="39.09283031233669" lon="16.084696637943303"><ele>5.0</ele><time>2026-03-29T12:13:49.999Z</time></trkpt><trkpt lat="39.09272817284579" lon="16.084743660045074"><ele>5.0</ele><time>2026-03-29T12:13:51.999Z</time></trkpt><trkpt lat="39.092622167547866" lon="16.0847882509348"><ele>5.0</ele><time>2026-03-29T12:13:53.999Z</time></trkpt><trkpt lat="39.092561721648686" lon="16.084812510635135"><ele>5.0</ele><time>2026-03-29T12:13:54.999Z</time></trkpt><trkpt lat="39.09249663611706" lon="16.084842544132673"><ele>5.0</ele><time>2026-03-29T12:13:56Z</time></trkpt><trkpt lat="39.092431703602266" lon="16.084863721867045"><ele>5.0</ele><time>2026-03-29T12:13:57Z</time></trkpt><trkpt lat="39.09236921573663" lon="16.08487997721426"><ele>5.0</ele><time>2026-03-29T12:13:58Z</time></trkpt><trkpt lat="39.09230327552072" lon="16.084889086299626"><ele>5.0</ele><time>2026-03-29T12:13:59Z</time></trkpt><trkpt lat="39.09223452654794" lon="16.08490248917479"><ele>5.0</ele><time>2026-03-29T12:14:00Z</time></trkpt><trkpt lat="39.092161175288595" lon="16.08491083006802"><ele>5.0</ele><time>2026-03-29T12:14:01Z</time></trkpt><trkpt lat="39.09209070426863" lon="16.0849246807358"><ele>5.0</ele><time>2026-03-29T12:14:02Z</time></trkpt><trkpt lat="39.09202470550922" lon="16.08493588121024"><ele>5.4</ele><time>2026-03-29T12:14:03Z</time></trkpt><trkpt lat="39.09191205608262" lon="16.084956589139075"><ele>5.8</ele><time>2026-03-29T12:14:05Z</time></trkpt><trkpt lat="39.0918418940994" lon="16.084969901450563"><ele>6.199999999999999</ele><time>2026-03-29T12:14:07Z</time></trkpt><trkpt lat="39.09177989165751" lon="16.08498442758462"><ele>6.6</ele><time>2026-03-29T12:14:21Z</time></trkpt><trkpt lat="39.091678815919146" lon="16.085008356030635"><ele>7.0</ele><time>2026-03-29T12:14:23Z</time></trkpt><trkpt lat="39.09156688671544" lon="16.085039260654938"><ele>7.000000000000001</ele><time>2026-03-29T12:14:25Z</time></trkpt><trkpt lat="39.09146784312308" lon="16.08506126541978"><ele>7.0</ele><time>2026-03-29T12:14:27Z</time></trkpt><trkpt lat="39.091348653275986" lon="16.085091413268156"><ele>7.0</ele><time>2026-03-29T12:14:29Z</time></trkpt><trkpt lat="39.09128294839365" lon="16.08510919776766"><ele>7.0</ele><time>2026-03-29T12:14:29.999Z</time></trkpt><trkpt lat="39.09121958742411" lon="16.085127830566485"><ele>7.000000000000001</ele><time>2026-03-29T12:14:30.999Z</time></trkpt><trkpt lat="39.09115834055419" lon="16.085147041839278"><ele>7.0</ele><time>2026-03-29T12:14:31.999Z</time></trkpt><trkpt lat="39.0910391454326" lon="16.08517473806749"><ele>7.0</ele><time>2026-03-29T12:14:33.999Z</time></trkpt><trkpt lat="39.09092694354247" lon="16.08519515348676"><ele>6.999999999999999</ele><time>2026-03-29T12:14:35.999Z</time></trkpt><trkpt lat="39.09082503516731" lon="16.08520954722163"><ele>6.999999999999999</ele><time>2026-03-29T12:14:37.999Z</time></trkpt><trkpt lat="39.090727282565766" lon="16.085220383472826"><ele>7.0</ele><time>2026-03-29T12:14:39.999Z</time></trkpt><trkpt lat="39.09064772822733" lon="16.08522808254503"><ele>7.0</ele><time>2026-03-29T12:14:41.999Z</time></trkpt><trkpt lat="39.0905851033304" lon="16.08523770512269"><ele>6.833333333333334</ele><time>2026-03-29T12:14:43.999Z</time></trkpt><trkpt lat="39.09049417228659" lon="16.08525380033839"><ele>6.666666666666667</ele><time>2026-03-29T12:14:46.999Z</time></trkpt><trkpt lat="39.090406189773226" lon="16.085269126409234"><ele>6.5</ele><time>2026-03-29T12:14:48.999Z</time></trkpt><trkpt lat="39.09028886003136" lon="16.085294677322253"><ele>6.333333333333334</ele><time>2026-03-29T12:14:50.999Z</time></trkpt><trkpt lat="39.09022017938522" lon="16.085305968140975"><ele>6.166666666666667</ele><time>2026-03-29T12:14:51.999Z</time></trkpt><trkpt lat="39.090146209786624" lon="16.085317380772455"><ele>6.0</ele><time>2026-03-29T12:14:52.999Z</time></trkpt><trkpt lat="39.09006679296446" lon="16.085329687063624"><ele>6.0</ele><time>2026-03-29T12:14:53.999Z</time></trkpt><trkpt lat="39.08998404059724" lon="16.085344916730495"><ele>6.0</ele><time>2026-03-29T12:14:54.999Z</time></trkpt><trkpt lat="39.08989827063861" lon="16.085362327176572"><ele>6.0</ele><time>2026-03-29T12:14:55.999Z</time></trkpt><trkpt lat="39.08981065107516" lon="16.085381453738087"><ele>6.0</ele><time>2026-03-29T12:14:56.999Z</time></trkpt><trkpt lat="39.089719665201" lon="16.08540331831296"><ele>6.0</ele><time>2026-03-29T12:14:57.999Z</time></trkpt><trkpt lat="39.08962816489846" lon="16.085426996744633"><ele>6.0</ele><time>2026-03-29T12:14:58.999Z</time></trkpt><trkpt lat="39.08953993363052" lon="16.08545015009182"><ele>5.8</ele><time>2026-03-29T12:14:59.999Z</time></trkpt><trkpt lat="39.08944767369527" lon="16.085469202390115"><ele>5.6</ele><time>2026-03-29T12:15:00.999Z</time></trkpt><trkpt lat="39.08935727849569" lon="16.085492837646047"><ele>5.4</ele><time>2026-03-29T12:15:01.999Z</time></trkpt><trkpt lat="39.08926655051256" lon="16.085518757438347"><ele>5.2</ele><time>2026-03-29T12:15:02.999Z</time></trkpt><trkpt lat="39.0891747731973" lon="16.085542521228078"><ele>5.0</ele><time>2026-03-29T12:15:03.999Z</time></trkpt><trkpt lat="39.08907804339355" lon="16.08556664267359"><ele>4.8</ele><time>2026-03-29T12:15:04.999Z</time></trkpt><trkpt lat="39.08897947384611" lon="16.085591849555247"><ele>4.6</ele><time>2026-03-29T12:15:05.999Z</time></trkpt><trkpt lat="39.088878918903156" lon="16.08561803889234"><ele>4.4</ele><time>2026-03-29T12:15:06.999Z</time></trkpt><trkpt lat="39.088776316262816" lon="16.085645954085233"><ele>4.2</ele><time>2026-03-29T12:15:07.999Z</time></trkpt><trkpt lat="39.088671690889576" lon="16.085674884531958"><ele>4.0</ele><time>2026-03-29T12:15:08.999Z</time></trkpt><trkpt lat="39.088565281590384" lon="16.085702555290155"><ele>4.0</ele><time>2026-03-29T12:15:09.999Z</time></trkpt><trkpt lat="39.08845832490818" lon="16.085731346989967"><ele>4.0</ele><time>2026-03-29T12:15:10.999Z</time></trkpt><trkpt lat="39.088347831582055" lon="16.08576012618251"><ele>4.0</ele><time>2026-03-29T12:15:11.999Z</time></trkpt><trkpt lat="39.08823628026486" lon="16.08578793419875"><ele>4.0</ele><time>2026-03-29T12:15:12.999Z</time></trkpt><trkpt lat="39.08812306974248" lon="16.085816547806154"><ele>5.0</ele><time>2026-03-29T12:15:13.999Z</time></trkpt><trkpt lat="39.08800840344032" lon="16.0858462330793"><ele>6.0</ele><time>2026-03-29T12:15:14.999Z</time></trkpt><trkpt lat="39.087892698722555" lon="16.085876676340746"><ele>7.0</ele><time>2026-03-29T12:15:15.999Z</time></trkpt><trkpt lat="39.08777624862919" lon="16.085908889278247"><ele>8.0</ele><time>2026-03-29T12:15:16.999Z</time></trkpt><trkpt lat="39.087661495106246" lon="16.085940780778984"><ele>8.0</ele><time>2026-03-29T12:15:17.999Z</time></trkpt><trkpt lat="39.08754768972279" lon="16.0859724818965"><ele>8.0</ele><time>2026-03-29T12:15:18.999Z</time></trkpt><trkpt lat="39.08743514720742" lon="16.086006078020656"><ele>8.0</ele><time>2026-03-29T12:15:19.999Z</time></trkpt><trkpt lat="39.08732187195552" lon="16.086036129871403"><ele>8.0</ele><time>2026-03-29T12:15:20.999Z</time></trkpt><trkpt lat="39.08720927809396" lon="16.08606708807826"><ele>8.0</ele><time>2026-03-29T12:15:21.999Z</time></trkpt><trkpt lat="39.08709797369786" lon="16.08609883800524"><ele>8.0</ele><time>2026-03-29T12:15:22.999Z</time></trkpt><trkpt lat="39.08698675034797" lon="16.08612949613132"><ele>8.0</ele><time>2026-03-29T12:15:23.999Z</time></trkpt><trkpt lat="39.08687549723042" lon="16.086161310777037"><ele>8.0</ele><time>2026-03-29T12:15:24.999Z</time></trkpt><trkpt lat="39.0867626132138" lon="16.086192411387223"><ele>8.0</ele><time>2026-03-29T12:15:25.999Z</time></trkpt><trkpt lat="39.0866502849294" lon="16.086225148830138"><ele>8.0</ele><time>2026-03-29T12:15:26.999Z</time></trkpt><trkpt lat="39.08653755260212" lon="16.086257086871445"><ele>8.0</ele><time>2026-03-29T12:15:27.999Z</time></trkpt><trkpt lat="39.08642389324174" lon="16.086288770252967"><ele>8.0</ele><time>2026-03-29T12:15:28.999Z</time></trkpt><trkpt lat="39.08630956442309" lon="16.08631939653858"><ele>7.0</ele><time>2026-03-29T12:15:29.999Z</time></trkpt><trkpt lat="39.08619554723014" lon="16.086351799416637"><ele>6.0</ele><time>2026-03-29T12:15:30.999Z</time></trkpt><trkpt lat="39.086080707979136" lon="16.08638552923308"><ele>5.0</ele><time>2026-03-29T12:15:31.999Z</time></trkpt><trkpt lat="39.08596633120574" lon="16.086418436883477"><ele>4.0</ele><time>2026-03-29T12:15:32.999Z</time></trkpt><trkpt lat="39.08585226189375" lon="16.086452387817726"><ele>4.0</ele><time>2026-03-29T12:15:33.999Z</time></trkpt><trkpt lat="39.08573781612438" lon="16.08648378662119"><ele>4.0</ele><time>2026-03-29T12:15:34.999Z</time></trkpt><trkpt lat="39.085619002847075" lon="16.086514343566428"><ele>4.0</ele><time>2026-03-29T12:15:35.999Z</time></trkpt><trkpt lat="39.085498851377224" lon="16.086544294663042"><ele>4.0</ele><time>2026-03-29T12:15:36.999Z</time></trkpt><trkpt lat="39.085378674510245" lon="16.086572582508936"><ele>4.75</ele><time>2026-03-29T12:15:37.999Z</time></trkpt><trkpt lat="39.08525906970283" lon="16.086602726410447"><ele>5.5</ele><time>2026-03-29T12:15:38.999Z</time></trkpt><trkpt lat="39.08513962123844" lon="16.08663706882011"><ele>6.25</ele><time>2026-03-29T12:15:39.999Z</time></trkpt><trkpt lat="39.08502230581645" lon="16.086670832105238"><ele>7.0</ele><time>2026-03-29T12:15:40.999Z</time></trkpt><trkpt lat="39.08490543717035" lon="16.086704274866815"><ele>7.5</ele><time>2026-03-29T12:15:41.999Z</time></trkpt><trkpt lat="39.084789521536706" lon="16.08673611392528"><ele>8.0</ele><time>2026-03-29T12:15:42.999Z</time></trkpt><trkpt lat="39.08467790828199" lon="16.0867696313476"><ele>8.5</ele><time>2026-03-29T12:15:43.999Z</time></trkpt><trkpt lat="39.08456799942519" lon="16.08680192653797"><ele>9.0</ele><time>2026-03-29T12:15:44.999Z</time></trkpt><trkpt lat="39.08446141199557" lon="16.086831765900932"><ele>9.0</ele><time>2026-03-29T12:15:45.999Z</time></trkpt><trkpt lat="39.08435641899827" lon="16.0868588987866"><ele>9.0</ele><time>2026-03-29T12:15:46.999Z</time></trkpt><trkpt lat="39.08425446109575" lon="16.086885655616477"><ele>9.0</ele><time>2026-03-29T12:15:47.999Z</time></trkpt><trkpt lat="39.08415328708596" lon="16.0869117940098"><ele>9.0</ele><time>2026-03-29T12:15:48.999Z</time></trkpt><trkpt lat="39.08404970252421" lon="16.086937072853164"><ele>9.0</ele><time>2026-03-29T12:15:49.999Z</time></trkpt><trkpt lat="39.08394399186518" lon="16.08696663880474"><ele>8.5</ele><time>2026-03-29T12:15:50.999Z</time></trkpt><trkpt lat="39.083836067757574" lon="16.086997834899762"><ele>8.0</ele><time>2026-03-29T12:15:51.999Z</time></trkpt><trkpt lat="39.083725855665186" lon="16.087029165827545"><ele>7.5</ele><time>2026-03-29T12:15:52.999Z</time></trkpt><trkpt lat="39.08361339079767" lon="16.087062872977828"><ele>7.0</ele><time>2026-03-29T12:15:53.999Z</time></trkpt><trkpt lat="39.08349790351465" lon="16.087093664105005"><ele>7.0</ele><time>2026-03-29T12:15:54.999Z</time></trkpt><trkpt lat="39.08338184036168" lon="16.0871248871403"><ele>7.0</ele><time>2026-03-29T12:15:55.999Z</time></trkpt><trkpt lat="39.08326319134493" lon="16.087157036911016"><ele>7.0</ele><time>2026-03-29T12:15:56.999Z</time></trkpt><trkpt lat="39.08314115908694" lon="16.087191120527265"><ele>7.0</ele><time>2026-03-29T12:15:57.999Z</time></trkpt><trkpt lat="39.08301794195774" lon="16.08722684285913"><ele>7.0</ele><time>2026-03-29T12:15:58.999Z</time></trkpt><trkpt lat="39.08289135373099" lon="16.087261397026513"><ele>7.0</ele><time>2026-03-29T12:15:59.999Z</time></trkpt><trkpt lat="39.08276309124067" lon="16.087298763788674"><ele>7.0</ele><time>2026-03-29T12:16:01Z</time></trkpt><trkpt lat="39.08263238113698" lon="16.087336840119274"><ele>7.0</ele><time>2026-03-29T12:16:02Z</time></trkpt><trkpt lat="39.08249997667768" lon="16.08737489706865"><ele>7.0</ele><time>2026-03-29T12:16:03Z</time></trkpt><trkpt lat="39.082368754955105" lon="16.087412102868367"><ele>7.0</ele><time>2026-03-29T12:16:04Z</time></trkpt><trkpt lat="39.08223883377241" lon="16.08744748734196"><ele>7.0</ele><time>2026-03-29T12:16:05Z</time></trkpt><trkpt lat="39.08210992612172" lon="16.08748060032106"><ele>7.0</ele><time>2026-03-29T12:16:06Z</time></trkpt><trkpt lat="39.0819784643584" lon="16.087514954738445"><ele>7.0</ele><time>2026-03-29T12:16:07Z</time></trkpt><trkpt lat="39.081845305960414" lon="16.08755360978657"><ele>7.0</ele><time>2026-03-29T12:16:08Z</time></trkpt><trkpt lat="39.081711775350435" lon="16.087592283691528"><ele>7.0</ele><time>2026-03-29T12:16:09Z</time></trkpt><trkpt lat="39.081579959553814" lon="16.08763090803521"><ele>7.0</ele><time>2026-03-29T12:16:10Z</time></trkpt><trkpt lat="39.08144721644006" lon="16.087669568079964"><ele>7.0</ele><time>2026-03-29T12:16:11Z</time></trkpt><trkpt lat="39.08131277758457" lon="16.0877063401051"><ele>7.0</ele><time>2026-03-29T12:16:12Z</time></trkpt><trkpt lat="39.0811766750794" lon="16.087743346506493"><ele>7.0</ele><time>2026-03-29T12:16:13Z</time></trkpt><trkpt lat="39.081037476999875" lon="16.08778217951028"><ele>7.0</ele><time>2026-03-29T12:16:14Z</time></trkpt><trkpt lat="39.080896917246655" lon="16.087824100910638"><ele>6.75</ele><time>2026-03-29T12:16:15Z</time></trkpt><trkpt lat="39.080759047005685" lon="16.087868267225957"><ele>6.5</ele><time>2026-03-29T12:16:16Z</time></trkpt><trkpt lat="39.08062266810438" lon="16.087913945868575"><ele>6.25</ele><time>2026-03-29T12:16:17Z</time></trkpt><trkpt lat="39.08048646198331" lon="16.087963061473648"><ele>6.0</ele><time>2026-03-29T12:16:18Z</time></trkpt><trkpt lat="39.08035199945141" lon="16.088015040036563"><ele>6.0</ele><time>2026-03-29T12:16:19Z</time></trkpt><trkpt lat="39.080221649524155" lon="16.088068917913187"><ele>6.0</ele><time>2026-03-29T12:16:20Z</time></trkpt><trkpt lat="39.080094235222866" lon="16.088123435199503"><ele>6.0</ele><time>2026-03-29T12:16:21Z</time></trkpt><trkpt lat="39.07996474548525" lon="16.088182257139113"><ele>6.0</ele><time>2026-03-29T12:16:22Z</time></trkpt><trkpt lat="39.0798365424572" lon="16.08824289523862"><ele>6.5</ele><time>2026-03-29T12:16:23Z</time></trkpt><trkpt lat="39.079704509994976" lon="16.08830300214056"><ele>7.0</ele><time>2026-03-29T12:16:24Z</time></trkpt><trkpt lat="39.079571819953784" lon="16.088367951772213"><ele>7.5</ele><time>2026-03-29T12:16:25Z</time></trkpt><trkpt lat="39.07943552840582" lon="16.088431976282347"><ele>8.0</ele><time>2026-03-29T12:16:26Z</time></trkpt><trkpt lat="39.07929873042149" lon="16.088494728306586"><ele>8.0</ele><time>2026-03-29T12:16:27Z</time></trkpt><trkpt lat="39.07916642777568" lon="16.08855706943993"><ele>8.0</ele><time>2026-03-29T12:16:28Z</time></trkpt><trkpt lat="39.07903699351922" lon="16.088618190839533"><ele>8.0</ele><time>2026-03-29T12:16:29Z</time></trkpt><trkpt lat="39.078909213881325" lon="16.088683359094876"><ele>8.0</ele><time>2026-03-29T12:16:30Z</time></trkpt><trkpt lat="39.078788648760735" lon="16.088749609623736"><ele>8.200000000000001</ele><time>2026-03-29T12:16:31Z</time></trkpt><trkpt lat="39.07867617291448" lon="16.088797091812093"><ele>8.4</ele><time>2026-03-29T12:16:32Z</time></trkpt><trkpt lat="39.07858510200917" lon="16.08883955087373"><ele>8.600000000000001</ele><time>2026-03-29T12:16:33Z</time></trkpt><trkpt lat="39.0785171903611" lon="16.088876227613504"><ele>8.8</ele><time>2026-03-29T12:16:34Z</time></trkpt><trkpt lat="39.07842785404369" lon="16.08890098333673"><ele>9.0</ele><time>2026-03-29T12:16:35.999Z</time></trkpt><trkpt lat="39.078410197921244" lon="16.089164042883795"><ele>9.0</ele><time>2026-03-29T12:16:37.999Z</time></trkpt><trkpt lat="39.07844715271524" lon="16.08923995132036"><ele>9.0</ele><time>2026-03-29T12:16:39.999Z</time></trkpt><trkpt lat="39.07861537072762" lon="16.08913674640664"><ele>9.0</ele><time>2026-03-29T12:16:40.999Z</time></trkpt><trkpt lat="39.07872279923418" lon="16.089113048450645"><ele>9.0</ele><time>2026-03-29T12:16:42.999Z</time></trkpt><trkpt lat="39.078833292059365" lon="16.08909202193199"><ele>9.0</ele><time>2026-03-29T12:16:44.999Z</time></trkpt><trkpt lat="39.07895342960474" lon="16.08906871095512"><ele>9.0</ele><time>2026-03-29T12:16:46.999Z</time></trkpt><trkpt lat="39.07901996819593" lon="16.08905433710432"><ele>9.0</ele><time>2026-03-29T12:16:47.999Z</time></trkpt><trkpt lat="39.07908888673096" lon="16.089039170994692"><ele>9.0</ele><time>2026-03-29T12:16:48.999Z</time></trkpt><trkpt lat="39.07915626069603" lon="16.08901868927185"><ele>9.0</ele><time>2026-03-29T12:16:49.999Z</time></trkpt><trkpt lat="39.07922358758001" lon="16.08899735552663"><ele>9.0</ele><time>2026-03-29T12:16:50.999Z</time></trkpt><trkpt lat="39.07929362149281" lon="16.088979348652074"><ele>8.857142857142858</ele><time>2026-03-29T12:16:51.999Z</time></trkpt><trkpt lat="39.07936446740632" lon="16.08896555072548"><ele>8.714285714285715</ele><time>2026-03-29T12:16:52.999Z</time></trkpt><trkpt lat="39.079434716068015" lon="16.088948429793614"><ele>8.571428571428571</ele><time>2026-03-29T12:16:53.999Z</time></trkpt><trkpt lat="39.07950401438195" lon="16.088930994524155"><ele>8.428571428571429</ele><time>2026-03-29T12:16:54.999Z</time></trkpt><trkpt lat="39.079573756882745" lon="16.088912330714756"><ele>8.285714285714285</ele><time>2026-03-29T12:16:55.999Z</time></trkpt><trkpt lat="39.07964403671152" lon="16.088894053595624"><ele>8.142857142857142</ele><time>2026-03-29T12:16:56.999Z</time></trkpt><trkpt lat="39.0797123584375" lon="16.088874725875694"><ele>8.0</ele><time>2026-03-29T12:16:57.999Z</time></trkpt><trkpt lat="39.07978093167869" lon="16.088854837813155"><ele>8.0</ele><time>2026-03-29T12:16:58.999Z</time></trkpt><trkpt lat="39.079850633837275" lon="16.088844768312903"><ele>8.0</ele><time>2026-03-29T12:16:59.999Z</time></trkpt><trkpt lat="39.079915921574894" lon="16.0888305125175"><ele>8.0</ele><time>2026-03-29T12:17:00.999Z</time></trkpt><trkpt lat="39.08003613356709" lon="16.08880395543998"><ele>8.0</ele><time>2026-03-29T12:17:02.999Z</time></trkpt><trkpt lat="39.08014795740218" lon="16.088779405864294"><ele>8.0</ele><time>2026-03-29T12:17:04.999Z</time></trkpt><trkpt lat="39.08025224906465" lon="16.088757192964547"><ele>7.666666666666666</ele><time>2026-03-29T12:17:06.999Z</time></trkpt><trkpt lat="39.08033914882244" lon="16.088737946740434"><ele>7.333333333333333</ele><time>2026-03-29T12:17:08.999Z</time></trkpt><trkpt lat="39.08041699909946" lon="16.088721618084353"><ele>7.0</ele><time>2026-03-29T12:17:10.999Z</time></trkpt><trkpt lat="39.08048663209347" lon="16.0887068581947"><ele>6.666666666666666</ele><time>2026-03-29T12:17:12.999Z</time></trkpt><trkpt lat="39.08057590355521" lon="16.088682929205262"><ele>6.333333333333333</ele><time>2026-03-29T12:17:15.999Z</time></trkpt><trkpt lat="39.08064817171559" lon="16.088662502094863"><ele>6.0</ele><time>2026-03-29T12:17:18.999Z</time></trkpt><trkpt lat="39.080729169105155" lon="16.08864599981658"><ele>6.166666666666667</ele><time>2026-03-29T12:17:21.999Z</time></trkpt><trkpt lat="39.080796128321026" lon="16.088633599953702"><ele>6.333333333333334</ele><time>2026-03-29T12:17:23.999Z</time></trkpt><trkpt lat="39.080882171371556" lon="16.08861027230525"><ele>6.5</ele><time>2026-03-29T12:17:25.999Z</time></trkpt><trkpt lat="39.08096953528123" lon="16.08858989231459"><ele>6.666666666666667</ele><time>2026-03-29T12:17:27.999Z</time></trkpt><trkpt lat="39.0810665065742" lon="16.088563239429703"><ele>6.833333333333334</ele><time>2026-03-29T12:17:29.999Z</time></trkpt><trkpt lat="39.08116722461994" lon="16.08854158966172"><ele>7.0</ele><time>2026-03-29T12:17:31.999Z</time></trkpt><trkpt lat="39.08126967329381" lon="16.088518160284213"><ele>7.0</ele><time>2026-03-29T12:17:33.999Z</time></trkpt><trkpt lat="39.08138654366074" lon="16.088503346823398"><ele>7.0</ele><time>2026-03-29T12:17:35.999Z</time></trkpt><trkpt lat="39.08150524378932" lon="16.088478218696416"><ele>7.0</ele><time>2026-03-29T12:17:37.999Z</time></trkpt><trkpt lat="39.08162086205559" lon="16.088449700967054"><ele>7.0</ele><time>2026-03-29T12:17:39.999Z</time></trkpt><trkpt lat="39.08172230924032" lon="16.088426186466965"><ele>7.0</ele><time>2026-03-29T12:17:41.999Z</time></trkpt><trkpt lat="39.08182705670316" lon="16.088398280219504"><ele>7.0</ele><time>2026-03-29T12:17:43.999Z</time></trkpt><trkpt lat="39.0818892554769" lon="16.088383016294724"><ele>7.0</ele><time>2026-03-29T12:17:44.999Z</time></trkpt><trkpt lat="39.08195268490855" lon="16.088368655753882"><ele>7.0</ele><time>2026-03-29T12:17:45.999Z</time></trkpt><trkpt lat="39.08201951541762" lon="16.088355054621207"><ele>7.0</ele><time>2026-03-29T12:17:46.999Z</time></trkpt><trkpt lat="39.08208902400784" lon="16.08834088190004"><ele>7.0</ele><time>2026-03-29T12:17:47.999Z</time></trkpt><trkpt lat="39.08216024208783" lon="16.088325269420842"><ele>7.0</ele><time>2026-03-29T12:17:48.999Z</time></trkpt><trkpt lat="39.08223169127513" lon="16.088308705976814"><ele>7.0</ele><time>2026-03-29T12:17:49.999Z</time></trkpt><trkpt lat="39.08229926675239" lon="16.08829242680917"><ele>6.999999999999999</ele><time>2026-03-29T12:17:50.999Z</time></trkpt><trkpt lat="39.08236407610943" lon="16.088277485167584"><ele>6.999999999999999</ele><time>2026-03-29T12:17:51.999Z</time></trkpt><trkpt lat="39.08248379521473" lon="16.08825110021313"><ele>7.0</ele><time>2026-03-29T12:17:53.999Z</time></trkpt><trkpt lat="39.08259617214996" lon="16.088234307497128"><ele>7.0</ele><time>2026-03-29T12:17:55.999Z</time></trkpt><trkpt lat="39.08270559172007" lon="16.088213401364285"><ele>7.0</ele><time>2026-03-29T12:17:57.999Z</time></trkpt><trkpt lat="39.0828107525508" lon="16.088185275792682"><ele>7.0</ele><time>2026-03-29T12:17:59.999Z</time></trkpt><trkpt lat="39.08292013146796" lon="16.088157659712998"><ele>7.0</ele><time>2026-03-29T12:18:01.999Z</time></trkpt><trkpt lat="39.083032608189015" lon="16.088130385941255"><ele>7.0</ele><time>2026-03-29T12:18:03.999Z</time></trkpt><trkpt lat="39.083150841229894" lon="16.088101957400045"><ele>7.0</ele><time>2026-03-29T12:18:05.999Z</time></trkpt><trkpt lat="39.08325804179913" lon="16.088078336951906"><ele>6.999999999999999</ele><time>2026-03-29T12:18:08Z</time></trkpt><trkpt lat="39.083356631950714" lon="16.088058827770986"><ele>6.999999999999999</ele><time>2026-03-29T12:18:10Z</time></trkpt><trkpt lat="39.08342377356362" lon="16.08803583611395"><ele>7.0</ele><time>2026-03-29T12:18:13Z</time></trkpt><trkpt lat="39.08349729626234" lon="16.088021713047784"><ele>7.0</ele><time>2026-03-29T12:18:18Z</time></trkpt><trkpt lat="39.083474720021655" lon="16.087812456141993"><ele>7.0</ele><time>2026-03-29T12:18:21Z</time></trkpt><trkpt lat="39.08344499815235" lon="16.087701370585542"><ele>6.999999999999999</ele><time>2026-03-29T12:18:23Z</time></trkpt><trkpt lat="39.08341612499469" lon="16.087587006592106"><ele>6.999999999999999</ele><time>2026-03-29T12:18:25Z</time></trkpt><trkpt lat="39.08338043835166" lon="16.087454942026294"><ele>7.0</ele><time>2026-03-29T12:18:27Z</time></trkpt><trkpt lat="39.08334782970147" lon="16.08733895714599"><ele>7.0</ele><time>2026-03-29T12:18:29Z</time></trkpt><trkpt lat="39.0833266180436" lon="16.087254835958046"><ele>7.0</ele><time>2026-03-29T12:18:31Z</time></trkpt><trkpt lat="39.08334326751135" lon="16.087171107332907"><ele>6.999999999999999</ele><time>2026-03-29T12:18:39Z</time></trkpt><trkpt lat="39.083429390854924" lon="16.087140980148092"><ele>6.999999999999999</ele><time>2026-03-29T12:18:41Z</time></trkpt><trkpt lat="39.08352353251919" lon="16.087120214820708"><ele>7.0</ele><time>2026-03-29T12:18:43Z</time></trkpt><trkpt lat="39.08364162849836" lon="16.08709421646933"><ele>7.0</ele><time>2026-03-29T12:18:45Z</time></trkpt><trkpt lat="39.08376368692094" lon="16.0870654599117"><ele>7.000000000000001</ele><time>2026-03-29T12:18:46.999Z</time></trkpt><trkpt lat="39.08383315127928" lon="16.087047943529704"><ele>7.0</ele><time>2026-03-29T12:18:47.999Z</time></trkpt><trkpt lat="39.08390731410662" lon="16.08702720418235"><ele>7.0</ele><time>2026-03-29T12:18:48.999Z</time></trkpt><trkpt lat="39.083982919373994" lon="16.087004221118978"><ele>7.0</ele><time>2026-03-29T12:18:49.999Z</time></trkpt><trkpt lat="39.084059851560596" lon="16.086981604833557"><ele>7.000000000000001</ele><time>2026-03-29T12:18:50.999Z</time></trkpt><trkpt lat="39.0841402132721" lon="16.086957607822242"><ele>7.0</ele><time>2026-03-29T12:18:51.999Z</time></trkpt><trkpt lat="39.0842262899525" lon="16.086932334267292"><ele>7.3999999999999995</ele><time>2026-03-29T12:18:52.999Z</time></trkpt><trkpt lat="39.08432240196044" lon="16.086906379626534"><ele>7.799999999999999</ele><time>2026-03-29T12:18:53.999Z</time></trkpt><trkpt lat="39.08442515104187" lon="16.086878989720773"><ele>8.2</ele><time>2026-03-29T12:18:54.999Z</time></trkpt><trkpt lat="39.08453413349403" lon="16.086851062142063"><ele>8.6</ele><time>2026-03-29T12:18:55.999Z</time></trkpt><trkpt lat="39.08464767490515" lon="16.086821287101408"><ele>9.0</ele><time>2026-03-29T12:18:56.999Z</time></trkpt><trkpt lat="39.08476364125697" lon="16.08679215009503"><ele>9.0</ele><time>2026-03-29T12:18:57.999Z</time></trkpt><trkpt lat="39.0848783193205" lon="16.0867585797391"><ele>9.0</ele><time>2026-03-29T12:18:58.999Z</time></trkpt><trkpt lat="39.08499413678178" lon="16.086725778021236"><ele>9.0</ele><time>2026-03-29T12:18:59.999Z</time></trkpt><trkpt lat="39.08511259559248" lon="16.086693682624396"><ele>9.0</ele><time>2026-03-29T12:19:00.999Z</time></trkpt><trkpt lat="39.08523062771873" lon="16.086661907897142"><ele>8.5</ele><time>2026-03-29T12:19:01.999Z</time></trkpt><trkpt lat="39.08535092255848" lon="16.086630667755117"><ele>8.0</ele><time>2026-03-29T12:19:02.999Z</time></trkpt><trkpt lat="39.0854715461211" lon="16.08659799420737"><ele>7.5</ele><time>2026-03-29T12:19:03.999Z</time></trkpt><trkpt lat="39.08559391832432" lon="16.086564440907484"><ele>7.0</ele><time>2026-03-29T12:19:04.999Z</time></trkpt><trkpt lat="39.08571581686591" lon="16.086530471757666"><ele>6.25</ele><time>2026-03-29T12:19:05.999Z</time></trkpt><trkpt lat="39.085838953015276" lon="16.086497187923776"><ele>5.5</ele><time>2026-03-29T12:19:06.999Z</time></trkpt><trkpt lat="39.085961211943406" lon="16.086461744070416"><ele>4.75</ele><time>2026-03-29T12:19:07.999Z</time></trkpt><trkpt lat="39.086084361062674" lon="16.086427675828702"><ele>4.0</ele><time>2026-03-29T12:19:08.999Z</time></trkpt><trkpt lat="39.08620728337241" lon="16.086394484348922"><ele>4.0</ele><time>2026-03-29T12:19:09.999Z</time></trkpt><trkpt lat="39.08633015627068" lon="16.086362511031417"><ele>4.0</ele><time>2026-03-29T12:19:10.999Z</time></trkpt><trkpt lat="39.086452830638144" lon="16.086328482125975"><ele>4.0</ele><time>2026-03-29T12:19:11.999Z</time></trkpt><trkpt lat="39.08657507764934" lon="16.086291919511233"><ele>4.0</ele><time>2026-03-29T12:19:12.999Z</time></trkpt><trkpt lat="39.086696634988414" lon="16.08625704622072"><ele>5.0</ele><time>2026-03-29T12:19:13.999Z</time></trkpt><trkpt lat="39.08681877026195" lon="16.086221254619666"><ele>6.0</ele><time>2026-03-29T12:19:14.999Z</time></trkpt><trkpt lat="39.08694333822223" lon="16.086185000571533"><ele>7.0</ele><time>2026-03-29T12:19:15.999Z</time></trkpt><trkpt lat="39.087069575471155" lon="16.086150145751365"><ele>8.0</ele><time>2026-03-29T12:19:16.999Z</time></trkpt><trkpt lat="39.08719685692665" lon="16.086116106544715"><ele>8.0</ele><time>2026-03-29T12:19:17.999Z</time></trkpt><trkpt lat="39.087324093764934" lon="16.086080613369504"><ele>8.0</ele><time>2026-03-29T12:19:18.999Z</time></trkpt><trkpt lat="39.08745113205007" lon="16.086047022313323"><ele>8.0</ele><time>2026-03-29T12:19:19.999Z</time></trkpt><trkpt lat="39.08757862536744" lon="16.086012704151617"><ele>8.0</ele><time>2026-03-29T12:19:20.999Z</time></trkpt><trkpt lat="39.08770664408069" lon="16.085978559410698"><ele>8.0</ele><time>2026-03-29T12:19:21.999Z</time></trkpt><trkpt lat="39.08783463373106" lon="16.08594193373051"><ele>8.0</ele><time>2026-03-29T12:19:22.999Z</time></trkpt><trkpt lat="39.08796287265706" lon="16.085906853690503"><ele>8.0</ele><time>2026-03-29T12:19:23.999Z</time></trkpt><trkpt lat="39.0880943729389" lon="16.08587219304908"><ele>8.0</ele><time>2026-03-29T12:19:24.999Z</time></trkpt><trkpt lat="39.08822608829568" lon="16.08583707245735"><ele>9.0</ele><time>2026-03-29T12:19:25.999Z</time></trkpt><trkpt lat="39.08835944599984" lon="16.085803142342627"><ele>10.0</ele><time>2026-03-29T12:19:26.999Z</time></trkpt><trkpt lat="39.08849390315921" lon="16.08576971812368"><ele>11.0</ele><time>2026-03-29T12:19:27.999Z</time></trkpt><trkpt lat="39.08862802634341" lon="16.085735811129126"><ele>12.0</ele><time>2026-03-29T12:19:28.999Z</time></trkpt><trkpt lat="39.08876137376017" lon="16.085701535228708"><ele>10.25</ele><time>2026-03-29T12:19:29.999Z</time></trkpt><trkpt lat="39.088895154499575" lon="16.085667490420267"><ele>8.5</ele><time>2026-03-29T12:19:30.999Z</time></trkpt><trkpt lat="39.08902876095342" lon="16.08563422970782"><ele>6.75</ele><time>2026-03-29T12:19:31.999Z</time></trkpt><trkpt lat="39.08916243872211" lon="16.085601664513206"><ele>5.0</ele><time>2026-03-29T12:19:32.999Z</time></trkpt><trkpt lat="39.0892952803408" lon="16.085566878540867"><ele>5.0</ele><time>2026-03-29T12:19:33.999Z</time></trkpt><trkpt lat="39.08942984618724" lon="16.085531823623125"><ele>5.0</ele><time>2026-03-29T12:19:34.999Z</time></trkpt><trkpt lat="39.08956529158341" lon="16.085495307365218"><ele>5.0</ele><time>2026-03-29T12:19:35.999Z</time></trkpt><trkpt lat="39.08969594684212" lon="16.08545580155542"><ele>5.0</ele><time>2026-03-29T12:19:36.999Z</time></trkpt><trkpt lat="39.08983512442446" lon="16.08542579163547"><ele>5.25</ele><time>2026-03-29T12:19:37.999Z</time></trkpt><trkpt lat="39.08997361946835" lon="16.085399897839533"><ele>5.5</ele><time>2026-03-29T12:19:38.999Z</time></trkpt><trkpt lat="39.090110175503526" lon="16.08537716541584"><ele>5.75</ele><time>2026-03-29T12:19:39.999Z</time></trkpt><trkpt lat="39.090243848897856" lon="16.085357172905127"><ele>6.0</ele><time>2026-03-29T12:19:40.999Z</time></trkpt><trkpt lat="39.090376086612544" lon="16.08534430080338"><ele>6.0</ele><time>2026-03-29T12:19:41.999Z</time></trkpt><trkpt lat="39.09050898850205" lon="16.08534004159778"><ele>6.0</ele><time>2026-03-29T12:19:42.999Z</time></trkpt><trkpt lat="39.09064522623502" lon="16.085340806370706"><ele>6.0</ele><time>2026-03-29T12:19:43.999Z</time></trkpt><trkpt lat="39.09078371299539" lon="16.08534638998478"><ele>6.0</ele><time>2026-03-29T12:19:44.999Z</time></trkpt><trkpt lat="39.09092515535653" lon="16.085355614362445"><ele>6.25</ele><time>2026-03-29T12:19:45.999Z</time></trkpt><trkpt lat="39.091070208079906" lon="16.08536677325325"><ele>6.5</ele><time>2026-03-29T12:19:46.999Z</time></trkpt><trkpt lat="39.0912186780303" lon="16.085378347930025"><ele>6.75</ele><time>2026-03-29T12:19:47.999Z</time></trkpt><trkpt lat="39.091368070093495" lon="16.085390916117838"><ele>7.0</ele><time>2026-03-29T12:19:48.999Z</time></trkpt><trkpt lat="39.09151561408784" lon="16.085402659366903"><ele>7.25</ele><time>2026-03-29T12:19:49.999Z</time></trkpt><trkpt lat="39.091663161744926" lon="16.085409475253837"><ele>7.5</ele><time>2026-03-29T12:19:50.999Z</time></trkpt><trkpt lat="39.09181201041949" lon="16.08541330040319"><ele>7.75</ele><time>2026-03-29T12:19:51.999Z</time></trkpt><trkpt lat="39.091958739022616" lon="16.08541384883626"><ele>8.0</ele><time>2026-03-29T12:19:52.999Z</time></trkpt><trkpt lat="39.09210496904555" lon="16.085406107017196"><ele>8.0</ele><time>2026-03-29T12:19:53.999Z</time></trkpt><trkpt lat="39.09225022911358" lon="16.08539591748116"><ele>8.0</ele><time>2026-03-29T12:19:54.999Z</time></trkpt><trkpt lat="39.09239552375269" lon="16.085379976271476"><ele>8.0</ele><time>2026-03-29T12:19:55.999Z</time></trkpt><trkpt lat="39.092542658114624" lon="16.08535562136681"><ele>8.0</ele><time>2026-03-29T12:19:56.999Z</time></trkpt><trkpt lat="39.092693649557376" lon="16.085325313737332"><ele>8.333333333333332</ele><time>2026-03-29T12:19:57.999Z</time></trkpt><trkpt lat="39.09284880124923" lon="16.08529294036699"><ele>8.666666666666666</ele><time>2026-03-29T12:19:58.999Z</time></trkpt><trkpt lat="39.09300966043722" lon="16.08525720958921"><ele>9.0</ele><time>2026-03-29T12:19:59.999Z</time></trkpt><trkpt lat="39.09317458378381" lon="16.085218590060602"><ele>10.0</ele><time>2026-03-29T12:20:00.999Z</time></trkpt><trkpt lat="39.09333904305845" lon="16.0851769928397"><ele>11.0</ele><time>2026-03-29T12:20:01.999Z</time></trkpt><trkpt lat="39.09350595365546" lon="16.085135879517185"><ele>12.0</ele><time>2026-03-29T12:20:02.999Z</time></trkpt><trkpt lat="39.093673560685566" lon="16.08509435210534"><ele>12.0</ele><time>2026-03-29T12:20:03.999Z</time></trkpt><trkpt lat="39.093843781222205" lon="16.085056719270675"><ele>12.0</ele><time>2026-03-29T12:20:04.999Z</time></trkpt><trkpt lat="39.094016969154225" lon="16.085020057395855"><ele>12.0</ele><time>2026-03-29T12:20:05.999Z</time></trkpt><trkpt lat="39.09419120651226" lon="16.084983205690037"><ele>11.666666666666666</ele><time>2026-03-29T12:20:06.999Z</time></trkpt><trkpt lat="39.094364023379406" lon="16.084942402760426"><ele>11.333333333333332</ele><time>2026-03-29T12:20:07.999Z</time></trkpt><trkpt lat="39.094533253091896" lon="16.084900890652982"><ele>11.0</ele><time>2026-03-29T12:20:08.999Z</time></trkpt><trkpt lat="39.09470022850666" lon="16.084860292398776"><ele>11.0</ele><time>2026-03-29T12:20:09.999Z</time></trkpt><trkpt lat="39.09486946580688" lon="16.084812601945806"><ele>11.0</ele><time>2026-03-29T12:20:10.999Z</time></trkpt><trkpt lat="39.09504126408439" lon="16.0847602948926"><ele>11.0</ele><time>2026-03-29T12:20:11.999Z</time></trkpt><trkpt lat="39.09521382473162" lon="16.08470281251085"><ele>12.666666666666666</ele><time>2026-03-29T12:20:13Z</time></trkpt><trkpt lat="39.09538979684593" lon="16.084642007377592"><ele>14.333333333333332</ele><time>2026-03-29T12:20:14Z</time></trkpt><trkpt lat="39.095567625330354" lon="16.08457581909722"><ele>16.0</ele><time>2026-03-29T12:20:15Z</time></trkpt><trkpt lat="39.095747026239366" lon="16.08450410522719"><ele>25.0</ele><time>2026-03-29T12:20:16Z</time></trkpt><trkpt lat="39.09592581946327" lon="16.08442404642037"><ele>34.0</ele><time>2026-03-29T12:20:17Z</time></trkpt><trkpt lat="39.096110102771526" lon="16.084360623106694"><ele>43.0</ele><time>2026-03-29T12:20:18Z</time></trkpt><trkpt lat="39.09628957351376" lon="16.08427972528099"><ele>43.0</ele><time>2026-03-29T12:20:19Z</time></trkpt><trkpt lat="39.0964676146868" lon="16.08419860953316"><ele>43.0</ele><time>2026-03-29T12:20:20Z</time></trkpt><trkpt lat="39.09664143215851" lon="16.084116213256543"><ele>43.0</ele><time>2026-03-29T12:20:21Z</time></trkpt><trkpt lat="39.09681460200385" lon="16.08403349020371"><ele>53.66666666666667</ele><time>2026-03-29T12:20:22Z</time></trkpt><trkpt lat="39.09698309138328" lon="16.083954215994154"><ele>64.33333333333333</ele><time>2026-03-29T12:20:23Z</time></trkpt><trkpt lat="39.09714759586038" lon="16.083877484422313"><ele>75.0</ele><time>2026-03-29T12:20:24Z</time></trkpt><trkpt lat="39.09748118827827" lon="16.083746936433652"><ele>100.0</ele><time>2026-03-29T12:20:25Z</time></trkpt><trkpt lat="39.097693386287055" lon="16.083646397210607"><ele>125.0</ele><time>2026-03-29T12:20:26Z</time></trkpt><trkpt lat="39.09791393882516" lon="16.083541390265456"><ele>125.0</ele><time>2026-03-29T12:20:27Z</time></trkpt><trkpt lat="39.09813370574959" lon="16.083439943420284"><ele>125.0</ele><time>2026-03-29T12:20:28Z</time></trkpt><trkpt lat="39.09835325275277" lon="16.08334124049373"><ele>133.5</ele><time>2026-03-29T12:20:29Z</time></trkpt><trkpt lat="39.09857607706581" lon="16.083236432763528"><ele>142.0</ele><time>2026-03-29T12:20:30Z</time></trkpt><trkpt lat="39.09880160140242" lon="16.083134880863636"><ele>142.0</ele><time>2026-03-29T12:20:31Z</time></trkpt><trkpt lat="39.09902986810686" lon="16.08302781168185"><ele>142.0</ele><time>2026-03-29T12:20:32Z</time></trkpt><trkpt lat="39.09925726343546" lon="16.08291917426693"><ele>137.0</ele><time>2026-03-29T12:20:33Z</time></trkpt><trkpt lat="39.099484817836924" lon="16.08281304894406"><ele>132.0</ele><time>2026-03-29T12:20:34Z</time></trkpt><trkpt lat="39.09971506948076" lon="16.082704555900825"><ele>131.0</ele><time>2026-03-29T12:20:35Z</time></trkpt><trkpt lat="39.09994731475905" lon="16.082594789057207"><ele>130.0</ele><time>2026-03-29T12:20:36Z</time></trkpt><trkpt lat="39.10018447856861" lon="16.08248356897973"><ele>109.0</ele><time>2026-03-29T12:20:37Z</time></trkpt><trkpt lat="39.10042173739886" lon="16.08237452233208"><ele>88.0</ele><time>2026-03-29T12:20:38Z</time></trkpt><trkpt lat="39.10065896669725" lon="16.08226592672469"><ele>84.0</ele><time>2026-03-29T12:20:39Z</time></trkpt><trkpt lat="39.10089979572008" lon="16.082155698259722"><ele>80.0</ele><time>2026-03-29T12:20:40Z</time></trkpt><trkpt lat="39.10113852008137" lon="16.082043753240313"><ele>80.0</ele><time>2026-03-29T12:20:41Z</time></trkpt><trkpt lat="39.10137676463665" lon="16.081933598864055"><ele>80.0</ele><time>2026-03-29T12:20:42Z</time></trkpt><trkpt lat="39.10161144045926" lon="16.081828330503996"><ele>83.5</ele><time>2026-03-29T12:20:43Z</time></trkpt><trkpt lat="39.10184889806067" lon="16.08171631496867"><ele>87.0</ele><time>2026-03-29T12:20:44Z</time></trkpt><trkpt lat="39.102088866532426" lon="16.08160472143982"><ele>10.0</ele><time>2026-03-29T12:20:45.008Z</time></trkpt><trkpt lat="39.103960066279924" lon="16.080763503060513"><ele>10.0</ele><time>2026-03-29T12:20:55Z</time></trkpt><trkpt lat="39.104164072569375" lon="16.080660709799186"><ele>10.0</ele><time>2026-03-29T12:20:56Z</time></trkpt><trkpt lat="39.104378698010834" lon="16.08053543614527"><ele>10.0</ele><time>2026-03-29T12:20:57Z</time></trkpt><trkpt lat="39.10453170050786" lon="16.080438594236504"><ele>10.0</ele><time>2026-03-29T12:20:58Z</time></trkpt><trkpt lat="39.104729024273034" lon="16.080354727334555"><ele>10.0</ele><time>2026-03-29T12:20:59Z</time></trkpt><trkpt lat="39.10493034760095" lon="16.080266403732487"><ele>10.0</ele><time>2026-03-29T12:20:59.999Z</time></trkpt><trkpt lat="39.10513429441281" lon="16.08017039197434"><ele>10.0</ele><time>2026-03-29T12:21:00.999Z</time></trkpt><trkpt lat="39.105335594457515" lon="16.080073536910678"><ele>10.0</ele><time>2026-03-29T12:21:01.999Z</time></trkpt><trkpt lat="39.105534449940656" lon="16.079978324082557"><ele>9.333333333333334</ele><time>2026-03-29T12:21:02.999Z</time></trkpt><trkpt lat="39.10573538391003" lon="16.07988308322817"><ele>8.666666666666666</ele><time>2026-03-29T12:21:03.999Z</time></trkpt><trkpt lat="39.10593325265137" lon="16.079783701624216"><ele>8.0</ele><time>2026-03-29T12:21:04.999Z</time></trkpt><trkpt lat="39.10612622766322" lon="16.079687585140476"><ele>8.0</ele><time>2026-03-29T12:21:05.999Z</time></trkpt><trkpt lat="39.10632115688522" lon="16.079597578340003"><ele>8.0</ele><time>2026-03-29T12:21:06.999Z</time></trkpt><trkpt lat="39.10651212716151" lon="16.07951468439085"><ele>8.0</ele><time>2026-03-29T12:21:07.999Z</time></trkpt><trkpt lat="39.10670372885308" lon="16.079429927503217"><ele>8.0</ele><time>2026-03-29T12:21:08.999Z</time></trkpt><trkpt lat="39.10689896783289" lon="16.079336730329498"><ele>8.0</ele><time>2026-03-29T12:21:09.999Z</time></trkpt><trkpt lat="39.10709271705027" lon="16.079247796062337"><ele>8.0</ele><time>2026-03-29T12:21:10.999Z</time></trkpt><trkpt lat="39.10728539617941" lon="16.079164300777688"><ele>7.666666666666666</ele><time>2026-03-29T12:21:11.999Z</time></trkpt><trkpt lat="39.1074758062716" lon="16.07909151399869"><ele>7.333333333333334</ele><time>2026-03-29T12:21:12.999Z</time></trkpt><trkpt lat="39.10766451023345" lon="16.079032313575077"><ele>7.0</ele><time>2026-03-29T12:21:13.999Z</time></trkpt><trkpt lat="39.107853496653526" lon="16.078982883044798"><ele>7.0</ele><time>2026-03-29T12:21:14.999Z</time></trkpt><trkpt lat="39.108038149391554" lon="16.078946544709844"><ele>7.0</ele><time>2026-03-29T12:21:15.999Z</time></trkpt><trkpt lat="39.108215015165946" lon="16.078927402650127"><ele>7.0</ele><time>2026-03-29T12:21:16.999Z</time></trkpt><trkpt lat="39.108395069848825" lon="16.078894573238408"><ele>7.333333333333334</ele><time>2026-03-29T12:21:17.999Z</time></trkpt><trkpt lat="39.10857369817492" lon="16.078863494167983"><ele>7.666666666666666</ele><time>2026-03-29T12:21:18.999Z</time></trkpt><trkpt lat="39.10875091539035" lon="16.078838585235427"><ele>8.0</ele><time>2026-03-29T12:21:19.999Z</time></trkpt><trkpt lat="39.10892629123577" lon="16.078810811201098"><ele>8.0</ele><time>2026-03-29T12:21:20.999Z</time></trkpt><trkpt lat="39.109098756621606" lon="16.078779267906867"><ele>8.0</ele><time>2026-03-29T12:21:21.999Z</time></trkpt><trkpt lat="39.10927124147717" lon="16.078752841897682"><ele>8.0</ele><time>2026-03-29T12:21:22.999Z</time></trkpt><trkpt lat="39.10944266073766" lon="16.07872018863872"><ele>8.0</ele><time>2026-03-29T12:21:23.999Z</time></trkpt><trkpt lat="39.109610537490845" lon="16.07868726790539"><ele>8.0</ele><time>2026-03-29T12:21:24.999Z</time></trkpt><trkpt lat="39.109780827799106" lon="16.078655211336137"><ele>8.0</ele><time>2026-03-29T12:21:25.999Z</time></trkpt><trkpt lat="39.109957118903296" lon="16.07862757739616"><ele>7.666666666666666</ele><time>2026-03-29T12:21:26.999Z</time></trkpt><trkpt lat="39.110131178208476" lon="16.0786001159459"><ele>7.333333333333334</ele><time>2026-03-29T12:21:27.999Z</time></trkpt><trkpt lat="39.1103035073302" lon="16.078573520524163"><ele>7.0</ele><time>2026-03-29T12:21:28.999Z</time></trkpt><trkpt lat="39.11047741583318" lon="16.078546717933175"><ele>7.0</ele><time>2026-03-29T12:21:29.999Z</time></trkpt><trkpt lat="39.11065223983646" lon="16.078517356345845"><ele>7.0</ele><time>2026-03-29T12:21:30.999Z</time></trkpt><trkpt lat="39.1108280965955" lon="16.078487586445206"><ele>7.0</ele><time>2026-03-29T12:21:31.999Z</time></trkpt><trkpt lat="39.111002356327724" lon="16.078461210411962"><ele>6.333333333333334</ele><time>2026-03-29T12:21:32.999Z</time></trkpt><trkpt lat="39.11117513435229" lon="16.078434947101503"><ele>5.666666666666667</ele><time>2026-03-29T12:21:33.999Z</time></trkpt><trkpt lat="39.11135151927672" lon="16.078405858129255"><ele>5.0</ele><time>2026-03-29T12:21:34.999Z</time></trkpt><trkpt lat="39.11152753124498" lon="16.07837600809954"><ele>5.0</ele><time>2026-03-29T12:21:35.999Z</time></trkpt><trkpt lat="39.11170517363808" lon="16.07833313743799"><ele>5.0</ele><time>2026-03-29T12:21:36.999Z</time></trkpt><trkpt lat="39.111884948823224" lon="16.078284415981585"><ele>5.0</ele><time>2026-03-29T12:21:37.999Z</time></trkpt><trkpt lat="39.112064089893195" lon="16.078227897489285"><ele>5.0</ele><time>2026-03-29T12:21:38.999Z</time></trkpt><trkpt lat="39.11224344176039" lon="16.07816589856218"><ele>5.0</ele><time>2026-03-29T12:21:39.999Z</time></trkpt><trkpt lat="39.1124218070121" lon="16.07809988878669"><ele>5.0</ele><time>2026-03-29T12:21:40.999Z</time></trkpt><trkpt lat="39.11259629369381" lon="16.078027413253846"><ele>5.333333333333334</ele><time>2026-03-29T12:21:41.999Z</time></trkpt><trkpt lat="39.11276482330816" lon="16.077951461760616"><ele>5.666666666666667</ele><time>2026-03-29T12:21:42.999Z</time></trkpt><trkpt lat="39.112932227054" lon="16.07787358549434"><ele>6.0</ele><time>2026-03-29T12:21:43.999Z</time></trkpt><trkpt lat="39.11309125270857" lon="16.07779501034617"><ele>6.0</ele><time>2026-03-29T12:21:44.999Z</time></trkpt><trkpt lat="39.11323946242665" lon="16.07772157518981"><ele>6.0</ele><time>2026-03-29T12:21:45.999Z</time></trkpt><trkpt lat="39.11337529794735" lon="16.077658756079884"><ele>6.0</ele><time>2026-03-29T12:21:46.999Z</time></trkpt><trkpt lat="39.11350020711668" lon="16.077610928989447"><ele>6.0</ele><time>2026-03-29T12:21:47.999Z</time></trkpt><trkpt lat="39.11361733452967" lon="16.077588871893926"><ele>6.0</ele><time>2026-03-29T12:21:48.999Z</time></trkpt><trkpt lat="39.11372187087898" lon="16.077565787349062"><ele>6.0</ele><time>2026-03-29T12:21:49.999Z</time></trkpt><trkpt lat="39.113810587004046" lon="16.077565086110596"><ele>6.0</ele><time>2026-03-29T12:21:50.999Z</time></trkpt><trkpt lat="39.1138906742195" lon="16.077547381646713"><ele>6.0</ele><time>2026-03-29T12:21:51.999Z</time></trkpt><trkpt lat="39.11396002230103" lon="16.07749890651378"><ele>6.0</ele><time>2026-03-29T12:21:52.999Z</time></trkpt><trkpt lat="39.1140164686103" lon="16.07743239362641"><ele>6.0</ele><time>2026-03-29T12:21:53.999Z</time></trkpt><trkpt lat="39.114081745879986" lon="16.077371997456126"><ele>5.666666666666667</ele><time>2026-03-29T12:21:54.999Z</time></trkpt><trkpt lat="39.11414919103194" lon="16.077315333389183"><ele>5.333333333333333</ele><time>2026-03-29T12:21:55.999Z</time></trkpt><trkpt lat="39.11422641942996" lon="16.0772647398844"><ele>5.0</ele><time>2026-03-29T12:21:56.999Z</time></trkpt><trkpt lat="39.11430505229775" lon="16.077223123717342"><ele>4.666666666666666</ele><time>2026-03-29T12:21:57.999Z</time></trkpt><trkpt lat="39.11438548525939" lon="16.077183381051615"><ele>4.333333333333333</ele><time>2026-03-29T12:21:58.999Z</time></trkpt><trkpt lat="39.114467205399" lon="16.07714484396814"><ele>4.0</ele><time>2026-03-29T12:21:59.999Z</time></trkpt><trkpt lat="39.11454756190525" lon="16.07710932270282"><ele>4.0</ele><time>2026-03-29T12:22:00.999Z</time></trkpt><trkpt lat="39.11462957878122" lon="16.077071474317865"><ele>4.0</ele><time>2026-03-29T12:22:01.999Z</time></trkpt><trkpt lat="39.114716282579494" lon="16.077030638384116"><ele>4.0</ele><time>2026-03-29T12:22:02.999Z</time></trkpt><trkpt lat="39.114804473829786" lon="16.07698742296388"><ele>4.0</ele><time>2026-03-29T12:22:03.999Z</time></trkpt><trkpt lat="39.11489983125622" lon="16.076944469459765"><ele>4.0</ele><time>2026-03-29T12:22:04.999Z</time></trkpt><trkpt lat="39.114999423888385" lon="16.0768946657748"><ele>4.800000000000001</ele><time>2026-03-29T12:22:05.999Z</time></trkpt><trkpt lat="39.11510259568843" lon="16.076846299880014"><ele>5.6000000000000005</ele><time>2026-03-29T12:22:06.999Z</time></trkpt><trkpt lat="39.11520498055562" lon="16.076794709766325"><ele>6.4</ele><time>2026-03-29T12:22:07.999Z</time></trkpt><trkpt lat="39.11530922227203" lon="16.076743068287204"><ele>7.2</ele><time>2026-03-29T12:22:08.999Z</time></trkpt><trkpt lat="39.11541375293654" lon="16.076691316310832"><ele>8.0</ele><time>2026-03-29T12:22:09.999Z</time></trkpt><trkpt lat="39.11551927358386" lon="16.07663966808863"><ele>7.5</ele><time>2026-03-29T12:22:10.999Z</time></trkpt><trkpt lat="39.11562615429923" lon="16.076589651167748"><ele>7.0</ele><time>2026-03-29T12:22:11.999Z</time></trkpt><trkpt lat="39.11573429638045" lon="16.076539554992078"><ele>6.5</ele><time>2026-03-29T12:22:12.999Z</time></trkpt><trkpt lat="39.11584346590397" lon="16.07649036976117"><ele>6.0</ele><time>2026-03-29T12:22:13.999Z</time></trkpt><trkpt lat="39.115954772216604" lon="16.076439067571368"><ele>6.0</ele><time>2026-03-29T12:22:14.999Z</time></trkpt><trkpt lat="39.116067411392656" lon="16.07638626276582"><ele>6.0</ele><time>2026-03-29T12:22:15.999Z</time></trkpt><trkpt lat="39.11618436143189" lon="16.07633125545858"><ele>6.0</ele><time>2026-03-29T12:22:16.999Z</time></trkpt><trkpt lat="39.116302732109105" lon="16.076275383554805"><ele>6.0</ele><time>2026-03-29T12:22:17.999Z</time></trkpt><trkpt lat="39.11642620820846" lon="16.076217495649363"><ele>6.0</ele><time>2026-03-29T12:22:19Z</time></trkpt><trkpt lat="39.11655227652224" lon="16.0761586141618"><ele>6.0</ele><time>2026-03-29T12:22:20Z</time></trkpt><trkpt lat="39.11667775215036" lon="16.076099111285693"><ele>6.0</ele><time>2026-03-29T12:22:21Z</time></trkpt><trkpt lat="39.116805509508225" lon="16.076039318184225"><ele>6.0</ele><time>2026-03-29T12:22:22Z</time></trkpt><trkpt lat="39.1169312965756" lon="16.075980211056127"><ele>6.25</ele><time>2026-03-29T12:22:23Z</time></trkpt><trkpt lat="39.117054100278175" lon="16.075921178462"><ele>6.5</ele><time>2026-03-29T12:22:24Z</time></trkpt><trkpt lat="39.11717548402131" lon="16.075862875974885"><ele>6.75</ele><time>2026-03-29T12:22:25Z</time></trkpt><trkpt lat="39.1173000149707" lon="16.07580212664083"><ele>7.0</ele><time>2026-03-29T12:22:26Z</time></trkpt><trkpt lat="39.11742785472415" lon="16.075740834895004"><ele>7.5</ele><time>2026-03-29T12:22:27Z</time></trkpt><trkpt lat="39.11755877058543" lon="16.075678888553824"><ele>8.0</ele><time>2026-03-29T12:22:28Z</time></trkpt><trkpt lat="39.11769688531361" lon="16.075616969034357"><ele>8.5</ele><time>2026-03-29T12:22:29Z</time></trkpt><trkpt lat="39.11783814197398" lon="16.07554996117189"><ele>9.0</ele><time>2026-03-29T12:22:30Z</time></trkpt><trkpt lat="39.11797929221544" lon="16.075481568982298"><ele>9.0</ele><time>2026-03-29T12:22:31Z</time></trkpt><trkpt lat="39.11812622937689" lon="16.07541157631511"><ele>9.0</ele><time>2026-03-29T12:22:32Z</time></trkpt><trkpt lat="39.11827365434549" lon="16.075342124121924"><ele>9.0</ele><time>2026-03-29T12:22:33Z</time></trkpt><trkpt lat="39.11842231147377" lon="16.07527106728386"><ele>9.0</ele><time>2026-03-29T12:22:34Z</time></trkpt><trkpt lat="39.118571646757715" lon="16.075199788839814"><ele>9.0</ele><time>2026-03-29T12:22:35Z</time></trkpt><trkpt lat="39.11872239278702" lon="16.0751302491383"><ele>9.0</ele><time>2026-03-29T12:22:36Z</time></trkpt><trkpt lat="39.11887412017065" lon="16.075057193946247"><ele>9.0</ele><time>2026-03-29T12:22:37Z</time></trkpt><trkpt lat="39.119023780489194" lon="16.074989373984184"><ele>9.0</ele><time>2026-03-29T12:22:38Z</time></trkpt><trkpt lat="39.11916917798685" lon="16.074922366413034"><ele>9.0</ele><time>2026-03-29T12:22:39Z</time></trkpt><trkpt lat="39.11930370360275" lon="16.074861042950236"><ele>8.8</ele><time>2026-03-29T12:22:40Z</time></trkpt><trkpt lat="39.11941840878505" lon="16.07480750615414"><ele>8.600000000000001</ele><time>2026-03-29T12:22:41Z</time></trkpt><trkpt lat="39.119521978278925" lon="16.0747607180685"><ele>8.4</ele><time>2026-03-29T12:22:42Z</time></trkpt><trkpt lat="39.11960103988887" lon="16.074735205225533"><ele>8.200000000000001</ele><time>2026-03-29T12:22:43Z</time></trkpt><trkpt lat="39.11970590219805" lon="16.074712875217077"><ele>8.0</ele><time>2026-03-29T12:22:45Z</time></trkpt><trkpt lat="39.11979709737477" lon="16.074651781837634"><ele>7.833333333333333</ele><time>2026-03-29T12:24:16.999Z</time></trkpt><trkpt lat="39.11990763035564" lon="16.074577749972192"><ele>7.666666666666666</ele><time>2026-03-29T12:24:18.999Z</time></trkpt><trkpt lat="39.1199742610114" lon="16.074542496383206"><ele>7.5</ele><time>2026-03-29T12:24:19.999Z</time></trkpt><trkpt lat="39.12004683387864" lon="16.07450591794725"><ele>7.333333333333334</ele><time>2026-03-29T12:24:20.999Z</time></trkpt><trkpt lat="39.12012309197909" lon="16.07446955121247"><ele>7.166666666666667</ele><time>2026-03-29T12:24:21.999Z</time></trkpt><trkpt lat="39.120203878534234" lon="16.07443297875417"><ele>7.0</ele><time>2026-03-29T12:24:22.999Z</time></trkpt><trkpt lat="39.12029203906595" lon="16.074391020309108"><ele>7.0</ele><time>2026-03-29T12:24:23.999Z</time></trkpt><trkpt lat="39.12038472504875" lon="16.074348208033367"><ele>6.999999999999999</ele><time>2026-03-29T12:24:25Z</time></trkpt><trkpt lat="39.12048257532337" lon="16.074305357516316"><ele>6.999999999999999</ele><time>2026-03-29T12:24:26Z</time></trkpt><trkpt lat="39.12058694247161" lon="16.07425807520605"><ele>7.0</ele><time>2026-03-29T12:24:27Z</time></trkpt><trkpt lat="39.12069895950209" lon="16.074205575914654"><ele>7.0</ele><time>2026-03-29T12:24:28Z</time></trkpt><trkpt lat="39.12081633248664" lon="16.074149110190028"><ele>6.0</ele><time>2026-03-29T12:24:29Z</time></trkpt><trkpt lat="39.12093676420514" lon="16.074092709598744"><ele>5.0</ele><time>2026-03-29T12:24:30Z</time></trkpt><trkpt lat="39.121059143107026" lon="16.074036501413637"><ele>4.0</ele><time>2026-03-29T12:24:31Z</time></trkpt><trkpt lat="39.12118381015057" lon="16.073980719593127"><ele>3.0</ele><time>2026-03-29T12:24:32Z</time></trkpt><trkpt lat="39.12130943074978" lon="16.07392348644835"><ele>3.0</ele><time>2026-03-29T12:24:33Z</time></trkpt><trkpt lat="39.12143509048164" lon="16.073863125574693"><ele>3.0</ele><time>2026-03-29T12:24:34Z</time></trkpt><trkpt lat="39.12156210144761" lon="16.073802910706288"><ele>3.0</ele><time>2026-03-29T12:24:35Z</time></trkpt><trkpt lat="39.121692169318514" lon="16.073739923415598"><ele>3.0</ele><time>2026-03-29T12:24:36Z</time></trkpt><trkpt lat="39.12182349468621" lon="16.07367752470271"><ele>3.5</ele><time>2026-03-29T12:24:37Z</time></trkpt><trkpt lat="39.121955896078944" lon="16.07361525057576"><ele>4.0</ele><time>2026-03-29T12:24:38Z</time></trkpt><trkpt lat="39.122091275117434" lon="16.073553483864842"><ele>4.5</ele><time>2026-03-29T12:24:39Z</time></trkpt><trkpt lat="39.12222902321999" lon="16.07349330208726"><ele>5.0</ele><time>2026-03-29T12:24:40Z</time></trkpt><trkpt lat="39.12236688490988" lon="16.07343156583986"><ele>5.5</ele><time>2026-03-29T12:24:41Z</time></trkpt><trkpt lat="39.122505227570144" lon="16.073369805870264"><ele>6.0</ele><time>2026-03-29T12:24:42Z</time></trkpt><trkpt lat="39.12264344621633" lon="16.073310418399355"><ele>6.5</ele><time>2026-03-29T12:24:43Z</time></trkpt><trkpt lat="39.12278399634238" lon="16.073254032602755"><ele>7.0</ele><time>2026-03-29T12:24:44Z</time></trkpt><trkpt lat="39.12292611887164" lon="16.073200845581283"><ele>6.0</ele><time>2026-03-29T12:24:45Z</time></trkpt><trkpt lat="39.123069441108456" lon="16.073150251407327"><ele>5.0</ele><time>2026-03-29T12:24:46Z</time></trkpt><trkpt lat="39.12321172138931" lon="16.073099446919418"><ele>4.0</ele><time>2026-03-29T12:24:46.999Z</time></trkpt><trkpt lat="39.12335190814961" lon="16.07304894784244"><ele>3.0</ele><time>2026-03-29T12:24:47.999Z</time></trkpt><trkpt lat="39.12349042657374" lon="16.0729975144923"><ele>3.0</ele><time>2026-03-29T12:24:48.999Z</time></trkpt><trkpt lat="39.12363047151318" lon="16.07294583477608"><ele>3.0</ele><time>2026-03-29T12:24:49.999Z</time></trkpt><trkpt lat="39.12377153827769" lon="16.072893081271676"><ele>3.0</ele><time>2026-03-29T12:24:50.999Z</time></trkpt><trkpt lat="39.12391218272586" lon="16.072841094042275"><ele>3.0</ele><time>2026-03-29T12:24:51.999Z</time></trkpt><trkpt lat="39.124053250771915" lon="16.07278830025557"><ele>3.5</ele><time>2026-03-29T12:24:52.999Z</time></trkpt><trkpt lat="39.124195281840336" lon="16.072735915439218"><ele>4.0</ele><time>2026-03-29T12:24:53.999Z</time></trkpt><trkpt lat="39.124339123500896" lon="16.072682617733257"><ele>4.5</ele><time>2026-03-29T12:24:54.999Z</time></trkpt><trkpt lat="39.124482937784435" lon="16.072628607624058"><ele>5.0</ele><time>2026-03-29T12:24:55.999Z</time></trkpt><trkpt lat="39.12462972611558" lon="16.072574980624307"><ele>5.0</ele><time>2026-03-29T12:24:56.999Z</time></trkpt><trkpt lat="39.12477917054051" lon="16.072518972141882"><ele>5.0</ele><time>2026-03-29T12:24:57.999Z</time></trkpt><trkpt lat="39.1249273316356" lon="16.072461460819373"><ele>5.0</ele><time>2026-03-29T12:24:58.999Z</time></trkpt><trkpt lat="39.125072037161786" lon="16.07240672501565"><ele>4.666666666666667</ele><time>2026-03-29T12:24:59.999Z</time></trkpt><trkpt lat="39.12521783523931" lon="16.072351294339885"><ele>4.333333333333333</ele><time>2026-03-29T12:25:00.999Z</time></trkpt><trkpt lat="39.12536266702376" lon="16.072298159356205"><ele>4.0</ele><time>2026-03-29T12:25:01.999Z</time></trkpt><trkpt lat="39.12550677426229" lon="16.07224473675868"><ele>4.0</ele><time>2026-03-29T12:25:02.999Z</time></trkpt><trkpt lat="39.125641498000356" lon="16.07219576599851"><ele>4.0</ele><time>2026-03-29T12:25:03.999Z</time></trkpt><trkpt lat="39.12577198318706" lon="16.07214767335409"><ele>4.0</ele><time>2026-03-29T12:25:04.999Z</time></trkpt><trkpt lat="39.125896623014505" lon="16.072103715954896"><ele>4.0</ele><time>2026-03-29T12:25:05.999Z</time></trkpt><trkpt lat="39.12601466037356" lon="16.072063631497322"><ele>5.25</ele><time>2026-03-29T12:25:06.999Z</time></trkpt><trkpt lat="39.12612920731255" lon="16.07202445986674"><ele>6.5</ele><time>2026-03-29T12:25:07.999Z</time></trkpt><trkpt lat="39.12624250110403" lon="16.07198692893316"><ele>7.75</ele><time>2026-03-29T12:25:08.999Z</time></trkpt><trkpt lat="39.12635307515306" lon="16.071945260695617"><ele>9.0</ele><time>2026-03-29T12:25:09.999Z</time></trkpt><trkpt lat="39.126464974649316" lon="16.07190353938087"><ele>8.5</ele><time>2026-03-29T12:25:10.999Z</time></trkpt><trkpt lat="39.1265786474899" lon="16.071858434218772"><ele>8.0</ele><time>2026-03-29T12:25:11.999Z</time></trkpt><trkpt lat="39.12669490003034" lon="16.0718107445776"><ele>7.5</ele><time>2026-03-29T12:25:12.999Z</time></trkpt><trkpt lat="39.12681499128347" lon="16.071763089642175"><ele>7.0</ele><time>2026-03-29T12:25:13.999Z</time></trkpt><trkpt lat="39.12693752162664" lon="16.071718271351877"><ele>7.0</ele><time>2026-03-29T12:25:14.999Z</time></trkpt><trkpt lat="39.12706246152131" lon="16.07167430867763"><ele>7.0</ele><time>2026-03-29T12:25:15.999Z</time></trkpt><trkpt lat="39.127190922635165" lon="16.071629411315005"><ele>7.0</ele><time>2026-03-29T12:25:16.999Z</time></trkpt><trkpt lat="39.12731769460321" lon="16.071585455565934"><ele>7.0</ele><time>2026-03-29T12:25:17.999Z</time></trkpt><trkpt lat="39.12744221690517" lon="16.071537809507284"><ele>6.25</ele><time>2026-03-29T12:25:18.999Z</time></trkpt><trkpt lat="39.12756500963003" lon="16.0714901555597"><ele>5.5</ele><time>2026-03-29T12:25:19.999Z</time></trkpt><trkpt lat="39.12768466726399" lon="16.071444874886627"><ele>4.75</ele><time>2026-03-29T12:25:20.999Z</time></trkpt><trkpt lat="39.12780012000405" lon="16.071401640856962"><ele>4.0</ele><time>2026-03-29T12:25:21.999Z</time></trkpt><trkpt lat="39.12791043254745" lon="16.071361537345656"><ele>4.0</ele><time>2026-03-29T12:25:22.999Z</time></trkpt><trkpt lat="39.12801212266919" lon="16.071324247628734"><ele>4.0</ele><time>2026-03-29T12:25:23.999Z</time></trkpt><trkpt lat="39.128109797152234" lon="16.071288713554477"><ele>4.0</ele><time>2026-03-29T12:25:24.999Z</time></trkpt><trkpt lat="39.12820240531157" lon="16.071254252519186"><ele>4.0</ele><time>2026-03-29T12:25:25.999Z</time></trkpt><trkpt lat="39.12828323785107" lon="16.07122303819139"><ele>4.0</ele><time>2026-03-29T12:25:26.999Z</time></trkpt><trkpt lat="39.12835453487414" lon="16.07119646050064"><ele>4.285714285714286</ele><time>2026-03-29T12:25:27.999Z</time></trkpt><trkpt lat="39.1284212487333" lon="16.071172401255826"><ele>4.571428571428571</ele><time>2026-03-29T12:25:28.999Z</time></trkpt><trkpt lat="39.12848516814163" lon="16.071149103289695"><ele>4.857142857142857</ele><time>2026-03-29T12:25:29.999Z</time></trkpt><trkpt lat="39.12854860340009" lon="16.0711283478624"><ele>5.142857142857142</ele><time>2026-03-29T12:25:30.999Z</time></trkpt><trkpt lat="39.12861317724993" lon="16.071107771906522"><ele>5.428571428571429</ele><time>2026-03-29T12:25:31.999Z</time></trkpt><trkpt lat="39.128677003232504" lon="16.071086687146384"><ele>5.7142857142857135</ele><time>2026-03-29T12:25:32.999Z</time></trkpt><trkpt lat="39.12873975671138" lon="16.071066526756326"><ele>6.0</ele><time>2026-03-29T12:25:33.999Z</time></trkpt><trkpt lat="39.12884796167648" lon="16.07102656919183"><ele>6.0</ele><time>2026-03-29T12:25:35.999Z</time></trkpt><trkpt lat="39.12892917337052" lon="16.07100285879205"><ele>6.0</ele><time>2026-03-29T12:25:37.999Z</time></trkpt><trkpt lat="39.12899519646441" lon="16.070988929679615"><ele>6.0</ele><time>2026-03-29T12:25:39.998Z</time></trkpt><trkpt lat="39.12909036066884" lon="16.070966218499745"><ele>6.0</ele><time>2026-03-29T12:25:41.998Z</time></trkpt><trkpt lat="39.12921743446077" lon="16.07093820020652"><ele>6.0</ele><time>2026-03-29T12:25:43.998Z</time></trkpt><trkpt lat="39.12928726335987" lon="16.070926802885978"><ele>6.0</ele><time>2026-03-29T12:25:44.998Z</time></trkpt><trkpt lat="39.12935983082541" lon="16.07091869174663"><ele>5.999999999999999</ele><time>2026-03-29T12:25:45.998Z</time></trkpt><trkpt lat="39.12943350524566" lon="16.070913439201384"><ele>6.0</ele><time>2026-03-29T12:25:46.998Z</time></trkpt><trkpt lat="39.12951101141472" lon="16.07090728076863"><ele>6.0</ele><time>2026-03-29T12:25:47.998Z</time></trkpt><trkpt lat="39.12958606716877" lon="16.070905685879712"><ele>6.0</ele><time>2026-03-29T12:25:48.998Z</time></trkpt><trkpt lat="39.12966114120379" lon="16.070903147764707"><ele>6.0</ele><time>2026-03-29T12:25:49.998Z</time></trkpt><trkpt lat="39.12973559262668" lon="16.070903764780283"><ele>5.999999999999999</ele><time>2026-03-29T12:25:50.998Z</time></trkpt><trkpt lat="39.12980784758384" lon="16.07090513108346"><ele>6.0</ele><time>2026-03-29T12:25:51.998Z</time></trkpt><trkpt lat="39.129880008914725" lon="16.070907495179842"><ele>6.166666666666667</ele><time>2026-03-29T12:25:52.998Z</time></trkpt><trkpt lat="39.12995403896746" lon="16.070909320571023"><ele>6.333333333333334</ele><time>2026-03-29T12:25:53.998Z</time></trkpt><trkpt lat="39.13002684836048" lon="16.07092079502981"><ele>6.5</ele><time>2026-03-29T12:25:54.998Z</time></trkpt><trkpt lat="39.13009097093225" lon="16.07093276946107"><ele>6.666666666666667</ele><time>2026-03-29T12:25:55.998Z</time></trkpt><trkpt lat="39.130196965400344" lon="16.070950081909572"><ele>6.833333333333334</ele><time>2026-03-29T12:25:57.998Z</time></trkpt><trkpt lat="39.1302679196391" lon="16.07096035485053"><ele>7.0</ele><time>2026-03-29T12:25:59.998Z</time></trkpt><trkpt lat="39.13035396464174" lon="16.070970878768456"><ele>7.0</ele><time>2026-03-29T12:26:16.998Z</time></trkpt><trkpt lat="39.130457781774766" lon="16.070989562198218"><ele>6.999999999999999</ele><time>2026-03-29T12:26:18.998Z</time></trkpt><trkpt lat="39.13058479106762" lon="16.07101527175266"><ele>6.999999999999999</ele><time>2026-03-29T12:26:20.998Z</time></trkpt><trkpt lat="39.13065747242427" lon="16.071029716573843"><ele>7.0</ele><time>2026-03-29T12:26:21.998Z</time></trkpt><trkpt lat="39.130733948990084" lon="16.071043353345576"><ele>7.0</ele><time>2026-03-29T12:26:22.998Z</time></trkpt><trkpt lat="39.13081553997712" lon="16.071057414780068"><ele>7.166666666666667</ele><time>2026-03-29T12:26:23.998Z</time></trkpt><trkpt lat="39.130901779747276" lon="16.071071276422636"><ele>7.333333333333334</ele><time>2026-03-29T12:26:24.998Z</time></trkpt><trkpt lat="39.130989981495624" lon="16.071085052420383"><ele>7.5</ele><time>2026-03-29T12:26:25.998Z</time></trkpt><trkpt lat="39.131079045928345" lon="16.071102492973193"><ele>7.666666666666666</ele><time>2026-03-29T12:26:26.998Z</time></trkpt><trkpt lat="39.131167869439786" lon="16.071119355575917"><ele>7.833333333333333</ele><time>2026-03-29T12:26:27.998Z</time></trkpt><trkpt lat="39.13125331556361" lon="16.071133291132174"><ele>8.0</ele><time>2026-03-29T12:26:28.998Z</time></trkpt><trkpt lat="39.131337611596656" lon="16.071149639918588"><ele>7.999999999999999</ele><time>2026-03-29T12:26:29.998Z</time></trkpt><trkpt lat="39.131420772406365" lon="16.071166030695068"><ele>8.0</ele><time>2026-03-29T12:26:30.999Z</time></trkpt><trkpt lat="39.13150224411403" lon="16.071182709091595"><ele>8.0</ele><time>2026-03-29T12:26:31.999Z</time></trkpt><trkpt lat="39.131581646327454" lon="16.071198374813385"><ele>8.0</ele><time>2026-03-29T12:26:32.999Z</time></trkpt><trkpt lat="39.13166481765756" lon="16.071213552354894"><ele>7.999999999999999</ele><time>2026-03-29T12:26:33.999Z</time></trkpt><trkpt lat="39.13174552388976" lon="16.071226592888994"><ele>8.0</ele><time>2026-03-29T12:26:34.999Z</time></trkpt><trkpt lat="39.13182238294814" lon="16.071239607553245"><ele>7.833333333333333</ele><time>2026-03-29T12:26:35.999Z</time></trkpt><trkpt lat="39.13189699287951" lon="16.07125036026528"><ele>7.666666666666666</ele><time>2026-03-29T12:26:36.999Z</time></trkpt><trkpt lat="39.13196754186992" lon="16.071260453112163"><ele>7.5</ele><time>2026-03-29T12:26:37.999Z</time></trkpt><trkpt lat="39.13203699375453" lon="16.071272607856823"><ele>7.333333333333334</ele><time>2026-03-29T12:26:38.999Z</time></trkpt><trkpt lat="39.13210128826365" lon="16.07128442141045"><ele>7.166666666666667</ele><time>2026-03-29T12:26:39.999Z</time></trkpt><trkpt lat="39.13219576328604" lon="16.071348970894114"><ele>7.0</ele><time>2026-03-29T12:26:41.999Z</time></trkpt><trkpt lat="39.132255313741105" lon="16.07143755179342"><ele>7.0</ele><time>2026-03-29T12:26:44Z</time></trkpt><trkpt lat="39.13228653218858" lon="16.07154496940898"><ele>6.999999999999999</ele><time>2026-03-29T12:26:46Z</time></trkpt><trkpt lat="39.13232195039184" lon="16.071658656169305"><ele>6.999999999999999</ele><time>2026-03-29T12:26:48Z</time></trkpt><trkpt lat="39.13235942462237" lon="16.071783334365985"><ele>7.0</ele><time>2026-03-29T12:26:50Z</time></trkpt><trkpt lat="39.13239228712799" lon="16.07191085278751"><ele>7.0</ele><time>2026-03-29T12:26:52Z</time></trkpt><trkpt lat="39.13242308184154" lon="16.072051438488494"><ele>7.199999999999999</ele><time>2026-03-29T12:26:54Z</time></trkpt><trkpt lat="39.132458010655526" lon="16.072189753013937"><ele>7.3999999999999995</ele><time>2026-03-29T12:26:56Z</time></trkpt><trkpt lat="39.13249554993746" lon="16.07232647866186"><ele>7.6000000000000005</ele><time>2026-03-29T12:26:58Z</time></trkpt><trkpt lat="39.13253660097724" lon="16.072461835155273"><ele>7.800000000000001</ele><time>2026-03-29T12:27:00Z</time></trkpt><trkpt lat="39.13255871696423" lon="16.072538010994847"><ele>8.0</ele><time>2026-03-29T12:27:01Z</time></trkpt><trkpt lat="39.132598011227756" lon="16.0726838102092"><ele>7.999999999999999</ele><time>2026-03-29T12:27:03Z</time></trkpt><trkpt lat="39.13263321580497" lon="16.072810512918863"><ele>8.0</ele><time>2026-03-29T12:27:05Z</time></trkpt><trkpt lat="39.13266739867693" lon="16.072897059374487"><ele>8.0</ele><time>2026-03-29T12:27:07Z</time></trkpt><trkpt lat="39.13267358479649" lon="16.0729828025353"><ele>8.0</ele><time>2026-03-29T12:27:14.999Z</time></trkpt><trkpt lat="39.132706131995306" lon="16.073094841074116"><ele>7.999999999999999</ele><time>2026-03-29T12:27:18.999Z</time></trkpt><trkpt lat="39.13273878378462" lon="16.073172630794097"><ele>8.0</ele><time>2026-03-29T12:27:20.999Z</time></trkpt><trkpt lat="39.13277343138658" lon="16.073254470622445"><ele>7.857142857142857</ele><time>2026-03-29T12:27:22.999Z</time></trkpt><trkpt lat="39.13280930721259" lon="16.07334119317179"><ele>7.7142857142857135</ele><time>2026-03-29T12:27:24.999Z</time></trkpt><trkpt lat="39.13283829625418" lon="16.073436159134534"><ele>7.571428571428571</ele><time>2026-03-29T12:27:26.999Z</time></trkpt><trkpt lat="39.1328671269863" lon="16.073518285675494"><ele>7.428571428571429</ele><time>2026-03-29T12:27:28.999Z</time></trkpt><trkpt lat="39.13289159019087" lon="16.073602794808608"><ele>7.285714285714286</ele><time>2026-03-29T12:27:30.999Z</time></trkpt><trkpt lat="39.132914778327425" lon="16.07368336226069"><ele>7.142857142857142</ele><time>2026-03-29T12:27:32.999Z</time></trkpt><trkpt lat="39.13294838506619" lon="16.07377643087507"><ele>7.0</ele><time>2026-03-29T12:27:34.999Z</time></trkpt><trkpt lat="39.132989738001065" lon="16.07388608605381"><ele>7.0</ele><time>2026-03-29T12:27:36.999Z</time></trkpt><trkpt lat="39.1330295684938" lon="16.074002862194007"><ele>6.999999999999999</ele><time>2026-03-29T12:27:38.999Z</time></trkpt><trkpt lat="39.13306565061622" lon="16.07412294066837"><ele>6.999999999999999</ele><time>2026-03-29T12:27:40.999Z</time></trkpt><trkpt lat="39.13310436082266" lon="16.074237105083476"><ele>7.0</ele><time>2026-03-29T12:27:42.999Z</time></trkpt><trkpt lat="39.13314259340682" lon="16.0743435689317"><ele>7.0</ele><time>2026-03-29T12:27:44.999Z</time></trkpt><trkpt lat="39.13318506658962" lon="16.074440687859507"><ele>7.3999999999999995</ele><time>2026-03-29T12:27:46.999Z</time></trkpt><trkpt lat="39.133226762712965" lon="16.07455641271684"><ele>7.799999999999999</ele><time>2026-03-29T12:27:48.999Z</time></trkpt><trkpt lat="39.13327488211757" lon="16.074698603014795"><ele>8.2</ele><time>2026-03-29T12:27:50.999Z</time></trkpt><trkpt lat="39.13329976216433" lon="16.07477459812299"><ele>8.6</ele><time>2026-03-29T12:27:51.999Z</time></trkpt><trkpt lat="39.133325824694076" lon="16.074848826753378"><ele>9.0</ele><time>2026-03-29T12:27:52.999Z</time></trkpt><trkpt lat="39.13337706916805" lon="16.074979448825815"><ele>9.2</ele><time>2026-03-29T12:27:54.999Z</time></trkpt><trkpt lat="39.13343003291112" lon="16.07509434499507"><ele>9.4</ele><time>2026-03-29T12:27:56.999Z</time></trkpt><trkpt lat="39.13347878408085" lon="16.075198206837495"><ele>9.6</ele><time>2026-03-29T12:27:58.999Z</time></trkpt><trkpt lat="39.13353510156774" lon="16.07530111454339"><ele>9.8</ele><time>2026-03-29T12:28:00.999Z</time></trkpt><trkpt lat="39.13359747242053" lon="16.075403945343247"><ele>10.0</ele><time>2026-03-29T12:28:02.999Z</time></trkpt><trkpt lat="39.13365673698881" lon="16.075515850910868"><ele>10.0</ele><time>2026-03-29T12:28:04.999Z</time></trkpt><trkpt lat="39.13371720959222" lon="16.075629355423096"><ele>10.0</ele><time>2026-03-29T12:28:06.999Z</time></trkpt><trkpt lat="39.13377506835286" lon="16.075747621037948"><ele>10.0</ele><time>2026-03-29T12:28:08.999Z</time></trkpt><trkpt lat="39.13383945671651" lon="16.075871469991426"><ele>10.0</ele><time>2026-03-29T12:28:10.999Z</time></trkpt><trkpt lat="39.13390143162876" lon="16.075985013802157"><ele>10.0</ele><time>2026-03-29T12:28:12.999Z</time></trkpt><trkpt lat="39.13395742666824" lon="16.076078456259662"><ele>10.0</ele><time>2026-03-29T12:28:14.999Z</time></trkpt><trkpt lat="39.13400706078223" lon="16.07615592990523"><ele>10.0</ele><time>2026-03-29T12:28:16.999Z</time></trkpt><trkpt lat="39.13405465772909" lon="16.07624523398932"><ele>10.0</ele><time>2026-03-29T12:28:18.999Z</time></trkpt><trkpt lat="39.134104355786604" lon="16.0763424739521"><ele>10.0</ele><time>2026-03-29T12:28:20.999Z</time></trkpt><trkpt lat="39.13415345359071" lon="16.076448756822067"><ele>10.0</ele><time>2026-03-29T12:28:22.999Z</time></trkpt><trkpt lat="39.13421074721508" lon="16.076531070279206"><ele>10.0</ele><time>2026-03-29T12:28:24.999Z</time></trkpt><trkpt lat="39.13425330171276" lon="16.07664519992503"><ele>10.4</ele><time>2026-03-29T12:28:26.999Z</time></trkpt><trkpt lat="39.13427136710087" lon="16.076771146557025"><ele>10.8</ele><time>2026-03-29T12:28:28.999Z</time></trkpt><trkpt lat="39.134246672896786" lon="16.07689500924512"><ele>11.2</ele><time>2026-03-29T12:28:30.999Z</time></trkpt><trkpt lat="39.134190374962905" lon="16.076992893648413"><ele>11.6</ele><time>2026-03-29T12:28:32.999Z</time></trkpt><trkpt lat="39.13410072401929" lon="16.077063766387493"><ele>12.0</ele><time>2026-03-29T12:28:34.999Z</time></trkpt><trkpt lat="39.13403258192092" lon="16.077130734015775"><ele>12.0</ele><time>2026-03-29T12:28:37Z</time></trkpt><trkpt lat="39.13397608580965" lon="16.077192105308324"><ele>12.0</ele><time>2026-03-29T12:28:39Z</time></trkpt><trkpt lat="39.133917974042575" lon="16.077237707855886"><ele>12.0</ele><time>2026-03-29T12:28:41Z</time></trkpt><trkpt lat="39.133841250934026" lon="16.07730068527168"><ele>12.0</ele><time>2026-03-29T12:28:44Z</time></trkpt><trkpt lat="39.13376617785577" lon="16.077350578248314"><ele>12.0</ele><time>2026-03-29T12:28:46Z</time></trkpt><trkpt lat="39.133684480930654" lon="16.077387080890432"><ele>12.0</ele><time>2026-03-29T12:28:48Z</time></trkpt><trkpt lat="39.13360395005565" lon="16.077424785670573"><ele>12.2</ele><time>2026-03-29T12:28:50Z</time></trkpt><trkpt lat="39.133500852760726" lon="16.077461181987367"><ele>12.399999999999999</ele><time>2026-03-29T12:28:52Z</time></trkpt><trkpt lat="39.13338837656998" lon="16.07750672002469"><ele>12.600000000000001</ele><time>2026-03-29T12:28:54Z</time></trkpt><trkpt lat="39.13328175448554" lon="16.077547172905373"><ele>12.8</ele><time>2026-03-29T12:28:56Z</time></trkpt><trkpt lat="39.133174718144005" lon="16.077592809830886"><ele>13.0</ele><time>2026-03-29T12:28:58Z</time></trkpt><trkpt lat="39.133064702771556" lon="16.07763712216554"><ele>12.0</ele><time>2026-03-29T12:29:00Z</time></trkpt><trkpt lat="39.13295271755528" lon="16.07767723382224"><ele>11.0</ele><time>2026-03-29T12:29:02Z</time></trkpt><trkpt lat="39.13285584186997" lon="16.077725889426755"><ele>10.0</ele><time>2026-03-29T12:29:04Z</time></trkpt><trkpt lat="39.1327576290583" lon="16.07776565118903"><ele>9.0</ele><time>2026-03-29T12:29:06Z</time></trkpt><trkpt lat="39.13265641599785" lon="16.077802741577077"><ele>8.0</ele><time>2026-03-29T12:29:08Z</time></trkpt><trkpt lat="39.13256274562059" lon="16.077845754057872"><ele>7.999999999999999</ele><time>2026-03-29T12:29:10Z</time></trkpt><trkpt lat="39.132475361861545" lon="16.0778830979217"><ele>8.0</ele><time>2026-03-29T12:29:12Z</time></trkpt><trkpt lat="39.13240801726248" lon="16.077913870342243"><ele>8.0</ele><time>2026-03-29T12:29:14Z</time></trkpt><trkpt lat="39.132332636793976" lon="16.077942299753776"><ele>8.0</ele><time>2026-03-29T12:29:15.999Z</time></trkpt><trkpt lat="39.132243819390936" lon="16.07797396635877"><ele>7.999999999999999</ele><time>2026-03-29T12:29:17.999Z</time></trkpt><trkpt lat="39.13214400386473" lon="16.07800519678144"><ele>8.0</ele><time>2026-03-29T12:29:19.999Z</time></trkpt><trkpt lat="39.132054143366915" lon="16.0780415130796"><ele>7.999999999999999</ele><time>2026-03-29T12:29:21.999Z</time></trkpt><trkpt lat="39.13197882079918" lon="16.078072227674838"><ele>8.0</ele><time>2026-03-29T12:29:23.999Z</time></trkpt><trkpt lat="39.13190593869674" lon="16.07810605245316"><ele>8.0</ele><time>2026-03-29T12:29:25.999Z</time></trkpt><trkpt lat="39.131819456949124" lon="16.07813930593707"><ele>8.0</ele><time>2026-03-29T12:29:27.999Z</time></trkpt><trkpt lat="39.131721983743304" lon="16.078158806966623"><ele>7.999999999999999</ele><time>2026-03-29T12:29:29.999Z</time></trkpt><trkpt lat="39.131622782608844" lon="16.07816589706771"><ele>8.0</ele><time>2026-03-29T12:29:31.999Z</time></trkpt><trkpt lat="39.13153400095831" lon="16.07816882813188"><ele>8.200000000000001</ele><time>2026-03-29T12:29:33.999Z</time></trkpt><trkpt lat="39.13144483199506" lon="16.078177510574047"><ele>8.4</ele><time>2026-03-29T12:29:35.999Z</time></trkpt><trkpt lat="39.13134984654414" lon="16.078193560312336"><ele>8.600000000000001</ele><time>2026-03-29T12:29:37.999Z</time></trkpt><trkpt lat="39.13125048294099" lon="16.078209552812822"><ele>8.8</ele><time>2026-03-29T12:29:39.999Z</time></trkpt><trkpt lat="39.131139638041695" lon="16.078218137011955"><ele>9.0</ele><time>2026-03-29T12:29:41.999Z</time></trkpt><trkpt lat="39.131030394030354" lon="16.078237435334216"><ele>9.0</ele><time>2026-03-29T12:29:43.999Z</time></trkpt><trkpt lat="39.13094193426919" lon="16.078240298443152"><ele>9.0</ele><time>2026-03-29T12:29:45.999Z</time></trkpt><trkpt lat="39.130869229720076" lon="16.078249123513125"><ele>9.0</ele><time>2026-03-29T12:29:47.999Z</time></trkpt><trkpt lat="39.13080786791572" lon="16.078267470511868"><ele>9.0</ele><time>2026-03-29T12:29:49.999Z</time></trkpt><trkpt lat="39.13073619039005" lon="16.078279741282934"><ele>9.0</ele><time>2026-03-29T12:29:52.999Z</time></trkpt><trkpt lat="39.1306645136976" lon="16.07829579613932"><ele>9.0</ele><time>2026-03-29T12:29:55.999Z</time></trkpt><trkpt lat="39.130581404660084" lon="16.07831602069478"><ele>9.333333333333334</ele><time>2026-03-29T12:29:58.999Z</time></trkpt><trkpt lat="39.13048296429922" lon="16.078324566450235"><ele>9.666666666666666</ele><time>2026-03-29T12:30:00.999Z</time></trkpt><trkpt lat="39.13041828699738" lon="16.07833195439047"><ele>10.0</ele><time>2026-03-29T12:30:01.999Z</time></trkpt><trkpt lat="39.13034665120353" lon="16.07833777612067"><ele>10.333333333333332</ele><time>2026-03-29T12:30:02.999Z</time></trkpt><trkpt lat="39.130272169141726" lon="16.078351981387996"><ele>10.666666666666666</ele><time>2026-03-29T12:30:03.999Z</time></trkpt><trkpt lat="39.13020588021747" lon="16.07837098289425"><ele>11.0</ele><time>2026-03-29T12:30:04.999Z</time></trkpt><trkpt lat="39.130085365391054" lon="16.07840131075339"><ele>11.0</ele><time>2026-03-29T12:30:06.999Z</time></trkpt><trkpt lat="39.13002019389409" lon="16.078412251614854"><ele>11.0</ele><time>2026-03-29T12:30:07.999Z</time></trkpt><trkpt lat="39.12991423686354" lon="16.07843728454542"><ele>11.0</ele><time>2026-03-29T12:30:09.999Z</time></trkpt><trkpt lat="39.129828251079395" lon="16.078468920814657"><ele>11.0</ele><time>2026-03-29T12:30:11.999Z</time></trkpt><trkpt lat="39.12972845108864" lon="16.078489261320527"><ele>11.0</ele><time>2026-03-29T12:30:13.999Z</time></trkpt><trkpt lat="39.12963912421105" lon="16.078487650807915"><ele>11.600000000000001</ele><time>2026-03-29T12:30:15.999Z</time></trkpt><trkpt lat="39.129562150062" lon="16.07851065679201"><ele>12.2</ele><time>2026-03-29T12:30:17.999Z</time></trkpt><trkpt lat="39.129468148100386" lon="16.07853929404375"><ele>12.799999999999999</ele><time>2026-03-29T12:30:19.999Z</time></trkpt><trkpt lat="39.129373088507045" lon="16.078560706652667"><ele>13.399999999999999</ele><time>2026-03-29T12:30:21.999Z</time></trkpt><trkpt lat="39.1292748323493" lon="16.07858326220139"><ele>14.0</ele><time>2026-03-29T12:30:23.999Z</time></trkpt><trkpt lat="39.129177626681255" lon="16.07860805391586"><ele>14.0</ele><time>2026-03-29T12:30:25.999Z</time></trkpt><trkpt lat="39.12908401328672" lon="16.07862374110844"><ele>13.999999999999998</ele><time>2026-03-29T12:30:27.999Z</time></trkpt><trkpt lat="39.128997200290335" lon="16.078642189209894"><ele>13.999999999999998</ele><time>2026-03-29T12:30:29.999Z</time></trkpt><trkpt lat="39.12892056851067" lon="16.078674763933197"><ele>14.0</ele><time>2026-03-29T12:30:31.999Z</time></trkpt><trkpt lat="39.12884987743765" lon="16.07872066545044"><ele>14.0</ele><time>2026-03-29T12:30:33.999Z</time></trkpt><trkpt lat="39.128744266145134" lon="16.078749690872634"><ele>14.799999999999999</ele><time>2026-03-29T12:30:35.999Z</time></trkpt><trkpt lat="39.12862671248293" lon="16.078765419943295"><ele>15.599999999999998</ele><time>2026-03-29T12:30:37.999Z</time></trkpt><trkpt lat="39.12853521807752" lon="16.07878107057768"><ele>16.4</ele><time>2026-03-29T12:30:39.999Z</time></trkpt><trkpt lat="39.12848556636801" lon="16.07859791351204"><ele>17.2</ele><time>2026-03-29T12:30:46Z</time></trkpt><trkpt lat="39.12847106908142" lon="16.078485738917625"><ele>18.0</ele><time>2026-03-29T12:30:48Z</time></trkpt><trkpt lat="39.12845702883009" lon="16.078377100554178"><ele>18.000000000000004</ele><time>2026-03-29T12:30:50Z</time></trkpt><trkpt lat="39.128444774060014" lon="16.07828227759806"><ele>18.0</ele><time>2026-03-29T12:30:52Z</time></trkpt><trkpt lat="39.12843323714093" lon="16.078193009105593"><ele>18.0</ele><time>2026-03-29T12:30:54Z</time></trkpt><trkpt lat="39.128422052263225" lon="16.078106464527142"><ele>18.0</ele><time>2026-03-29T12:30:56Z</time></trkpt><trkpt lat="39.1284110851613" lon="16.078021602285812"><ele>18.0</ele><time>2026-03-29T12:30:58Z</time></trkpt><trkpt lat="39.12839978972636" lon="16.077934198628252"><ele>18.000000000000004</ele><time>2026-03-29T12:31:00Z</time></trkpt><trkpt lat="39.12838878276491" lon="16.077853865084084"><ele>18.0</ele><time>2026-03-29T12:31:02Z</time></trkpt><trkpt lat="39.12835639765731" lon="16.07777713005978"><ele>17.5</ele><time>2026-03-29T12:31:04Z</time></trkpt><trkpt lat="39.12834713826924" lon="16.077689709260245"><ele>17.0</ele><time>2026-03-29T12:31:06Z</time></trkpt><trkpt lat="39.128355823656534" lon="16.077604056122127"><ele>16.5</ele><time>2026-03-29T12:31:07.999Z</time></trkpt><trkpt lat="39.12833624961709" lon="16.07750554957965"><ele>16.0</ele><time>2026-03-29T12:31:13.999Z</time></trkpt><trkpt lat="39.12832239158442" lon="16.077414768069044"><ele>15.5</ele><time>2026-03-29T12:31:15.999Z</time></trkpt><trkpt lat="39.12830414638155" lon="16.077285048668674"><ele>15.0</ele><time>2026-03-29T12:31:17.999Z</time></trkpt><trkpt lat="39.12828545480558" lon="16.077139584366808"><ele>14.8</ele><time>2026-03-29T12:31:19.999Z</time></trkpt><trkpt lat="39.1282656144075" lon="16.07698555418402"><ele>14.6</ele><time>2026-03-29T12:31:21.999Z</time></trkpt><trkpt lat="39.12824644230265" lon="16.076839363893253"><ele>14.399999999999999</ele><time>2026-03-29T12:31:23.999Z</time></trkpt><trkpt lat="39.12821002809918" lon="16.076688919693808"><ele>14.2</ele><time>2026-03-29T12:31:25.999Z</time></trkpt><trkpt lat="39.12820544511156" lon="16.076607501396886"><ele>14.0</ele><time>2026-03-29T12:31:26.999Z</time></trkpt><trkpt lat="39.12819571612923" lon="16.076522904107648"><ele>13.833333333333334</ele><time>2026-03-29T12:31:27.999Z</time></trkpt><trkpt lat="39.128185312817976" lon="16.076434701882366"><ele>13.666666666666668</ele><time>2026-03-29T12:31:28.999Z</time></trkpt><trkpt lat="39.12817606092569" lon="16.07635134495044"><ele>13.5</ele><time>2026-03-29T12:31:29.999Z</time></trkpt><trkpt lat="39.12815150831789" lon="16.07619456506588"><ele>13.333333333333332</ele><time>2026-03-29T12:31:31.999Z</time></trkpt><trkpt lat="39.128135778866216" lon="16.07611218390067"><ele>13.166666666666666</ele><time>2026-03-29T12:31:32.999Z</time></trkpt><trkpt lat="39.12812461890616" lon="16.076032193901593"><ele>13.0</ele><time>2026-03-29T12:31:33.999Z</time></trkpt><trkpt lat="39.128119809533494" lon="16.075948869050816"><ele>13.0</ele><time>2026-03-29T12:31:34.999Z</time></trkpt><trkpt lat="39.128107844249115" lon="16.07586344621886"><ele>13.0</ele><time>2026-03-29T12:31:35.999Z</time></trkpt><trkpt lat="39.12809619354511" lon="16.07577804897804"><ele>13.0</ele><time>2026-03-29T12:31:36.999Z</time></trkpt><trkpt lat="39.12808402767017" lon="16.075692580574582"><ele>13.0</ele><time>2026-03-29T12:31:37.999Z</time></trkpt><trkpt lat="39.128072780769365" lon="16.075606410361885"><ele>13.0</ele><time>2026-03-29T12:31:38.999Z</time></trkpt><trkpt lat="39.12806780700053" lon="16.075519529564975"><ele>13.0</ele><time>2026-03-29T12:31:39.999Z</time></trkpt><trkpt lat="39.128055463152414" lon="16.0754333030346"><ele>13.0</ele><time>2026-03-29T12:31:40.999Z</time></trkpt><trkpt lat="39.12804253909029" lon="16.07534780218526"><ele>12.666666666666666</ele><time>2026-03-29T12:31:41.999Z</time></trkpt><trkpt lat="39.12802975446356" lon="16.07526155164219"><ele>12.333333333333332</ele><time>2026-03-29T12:31:42.999Z</time></trkpt><trkpt lat="39.128015366187725" lon="16.075174468943572"><ele>12.0</ele><time>2026-03-29T12:31:43.999Z</time></trkpt><trkpt lat="39.12800580757614" lon="16.075091082452886"><ele>11.666666666666666</ele><time>2026-03-29T12:31:44.999Z</time></trkpt><trkpt lat="39.12798410314695" lon="16.07493372751883"><ele>11.333333333333332</ele><time>2026-03-29T12:31:46.999Z</time></trkpt><trkpt lat="39.127962872986146" lon="16.074783105477927"><ele>11.0</ele><time>2026-03-29T12:31:48.999Z</time></trkpt><trkpt lat="39.12794522139733" lon="16.07466010292026"><ele>10.4</ele><time>2026-03-29T12:31:50.999Z</time></trkpt><trkpt lat="39.12793134498185" lon="16.07457655960399"><ele>9.8</ele><time>2026-03-29T12:31:54.999Z</time></trkpt><trkpt lat="39.12780741423659" lon="16.074559879834204"><ele>9.200000000000001</ele><time>2026-03-29T12:31:59.999Z</time></trkpt><trkpt lat="39.12771191112918" lon="16.074608155936843"><ele>8.600000000000001</ele><time>2026-03-29T12:32:01.999Z</time></trkpt><trkpt lat="39.12761737369455" lon="16.074650686980313"><ele>8.0</ele><time>2026-03-29T12:32:03.999Z</time></trkpt><trkpt lat="39.127517539906854" lon="16.074693567081148"><ele>8.0</ele><time>2026-03-29T12:32:05.999Z</time></trkpt><trkpt lat="39.12739730355445" lon="16.07472586286304"><ele>8.0</ele><time>2026-03-29T12:32:07.999Z</time></trkpt><trkpt lat="39.127279617616026" lon="16.074768684620803"><ele>8.0</ele><time>2026-03-29T12:32:09.999Z</time></trkpt><trkpt lat="39.127164703203285" lon="16.074832468073307"><ele>8.0</ele><time>2026-03-29T12:32:11.999Z</time></trkpt><trkpt lat="39.12710315786872" lon="16.074852794554907"><ele>8.0</ele><time>2026-03-29T12:32:12.999Z</time></trkpt><trkpt lat="39.12698147292996" lon="16.074879158436275"><ele>7.833333333333333</ele><time>2026-03-29T12:32:14.999Z</time></trkpt><trkpt lat="39.12691934427685" lon="16.07490223479142"><ele>7.666666666666666</ele><time>2026-03-29T12:32:15.999Z</time></trkpt><trkpt lat="39.12681498783467" lon="16.07496212283119"><ele>7.5</ele><time>2026-03-29T12:32:17.999Z</time></trkpt><trkpt lat="39.126733500277126" lon="16.074989724712186"><ele>7.333333333333334</ele><time>2026-03-29T12:32:19.999Z</time></trkpt><trkpt lat="39.12667067708676" lon="16.075005232414398"><ele>7.166666666666667</ele><time>2026-03-29T12:32:21.999Z</time></trkpt><trkpt lat="39.12660743795106" lon="16.074986946088845"><ele>7.0</ele><time>2026-03-29T12:32:25.999Z</time></trkpt><trkpt lat="39.12661440206346" lon="16.07484927270521"><ele>7.000000000000001</ele><time>2026-03-29T12:32:26.999Z</time></trkpt><trkpt lat="39.126597948729554" lon="16.074740356938378"><ele>7.0</ele><time>2026-03-29T12:32:28.999Z</time></trkpt><trkpt lat="39.12657160221514" lon="16.074640290969324"><ele>7.0</ele><time>2026-03-29T12:32:30.999Z</time></trkpt><trkpt lat="39.126558388532324" lon="16.074542319364117"><ele>7.0</ele><time>2026-03-29T12:32:32.999Z</time></trkpt><trkpt lat="39.126541231680235" lon="16.074441352656546"><ele>7.000000000000001</ele><time>2026-03-29T12:32:34.999Z</time></trkpt><trkpt lat="39.126522595135" lon="16.07432342439613"><ele>7.0</ele><time>2026-03-29T12:32:36.999Z</time></trkpt><trkpt lat="39.12651020047999" lon="16.07420922487866"><ele>8.0</ele><time>2026-03-29T12:32:38.999Z</time></trkpt><trkpt lat="39.12650055494864" lon="16.07408915018555"><ele>9.0</ele><time>2026-03-29T12:32:40.999Z</time></trkpt><trkpt lat="39.12649349092017" lon="16.073949973218237"><ele>10.0</ele><time>2026-03-29T12:32:42.999Z</time></trkpt><trkpt lat="39.12647496407142" lon="16.073789825447562"><ele>11.0</ele><time>2026-03-29T12:32:44.999Z</time></trkpt><trkpt lat="39.12646404832352" lon="16.073705758438937"><ele>12.0</ele><time>2026-03-29T12:32:45.998Z</time></trkpt><trkpt lat="39.12645393660801" lon="16.073621715851928"><ele>12.0</ele><time>2026-03-29T12:32:46.998Z</time></trkpt><trkpt lat="39.126441653620624" lon="16.073540219980977"><ele>12.0</ele><time>2026-03-29T12:32:48Z</time></trkpt><trkpt lat="39.12642799588585" lon="16.073458251561537"><ele>12.0</ele><time>2026-03-29T12:32:49Z</time></trkpt><trkpt lat="39.12641577565943" lon="16.073375696380975"><ele>12.0</ele><time>2026-03-29T12:32:50Z</time></trkpt><trkpt lat="39.12639488944398" lon="16.073217815041538"><ele>12.0</ele><time>2026-03-29T12:32:52Z</time></trkpt><trkpt lat="39.12638017788947" lon="16.073070109126494"><ele>12.0</ele><time>2026-03-29T12:32:54Z</time></trkpt><trkpt lat="39.12636337245724" lon="16.072933759844272"><ele>11.6</ele><time>2026-03-29T12:32:56Z</time></trkpt><trkpt lat="39.126341368114" lon="16.072807071237506"><ele>11.2</ele><time>2026-03-29T12:32:58Z</time></trkpt><trkpt lat="39.126314825931104" lon="16.072676315368696"><ele>10.8</ele><time>2026-03-29T12:33:00Z</time></trkpt><trkpt lat="39.126301021192376" lon="16.072556655273978"><ele>10.4</ele><time>2026-03-29T12:33:02Z</time></trkpt><trkpt lat="39.126290894161734" lon="16.07244549337363"><ele>10.0</ele><time>2026-03-29T12:33:04Z</time></trkpt><trkpt lat="39.126279451918634" lon="16.072312958404268"><ele>9.833333333333334</ele><time>2026-03-29T12:33:06Z</time></trkpt><trkpt lat="39.12626284649188" lon="16.072180814675743"><ele>9.666666666666668</ele><time>2026-03-29T12:33:08Z</time></trkpt><trkpt lat="39.12624945341264" lon="16.072090365678694"><ele>9.5</ele><time>2026-03-29T12:33:10Z</time></trkpt><trkpt lat="39.126246039596566" lon="16.072008773641944"><ele>9.333333333333334</ele><time>2026-03-29T12:33:15.999Z</time></trkpt><trkpt lat="39.12632040668021" lon="16.071931412806194"><ele>9.166666666666666</ele><time>2026-03-29T12:33:19.999Z</time></trkpt><trkpt lat="39.12643218881342" lon="16.07189789247994"><ele>9.0</ele><time>2026-03-29T12:33:21.999Z</time></trkpt><trkpt lat="39.12649618785116" lon="16.071877609643096"><ele>8.666666666666666</ele><time>2026-03-29T12:33:22.999Z</time></trkpt><trkpt lat="39.12656305200428" lon="16.07185132101037"><ele>8.333333333333334</ele><time>2026-03-29T12:33:23.999Z</time></trkpt><trkpt lat="39.12663384495147" lon="16.071822888352763"><ele>8.0</ele><time>2026-03-29T12:33:24.999Z</time></trkpt><trkpt lat="39.12671081247276" lon="16.071793338790716"><ele>7.666666666666667</ele><time>2026-03-29T12:33:25.999Z</time></trkpt><trkpt lat="39.12679212399544" lon="16.07176314824358"><ele>7.333333333333334</ele><time>2026-03-29T12:33:26.999Z</time></trkpt><trkpt lat="39.12687898543798" lon="16.071731512005464"><ele>7.0</ele><time>2026-03-29T12:33:27.999Z</time></trkpt><trkpt lat="39.126969279934585" lon="16.07169851835373"><ele>7.0</ele><time>2026-03-29T12:33:28.999Z</time></trkpt><trkpt lat="39.127056057115205" lon="16.071667365142694"><ele>6.999999999999999</ele><time>2026-03-29T12:33:29.999Z</time></trkpt><trkpt lat="39.127142300111984" lon="16.071638055549833"><ele>6.999999999999999</ele><time>2026-03-29T12:33:30.999Z</time></trkpt><trkpt lat="39.12723111417859" lon="16.071608358076535"><ele>7.0</ele><time>2026-03-29T12:33:31.999Z</time></trkpt><trkpt lat="39.12732071072822" lon="16.07157631794501"><ele>7.0</ele><time>2026-03-29T12:33:32.999Z</time></trkpt><trkpt lat="39.12741157134829" lon="16.071540576099686"><ele>6.3999999999999995</ele><time>2026-03-29T12:33:33.999Z</time></trkpt><trkpt lat="39.127504812641895" lon="16.071503732150216"><ele>5.799999999999999</ele><time>2026-03-29T12:33:34.999Z</time></trkpt><trkpt lat="39.12759908614993" lon="16.07146809214008"><ele>5.2</ele><time>2026-03-29T12:33:35.999Z</time></trkpt><trkpt lat="39.127693492901045" lon="16.07143431764575"><ele>4.6</ele><time>2026-03-29T12:33:36.999Z</time></trkpt><trkpt lat="39.12778987872378" lon="16.071400524285213"><ele>4.0</ele><time>2026-03-29T12:33:37.999Z</time></trkpt><trkpt lat="39.12788550196181" lon="16.071368653112813"><ele>4.0</ele><time>2026-03-29T12:33:38.999Z</time></trkpt><trkpt lat="39.127980292187715" lon="16.071333570741633"><ele>4.0</ele><time>2026-03-29T12:33:39.999Z</time></trkpt><trkpt lat="39.12807553682884" lon="16.071296977026467"><ele>4.0</ele><time>2026-03-29T12:33:40.999Z</time></trkpt><trkpt lat="39.128171410202484" lon="16.071259799542872"><ele>4.0</ele><time>2026-03-29T12:33:41.999Z</time></trkpt><trkpt lat="39.12826757121522" lon="16.07122444444569"><ele>4.0</ele><time>2026-03-29T12:33:42.999Z</time></trkpt><trkpt lat="39.12836425524238" lon="16.071191312621995"><ele>4.333333333333333</ele><time>2026-03-29T12:33:43.999Z</time></trkpt><trkpt lat="39.12845720552878" lon="16.071157091513097"><ele>4.666666666666666</ele><time>2026-03-29T12:33:44.999Z</time></trkpt><trkpt lat="39.12854616110869" lon="16.07112301468447"><ele>5.0</ele><time>2026-03-29T12:33:45.999Z</time></trkpt><trkpt lat="39.12863049797701" lon="16.071092189733513"><ele>5.333333333333333</ele><time>2026-03-29T12:33:46.999Z</time></trkpt><trkpt lat="39.128707130225514" lon="16.07106453000108"><ele>5.666666666666667</ele><time>2026-03-29T12:33:47.999Z</time></trkpt><trkpt lat="39.128774384682636" lon="16.07103926570838"><ele>6.0</ele><time>2026-03-29T12:33:48.999Z</time></trkpt><trkpt lat="39.12889770916014" lon="16.0710393484595"><ele>6.0</ele><time>2026-03-29T12:33:50.999Z</time></trkpt><trkpt lat="39.1289507769141" lon="16.07098470305316"><ele>6.0</ele><time>2026-03-29T12:33:52.999Z</time></trkpt><trkpt lat="39.12902217900589" lon="16.070977335705752"><ele>6.0</ele><time>2026-03-29T12:34:19.999Z</time></trkpt><trkpt lat="39.12911719817121" lon="16.070958596316753"><ele>6.0</ele><time>2026-03-29T12:34:21.999Z</time></trkpt><trkpt lat="39.129234272986345" lon="16.070929729050558"><ele>6.0</ele><time>2026-03-29T12:34:23.999Z</time></trkpt><trkpt lat="39.129312465376636" lon="16.070918683225923"><ele>6.0</ele><time>2026-03-29T12:34:24.999Z</time></trkpt><trkpt lat="39.1294037271521" lon="16.07090593271957"><ele>6.0</ele><time>2026-03-29T12:34:25.999Z</time></trkpt><trkpt lat="39.12949543508182" lon="16.07089841120763"><ele>6.0</ele><time>2026-03-29T12:34:26.999Z</time></trkpt><trkpt lat="39.12958825057501" lon="16.07089979134598"><ele>6.0</ele><time>2026-03-29T12:34:27.999Z</time></trkpt><trkpt lat="39.129685174431444" lon="16.070898874401397"><ele>6.0</ele><time>2026-03-29T12:34:28.999Z</time></trkpt><trkpt lat="39.129780399803494" lon="16.070902707524873"><ele>6.0</ele><time>2026-03-29T12:34:29.999Z</time></trkpt><trkpt lat="39.12987682619384" lon="16.070906132488663"><ele>6.199999999999999</ele><time>2026-03-29T12:34:30.999Z</time></trkpt><trkpt lat="39.12996154879452" lon="16.070910271181628"><ele>6.3999999999999995</ele><time>2026-03-29T12:34:31.999Z</time></trkpt><trkpt lat="39.130062929905804" lon="16.070918882636196"><ele>6.6</ele><time>2026-03-29T12:34:32.999Z</time></trkpt><trkpt lat="39.130157597250246" lon="16.070936804593515"><ele>6.8</ele><time>2026-03-29T12:34:33.999Z</time></trkpt><trkpt lat="39.13024526773237" lon="16.070952173432918"><ele>7.0</ele><time>2026-03-29T12:34:34.999Z</time></trkpt><trkpt lat="39.130326572056255" lon="16.07096565592563"><ele>7.0</ele><time>2026-03-29T12:34:35.999Z</time></trkpt><trkpt lat="39.13040904330385" lon="16.07097097472925"><ele>6.999999999999999</ele><time>2026-03-29T12:34:36.999Z</time></trkpt><trkpt lat="39.13049633204708" lon="16.07099159565808"><ele>6.999999999999999</ele><time>2026-03-29T12:34:37.999Z</time></trkpt><trkpt lat="39.13058890108702" lon="16.071012171521648"><ele>7.0</ele><time>2026-03-29T12:34:38.999Z</time></trkpt><trkpt lat="39.13068680404998" lon="16.071027978490704"><ele>7.0</ele><time>2026-03-29T12:34:39.999Z</time></trkpt><trkpt lat="39.1307884475802" lon="16.071045938687416"><ele>7.199999999999999</ele><time>2026-03-29T12:34:40.999Z</time></trkpt><trkpt lat="39.13089092375825" lon="16.07106262035309"><ele>7.3999999999999995</ele><time>2026-03-29T12:34:41.999Z</time></trkpt><trkpt lat="39.130993269232306" lon="16.071081319895217"><ele>7.6000000000000005</ele><time>2026-03-29T12:34:42.999Z</time></trkpt><trkpt lat="39.13109573709212" lon="16.07110169156061"><ele>7.800000000000001</ele><time>2026-03-29T12:34:43.999Z</time></trkpt><trkpt lat="39.13119911589337" lon="16.07111517881324"><ele>8.0</ele><time>2026-03-29T12:34:44.999Z</time></trkpt><trkpt lat="39.13130088563633" lon="16.071132754722317"><ele>8.0</ele><time>2026-03-29T12:34:45.999Z</time></trkpt><trkpt lat="39.13139778000334" lon="16.07115394369355"><ele>8.0</ele><time>2026-03-29T12:34:46.999Z</time></trkpt><trkpt lat="39.131488959155696" lon="16.071172345090424"><ele>8.0</ele><time>2026-03-29T12:34:47.999Z</time></trkpt><trkpt lat="39.13157846564059" lon="16.071190780990886"><ele>8.0</ele><time>2026-03-29T12:34:48.999Z</time></trkpt><trkpt lat="39.1316657622637" lon="16.07120768662641"><ele>8.0</ele><time>2026-03-29T12:34:49.999Z</time></trkpt><trkpt lat="39.131746100669226" lon="16.07122397389159"><ele>7.833333333333333</ele><time>2026-03-29T12:34:50.999Z</time></trkpt><trkpt lat="39.13181307666273" lon="16.071236070865144"><ele>7.666666666666666</ele><time>2026-03-29T12:34:51.999Z</time></trkpt><trkpt lat="39.13190193751244" lon="16.071253962463587"><ele>7.5</ele><time>2026-03-29T12:34:53.999Z</time></trkpt><trkpt lat="39.13196753470635" lon="16.071264297423138"><ele>7.333333333333334</ele><time>2026-03-29T12:34:58.999Z</time></trkpt><trkpt lat="39.13203094412391" lon="16.07127725035829"><ele>7.166666666666667</ele><time>2026-03-29T12:35:52.999Z</time></trkpt><trkpt lat="39.132098374748686" lon="16.071288597256036"><ele>7.0</ele><time>2026-03-29T12:35:54.999Z</time></trkpt><trkpt lat="39.132210745513866" lon="16.07130788511232"><ele>7.0</ele><time>2026-03-29T12:35:56.999Z</time></trkpt><trkpt lat="39.132278149626" lon="16.071320220177185"><ele>7.0</ele><time>2026-03-29T12:35:57.999Z</time></trkpt><trkpt lat="39.13234814053938" lon="16.071334401378216"><ele>7.0</ele><time>2026-03-29T12:35:58.999Z</time></trkpt><trkpt lat="39.132418917044475" lon="16.071349011880116"><ele>7.0</ele><time>2026-03-29T12:35:59.999Z</time></trkpt><trkpt lat="39.132490104950826" lon="16.071363433440478"><ele>7.0</ele><time>2026-03-29T12:36:00.999Z</time></trkpt><trkpt lat="39.132564108349435" lon="16.071377160338486"><ele>7.0</ele><time>2026-03-29T12:36:01.999Z</time></trkpt><trkpt lat="39.13264218258173" lon="16.071391206071798"><ele>7.0</ele><time>2026-03-29T12:36:02.999Z</time></trkpt><trkpt lat="39.13272157985277" lon="16.071405573245404"><ele>7.0</ele><time>2026-03-29T12:36:03.999Z</time></trkpt><trkpt lat="39.132802240822414" lon="16.07142179379721"><ele>6.999999999999999</ele><time>2026-03-29T12:36:04.999Z</time></trkpt><trkpt lat="39.132892806385804" lon="16.0714372843789"><ele>6.999999999999999</ele><time>2026-03-29T12:36:05.999Z</time></trkpt><trkpt lat="39.13298831543396" lon="16.0714511373707"><ele>7.0</ele><time>2026-03-29T12:36:06.999Z</time></trkpt><trkpt lat="39.13308305713731" lon="16.07145568758432"><ele>7.0</ele><time>2026-03-29T12:36:07.999Z</time></trkpt><trkpt lat="39.133176973111055" lon="16.071459661435618"><ele>6.8</ele><time>2026-03-29T12:36:08.999Z</time></trkpt><trkpt lat="39.13326836539755" lon="16.07145655118934"><ele>6.6</ele><time>2026-03-29T12:36:09.999Z</time></trkpt><trkpt lat="39.13336495063474" lon="16.071448568828256"><ele>6.3999999999999995</ele><time>2026-03-29T12:36:10.999Z</time></trkpt><trkpt lat="39.133453388756074" lon="16.07143430788088"><ele>6.199999999999999</ele><time>2026-03-29T12:36:11.999Z</time></trkpt><trkpt lat="39.133539783755545" lon="16.07141994136641"><ele>6.0</ele><time>2026-03-29T12:36:12.999Z</time></trkpt><trkpt lat="39.133630467739515" lon="16.07139909621183"><ele>6.0</ele><time>2026-03-29T12:36:13.999Z</time></trkpt><trkpt lat="39.133723046188734" lon="16.0713730155732"><ele>6.0</ele><time>2026-03-29T12:36:14.999Z</time></trkpt><trkpt lat="39.133814141417545" lon="16.071345782059304"><ele>6.0</ele><time>2026-03-29T12:36:15.999Z</time></trkpt><trkpt lat="39.13390639034791" lon="16.071313768862023"><ele>6.0</ele><time>2026-03-29T12:36:16.999Z</time></trkpt><trkpt lat="39.13399407325939" lon="16.071276996560158"><ele>6.0</ele><time>2026-03-29T12:36:17.999Z</time></trkpt><trkpt lat="39.1340773142487" lon="16.07123832321132"><ele>5.833333333333333</ele><time>2026-03-29T12:36:18.999Z</time></trkpt><trkpt lat="39.13415658796471" lon="16.071197993670292"><ele>5.666666666666667</ele><time>2026-03-29T12:36:19.999Z</time></trkpt><trkpt lat="39.13422736690774" lon="16.071155511713695"><ele>5.5</ele><time>2026-03-29T12:36:20.999Z</time></trkpt><trkpt lat="39.13428973626549" lon="16.07111737318861"><ele>5.333333333333334</ele><time>2026-03-29T12:36:21.999Z</time></trkpt><trkpt lat="39.13438876963991" lon="16.071058268251313"><ele>5.166666666666667</ele><time>2026-03-29T12:36:23.999Z</time></trkpt><trkpt lat="39.13445502348338" lon="16.071018538710284"><ele>5.0</ele><time>2026-03-29T12:36:26.999Z</time></trkpt><trkpt lat="39.13453703075917" lon="16.07098160567652"><ele>5.0</ele><time>2026-03-29T12:36:48.999Z</time></trkpt><trkpt lat="39.134614214295276" lon="16.070931961517346"><ele>5.0</ele><time>2026-03-29T12:36:50.999Z</time></trkpt><trkpt lat="39.134701921492805" lon="16.070873567317918"><ele>5.0</ele><time>2026-03-29T12:36:52.999Z</time></trkpt><trkpt lat="39.1347824361802" lon="16.070809749520183"><ele>5.0</ele><time>2026-03-29T12:36:54.999Z</time></trkpt><trkpt lat="39.134879100481264" lon="16.070736612016404"><ele>5.0</ele><time>2026-03-29T12:36:56.999Z</time></trkpt><trkpt lat="39.134985632025" lon="16.07065678098628"><ele>5.142857142857142</ele><time>2026-03-29T12:36:59Z</time></trkpt><trkpt lat="39.13504386948154" lon="16.070613232869526"><ele>5.285714285714286</ele><time>2026-03-29T12:37:00Z</time></trkpt><trkpt lat="39.13510438094464" lon="16.070568105937973"><ele>5.428571428571429</ele><time>2026-03-29T12:37:01Z</time></trkpt><trkpt lat="39.13516807750258" lon="16.07052279909062"><ele>5.571428571428571</ele><time>2026-03-29T12:37:02Z</time></trkpt><trkpt lat="39.13523340201432" lon="16.070478004372223"><ele>5.714285714285714</ele><time>2026-03-29T12:37:03Z</time></trkpt><trkpt lat="39.135301368758256" lon="16.07043174008107"><ele>5.857142857142857</ele><time>2026-03-29T12:37:04Z</time></trkpt><trkpt lat="39.13537097382472" lon="16.070385147101195"><ele>6.0</ele><time>2026-03-29T12:37:05Z</time></trkpt><trkpt lat="39.135443478500335" lon="16.070337143342844"><ele>6.0</ele><time>2026-03-29T12:37:06Z</time></trkpt><trkpt lat="39.135519961277005" lon="16.07028597050734"><ele>6.0</ele><time>2026-03-29T12:37:07Z</time></trkpt><trkpt lat="39.135599033753365" lon="16.070229749814644"><ele>6.0</ele><time>2026-03-29T12:37:08Z</time></trkpt><trkpt lat="39.135680858991705" lon="16.070170482729832"><ele>6.0</ele><time>2026-03-29T12:37:09Z</time></trkpt><trkpt lat="39.13576562165439" lon="16.07010811333311"><ele>6.0</ele><time>2026-03-29T12:37:10Z</time></trkpt><trkpt lat="39.135852458622104" lon="16.070044325685384"><ele>6.199999999999999</ele><time>2026-03-29T12:37:11Z</time></trkpt><trkpt lat="39.13594253771508" lon="16.06997863857054"><ele>6.3999999999999995</ele><time>2026-03-29T12:37:12Z</time></trkpt><trkpt lat="39.13603343165468" lon="16.069906893644426"><ele>6.6</ele><time>2026-03-29T12:37:13Z</time></trkpt><trkpt lat="39.13612816350622" lon="16.06983935836008"><ele>6.8</ele><time>2026-03-29T12:37:14Z</time></trkpt><trkpt lat="39.136224747529255" lon="16.06977186244441"><ele>7.0</ele><time>2026-03-29T12:37:15Z</time></trkpt><trkpt lat="39.13632261070192" lon="16.069705384503454"><ele>6.5</ele><time>2026-03-29T12:37:16Z</time></trkpt><trkpt lat="39.13642473059046" lon="16.069636287636285"><ele>6.0</ele><time>2026-03-29T12:37:17Z</time></trkpt><trkpt lat="39.13653012541003" lon="16.069566326226436"><ele>5.5</ele><time>2026-03-29T12:37:18Z</time></trkpt><trkpt lat="39.136637134526815" lon="16.069496978453376"><ele>5.0</ele><time>2026-03-29T12:37:19Z</time></trkpt><trkpt lat="39.13674705692529" lon="16.06942678538117"><ele>5.0</ele><time>2026-03-29T12:37:20Z</time></trkpt><trkpt lat="39.13685913362838" lon="16.069358191036"><ele>5.0</ele><time>2026-03-29T12:37:20.999Z</time></trkpt><trkpt lat="39.13697407794112" lon="16.06929209062649"><ele>5.0</ele><time>2026-03-29T12:37:21.999Z</time></trkpt><trkpt lat="39.1370919391198" lon="16.069226877659858"><ele>5.0</ele><time>2026-03-29T12:37:22.999Z</time></trkpt><trkpt lat="39.13721202342361" lon="16.069164085872416"><ele>5.0</ele><time>2026-03-29T12:37:23.999Z</time></trkpt><trkpt lat="39.13733584953997" lon="16.06910530732718"><ele>5.0</ele><time>2026-03-29T12:37:24.999Z</time></trkpt><trkpt lat="39.13746123232248" lon="16.069048895407736"><ele>5.0</ele><time>2026-03-29T12:37:25.999Z</time></trkpt><trkpt lat="39.137589827123584" lon="16.06899680765404"><ele>5.0</ele><time>2026-03-29T12:37:26.999Z</time></trkpt><trkpt lat="39.13772010533499" lon="16.06894775742471"><ele>5.0</ele><time>2026-03-29T12:37:27.999Z</time></trkpt><trkpt lat="39.13785201810218" lon="16.068900655704475"><ele>5.0</ele><time>2026-03-29T12:37:28.999Z</time></trkpt><trkpt lat="39.13798687908082" lon="16.06885339880108"><ele>5.0</ele><time>2026-03-29T12:37:29.999Z</time></trkpt><trkpt lat="39.13812486941393" lon="16.06880598054503"><ele>5.0</ele><time>2026-03-29T12:37:30.999Z</time></trkpt><trkpt lat="39.13826464268678" lon="16.06876059752155"><ele>5.25</ele><time>2026-03-29T12:37:31.999Z</time></trkpt><trkpt lat="39.13840692897086" lon="16.068707688811987"><ele>5.5</ele><time>2026-03-29T12:37:32.999Z</time></trkpt><trkpt lat="39.1385499651213" lon="16.06865262146135"><ele>5.75</ele><time>2026-03-29T12:37:33.999Z</time></trkpt><trkpt lat="39.13869306388418" lon="16.068597946610854"><ele>6.0</ele><time>2026-03-29T12:37:34.999Z</time></trkpt><trkpt lat="39.138839219167394" lon="16.06854577317579"><ele>6.0</ele><time>2026-03-29T12:37:35.999Z</time></trkpt><trkpt lat="39.1389874207317" lon="16.068494108493198"><ele>6.0</ele><time>2026-03-29T12:37:36.999Z</time></trkpt><trkpt lat="39.139139424202526" lon="16.06844271062577"><ele>6.0</ele><time>2026-03-29T12:37:37.999Z</time></trkpt><trkpt lat="39.139295277110406" lon="16.068390686557596"><ele>6.333333333333334</ele><time>2026-03-29T12:37:38.999Z</time></trkpt><trkpt lat="39.139452354739454" lon="16.068339295943424"><ele>6.666666666666667</ele><time>2026-03-29T12:37:39.999Z</time></trkpt><trkpt lat="39.139608484268436" lon="16.06828475098311"><ele>7.0</ele><time>2026-03-29T12:37:40.999Z</time></trkpt><trkpt lat="39.13976363804191" lon="16.0682281502138"><ele>6.0</ele><time>2026-03-29T12:37:41.999Z</time></trkpt><trkpt lat="39.13991786502926" lon="16.06817225909857"><ele>5.0</ele><time>2026-03-29T12:37:42.999Z</time></trkpt><trkpt lat="39.14007188973584" lon="16.068116713753213"><ele>4.0</ele><time>2026-03-29T12:37:43.999Z</time></trkpt><trkpt lat="39.14022675501269" lon="16.06806045517209"><ele>4.0</ele><time>2026-03-29T12:37:44.999Z</time></trkpt><trkpt lat="39.140384457309246" lon="16.06800419529497"><ele>4.0</ele><time>2026-03-29T12:37:45.999Z</time></trkpt><trkpt lat="39.14054223787922" lon="16.067948389317024"><ele>4.0</ele><time>2026-03-29T12:37:46.999Z</time></trkpt><trkpt lat="39.14069803644003" lon="16.067894145596853"><ele>4.333333333333333</ele><time>2026-03-29T12:37:47.999Z</time></trkpt><trkpt lat="39.14085391678307" lon="16.067839168809762"><ele>4.666666666666667</ele><time>2026-03-29T12:37:48.999Z</time></trkpt><trkpt lat="39.14101206829978" lon="16.067783044226093"><ele>5.0</ele><time>2026-03-29T12:37:49.999Z</time></trkpt><trkpt lat="39.14117196313148" lon="16.06772680303594"><ele>5.0</ele><time>2026-03-29T12:37:50.999Z</time></trkpt><trkpt lat="39.14133250905586" lon="16.067668955924585"><ele>5.0</ele><time>2026-03-29T12:37:51.999Z</time></trkpt><trkpt lat="39.14149220884753" lon="16.067613375460425"><ele>5.0</ele><time>2026-03-29T12:37:52.999Z</time></trkpt><trkpt lat="39.141650899664995" lon="16.067558318018786"><ele>5.333333333333334</ele><time>2026-03-29T12:37:53.999Z</time></trkpt><trkpt lat="39.14180822425211" lon="16.067502382549623"><ele>5.666666666666667</ele><time>2026-03-29T12:37:54.999Z</time></trkpt><trkpt lat="39.141962634394446" lon="16.067446743630995"><ele>6.0</ele><time>2026-03-29T12:37:55.999Z</time></trkpt><trkpt lat="39.142115515809195" lon="16.067392372998725"><ele>6.0</ele><time>2026-03-29T12:37:56.999Z</time></trkpt><trkpt lat="39.142266666804005" lon="16.067338307473534"><ele>6.0</ele><time>2026-03-29T12:37:57.999Z</time></trkpt><trkpt lat="39.142419280938086" lon="16.06728651553151"><ele>6.0</ele><time>2026-03-29T12:37:58.999Z</time></trkpt><trkpt lat="39.14256554610782" lon="16.067233637521525"><ele>6.0</ele><time>2026-03-29T12:37:59.999Z</time></trkpt><trkpt lat="39.14270992788806" lon="16.06718251832294"><ele>6.0</ele><time>2026-03-29T12:38:00.999Z</time></trkpt><trkpt lat="39.14285209923202" lon="16.067131995242608"><ele>6.0</ele><time>2026-03-29T12:38:01.999Z</time></trkpt><trkpt lat="39.14299321069892" lon="16.067082052152045"><ele>6.0</ele><time>2026-03-29T12:38:02.999Z</time></trkpt><trkpt lat="39.14313215069401" lon="16.06703262014706"><ele>6.25</ele><time>2026-03-29T12:38:03.999Z</time></trkpt><trkpt lat="39.1432691943084" lon="16.066984397838695"><ele>6.5</ele><time>2026-03-29T12:38:04.999Z</time></trkpt><trkpt lat="39.14340398100043" lon="16.06693792669916"><ele>6.75</ele><time>2026-03-29T12:38:05.999Z</time></trkpt><trkpt lat="39.143538189713084" lon="16.066892063420166"><ele>7.0</ele><time>2026-03-29T12:38:06.999Z</time></trkpt><trkpt lat="39.14367182781154" lon="16.066847642405484"><ele>7.0</ele><time>2026-03-29T12:38:07.999Z</time></trkpt><trkpt lat="39.143805545418374" lon="16.06680140664252"><ele>7.0</ele><time>2026-03-29T12:38:08.999Z</time></trkpt><trkpt lat="39.14393990147718" lon="16.066754544893925"><ele>7.0</ele><time>2026-03-29T12:38:09.999Z</time></trkpt><trkpt lat="39.14407489649869" lon="16.06670748877036"><ele>7.0</ele><time>2026-03-29T12:38:10.999Z</time></trkpt><trkpt lat="39.14421102528517" lon="16.06666035400267"><ele>7.5</ele><time>2026-03-29T12:38:11.999Z</time></trkpt><trkpt lat="39.14434717428236" lon="16.06661188434783"><ele>8.0</ele><time>2026-03-29T12:38:12.999Z</time></trkpt><trkpt lat="39.14448522764157" lon="16.06656512710956"><ele>8.5</ele><time>2026-03-29T12:38:13.999Z</time></trkpt><trkpt lat="39.14462320089292" lon="16.06651747497422"><ele>9.0</ele><time>2026-03-29T12:38:14.999Z</time></trkpt><trkpt lat="39.14476205137841" lon="16.06647017844748"><ele>7.75</ele><time>2026-03-29T12:38:15.999Z</time></trkpt><trkpt lat="39.14490038839619" lon="16.066426071486635"><ele>6.5</ele><time>2026-03-29T12:38:16.999Z</time></trkpt><trkpt lat="39.145038594980036" lon="16.06638146894905"><ele>5.25</ele><time>2026-03-29T12:38:17.999Z</time></trkpt><trkpt lat="39.14517518980159" lon="16.066335842135977"><ele>4.0</ele><time>2026-03-29T12:38:18.999Z</time></trkpt><trkpt lat="39.14530465305624" lon="16.066293870970892"><ele>4.0</ele><time>2026-03-29T12:38:19.999Z</time></trkpt><trkpt lat="39.145426934132935" lon="16.066263219429455"><ele>4.0</ele><time>2026-03-29T12:38:20.999Z</time></trkpt><trkpt lat="39.14554736337967" lon="16.066232739429566"><ele>4.0</ele><time>2026-03-29T12:38:21.999Z</time></trkpt><trkpt lat="39.14566798085797" lon="16.066197730807144"><ele>4.0</ele><time>2026-03-29T12:38:22.999Z</time></trkpt><trkpt lat="39.14579072473711" lon="16.066159854028218"><ele>4.25</ele><time>2026-03-29T12:38:23.999Z</time></trkpt><trkpt lat="39.14592114609555" lon="16.066150543841452"><ele>4.5</ele><time>2026-03-29T12:38:24.999Z</time></trkpt><trkpt lat="39.14605022897089" lon="16.066103562942242"><ele>4.75</ele><time>2026-03-29T12:38:25.999Z</time></trkpt><trkpt lat="39.146185213757974" lon="16.06608369437896"><ele>5.0</ele><time>2026-03-29T12:38:26.999Z</time></trkpt><trkpt lat="39.146322909887246" lon="16.066063440990234"><ele>5.0</ele><time>2026-03-29T12:38:27.999Z</time></trkpt><trkpt lat="39.14646223811714" lon="16.066043030123822"><ele>5.0</ele><time>2026-03-29T12:38:28.999Z</time></trkpt><trkpt lat="39.14660277165831" lon="16.06602193088649"><ele>5.0</ele><time>2026-03-29T12:38:29.999Z</time></trkpt><trkpt lat="39.14674626563452" lon="16.066000841667194"><ele>5.0</ele><time>2026-03-29T12:38:30.999Z</time></trkpt><trkpt lat="39.14689516729633" lon="16.06598031922524"><ele>6.0</ele><time>2026-03-29T12:38:31.999Z</time></trkpt><trkpt lat="39.14704767730337" lon="16.06596366950537"><ele>7.0</ele><time>2026-03-29T12:38:32.999Z</time></trkpt><trkpt lat="39.14720041707377" lon="16.065948487366786"><ele>8.0</ele><time>2026-03-29T12:38:33.999Z</time></trkpt><trkpt lat="39.14735525704092" lon="16.06593549098924"><ele>7.333333333333333</ele><time>2026-03-29T12:38:34.999Z</time></trkpt><trkpt lat="39.14751014001395" lon="16.06592472129638"><ele>6.666666666666666</ele><time>2026-03-29T12:38:35.999Z</time></trkpt><trkpt lat="39.14766669335437" lon="16.065916801646196"><ele>6.0</ele><time>2026-03-29T12:38:36.999Z</time></trkpt><trkpt lat="39.147824579254035" lon="16.06591160549671"><ele>6.0</ele><time>2026-03-29T12:38:37.999Z</time></trkpt><trkpt lat="39.147982352350105" lon="16.065901908292965"><ele>6.0</ele><time>2026-03-29T12:38:38.999Z</time></trkpt><trkpt lat="39.14814109169647" lon="16.06588756430661"><ele>6.0</ele><time>2026-03-29T12:38:39.999Z</time></trkpt><trkpt lat="39.148299294297516" lon="16.065872059692985"><ele>6.666666666666666</ele><time>2026-03-29T12:38:40.999Z</time></trkpt><trkpt lat="39.14845696759431" lon="16.065857379142617"><ele>7.333333333333333</ele><time>2026-03-29T12:38:41.999Z</time></trkpt><trkpt lat="39.14861388432447" lon="16.065844005763047"><ele>8.0</ele><time>2026-03-29T12:38:42.999Z</time></trkpt><trkpt lat="39.14877139420043" lon="16.065835856376307"><ele>8.0</ele><time>2026-03-29T12:38:43.999Z</time></trkpt><trkpt lat="39.148928894983435" lon="16.065829730867033"><ele>8.0</ele><time>2026-03-29T12:38:44.999Z</time></trkpt><trkpt lat="39.1490883085704" lon="16.065824664245483"><ele>8.0</ele><time>2026-03-29T12:38:45.999Z</time></trkpt><trkpt lat="39.149248618356815" lon="16.06581943966124"><ele>8.333333333333332</ele><time>2026-03-29T12:38:46.999Z</time></trkpt><trkpt lat="39.149411816065566" lon="16.065814215083147"><ele>8.666666666666666</ele><time>2026-03-29T12:38:47.999Z</time></trkpt><trkpt lat="39.149577066264165" lon="16.065811461442305"><ele>9.0</ele><time>2026-03-29T12:38:48.999Z</time></trkpt><trkpt lat="39.1497433019457" lon="16.065811089135426"><ele>8.666666666666666</ele><time>2026-03-29T12:38:49.999Z</time></trkpt><trkpt lat="39.14991171796448" lon="16.06580828100323"><ele>8.333333333333332</ele><time>2026-03-29T12:38:50.999Z</time></trkpt><trkpt lat="39.150083669152814" lon="16.065805614035842"><ele>8.0</ele><time>2026-03-29T12:38:51.999Z</time></trkpt><trkpt lat="39.15025702526366" lon="16.06580322844239"><ele>8.0</ele><time>2026-03-29T12:38:52.999Z</time></trkpt><trkpt lat="39.15043285450017" lon="16.065798302266856"><ele>8.0</ele><time>2026-03-29T12:38:53.999Z</time></trkpt><trkpt lat="39.1506106410712" lon="16.0657977623118"><ele>8.0</ele><time>2026-03-29T12:38:54.999Z</time></trkpt><trkpt lat="39.15078926423857" lon="16.065796111628664"><ele>10.0</ele><time>2026-03-29T12:38:55.999Z</time></trkpt><trkpt lat="39.150968353480025" lon="16.065793628341712"><ele>12.0</ele><time>2026-03-29T12:38:56.999Z</time></trkpt><trkpt lat="39.15114498686352" lon="16.06578934299302"><ele>14.0</ele><time>2026-03-29T12:38:57.999Z</time></trkpt><trkpt lat="39.151322256074394" lon="16.065785105149914"><ele>14.0</ele><time>2026-03-29T12:38:58.999Z</time></trkpt><trkpt lat="39.15149970215898" lon="16.065782056543103"><ele>14.0</ele><time>2026-03-29T12:38:59.999Z</time></trkpt><trkpt lat="39.151678287616484" lon="16.06578111403146"><ele>14.0</ele><time>2026-03-29T12:39:00.999Z</time></trkpt><trkpt lat="39.15185606597152" lon="16.0657799053724"><ele>9.333333333333334</ele><time>2026-03-29T12:39:01.999Z</time></trkpt><trkpt lat="39.15203372039592" lon="16.06577673404131"><ele>4.666666666666667</ele><time>2026-03-29T12:39:02.999Z</time></trkpt><trkpt lat="39.1522119337249" lon="16.065771808960196"><ele>0.0</ele><time>2026-03-29T12:39:03.999Z</time></trkpt><trkpt lat="39.15238955918525" lon="16.06576784775622"><ele>0.0</ele><time>2026-03-29T12:39:05Z</time></trkpt><trkpt lat="39.15256770578949" lon="16.06575873533759"><ele>0.0</ele><time>2026-03-29T12:39:06Z</time></trkpt><trkpt lat="39.15274517237814" lon="16.0657437151851"><ele>0.0</ele><time>2026-03-29T12:39:07Z</time></trkpt><trkpt lat="39.152923796392905" lon="16.065727100331994"><ele>0.0</ele><time>2026-03-29T12:39:08Z</time></trkpt><trkpt lat="39.153102720552155" lon="16.065710267989704"><ele>0.0</ele><time>2026-03-29T12:39:09Z</time></trkpt><trkpt lat="39.15328276062432" lon="16.065688520372042"><ele>0.0</ele><time>2026-03-29T12:39:10Z</time></trkpt><trkpt lat="39.15346191998643" lon="16.0656653935231"><ele>0.0</ele><time>2026-03-29T12:39:11Z</time></trkpt><trkpt lat="39.15364672792376" lon="16.06563961831648"><ele>0.0</ele><time>2026-03-29T12:39:12Z</time></trkpt><trkpt lat="39.153834463663124" lon="16.065615603457825"><ele>0.0</ele><time>2026-03-29T12:39:13Z</time></trkpt><trkpt lat="39.154028587344456" lon="16.06559324878899"><ele>0.3333333333333333</ele><time>2026-03-29T12:39:14Z</time></trkpt><trkpt lat="39.15422463111523" lon="16.06557311991904"><ele>0.6666666666666666</ele><time>2026-03-29T12:39:15Z</time></trkpt><trkpt lat="39.15442123014754" lon="16.06554936085573"><ele>1.0</ele><time>2026-03-29T12:39:16Z</time></trkpt><trkpt lat="39.154620541174324" lon="16.065526229229057"><ele>1.0</ele><time>2026-03-29T12:39:17Z</time></trkpt><trkpt lat="39.15481376164212" lon="16.06550102779787"><ele>1.0</ele><time>2026-03-29T12:39:18Z</time></trkpt><trkpt lat="39.15500702817307" lon="16.06547435199831"><ele>1.0</ele><time>2026-03-29T12:39:19Z</time></trkpt><trkpt lat="39.155198854251196" lon="16.065449996915966"><ele>1.6666666666666665</ele><time>2026-03-29T12:39:20Z</time></trkpt><trkpt lat="39.15539150101495" lon="16.065427964886506"><ele>2.3333333333333335</ele><time>2026-03-29T12:39:21Z</time></trkpt><trkpt lat="39.155583910986934" lon="16.065403679771535"><ele>3.0</ele><time>2026-03-29T12:39:22Z</time></trkpt><trkpt lat="39.155776170753875" lon="16.0653788599145"><ele>3.666666666666667</ele><time>2026-03-29T12:39:23Z</time></trkpt><trkpt lat="39.1559694602916" lon="16.065353443906528"><ele>4.333333333333334</ele><time>2026-03-29T12:39:24Z</time></trkpt><trkpt lat="39.15616279944324" lon="16.065327033045616"><ele>5.0</ele><time>2026-03-29T12:39:25Z</time></trkpt><trkpt lat="39.15635905153854" lon="16.065300524742387"><ele>6.333333333333334</ele><time>2026-03-29T12:39:26Z</time></trkpt><trkpt lat="39.15655626864339" lon="16.065273249956373"><ele>7.666666666666667</ele><time>2026-03-29T12:39:27Z</time></trkpt><trkpt lat="39.156755987422116" lon="16.06524853243288"><ele>9.0</ele><time>2026-03-29T12:39:28Z</time></trkpt><trkpt lat="39.156955632024506" lon="16.06522546993131"><ele>9.0</ele><time>2026-03-29T12:39:29Z</time></trkpt><trkpt lat="39.15715676643807" lon="16.065200268941005"><ele>9.0</ele><time>2026-03-29T12:39:30Z</time></trkpt><trkpt lat="39.1573596372556" lon="16.065174739927034"><ele>9.0</ele><time>2026-03-29T12:39:31Z</time></trkpt><trkpt lat="39.15756605361902" lon="16.06514942439773"><ele>9.0</ele><time>2026-03-29T12:39:32Z</time></trkpt><trkpt lat="39.15777170078" lon="16.065123221166807"><ele>9.0</ele><time>2026-03-29T12:39:33Z</time></trkpt><trkpt lat="39.15797769039738" lon="16.065096295754337"><ele>9.0</ele><time>2026-03-29T12:39:34Z</time></trkpt><trkpt lat="39.15818095134979" lon="16.065070748447084"><ele>10.0</ele><time>2026-03-29T12:39:35Z</time></trkpt><trkpt lat="39.158380668752336" lon="16.065046550732045"><ele>11.0</ele><time>2026-03-29T12:39:36Z</time></trkpt><trkpt lat="39.15857950616745" lon="16.06502217105521"><ele>12.0</ele><time>2026-03-29T12:39:37Z</time></trkpt><trkpt lat="39.15877755348984" lon="16.065000972138943"><ele>12.0</ele><time>2026-03-29T12:39:38Z</time></trkpt><trkpt lat="39.158975908258185" lon="16.064983599717362"><ele>12.0</ele><time>2026-03-29T12:39:38.999Z</time></trkpt><trkpt lat="39.15917343987904" lon="16.064968516768303"><ele>12.0</ele><time>2026-03-29T12:39:39.999Z</time></trkpt><trkpt lat="39.159372913517295" lon="16.06495897263071"><ele>11.0</ele><time>2026-03-29T12:39:40.999Z</time></trkpt><trkpt lat="39.15957072380729" lon="16.064955581085005"><ele>10.0</ele><time>2026-03-29T12:39:41.999Z</time></trkpt><trkpt lat="39.15976930767305" lon="16.064957815030315"><ele>9.0</ele><time>2026-03-29T12:39:42.999Z</time></trkpt><trkpt lat="39.15996811535228" lon="16.06496756419662"><ele>9.0</ele><time>2026-03-29T12:39:43.999Z</time></trkpt><trkpt lat="39.16016688183366" lon="16.064983953645395"><ele>9.0</ele><time>2026-03-29T12:39:44.999Z</time></trkpt><trkpt lat="39.16036577745619" lon="16.065004303503574"><ele>9.0</ele><time>2026-03-29T12:39:45.999Z</time></trkpt><trkpt lat="39.160564381549285" lon="16.065028109530246"><ele>8.666666666666666</ele><time>2026-03-29T12:39:46.999Z</time></trkpt><trkpt lat="39.16076391256945" lon="16.065053929171864"><ele>8.333333333333332</ele><time>2026-03-29T12:39:47.999Z</time></trkpt><trkpt lat="39.16096376719888" lon="16.065081258016825"><ele>8.0</ele><time>2026-03-29T12:39:48.999Z</time></trkpt><trkpt lat="39.16116363669451" lon="16.065108043494984"><ele>8.0</ele><time>2026-03-29T12:39:49.999Z</time></trkpt><trkpt lat="39.1613642357389" lon="16.065134026929886"><ele>8.0</ele><time>2026-03-29T12:39:50.999Z</time></trkpt><trkpt lat="39.16156513773896" lon="16.06516034943517"><ele>8.0</ele><time>2026-03-29T12:39:51.999Z</time></trkpt><trkpt lat="39.161765834330495" lon="16.065187841166413"><ele>8.0</ele><time>2026-03-29T12:39:52.999Z</time></trkpt><trkpt lat="39.16196621540472" lon="16.065214444422462"><ele>8.0</ele><time>2026-03-29T12:39:53.999Z</time></trkpt><trkpt lat="39.162164706241775" lon="16.065241032149938"><ele>8.0</ele><time>2026-03-29T12:39:54.999Z</time></trkpt><trkpt lat="39.16236145852231" lon="16.065262726624987"><ele>8.0</ele><time>2026-03-29T12:39:55.999Z</time></trkpt><trkpt lat="39.162557646619284" lon="16.065275740837386"><ele>8.0</ele><time>2026-03-29T12:39:56.999Z</time></trkpt><trkpt lat="39.162753566869995" lon="16.065279129163027"><ele>8.0</ele><time>2026-03-29T12:39:57.999Z</time></trkpt><trkpt lat="39.16294918211561" lon="16.06527568045286"><ele>8.0</ele><time>2026-03-29T12:39:58.999Z</time></trkpt><trkpt lat="39.163143421921056" lon="16.065266093638808"><ele>8.0</ele><time>2026-03-29T12:39:59.999Z</time></trkpt><trkpt lat="39.16333733276232" lon="16.06525429658736"><ele>8.0</ele><time>2026-03-29T12:40:00.999Z</time></trkpt><trkpt lat="39.163531104310145" lon="16.0652415705355"><ele>8.0</ele><time>2026-03-29T12:40:01.999Z</time></trkpt><trkpt lat="39.16372424221687" lon="16.065228154930992"><ele>8.0</ele><time>2026-03-29T12:40:02.999Z</time></trkpt><trkpt lat="39.163917052045484" lon="16.065213480387165"><ele>8.0</ele><time>2026-03-29T12:40:03.999Z</time></trkpt><trkpt lat="39.16410931319459" lon="16.065199209829693"><ele>7.666666666666666</ele><time>2026-03-29T12:40:04.999Z</time></trkpt><trkpt lat="39.16430118526929" lon="16.065186216860234"><ele>7.333333333333334</ele><time>2026-03-29T12:40:05.999Z</time></trkpt><trkpt lat="39.16449290038907" lon="16.065174487632916"><ele>7.0</ele><time>2026-03-29T12:40:06.999Z</time></trkpt><trkpt lat="39.164684254137754" lon="16.065162433758857"><ele>7.333333333333334</ele><time>2026-03-29T12:40:07.999Z</time></trkpt><trkpt lat="39.16487578008691" lon="16.065149679117116"><ele>7.666666666666666</ele><time>2026-03-29T12:40:08.999Z</time></trkpt><trkpt lat="39.165067918880325" lon="16.065139039053797"><ele>8.0</ele><time>2026-03-29T12:40:09.999Z</time></trkpt><trkpt lat="39.16526349705048" lon="16.06512325874551"><ele>8.0</ele><time>2026-03-29T12:40:10.999Z</time></trkpt><trkpt lat="39.165462969162" lon="16.065108437402994"><ele>8.0</ele><time>2026-03-29T12:40:11.999Z</time></trkpt><trkpt lat="39.165662872716354" lon="16.065095757498348"><ele>8.0</ele><time>2026-03-29T12:40:12.999Z</time></trkpt><trkpt lat="39.16586397574369" lon="16.06508136093861"><ele>7.666666666666666</ele><time>2026-03-29T12:40:13.999Z</time></trkpt><trkpt lat="39.166065601624254" lon="16.065065727888072"><ele>7.333333333333334</ele><time>2026-03-29T12:40:14.999Z</time></trkpt><trkpt lat="39.166267289854325" lon="16.065049449903807"><ele>7.0</ele><time>2026-03-29T12:40:15.999Z</time></trkpt><trkpt lat="39.16646644630649" lon="16.065033025106835"><ele>6.666666666666667</ele><time>2026-03-29T12:40:16.999Z</time></trkpt><trkpt lat="39.16666521065063" lon="16.065017880491567"><ele>6.333333333333334</ele><time>2026-03-29T12:40:17.999Z</time></trkpt><trkpt lat="39.166865017711395" lon="16.065006011881586"><ele>6.0</ele><time>2026-03-29T12:40:18.999Z</time></trkpt><trkpt lat="39.167064901594046" lon="16.064994363873"><ele>6.0</ele><time>2026-03-29T12:40:19.999Z</time></trkpt><trkpt lat="39.16726506450702" lon="16.064980405054552"><ele>6.0</ele><time>2026-03-29T12:40:20.999Z</time></trkpt><trkpt lat="39.16746540608687" lon="16.06496642141506"><ele>6.0</ele><time>2026-03-29T12:40:21.999Z</time></trkpt><trkpt lat="39.167666528911646" lon="16.06495232834508"><ele>5.666666666666667</ele><time>2026-03-29T12:40:22.999Z</time></trkpt><trkpt lat="39.16786777903387" lon="16.064938652400308"><ele>5.333333333333334</ele><time>2026-03-29T12:40:23.999Z</time></trkpt><trkpt lat="39.16806609020595" lon="16.064925135083143"><ele>5.0</ele><time>2026-03-29T12:40:24.999Z</time></trkpt><trkpt lat="39.16826306200972" lon="16.064911780262868"><ele>5.666666666666667</ele><time>2026-03-29T12:40:25.999Z</time></trkpt><trkpt lat="39.16845998245587" lon="16.06489880735326"><ele>6.333333333333334</ele><time>2026-03-29T12:40:26.999Z</time></trkpt><trkpt lat="39.16865643702184" lon="16.06488548436692"><ele>7.0</ele><time>2026-03-29T12:40:27.999Z</time></trkpt><trkpt lat="39.16885427275216" lon="16.064872056817695"><ele>7.333333333333334</ele><time>2026-03-29T12:40:28.999Z</time></trkpt><trkpt lat="39.16905372539813" lon="16.064858383348895"><ele>7.666666666666666</ele><time>2026-03-29T12:40:29.999Z</time></trkpt><trkpt lat="39.169253619705714" lon="16.06484851535208"><ele>8.0</ele><time>2026-03-29T12:40:30.999Z</time></trkpt><trkpt lat="39.169453406940384" lon="16.064838335642055"><ele>8.0</ele><time>2026-03-29T12:40:31.999Z</time></trkpt><trkpt lat="39.16965343986374" lon="16.06483258491208"><ele>8.0</ele><time>2026-03-29T12:40:32.999Z</time></trkpt><trkpt lat="39.16985352629555" lon="16.064836167652413"><ele>8.0</ele><time>2026-03-29T12:40:33.999Z</time></trkpt><trkpt lat="39.170054601849515" lon="16.064851571736284"><ele>7.333333333333333</ele><time>2026-03-29T12:40:34.999Z</time></trkpt><trkpt lat="39.17025637422802" lon="16.064879613884283"><ele>6.666666666666666</ele><time>2026-03-29T12:40:35.999Z</time></trkpt><trkpt lat="39.17045862425403" lon="16.06491280806156"><ele>6.0</ele><time>2026-03-29T12:40:36.999Z</time></trkpt><trkpt lat="39.170662403575996" lon="16.064948632423192"><ele>6.666666666666666</ele><time>2026-03-29T12:40:37.999Z</time></trkpt><trkpt lat="39.17086899168748" lon="16.064983935408872"><ele>7.333333333333333</ele><time>2026-03-29T12:40:38.999Z</time></trkpt><trkpt lat="39.171077422414875" lon="16.065022541259953"><ele>8.0</ele><time>2026-03-29T12:40:39.999Z</time></trkpt><trkpt lat="39.17128743834032" lon="16.065059878644952"><ele>8.0</ele><time>2026-03-29T12:40:40.999Z</time></trkpt><trkpt lat="39.17150106829879" lon="16.065097989187517"><ele>8.0</ele><time>2026-03-29T12:40:41.999Z</time></trkpt><trkpt lat="39.17171642086776" lon="16.065136378929004"><ele>8.0</ele><time>2026-03-29T12:40:42.999Z</time></trkpt><trkpt lat="39.17193156686503" lon="16.065176673317406"><ele>8.0</ele><time>2026-03-29T12:40:43.999Z</time></trkpt><trkpt lat="39.1721484837089" lon="16.065216589687374"><ele>8.0</ele><time>2026-03-29T12:40:44.999Z</time></trkpt><trkpt lat="39.172366715634155" lon="16.065257639467006"><ele>8.0</ele><time>2026-03-29T12:40:45.999Z</time></trkpt><trkpt lat="39.17258568740681" lon="16.065299840042506"><ele>8.0</ele><time>2026-03-29T12:40:46.999Z</time></trkpt><trkpt lat="39.17280474375372" lon="16.065341705422835"><ele>8.0</ele><time>2026-03-29T12:40:47.999Z</time></trkpt><trkpt lat="39.17302507013953" lon="16.06538282824862"><ele>8.0</ele><time>2026-03-29T12:40:48.999Z</time></trkpt><trkpt lat="39.17324530790951" lon="16.06542562916501"><ele>9.333333333333332</ele><time>2026-03-29T12:40:49.999Z</time></trkpt><trkpt lat="39.17346362661295" lon="16.065466390931675"><ele>10.666666666666666</ele><time>2026-03-29T12:40:50.999Z</time></trkpt><trkpt lat="39.173677334462774" lon="16.065503649018794"><ele>12.0</ele><time>2026-03-29T12:40:51.999Z</time></trkpt><trkpt lat="39.17388882718458" lon="16.065538210896793"><ele>11.666666666666666</ele><time>2026-03-29T12:40:52.999Z</time></trkpt><trkpt lat="39.1740995963355" lon="16.06557045639387"><ele>11.333333333333332</ele><time>2026-03-29T12:40:53.999Z</time></trkpt><trkpt lat="39.1743093918629" lon="16.065603162038418"><ele>11.0</ele><time>2026-03-29T12:40:54.999Z</time></trkpt><trkpt lat="39.17452149713505" lon="16.065627691157616"><ele>11.0</ele><time>2026-03-29T12:40:55.999Z</time></trkpt><trkpt lat="39.17473816550297" lon="16.06562644653143"><ele>11.0</ele><time>2026-03-29T12:40:56.999Z</time></trkpt><trkpt lat="39.17495276026434" lon="16.06561138294955"><ele>11.0</ele><time>2026-03-29T12:40:57.999Z</time></trkpt><trkpt lat="39.175168216037115" lon="16.065593024270115"><ele>10.333333333333332</ele><time>2026-03-29T12:40:58.999Z</time></trkpt><trkpt lat="39.175385689282095" lon="16.065574635280694"><ele>9.666666666666666</ele><time>2026-03-29T12:40:59.999Z</time></trkpt><trkpt lat="39.175604297657564" lon="16.065559199411055"><ele>9.0</ele><time>2026-03-29T12:41:00.999Z</time></trkpt><trkpt lat="39.175823073728125" lon="16.06554193050261"><ele>8.333333333333334</ele><time>2026-03-29T12:41:01.999Z</time></trkpt><trkpt lat="39.17604267047269" lon="16.06552489592516"><ele>7.666666666666667</ele><time>2026-03-29T12:41:02.999Z</time></trkpt><trkpt lat="39.17626147685801" lon="16.065508453215223"><ele>7.0</ele><time>2026-03-29T12:41:03.999Z</time></trkpt><trkpt lat="39.17647966466282" lon="16.06549042472738"><ele>7.333333333333334</ele><time>2026-03-29T12:41:04.999Z</time></trkpt><trkpt lat="39.17669712913755" lon="16.06547240442356"><ele>7.666666666666666</ele><time>2026-03-29T12:41:05.999Z</time></trkpt><trkpt lat="39.176915231109966" lon="16.065456362086312"><ele>8.0</ele><time>2026-03-29T12:41:06.999Z</time></trkpt><trkpt lat="39.177133284344265" lon="16.065439440878777"><ele>8.0</ele><time>2026-03-29T12:41:07.999Z</time></trkpt><trkpt lat="39.177351406319524" lon="16.065422666711736"><ele>8.0</ele><time>2026-03-29T12:41:08.999Z</time></trkpt><trkpt lat="39.177569730807676" lon="16.065405585135718"><ele>8.0</ele><time>2026-03-29T12:41:09.999Z</time></trkpt><trkpt lat="39.1777876710739" lon="16.065389108237714"><ele>7.333333333333333</ele><time>2026-03-29T12:41:11Z</time></trkpt><trkpt lat="39.17800467156887" lon="16.065372460253997"><ele>6.666666666666666</ele><time>2026-03-29T12:41:12Z</time></trkpt><trkpt lat="39.17822208104008" lon="16.065354632241114"><ele>6.0</ele><time>2026-03-29T12:41:13Z</time></trkpt><trkpt lat="39.178439415374214" lon="16.065338976705103"><ele>6.0</ele><time>2026-03-29T12:41:14Z</time></trkpt><trkpt lat="39.17865474390298" lon="16.065322414172996"><ele>6.0</ele><time>2026-03-29T12:41:15Z</time></trkpt><trkpt lat="39.17887004146265" lon="16.065305239446015"><ele>6.0</ele><time>2026-03-29T12:41:16Z</time></trkpt><trkpt lat="39.17908511956876" lon="16.065288951771766"><ele>6.0</ele><time>2026-03-29T12:41:17Z</time></trkpt><trkpt lat="39.179299818081496" lon="16.065273015525058"><ele>6.0</ele><time>2026-03-29T12:41:18Z</time></trkpt><trkpt lat="39.17951455510434" lon="16.065256113463242"><ele>6.0</ele><time>2026-03-29T12:41:19Z</time></trkpt><trkpt lat="39.17972991745255" lon="16.065238316439892"><ele>6.666666666666666</ele><time>2026-03-29T12:41:20Z</time></trkpt><trkpt lat="39.1799443532067" lon="16.06522178180595"><ele>7.333333333333333</ele><time>2026-03-29T12:41:21Z</time></trkpt><trkpt lat="39.18015753767959" lon="16.065203644587505"><ele>8.0</ele><time>2026-03-29T12:41:22Z</time></trkpt><trkpt lat="39.18037003562828" lon="16.065188127564415"><ele>8.0</ele><time>2026-03-29T12:41:23Z</time></trkpt><trkpt lat="39.18058277471313" lon="16.065170934489103"><ele>8.0</ele><time>2026-03-29T12:41:24Z</time></trkpt><trkpt lat="39.180794694964014" lon="16.06515564903797"><ele>8.0</ele><time>2026-03-29T12:41:25Z</time></trkpt><trkpt lat="39.18100755376935" lon="16.065141599386216"><ele>9.333333333333332</ele><time>2026-03-29T12:41:26Z</time></trkpt><trkpt lat="39.18122013092616" lon="16.065126451159692"><ele>10.666666666666666</ele><time>2026-03-29T12:41:27Z</time></trkpt><trkpt lat="39.18143217150694" lon="16.065110497813556"><ele>12.0</ele><time>2026-03-29T12:41:28Z</time></trkpt><trkpt lat="39.181644703720565" lon="16.065093628874898"><ele>13.0</ele><time>2026-03-29T12:41:29Z</time></trkpt><trkpt lat="39.18185630975883" lon="16.065077226669516"><ele>14.0</ele><time>2026-03-29T12:41:30Z</time></trkpt><trkpt lat="39.18206713630159" lon="16.06506274037162"><ele>15.0</ele><time>2026-03-29T12:41:31Z</time></trkpt><trkpt lat="39.18227945259514" lon="16.065046222684387"><ele>13.0</ele><time>2026-03-29T12:41:32Z</time></trkpt><trkpt lat="39.18249331116712" lon="16.065029891650376"><ele>11.0</ele><time>2026-03-29T12:41:33Z</time></trkpt><trkpt lat="39.18270219628811" lon="16.065014249425747"><ele>9.0</ele><time>2026-03-29T12:41:34Z</time></trkpt><trkpt lat="39.18291324530896" lon="16.06499837963394"><ele>9.0</ele><time>2026-03-29T12:41:35Z</time></trkpt><trkpt lat="39.183123119099406" lon="16.064983334140393"><ele>9.0</ele><time>2026-03-29T12:41:36Z</time></trkpt><trkpt lat="39.18333307472218" lon="16.064967869560295"><ele>9.0</ele><time>2026-03-29T12:41:37Z</time></trkpt><trkpt lat="39.18354516344648" lon="16.064952442704552"><ele>9.333333333333334</ele><time>2026-03-29T12:41:38Z</time></trkpt><trkpt lat="39.18375793995792" lon="16.06493839436163"><ele>9.666666666666668</ele><time>2026-03-29T12:41:39Z</time></trkpt><trkpt lat="39.183972656985944" lon="16.064922655317062"><ele>10.0</ele><time>2026-03-29T12:41:40Z</time></trkpt><trkpt lat="39.18418978596431" lon="16.064910249253288"><ele>10.0</ele><time>2026-03-29T12:41:41Z</time></trkpt><trkpt lat="39.18440839872401" lon="16.06489635674468"><ele>10.0</ele><time>2026-03-29T12:41:42Z</time></trkpt><trkpt lat="39.184626478554996" lon="16.064881517892765"><ele>10.0</ele><time>2026-03-29T12:41:43Z</time></trkpt><trkpt lat="39.18484771283426" lon="16.06485703942362"><ele>9.0</ele><time>2026-03-29T12:41:43.999Z</time></trkpt><trkpt lat="39.18506746239367" lon="16.064834200129525"><ele>8.0</ele><time>2026-03-29T12:41:44.999Z</time></trkpt><trkpt lat="39.185290352540875" lon="16.06479790965567"><ele>7.0</ele><time>2026-03-29T12:41:45.999Z</time></trkpt><trkpt lat="39.18551451001674" lon="16.064764287945565"><ele>6.5</ele><time>2026-03-29T12:41:46.999Z</time></trkpt><trkpt lat="39.185738602687124" lon="16.064731501115208"><ele>6.0</ele><time>2026-03-29T12:41:47.999Z</time></trkpt><trkpt lat="39.18596400388868" lon="16.064700881186408"><ele>6.0</ele><time>2026-03-29T12:41:48.999Z</time></trkpt><trkpt lat="39.186189330627265" lon="16.0646682192862"><ele>6.0</ele><time>2026-03-29T12:41:49.999Z</time></trkpt><trkpt lat="39.18641229789568" lon="16.06463500696731"><ele>6.5</ele><time>2026-03-29T12:41:50.999Z</time></trkpt><trkpt lat="39.18663733515777" lon="16.06459953672111"><ele>7.0</ele><time>2026-03-29T12:41:51.999Z</time></trkpt><trkpt lat="39.18686081465265" lon="16.06456425316947"><ele>7.0</ele><time>2026-03-29T12:41:52.999Z</time></trkpt><trkpt lat="39.18708310711222" lon="16.0645301421603"><ele>7.0</ele><time>2026-03-29T12:41:53.999Z</time></trkpt><trkpt lat="39.187303606913936" lon="16.06449776836711"><ele>7.0</ele><time>2026-03-29T12:41:54.999Z</time></trkpt><trkpt lat="39.1875224727897" lon="16.064466018910625"><ele>7.333333333333334</ele><time>2026-03-29T12:41:55.999Z</time></trkpt><trkpt lat="39.18774130270148" lon="16.064432107594794"><ele>7.666666666666666</ele><time>2026-03-29T12:41:56.999Z</time></trkpt><trkpt lat="39.18796010344405" lon="16.06439929015557"><ele>8.0</ele><time>2026-03-29T12:41:57.999Z</time></trkpt><trkpt lat="39.18817893841579" lon="16.06436658858386"><ele>8.333333333333332</ele><time>2026-03-29T12:41:58.999Z</time></trkpt><trkpt lat="39.188398438639666" lon="16.064333563563512"><ele>8.666666666666666</ele><time>2026-03-29T12:41:59.999Z</time></trkpt><trkpt lat="39.18861734580566" lon="16.064301036532818"><ele>9.0</ele><time>2026-03-29T12:42:00.999Z</time></trkpt><trkpt lat="39.188835990234814" lon="16.064267803960096"><ele>10.666666666666668</ele><time>2026-03-29T12:42:01.999Z</time></trkpt><trkpt lat="39.18905444285738" lon="16.064234121118112"><ele>12.333333333333334</ele><time>2026-03-29T12:42:02.999Z</time></trkpt><trkpt lat="39.189272424327974" lon="16.06420141547156"><ele>14.0</ele><time>2026-03-29T12:42:03.999Z</time></trkpt><trkpt lat="39.18949147750944" lon="16.064169551764152"><ele>14.0</ele><time>2026-03-29T12:42:04.999Z</time></trkpt><trkpt lat="39.189709713513935" lon="16.06413782899361"><ele>14.0</ele><time>2026-03-29T12:42:05.999Z</time></trkpt><trkpt lat="39.1899268379091" lon="16.064105934473403"><ele>14.0</ele><time>2026-03-29T12:42:06.999Z</time></trkpt><trkpt lat="39.19014593464804" lon="16.064073703191873"><ele>11.666666666666668</ele><time>2026-03-29T12:42:07.999Z</time></trkpt><trkpt lat="39.19036056451086" lon="16.064041731446686"><ele>9.333333333333334</ele><time>2026-03-29T12:42:08.999Z</time></trkpt><trkpt lat="39.19057742655134" lon="16.064009135471263"><ele>7.0</ele><time>2026-03-29T12:42:09.999Z</time></trkpt><trkpt lat="39.190794093589005" lon="16.063977852703644"><ele>7.0</ele><time>2026-03-29T12:42:10.999Z</time></trkpt><trkpt lat="39.19100882642047" lon="16.063947402637346"><ele>7.0</ele><time>2026-03-29T12:42:11.999Z</time></trkpt><trkpt lat="39.19122281317907" lon="16.06391567146801"><ele>7.0</ele><time>2026-03-29T12:42:12.999Z</time></trkpt><trkpt lat="39.191435534082125" lon="16.06388370669334"><ele>6.333333333333334</ele><time>2026-03-29T12:42:13.999Z</time></trkpt><trkpt lat="39.19164755721324" lon="16.063851471929464"><ele>5.666666666666667</ele><time>2026-03-29T12:42:14.999Z</time></trkpt><trkpt lat="39.19185851345776" lon="16.063818891466322"><ele>5.0</ele><time>2026-03-29T12:42:15.999Z</time></trkpt><trkpt lat="39.19206979439081" lon="16.06378883003176"><ele>5.0</ele><time>2026-03-29T12:42:16.999Z</time></trkpt><trkpt lat="39.19227981454384" lon="16.063759986720388"><ele>5.0</ele><time>2026-03-29T12:42:17.999Z</time></trkpt><trkpt lat="39.19248963929923" lon="16.063728464106717"><ele>5.0</ele><time>2026-03-29T12:42:18.999Z</time></trkpt><trkpt lat="39.19269740732133" lon="16.063698560301173"><ele>5.333333333333334</ele><time>2026-03-29T12:42:19.999Z</time></trkpt><trkpt lat="39.192902078030336" lon="16.063668689188912"><ele>5.666666666666667</ele><time>2026-03-29T12:42:20.999Z</time></trkpt><trkpt lat="39.19309809562553" lon="16.06367210259237"><ele>6.0</ele><time>2026-03-29T12:42:21.999Z</time></trkpt><trkpt lat="39.193305876458645" lon="16.06360157515046"><ele>6.0</ele><time>2026-03-29T12:42:22.999Z</time></trkpt><trkpt lat="39.193501457091784" lon="16.06357356321247"><ele>6.0</ele><time>2026-03-29T12:42:23.999Z</time></trkpt><trkpt lat="39.19388381648127" lon="16.063527453520074"><ele>6.333333333333334</ele><time>2026-03-29T12:42:25.999Z</time></trkpt><trkpt lat="39.19406673157376" lon="16.063511467439376"><ele>6.666666666666667</ele><time>2026-03-29T12:42:26.999Z</time></trkpt><trkpt lat="39.194255581699046" lon="16.063506636336125"><ele>7.0</ele><time>2026-03-29T12:42:27.999Z</time></trkpt><trkpt lat="39.194444403815346" lon="16.063500049560908"><ele>7.0</ele><time>2026-03-29T12:42:28.999Z</time></trkpt><trkpt lat="39.19462487191582" lon="16.06348285401051"><ele>7.0</ele><time>2026-03-29T12:42:29.999Z</time></trkpt><trkpt lat="39.19480705272054" lon="16.063466029403624"><ele>7.0</ele><time>2026-03-29T12:42:30.999Z</time></trkpt><trkpt lat="39.194989983879005" lon="16.06345206712784"><ele>6.666666666666667</ele><time>2026-03-29T12:42:31.999Z</time></trkpt><trkpt lat="39.19517512937271" lon="16.06343461162244"><ele>6.333333333333334</ele><time>2026-03-29T12:42:32.999Z</time></trkpt><trkpt lat="39.19536002001615" lon="16.063421533706773"><ele>6.0</ele><time>2026-03-29T12:42:33.999Z</time></trkpt><trkpt lat="39.19554466884172" lon="16.063408617962804"><ele>5.666666666666667</ele><time>2026-03-29T12:42:34.999Z</time></trkpt><trkpt lat="39.195726010353056" lon="16.063392808547416"><ele>5.333333333333334</ele><time>2026-03-29T12:42:35.999Z</time></trkpt><trkpt lat="39.195912356192395" lon="16.06337787366337"><ele>5.0</ele><time>2026-03-29T12:42:36.999Z</time></trkpt><trkpt lat="39.19609964033487" lon="16.063367628682062"><ele>5.0</ele><time>2026-03-29T12:42:37.999Z</time></trkpt><trkpt lat="39.19628908434495" lon="16.06335783354811"><ele>5.0</ele><time>2026-03-29T12:42:38.999Z</time></trkpt><trkpt lat="39.1964760611477" lon="16.063346769044504"><ele>5.0</ele><time>2026-03-29T12:42:39.999Z</time></trkpt><trkpt lat="39.196665331752655" lon="16.063335603168206"><ele>5.0</ele><time>2026-03-29T12:42:40.999Z</time></trkpt><trkpt lat="39.196853587759726" lon="16.063323911883497"><ele>5.0</ele><time>2026-03-29T12:42:41.999Z</time></trkpt><trkpt lat="39.1970431678564" lon="16.0633103002834"><ele>5.0</ele><time>2026-03-29T12:42:42.999Z</time></trkpt><trkpt lat="39.197235717348605" lon="16.0632900914966"><ele>5.333333333333334</ele><time>2026-03-29T12:42:43.999Z</time></trkpt><trkpt lat="39.19742776235598" lon="16.063259540940734"><ele>5.666666666666667</ele><time>2026-03-29T12:42:44.999Z</time></trkpt><trkpt lat="39.197618638116865" lon="16.063219558782325"><ele>6.0</ele><time>2026-03-29T12:42:45.999Z</time></trkpt><trkpt lat="39.197808077683106" lon="16.063175267088596"><ele>6.0</ele><time>2026-03-29T12:42:46.999Z</time></trkpt><trkpt lat="39.19799662205197" lon="16.06312996331119"><ele>6.0</ele><time>2026-03-29T12:42:47.999Z</time></trkpt><trkpt lat="39.198184394193774" lon="16.063080622941772"><ele>6.0</ele><time>2026-03-29T12:42:48.999Z</time></trkpt><trkpt lat="39.198369758038176" lon="16.063031796473922"><ele>6.666666666666666</ele><time>2026-03-29T12:42:49.999Z</time></trkpt><trkpt lat="39.19855320185982" lon="16.062988666656764"><ele>7.333333333333333</ele><time>2026-03-29T12:42:50.999Z</time></trkpt><trkpt lat="39.1987348450003" lon="16.0629454546221"><ele>8.0</ele><time>2026-03-29T12:42:51.999Z</time></trkpt><trkpt lat="39.19891546504097" lon="16.062903593682798"><ele>10.0</ele><time>2026-03-29T12:42:52.999Z</time></trkpt><trkpt lat="39.199094042892035" lon="16.062859584988207"><ele>12.0</ele><time>2026-03-29T12:42:53.999Z</time></trkpt><trkpt lat="39.19926923558173" lon="16.06281677890835"><ele>14.0</ele><time>2026-03-29T12:42:54.999Z</time></trkpt><trkpt lat="39.19944346849349" lon="16.06277706831208"><ele>14.0</ele><time>2026-03-29T12:42:55.999Z</time></trkpt><trkpt lat="39.19961833024032" lon="16.062736454680852"><ele>14.0</ele><time>2026-03-29T12:42:56.999Z</time></trkpt><trkpt lat="39.19979469861895" lon="16.062692020033946"><ele>14.0</ele><time>2026-03-29T12:42:57.999Z</time></trkpt><trkpt lat="39.199973882484294" lon="16.06264770753312"><ele>15.0</ele><time>2026-03-29T12:42:58.999Z</time></trkpt><trkpt lat="39.20015471713933" lon="16.062604460388584"><ele>16.0</ele><time>2026-03-29T12:42:59.999Z</time></trkpt><trkpt lat="39.20033743058481" lon="16.062559174810726"><ele>17.0</ele><time>2026-03-29T12:43:00.999Z</time></trkpt><trkpt lat="39.20052164450061" lon="16.062514929366174"><ele>16.0</ele><time>2026-03-29T12:43:01.999Z</time></trkpt><trkpt lat="39.200705280409174" lon="16.062470401605193"><ele>15.0</ele><time>2026-03-29T12:43:02.999Z</time></trkpt><trkpt lat="39.20088637474494" lon="16.062422388639405"><ele>14.0</ele><time>2026-03-29T12:43:03.999Z</time></trkpt><trkpt lat="39.201067813415015" lon="16.06237167606222"><ele>14.0</ele><time>2026-03-29T12:43:04.999Z</time></trkpt><trkpt lat="39.20125035639988" lon="16.062327418530057"><ele>14.0</ele><time>2026-03-29T12:43:05.999Z</time></trkpt><trkpt lat="39.20143562981878" lon="16.06228958135408"><ele>14.0</ele><time>2026-03-29T12:43:06.999Z</time></trkpt><trkpt lat="39.20162437851266" lon="16.062253212079842"><ele>15.0</ele><time>2026-03-29T12:43:07.999Z</time></trkpt><trkpt lat="39.2018138759353" lon="16.062230175756493"><ele>16.0</ele><time>2026-03-29T12:43:08.999Z</time></trkpt><trkpt lat="39.20200256521045" lon="16.062213388324096"><ele>17.0</ele><time>2026-03-29T12:43:09.999Z</time></trkpt><trkpt lat="39.20219266890225" lon="16.0622037937001"><ele>17.0</ele><time>2026-03-29T12:43:10.999Z</time></trkpt><trkpt lat="39.20238279994243" lon="16.062200455581955"><ele>17.0</ele><time>2026-03-29T12:43:11.999Z</time></trkpt><trkpt lat="39.20257445504083" lon="16.062205029100397"><ele>17.0</ele><time>2026-03-29T12:43:12.999Z</time></trkpt><trkpt lat="39.20276901696758" lon="16.062204796771702"><ele>17.0</ele><time>2026-03-29T12:43:13.999Z</time></trkpt><trkpt lat="39.202966953547815" lon="16.062204398094114"><ele>17.0</ele><time>2026-03-29T12:43:14.999Z</time></trkpt><trkpt lat="39.20316514821333" lon="16.06220513492354"><ele>17.0</ele><time>2026-03-29T12:43:15.999Z</time></trkpt><trkpt lat="39.203364819751926" lon="16.062207115891308"><ele>16.0</ele><time>2026-03-29T12:43:16.999Z</time></trkpt><trkpt lat="39.20356379873757" lon="16.06220619136315"><ele>15.0</ele><time>2026-03-29T12:43:17.999Z</time></trkpt><trkpt lat="39.203765219937075" lon="16.062204136219208"><ele>14.0</ele><time>2026-03-29T12:43:18.999Z</time></trkpt><trkpt lat="39.20396749779489" lon="16.06220335656005"><ele>14.0</ele><time>2026-03-29T12:43:19.999Z</time></trkpt><trkpt lat="39.20417115738823" lon="16.062204340690922"><ele>14.0</ele><time>2026-03-29T12:43:20.999Z</time></trkpt><trkpt lat="39.204375098919904" lon="16.062206900726153"><ele>14.0</ele><time>2026-03-29T12:43:21.999Z</time></trkpt><trkpt lat="39.20457946442417" lon="16.062212111228153"><ele>14.0</ele><time>2026-03-29T12:43:22.999Z</time></trkpt><trkpt lat="39.20478424837932" lon="16.0622116290414"><ele>14.0</ele><time>2026-03-29T12:43:23.999Z</time></trkpt><trkpt lat="39.20499054466056" lon="16.062208577434077"><ele>14.0</ele><time>2026-03-29T12:43:24.999Z</time></trkpt><trkpt lat="39.20519738007302" lon="16.062209600031174"><ele>13.666666666666668</ele><time>2026-03-29T12:43:25.999Z</time></trkpt><trkpt lat="39.20540377176532" lon="16.062213004830696"><ele>13.333333333333332</ele><time>2026-03-29T12:43:26.999Z</time></trkpt><trkpt lat="39.20560924217684" lon="16.062220117491137"><ele>13.0</ele><time>2026-03-29T12:43:27.999Z</time></trkpt><trkpt lat="39.20581227258788" lon="16.062234204517253"><ele>12.333333333333332</ele><time>2026-03-29T12:43:28.999Z</time></trkpt><trkpt lat="39.206015194422875" lon="16.06225243915549"><ele>11.666666666666666</ele><time>2026-03-29T12:43:29.999Z</time></trkpt><trkpt lat="39.206219651087046" lon="16.062276695064114"><ele>11.0</ele><time>2026-03-29T12:43:30.999Z</time></trkpt><trkpt lat="39.206425880600854" lon="16.06231099876037"><ele>10.0</ele><time>2026-03-29T12:43:31.999Z</time></trkpt><trkpt lat="39.20663282175224" lon="16.062349767254048"><ele>9.0</ele><time>2026-03-29T12:43:32.999Z</time></trkpt><trkpt lat="39.206842152541824" lon="16.062389902896843"><ele>8.0</ele><time>2026-03-29T12:43:33.999Z</time></trkpt><trkpt lat="39.20705083720698" lon="16.062429030650208"><ele>7.666666666666666</ele><time>2026-03-29T12:43:34.999Z</time></trkpt><trkpt lat="39.20725659539872" lon="16.062469756675767"><ele>7.333333333333334</ele><time>2026-03-29T12:43:35.999Z</time></trkpt><trkpt lat="39.20746154299158" lon="16.062509862331567"><ele>7.0</ele><time>2026-03-29T12:43:36.999Z</time></trkpt><trkpt lat="39.20766558901522" lon="16.06255077760793"><ele>7.0</ele><time>2026-03-29T12:43:37.999Z</time></trkpt><trkpt lat="39.207869677691946" lon="16.062590199991014"><ele>7.0</ele><time>2026-03-29T12:43:38.999Z</time></trkpt><trkpt lat="39.20807546709361" lon="16.062629820533544"><ele>7.0</ele><time>2026-03-29T12:43:39.999Z</time></trkpt><trkpt lat="39.208281639987746" lon="16.062668184471647"><ele>7.666666666666667</ele><time>2026-03-29T12:43:40.999Z</time></trkpt><trkpt lat="39.20848821843239" lon="16.062706511494337"><ele>8.333333333333334</ele><time>2026-03-29T12:43:41.999Z</time></trkpt><trkpt lat="39.20869475282917" lon="16.062744233626006"><ele>9.0</ele><time>2026-03-29T12:43:42.999Z</time></trkpt><trkpt lat="39.20890275948773" lon="16.062778727458078"><ele>8.666666666666666</ele><time>2026-03-29T12:43:43.999Z</time></trkpt><trkpt lat="39.20911241849126" lon="16.062806931668632"><ele>8.333333333333332</ele><time>2026-03-29T12:43:44.999Z</time></trkpt><trkpt lat="39.20932379963921" lon="16.062825665635422"><ele>8.0</ele><time>2026-03-29T12:43:45.999Z</time></trkpt><trkpt lat="39.20953458135788" lon="16.062832349389733"><ele>8.0</ele><time>2026-03-29T12:43:46.999Z</time></trkpt><trkpt lat="39.20974763337679" lon="16.062831151162186"><ele>8.0</ele><time>2026-03-29T12:43:47.999Z</time></trkpt><trkpt lat="39.209961765150425" lon="16.06282371665641"><ele>8.0</ele><time>2026-03-29T12:43:48.999Z</time></trkpt><trkpt lat="39.21017506680864" lon="16.062812613810046"><ele>8.0</ele><time>2026-03-29T12:43:49.999Z</time></trkpt><trkpt lat="39.21038703794467" lon="16.062803988960372"><ele>8.0</ele><time>2026-03-29T12:43:50.999Z</time></trkpt><trkpt lat="39.21059694657862" lon="16.062793422306385"><ele>8.0</ele><time>2026-03-29T12:43:51.999Z</time></trkpt><trkpt lat="39.21080323174766" lon="16.06278212800589"><ele>8.0</ele><time>2026-03-29T12:43:52.999Z</time></trkpt><trkpt lat="39.21100906627916" lon="16.062772374471667"><ele>8.0</ele><time>2026-03-29T12:43:53.999Z</time></trkpt><trkpt lat="39.211214417089174" lon="16.062762740662357"><ele>8.0</ele><time>2026-03-29T12:43:54.999Z</time></trkpt><trkpt lat="39.211420812309996" lon="16.06275117172406"><ele>7.666666666666666</ele><time>2026-03-29T12:43:55.999Z</time></trkpt><trkpt lat="39.21162663431954" lon="16.06273970899291"><ele>7.333333333333334</ele><time>2026-03-29T12:43:56.999Z</time></trkpt><trkpt lat="39.21183355890569" lon="16.06272979326946"><ele>7.0</ele><time>2026-03-29T12:43:57.999Z</time></trkpt><trkpt lat="39.21204056123838" lon="16.062718636208103"><ele>7.0</ele><time>2026-03-29T12:43:58.999Z</time></trkpt><trkpt lat="39.212248533190426" lon="16.06270790243584"><ele>7.0</ele><time>2026-03-29T12:43:59.999Z</time></trkpt><trkpt lat="39.21245720980425" lon="16.062697909678118"><ele>7.0</ele><time>2026-03-29T12:44:00.999Z</time></trkpt><trkpt lat="39.21266679775734" lon="16.06268759539072"><ele>7.0</ele><time>2026-03-29T12:44:01.999Z</time></trkpt><trkpt lat="39.21287774135816" lon="16.06267686558948"><ele>7.0</ele><time>2026-03-29T12:44:02.999Z</time></trkpt><trkpt lat="39.21308905117929" lon="16.06266704430923"><ele>7.0</ele><time>2026-03-29T12:44:03.999Z</time></trkpt><trkpt lat="39.21330181314772" lon="16.062658415221012"><ele>7.0</ele><time>2026-03-29T12:44:04.999Z</time></trkpt><trkpt lat="39.21351450449182" lon="16.062649829925768"><ele>7.0</ele><time>2026-03-29T12:44:05.999Z</time></trkpt><trkpt lat="39.2137275422652" lon="16.0626394515728"><ele>7.0</ele><time>2026-03-29T12:44:06.999Z</time></trkpt><trkpt lat="39.21394106208669" lon="16.06262931463002"><ele>7.666666666666667</ele><time>2026-03-29T12:44:07.999Z</time></trkpt><trkpt lat="39.214154768843315" lon="16.06261750754102"><ele>8.333333333333334</ele><time>2026-03-29T12:44:08.999Z</time></trkpt><trkpt lat="39.21436860282944" lon="16.062607489389187"><ele>9.0</ele><time>2026-03-29T12:44:09.999Z</time></trkpt><trkpt lat="39.2145835157073" lon="16.062598048954687"><ele>9.0</ele><time>2026-03-29T12:44:10.999Z</time></trkpt><trkpt lat="39.21479917345529" lon="16.062588834800348"><ele>9.0</ele><time>2026-03-29T12:44:11.999Z</time></trkpt><trkpt lat="39.215015693755056" lon="16.062578514235632"><ele>9.0</ele><time>2026-03-29T12:44:12.999Z</time></trkpt><trkpt lat="39.21523255173451" lon="16.062567997319587"><ele>8.0</ele><time>2026-03-29T12:44:13.999Z</time></trkpt><trkpt lat="39.215449370199096" lon="16.062557042620988"><ele>7.0</ele><time>2026-03-29T12:44:14.999Z</time></trkpt><trkpt lat="39.21566440550701" lon="16.062547108870803"><ele>6.0</ele><time>2026-03-29T12:44:15.999Z</time></trkpt><trkpt lat="39.21587758001949" lon="16.062536880063806"><ele>6.0</ele><time>2026-03-29T12:44:16.999Z</time></trkpt><trkpt lat="39.2160897682464" lon="16.06252582772181"><ele>6.0</ele><time>2026-03-29T12:44:17.999Z</time></trkpt><trkpt lat="39.21630088380105" lon="16.06251443432113"><ele>6.0</ele><time>2026-03-29T12:44:18.999Z</time></trkpt><trkpt lat="39.21651135282467" lon="16.062499238822376"><ele>6.0</ele><time>2026-03-29T12:44:19.999Z</time></trkpt><trkpt lat="39.21672122336248" lon="16.062482032301407"><ele>6.0</ele><time>2026-03-29T12:44:20.999Z</time></trkpt><trkpt lat="39.216930911483495" lon="16.06245138171968"><ele>6.0</ele><time>2026-03-29T12:44:21.999Z</time></trkpt><trkpt lat="39.21713860918617" lon="16.062404577241423"><ele>6.0</ele><time>2026-03-29T12:44:22.999Z</time></trkpt><trkpt lat="39.21734462809738" lon="16.06234866019231"><ele>6.0</ele><time>2026-03-29T12:44:23.999Z</time></trkpt><trkpt lat="39.21754962363528" lon="16.062286577534845"><ele>6.0</ele><time>2026-03-29T12:44:24.999Z</time></trkpt><trkpt lat="39.217754103682275" lon="16.06221968456499"><ele>6.0</ele><time>2026-03-29T12:44:25.999Z</time></trkpt><trkpt lat="39.21795852655295" lon="16.062151935887368"><ele>6.0</ele><time>2026-03-29T12:44:26.999Z</time></trkpt><trkpt lat="39.21816210185833" lon="16.062085030614664"><ele>6.0</ele><time>2026-03-29T12:44:27.999Z</time></trkpt><trkpt lat="39.21836462211844" lon="16.062018238041603"><ele>6.666666666666666</ele><time>2026-03-29T12:44:28.999Z</time></trkpt><trkpt lat="39.21856522103625" lon="16.06195071779529"><ele>7.333333333333333</ele><time>2026-03-29T12:44:29.999Z</time></trkpt><trkpt lat="39.218764019890116" lon="16.061882829800062"><ele>8.0</ele><time>2026-03-29T12:44:30.999Z</time></trkpt><trkpt lat="39.21896245052291" lon="16.06181536156893"><ele>9.666666666666666</ele><time>2026-03-29T12:44:31.999Z</time></trkpt><trkpt lat="39.219161200775794" lon="16.061748702883765"><ele>11.333333333333332</ele><time>2026-03-29T12:44:32.999Z</time></trkpt><trkpt lat="39.21935990088573" lon="16.061683102389534"><ele>13.0</ele><time>2026-03-29T12:44:33.999Z</time></trkpt><trkpt lat="39.21955858553059" lon="16.061616678527862"><ele>12.666666666666666</ele><time>2026-03-29T12:44:34.999Z</time></trkpt><trkpt lat="39.21975826771647" lon="16.06154980859059"><ele>12.333333333333332</ele><time>2026-03-29T12:44:35.999Z</time></trkpt><trkpt lat="39.219955874989694" lon="16.06148435158367"><ele>12.0</ele><time>2026-03-29T12:44:36.999Z</time></trkpt><trkpt lat="39.22015234785687" lon="16.061419009894454"><ele>12.0</ele><time>2026-03-29T12:44:37.999Z</time></trkpt><trkpt lat="39.220348348514655" lon="16.061355059769514"><ele>12.0</ele><time>2026-03-29T12:44:38.999Z</time></trkpt><trkpt lat="39.22054166770485" lon="16.061291339855472"><ele>12.0</ele><time>2026-03-29T12:44:39.999Z</time></trkpt><trkpt lat="39.22073295397993" lon="16.06122623138045"><ele>11.0</ele><time>2026-03-29T12:44:40.999Z</time></trkpt><trkpt lat="39.22091863832555" lon="16.061163917681665"><ele>10.0</ele><time>2026-03-29T12:44:41.999Z</time></trkpt><trkpt lat="39.2210956731263" lon="16.061102957175198"><ele>9.0</ele><time>2026-03-29T12:44:42.999Z</time></trkpt><trkpt lat="39.221259507280024" lon="16.0610465336176"><ele>9.0</ele><time>2026-03-29T12:44:43.999Z</time></trkpt><trkpt lat="39.221407063656784" lon="16.060998616857013"><ele>9.0</ele><time>2026-03-29T12:44:44.999Z</time></trkpt><trkpt lat="39.22153561093277" lon="16.060955476457234"><ele>9.0</ele><time>2026-03-29T12:44:45.999Z</time></trkpt><trkpt lat="39.22164646087165" lon="16.060921120129546"><ele>9.0</ele><time>2026-03-29T12:44:46.999Z</time></trkpt><trkpt lat="39.221741275775166" lon="16.060896479030326"><ele>9.5</ele><time>2026-03-29T12:44:47.999Z</time></trkpt><trkpt lat="39.22181216530289" lon="16.060883210891514"><ele>10.0</ele><time>2026-03-29T12:44:48.999Z</time></trkpt><trkpt lat="39.22191800216407" lon="16.060879195756733"><ele>10.5</ele><time>2026-03-29T12:44:50.999Z</time></trkpt><trkpt lat="39.22196875972568" lon="16.060931966244244"><ele>11.0</ele><time>2026-03-29T12:44:52.999Z</time></trkpt><trkpt lat="39.22203664690821" lon="16.0609133978152"><ele>11.5</ele><time>2026-03-29T12:44:56.999Z</time></trkpt><trkpt lat="39.22214627571911" lon="16.060999270812488"><ele>12.0</ele><time>2026-03-29T12:44:58.999Z</time></trkpt><trkpt lat="39.22222169514736" lon="16.061001292223235"><ele>12.0</ele><time>2026-03-29T12:45:00.999Z</time></trkpt><trkpt lat="39.222305562714574" lon="16.061004559686005"><ele>12.0</ele><time>2026-03-29T12:45:02.999Z</time></trkpt><trkpt lat="39.22240907572701" lon="16.06100637776836"><ele>12.0</ele><time>2026-03-29T12:45:04.999Z</time></trkpt><trkpt lat="39.22253091075439" lon="16.0610042155202"><ele>12.0</ele><time>2026-03-29T12:45:06.999Z</time></trkpt><trkpt lat="39.22259833567577" lon="16.061000762499003"><ele>12.0</ele><time>2026-03-29T12:45:07.999Z</time></trkpt><trkpt lat="39.22266338057908" lon="16.06099445655944"><ele>12.0</ele><time>2026-03-29T12:45:08.999Z</time></trkpt><trkpt lat="39.222726960115786" lon="16.060982363826565"><ele>11.857142857142856</ele><time>2026-03-29T12:45:09.999Z</time></trkpt><trkpt lat="39.22279048378055" lon="16.060963921197107"><ele>11.714285714285714</ele><time>2026-03-29T12:45:10.999Z</time></trkpt><trkpt lat="39.22285395460261" lon="16.060940519946"><ele>11.571428571428571</ele><time>2026-03-29T12:45:11.999Z</time></trkpt><trkpt lat="39.22291854897498" lon="16.060920471038376"><ele>11.428571428571427</ele><time>2026-03-29T12:45:12.999Z</time></trkpt><trkpt lat="39.222982964336325" lon="16.060916557611684"><ele>11.285714285714285</ele><time>2026-03-29T12:45:13.999Z</time></trkpt><trkpt lat="39.223046764603055" lon="16.060927031270957"><ele>11.142857142857142</ele><time>2026-03-29T12:45:14.999Z</time></trkpt><trkpt lat="39.223108712625816" lon="16.060947675912367"><ele>11.0</ele><time>2026-03-29T12:45:15.999Z</time></trkpt><trkpt lat="39.22317014727262" lon="16.06096998384396"><ele>10.857142857142858</ele><time>2026-03-29T12:45:16.999Z</time></trkpt><trkpt lat="39.22323350812349" lon="16.06099422647182"><ele>10.714285714285714</ele><time>2026-03-29T12:45:17.999Z</time></trkpt><trkpt lat="39.22329918793002" lon="16.06102077241858"><ele>10.571428571428571</ele><time>2026-03-29T12:45:18.999Z</time></trkpt><trkpt lat="39.22336682384585" lon="16.06105030361373"><ele>10.428571428571429</ele><time>2026-03-29T12:45:19.999Z</time></trkpt><trkpt lat="39.223431726108295" lon="16.061088166110466"><ele>10.285714285714286</ele><time>2026-03-29T12:45:20.999Z</time></trkpt><trkpt lat="39.22349567845468" lon="16.06112715646564"><ele>10.142857142857142</ele><time>2026-03-29T12:45:21.999Z</time></trkpt><trkpt lat="39.22355865350243" lon="16.061166256056406"><ele>10.0</ele><time>2026-03-29T12:45:22.999Z</time></trkpt><trkpt lat="39.223622334882265" lon="16.06120626276193"><ele>10.0</ele><time>2026-03-29T12:45:23.999Z</time></trkpt><trkpt lat="39.22368519910748" lon="16.061249174323372"><ele>10.0</ele><time>2026-03-29T12:45:24.999Z</time></trkpt><trkpt lat="39.22374607621182" lon="16.061297191897506"><ele>10.0</ele><time>2026-03-29T12:45:25.999Z</time></trkpt><trkpt lat="39.22380861607013" lon="16.061341299938594"><ele>10.0</ele><time>2026-03-29T12:45:26.999Z</time></trkpt><trkpt lat="39.22387410733154" lon="16.06138156098092"><ele>10.0</ele><time>2026-03-29T12:45:27.999Z</time></trkpt><trkpt lat="39.223937494683014" lon="16.061421960060677"><ele>10.0</ele><time>2026-03-29T12:45:28.999Z</time></trkpt><trkpt lat="39.22399645591502" lon="16.061459775502662"><ele>10.0</ele><time>2026-03-29T12:45:29.999Z</time></trkpt><trkpt lat="39.2241154910133" lon="16.061535294126532"><ele>9.857142857142858</ele><time>2026-03-29T12:45:31.999Z</time></trkpt><trkpt lat="39.22417743300153" lon="16.061573585654255"><ele>9.714285714285715</ele><time>2026-03-29T12:45:32.999Z</time></trkpt><trkpt lat="39.22423785829363" lon="16.061610145676653"><ele>9.571428571428573</ele><time>2026-03-29T12:45:33.999Z</time></trkpt><trkpt lat="39.224297316240936" lon="16.061646308142233"><ele>9.428571428571429</ele><time>2026-03-29T12:45:34.999Z</time></trkpt><trkpt lat="39.22435470674053" lon="16.061682248899025"><ele>9.285714285714286</ele><time>2026-03-29T12:45:35.999Z</time></trkpt><trkpt lat="39.22441312458646" lon="16.06171956140788"><ele>9.142857142857144</ele><time>2026-03-29T12:45:36.999Z</time></trkpt><trkpt lat="39.22447332629998" lon="16.06176456078966"><ele>9.0</ele><time>2026-03-29T12:45:37.999Z</time></trkpt><trkpt lat="39.22452939166013" lon="16.06180676027237"><ele>9.0</ele><time>2026-03-29T12:45:38.999Z</time></trkpt><trkpt lat="39.22463385761733" lon="16.0618761821079"><ele>9.0</ele><time>2026-03-29T12:45:40.999Z</time></trkpt><trkpt lat="39.22469581275912" lon="16.061911439676184"><ele>9.0</ele><time>2026-03-29T12:45:42.999Z</time></trkpt><trkpt lat="39.22475345384718" lon="16.061774055859857"><ele>9.0</ele><time>2026-03-29T12:45:46.999Z</time></trkpt><trkpt lat="39.22474450713947" lon="16.06168229965765"><ele>9.0</ele><time>2026-03-29T12:45:47.999Z</time></trkpt><trkpt lat="39.224741838394316" lon="16.061592645054308"><ele>9.0</ele><time>2026-03-29T12:45:48.999Z</time></trkpt><trkpt lat="39.22473954692184" lon="16.06150534880521"><ele>9.000000000000002</ele><time>2026-03-29T12:45:49.999Z</time></trkpt><trkpt lat="39.22473704524733" lon="16.061419677371173"><ele>9.0</ele><time>2026-03-29T12:45:50.999Z</time></trkpt><trkpt lat="39.22473390858727" lon="16.06133761332138"><ele>9.0</ele><time>2026-03-29T12:45:51.999Z</time></trkpt><trkpt lat="39.22473094278214" lon="16.06125457805284"><ele>9.0</ele><time>2026-03-29T12:45:52.999Z</time></trkpt><trkpt lat="39.22472767215787" lon="16.061170628956575"><ele>9.0</ele><time>2026-03-29T12:45:53.999Z</time></trkpt><trkpt lat="39.2247240538571" lon="16.06108470263935"><ele>9.000000000000002</ele><time>2026-03-29T12:45:54.999Z</time></trkpt><trkpt lat="39.22471894311036" lon="16.061002623770097"><ele>9.0</ele><time>2026-03-29T12:45:55.999Z</time></trkpt><trkpt lat="39.224709368305525" lon="16.06085860787466"><ele>9.0</ele><time>2026-03-29T12:45:57.999Z</time></trkpt><trkpt lat="39.22476471246186" lon="16.060762507394656"><ele>9.0</ele><time>2026-03-29T12:45:59.999Z</time></trkpt><trkpt lat="39.224876494074735" lon="16.060750616324583"><ele>9.0</ele><time>2026-03-29T12:46:01.999Z</time></trkpt><trkpt lat="39.22500088113508" lon="16.060766032192763"><ele>9.0</ele><time>2026-03-29T12:46:03.999Z</time></trkpt><trkpt lat="39.22506393522566" lon="16.060762639936932"><ele>9.0</ele><time>2026-03-29T12:46:04.999Z</time></trkpt><trkpt lat="39.22512809356769" lon="16.060742137662764"><ele>8.714285714285715</ele><time>2026-03-29T12:46:05.999Z</time></trkpt><trkpt lat="39.22519604212721" lon="16.06073944162537"><ele>8.428571428571429</ele><time>2026-03-29T12:46:06.999Z</time></trkpt><trkpt lat="39.225264534095224" lon="16.06073752031933"><ele>8.142857142857142</ele><time>2026-03-29T12:46:07.999Z</time></trkpt><trkpt lat="39.22533427822279" lon="16.060735220229812"><ele>7.857142857142858</ele><time>2026-03-29T12:46:08.999Z</time></trkpt><trkpt lat="39.22540493401406" lon="16.06073144138627"><ele>7.571428571428571</ele><time>2026-03-29T12:46:09.999Z</time></trkpt><trkpt lat="39.22547439062946" lon="16.060726863656903"><ele>7.285714285714286</ele><time>2026-03-29T12:46:10.999Z</time></trkpt><trkpt lat="39.22554419853954" lon="16.06072271718784"><ele>7.0</ele><time>2026-03-29T12:46:11.999Z</time></trkpt><trkpt lat="39.225616897693115" lon="16.0607180416883"><ele>6.833333333333334</ele><time>2026-03-29T12:46:12.999Z</time></trkpt><trkpt lat="39.225690584463145" lon="16.060714047055505"><ele>6.666666666666667</ele><time>2026-03-29T12:46:13.999Z</time></trkpt><trkpt lat="39.225766507319555" lon="16.060711059016832"><ele>6.5</ele><time>2026-03-29T12:46:14.999Z</time></trkpt><trkpt lat="39.225842719284785" lon="16.06070868676369"><ele>6.333333333333334</ele><time>2026-03-29T12:46:15.999Z</time></trkpt><trkpt lat="39.22591808928875" lon="16.06070777169434"><ele>6.166666666666667</ele><time>2026-03-29T12:46:16.999Z</time></trkpt><trkpt lat="39.2259924713373" lon="16.060707565885224"><ele>6.0</ele><time>2026-03-29T12:46:17.999Z</time></trkpt><trkpt lat="39.22606764906811" lon="16.060707045111513"><ele>6.0</ele><time>2026-03-29T12:46:18.999Z</time></trkpt><trkpt lat="39.22614140166603" lon="16.060704934398103"><ele>6.0</ele><time>2026-03-29T12:46:19.999Z</time></trkpt><trkpt lat="39.22621080655731" lon="16.060702516338363"><ele>6.0</ele><time>2026-03-29T12:46:20.999Z</time></trkpt><trkpt lat="39.22632019979539" lon="16.06069142698437"><ele>6.0</ele><time>2026-03-29T12:46:22.999Z</time></trkpt><trkpt lat="39.226401612682416" lon="16.06068310146412"><ele>6.0</ele><time>2026-03-29T12:46:24.999Z</time></trkpt><trkpt lat="39.22647350786456" lon="16.060675074851865"><ele>6.0</ele><time>2026-03-29T12:46:26.999Z</time></trkpt><trkpt lat="39.22654010002343" lon="16.06068587284665"><ele>6.199999999999999</ele><time>2026-03-29T12:46:28.999Z</time></trkpt><trkpt lat="39.22663214544549" lon="16.060694812210244"><ele>6.3999999999999995</ele><time>2026-03-29T12:46:30.999Z</time></trkpt><trkpt lat="39.22674772769181" lon="16.060684137457564"><ele>6.6</ele><time>2026-03-29T12:46:32.999Z</time></trkpt><trkpt lat="39.226811350529736" lon="16.060676832771403"><ele>6.8</ele><time>2026-03-29T12:46:33.999Z</time></trkpt><trkpt lat="39.226935232456604" lon="16.060664032280165"><ele>7.0</ele><time>2026-03-29T12:46:35.999Z</time></trkpt><trkpt lat="39.22704930041158" lon="16.060651984247144"><ele>7.0</ele><time>2026-03-29T12:46:37.999Z</time></trkpt><trkpt lat="39.227158737067285" lon="16.06064030795581"><ele>6.999999999999999</ele><time>2026-03-29T12:46:39.999Z</time></trkpt><trkpt lat="39.227267332286765" lon="16.060638987675627"><ele>6.999999999999999</ele><time>2026-03-29T12:46:41.999Z</time></trkpt><trkpt lat="39.22736600326136" lon="16.060637416032677"><ele>7.0</ele><time>2026-03-29T12:46:43.999Z</time></trkpt><trkpt lat="39.22744370046848" lon="16.060634514424024"><ele>7.0</ele><time>2026-03-29T12:46:45.999Z</time></trkpt><trkpt lat="39.22751391124676" lon="16.0606307026934"><ele>6.833333333333334</ele><time>2026-03-29T12:46:47.999Z</time></trkpt><trkpt lat="39.227605006872984" lon="16.06063689983217"><ele>6.666666666666667</ele><time>2026-03-29T12:46:55.999Z</time></trkpt><trkpt lat="39.227695896705534" lon="16.06063329055947"><ele>6.5</ele><time>2026-03-29T12:46:57.999Z</time></trkpt><trkpt lat="39.22778732109034" lon="16.060629612961048"><ele>6.333333333333334</ele><time>2026-03-29T12:46:59.999Z</time></trkpt><trkpt lat="39.22785522021573" lon="16.06062688168059"><ele>6.166666666666667</ele><time>2026-03-29T12:47:01.999Z</time></trkpt><trkpt lat="39.22791960039307" lon="16.06062417314206"><ele>6.0</ele><time>2026-03-29T12:47:05.999Z</time></trkpt><trkpt lat="39.227994953839094" lon="16.060620449048407"><ele>5.999999999999999</ele><time>2026-03-29T12:47:08.999Z</time></trkpt><trkpt lat="39.22808485339948" lon="16.060604204704497"><ele>6.0</ele><time>2026-03-29T12:47:11.999Z</time></trkpt><trkpt lat="39.228152385335726" lon="16.060601740025366"><ele>6.0</ele><time>2026-03-29T12:47:15.999Z</time></trkpt><trkpt lat="39.22821958785164" lon="16.06060226225488"><ele>6.0</ele><time>2026-03-29T12:47:22.999Z</time></trkpt><trkpt lat="39.22829254576214" lon="16.060592061715766"><ele>6.0</ele><time>2026-03-29T12:47:25.999Z</time></trkpt><trkpt lat="39.22836355636449" lon="16.06059375095482"><ele>5.999999999999999</ele><time>2026-03-29T12:47:27.999Z</time></trkpt><trkpt lat="39.22843899549671" lon="16.060594269552677"><ele>6.0</ele><time>2026-03-29T12:47:29.999Z</time></trkpt><trkpt lat="39.22850327833875" lon="16.06057931455991"><ele>6.166666666666667</ele><time>2026-03-29T12:47:31.999Z</time></trkpt><trkpt lat="39.22859239859177" lon="16.060570002736387"><ele>6.333333333333334</ele><time>2026-03-29T12:47:34.999Z</time></trkpt><trkpt lat="39.228655976817066" lon="16.06056060572051"><ele>6.5</ele><time>2026-03-29T12:47:36.999Z</time></trkpt><trkpt lat="39.228741726880365" lon="16.06055743115474"><ele>6.666666666666667</ele><time>2026-03-29T12:47:38.999Z</time></trkpt><trkpt lat="39.22881974898061" lon="16.060552579328178"><ele>6.833333333333334</ele><time>2026-03-29T12:47:40.999Z</time></trkpt><trkpt lat="39.22890786899119" lon="16.060551305575252"><ele>7.0</ele><time>2026-03-29T12:47:42.999Z</time></trkpt><trkpt lat="39.22898733371736" lon="16.06054692669955"><ele>7.000000000000001</ele><time>2026-03-29T12:47:44.999Z</time></trkpt><trkpt lat="39.22905914610408" lon="16.060539855865972"><ele>7.0</ele><time>2026-03-29T12:47:46.999Z</time></trkpt><trkpt lat="39.22912639515895" lon="16.060532953814594"><ele>7.0</ele><time>2026-03-29T12:47:48.999Z</time></trkpt><trkpt lat="39.22920326539693" lon="16.06052185074356"><ele>7.0</ele><time>2026-03-29T12:47:50.999Z</time></trkpt><trkpt lat="39.229286029364275" lon="16.060516722599132"><ele>7.000000000000001</ele><time>2026-03-29T12:47:52.999Z</time></trkpt><trkpt lat="39.22937177381421" lon="16.060511532403133"><ele>7.0</ele><time>2026-03-29T12:47:54.999Z</time></trkpt><trkpt lat="39.22946412839579" lon="16.060504269377912"><ele>7.000000000000001</ele><time>2026-03-29T12:47:56.999Z</time></trkpt><trkpt lat="39.22954427280807" lon="16.060496258827357"><ele>7.0</ele><time>2026-03-29T12:47:58.999Z</time></trkpt><trkpt lat="39.22961578142851" lon="16.060497089399973"><ele>7.0</ele><time>2026-03-29T12:48:00.999Z</time></trkpt><trkpt lat="39.2296865914132" lon="16.06049231395196"><ele>7.0</ele><time>2026-03-29T12:48:02.999Z</time></trkpt><trkpt lat="39.229757951036426" lon="16.06048708522931"><ele>7.000000000000001</ele><time>2026-03-29T12:48:04.999Z</time></trkpt><trkpt lat="39.22982093157374" lon="16.060482739847814"><ele>7.0</ele><time>2026-03-29T12:48:06.999Z</time></trkpt><trkpt lat="39.229916531442825" lon="16.060470466900277"><ele>7.0</ele><time>2026-03-29T12:48:09.999Z</time></trkpt><trkpt lat="39.22998129404078" lon="16.06045106593234"><ele>7.0</ele><time>2026-03-29T12:48:11.999Z</time></trkpt><trkpt lat="39.23004494406234" lon="16.060433645286167"><ele>7.0</ele><time>2026-03-29T12:48:13.999Z</time></trkpt><trkpt lat="39.23010947480788" lon="16.06042653909455"><ele>7.0</ele><time>2026-03-29T12:48:15.999Z</time></trkpt><trkpt lat="39.23019749043181" lon="16.060424458178122"><ele>7.0</ele><time>2026-03-29T12:48:18.999Z</time></trkpt><trkpt lat="39.23026170807041" lon="16.060462881129858"><ele>7.0</ele><time>2026-03-29T12:48:26.999Z</time></trkpt><trkpt lat="39.2303323249949" lon="16.06048986621669"><ele>7.0</ele><time>2026-03-29T12:48:29.999Z</time></trkpt><trkpt lat="39.230393658225246" lon="16.06051336529779"><ele>7.0</ele><time>2026-03-29T12:48:31.999Z</time></trkpt><trkpt lat="39.23046242298673" lon="16.060514627548557"><ele>6.999999999999999</ele><time>2026-03-29T12:48:33.999Z</time></trkpt><trkpt lat="39.2305416043403" lon="16.060515807109006"><ele>6.999999999999999</ele><time>2026-03-29T12:48:35.999Z</time></trkpt><trkpt lat="39.23061860144945" lon="16.06045226128762"><ele>7.0</ele><time>2026-03-29T12:48:37.999Z</time></trkpt><trkpt lat="39.23065091006909" lon="16.060327087445895"><ele>7.0</ele><time>2026-03-29T12:48:39.999Z</time></trkpt><trkpt lat="39.2308442221385" lon="16.060220086702973"><ele>6.8</ele><time>2026-03-29T12:48:49.999Z</time></trkpt><trkpt lat="39.23091760528781" lon="16.060209873640325"><ele>6.6</ele><time>2026-03-29T12:48:50.999Z</time></trkpt><trkpt lat="39.23100464035903" lon="16.060199269270502"><ele>6.3999999999999995</ele><time>2026-03-29T12:48:51.999Z</time></trkpt><trkpt lat="39.231097079146075" lon="16.060196294241532"><ele>6.199999999999999</ele><time>2026-03-29T12:48:52.999Z</time></trkpt><trkpt lat="39.23119775192606" lon="16.060192035188592"><ele>6.0</ele><time>2026-03-29T12:48:53.999Z</time></trkpt><trkpt lat="39.231305126907166" lon="16.06018855792681"><ele>6.0</ele><time>2026-03-29T12:48:54.999Z</time></trkpt><trkpt lat="39.2314149101817" lon="16.06018437778422"><ele>6.0</ele><time>2026-03-29T12:48:55.999Z</time></trkpt><trkpt lat="39.23152904132683" lon="16.06017809655588"><ele>6.0</ele><time>2026-03-29T12:48:56.999Z</time></trkpt><trkpt lat="39.23164834504878" lon="16.0601714273695"><ele>6.0</ele><time>2026-03-29T12:48:57.999Z</time></trkpt><trkpt lat="39.23177039819258" lon="16.060164314051786"><ele>6.25</ele><time>2026-03-29T12:48:58.999Z</time></trkpt><trkpt lat="39.23189446869521" lon="16.060158121737125"><ele>6.5</ele><time>2026-03-29T12:48:59.999Z</time></trkpt><trkpt lat="39.2320207733542" lon="16.06015105405703"><ele>6.75</ele><time>2026-03-29T12:49:00.999Z</time></trkpt><trkpt lat="39.23215008439345" lon="16.0601458190006"><ele>7.0</ele><time>2026-03-29T12:49:01.999Z</time></trkpt><trkpt lat="39.23228052584369" lon="16.06013924293648"><ele>6.75</ele><time>2026-03-29T12:49:02.999Z</time></trkpt><trkpt lat="39.23241390958191" lon="16.060131608907803"><ele>6.5</ele><time>2026-03-29T12:49:03.999Z</time></trkpt><trkpt lat="39.23254905928222" lon="16.06012373204851"><ele>6.25</ele><time>2026-03-29T12:49:04.999Z</time></trkpt><trkpt lat="39.23268604935755" lon="16.060115498376497"><ele>6.0</ele><time>2026-03-29T12:49:05.999Z</time></trkpt><trkpt lat="39.23282246020704" lon="16.060103743843115"><ele>6.0</ele><time>2026-03-29T12:49:06.999Z</time></trkpt><trkpt lat="39.23295926082963" lon="16.060090089502935"><ele>6.0</ele><time>2026-03-29T12:49:07.999Z</time></trkpt><trkpt lat="39.23309712565524" lon="16.06007465235767"><ele>6.0</ele><time>2026-03-29T12:49:08.999Z</time></trkpt><trkpt lat="39.233233004432115" lon="16.060056986174857"><ele>6.0</ele><time>2026-03-29T12:49:09.999Z</time></trkpt><trkpt lat="39.233370126516974" lon="16.060041395226023"><ele>6.0</ele><time>2026-03-29T12:49:10.999Z</time></trkpt><trkpt lat="39.23350628862038" lon="16.060022671365488"><ele>6.0</ele><time>2026-03-29T12:49:11.999Z</time></trkpt><trkpt lat="39.23364124881774" lon="16.060003894006705"><ele>6.0</ele><time>2026-03-29T12:49:12.999Z</time></trkpt><trkpt lat="39.23378102011597" lon="16.059979937074065"><ele>6.0</ele><time>2026-03-29T12:49:13.999Z</time></trkpt><trkpt lat="39.23391795946581" lon="16.05995693809915"><ele>5.5</ele><time>2026-03-29T12:49:14.999Z</time></trkpt><trkpt lat="39.23405405176924" lon="16.05993486399925"><ele>5.0</ele><time>2026-03-29T12:49:15.999Z</time></trkpt><trkpt lat="39.234189564264696" lon="16.059909761036185"><ele>4.5</ele><time>2026-03-29T12:49:16.999Z</time></trkpt><trkpt lat="39.23432206895918" lon="16.059885030124825"><ele>4.0</ele><time>2026-03-29T12:49:17.999Z</time></trkpt><trkpt lat="39.2344529926421" lon="16.059859603262648"><ele>4.0</ele><time>2026-03-29T12:49:18.999Z</time></trkpt><trkpt lat="39.23458803166492" lon="16.059841100919098"><ele>4.0</ele><time>2026-03-29T12:49:19.999Z</time></trkpt><trkpt lat="39.23472448433769" lon="16.0598245152313"><ele>4.0</ele><time>2026-03-29T12:49:20.999Z</time></trkpt><trkpt lat="39.23486261831458" lon="16.059810179852896"><ele>4.0</ele><time>2026-03-29T12:49:21.998Z</time></trkpt><trkpt lat="39.23499945100135" lon="16.059797629093335"><ele>4.0</ele><time>2026-03-29T12:49:22.998Z</time></trkpt><trkpt lat="39.235135839222494" lon="16.059786203362982"><ele>4.0</ele><time>2026-03-29T12:49:23.998Z</time></trkpt><trkpt lat="39.23527198766543" lon="16.05977622467974"><ele>4.0</ele><time>2026-03-29T12:49:24.998Z</time></trkpt><trkpt lat="39.23540947373531" lon="16.05976903754904"><ele>4.0</ele><time>2026-03-29T12:49:25.998Z</time></trkpt><trkpt lat="39.23554821945164" lon="16.059761201001745"><ele>4.0</ele><time>2026-03-29T12:49:26.998Z</time></trkpt><trkpt lat="39.23568855409794" lon="16.059756348437418"><ele>4.0</ele><time>2026-03-29T12:49:27.998Z</time></trkpt><trkpt lat="39.23583067209253" lon="16.059752015737658"><ele>4.0</ele><time>2026-03-29T12:49:28.998Z</time></trkpt><trkpt lat="39.235975193791525" lon="16.059747824868875"><ele>4.0</ele><time>2026-03-29T12:49:29.998Z</time></trkpt><trkpt lat="39.23612090197558" lon="16.05974689715584"><ele>4.0</ele><time>2026-03-29T12:49:30.998Z</time></trkpt><trkpt lat="39.236266012423386" lon="16.059746293544226"><ele>4.0</ele><time>2026-03-29T12:49:31.998Z</time></trkpt><trkpt lat="39.23640830826854" lon="16.05974727970206"><ele>4.0</ele><time>2026-03-29T12:49:32.998Z</time></trkpt><trkpt lat="39.23654859596743" lon="16.059747145342868"><ele>4.0</ele><time>2026-03-29T12:49:33.998Z</time></trkpt><trkpt lat="39.23668892278014" lon="16.05974455944668"><ele>4.25</ele><time>2026-03-29T12:49:34.998Z</time></trkpt><trkpt lat="39.23683341409673" lon="16.059740716065317"><ele>4.5</ele><time>2026-03-29T12:49:35.998Z</time></trkpt><trkpt lat="39.23697477291741" lon="16.05973661264306"><ele>4.75</ele><time>2026-03-29T12:49:36.998Z</time></trkpt><trkpt lat="39.23711758852234" lon="16.05973240530811"><ele>5.0</ele><time>2026-03-29T12:49:37.998Z</time></trkpt><trkpt lat="39.23725828508775" lon="16.059726716498716"><ele>5.0</ele><time>2026-03-29T12:49:38.998Z</time></trkpt><trkpt lat="39.23740058278364" lon="16.059721410414824"><ele>5.0</ele><time>2026-03-29T12:49:39.998Z</time></trkpt><trkpt lat="39.237546711553435" lon="16.059717466257254"><ele>5.0</ele><time>2026-03-29T12:49:40.998Z</time></trkpt><trkpt lat="39.23769627846509" lon="16.059716843292705"><ele>5.0</ele><time>2026-03-29T12:49:41.998Z</time></trkpt><trkpt lat="39.23784893844663" lon="16.059716469779428"><ele>5.0</ele><time>2026-03-29T12:49:42.998Z</time></trkpt><trkpt lat="39.23800490211674" lon="16.059720161041632"><ele>5.0</ele><time>2026-03-29T12:49:43.998Z</time></trkpt><trkpt lat="39.23816147752325" lon="16.059731466229227"><ele>5.0</ele><time>2026-03-29T12:49:44.998Z</time></trkpt><trkpt lat="39.23831827737223" lon="16.059750128612514"><ele>5.0</ele><time>2026-03-29T12:49:45.998Z</time></trkpt><trkpt lat="39.238473233518405" lon="16.059778594406094"><ele>5.0</ele><time>2026-03-29T12:49:46.998Z</time></trkpt><trkpt lat="39.23863029528516" lon="16.05981302259447"><ele>5.0</ele><time>2026-03-29T12:49:47.998Z</time></trkpt><trkpt lat="39.23878667559693" lon="16.05985396335631"><ele>5.0</ele><time>2026-03-29T12:49:48.998Z</time></trkpt><trkpt lat="39.238945955287456" lon="16.059901990079325"><ele>5.0</ele><time>2026-03-29T12:49:49.998Z</time></trkpt><trkpt lat="39.23910083229072" lon="16.059958025442477"><ele>5.0</ele><time>2026-03-29T12:49:50.998Z</time></trkpt><trkpt lat="39.23925114131704" lon="16.060023280687357"><ele>5.333333333333334</ele><time>2026-03-29T12:49:51.998Z</time></trkpt><trkpt lat="39.239402468073365" lon="16.060097212639647"><ele>5.666666666666667</ele><time>2026-03-29T12:49:52.998Z</time></trkpt><trkpt lat="39.239551998498904" lon="16.060176330472025"><ele>6.0</ele><time>2026-03-29T12:49:53.998Z</time></trkpt><trkpt lat="39.23969571978793" lon="16.06025739113939"><ele>7.0</ele><time>2026-03-29T12:49:54.998Z</time></trkpt><trkpt lat="39.23984053666038" lon="16.060344414175084"><ele>8.0</ele><time>2026-03-29T12:49:55.998Z</time></trkpt><trkpt lat="39.23998460662421" lon="16.0604426229565"><ele>9.0</ele><time>2026-03-29T12:49:56.998Z</time></trkpt><trkpt lat="39.24012044695928" lon="16.060543085422538"><ele>9.0</ele><time>2026-03-29T12:49:57.998Z</time></trkpt><trkpt lat="39.24025163694452" lon="16.06064752798098"><ele>9.0</ele><time>2026-03-29T12:49:58.998Z</time></trkpt><trkpt lat="39.24038297841788" lon="16.06075730287292"><ele>9.0</ele><time>2026-03-29T12:49:59.998Z</time></trkpt><trkpt lat="39.24051548212025" lon="16.06087124710238"><ele>10.333333333333332</ele><time>2026-03-29T12:50:00.998Z</time></trkpt><trkpt lat="39.240654378488465" lon="16.060989951215717"><ele>11.666666666666666</ele><time>2026-03-29T12:50:01.998Z</time></trkpt><trkpt lat="39.24079533016569" lon="16.06111121999102"><ele>13.0</ele><time>2026-03-29T12:50:02.998Z</time></trkpt><trkpt lat="39.24093489536553" lon="16.06123161556763"><ele>13.0</ele><time>2026-03-29T12:50:03.998Z</time></trkpt><trkpt lat="39.24107143809626" lon="16.06134514714967"><ele>13.0</ele><time>2026-03-29T12:50:04.998Z</time></trkpt><trkpt lat="39.241206377743545" lon="16.061463724112535"><ele>13.0</ele><time>2026-03-29T12:50:05.999Z</time></trkpt><trkpt lat="39.24134172029289" lon="16.061578872660164"><ele>12.666666666666666</ele><time>2026-03-29T12:50:06.999Z</time></trkpt><trkpt lat="39.24147699880229" lon="16.06169418625212"><ele>12.333333333333332</ele><time>2026-03-29T12:50:07.999Z</time></trkpt><trkpt lat="39.2416097784606" lon="16.061807450168658"><ele>12.0</ele><time>2026-03-29T12:50:08.999Z</time></trkpt><trkpt lat="39.24174204114432" lon="16.06192037645247"><ele>12.0</ele><time>2026-03-29T12:50:09.999Z</time></trkpt><trkpt lat="39.24187689871841" lon="16.06203610480771"><ele>12.0</ele><time>2026-03-29T12:50:10.999Z</time></trkpt><trkpt lat="39.242010998711265" lon="16.06216115953307"><ele>12.0</ele><time>2026-03-29T12:50:11.999Z</time></trkpt><trkpt lat="39.24215201635371" lon="16.062271719861585"><ele>12.0</ele><time>2026-03-29T12:50:12.999Z</time></trkpt><trkpt lat="39.242294172443756" lon="16.062380504609084"><ele>12.0</ele><time>2026-03-29T12:50:13.999Z</time></trkpt><trkpt lat="39.242451939627124" lon="16.06248508489879"><ele>12.0</ele><time>2026-03-29T12:50:14.999Z</time></trkpt><trkpt lat="39.24261012904658" lon="16.06257817126677"><ele>13.333333333333332</ele><time>2026-03-29T12:50:15.999Z</time></trkpt><trkpt lat="39.242772568682604" lon="16.062658161263514"><ele>14.666666666666666</ele><time>2026-03-29T12:50:16.999Z</time></trkpt><trkpt lat="39.24294210940142" lon="16.062722064510538"><ele>16.0</ele><time>2026-03-29T12:50:17.999Z</time></trkpt><trkpt lat="39.24311353582465" lon="16.06277106454194"><ele>15.0</ele><time>2026-03-29T12:50:18.999Z</time></trkpt><trkpt lat="39.2432900215407" lon="16.062802110180776"><ele>14.0</ele><time>2026-03-29T12:50:19.999Z</time></trkpt><trkpt lat="39.24346750875143" lon="16.06281694230486"><ele>13.0</ele><time>2026-03-29T12:50:20.999Z</time></trkpt><trkpt lat="39.24364551769819" lon="16.062814900658353"><ele>13.0</ele><time>2026-03-29T12:50:21.999Z</time></trkpt><trkpt lat="39.243819842872924" lon="16.062808829388256"><ele>13.0</ele><time>2026-03-29T12:50:22.999Z</time></trkpt><trkpt lat="39.24399524656679" lon="16.06280100400897"><ele>13.0</ele><time>2026-03-29T12:50:23.999Z</time></trkpt><trkpt lat="39.24416720794272" lon="16.06279367099426"><ele>13.333333333333332</ele><time>2026-03-29T12:50:24.999Z</time></trkpt><trkpt lat="39.244333159209184" lon="16.06279173883297"><ele>13.666666666666668</ele><time>2026-03-29T12:50:25.999Z</time></trkpt><trkpt lat="39.24448813171499" lon="16.062793060400985"><ele>14.0</ele><time>2026-03-29T12:50:26.999Z</time></trkpt><trkpt lat="39.24461934613411" lon="16.06279003640019"><ele>14.000000000000002</ele><time>2026-03-29T12:50:27.999Z</time></trkpt><trkpt lat="39.24472834789658" lon="16.062789101210914"><ele>14.0</ele><time>2026-03-29T12:50:28.999Z</time></trkpt><trkpt lat="39.24482023613084" lon="16.06278947627026"><ele>14.0</ele><time>2026-03-29T12:50:29.999Z</time></trkpt><trkpt lat="39.244897813775694" lon="16.06280613852349"><ele>14.0</ele><time>2026-03-29T12:50:30.999Z</time></trkpt><trkpt lat="39.244963393399274" lon="16.0628057532826"><ele>14.000000000000002</ele><time>2026-03-29T12:50:31.999Z</time></trkpt><trkpt lat="39.24504754372938" lon="16.06279035574478"><ele>14.0</ele><time>2026-03-29T12:50:33.999Z</time></trkpt><trkpt lat="39.24508434592395" lon="16.06251191241772"><ele>12.399999999999999</ele><time>2026-03-29T12:50:35.999Z</time></trkpt><trkpt lat="39.24518506181564" lon="16.06241298472644"><ele>10.799999999999999</ele><time>2026-03-29T12:50:37.999Z</time></trkpt><trkpt lat="39.24524598559024" lon="16.062280193120444"><ele>9.2</ele><time>2026-03-29T12:50:39.998Z</time></trkpt><trkpt lat="39.2453069819742" lon="16.062153657063455"><ele>7.6</ele><time>2026-03-29T12:50:41.998Z</time></trkpt><trkpt lat="39.24533391552393" lon="16.062053654423988"><ele>6.0</ele><time>2026-03-29T12:50:43.998Z</time></trkpt><trkpt lat="39.24535769523557" lon="16.06196280288427"><ele>6.0</ele><time>2026-03-29T12:50:45.998Z</time></trkpt><trkpt lat="39.24536243948708" lon="16.06188044308713"><ele>6.0</ele><time>2026-03-29T12:50:47.998Z</time></trkpt><trkpt lat="39.24539300657256" lon="16.06178834979022"><ele>6.0</ele><time>2026-03-29T12:50:50.998Z</time></trkpt><trkpt lat="39.245409309179" lon="16.061703638368744"><ele>6.0</ele><time>2026-03-29T12:51:06.998Z</time></trkpt><trkpt lat="39.245570520375495" lon="16.06174348600563"><ele>6.0</ele><time>2026-03-29T12:53:51.013Z</time></trkpt><trkpt lat="39.24546730175503" lon="16.061775885532484"><ele>6.0</ele><time>2026-03-29T12:54:03.013Z</time></trkpt><trkpt lat="39.24540189291903" lon="16.06197334757692"><ele>6.0</ele><time>2026-03-29T12:54:25.06Z</time></trkpt><trkpt lat="39.245453451668965" lon="16.061917654201405"><ele>6.0</ele><time>2026-03-29T12:55:11.018Z</time></trkpt><trkpt lat="39.24547582002362" lon="16.061789496101962"><ele>6.0</ele><time>2026-03-29T12:55:14.019Z</time></trkpt><trkpt lat="39.245415804824226" lon="16.061735501760577"><ele>6.0</ele><time>2026-03-29T12:56:18.999Z</time></trkpt><trkpt lat="39.24543560303813" lon="16.061653591141475"><ele>5.833333333333333</ele><time>2026-03-29T12:56:20.999Z</time></trkpt><trkpt lat="39.245461209381226" lon="16.061541150909697"><ele>5.666666666666667</ele><time>2026-03-29T12:56:22.999Z</time></trkpt><trkpt lat="39.245491537709604" lon="16.061422239759874"><ele>5.5</ele><time>2026-03-29T12:56:24.999Z</time></trkpt><trkpt lat="39.24552026393984" lon="16.061307419711934"><ele>5.333333333333334</ele><time>2026-03-29T12:56:26.999Z</time></trkpt><trkpt lat="39.24554902431132" lon="16.06122255558572"><ele>5.166666666666667</ele><time>2026-03-29T12:56:29.999Z</time></trkpt><trkpt lat="39.245582949564465" lon="16.061128018468352"><ele>5.0</ele><time>2026-03-29T12:56:33.999Z</time></trkpt><trkpt lat="39.245617192362054" lon="16.061045111416046"><ele>5.0</ele><time>2026-03-29T12:56:35.999Z</time></trkpt><trkpt lat="39.24560717635342" lon="16.060938411852035"><ele>5.0</ele><time>2026-03-29T12:56:38.999Z</time></trkpt><trkpt lat="39.24551991832531" lon="16.06091694987198"><ele>5.0</ele><time>2026-03-29T12:56:40.999Z</time></trkpt><trkpt lat="39.24544143126813" lon="16.060925265777918"><ele>5.0</ele><time>2026-03-29T12:56:41.999Z</time></trkpt><trkpt lat="39.24530863346849" lon="16.060933697830897"><ele>5.0</ele><time>2026-03-29T12:56:43.999Z</time></trkpt><trkpt lat="39.24523591042133" lon="16.060916600247953"><ele>5.0</ele><time>2026-03-29T12:56:44.999Z</time></trkpt><trkpt lat="39.24516556641385" lon="16.060921003632867"><ele>5.0</ele><time>2026-03-29T12:56:45.999Z</time></trkpt><trkpt lat="39.24509546015648" lon="16.060930057160018"><ele>5.0</ele><time>2026-03-29T12:56:46.999Z</time></trkpt><trkpt lat="39.245030187669784" lon="16.06093918818855"><ele>5.0</ele><time>2026-03-29T12:56:47.999Z</time></trkpt><trkpt lat="39.24496608724266" lon="16.060949608703893"><ele>5.0</ele><time>2026-03-29T12:56:48.999Z</time></trkpt><trkpt lat="39.24484276318189" lon="16.060974102334104"><ele>5.0</ele><time>2026-03-29T12:56:50.999Z</time></trkpt><trkpt lat="39.2447207505369" lon="16.060997495794354"><ele>5.166666666666667</ele><time>2026-03-29T12:56:52.999Z</time></trkpt><trkpt lat="39.244609580663486" lon="16.061018740847338"><ele>5.333333333333334</ele><time>2026-03-29T12:56:54.999Z</time></trkpt><trkpt lat="39.24454668879738" lon="16.061031003934485"><ele>5.5</ele><time>2026-03-29T12:56:55.999Z</time></trkpt><trkpt lat="39.24447965084914" lon="16.06104407543018"><ele>5.666666666666667</ele><time>2026-03-29T12:56:56.999Z</time></trkpt><trkpt lat="39.24441526812846" lon="16.06105262828622"><ele>5.833333333333333</ele><time>2026-03-29T12:56:57.999Z</time></trkpt><trkpt lat="39.24430063554677" lon="16.06106842464912"><ele>6.0</ele><time>2026-03-29T12:56:59.999Z</time></trkpt><trkpt lat="39.24419194199412" lon="16.061074086347784"><ele>6.0</ele><time>2026-03-29T12:57:01.999Z</time></trkpt><trkpt lat="39.244091076752866" lon="16.06107891782451"><ele>6.0</ele><time>2026-03-29T12:57:03.999Z</time></trkpt><trkpt lat="39.24400865796593" lon="16.06105356553512"><ele>6.0</ele><time>2026-03-29T12:57:05.999Z</time></trkpt><trkpt lat="39.24394082709959" lon="16.061068330324904"><ele>6.0</ele><time>2026-03-29T12:57:11.999Z</time></trkpt><trkpt lat="39.243936009143496" lon="16.061241053298208"><ele>6.0</ele><time>2026-03-29T12:57:16.999Z</time></trkpt><trkpt lat="39.243976328293954" lon="16.06135839596722"><ele>6.0</ele><time>2026-03-29T12:57:18.999Z</time></trkpt><trkpt lat="39.24401737640255" lon="16.061477732296567"><ele>6.0</ele><time>2026-03-29T12:57:20.999Z</time></trkpt><trkpt lat="39.244062822937416" lon="16.06159966906799"><ele>6.0</ele><time>2026-03-29T12:57:22.999Z</time></trkpt><trkpt lat="39.24409913237277" lon="16.061704202335886"><ele>6.0</ele><time>2026-03-29T12:57:24.999Z</time></trkpt><trkpt lat="39.24412042300148" lon="16.06182647799887"><ele>6.0</ele><time>2026-03-29T12:57:26.999Z</time></trkpt><trkpt lat="39.24416279125944" lon="16.06196340908437"><ele>6.4</ele><time>2026-03-29T12:57:29Z</time></trkpt><trkpt lat="39.24420327076248" lon="16.062078932347664"><ele>6.8</ele><time>2026-03-29T12:57:31Z</time></trkpt><trkpt lat="39.24424200466266" lon="16.06219189201185"><ele>7.200000000000001</ele><time>2026-03-29T12:57:33Z</time></trkpt><trkpt lat="39.24427535898011" lon="16.062294370212733"><ele>7.6000000000000005</ele><time>2026-03-29T12:57:35Z</time></trkpt><trkpt lat="39.244320341411324" lon="16.06237707551177"><ele>8.0</ele><time>2026-03-29T12:57:37Z</time></trkpt><trkpt lat="39.24441611006236" lon="16.062426797554398"><ele>8.0</ele><time>2026-03-29T12:57:39Z</time></trkpt><trkpt lat="39.244533986590426" lon="16.062445591661113"><ele>8.0</ele><time>2026-03-29T12:57:41Z</time></trkpt><trkpt lat="39.244599259027936" lon="16.062453917616992"><ele>8.0</ele><time>2026-03-29T12:57:42Z</time></trkpt><trkpt lat="39.24470622628509" lon="16.06246200977574"><ele>8.0</ele><time>2026-03-29T12:57:44Z</time></trkpt><trkpt lat="39.2447925371829" lon="16.062468855908914"><ele>8.0</ele><time>2026-03-29T12:57:46Z</time></trkpt><trkpt lat="39.24470355351687" lon="16.062546327571262"><ele>7.999999999999999</ele><time>2026-03-29T12:57:51Z</time></trkpt><trkpt lat="39.2445898382163" lon="16.062542456853592"><ele>8.0</ele><time>2026-03-29T12:57:53Z</time></trkpt><trkpt lat="39.24449045068049" lon="16.0625406256701"><ele>8.0</ele><time>2026-03-29T12:57:55Z</time></trkpt><trkpt lat="39.244424259289474" lon="16.062545232591646"><ele>8.0</ele><time>2026-03-29T12:57:58Z</time></trkpt><trkpt lat="39.244413616275764" lon="16.06245715707731"><ele>7.999999999999999</ele><time>2026-03-29T13:00:12Z</time></trkpt><trkpt lat="39.24450275845631" lon="16.06242912147723"><ele>8.0</ele><time>2026-03-29T13:00:14Z</time></trkpt><trkpt lat="39.24460444525933" lon="16.06244813367569"><ele>9.0</ele><time>2026-03-29T13:00:16Z</time></trkpt><trkpt lat="39.24470521500385" lon="16.062461422083217"><ele>10.0</ele><time>2026-03-29T13:00:18Z</time></trkpt><trkpt lat="39.24479375424974" lon="16.062471611483275"><ele>11.0</ele><time>2026-03-29T13:00:20Z</time></trkpt><trkpt lat="39.24486635194062" lon="16.062486155663255"><ele>12.0</ele><time>2026-03-29T13:00:22Z</time></trkpt><trkpt lat="39.244941122612346" lon="16.062515729837397"><ele>13.000000000000002</ele><time>2026-03-29T13:00:25Z</time></trkpt><trkpt lat="39.24494874838119" lon="16.062624900971024"><ele>14.0</ele><time>2026-03-29T13:00:27Z</time></trkpt><trkpt lat="39.24495032681442" lon="16.06272207262226"><ele>14.5</ele><time>2026-03-29T13:00:30Z</time></trkpt><trkpt lat="39.24512658551802" lon="16.06280349422671"><ele>15.0</ele><time>2026-03-29T13:00:45Z</time></trkpt><trkpt lat="39.2452234858763" lon="16.06280216137633"><ele>15.5</ele><time>2026-03-29T13:00:46Z</time></trkpt><trkpt lat="39.24532500042985" lon="16.062780863086463"><ele>16.0</ele><time>2026-03-29T13:00:47Z</time></trkpt><trkpt lat="39.245442886887425" lon="16.062783118355494"><ele>16.0</ele><time>2026-03-29T13:00:48Z</time></trkpt><trkpt lat="39.245572149289266" lon="16.06278194009462"><ele>16.0</ele><time>2026-03-29T13:00:49Z</time></trkpt><trkpt lat="39.245704322929136" lon="16.0627776948662"><ele>16.0</ele><time>2026-03-29T13:00:50Z</time></trkpt><trkpt lat="39.24584018567739" lon="16.062767151696463"><ele>16.0</ele><time>2026-03-29T13:00:51Z</time></trkpt><trkpt lat="39.24597962361169" lon="16.062754516908686"><ele>16.5</ele><time>2026-03-29T13:00:52Z</time></trkpt><trkpt lat="39.24612195141521" lon="16.06273162872754"><ele>17.0</ele><time>2026-03-29T13:00:53Z</time></trkpt><trkpt lat="39.24626542074435" lon="16.062705405533556"><ele>17.5</ele><time>2026-03-29T13:00:54Z</time></trkpt><trkpt lat="39.246407949155454" lon="16.062670919190634"><ele>18.0</ele><time>2026-03-29T13:00:55Z</time></trkpt><trkpt lat="39.24655071235403" lon="16.062629170319457"><ele>18.0</ele><time>2026-03-29T13:00:56Z</time></trkpt><trkpt lat="39.24669311879479" lon="16.062581595913137"><ele>18.0</ele><time>2026-03-29T13:00:57Z</time></trkpt><trkpt lat="39.24683167001764" lon="16.062524230331555"><ele>18.0</ele><time>2026-03-29T13:00:58Z</time></trkpt><trkpt lat="39.24697051944311" lon="16.06246381252892"><ele>18.0</ele><time>2026-03-29T13:00:59Z</time></trkpt><trkpt lat="39.24710797019799" lon="16.06240015087521"><ele>16.5</ele><time>2026-03-29T13:01:00Z</time></trkpt><trkpt lat="39.24724371802426" lon="16.06233195493465"><ele>15.0</ele><time>2026-03-29T13:01:01Z</time></trkpt><trkpt lat="39.24737808846564" lon="16.062260378461925"><ele>13.5</ele><time>2026-03-29T13:01:02Z</time></trkpt><trkpt lat="39.24751160019726" lon="16.06218442167942"><ele>12.0</ele><time>2026-03-29T13:01:03Z</time></trkpt><trkpt lat="39.247645666145594" lon="16.062106973074556"><ele>12.0</ele><time>2026-03-29T13:01:04Z</time></trkpt><trkpt lat="39.24778097528687" lon="16.062029458924457"><ele>12.0</ele><time>2026-03-29T13:01:05Z</time></trkpt><trkpt lat="39.247915852664974" lon="16.061953446688097"><ele>12.0</ele><time>2026-03-29T13:01:06Z</time></trkpt><trkpt lat="39.248052949996804" lon="16.0618802245382"><ele>12.0</ele><time>2026-03-29T13:01:07Z</time></trkpt><trkpt lat="39.24818847157481" lon="16.061805750266483"><ele>12.0</ele><time>2026-03-29T13:01:08Z</time></trkpt><trkpt lat="39.24832642392917" lon="16.061729225983424"><ele>12.0</ele><time>2026-03-29T13:01:09Z</time></trkpt><trkpt lat="39.248465812035455" lon="16.06165109129705"><ele>12.0</ele><time>2026-03-29T13:01:10Z</time></trkpt><trkpt lat="39.248603245683086" lon="16.061574125567738"><ele>12.0</ele><time>2026-03-29T13:01:11Z</time></trkpt><trkpt lat="39.24874574318279" lon="16.061493209860107"><ele>12.0</ele><time>2026-03-29T13:01:12Z</time></trkpt><trkpt lat="39.24886929112935" lon="16.061414178854868"><ele>12.0</ele><time>2026-03-29T13:01:13Z</time></trkpt><trkpt lat="39.24900915950669" lon="16.061354662822996"><ele>12.0</ele><time>2026-03-29T13:01:14Z</time></trkpt><trkpt lat="39.249150370519445" lon="16.061278299641206"><ele>11.0</ele><time>2026-03-29T13:01:15Z</time></trkpt><trkpt lat="39.24929328537992" lon="16.061198406382882"><ele>10.0</ele><time>2026-03-29T13:01:16Z</time></trkpt><trkpt lat="39.249439390392205" lon="16.061117568436224"><ele>9.0</ele><time>2026-03-29T13:01:17Z</time></trkpt><trkpt lat="39.249591555100594" lon="16.061039182506885"><ele>9.0</ele><time>2026-03-29T13:01:18Z</time></trkpt><trkpt lat="39.24974379596696" lon="16.060955094913826"><ele>9.0</ele><time>2026-03-29T13:01:19Z</time></trkpt><trkpt lat="39.24989641450795" lon="16.060871453495352"><ele>9.0</ele><time>2026-03-29T13:01:20Z</time></trkpt><trkpt lat="39.25005132124683" lon="16.060790583345455"><ele>7.333333333333333</ele><time>2026-03-29T13:01:21Z</time></trkpt><trkpt lat="39.250206314617515" lon="16.060706402586135"><ele>5.666666666666666</ele><time>2026-03-29T13:01:22Z</time></trkpt><trkpt lat="39.250362881127586" lon="16.060621884968345"><ele>4.0</ele><time>2026-03-29T13:01:23Z</time></trkpt><trkpt lat="39.25052316137343" lon="16.060538025762636"><ele>4.333333333333333</ele><time>2026-03-29T13:01:24Z</time></trkpt><trkpt lat="39.25068502807213" lon="16.060458587313473"><ele>4.666666666666667</ele><time>2026-03-29T13:01:25Z</time></trkpt><trkpt lat="39.25084781180453" lon="16.060390508644975"><ele>5.0</ele><time>2026-03-29T13:01:26Z</time></trkpt><trkpt lat="39.25101114251786" lon="16.060329412648002"><ele>5.0</ele><time>2026-03-29T13:01:27Z</time></trkpt><trkpt lat="39.25117848627765" lon="16.060272677609984"><ele>5.0</ele><time>2026-03-29T13:01:28Z</time></trkpt><trkpt lat="39.251352130239155" lon="16.060221727313344"><ele>5.0</ele><time>2026-03-29T13:01:29Z</time></trkpt><trkpt lat="39.251527488385726" lon="16.06017866075581"><ele>4.666666666666667</ele><time>2026-03-29T13:01:30Z</time></trkpt><trkpt lat="39.251700528739114" lon="16.060145737745223"><ele>4.333333333333333</ele><time>2026-03-29T13:01:31Z</time></trkpt><trkpt lat="39.25187414804661" lon="16.06011572229597"><ele>4.0</ele><time>2026-03-29T13:01:32Z</time></trkpt><trkpt lat="39.25204694322507" lon="16.06009249603585"><ele>4.0</ele><time>2026-03-29T13:01:33Z</time></trkpt><trkpt lat="39.25222097017288" lon="16.060077176346052"><ele>4.0</ele><time>2026-03-29T13:01:34Z</time></trkpt><trkpt lat="39.25239559951618" lon="16.06006720099999"><ele>4.0</ele><time>2026-03-29T13:01:35Z</time></trkpt><trkpt lat="39.25257466696407" lon="16.060061105629003"><ele>4.0</ele><time>2026-03-29T13:01:36Z</time></trkpt><trkpt lat="39.252751742418816" lon="16.060056826939114"><ele>4.0</ele><time>2026-03-29T13:01:37Z</time></trkpt><trkpt lat="39.25292930611306" lon="16.06005225041016"><ele>4.0</ele><time>2026-03-29T13:01:38Z</time></trkpt><trkpt lat="39.25310343963445" lon="16.060048431783326"><ele>4.0</ele><time>2026-03-29T13:01:39Z</time></trkpt><trkpt lat="39.25327562723687" lon="16.060041606667365"><ele>4.0</ele><time>2026-03-29T13:01:40Z</time></trkpt><trkpt lat="39.253447690339726" lon="16.06003493495407"><ele>4.0</ele><time>2026-03-29T13:01:41Z</time></trkpt><trkpt lat="39.25362079159975" lon="16.060026846458644"><ele>4.0</ele><time>2026-03-29T13:01:42Z</time></trkpt><trkpt lat="39.253789017189625" lon="16.06001749270956"><ele>4.0</ele><time>2026-03-29T13:01:43Z</time></trkpt><trkpt lat="39.253953433081314" lon="16.060011219532008"><ele>4.0</ele><time>2026-03-29T13:01:44Z</time></trkpt><trkpt lat="39.25411643989207" lon="16.06000794994411"><ele>4.666666666666666</ele><time>2026-03-29T13:01:45Z</time></trkpt><trkpt lat="39.25427960305176" lon="16.060004193348984"><ele>5.333333333333333</ele><time>2026-03-29T13:01:46Z</time></trkpt><trkpt lat="39.254443963601425" lon="16.060002103666836"><ele>6.0</ele><time>2026-03-29T13:01:47Z</time></trkpt><trkpt lat="39.25460888234901" lon="16.059999354764344"><ele>6.0</ele><time>2026-03-29T13:01:48Z</time></trkpt><trkpt lat="39.254773048421846" lon="16.059995134582408"><ele>6.0</ele><time>2026-03-29T13:01:49Z</time></trkpt><trkpt lat="39.25493855278885" lon="16.059990645125424"><ele>6.0</ele><time>2026-03-29T13:01:50Z</time></trkpt><trkpt lat="39.25510428652848" lon="16.059985074955094"><ele>7.0</ele><time>2026-03-29T13:01:51Z</time></trkpt><trkpt lat="39.25526990637219" lon="16.059978361429188"><ele>8.0</ele><time>2026-03-29T13:01:52Z</time></trkpt><trkpt lat="39.255436410602535" lon="16.059971978262404"><ele>9.0</ele><time>2026-03-29T13:01:53Z</time></trkpt><trkpt lat="39.25560217119402" lon="16.059964534543596"><ele>8.0</ele><time>2026-03-29T13:01:54Z</time></trkpt><trkpt lat="39.25576845662577" lon="16.059957596832543"><ele>7.0</ele><time>2026-03-29T13:01:55Z</time></trkpt><trkpt lat="39.255938499193405" lon="16.059951406178897"><ele>6.0</ele><time>2026-03-29T13:01:56Z</time></trkpt><trkpt lat="39.25611345401914" lon="16.059945738092097"><ele>5.333333333333333</ele><time>2026-03-29T13:01:57Z</time></trkpt><trkpt lat="39.25629097413292" lon="16.059941489691113"><ele>4.666666666666666</ele><time>2026-03-29T13:01:58Z</time></trkpt><trkpt lat="39.25646906459597" lon="16.059936851187167"><ele>4.0</ele><time>2026-03-29T13:01:59Z</time></trkpt><trkpt lat="39.25664660025496" lon="16.05993134068431"><ele>4.0</ele><time>2026-03-29T13:02:00.001Z</time></trkpt><trkpt lat="39.25682442529242" lon="16.059924739650405"><ele>4.0</ele><time>2026-03-29T13:02:01.001Z</time></trkpt><trkpt lat="39.25700153612286" lon="16.05991744444769"><ele>4.0</ele><time>2026-03-29T13:02:02.001Z</time></trkpt><trkpt lat="39.25717903913365" lon="16.059910079127874"><ele>5.0</ele><time>2026-03-29T13:02:03.001Z</time></trkpt><trkpt lat="39.257356673957695" lon="16.059905403512982"><ele>6.0</ele><time>2026-03-29T13:02:04.001Z</time></trkpt><trkpt lat="39.25753418039342" lon="16.059901258398206"><ele>7.0</ele><time>2026-03-29T13:02:05.001Z</time></trkpt><trkpt lat="39.257713971325664" lon="16.059893613319634"><ele>7.0</ele><time>2026-03-29T13:02:06.001Z</time></trkpt><trkpt lat="39.25789674030904" lon="16.059886843402683"><ele>7.0</ele><time>2026-03-29T13:02:07.001Z</time></trkpt><trkpt lat="39.258083619968005" lon="16.05988043142825"><ele>7.0</ele><time>2026-03-29T13:02:08.001Z</time></trkpt><trkpt lat="39.25827333222858" lon="16.059874468527983"><ele>7.666666666666667</ele><time>2026-03-29T13:02:09.001Z</time></trkpt><trkpt lat="39.25846475109875" lon="16.059868052232776"><ele>8.333333333333334</ele><time>2026-03-29T13:02:10.001Z</time></trkpt><trkpt lat="39.25865826503968" lon="16.059862862938612"><ele>9.0</ele><time>2026-03-29T13:02:11.001Z</time></trkpt><trkpt lat="39.25885358323573" lon="16.059855951790787"><ele>8.666666666666666</ele><time>2026-03-29T13:02:12.001Z</time></trkpt><trkpt lat="39.25904626405601" lon="16.059848910362327"><ele>8.333333333333332</ele><time>2026-03-29T13:02:13.001Z</time></trkpt><trkpt lat="39.25923721278529" lon="16.059840578701582"><ele>8.0</ele><time>2026-03-29T13:02:14.001Z</time></trkpt><trkpt lat="39.259427472261386" lon="16.059833065120177"><ele>8.0</ele><time>2026-03-29T13:02:15.001Z</time></trkpt><trkpt lat="39.25961762478942" lon="16.059827784067185"><ele>8.0</ele><time>2026-03-29T13:02:16.001Z</time></trkpt><trkpt lat="39.25981004739856" lon="16.05982415067792"><ele>8.0</ele><time>2026-03-29T13:02:17.001Z</time></trkpt><trkpt lat="39.26000449253108" lon="16.059819105560486"><ele>7.666666666666666</ele><time>2026-03-29T13:02:18.001Z</time></trkpt><trkpt lat="39.26019913034655" lon="16.059814848567747"><ele>7.333333333333334</ele><time>2026-03-29T13:02:19.001Z</time></trkpt><trkpt lat="39.26039390560956" lon="16.05981058113911"><ele>7.0</ele><time>2026-03-29T13:02:20.001Z</time></trkpt><trkpt lat="39.260589243841366" lon="16.05980625715157"><ele>6.0</ele><time>2026-03-29T13:02:21.001Z</time></trkpt><trkpt lat="39.26078374264496" lon="16.059804957995972"><ele>5.0</ele><time>2026-03-29T13:02:22.001Z</time></trkpt><trkpt lat="39.260979559229966" lon="16.059804021320804"><ele>4.0</ele><time>2026-03-29T13:02:23.001Z</time></trkpt><trkpt lat="39.261175131457136" lon="16.0598039061009"><ele>4.0</ele><time>2026-03-29T13:02:24.001Z</time></trkpt><trkpt lat="39.26136817970593" lon="16.05980507382406"><ele>4.0</ele><time>2026-03-29T13:02:25.001Z</time></trkpt><trkpt lat="39.26156312740909" lon="16.05980678867393"><ele>4.0</ele><time>2026-03-29T13:02:26.001Z</time></trkpt><trkpt lat="39.26175738257209" lon="16.05980852364836"><ele>4.333333333333333</ele><time>2026-03-29T13:02:27.001Z</time></trkpt><trkpt lat="39.261954408627794" lon="16.05980986783916"><ele>4.666666666666667</ele><time>2026-03-29T13:02:28.001Z</time></trkpt><trkpt lat="39.262151551176075" lon="16.059812130981843"><ele>5.0</ele><time>2026-03-29T13:02:29.001Z</time></trkpt><trkpt lat="39.26234892968676" lon="16.05981589244647"><ele>5.666666666666667</ele><time>2026-03-29T13:02:30.001Z</time></trkpt><trkpt lat="39.26254429870557" lon="16.059819549345814"><ele>6.333333333333334</ele><time>2026-03-29T13:02:31.001Z</time></trkpt><trkpt lat="39.26273656375342" lon="16.05982203005839"><ele>7.0</ele><time>2026-03-29T13:02:32.001Z</time></trkpt><trkpt lat="39.26292803076915" lon="16.05982102038494"><ele>7.333333333333334</ele><time>2026-03-29T13:02:33.001Z</time></trkpt><trkpt lat="39.26311856785553" lon="16.059821244377147"><ele>7.666666666666666</ele><time>2026-03-29T13:02:34.001Z</time></trkpt><trkpt lat="39.26330705332522" lon="16.059826677408626"><ele>8.0</ele><time>2026-03-29T13:02:35.001Z</time></trkpt><trkpt lat="39.26349317534438" lon="16.059828798424224"><ele>8.0</ele><time>2026-03-29T13:02:36.001Z</time></trkpt><trkpt lat="39.263675745743846" lon="16.05983097881983"><ele>8.0</ele><time>2026-03-29T13:02:37.001Z</time></trkpt><trkpt lat="39.263862564493344" lon="16.059829002737416"><ele>8.0</ele><time>2026-03-29T13:02:38.001Z</time></trkpt><trkpt lat="39.26404805438021" lon="16.05983025290539"><ele>7.333333333333333</ele><time>2026-03-29T13:02:39.001Z</time></trkpt><trkpt lat="39.26423409622087" lon="16.059832063857474"><ele>6.666666666666666</ele><time>2026-03-29T13:02:40.001Z</time></trkpt><trkpt lat="39.26442044921065" lon="16.059833967143486"><ele>6.0</ele><time>2026-03-29T13:02:41.001Z</time></trkpt><trkpt lat="39.26460831888779" lon="16.05983649375671"><ele>6.0</ele><time>2026-03-29T13:02:42.001Z</time></trkpt><trkpt lat="39.26479593544013" lon="16.059839271526602"><ele>6.0</ele><time>2026-03-29T13:02:43.001Z</time></trkpt><trkpt lat="39.26498533552066" lon="16.059839336219856"><ele>6.0</ele><time>2026-03-29T13:02:44.001Z</time></trkpt><trkpt lat="39.26517779349268" lon="16.059841311799993"><ele>6.0</ele><time>2026-03-29T13:02:45.001Z</time></trkpt><trkpt lat="39.26537125930219" lon="16.05984518945842"><ele>6.0</ele><time>2026-03-29T13:02:46.001Z</time></trkpt><trkpt lat="39.265565469820444" lon="16.05984769111718"><ele>6.0</ele><time>2026-03-29T13:02:47.001Z</time></trkpt><trkpt lat="39.265760081537316" lon="16.059849914661264"><ele>5.666666666666667</ele><time>2026-03-29T13:02:48.001Z</time></trkpt><trkpt lat="39.26595414757446" lon="16.059852747916267"><ele>5.333333333333334</ele><time>2026-03-29T13:02:49.001Z</time></trkpt><trkpt lat="39.266147880206915" lon="16.05985399704717"><ele>5.0</ele><time>2026-03-29T13:02:50.001Z</time></trkpt><trkpt lat="39.26634269825661" lon="16.059853559560665"><ele>5.0</ele><time>2026-03-29T13:02:51.001Z</time></trkpt><trkpt lat="39.26653876466448" lon="16.059855273473513"><ele>5.0</ele><time>2026-03-29T13:02:52.001Z</time></trkpt><trkpt lat="39.26673655603131" lon="16.059855052159776"><ele>5.0</ele><time>2026-03-29T13:02:53.001Z</time></trkpt><trkpt lat="39.266934270554735" lon="16.0598540979302"><ele>5.0</ele><time>2026-03-29T13:02:54.001Z</time></trkpt><trkpt lat="39.26713151664919" lon="16.059847265181094"><ele>5.0</ele><time>2026-03-29T13:02:55.001Z</time></trkpt><trkpt lat="39.26732734406831" lon="16.059833608428775"><ele>5.0</ele><time>2026-03-29T13:02:56.001Z</time></trkpt><trkpt lat="39.267522000078195" lon="16.059812291165073"><ele>5.333333333333334</ele><time>2026-03-29T13:02:57.001Z</time></trkpt><trkpt lat="39.26771568888745" lon="16.05978135226387"><ele>5.666666666666667</ele><time>2026-03-29T13:02:58.001Z</time></trkpt><trkpt lat="39.26790745561561" lon="16.05974371955656"><ele>6.0</ele><time>2026-03-29T13:02:59.001Z</time></trkpt><trkpt lat="39.26809676461314" lon="16.059702787598805"><ele>6.0</ele><time>2026-03-29T13:03:00.001Z</time></trkpt><trkpt lat="39.26828196685968" lon="16.059658264955804"><ele>6.0</ele><time>2026-03-29T13:03:01.001Z</time></trkpt><trkpt lat="39.26846392734894" lon="16.059608214602697"><ele>6.0</ele><time>2026-03-29T13:03:02.001Z</time></trkpt><trkpt lat="39.26864614832557" lon="16.059552244677107"><ele>6.0</ele><time>2026-03-29T13:03:03.001Z</time></trkpt><trkpt lat="39.26882914180795" lon="16.059498591945786"><ele>6.0</ele><time>2026-03-29T13:03:04.001Z</time></trkpt><trkpt lat="39.26901392603503" lon="16.059446233299212"><ele>6.0</ele><time>2026-03-29T13:03:05.001Z</time></trkpt><trkpt lat="39.26919925984836" lon="16.05939358245989"><ele>6.333333333333334</ele><time>2026-03-29T13:03:06.001Z</time></trkpt><trkpt lat="39.26938484806741" lon="16.059338823627453"><ele>6.666666666666667</ele><time>2026-03-29T13:03:07.001Z</time></trkpt><trkpt lat="39.26957353389267" lon="16.059284938325817"><ele>7.0</ele><time>2026-03-29T13:03:08.001Z</time></trkpt><trkpt lat="39.26976175045635" lon="16.059227826765312"><ele>6.666666666666667</ele><time>2026-03-29T13:03:09.001Z</time></trkpt><trkpt lat="39.26995191684959" lon="16.059169819718512"><ele>6.333333333333334</ele><time>2026-03-29T13:03:10.001Z</time></trkpt><trkpt lat="39.270141957934136" lon="16.05911344636212"><ele>6.0</ele><time>2026-03-29T13:03:11.001Z</time></trkpt><trkpt lat="39.2703281075058" lon="16.059059945623037"><ele>6.0</ele><time>2026-03-29T13:03:12.001Z</time></trkpt><trkpt lat="39.27051267315245" lon="16.059007640234128"><ele>6.0</ele><time>2026-03-29T13:03:13.001Z</time></trkpt><trkpt lat="39.270695467467796" lon="16.05895739092238"><ele>6.0</ele><time>2026-03-29T13:03:14.001Z</time></trkpt><trkpt lat="39.27087894306354" lon="16.058908208612465"><ele>6.666666666666666</ele><time>2026-03-29T13:03:15.001Z</time></trkpt><trkpt lat="39.271063467961284" lon="16.058861958482332"><ele>7.333333333333333</ele><time>2026-03-29T13:03:16.001Z</time></trkpt><trkpt lat="39.27125053612337" lon="16.058822278274498"><ele>8.0</ele><time>2026-03-29T13:03:17.001Z</time></trkpt><trkpt lat="39.27144107791053" lon="16.058787799119074"><ele>8.333333333333332</ele><time>2026-03-29T13:03:18.001Z</time></trkpt><trkpt lat="39.2716302083491" lon="16.058754945374982"><ele>8.666666666666666</ele><time>2026-03-29T13:03:19.001Z</time></trkpt><trkpt lat="39.27181821526326" lon="16.05872447008369"><ele>9.0</ele><time>2026-03-29T13:03:20.001Z</time></trkpt><trkpt lat="39.272007733046685" lon="16.058692847842654"><ele>9.0</ele><time>2026-03-29T13:03:21.001Z</time></trkpt><trkpt lat="39.27219914865693" lon="16.05865849819556"><ele>9.0</ele><time>2026-03-29T13:03:22.001Z</time></trkpt><trkpt lat="39.27239134517404" lon="16.058625326595315"><ele>9.0</ele><time>2026-03-29T13:03:23.001Z</time></trkpt><trkpt lat="39.27258664635977" lon="16.058594668494838"><ele>9.333333333333334</ele><time>2026-03-29T13:03:24.001Z</time></trkpt><trkpt lat="39.27278338170471" lon="16.05856344414036"><ele>9.666666666666668</ele><time>2026-03-29T13:03:25.001Z</time></trkpt><trkpt lat="39.27298158585993" lon="16.058530427964598"><ele>10.0</ele><time>2026-03-29T13:03:26.001Z</time></trkpt><trkpt lat="39.27318188251973" lon="16.05849831902337"><ele>8.666666666666668</ele><time>2026-03-29T13:03:27.001Z</time></trkpt><trkpt lat="39.27338403760968" lon="16.05846472810427"><ele>7.333333333333334</ele><time>2026-03-29T13:03:28.001Z</time></trkpt><trkpt lat="39.27358743126514" lon="16.058430798763943"><ele>6.0</ele><time>2026-03-29T13:03:29.001Z</time></trkpt><trkpt lat="39.273790338694745" lon="16.05839832565396"><ele>7.0</ele><time>2026-03-29T13:03:30.001Z</time></trkpt><trkpt lat="39.27399195786938" lon="16.05836421658698"><ele>8.0</ele><time>2026-03-29T13:03:31.001Z</time></trkpt><trkpt lat="39.27419310082531" lon="16.058330782801004"><ele>9.0</ele><time>2026-03-29T13:03:32.001Z</time></trkpt><trkpt lat="39.274393390615096" lon="16.05829498002502"><ele>8.666666666666666</ele><time>2026-03-29T13:03:33.001Z</time></trkpt><trkpt lat="39.27459224257439" lon="16.058260445136725"><ele>8.333333333333332</ele><time>2026-03-29T13:03:34.001Z</time></trkpt><trkpt lat="39.274789794934065" lon="16.05822712053598"><ele>8.0</ele><time>2026-03-29T13:03:35.001Z</time></trkpt><trkpt lat="39.27498761302597" lon="16.058194638459955"><ele>8.0</ele><time>2026-03-29T13:03:36.001Z</time></trkpt><trkpt lat="39.27518447699852" lon="16.058161433530433"><ele>8.0</ele><time>2026-03-29T13:03:37.001Z</time></trkpt><trkpt lat="39.27538185246177" lon="16.058128252980083"><ele>8.0</ele><time>2026-03-29T13:03:38.001Z</time></trkpt><trkpt lat="39.27557916230043" lon="16.058093961352114"><ele>8.0</ele><time>2026-03-29T13:03:39.001Z</time></trkpt><trkpt lat="39.27577515144647" lon="16.058059869782195"><ele>8.0</ele><time>2026-03-29T13:03:40.001Z</time></trkpt><trkpt lat="39.27596979114411" lon="16.058026082648738"><ele>8.0</ele><time>2026-03-29T13:03:41.001Z</time></trkpt><trkpt lat="39.276165219936175" lon="16.05799157579843"><ele>8.0</ele><time>2026-03-29T13:03:42.001Z</time></trkpt><trkpt lat="39.27636055661198" lon="16.057957810803824"><ele>8.0</ele><time>2026-03-29T13:03:43.001Z</time></trkpt><trkpt lat="39.27655637265552" lon="16.05792567772104"><ele>8.0</ele><time>2026-03-29T13:03:44.001Z</time></trkpt><trkpt lat="39.27675133357662" lon="16.05789234478862"><ele>8.0</ele><time>2026-03-29T13:03:45.001Z</time></trkpt><trkpt lat="39.276946044727254" lon="16.057858650656716"><ele>8.0</ele><time>2026-03-29T13:03:46.001Z</time></trkpt><trkpt lat="39.2771415394389" lon="16.05782501581717"><ele>8.0</ele><time>2026-03-29T13:03:47.001Z</time></trkpt><trkpt lat="39.27733793705177" lon="16.057791245330726"><ele>7.666666666666666</ele><time>2026-03-29T13:03:48.001Z</time></trkpt><trkpt lat="39.27753589699034" lon="16.057757388594844"><ele>7.333333333333334</ele><time>2026-03-29T13:03:49.001Z</time></trkpt><trkpt lat="39.277734226771486" lon="16.057724329575752"><ele>7.0</ele><time>2026-03-29T13:03:50.001Z</time></trkpt><trkpt lat="39.27793334208398" lon="16.05769399787222"><ele>7.333333333333334</ele><time>2026-03-29T13:03:51.001Z</time></trkpt><trkpt lat="39.278134111002174" lon="16.057660281607394"><ele>7.666666666666666</ele><time>2026-03-29T13:03:52.001Z</time></trkpt><trkpt lat="39.27833518288119" lon="16.05762708358925"><ele>8.0</ele><time>2026-03-29T13:03:53.001Z</time></trkpt><trkpt lat="39.27853780057791" lon="16.05759317324181"><ele>8.0</ele><time>2026-03-29T13:03:54.001Z</time></trkpt><trkpt lat="39.27873986799314" lon="16.05755806601201"><ele>8.0</ele><time>2026-03-29T13:03:55.001Z</time></trkpt><trkpt lat="39.27894275372105" lon="16.057524291245922"><ele>8.0</ele><time>2026-03-29T13:03:56.001Z</time></trkpt><trkpt lat="39.27914510421926" lon="16.057491620515833"><ele>8.0</ele><time>2026-03-29T13:03:57.001Z</time></trkpt><trkpt lat="39.27934653135423" lon="16.05745933985289"><ele>8.0</ele><time>2026-03-29T13:03:58.001Z</time></trkpt><trkpt lat="39.279546210082145" lon="16.057427165022894"><ele>8.0</ele><time>2026-03-29T13:03:59.001Z</time></trkpt><trkpt lat="39.279742860906254" lon="16.057395437201283"><ele>8.0</ele><time>2026-03-29T13:04:00.001Z</time></trkpt><trkpt lat="39.2799389985128" lon="16.057365620650046"><ele>8.0</ele><time>2026-03-29T13:04:01.001Z</time></trkpt><trkpt lat="39.28013403453872" lon="16.057336050751648"><ele>8.0</ele><time>2026-03-29T13:04:02.001Z</time></trkpt><trkpt lat="39.28032721065099" lon="16.057310925479015"><ele>8.0</ele><time>2026-03-29T13:04:03.001Z</time></trkpt><trkpt lat="39.280518003907254" lon="16.05729834600339"><ele>8.0</ele><time>2026-03-29T13:04:04.001Z</time></trkpt><trkpt lat="39.280707352229186" lon="16.057294671334674"><ele>8.0</ele><time>2026-03-29T13:04:05.001Z</time></trkpt><trkpt lat="39.28089485826081" lon="16.05729999590715"><ele>8.0</ele><time>2026-03-29T13:04:06.001Z</time></trkpt><trkpt lat="39.281083000459724" lon="16.057311647633956"><ele>8.0</ele><time>2026-03-29T13:04:07.001Z</time></trkpt><trkpt lat="39.28127018813979" lon="16.05732513667023"><ele>8.0</ele><time>2026-03-29T13:04:08.001Z</time></trkpt><trkpt lat="39.281456970067104" lon="16.05733946205396"><ele>8.0</ele><time>2026-03-29T13:04:09.001Z</time></trkpt><trkpt lat="39.28164425762406" lon="16.05735305125848"><ele>8.0</ele><time>2026-03-29T13:04:10.001Z</time></trkpt><trkpt lat="39.2818311781917" lon="16.0573660586762"><ele>8.0</ele><time>2026-03-29T13:04:11.001Z</time></trkpt><trkpt lat="39.282018665358706" lon="16.057380440627746"><ele>8.0</ele><time>2026-03-29T13:04:12.001Z</time></trkpt><trkpt lat="39.282206829122735" lon="16.05739403426478"><ele>8.0</ele><time>2026-03-29T13:04:13.001Z</time></trkpt><trkpt lat="39.28239320997527" lon="16.057405461425788"><ele>8.0</ele><time>2026-03-29T13:04:14.001Z</time></trkpt><trkpt lat="39.282578832385376" lon="16.057418392605214"><ele>8.0</ele><time>2026-03-29T13:04:15.001Z</time></trkpt><trkpt lat="39.282764060321604" lon="16.05743037937221"><ele>8.0</ele><time>2026-03-29T13:04:16.001Z</time></trkpt><trkpt lat="39.282949828294385" lon="16.057442605396893"><ele>8.0</ele><time>2026-03-29T13:04:17.001Z</time></trkpt><trkpt lat="39.28313421327385" lon="16.057454379191338"><ele>8.0</ele><time>2026-03-29T13:04:18.001Z</time></trkpt><trkpt lat="39.28331870833779" lon="16.057467036912744"><ele>8.0</ele><time>2026-03-29T13:04:19.001Z</time></trkpt><trkpt lat="39.28350420518972" lon="16.057479322785525"><ele>8.0</ele><time>2026-03-29T13:04:20.001Z</time></trkpt><trkpt lat="39.28368962014968" lon="16.057491437310162"><ele>8.0</ele><time>2026-03-29T13:04:21.001Z</time></trkpt><trkpt lat="39.283876392722334" lon="16.05750269439202"><ele>8.0</ele><time>2026-03-29T13:04:22.001Z</time></trkpt><trkpt lat="39.28406153701664" lon="16.057515811673664"><ele>8.0</ele><time>2026-03-29T13:04:23.001Z</time></trkpt><trkpt lat="39.28424488140079" lon="16.05752650025346"><ele>8.333333333333332</ele><time>2026-03-29T13:04:24.001Z</time></trkpt><trkpt lat="39.284425741897934" lon="16.05753582481766"><ele>8.666666666666666</ele><time>2026-03-29T13:04:25.001Z</time></trkpt><trkpt lat="39.28460354718436" lon="16.057544893936353"><ele>9.0</ele><time>2026-03-29T13:04:26.001Z</time></trkpt><trkpt lat="39.28478436124661" lon="16.057553750108827"><ele>9.333333333333334</ele><time>2026-03-29T13:04:27.001Z</time></trkpt><trkpt lat="39.28496676496964" lon="16.057562916955124"><ele>9.666666666666668</ele><time>2026-03-29T13:04:28.001Z</time></trkpt><trkpt lat="39.285149624796475" lon="16.057571379753423"><ele>10.0</ele><time>2026-03-29T13:04:29.001Z</time></trkpt><trkpt lat="39.2853359038457" lon="16.05757944330763"><ele>10.0</ele><time>2026-03-29T13:04:30.001Z</time></trkpt><trkpt lat="39.28552333084384" lon="16.057585714755344"><ele>10.0</ele><time>2026-03-29T13:04:31.001Z</time></trkpt><trkpt lat="39.285714695296136" lon="16.057589427420606"><ele>10.0</ele><time>2026-03-29T13:04:32.001Z</time></trkpt><trkpt lat="39.2859049015105" lon="16.057596307748213"><ele>11.0</ele><time>2026-03-29T13:04:33.001Z</time></trkpt><trkpt lat="39.28609368427623" lon="16.057606812546194"><ele>12.0</ele><time>2026-03-29T13:04:34.001Z</time></trkpt><trkpt lat="39.28628108756217" lon="16.057620581709923"><ele>13.0</ele><time>2026-03-29T13:04:35.001Z</time></trkpt><trkpt lat="39.28646788673558" lon="16.057636699643393"><ele>13.0</ele><time>2026-03-29T13:04:36.001Z</time></trkpt><trkpt lat="39.286655625069166" lon="16.057655228981673"><ele>13.0</ele><time>2026-03-29T13:04:37.001Z</time></trkpt><trkpt lat="39.286844573600945" lon="16.057673914061876"><ele>13.0</ele><time>2026-03-29T13:04:38.001Z</time></trkpt><trkpt lat="39.28703583318944" lon="16.057693906025612"><ele>13.0</ele><time>2026-03-29T13:04:39.001Z</time></trkpt><trkpt lat="39.28722644679251" lon="16.05771258860969"><ele>13.0</ele><time>2026-03-29T13:04:40.001Z</time></trkpt><trkpt lat="39.28741425898154" lon="16.057732262154016"><ele>13.0</ele><time>2026-03-29T13:04:41.001Z</time></trkpt><trkpt lat="39.28760185925004" lon="16.057749145167204"><ele>13.0</ele><time>2026-03-29T13:04:42.001Z</time></trkpt><trkpt lat="39.287789985277655" lon="16.057766090651658"><ele>13.0</ele><time>2026-03-29T13:04:43.001Z</time></trkpt><trkpt lat="39.28797832594207" lon="16.05778289524784"><ele>13.0</ele><time>2026-03-29T13:04:44.001Z</time></trkpt><trkpt lat="39.28816439069755" lon="16.05779604796032"><ele>13.0</ele><time>2026-03-29T13:04:45.001Z</time></trkpt><trkpt lat="39.28835012116308" lon="16.05780930027962"><ele>13.0</ele><time>2026-03-29T13:04:46.001Z</time></trkpt><trkpt lat="39.288537624422496" lon="16.05782096090549"><ele>13.0</ele><time>2026-03-29T13:04:47.001Z</time></trkpt><trkpt lat="39.28872538709468" lon="16.057830136749903"><ele>13.0</ele><time>2026-03-29T13:04:48.001Z</time></trkpt><trkpt lat="39.28891410441512" lon="16.05784026364387"><ele>13.0</ele><time>2026-03-29T13:04:49.001Z</time></trkpt><trkpt lat="39.28910389987663" lon="16.05784985845073"><ele>13.0</ele><time>2026-03-29T13:04:50.001Z</time></trkpt><trkpt lat="39.28929431044961" lon="16.057852210215163"><ele>14.0</ele><time>2026-03-29T13:04:51.001Z</time></trkpt><trkpt lat="39.28948460301208" lon="16.057841323745073"><ele>15.0</ele><time>2026-03-29T13:04:52.001Z</time></trkpt><trkpt lat="39.289674689898604" lon="16.057814943237037"><ele>16.0</ele><time>2026-03-29T13:04:53.001Z</time></trkpt><trkpt lat="39.289863199847424" lon="16.057769068754524"><ele>17.333333333333332</ele><time>2026-03-29T13:04:54.001Z</time></trkpt><trkpt lat="39.29005044779342" lon="16.05770521428742"><ele>18.666666666666668</ele><time>2026-03-29T13:04:55.001Z</time></trkpt><trkpt lat="39.29023649543567" lon="16.057634243106246"><ele>20.0</ele><time>2026-03-29T13:04:56.001Z</time></trkpt><trkpt lat="39.29041981985766" lon="16.057561801378384"><ele>18.666666666666668</ele><time>2026-03-29T13:04:57.001Z</time></trkpt><trkpt lat="39.290599931819976" lon="16.05748860671222"><ele>17.333333333333332</ele><time>2026-03-29T13:04:58.001Z</time></trkpt><trkpt lat="39.290780625538304" lon="16.0574161954007"><ele>16.0</ele><time>2026-03-29T13:04:59.001Z</time></trkpt><trkpt lat="39.2909630264884" lon="16.057346326203717"><ele>16.0</ele><time>2026-03-29T13:05:00.001Z</time></trkpt><trkpt lat="39.29114599463269" lon="16.057273300547905"><ele>16.0</ele><time>2026-03-29T13:05:01.001Z</time></trkpt><trkpt lat="39.29132641749158" lon="16.057201826063164"><ele>16.0</ele><time>2026-03-29T13:05:02.001Z</time></trkpt><trkpt lat="39.29150693846733" lon="16.057128548640677"><ele>20.333333333333332</ele><time>2026-03-29T13:05:03.001Z</time></trkpt><trkpt lat="39.29168790513546" lon="16.05705335643838"><ele>24.666666666666664</ele><time>2026-03-29T13:05:04.001Z</time></trkpt><trkpt lat="39.29186672622933" lon="16.056979779685083"><ele>29.0</ele><time>2026-03-29T13:05:05.001Z</time></trkpt><trkpt lat="39.292040401044424" lon="16.05690598474305"><ele>29.0</ele><time>2026-03-29T13:05:06.001Z</time></trkpt><trkpt lat="39.29221552287306" lon="16.056837088109976"><ele>29.0</ele><time>2026-03-29T13:05:07.001Z</time></trkpt><trkpt lat="39.29239081157052" lon="16.05677026994277"><ele>29.0</ele><time>2026-03-29T13:05:08.001Z</time></trkpt><trkpt lat="39.292568067172134" lon="16.05671338882928"><ele>28.0</ele><time>2026-03-29T13:05:09.001Z</time></trkpt><trkpt lat="39.2927486306987" lon="16.056669217261433"><ele>27.0</ele><time>2026-03-29T13:05:10.001Z</time></trkpt><trkpt lat="39.29293027690587" lon="16.056630500413306"><ele>26.0</ele><time>2026-03-29T13:05:11.001Z</time></trkpt><trkpt lat="39.2931125853362" lon="16.05659667812631"><ele>26.0</ele><time>2026-03-29T13:05:12.001Z</time></trkpt><trkpt lat="39.29329299137262" lon="16.05656371112723"><ele>26.0</ele><time>2026-03-29T13:05:13.001Z</time></trkpt><trkpt lat="39.2934732224522" lon="16.056530419836072"><ele>26.0</ele><time>2026-03-29T13:05:14.001Z</time></trkpt><trkpt lat="39.29365537951444" lon="16.056498123316477"><ele>26.0</ele><time>2026-03-29T13:05:15.001Z</time></trkpt><trkpt lat="39.29383695880274" lon="16.05646776586103"><ele>26.0</ele><time>2026-03-29T13:05:16.001Z</time></trkpt><trkpt lat="39.29401458103201" lon="16.05643739018731"><ele>26.0</ele><time>2026-03-29T13:05:17Z</time></trkpt><trkpt lat="39.29419095248126" lon="16.056404760440678"><ele>27.333333333333332</ele><time>2026-03-29T13:05:18Z</time></trkpt><trkpt lat="39.294367982473034" lon="16.05637022248036"><ele>28.666666666666664</ele><time>2026-03-29T13:05:19Z</time></trkpt><trkpt lat="39.294545707731274" lon="16.05633675758848"><ele>30.0</ele><time>2026-03-29T13:05:20Z</time></trkpt><trkpt lat="39.294721721230076" lon="16.056305299109273"><ele>31.333333333333336</ele><time>2026-03-29T13:05:21Z</time></trkpt><trkpt lat="39.29489635509136" lon="16.05627082255903"><ele>32.66666666666667</ele><time>2026-03-29T13:05:22Z</time></trkpt><trkpt lat="39.29506810512764" lon="16.05623663416514"><ele>34.0</ele><time>2026-03-29T13:05:23Z</time></trkpt><trkpt lat="39.295239100451155" lon="16.056200781968325"><ele>34.0</ele><time>2026-03-29T13:05:24Z</time></trkpt><trkpt lat="39.29541022864321" lon="16.056164107205248"><ele>34.0</ele><time>2026-03-29T13:05:25Z</time></trkpt><trkpt lat="39.29558262587977" lon="16.056128894963347"><ele>34.0</ele><time>2026-03-29T13:05:26Z</time></trkpt><trkpt lat="39.295752762546634" lon="16.056092993592614"><ele>35.66666666666667</ele><time>2026-03-29T13:05:27Z</time></trkpt><trkpt lat="39.29592398771118" lon="16.056058264254922"><ele>37.333333333333336</ele><time>2026-03-29T13:05:28Z</time></trkpt><trkpt lat="39.29609304074032" lon="16.056026616196082"><ele>39.0</ele><time>2026-03-29T13:05:29Z</time></trkpt><trkpt lat="39.29626159750472" lon="16.055994418089178"><ele>40.333333333333336</ele><time>2026-03-29T13:05:30Z</time></trkpt><trkpt lat="39.296431693205825" lon="16.05596090391661"><ele>41.66666666666667</ele><time>2026-03-29T13:05:31Z</time></trkpt><trkpt lat="39.296603682415494" lon="16.055929410267947"><ele>43.0</ele><time>2026-03-29T13:05:32Z</time></trkpt><trkpt lat="39.296776818261534" lon="16.05589782031018"><ele>43.0</ele><time>2026-03-29T13:05:33Z</time></trkpt><trkpt lat="39.29694749585036" lon="16.05586366560241"><ele>43.0</ele><time>2026-03-29T13:05:34Z</time></trkpt><trkpt lat="39.29711547833807" lon="16.05582596490929"><ele>43.0</ele><time>2026-03-29T13:05:35Z</time></trkpt><trkpt lat="39.297283238799864" lon="16.055782964135737"><ele>41.333333333333336</ele><time>2026-03-29T13:05:36Z</time></trkpt><trkpt lat="39.29744745859618" lon="16.05572943215012"><ele>39.666666666666664</ele><time>2026-03-29T13:05:37Z</time></trkpt><trkpt lat="39.297604688868574" lon="16.055665280581184"><ele>38.0</ele><time>2026-03-29T13:05:38Z</time></trkpt><trkpt lat="39.29775943238324" lon="16.05559555353359"><ele>38.0</ele><time>2026-03-29T13:05:39Z</time></trkpt><trkpt lat="39.297909504636344" lon="16.055518634708918"><ele>38.0</ele><time>2026-03-29T13:05:40Z</time></trkpt><trkpt lat="39.29805475780099" lon="16.055439508996972"><ele>38.0</ele><time>2026-03-29T13:05:41Z</time></trkpt><trkpt lat="39.29819927717074" lon="16.055359208992854"><ele>40.33333333333333</ele><time>2026-03-29T13:05:42Z</time></trkpt><trkpt lat="39.29834161338297" lon="16.055279870970697"><ele>42.666666666666664</ele><time>2026-03-29T13:05:43Z</time></trkpt><trkpt lat="39.29848404758025" lon="16.055201199830066"><ele>45.0</ele><time>2026-03-29T13:05:44Z</time></trkpt><trkpt lat="39.29862539300838" lon="16.055125935877946"><ele>45.0</ele><time>2026-03-29T13:05:45Z</time></trkpt><trkpt lat="39.29876455686075" lon="16.055048059451686"><ele>45.0</ele><time>2026-03-29T13:05:46Z</time></trkpt><trkpt lat="39.29890490038031" lon="16.054971268242408"><ele>45.0</ele><time>2026-03-29T13:05:47Z</time></trkpt><trkpt lat="39.29904725215964" lon="16.05489351589108"><ele>42.0</ele><time>2026-03-29T13:05:48Z</time></trkpt><trkpt lat="39.29918720491652" lon="16.054817251571265"><ele>39.0</ele><time>2026-03-29T13:05:49Z</time></trkpt><trkpt lat="39.29932813563416" lon="16.054741890795526"><ele>36.0</ele><time>2026-03-29T13:05:50Z</time></trkpt><trkpt lat="39.2994696047786" lon="16.05466564681761"><ele>36.0</ele><time>2026-03-29T13:05:51Z</time></trkpt><trkpt lat="39.29961362513693" lon="16.054589387834426"><ele>36.0</ele><time>2026-03-29T13:05:52Z</time></trkpt><trkpt lat="39.29975939777068" lon="16.054515519903717"><ele>36.0</ele><time>2026-03-29T13:05:53.001Z</time></trkpt><trkpt lat="39.299904841293305" lon="16.054445636292588"><ele>38.0</ele><time>2026-03-29T13:05:54.001Z</time></trkpt><trkpt lat="39.300048856420034" lon="16.054379301304184"><ele>40.0</ele><time>2026-03-29T13:05:55.001Z</time></trkpt><trkpt lat="39.30019188455364" lon="16.054314774562194"><ele>42.0</ele><time>2026-03-29T13:05:56.001Z</time></trkpt><trkpt lat="39.30033460199243" lon="16.054250658263932"><ele>42.0</ele><time>2026-03-29T13:05:57.001Z</time></trkpt><trkpt lat="39.30048062293455" lon="16.054186893456762"><ele>42.0</ele><time>2026-03-29T13:05:58.001Z</time></trkpt><trkpt lat="39.30062581360147" lon="16.054127409366448"><ele>42.0</ele><time>2026-03-29T13:05:59.001Z</time></trkpt><trkpt lat="39.300768703110855" lon="16.054070061137683"><ele>39.666666666666664</ele><time>2026-03-29T13:06:00.001Z</time></trkpt><trkpt lat="39.300911758314705" lon="16.05401386827798"><ele>37.33333333333333</ele><time>2026-03-29T13:06:01.001Z</time></trkpt><trkpt lat="39.301058120838505" lon="16.05395512332689"><ele>35.0</ele><time>2026-03-29T13:06:02.001Z</time></trkpt><trkpt lat="39.30120289313546" lon="16.053892747627746"><ele>35.0</ele><time>2026-03-29T13:06:03.001Z</time></trkpt><trkpt lat="39.30134764366984" lon="16.05383366211871"><ele>35.0</ele><time>2026-03-29T13:06:04.001Z</time></trkpt><trkpt lat="39.30149231709005" lon="16.053773529992274"><ele>35.0</ele><time>2026-03-29T13:06:05.001Z</time></trkpt><trkpt lat="39.3016366843391" lon="16.05371139841587"><ele>36.25</ele><time>2026-03-29T13:06:06.001Z</time></trkpt><trkpt lat="39.30177849850566" lon="16.053651109923543"><ele>37.5</ele><time>2026-03-29T13:06:07.001Z</time></trkpt><trkpt lat="39.301919125856756" lon="16.05359460480892"><ele>38.75</ele><time>2026-03-29T13:06:08.001Z</time></trkpt><trkpt lat="39.30206124375621" lon="16.0535389903011"><ele>40.0</ele><time>2026-03-29T13:06:09.001Z</time></trkpt><trkpt lat="39.302201358909116" lon="16.053483002586997"><ele>39.5</ele><time>2026-03-29T13:06:10.001Z</time></trkpt><trkpt lat="39.302343214080516" lon="16.05342769550361"><ele>39.0</ele><time>2026-03-29T13:06:11.001Z</time></trkpt><trkpt lat="39.30248489473862" lon="16.05337101102785"><ele>38.5</ele><time>2026-03-29T13:06:12.001Z</time></trkpt><trkpt lat="39.30262331064639" lon="16.053313400204853"><ele>38.0</ele><time>2026-03-29T13:06:13.001Z</time></trkpt><trkpt lat="39.30275417049358" lon="16.053257428936153"><ele>38.0</ele><time>2026-03-29T13:06:14.001Z</time></trkpt><trkpt lat="39.30287313532168" lon="16.05320322548322"><ele>38.0</ele><time>2026-03-29T13:06:15.001Z</time></trkpt><trkpt lat="39.30297646918803" lon="16.053154059083152"><ele>38.0</ele><time>2026-03-29T13:06:16.001Z</time></trkpt><trkpt lat="39.30307534476055" lon="16.053108729311468"><ele>38.0</ele><time>2026-03-29T13:06:17.001Z</time></trkpt><trkpt lat="39.30316586912916" lon="16.053068692607656"><ele>38.0</ele><time>2026-03-29T13:06:18.001Z</time></trkpt><trkpt lat="39.30324572430089" lon="16.053036390733435"><ele>39.599999999999994</ele><time>2026-03-29T13:06:19.001Z</time></trkpt><trkpt lat="39.30331279730471" lon="16.053005137654917"><ele>41.199999999999996</ele><time>2026-03-29T13:06:20.001Z</time></trkpt><trkpt lat="39.30336964649783" lon="16.052958693199468"><ele>42.8</ele><time>2026-03-29T13:06:21.001Z</time></trkpt><trkpt lat="39.303456685435954" lon="16.052927024531765"><ele>44.4</ele><time>2026-03-29T13:06:23.001Z</time></trkpt><trkpt lat="39.30345102196189" lon="16.052754146211274"><ele>46.0</ele><time>2026-03-29T13:06:24.001Z</time></trkpt><trkpt lat="39.30349150992629" lon="16.052617532979127"><ele>46.0</ele><time>2026-03-29T13:06:26.001Z</time></trkpt><trkpt lat="39.30356710506269" lon="16.05249416485802"><ele>46.0</ele><time>2026-03-29T13:06:28.001Z</time></trkpt><trkpt lat="39.3036244490952" lon="16.052454549189505"><ele>46.0</ele><time>2026-03-29T13:06:29.001Z</time></trkpt><trkpt lat="39.30368628348315" lon="16.052424954184286"><ele>46.0</ele><time>2026-03-29T13:06:30.001Z</time></trkpt><trkpt lat="39.30375296711911" lon="16.052403027275236"><ele>46.0</ele><time>2026-03-29T13:06:31.001Z</time></trkpt><trkpt lat="39.303819646422546" lon="16.052390185104883"><ele>46.0</ele><time>2026-03-29T13:06:32.001Z</time></trkpt><trkpt lat="39.30389097335468" lon="16.052372028015874"><ele>44.5</ele><time>2026-03-29T13:06:33.001Z</time></trkpt><trkpt lat="39.30402428076681" lon="16.05233699687672"><ele>43.0</ele><time>2026-03-29T13:06:35.001Z</time></trkpt><trkpt lat="39.30413952241174" lon="16.052313712856968"><ele>41.5</ele><time>2026-03-29T13:06:37.001Z</time></trkpt><trkpt lat="39.30424756850879" lon="16.05228246635899"><ele>40.0</ele><time>2026-03-29T13:06:39.001Z</time></trkpt><trkpt lat="39.304345884156746" lon="16.05225602807995"><ele>40.0</ele><time>2026-03-29T13:06:41.001Z</time></trkpt><trkpt lat="39.304432673014524" lon="16.05223915172646"><ele>40.0</ele><time>2026-03-29T13:06:43.001Z</time></trkpt><trkpt lat="39.30452179932999" lon="16.052213462871205"><ele>40.0</ele><time>2026-03-29T13:06:45.001Z</time></trkpt><trkpt lat="39.304601535835324" lon="16.05219509046395"><ele>40.0</ele><time>2026-03-29T13:06:47.001Z</time></trkpt><trkpt lat="39.304687058417485" lon="16.05217031555131"><ele>40.0</ele><time>2026-03-29T13:06:49.001Z</time></trkpt><trkpt lat="39.30479303138048" lon="16.05213517515305"><ele>41.4</ele><time>2026-03-29T13:06:51.001Z</time></trkpt><trkpt lat="39.304900182406" lon="16.052099247577278"><ele>42.8</ele><time>2026-03-29T13:06:53.001Z</time></trkpt><trkpt lat="39.30499207012681" lon="16.052081714332168"><ele>44.2</ele><time>2026-03-29T13:06:55.001Z</time></trkpt><trkpt lat="39.305092784318326" lon="16.052074541041794"><ele>45.6</ele><time>2026-03-29T13:06:57.001Z</time></trkpt><trkpt lat="39.30518972330841" lon="16.052084413346698"><ele>47.0</ele><time>2026-03-29T13:06:59.001Z</time></trkpt><trkpt lat="39.30527429799769" lon="16.052111736609852"><ele>47.0</ele><time>2026-03-29T13:07:01.001Z</time></trkpt><trkpt lat="39.30535400121267" lon="16.05213702307766"><ele>47.0</ele><time>2026-03-29T13:07:03.001Z</time></trkpt><trkpt lat="39.305431896810425" lon="16.052181620321193"><ele>47.0</ele><time>2026-03-29T13:07:05.001Z</time></trkpt><trkpt lat="39.30551922146327" lon="16.052240165168197"><ele>47.0</ele><time>2026-03-29T13:07:07Z</time></trkpt><trkpt lat="39.30559756016509" lon="16.05230792918956"><ele>47.0</ele><time>2026-03-29T13:07:09Z</time></trkpt><trkpt lat="39.3056701698757" lon="16.052371557451828"><ele>47.0</ele><time>2026-03-29T13:07:11Z</time></trkpt><trkpt lat="39.30572490064605" lon="16.05242188477376"><ele>49.0</ele><time>2026-03-29T13:07:14Z</time></trkpt><trkpt lat="39.305797226554674" lon="16.052462804209547"><ele>51.0</ele><time>2026-03-29T13:07:36Z</time></trkpt><trkpt lat="39.30588279762468" lon="16.052511197523362"><ele>53.0</ele><time>2026-03-29T13:07:38Z</time></trkpt><trkpt lat="39.30597968741642" lon="16.052587947200227"><ele>55.0</ele><time>2026-03-29T13:07:40Z</time></trkpt><trkpt lat="39.30606933010032" lon="16.052630263706316"><ele>57.0</ele><time>2026-03-29T13:07:42Z</time></trkpt><trkpt lat="39.306149785530074" lon="16.05262003735567"><ele>57.0</ele><time>2026-03-29T13:07:44Z</time></trkpt><trkpt lat="39.306231131695476" lon="16.052566973316996"><ele>57.0</ele><time>2026-03-29T13:07:46Z</time></trkpt><trkpt lat="39.30629190646226" lon="16.0524742768347"><ele>57.0</ele><time>2026-03-29T13:07:48Z</time></trkpt><trkpt lat="39.30630755806047" lon="16.052346451042098"><ele>57.0</ele><time>2026-03-29T13:07:50Z</time></trkpt><trkpt lat="39.306313547563384" lon="16.05222204119527"><ele>57.0</ele><time>2026-03-29T13:07:52Z</time></trkpt><trkpt lat="39.306302765049345" lon="16.052097692438384"><ele>55.8</ele><time>2026-03-29T13:07:54Z</time></trkpt><trkpt lat="39.306263924899035" lon="16.051991243342748"><ele>54.6</ele><time>2026-03-29T13:07:56Z</time></trkpt><trkpt lat="39.306210436968676" lon="16.051851205346992"><ele>53.4</ele><time>2026-03-29T13:07:58Z</time></trkpt><trkpt lat="39.30617920369301" lon="16.051775153787876"><ele>52.199999999999996</ele><time>2026-03-29T13:07:59.001Z</time></trkpt><trkpt lat="39.3061221901253" lon="16.051636000023553"><ele>51.0</ele><time>2026-03-29T13:08:01.001Z</time></trkpt><trkpt lat="39.306063030766595" lon="16.05149184932569"><ele>51.0</ele><time>2026-03-29T13:08:03.001Z</time></trkpt><trkpt lat="39.30600194549111" lon="16.051339783504478"><ele>51.0</ele><time>2026-03-29T13:08:05.001Z</time></trkpt><trkpt lat="39.30597337084193" lon="16.051258468134137"><ele>51.0</ele><time>2026-03-29T13:08:06.001Z</time></trkpt><trkpt lat="39.305941975713" lon="16.05117907994613"><ele>51.0</ele><time>2026-03-29T13:08:07.001Z</time></trkpt><trkpt lat="39.30591240098559" lon="16.05109901450755"><ele>51.0</ele><time>2026-03-29T13:08:08.001Z</time></trkpt><trkpt lat="39.30588459247667" lon="16.051020977430824"><ele>51.0</ele><time>2026-03-29T13:08:09.001Z</time></trkpt><trkpt lat="39.30585512778268" lon="16.05094749955854"><ele>51.0</ele><time>2026-03-29T13:08:10.001Z</time></trkpt><trkpt lat="39.30579933220857" lon="16.05082460600435"><ele>51.0</ele><time>2026-03-29T13:08:12.001Z</time></trkpt><trkpt lat="39.305750009264166" lon="16.05070141808062"><ele>51.0</ele><time>2026-03-29T13:08:14.001Z</time></trkpt><trkpt lat="39.305731356607936" lon="16.050590634624083"><ele>51.0</ele><time>2026-03-29T13:08:16.001Z</time></trkpt><trkpt lat="39.305792987854645" lon="16.05049653137841"><ele>51.0</ele><time>2026-03-29T13:08:18.001Z</time></trkpt><trkpt lat="39.30589459667586" lon="16.050451068715155"><ele>50.599999999999994</ele><time>2026-03-29T13:08:20.001Z</time></trkpt><trkpt lat="39.305999704293995" lon="16.050412531652107"><ele>50.2</ele><time>2026-03-29T13:08:22.001Z</time></trkpt><trkpt lat="39.30610208343323" lon="16.05036067396607"><ele>49.8</ele><time>2026-03-29T13:08:24.001Z</time></trkpt><trkpt lat="39.306200485408255" lon="16.05026551850005"><ele>49.400000000000006</ele><time>2026-03-29T13:08:26.001Z</time></trkpt><trkpt lat="39.3062495498781" lon="16.05020851722742"><ele>49.0</ele><time>2026-03-29T13:08:27.001Z</time></trkpt><trkpt lat="39.30630006450096" lon="16.050144642815862"><ele>48.99999999999999</ele><time>2026-03-29T13:08:28.001Z</time></trkpt><trkpt lat="39.30634539329677" lon="16.050084952189412"><ele>49.0</ele><time>2026-03-29T13:08:29.001Z</time></trkpt><trkpt lat="39.306413664794356" lon="16.049992447153468"><ele>49.0</ele><time>2026-03-29T13:08:31.001Z</time></trkpt><trkpt lat="39.30648626331347" lon="16.04997200515603"><ele>49.0</ele><time>2026-03-29T13:08:36.001Z</time></trkpt><trkpt lat="39.30652844959446" lon="16.05006569781577"><ele>48.99999999999999</ele><time>2026-03-29T13:08:37.001Z</time></trkpt><trkpt lat="39.306631257268826" lon="16.050136827958845"><ele>49.0</ele><time>2026-03-29T13:08:39.001Z</time></trkpt><trkpt lat="39.30672310271694" lon="16.050192886002606"><ele>50.83333333333333</ele><time>2026-03-29T13:08:41.001Z</time></trkpt><trkpt lat="39.30681130502376" lon="16.050257532940474"><ele>52.666666666666664</ele><time>2026-03-29T13:08:43Z</time></trkpt><trkpt lat="39.306897898741695" lon="16.05030259603306"><ele>54.5</ele><time>2026-03-29T13:08:45Z</time></trkpt><trkpt lat="39.30696476677757" lon="16.050333816279664"><ele>56.33333333333333</ele><time>2026-03-29T13:08:47Z</time></trkpt><trkpt lat="39.307018682784076" lon="16.05038795626129"><ele>58.166666666666664</ele><time>2026-03-29T13:08:50Z</time></trkpt><trkpt lat="39.30699650714056" lon="16.050479180816435"><ele>60.0</ele><time>2026-03-29T13:08:52Z</time></trkpt><trkpt lat="39.30696677582352" lon="16.050586861852693"><ele>60.0</ele><time>2026-03-29T13:08:54Z</time></trkpt><trkpt lat="39.306938384033735" lon="16.050687413638425"><ele>60.0</ele><time>2026-03-29T13:08:56Z</time></trkpt><trkpt lat="39.306911275601855" lon="16.050784126524206"><ele>60.0</ele><time>2026-03-29T13:08:58Z</time></trkpt><trkpt lat="39.30688394917994" lon="16.050901139916355"><ele>60.0</ele><time>2026-03-29T13:09:00Z</time></trkpt><trkpt lat="39.30685521459724" lon="16.05102815524056"><ele>60.0</ele><time>2026-03-29T13:09:02Z</time></trkpt><trkpt lat="39.30682805805993" lon="16.051159861210497"><ele>60.666666666666664</ele><time>2026-03-29T13:09:04Z</time></trkpt><trkpt lat="39.30680237028625" lon="16.05127661009179"><ele>61.33333333333333</ele><time>2026-03-29T13:09:06Z</time></trkpt><trkpt lat="39.306773151998925" lon="16.051394223344026"><ele>62.0</ele><time>2026-03-29T13:09:08Z</time></trkpt><trkpt lat="39.30674834280076" lon="16.051502030589155"><ele>62.666666666666664</ele><time>2026-03-29T13:09:10Z</time></trkpt><trkpt lat="39.30672962168141" lon="16.051587468920527"><ele>63.33333333333333</ele><time>2026-03-29T13:09:12Z</time></trkpt><trkpt lat="39.3067118928211" lon="16.051672540325075"><ele>64.0</ele><time>2026-03-29T13:09:14Z</time></trkpt><trkpt lat="39.306690396492094" lon="16.05178704239322"><ele>64.33333333333333</ele><time>2026-03-29T13:09:17Z</time></trkpt><trkpt lat="39.306741880038494" lon="16.051892521732576"><ele>64.66666666666666</ele><time>2026-03-29T13:09:20Z</time></trkpt><trkpt lat="39.306839330516176" lon="16.051913339362656"><ele>65.0</ele><time>2026-03-29T13:09:22Z</time></trkpt><trkpt lat="39.30690998081396" lon="16.051921388887248"><ele>65.33333333333333</ele><time>2026-03-29T13:09:24Z</time></trkpt><trkpt lat="39.30697227066537" lon="16.05190506176976"><ele>65.66666666666667</ele><time>2026-03-29T13:09:26Z</time></trkpt><trkpt lat="39.30704165094108" lon="16.051887738027347"><ele>66.0</ele><time>2026-03-29T13:09:29Z</time></trkpt><trkpt lat="39.30703899957497" lon="16.051745038511395"><ele>65.5</ele><time>2026-03-29T13:09:30Z</time></trkpt><trkpt lat="39.30706831714501" lon="16.05160710046167"><ele>65.0</ele><time>2026-03-29T13:09:32Z</time></trkpt><trkpt lat="39.3070988038126" lon="16.0514664478267"><ele>64.5</ele><time>2026-03-29T13:09:34Z</time></trkpt><trkpt lat="39.307129942233104" lon="16.051323012420166"><ele>64.0</ele><time>2026-03-29T13:09:36Z</time></trkpt><trkpt lat="39.307163327973235" lon="16.051184210374455"><ele>64.0</ele><time>2026-03-29T13:09:38Z</time></trkpt><trkpt lat="39.307194267346006" lon="16.05104890032277"><ele>64.0</ele><time>2026-03-29T13:09:40Z</time></trkpt><trkpt lat="39.30722195960131" lon="16.05091330455338"><ele>64.0</ele><time>2026-03-29T13:09:42Z</time></trkpt><trkpt lat="39.307251376797204" lon="16.05079165998764"><ele>64.0</ele><time>2026-03-29T13:09:44Z</time></trkpt><trkpt lat="39.307278644121" lon="16.05067904295799"><ele>64.0</ele><time>2026-03-29T13:09:46Z</time></trkpt><trkpt lat="39.30730133779097" lon="16.050596628110398"><ele>63.666666666666664</ele><time>2026-03-29T13:09:48Z</time></trkpt><trkpt lat="39.30732545443774" lon="16.050504394195904"><ele>63.33333333333333</ele><time>2026-03-29T13:09:50Z</time></trkpt><trkpt lat="39.307344640806065" lon="16.05041979022355"><ele>63.0</ele><time>2026-03-29T13:09:52Z</time></trkpt><trkpt lat="39.30736621227351" lon="16.050300830671933"><ele>62.66666666666667</ele><time>2026-03-29T13:09:55Z</time></trkpt><trkpt lat="39.30739077042494" lon="16.050184126710498"><ele>62.333333333333336</ele><time>2026-03-29T13:09:58Z</time></trkpt><trkpt lat="39.3074343073037" lon="16.05010581293949"><ele>62.0</ele><time>2026-03-29T13:10:00Z</time></trkpt><trkpt lat="39.307464473130445" lon="16.050030796822746"><ele>62.0</ele><time>2026-03-29T13:10:02Z</time></trkpt><trkpt lat="39.30749974750665" lon="16.049963370429367"><ele>62.0</ele><time>2026-03-29T13:10:07.001Z</time></trkpt><trkpt lat="39.307382526708665" lon="16.049867546768766"><ele>62.0</ele><time>2026-03-29T13:10:17.001Z</time></trkpt><trkpt lat="39.30730503424072" lon="16.049838358975002"><ele>62.0</ele><time>2026-03-29T13:10:19.001Z</time></trkpt><trkpt lat="39.30722297145281" lon="16.049811723460866"><ele>62.0</ele><time>2026-03-29T13:10:21.001Z</time></trkpt><trkpt lat="39.30713739548847" lon="16.04978394762638"><ele>61.66666666666667</ele><time>2026-03-29T13:10:23.001Z</time></trkpt><trkpt lat="39.30704616018831" lon="16.049752014164103"><ele>61.333333333333336</ele><time>2026-03-29T13:10:25.001Z</time></trkpt><trkpt lat="39.306958065341256" lon="16.049720094456923"><ele>61.0</ele><time>2026-03-29T13:10:27.001Z</time></trkpt><trkpt lat="39.30686842681632" lon="16.04968399290477"><ele>60.66666666666667</ele><time>2026-03-29T13:10:29.001Z</time></trkpt><trkpt lat="39.30679204503747" lon="16.049649249888372"><ele>60.333333333333336</ele><time>2026-03-29T13:10:31.001Z</time></trkpt><trkpt lat="39.30672213122581" lon="16.049626095352718"><ele>60.0</ele><time>2026-03-29T13:10:33.001Z</time></trkpt><trkpt lat="39.30665871447022" lon="16.049638199895867"><ele>60.0</ele><time>2026-03-29T13:10:35.001Z</time></trkpt><trkpt lat="39.30657100264255" lon="16.049652729724535"><ele>60.0</ele><time>2026-03-29T13:10:38Z</time></trkpt><trkpt lat="39.30646970801059" lon="16.049639875896705"><ele>60.0</ele><time>2026-03-29T13:10:41Z</time></trkpt><trkpt lat="39.30639444020332" lon="16.049554254856897"><ele>60.0</ele><time>2026-03-29T13:10:43Z</time></trkpt><trkpt lat="39.30630919863756" lon="16.04947126641924"><ele>60.0</ele><time>2026-03-29T13:10:45Z</time></trkpt><trkpt lat="39.3062239982949" lon="16.04937613937449"><ele>57.666666666666664</ele><time>2026-03-29T13:10:47Z</time></trkpt><trkpt lat="39.306146731630186" lon="16.049277338380463"><ele>55.333333333333336</ele><time>2026-03-29T13:10:49Z</time></trkpt><trkpt lat="39.30607813432277" lon="16.04918696144125"><ele>53.0</ele><time>2026-03-29T13:10:51Z</time></trkpt><trkpt lat="39.30602341081642" lon="16.04910443108699"><ele>50.66666666666667</ele><time>2026-03-29T13:10:53Z</time></trkpt><trkpt lat="39.30597642286526" lon="16.049032359069066"><ele>48.333333333333336</ele><time>2026-03-29T13:10:55Z</time></trkpt><trkpt lat="39.30592811092722" lon="16.04896023915085"><ele>46.0</ele><time>2026-03-29T13:10:57Z</time></trkpt><trkpt lat="39.305881830057395" lon="16.048890705474772"><ele>46.0</ele><time>2026-03-29T13:10:59Z</time></trkpt><trkpt lat="39.30583558793289" lon="16.04881050773946"><ele>46.0</ele><time>2026-03-29T13:11:01Z</time></trkpt><trkpt lat="39.30579623303709" lon="16.048718358933105"><ele>46.0</ele><time>2026-03-29T13:11:03Z</time></trkpt><trkpt lat="39.30576822799886" lon="16.048606942458235"><ele>46.0</ele><time>2026-03-29T13:11:05Z</time></trkpt><trkpt lat="39.305758301499864" lon="16.048480325141888"><ele>46.0</ele><time>2026-03-29T13:11:07Z</time></trkpt><trkpt lat="39.30575070769393" lon="16.048350157026192"><ele>46.0</ele><time>2026-03-29T13:11:09Z</time></trkpt><trkpt lat="39.3057470353625" lon="16.048212295749057"><ele>42.0</ele><time>2026-03-29T13:11:11Z</time></trkpt><trkpt lat="39.30575089244892" lon="16.04807223122326"><ele>38.0</ele><time>2026-03-29T13:11:13Z</time></trkpt><trkpt lat="39.30576822581563" lon="16.047947119118444"><ele>34.0</ele><time>2026-03-29T13:11:15Z</time></trkpt><trkpt lat="39.305820161294214" lon="16.047857264800463"><ele>30.0</ele><time>2026-03-29T13:11:17Z</time></trkpt><trkpt lat="39.305899474492705" lon="16.047803585861637"><ele>26.0</ele><time>2026-03-29T13:11:19Z</time></trkpt><trkpt lat="39.30599252508913" lon="16.047797481784695"><ele>26.0</ele><time>2026-03-29T13:11:21Z</time></trkpt><trkpt lat="39.3060829090269" lon="16.04781568986251"><ele>26.0</ele><time>2026-03-29T13:11:23Z</time></trkpt><trkpt lat="39.30617376165008" lon="16.047839862057785"><ele>26.0</ele><time>2026-03-29T13:11:25Z</time></trkpt><trkpt lat="39.306265868924" lon="16.047841027621793"><ele>26.0</ele><time>2026-03-29T13:11:27Z</time></trkpt><trkpt lat="39.30634237320132" lon="16.047833573031753"><ele>26.0</ele><time>2026-03-29T13:11:29Z</time></trkpt><trkpt lat="39.30644559706158" lon="16.047830599284072"><ele>27.8</ele><time>2026-03-29T13:11:31Z</time></trkpt><trkpt lat="39.3065615723522" lon="16.0478338475359"><ele>29.6</ele><time>2026-03-29T13:11:33Z</time></trkpt><trkpt lat="39.30665644283684" lon="16.04782872832552"><ele>31.4</ele><time>2026-03-29T13:11:35Z</time></trkpt><trkpt lat="39.30674228836051" lon="16.04780695447513"><ele>33.2</ele><time>2026-03-29T13:11:37Z</time></trkpt><trkpt lat="39.30683254075622" lon="16.047767075038646"><ele>35.0</ele><time>2026-03-29T13:11:39Z</time></trkpt><trkpt lat="39.306920600055435" lon="16.047689093505472"><ele>35.0</ele><time>2026-03-29T13:11:41Z</time></trkpt><trkpt lat="39.30700594931701" lon="16.047586482013852"><ele>35.0</ele><time>2026-03-29T13:11:43Z</time></trkpt><trkpt lat="39.30708870026029" lon="16.047482016577572"><ele>35.0</ele><time>2026-03-29T13:11:45Z</time></trkpt><trkpt lat="39.307177094742094" lon="16.04739203946581"><ele>35.0</ele><time>2026-03-29T13:11:47Z</time></trkpt><trkpt lat="39.30727233972746" lon="16.047335816368008"><ele>35.0</ele><time>2026-03-29T13:11:49Z</time></trkpt><trkpt lat="39.30737397285123" lon="16.047282030124517"><ele>31.999999999999996</ele><time>2026-03-29T13:11:51Z</time></trkpt><trkpt lat="39.307470667407514" lon="16.04724357713335"><ele>29.0</ele><time>2026-03-29T13:11:53Z</time></trkpt><trkpt lat="39.30755498574441" lon="16.04721030779761"><ele>26.0</ele><time>2026-03-29T13:11:55Z</time></trkpt><trkpt lat="39.30763419369722" lon="16.047179592154325"><ele>23.0</ele><time>2026-03-29T13:11:57Z</time></trkpt><trkpt lat="39.30772028549666" lon="16.04716457134385"><ele>20.0</ele><time>2026-03-29T13:11:59Z</time></trkpt><trkpt lat="39.30779944022768" lon="16.047162157186264"><ele>17.0</ele><time>2026-03-29T13:12:01Z</time></trkpt><trkpt lat="39.307874681492805" lon="16.047178125668637"><ele>17.0</ele><time>2026-03-29T13:12:03Z</time></trkpt><trkpt lat="39.30795824743506" lon="16.04724398502625"><ele>17.0</ele><time>2026-03-29T13:12:05Z</time></trkpt><trkpt lat="39.30804712889562" lon="16.047315993012674"><ele>17.0</ele><time>2026-03-29T13:12:07Z</time></trkpt><trkpt lat="39.30813872058425" lon="16.04739427393709"><ele>17.0</ele><time>2026-03-29T13:12:09Z</time></trkpt><trkpt lat="39.30820770299214" lon="16.04745284794815"><ele>17.0</ele><time>2026-03-29T13:12:11.001Z</time></trkpt><trkpt lat="39.30826676734704" lon="16.04750473096316"><ele>19.833333333333336</ele><time>2026-03-29T13:12:13.001Z</time></trkpt><trkpt lat="39.30832455417112" lon="16.047577122259778"><ele>22.666666666666668</ele><time>2026-03-29T13:12:15.001Z</time></trkpt><trkpt lat="39.30836471280888" lon="16.04767112815616"><ele>25.5</ele><time>2026-03-29T13:12:17.001Z</time></trkpt><trkpt lat="39.30836548040761" lon="16.04778398921526"><ele>28.333333333333336</ele><time>2026-03-29T13:12:19.001Z</time></trkpt><trkpt lat="39.308305638345836" lon="16.0478807033262"><ele>31.166666666666668</ele><time>2026-03-29T13:12:21.001Z</time></trkpt><trkpt lat="39.30825226332493" lon="16.04793929319099"><ele>34.0</ele><time>2026-03-29T13:12:23.001Z</time></trkpt><trkpt lat="39.30820162696818" lon="16.048009854285596"><ele>34.0</ele><time>2026-03-29T13:12:25.001Z</time></trkpt><trkpt lat="39.308193407181165" lon="16.048121963690512"><ele>34.0</ele><time>2026-03-29T13:12:27.001Z</time></trkpt><trkpt lat="39.30817440424751" lon="16.0482395316093"><ele>34.0</ele><time>2026-03-29T13:12:29.001Z</time></trkpt><trkpt lat="39.30817876962128" lon="16.048358461039005"><ele>34.0</ele><time>2026-03-29T13:12:31.001Z</time></trkpt><trkpt lat="39.30819866855085" lon="16.04848193543819"><ele>34.0</ele><time>2026-03-29T13:12:33.001Z</time></trkpt><trkpt lat="39.30823562915107" lon="16.048587463171817"><ele>36.16666666666667</ele><time>2026-03-29T13:12:35.001Z</time></trkpt><trkpt lat="39.30829755137768" lon="16.048686848070446"><ele>38.333333333333336</ele><time>2026-03-29T13:12:38.001Z</time></trkpt><trkpt lat="39.30835371780387" lon="16.048743969913847"><ele>40.5</ele><time>2026-03-29T13:12:40.001Z</time></trkpt><trkpt lat="39.30844265500111" lon="16.048766818784493"><ele>42.666666666666664</ele><time>2026-03-29T13:12:43.001Z</time></trkpt><trkpt lat="39.30851274266123" lon="16.04882109779129"><ele>44.83333333333333</ele><time>2026-03-29T13:12:45Z</time></trkpt><trkpt lat="39.308585806456634" lon="16.048882867967887"><ele>47.0</ele><time>2026-03-29T13:12:47Z</time></trkpt><trkpt lat="39.30865232614112" lon="16.048944685137297"><ele>47.0</ele><time>2026-03-29T13:12:49Z</time></trkpt><trkpt lat="39.30870402688544" lon="16.04904032850766"><ele>47.0</ele><time>2026-03-29T13:12:51Z</time></trkpt><trkpt lat="39.30874288124859" lon="16.04917347210532"><ele>47.0</ele><time>2026-03-29T13:12:53Z</time></trkpt><trkpt lat="39.30876846727721" lon="16.04931568644253"><ele>47.0</ele><time>2026-03-29T13:12:55Z</time></trkpt><trkpt lat="39.30879314048848" lon="16.049454396475543"><ele>47.0</ele><time>2026-03-29T13:12:57Z</time></trkpt><trkpt lat="39.30883358477312" lon="16.049580086599644"><ele>46.8</ele><time>2026-03-29T13:12:59Z</time></trkpt><trkpt lat="39.308906112544356" lon="16.04967448451406"><ele>46.6</ele><time>2026-03-29T13:13:01Z</time></trkpt><trkpt lat="39.308999003672554" lon="16.049706266611455"><ele>46.4</ele><time>2026-03-29T13:13:03Z</time></trkpt><trkpt lat="39.309086030507885" lon="16.049636298108915"><ele>46.199999999999996</ele><time>2026-03-29T13:13:05Z</time></trkpt><trkpt lat="39.30917194109611" lon="16.049580915853614"><ele>46.0</ele><time>2026-03-29T13:13:07Z</time></trkpt><trkpt lat="39.30924320438345" lon="16.049500162682282"><ele>46.0</ele><time>2026-03-29T13:13:09Z</time></trkpt><trkpt lat="39.309311002208254" lon="16.04942427032622"><ele>46.0</ele><time>2026-03-29T13:13:11Z</time></trkpt><trkpt lat="39.3093865272576" lon="16.049361863246038"><ele>46.0</ele><time>2026-03-29T13:13:13Z</time></trkpt><trkpt lat="39.30946053156432" lon="16.04932126814897"><ele>46.0</ele><time>2026-03-29T13:13:15Z</time></trkpt><trkpt lat="39.3095392947273" lon="16.049348915500346"><ele>46.0</ele><time>2026-03-29T13:13:18Z</time></trkpt><trkpt lat="39.30949284110875" lon="16.049502772929674"><ele>46.0</ele><time>2026-03-29T13:13:24Z</time></trkpt><trkpt lat="39.309430436533084" lon="16.049573491844463"><ele>46.0</ele><time>2026-03-29T13:13:26Z</time></trkpt><trkpt lat="39.30936195879414" lon="16.049652829849652"><ele>46.0</ele><time>2026-03-29T13:13:28Z</time></trkpt><trkpt lat="39.30928981736535" lon="16.04972839222935"><ele>46.0</ele><time>2026-03-29T13:13:30Z</time></trkpt><trkpt lat="39.30921348409286" lon="16.049789869051803"><ele>46.0</ele><time>2026-03-29T13:13:32Z</time></trkpt><trkpt lat="39.309147840221854" lon="16.04985538423996"><ele>46.0</ele><time>2026-03-29T13:13:34Z</time></trkpt><trkpt lat="39.30903583848294" lon="16.0498174710644"><ele>46.0</ele><time>2026-03-29T13:13:36Z</time></trkpt><trkpt lat="39.308960654606686" lon="16.04985960409533"><ele>46.0</ele><time>2026-03-29T13:13:38Z</time></trkpt><trkpt lat="39.30890127517208" lon="16.049956147706673"><ele>46.0</ele><time>2026-03-29T13:13:40Z</time></trkpt><trkpt lat="39.30883521137632" lon="16.05003138732608"><ele>46.0</ele><time>2026-03-29T13:13:42Z</time></trkpt><trkpt lat="39.30879098963817" lon="16.050126741437598"><ele>46.0</ele><time>2026-03-29T13:13:44Z</time></trkpt><trkpt lat="39.30871550514025" lon="16.05007687185719"><ele>46.0</ele><time>2026-03-29T13:13:45Z</time></trkpt><trkpt lat="39.30876287045524" lon="16.0502338777631"><ele>47.5</ele><time>2026-03-29T13:13:46Z</time></trkpt><trkpt lat="39.30872997788521" lon="16.050339822715927"><ele>49.0</ele><time>2026-03-29T13:13:48Z</time></trkpt><trkpt lat="39.30869454025036" lon="16.05043913999428"><ele>50.5</ele><time>2026-03-29T13:13:50Z</time></trkpt><trkpt lat="39.30866140180766" lon="16.050530101680554"><ele>52.0</ele><time>2026-03-29T13:13:52Z</time></trkpt><trkpt lat="39.3086216350408" lon="16.05060776911481"><ele>53.49999999999999</ele><time>2026-03-29T13:13:54Z</time></trkpt><trkpt lat="39.308568999120006" lon="16.050674215492663"><ele>55.0</ele><time>2026-03-29T13:13:56Z</time></trkpt><trkpt lat="39.30850270192976" lon="16.05072163985206"><ele>54.99999999999999</ele><time>2026-03-29T13:13:58Z</time></trkpt><trkpt lat="39.30842348917132" lon="16.05074694590244"><ele>55.0</ele><time>2026-03-29T13:14:00Z</time></trkpt><trkpt lat="39.3083434780371" lon="16.05076273950199"><ele>55.0</ele><time>2026-03-29T13:14:02Z</time></trkpt><trkpt lat="39.308271591834185" lon="16.05077329333948"><ele>55.0</ele><time>2026-03-29T13:14:04Z</time></trkpt><trkpt lat="39.30819832147364" lon="16.050784958469293"><ele>54.99999999999999</ele><time>2026-03-29T13:14:06Z</time></trkpt><trkpt lat="39.308118515974094" lon="16.050771149742253"><ele>55.0</ele><time>2026-03-29T13:14:08Z</time></trkpt><trkpt lat="39.308037104496044" lon="16.050735964953073"><ele>56.166666666666664</ele><time>2026-03-29T13:14:10Z</time></trkpt><trkpt lat="39.30797092109545" lon="16.05066204285691"><ele>57.33333333333333</ele><time>2026-03-29T13:14:12Z</time></trkpt><trkpt lat="39.30792406734498" lon="16.050571160340958"><ele>58.5</ele><time>2026-03-29T13:14:14Z</time></trkpt><trkpt lat="39.30787834469772" lon="16.050480775311534"><ele>59.66666666666667</ele><time>2026-03-29T13:14:16Z</time></trkpt><trkpt lat="39.30783431904509" lon="16.050384449350616"><ele>60.833333333333336</ele><time>2026-03-29T13:14:18.001Z</time></trkpt><trkpt lat="39.30779333820638" lon="16.05029446846837"><ele>62.0</ele><time>2026-03-29T13:14:20.001Z</time></trkpt><trkpt lat="39.30775461400968" lon="16.05018194544728"><ele>62.00000000000001</ele><time>2026-03-29T13:14:23.001Z</time></trkpt><trkpt lat="39.30773523665694" lon="16.050090275176977"><ele>62.0</ele><time>2026-03-29T13:14:25.001Z</time></trkpt><trkpt lat="39.30767480645329" lon="16.050056496396923"><ele>62.0</ele><time>2026-03-29T13:14:27.001Z</time></trkpt><trkpt lat="39.30760333989712" lon="16.050007569722425"><ele>62.0</ele><time>2026-03-29T13:14:29.001Z</time></trkpt><trkpt lat="39.30755251948185" lon="16.049927004499533"><ele>62.00000000000001</ele><time>2026-03-29T13:14:32Z</time></trkpt><trkpt lat="39.307472066803015" lon="16.04991505653629"><ele>62.0</ele><time>2026-03-29T13:14:34Z</time></trkpt><trkpt lat="39.307396209057615" lon="16.04988200317863"><ele>62.2</ele><time>2026-03-29T13:14:36Z</time></trkpt><trkpt lat="39.30730851751892" lon="16.049861436297054"><ele>62.400000000000006</ele><time>2026-03-29T13:14:38Z</time></trkpt><trkpt lat="39.307225275212396" lon="16.049837384290704"><ele>62.599999999999994</ele><time>2026-03-29T13:14:40Z</time></trkpt><trkpt lat="39.30711779738545" lon="16.049796092889743"><ele>62.8</ele><time>2026-03-29T13:14:42Z</time></trkpt><trkpt lat="39.307022925641746" lon="16.049747837452003"><ele>63.0</ele><time>2026-03-29T13:14:44Z</time></trkpt><trkpt lat="39.30692845401614" lon="16.04970768963305"><ele>62.5</ele><time>2026-03-29T13:14:46Z</time></trkpt><trkpt lat="39.30684130037469" lon="16.04967378271605"><ele>62.0</ele><time>2026-03-29T13:14:48Z</time></trkpt><trkpt lat="39.306761168177644" lon="16.049652184013148"><ele>61.5</ele><time>2026-03-29T13:14:50Z</time></trkpt><trkpt lat="39.306690717114165" lon="16.049646785727976"><ele>61.0</ele><time>2026-03-29T13:14:52Z</time></trkpt><trkpt lat="39.3066248002375" lon="16.04968201907885"><ele>60.5</ele><time>2026-03-29T13:14:54Z</time></trkpt><trkpt lat="39.30655394084569" lon="16.049741674699355"><ele>60.0</ele><time>2026-03-29T13:14:57Z</time></trkpt><trkpt lat="39.30644149200018" lon="16.049660369826938"><ele>57.333333333333336</ele><time>2026-03-29T13:15:01Z</time></trkpt><trkpt lat="39.30637279586386" lon="16.049591794417847"><ele>54.666666666666664</ele><time>2026-03-29T13:15:03Z</time></trkpt><trkpt lat="39.306302821497084" lon="16.049519483765057"><ele>52.0</ele><time>2026-03-29T13:15:05Z</time></trkpt><trkpt lat="39.30623097891633" lon="16.04945116868777"><ele>49.33333333333333</ele><time>2026-03-29T13:15:07Z</time></trkpt><trkpt lat="39.30617090342641" lon="16.0493784534663"><ele>46.666666666666664</ele><time>2026-03-29T13:15:09Z</time></trkpt><trkpt lat="39.30611169438466" lon="16.049289879762654"><ele>44.0</ele><time>2026-03-29T13:15:11Z</time></trkpt><trkpt lat="39.30605876597224" lon="16.049195419532925"><ele>44.400000000000006</ele><time>2026-03-29T13:15:13Z</time></trkpt><trkpt lat="39.30600310080466" lon="16.049098638056318"><ele>44.8</ele><time>2026-03-29T13:15:15Z</time></trkpt><trkpt lat="39.3059476136667" lon="16.04900813593455"><ele>45.2</ele><time>2026-03-29T13:15:17Z</time></trkpt><trkpt lat="39.30589542528397" lon="16.048919037112928"><ele>45.599999999999994</ele><time>2026-03-29T13:15:19Z</time></trkpt><trkpt lat="39.30584424906702" lon="16.04882697777662"><ele>46.0</ele><time>2026-03-29T13:15:21Z</time></trkpt><trkpt lat="39.305798796062966" lon="16.048712732137588"><ele>46.0</ele><time>2026-03-29T13:15:23Z</time></trkpt><trkpt lat="39.30576497996134" lon="16.048597340724243"><ele>46.0</ele><time>2026-03-29T13:15:25Z</time></trkpt><trkpt lat="39.30574951908743" lon="16.04847193421877"><ele>46.0</ele><time>2026-03-29T13:15:27Z</time></trkpt><trkpt lat="39.305743244163025" lon="16.048346956577834"><ele>46.0</ele><time>2026-03-29T13:15:29Z</time></trkpt><trkpt lat="39.30574183165824" lon="16.048220142515536"><ele>46.0</ele><time>2026-03-29T13:15:31Z</time></trkpt><trkpt lat="39.30575928930475" lon="16.048094155853384"><ele>42.0</ele><time>2026-03-29T13:15:33Z</time></trkpt><trkpt lat="39.30577785897853" lon="16.047971514620436"><ele>38.0</ele><time>2026-03-29T13:15:35Z</time></trkpt><trkpt lat="39.305837107105404" lon="16.047871730507328"><ele>34.0</ele><time>2026-03-29T13:15:37Z</time></trkpt><trkpt lat="39.30592592498519" lon="16.047818920103637"><ele>30.0</ele><time>2026-03-29T13:15:39Z</time></trkpt><trkpt lat="39.30602336202289" lon="16.047821607623302"><ele>26.0</ele><time>2026-03-29T13:15:41Z</time></trkpt><trkpt lat="39.30611400584261" lon="16.047838075440165"><ele>26.0</ele><time>2026-03-29T13:15:43Z</time></trkpt><trkpt lat="39.30621216699082" lon="16.04785313164979"><ele>26.0</ele><time>2026-03-29T13:15:45Z</time></trkpt><trkpt lat="39.3063127022732" lon="16.047850670330195"><ele>26.0</ele><time>2026-03-29T13:15:47Z</time></trkpt><trkpt lat="39.30640896906866" lon="16.047849006355843"><ele>26.0</ele><time>2026-03-29T13:15:49Z</time></trkpt><trkpt lat="39.3065143825525" lon="16.047853031498473"><ele>26.0</ele><time>2026-03-29T13:15:51Z</time></trkpt><trkpt lat="39.30661739422029" lon="16.047850016206425"><ele>27.8</ele><time>2026-03-29T13:15:53Z</time></trkpt><trkpt lat="39.306705197512336" lon="16.04783388733936"><ele>29.6</ele><time>2026-03-29T13:15:55Z</time></trkpt><trkpt lat="39.30677842394494" lon="16.04780269007235"><ele>31.4</ele><time>2026-03-29T13:15:57Z</time></trkpt><trkpt lat="39.30686490231638" lon="16.047756383639545"><ele>33.2</ele><time>2026-03-29T13:15:59Z</time></trkpt><trkpt lat="39.30694178875637" lon="16.047681943106653"><ele>35.0</ele><time>2026-03-29T13:16:01Z</time></trkpt><trkpt lat="39.307018353042096" lon="16.047586368376688"><ele>35.0</ele><time>2026-03-29T13:16:03Z</time></trkpt><trkpt lat="39.30709976827873" lon="16.047488373860453"><ele>35.0</ele><time>2026-03-29T13:16:05Z</time></trkpt><trkpt lat="39.30718982951642" lon="16.047406791008438"><ele>35.0</ele><time>2026-03-29T13:16:07Z</time></trkpt><trkpt lat="39.30729959434963" lon="16.047344709905005"><ele>35.0</ele><time>2026-03-29T13:16:09Z</time></trkpt><trkpt lat="39.30740365568649" lon="16.047291670962718"><ele>31.4</ele><time>2026-03-29T13:16:11Z</time></trkpt><trkpt lat="39.30750643941269" lon="16.04724333189246"><ele>27.8</ele><time>2026-03-29T13:16:13Z</time></trkpt><trkpt lat="39.30760958670623" lon="16.047201381639777"><ele>24.2</ele><time>2026-03-29T13:16:15Z</time></trkpt><trkpt lat="39.307703957883405" lon="16.04717317788055"><ele>20.6</ele><time>2026-03-29T13:16:17Z</time></trkpt><trkpt lat="39.30778419377005" lon="16.047161962608644"><ele>17.0</ele><time>2026-03-29T13:16:19Z</time></trkpt><trkpt lat="39.30785950807987" lon="16.04715883781741"><ele>17.0</ele><time>2026-03-29T13:16:21Z</time></trkpt><trkpt lat="39.30792808763302" lon="16.047202330064643"><ele>17.0</ele><time>2026-03-29T13:16:23Z</time></trkpt><trkpt lat="39.30800179678403" lon="16.047266772975423"><ele>17.0</ele><time>2026-03-29T13:16:25Z</time></trkpt><trkpt lat="39.30808347175636" lon="16.04733517083965"><ele>17.0</ele><time>2026-03-29T13:16:27Z</time></trkpt><trkpt lat="39.30816558045375" lon="16.047405526691257"><ele>17.0</ele><time>2026-03-29T13:16:29Z</time></trkpt><trkpt lat="39.30823510182962" lon="16.047472789350806"><ele>17.0</ele><time>2026-03-29T13:16:31Z</time></trkpt><trkpt lat="39.30829807335166" lon="16.04753737731283"><ele>20.4</ele><time>2026-03-29T13:16:33Z</time></trkpt><trkpt lat="39.30835310985466" lon="16.047628380025582"><ele>23.799999999999997</ele><time>2026-03-29T13:16:35Z</time></trkpt><trkpt lat="39.30838070818863" lon="16.047739098133558"><ele>27.2</ele><time>2026-03-29T13:16:37Z</time></trkpt><trkpt lat="39.30833814515686" lon="16.047852552006358"><ele>30.599999999999998</ele><time>2026-03-29T13:16:39Z</time></trkpt><trkpt lat="39.308261039607224" lon="16.047926762310837"><ele>34.0</ele><time>2026-03-29T13:16:41Z</time></trkpt><trkpt lat="39.30819927009562" lon="16.048001600988375"><ele>34.0</ele><time>2026-03-29T13:16:43Z</time></trkpt><trkpt lat="39.30819240544265" lon="16.048127974502314"><ele>34.0</ele><time>2026-03-29T13:16:45Z</time></trkpt><trkpt lat="39.30817495976967" lon="16.04826442769841"><ele>34.0</ele><time>2026-03-29T13:16:47Z</time></trkpt><trkpt lat="39.30818336566009" lon="16.04839942750767"><ele>34.0</ele><time>2026-03-29T13:16:49Z</time></trkpt><trkpt lat="39.308210580401706" lon="16.048515237284622"><ele>34.0</ele><time>2026-03-29T13:16:51Z</time></trkpt><trkpt lat="39.308247419782525" lon="16.048610574528283"><ele>36.6</ele><time>2026-03-29T13:16:53Z</time></trkpt><trkpt lat="39.30830290570585" lon="16.04869353283981"><ele>39.2</ele><time>2026-03-29T13:16:55Z</time></trkpt><trkpt lat="39.30837377312198" lon="16.04876084558865"><ele>41.800000000000004</ele><time>2026-03-29T13:16:57Z</time></trkpt><trkpt lat="39.3084755955094" lon="16.048787086808208"><ele>44.4</ele><time>2026-03-29T13:16:59Z</time></trkpt><trkpt lat="39.30856643885669" lon="16.048853342722957"><ele>47.0</ele><time>2026-03-29T13:17:01Z</time></trkpt><trkpt lat="39.30865912047997" lon="16.048938225837"><ele>47.0</ele><time>2026-03-29T13:17:03Z</time></trkpt><trkpt lat="39.30872514617406" lon="16.0490545277443"><ele>47.0</ele><time>2026-03-29T13:17:05Z</time></trkpt><trkpt lat="39.308748943712054" lon="16.049131265846107"><ele>47.0</ele><time>2026-03-29T13:17:06Z</time></trkpt><trkpt lat="39.3087476300332" lon="16.049218650887493"><ele>47.0</ele><time>2026-03-29T13:17:07Z</time></trkpt><trkpt lat="39.308759810567864" lon="16.049301465045744"><ele>47.0</ele><time>2026-03-29T13:17:08Z</time></trkpt><trkpt lat="39.30878623496195" lon="16.049455596897197"><ele>47.0</ele><time>2026-03-29T13:17:10Z</time></trkpt><trkpt lat="39.30883679358928" lon="16.04958654298902"><ele>46.8</ele><time>2026-03-29T13:17:12Z</time></trkpt><trkpt lat="39.30892182132584" lon="16.04967129360203"><ele>46.6</ele><time>2026-03-29T13:17:14Z</time></trkpt><trkpt lat="39.3090166872116" lon="16.049698832884893"><ele>46.4</ele><time>2026-03-29T13:17:16Z</time></trkpt><trkpt lat="39.30910786716052" lon="16.049620391980657"><ele>46.199999999999996</ele><time>2026-03-29T13:17:18Z</time></trkpt><trkpt lat="39.3091934119164" lon="16.04953469204257"><ele>46.0</ele><time>2026-03-29T13:17:20Z</time></trkpt><trkpt lat="39.30926786752836" lon="16.049446819442828"><ele>46.0</ele><time>2026-03-29T13:17:22Z</time></trkpt><trkpt lat="39.30935556679602" lon="16.04938769147799"><ele>46.0</ele><time>2026-03-29T13:17:24Z</time></trkpt><trkpt lat="39.30944833269139" lon="16.04934222913946"><ele>46.0</ele><time>2026-03-29T13:17:26Z</time></trkpt><trkpt lat="39.30952511691378" lon="16.049344547176194"><ele>46.0</ele><time>2026-03-29T13:17:28Z</time></trkpt><trkpt lat="39.309599581081244" lon="16.049386774675174"><ele>46.0</ele><time>2026-03-29T13:17:31Z</time></trkpt><trkpt lat="39.30968778132841" lon="16.049417006376366"><ele>46.0</ele><time>2026-03-29T13:17:33Z</time></trkpt><trkpt lat="39.30979819316872" lon="16.04949088954578"><ele>45.42857142857143</ele><time>2026-03-29T13:17:35Z</time></trkpt><trkpt lat="39.309858619453" lon="16.04953608329305"><ele>44.857142857142854</ele><time>2026-03-29T13:17:36Z</time></trkpt><trkpt lat="39.30992035407448" lon="16.049582255802672"><ele>44.285714285714285</ele><time>2026-03-29T13:17:37Z</time></trkpt><trkpt lat="39.30998044891543" lon="16.049629076439096"><ele>43.714285714285715</ele><time>2026-03-29T13:17:38Z</time></trkpt><trkpt lat="39.31004058677361" lon="16.049676810522048"><ele>43.14285714285714</ele><time>2026-03-29T13:17:39Z</time></trkpt><trkpt lat="39.31010075960767" lon="16.0497220981791"><ele>42.57142857142857</ele><time>2026-03-29T13:17:40Z</time></trkpt><trkpt lat="39.310159345258846" lon="16.04976521892547"><ele>42.0</ele><time>2026-03-29T13:17:41Z</time></trkpt><trkpt lat="39.31021671248715" lon="16.049809593170473"><ele>42.0</ele><time>2026-03-29T13:17:42Z</time></trkpt><trkpt lat="39.31028336314857" lon="16.049838037908913"><ele>42.0</ele><time>2026-03-29T13:17:43Z</time></trkpt><trkpt lat="39.31033952697674" lon="16.04989067487556"><ele>42.0</ele><time>2026-03-29T13:17:44Z</time></trkpt><trkpt lat="39.31039946135688" lon="16.049939468622853"><ele>42.0</ele><time>2026-03-29T13:17:45Z</time></trkpt><trkpt lat="39.31046079242365" lon="16.04999418577675"><ele>42.0</ele><time>2026-03-29T13:17:46Z</time></trkpt><trkpt lat="39.31052485342705" lon="16.050045924110627"><ele>42.0</ele><time>2026-03-29T13:17:47Z</time></trkpt><trkpt lat="39.31058940432519" lon="16.05009816184436"><ele>42.0</ele><time>2026-03-29T13:17:48Z</time></trkpt><trkpt lat="39.31065563717854" lon="16.050145847134786"><ele>44.0</ele><time>2026-03-29T13:17:49Z</time></trkpt><trkpt lat="39.310717919587425" lon="16.050186825164506"><ele>46.0</ele><time>2026-03-29T13:17:50Z</time></trkpt><trkpt lat="39.31077543295631" lon="16.050220544412774"><ele>48.0</ele><time>2026-03-29T13:17:51Z</time></trkpt><trkpt lat="39.31089447212192" lon="16.05026990681182"><ele>50.0</ele><time>2026-03-29T13:17:53Z</time></trkpt><trkpt lat="39.31096305761853" lon="16.05027959489692"><ele>52.0</ele><time>2026-03-29T13:17:54Z</time></trkpt><trkpt lat="39.31107780922274" lon="16.0502858477766"><ele>54.0</ele><time>2026-03-29T13:17:56Z</time></trkpt><trkpt lat="39.311169960329494" lon="16.050284046020966"><ele>54.0</ele><time>2026-03-29T13:17:58Z</time></trkpt><trkpt lat="39.31118188092818" lon="16.050096120598138"><ele>54.00000000000001</ele><time>2026-03-29T13:18:02Z</time></trkpt><trkpt lat="39.31117877086938" lon="16.049957911631793"><ele>54.00000000000001</ele><time>2026-03-29T13:18:04Z</time></trkpt><trkpt lat="39.311196394608224" lon="16.04984992466189"><ele>54.0</ele><time>2026-03-29T13:18:05.999Z</time></trkpt><trkpt lat="39.31118905277961" lon="16.04974696806162"><ele>54.0</ele><time>2026-03-29T13:18:07.999Z</time></trkpt><trkpt lat="39.31118372069567" lon="16.049641742425177"><ele>51.666666666666664</ele><time>2026-03-29T13:18:09.999Z</time></trkpt><trkpt lat="39.31115294141988" lon="16.049548014939745"><ele>49.333333333333336</ele><time>2026-03-29T13:18:11.999Z</time></trkpt><trkpt lat="39.311059842076155" lon="16.049508592354055"><ele>47.0</ele><time>2026-03-29T13:18:13.999Z</time></trkpt><trkpt lat="39.31096627666412" lon="16.049493423976983"><ele>44.66666666666667</ele><time>2026-03-29T13:18:15.999Z</time></trkpt><trkpt lat="39.3108904952081" lon="16.049479620988265"><ele>42.333333333333336</ele><time>2026-03-29T13:18:17.999Z</time></trkpt><trkpt lat="39.310812812238424" lon="16.04943253305816"><ele>40.0</ele><time>2026-03-29T13:18:19.999Z</time></trkpt><trkpt lat="39.31076981931012" lon="16.0492954254512"><ele>40.0</ele><time>2026-03-29T13:18:21.999Z</time></trkpt><trkpt lat="39.3107314705248" lon="16.04914022886914"><ele>40.0</ele><time>2026-03-29T13:18:23.999Z</time></trkpt><trkpt lat="39.310645930607784" lon="16.04902809977963"><ele>40.0</ele><time>2026-03-29T13:18:25.999Z</time></trkpt><trkpt lat="39.31058503972653" lon="16.048903967007025"><ele>40.0</ele><time>2026-03-29T13:18:27.999Z</time></trkpt><trkpt lat="39.31051477669666" lon="16.048825195502072"><ele>38.333333333333336</ele><time>2026-03-29T13:18:30Z</time></trkpt><trkpt lat="39.310449403062634" lon="16.048775162422476"><ele>36.66666666666667</ele><time>2026-03-29T13:18:32Z</time></trkpt><trkpt lat="39.310382906178916" lon="16.048697996425116"><ele>35.0</ele><time>2026-03-29T13:18:34Z</time></trkpt><trkpt lat="39.31032934209931" lon="16.04856839669431"><ele>33.333333333333336</ele><time>2026-03-29T13:18:36Z</time></trkpt><trkpt lat="39.31024803076225" lon="16.048487273139102"><ele>31.666666666666668</ele><time>2026-03-29T13:18:38Z</time></trkpt><trkpt lat="39.31021042653524" lon="16.048420141305765"><ele>30.0</ele><time>2026-03-29T13:18:41Z</time></trkpt><trkpt lat="39.31027715895827" lon="16.04829842970701"><ele>27.4</ele><time>2026-03-29T13:18:45Z</time></trkpt><trkpt lat="39.3103261498945" lon="16.048177784015376"><ele>24.8</ele><time>2026-03-29T13:18:47Z</time></trkpt><trkpt lat="39.31039546401296" lon="16.04804521239083"><ele>22.2</ele><time>2026-03-29T13:18:49Z</time></trkpt><trkpt lat="39.310452493048" lon="16.04790041410578"><ele>19.6</ele><time>2026-03-29T13:18:51Z</time></trkpt><trkpt lat="39.31047999352437" lon="16.047826571172603"><ele>17.0</ele><time>2026-03-29T13:18:52Z</time></trkpt><trkpt lat="39.31050605894183" lon="16.047751324897327"><ele>17.0</ele><time>2026-03-29T13:18:53Z</time></trkpt><trkpt lat="39.310548917884304" lon="16.047630945044947"><ele>17.0</ele><time>2026-03-29T13:18:55Z</time></trkpt><trkpt lat="39.31057000901269" lon="16.047544714744742"><ele>17.0</ele><time>2026-03-29T13:18:57Z</time></trkpt><trkpt lat="39.310474318160985" lon="16.04745930397116"><ele>17.0</ele><time>2026-03-29T13:19:01Z</time></trkpt><trkpt lat="39.31040042568228" lon="16.047492883990557"><ele>17.0</ele><time>2026-03-29T13:19:03Z</time></trkpt><trkpt lat="39.31032076649493" lon="16.047521136622635"><ele>17.0</ele><time>2026-03-29T13:19:05Z</time></trkpt><trkpt lat="39.31023497479185" lon="16.047532198716972"><ele>17.0</ele><time>2026-03-29T13:19:07Z</time></trkpt><trkpt lat="39.310128227984926" lon="16.047507652793048"><ele>17.0</ele><time>2026-03-29T13:19:09Z</time></trkpt><trkpt lat="39.31001897035443" lon="16.04746914016776"><ele>17.0</ele><time>2026-03-29T13:19:11Z</time></trkpt><trkpt lat="39.30992029646621" lon="16.047405096456586"><ele>17.0</ele><time>2026-03-29T13:19:13Z</time></trkpt><trkpt lat="39.3098231615002" lon="16.04735978906574"><ele>15.500000000000002</ele><time>2026-03-29T13:19:15Z</time></trkpt><trkpt lat="39.30972777742205" lon="16.047337841229716"><ele>14.0</ele><time>2026-03-29T13:19:17Z</time></trkpt><trkpt lat="39.30964330645483" lon="16.047291066815863"><ele>12.5</ele><time>2026-03-29T13:19:19Z</time></trkpt><trkpt lat="39.309563727179686" lon="16.047254149426934"><ele>11.0</ele><time>2026-03-29T13:19:21Z</time></trkpt><trkpt lat="39.30951722282074" lon="16.047199055285486"><ele>9.5</ele><time>2026-03-29T13:19:23Z</time></trkpt><trkpt lat="39.3094841777273" lon="16.047129381507872"><ele>8.0</ele><time>2026-03-29T13:19:26Z</time></trkpt><trkpt lat="39.30946130276052" lon="16.04703710922993"><ele>7.999999999999999</ele><time>2026-03-29T13:19:28Z</time></trkpt><trkpt lat="39.30944168685455" lon="16.046959031396003"><ele>8.0</ele><time>2026-03-29T13:19:30Z</time></trkpt><trkpt lat="39.30941918780031" lon="16.046868153196414"><ele>8.0</ele><time>2026-03-29T13:19:32Z</time></trkpt><trkpt lat="39.30939984077753" lon="16.046771965614916"><ele>8.0</ele><time>2026-03-29T13:19:34Z</time></trkpt><trkpt lat="39.309385092229526" lon="16.046672952536618"><ele>7.999999999999999</ele><time>2026-03-29T13:19:36Z</time></trkpt><trkpt lat="39.30937583632076" lon="16.0465536861784"><ele>8.0</ele><time>2026-03-29T13:19:38Z</time></trkpt><trkpt lat="39.3093567678023" lon="16.04641793666404"><ele>6.999999999999999</ele><time>2026-03-29T13:19:40Z</time></trkpt><trkpt lat="39.30933487932532" lon="16.046287222881723"><ele>6.0</ele><time>2026-03-29T13:19:42Z</time></trkpt><trkpt lat="39.309315927619025" lon="16.046171718564022"><ele>5.0</ele><time>2026-03-29T13:19:44Z</time></trkpt><trkpt lat="39.30929642437412" lon="16.046082331907442"><ele>4.0</ele><time>2026-03-29T13:19:46Z</time></trkpt><trkpt lat="39.3092967864581" lon="16.046000046787345"><ele>3.0</ele><time>2026-03-29T13:19:49Z</time></trkpt><trkpt lat="39.3092135742899" lon="16.04594685795401"><ele>2.0</ele><time>2026-03-29T13:19:52Z</time></trkpt><trkpt lat="39.30913129025331" lon="16.04597702729886"><ele>1.9999999999999998</ele><time>2026-03-29T13:19:54Z</time></trkpt><trkpt lat="39.309065140771395" lon="16.046000648420407"><ele>2.0</ele><time>2026-03-29T13:19:57Z</time></trkpt><trkpt lat="39.308995475364306" lon="16.046030682105293"><ele>2.0</ele><time>2026-03-29T13:20:00Z</time></trkpt><trkpt lat="39.30891785555071" lon="16.046057104002635"><ele>2.0</ele><time>2026-03-29T13:20:02Z</time></trkpt><trkpt lat="39.30882457228096" lon="16.04607794275201"><ele>1.9999999999999998</ele><time>2026-03-29T13:20:04Z</time></trkpt><trkpt lat="39.308722644228034" lon="16.04609781772693"><ele>2.0</ele><time>2026-03-29T13:20:06Z</time></trkpt><trkpt lat="39.30861036373145" lon="16.046117683424285"><ele>2.1666666666666665</ele><time>2026-03-29T13:20:08Z</time></trkpt><trkpt lat="39.30848731902263" lon="16.046136821280022"><ele>2.333333333333333</ele><time>2026-03-29T13:20:10Z</time></trkpt><trkpt lat="39.308422365325995" lon="16.04615052464159"><ele>2.5</ele><time>2026-03-29T13:20:11Z</time></trkpt><trkpt lat="39.30835633945967" lon="16.046166210100314"><ele>2.6666666666666665</ele><time>2026-03-29T13:20:12Z</time></trkpt><trkpt lat="39.308292121087305" lon="16.046182498280036"><ele>2.8333333333333335</ele><time>2026-03-29T13:20:13Z</time></trkpt><trkpt lat="39.30822853332374" lon="16.046199068391594"><ele>3.0</ele><time>2026-03-29T13:20:14Z</time></trkpt><trkpt lat="39.308163992524705" lon="16.046216463103832"><ele>2.9999999999999996</ele><time>2026-03-29T13:20:15Z</time></trkpt><trkpt lat="39.30809870137669" lon="16.046233593708145"><ele>3.0</ele><time>2026-03-29T13:20:16Z</time></trkpt><trkpt lat="39.308032801181625" lon="16.046251164496432"><ele>3.0</ele><time>2026-03-29T13:20:17Z</time></trkpt><trkpt lat="39.30796858100218" lon="16.04626818196556"><ele>3.0</ele><time>2026-03-29T13:20:18Z</time></trkpt><trkpt lat="39.30790532769159" lon="16.046283233240025"><ele>3.0</ele><time>2026-03-29T13:20:19Z</time></trkpt><trkpt lat="39.30784301151082" lon="16.0462983767998"><ele>2.9999999999999996</ele><time>2026-03-29T13:20:20Z</time></trkpt><trkpt lat="39.307724401955824" lon="16.04632148664117"><ele>3.0</ele><time>2026-03-29T13:20:22Z</time></trkpt><trkpt lat="39.30763225141849" lon="16.046339135990447"><ele>2.8</ele><time>2026-03-29T13:20:24Z</time></trkpt><trkpt lat="39.3075669367561" lon="16.046354123654947"><ele>2.5999999999999996</ele><time>2026-03-29T13:20:26.999Z</time></trkpt><trkpt lat="39.30748356067077" lon="16.046373324555468"><ele>2.4000000000000004</ele><time>2026-03-29T13:20:28.999Z</time></trkpt><trkpt lat="39.30736208567566" lon="16.046399022336583"><ele>2.2</ele><time>2026-03-29T13:20:30.999Z</time></trkpt><trkpt lat="39.30725210639383" lon="16.046422073264125"><ele>2.0</ele><time>2026-03-29T13:20:32.999Z</time></trkpt><trkpt lat="39.30713894106564" lon="16.046447935761066"><ele>1.8333333333333333</ele><time>2026-03-29T13:20:35Z</time></trkpt><trkpt lat="39.30707599619228" lon="16.046461443001743"><ele>1.6666666666666665</ele><time>2026-03-29T13:20:36Z</time></trkpt><trkpt lat="39.30695055474562" lon="16.046490454582425"><ele>1.5</ele><time>2026-03-29T13:20:38Z</time></trkpt><trkpt lat="39.30688794914261" lon="16.04650325389446"><ele>1.3333333333333333</ele><time>2026-03-29T13:20:39Z</time></trkpt><trkpt lat="39.3067675081029" lon="16.046533683920877"><ele>1.1666666666666665</ele><time>2026-03-29T13:20:41Z</time></trkpt><trkpt lat="39.306702684164655" lon="16.046549053963318"><ele>1.0</ele><time>2026-03-29T13:20:42Z</time></trkpt><trkpt lat="39.306582582249696" lon="16.04657701223465"><ele>1.0</ele><time>2026-03-29T13:20:44Z</time></trkpt><trkpt lat="39.306517801317234" lon="16.04657117680231"><ele>1.0</ele><time>2026-03-29T13:20:45Z</time></trkpt><trkpt lat="39.30639785431968" lon="16.04659425878359"><ele>1.0</ele><time>2026-03-29T13:20:47Z</time></trkpt><trkpt lat="39.30628250744191" lon="16.04661196509767"><ele>1.0</ele><time>2026-03-29T13:20:49Z</time></trkpt><trkpt lat="39.30617166491769" lon="16.04662605596552"><ele>1.0</ele><time>2026-03-29T13:20:51Z</time></trkpt><trkpt lat="39.30606241323985" lon="16.04665455862543"><ele>1.2000000000000002</ele><time>2026-03-29T13:20:53Z</time></trkpt><trkpt lat="39.30595626912816" lon="16.046663256181183"><ele>1.4000000000000001</ele><time>2026-03-29T13:20:55Z</time></trkpt><trkpt lat="39.30585283307975" lon="16.046675013057303"><ele>1.6</ele><time>2026-03-29T13:20:57Z</time></trkpt><trkpt lat="39.30574747537142" lon="16.046668428644086"><ele>1.8</ele><time>2026-03-29T13:20:59Z</time></trkpt><trkpt lat="39.30564892833227" lon="16.046684252411122"><ele>2.0</ele><time>2026-03-29T13:21:01Z</time></trkpt><trkpt lat="39.30556664306755" lon="16.046707284245656"><ele>2.0</ele><time>2026-03-29T13:21:04Z</time></trkpt><trkpt lat="39.30549234856021" lon="16.04673828443409"><ele>2.0</ele><time>2026-03-29T13:21:06Z</time></trkpt><trkpt lat="39.30541108394955" lon="16.046801778692302"><ele>2.0</ele><time>2026-03-29T13:21:08Z</time></trkpt><trkpt lat="39.30533397874026" lon="16.046851659377687"><ele>2.0</ele><time>2026-03-29T13:21:10Z</time></trkpt><trkpt lat="39.30524918694" lon="16.046886983994597"><ele>2.0</ele><time>2026-03-29T13:21:12Z</time></trkpt><trkpt lat="39.30517230078136" lon="16.046974114396843"><ele>2.0</ele><time>2026-03-29T13:21:14Z</time></trkpt><trkpt lat="39.30509900437875" lon="16.04705736022405"><ele>2.0</ele><time>2026-03-29T13:21:16Z</time></trkpt><trkpt lat="39.30503699391449" lon="16.0471389599889"><ele>2.0</ele><time>2026-03-29T13:21:18Z</time></trkpt><trkpt lat="39.30496747322998" lon="16.047230274513293"><ele>2.0</ele><time>2026-03-29T13:21:20Z</time></trkpt><trkpt lat="39.30489755536945" lon="16.047316663928637"><ele>2.0</ele><time>2026-03-29T13:21:22Z</time></trkpt><trkpt lat="39.304838658064796" lon="16.047389436475907"><ele>1.9999999999999998</ele><time>2026-03-29T13:21:24Z</time></trkpt><trkpt lat="39.30478831714937" lon="16.04745279471496"><ele>2.0</ele><time>2026-03-29T13:21:26Z</time></trkpt><trkpt lat="39.30474068728504" lon="16.047513184000806"><ele>2.0</ele><time>2026-03-29T13:21:28Z</time></trkpt><trkpt lat="39.30469386612684" lon="16.04759482971705"><ele>2.0</ele><time>2026-03-29T13:21:30Z</time></trkpt><trkpt lat="39.30462753777504" lon="16.047667084653554"><ele>1.9999999999999998</ele><time>2026-03-29T13:21:32Z</time></trkpt><trkpt lat="39.30455701423582" lon="16.04776025966513"><ele>2.0</ele><time>2026-03-29T13:21:34Z</time></trkpt><trkpt lat="39.3044745794926" lon="16.047870112698877"><ele>2.142857142857143</ele><time>2026-03-29T13:21:36Z</time></trkpt><trkpt lat="39.30443148419473" lon="16.04792960842332"><ele>2.2857142857142856</ele><time>2026-03-29T13:21:37Z</time></trkpt><trkpt lat="39.30437437377648" lon="16.047973256907802"><ele>2.4285714285714284</ele><time>2026-03-29T13:21:38Z</time></trkpt><trkpt lat="39.30432555588676" lon="16.04803554082482"><ele>2.571428571428571</ele><time>2026-03-29T13:21:39Z</time></trkpt><trkpt lat="39.30427855378741" lon="16.04809550796061"><ele>2.7142857142857144</ele><time>2026-03-29T13:21:40Z</time></trkpt><trkpt lat="39.30421087576364" lon="16.048181851647186"><ele>2.8571428571428568</ele><time>2026-03-29T13:21:42Z</time></trkpt><trkpt lat="39.30417381658723" lon="16.048256654576424"><ele>3.0</ele><time>2026-03-29T13:21:45Z</time></trkpt><trkpt lat="39.304121942102306" lon="16.0483204818956"><ele>2.6</ele><time>2026-03-29T13:21:47Z</time></trkpt><trkpt lat="39.304052070600505" lon="16.048406197566027"><ele>2.1999999999999997</ele><time>2026-03-29T13:21:49Z</time></trkpt><trkpt lat="39.30397604334332" lon="16.048498190712976"><ele>1.8</ele><time>2026-03-29T13:21:51Z</time></trkpt><trkpt lat="39.30388441923511" lon="16.04856708336608"><ele>1.4</ele><time>2026-03-29T13:21:53Z</time></trkpt><trkpt lat="39.30379743326103" lon="16.048665066748732"><ele>1.0</ele><time>2026-03-29T13:21:55Z</time></trkpt><trkpt lat="39.30369364827509" lon="16.048747865121722"><ele>1.0</ele><time>2026-03-29T13:21:57Z</time></trkpt><trkpt lat="39.30359392540372" lon="16.0488287508681"><ele>1.0</ele><time>2026-03-29T13:21:59Z</time></trkpt><trkpt lat="39.30349743207341" lon="16.0489012966368"><ele>1.0</ele><time>2026-03-29T13:22:01Z</time></trkpt><trkpt lat="39.30339871492194" lon="16.048967582859394"><ele>1.0</ele><time>2026-03-29T13:22:03Z</time></trkpt><trkpt lat="39.30329890475642" lon="16.04903174204235"><ele>1.0</ele><time>2026-03-29T13:22:05Z</time></trkpt><trkpt lat="39.303202784207514" lon="16.049092913938146"><ele>1.0</ele><time>2026-03-29T13:22:07Z</time></trkpt><trkpt lat="39.303106216279716" lon="16.049139236279906"><ele>1.0</ele><time>2026-03-29T13:22:09Z</time></trkpt><trkpt lat="39.302997723952565" lon="16.04917169411728"><ele>1.0</ele><time>2026-03-29T13:22:11Z</time></trkpt><trkpt lat="39.302886897711474" lon="16.049213077138266"><ele>1.0</ele><time>2026-03-29T13:22:13Z</time></trkpt><trkpt lat="39.302773048422345" lon="16.04925639316681"><ele>1.5</ele><time>2026-03-29T13:22:15Z</time></trkpt><trkpt lat="39.30265118921465" lon="16.049296063592955"><ele>2.0</ele><time>2026-03-29T13:22:17Z</time></trkpt><trkpt lat="39.30253593388885" lon="16.049336143708064"><ele>2.5</ele><time>2026-03-29T13:22:19Z</time></trkpt><trkpt lat="39.30242198453038" lon="16.049373612365564"><ele>3.0</ele><time>2026-03-29T13:22:21Z</time></trkpt><trkpt lat="39.30230535744137" lon="16.049412908265385"><ele>2.714285714285714</ele><time>2026-03-29T13:22:23Z</time></trkpt><trkpt lat="39.302242301514916" lon="16.04943518006556"><ele>2.4285714285714284</ele><time>2026-03-29T13:22:24Z</time></trkpt><trkpt lat="39.30217875116839" lon="16.049461796438308"><ele>2.142857142857143</ele><time>2026-03-29T13:22:25Z</time></trkpt><trkpt lat="39.302113529242554" lon="16.04948826261737"><ele>1.857142857142857</ele><time>2026-03-29T13:22:26Z</time></trkpt><trkpt lat="39.30204595010541" lon="16.049516079166512"><ele>1.5714285714285712</ele><time>2026-03-29T13:22:27Z</time></trkpt><trkpt lat="39.30197802683884" lon="16.049542973591908"><ele>1.2857142857142856</ele><time>2026-03-29T13:22:28Z</time></trkpt><trkpt lat="39.301881082455395" lon="16.0495799228408"><ele>1.0</ele><time>2026-03-29T13:22:30Z</time></trkpt><trkpt lat="39.30178286626321" lon="16.049618292405192"><ele>1.0</ele><time>2026-03-29T13:22:33Z</time></trkpt><trkpt lat="39.301682948020485" lon="16.04965951694788"><ele>1.0</ele><time>2026-03-29T13:22:35Z</time></trkpt><trkpt lat="39.30157924882992" lon="16.04970632993639"><ele>1.0</ele><time>2026-03-29T13:22:37Z</time></trkpt><trkpt lat="39.30146673494534" lon="16.049763121173854"><ele>1.0</ele><time>2026-03-29T13:22:39Z</time></trkpt><trkpt lat="39.30140824366358" lon="16.049797757564757"><ele>1.0</ele><time>2026-03-29T13:22:40.001Z</time></trkpt><trkpt lat="39.30134940881781" lon="16.049836206602855"><ele>0.8</ele><time>2026-03-29T13:22:41.001Z</time></trkpt><trkpt lat="39.30124200564966" lon="16.0499083300797"><ele>0.6000000000000001</ele><time>2026-03-29T13:22:43.001Z</time></trkpt><trkpt lat="39.30113857772651" lon="16.0499781872386"><ele>0.4</ele><time>2026-03-29T13:22:45.001Z</time></trkpt><trkpt lat="39.30108330474792" lon="16.050018619037186"><ele>0.2</ele><time>2026-03-29T13:22:46.001Z</time></trkpt><trkpt lat="39.30098046724606" lon="16.050096562703335"><ele>0.0</ele><time>2026-03-29T13:22:48.001Z</time></trkpt><trkpt lat="39.3008825270488" lon="16.050144362242136"><ele>0.25</ele><time>2026-03-29T13:22:50.001Z</time></trkpt><trkpt lat="39.30079025433699" lon="16.05020891891103"><ele>0.5</ele><time>2026-03-29T13:22:52.001Z</time></trkpt><trkpt lat="39.30069706960846" lon="16.05027702368366"><ele>0.75</ele><time>2026-03-29T13:22:54.001Z</time></trkpt><trkpt lat="39.300599985073895" lon="16.050364728135055"><ele>1.0</ele><time>2026-03-29T13:22:56Z</time></trkpt><trkpt lat="39.30048844256898" lon="16.050431346183597"><ele>1.0</ele><time>2026-03-29T13:22:58Z</time></trkpt><trkpt lat="39.3003733774655" lon="16.05049763333857"><ele>1.0</ele><time>2026-03-29T13:23:00Z</time></trkpt><trkpt lat="39.30026090079638" lon="16.050561446704133"><ele>1.0</ele><time>2026-03-29T13:23:02Z</time></trkpt><trkpt lat="39.30015541966468" lon="16.05062398608517"><ele>1.0</ele><time>2026-03-29T13:23:04Z</time></trkpt><trkpt lat="39.30009792925067" lon="16.05065977652594"><ele>1.0</ele><time>2026-03-29T13:23:05Z</time></trkpt><trkpt lat="39.30003811940162" lon="16.05069560903141"><ele>0.9999999999999999</ele><time>2026-03-29T13:23:06Z</time></trkpt><trkpt lat="39.299979443199774" lon="16.05072561236227"><ele>1.0</ele><time>2026-03-29T13:23:07Z</time></trkpt><trkpt lat="39.29992026871101" lon="16.05075424107211"><ele>1.0</ele><time>2026-03-29T13:23:08Z</time></trkpt><trkpt lat="39.29986227446375" lon="16.050788252470888"><ele>1.0</ele><time>2026-03-29T13:23:09Z</time></trkpt><trkpt lat="39.299754630406355" lon="16.050849183500368"><ele>0.9999999999999999</ele><time>2026-03-29T13:23:11Z</time></trkpt><trkpt lat="39.29968017462533" lon="16.050890338162617"><ele>1.0</ele><time>2026-03-29T13:23:13Z</time></trkpt><trkpt lat="39.299611346292295" lon="16.05092861788113"><ele>1.2000000000000002</ele><time>2026-03-29T13:23:16Z</time></trkpt><trkpt lat="39.299523118626574" lon="16.050974259636604"><ele>1.4000000000000001</ele><time>2026-03-29T13:23:19Z</time></trkpt><trkpt lat="39.29943604460762" lon="16.051019202074293"><ele>1.6</ele><time>2026-03-29T13:23:21Z</time></trkpt><trkpt lat="39.299341641568965" lon="16.0510642903826"><ele>1.8</ele><time>2026-03-29T13:23:23Z</time></trkpt><trkpt lat="39.29924303860132" lon="16.05111023137572"><ele>2.0</ele><time>2026-03-29T13:23:25Z</time></trkpt><trkpt lat="39.29914720925938" lon="16.051152356821945"><ele>2.0</ele><time>2026-03-29T13:23:27Z</time></trkpt><trkpt lat="39.299042972692654" lon="16.051196968054743"><ele>2.0</ele><time>2026-03-29T13:23:29Z</time></trkpt><trkpt lat="39.29894258831926" lon="16.05123755729536"><ele>2.0</ele><time>2026-03-29T13:23:31Z</time></trkpt><trkpt lat="39.29885140765622" lon="16.051273317290832"><ele>2.0</ele><time>2026-03-29T13:23:33Z</time></trkpt><trkpt lat="39.29876552179121" lon="16.05130264102593"><ele>2.0</ele><time>2026-03-29T13:23:35Z</time></trkpt><trkpt lat="39.29866506021161" lon="16.051326182488015"><ele>1.8</ele><time>2026-03-29T13:23:37Z</time></trkpt><trkpt lat="39.29855637274633" lon="16.05134117366821"><ele>1.6</ele><time>2026-03-29T13:23:39Z</time></trkpt><trkpt lat="39.29844924992572" lon="16.05135375286611"><ele>1.4000000000000001</ele><time>2026-03-29T13:23:41Z</time></trkpt><trkpt lat="39.29833873948534" lon="16.05137419084147"><ele>1.2000000000000002</ele><time>2026-03-29T13:23:43Z</time></trkpt><trkpt lat="39.298233375275146" lon="16.051389283313487"><ele>1.0</ele><time>2026-03-29T13:23:45Z</time></trkpt><trkpt lat="39.298144111661195" lon="16.05140153718979"><ele>0.8571428571428571</ele><time>2026-03-29T13:23:47Z</time></trkpt><trkpt lat="39.2980738699673" lon="16.05141907535781"><ele>0.7142857142857142</ele><time>2026-03-29T13:23:50Z</time></trkpt><trkpt lat="39.297989927994095" lon="16.051436816847808"><ele>0.5714285714285714</ele><time>2026-03-29T13:23:53Z</time></trkpt><trkpt lat="39.29792228707334" lon="16.05145026855482"><ele>0.42857142857142855</ele><time>2026-03-29T13:23:55Z</time></trkpt><trkpt lat="39.29785480891656" lon="16.05146346489675"><ele>0.2857142857142857</ele><time>2026-03-29T13:23:57Z</time></trkpt><trkpt lat="39.29778445618139" lon="16.051478257836994"><ele>0.14285714285714285</ele><time>2026-03-29T13:23:59Z</time></trkpt><trkpt lat="39.2977049340335" lon="16.051494578358486"><ele>0.0</ele><time>2026-03-29T13:24:01Z</time></trkpt><trkpt lat="39.29761670226169" lon="16.05150660970024"><ele>0.0</ele><time>2026-03-29T13:24:03Z</time></trkpt><trkpt lat="39.29753191261162" lon="16.051516666730862"><ele>0.0</ele><time>2026-03-29T13:24:05Z</time></trkpt><trkpt lat="39.297458258932345" lon="16.05152902795902"><ele>0.0</ele><time>2026-03-29T13:24:07Z</time></trkpt><trkpt lat="39.29738361069211" lon="16.051532228051933"><ele>0.0</ele><time>2026-03-29T13:24:09Z</time></trkpt><trkpt lat="39.29730882791965" lon="16.05152955355088"><ele>0.0</ele><time>2026-03-29T13:24:11Z</time></trkpt><trkpt lat="39.29724037274836" lon="16.051563219500714"><ele>0.0</ele><time>2026-03-29T13:24:13Z</time></trkpt><trkpt lat="39.29717596695917" lon="16.05163957167342"><ele>0.8</ele><time>2026-03-29T13:24:15Z</time></trkpt><trkpt lat="39.297195531396746" lon="16.05179144592842"><ele>1.6</ele><time>2026-03-29T13:24:17Z</time></trkpt><trkpt lat="39.29721447837106" lon="16.051924887042954"><ele>2.4000000000000004</ele><time>2026-03-29T13:24:19Z</time></trkpt><trkpt lat="39.29723153216709" lon="16.052051153310373"><ele>3.2</ele><time>2026-03-29T13:24:21Z</time></trkpt><trkpt lat="39.297248548183894" lon="16.052183113074943"><ele>4.0</ele><time>2026-03-29T13:24:23Z</time></trkpt><trkpt lat="39.29726316664665" lon="16.05231254974685"><ele>4.800000000000001</ele><time>2026-03-29T13:24:25Z</time></trkpt><trkpt lat="39.29727043656242" lon="16.0524292727182"><ele>5.6000000000000005</ele><time>2026-03-29T13:24:27Z</time></trkpt><trkpt lat="39.29727963971692" lon="16.052552644941855"><ele>6.4</ele><time>2026-03-29T13:24:29Z</time></trkpt><trkpt lat="39.297333330055395" lon="16.05269361220148"><ele>7.2</ele><time>2026-03-29T13:24:31Z</time></trkpt><trkpt lat="39.29738159353329" lon="16.052764440812247"><ele>8.0</ele><time>2026-03-29T13:24:32Z</time></trkpt><trkpt lat="39.297456796044216" lon="16.052769640629013"><ele>9.166666666666666</ele><time>2026-03-29T13:24:33Z</time></trkpt><trkpt lat="39.29752555958044" lon="16.052859983383627"><ele>10.333333333333332</ele><time>2026-03-29T13:24:35Z</time></trkpt><trkpt lat="39.297594554607315" lon="16.05299650287214"><ele>11.5</ele><time>2026-03-29T13:24:37Z</time></trkpt><trkpt lat="39.29763579643137" lon="16.0530756516067"><ele>12.666666666666666</ele><time>2026-03-29T13:24:38Z</time></trkpt><trkpt lat="39.297677503288966" lon="16.053152175082626"><ele>13.833333333333334</ele><time>2026-03-29T13:24:39Z</time></trkpt><trkpt lat="39.29771743807288" lon="16.05322547836874"><ele>15.0</ele><time>2026-03-29T13:24:40Z</time></trkpt><trkpt lat="39.29775712553182" lon="16.053299800334724"><ele>16.333333333333332</ele><time>2026-03-29T13:24:41Z</time></trkpt><trkpt lat="39.29779955938591" lon="16.053379216326356"><ele>17.666666666666668</ele><time>2026-03-29T13:24:42Z</time></trkpt><trkpt lat="39.297842644068744" lon="16.053458875842512"><ele>19.0</ele><time>2026-03-29T13:24:43Z</time></trkpt><trkpt lat="39.29788489807364" lon="16.053536999469596"><ele>20.333333333333336</ele><time>2026-03-29T13:24:44Z</time></trkpt><trkpt lat="39.29792829051104" lon="16.053617227905807"><ele>21.666666666666668</ele><time>2026-03-29T13:24:45Z</time></trkpt><trkpt lat="39.29797183834191" lon="16.05369779234708"><ele>23.0</ele><time>2026-03-29T13:24:46.001Z</time></trkpt><trkpt lat="39.298014978634114" lon="16.053779720110818"><ele>23.0</ele><time>2026-03-29T13:24:47.001Z</time></trkpt><trkpt lat="39.298055587323006" lon="16.053859693241648"><ele>23.0</ele><time>2026-03-29T13:24:48.001Z</time></trkpt><trkpt lat="39.29809529471405" lon="16.053941455526644"><ele>23.0</ele><time>2026-03-29T13:24:49.001Z</time></trkpt><trkpt lat="39.29813589052351" lon="16.054026591633864"><ele>23.0</ele><time>2026-03-29T13:24:50.001Z</time></trkpt><trkpt lat="39.29817394044249" lon="16.054106389189233"><ele>23.0</ele><time>2026-03-29T13:24:51.001Z</time></trkpt><trkpt lat="39.29821195632558" lon="16.054186115835826"><ele>23.0</ele><time>2026-03-29T13:24:52.001Z</time></trkpt><trkpt lat="39.29825184450706" lon="16.054262546865203"><ele>23.0</ele><time>2026-03-29T13:24:53.001Z</time></trkpt><trkpt lat="39.29829297625189" lon="16.054341720734115"><ele>24.714285714285715</ele><time>2026-03-29T13:24:54.001Z</time></trkpt><trkpt lat="39.298334140572166" lon="16.05442069734575"><ele>26.428571428571427</ele><time>2026-03-29T13:24:55.001Z</time></trkpt><trkpt lat="39.298374252149955" lon="16.05449823096405"><ele>28.142857142857142</ele><time>2026-03-29T13:24:56.001Z</time></trkpt><trkpt lat="39.29841468220248" lon="16.05457756011381"><ele>29.857142857142858</ele><time>2026-03-29T13:24:57Z</time></trkpt><trkpt lat="39.29845482324171" lon="16.054656322209674"><ele>31.57142857142857</ele><time>2026-03-29T13:24:58Z</time></trkpt><trkpt lat="39.298493133091604" lon="16.054731491237163"><ele>33.285714285714285</ele><time>2026-03-29T13:24:59Z</time></trkpt><trkpt lat="39.29852932589054" lon="16.054802506409025"><ele>35.0</ele><time>2026-03-29T13:25:00Z</time></trkpt><trkpt lat="39.29858163101385" lon="16.054921826977882"><ele>36.42857142857143</ele><time>2026-03-29T13:25:02Z</time></trkpt><trkpt lat="39.29861242028385" lon="16.055005715763645"><ele>37.85714285714286</ele><time>2026-03-29T13:25:04Z</time></trkpt><trkpt lat="39.29860781192654" lon="16.055092662568835"><ele>39.285714285714285</ele><time>2026-03-29T13:25:09Z</time></trkpt><trkpt lat="39.29854468832264" lon="16.055085598619694"><ele>40.714285714285715</ele><time>2026-03-29T13:25:10Z</time></trkpt><trkpt lat="39.29848685344337" lon="16.05511794375403"><ele>42.142857142857146</ele><time>2026-03-29T13:25:11Z</time></trkpt><trkpt lat="39.298425910817286" lon="16.05515212885468"><ele>43.57142857142857</ele><time>2026-03-29T13:25:12Z</time></trkpt><trkpt lat="39.29835833954552" lon="16.055190032179567"><ele>45.0</ele><time>2026-03-29T13:25:13Z</time></trkpt><trkpt lat="39.29828335815753" lon="16.055232385305807"><ele>45.0</ele><time>2026-03-29T13:25:14Z</time></trkpt><trkpt lat="39.29820421319723" lon="16.055277221371643"><ele>45.0</ele><time>2026-03-29T13:25:15Z</time></trkpt><trkpt lat="39.29812253640253" lon="16.055323491776296"><ele>45.0</ele><time>2026-03-29T13:25:16Z</time></trkpt><trkpt lat="39.298037408313455" lon="16.05537128685092"><ele>45.0</ele><time>2026-03-29T13:25:17Z</time></trkpt><trkpt lat="39.29794665877917" lon="16.055421338294124"><ele>45.0</ele><time>2026-03-29T13:25:18Z</time></trkpt><trkpt lat="39.297858888902034" lon="16.055492079896222"><ele>43.6</ele><time>2026-03-29T13:25:19Z</time></trkpt><trkpt lat="39.29776161697134" lon="16.05554269533322"><ele>42.2</ele><time>2026-03-29T13:25:20Z</time></trkpt><trkpt lat="39.297661061160355" lon="16.05559266808444"><ele>40.8</ele><time>2026-03-29T13:25:21Z</time></trkpt><trkpt lat="39.297558280008786" lon="16.05563975451229"><ele>39.4</ele><time>2026-03-29T13:25:22Z</time></trkpt><trkpt lat="39.29745137424479" lon="16.055682600551172"><ele>38.0</ele><time>2026-03-29T13:25:23Z</time></trkpt><trkpt lat="39.297341489813554" lon="16.055722259940232"><ele>39.25</ele><time>2026-03-29T13:25:24Z</time></trkpt><trkpt lat="39.29723013281309" lon="16.055756458473454"><ele>40.5</ele><time>2026-03-29T13:25:25Z</time></trkpt><trkpt lat="39.297117468608356" lon="16.055784983893005"><ele>41.75</ele><time>2026-03-29T13:25:26Z</time></trkpt><trkpt lat="39.297001950824544" lon="16.05581090366177"><ele>43.0</ele><time>2026-03-29T13:25:27Z</time></trkpt><trkpt lat="39.29688115704043" lon="16.055834407044546"><ele>43.0</ele><time>2026-03-29T13:25:28Z</time></trkpt><trkpt lat="39.29675572751048" lon="16.055859824976174"><ele>43.0</ele><time>2026-03-29T13:25:29Z</time></trkpt><trkpt lat="39.29662281955025" lon="16.055884245468988"><ele>43.0</ele><time>2026-03-29T13:25:30Z</time></trkpt><trkpt lat="39.29648362032606" lon="16.055908757434487"><ele>43.0</ele><time>2026-03-29T13:25:31Z</time></trkpt><trkpt lat="39.29634491765747" lon="16.05593543399412"><ele>42.0</ele><time>2026-03-29T13:25:32Z</time></trkpt><trkpt lat="39.29620590468716" lon="16.05596045765354"><ele>41.0</ele><time>2026-03-29T13:25:33Z</time></trkpt><trkpt lat="39.2960662201607" lon="16.055985449457594"><ele>40.0</ele><time>2026-03-29T13:25:34Z</time></trkpt><trkpt lat="39.295925813769614" lon="16.056012525690456"><ele>39.0</ele><time>2026-03-29T13:25:35Z</time></trkpt><trkpt lat="39.29578381042241" lon="16.056039426080666"><ele>39.0</ele><time>2026-03-29T13:25:36Z</time></trkpt><trkpt lat="39.295641276212955" lon="16.056067261197114"><ele>39.0</ele><time>2026-03-29T13:25:37Z</time></trkpt><trkpt lat="39.29549799081643" lon="16.05609623817596"><ele>39.0</ele><time>2026-03-29T13:25:38Z</time></trkpt><trkpt lat="39.29535267002459" lon="16.056124257345406"><ele>39.0</ele><time>2026-03-29T13:25:39Z</time></trkpt><trkpt lat="39.295208662265665" lon="16.056153442305916"><ele>37.75</ele><time>2026-03-29T13:25:40Z</time></trkpt><trkpt lat="39.29506538603429" lon="16.056185723074865"><ele>36.5</ele><time>2026-03-29T13:25:41Z</time></trkpt><trkpt lat="39.29492081868876" lon="16.056216811132554"><ele>35.25</ele><time>2026-03-29T13:25:42Z</time></trkpt><trkpt lat="39.29477753752189" lon="16.056247443564146"><ele>34.0</ele><time>2026-03-29T13:25:43Z</time></trkpt><trkpt lat="39.294633843871054" lon="16.056274948555384"><ele>33.0</ele><time>2026-03-29T13:25:44Z</time></trkpt><trkpt lat="39.29449104381192" lon="16.05630474670281"><ele>32.0</ele><time>2026-03-29T13:25:45Z</time></trkpt><trkpt lat="39.29434679692098" lon="16.05633145884164"><ele>31.0</ele><time>2026-03-29T13:25:46Z</time></trkpt><trkpt lat="39.29420223546317" lon="16.056358393063682"><ele>30.0</ele><time>2026-03-29T13:25:47Z</time></trkpt><trkpt lat="39.294057292503076" lon="16.05638362992598"><ele>29.0</ele><time>2026-03-29T13:25:48Z</time></trkpt><trkpt lat="39.29391252626664" lon="16.056407525882932"><ele>28.0</ele><time>2026-03-29T13:25:49Z</time></trkpt><trkpt lat="39.293767341022956" lon="16.05643172574954"><ele>27.0</ele><time>2026-03-29T13:25:50Z</time></trkpt><trkpt lat="39.29362015031388" lon="16.05645594294492"><ele>26.0</ele><time>2026-03-29T13:25:51Z</time></trkpt><trkpt lat="39.29347348929969" lon="16.05648083622074"><ele>26.0</ele><time>2026-03-29T13:25:52Z</time></trkpt><trkpt lat="39.29332613451158" lon="16.056506251323913"><ele>26.0</ele><time>2026-03-29T13:25:53Z</time></trkpt><trkpt lat="39.29317919857556" lon="16.05653397956559"><ele>26.0</ele><time>2026-03-29T13:25:54Z</time></trkpt><trkpt lat="39.29303145929352" lon="16.05656139137645"><ele>26.0</ele><time>2026-03-29T13:25:55Z</time></trkpt><trkpt lat="39.29288245686868" lon="16.056588853172407"><ele>28.333333333333332</ele><time>2026-03-29T13:25:56Z</time></trkpt><trkpt lat="39.292734042116926" lon="16.056622637199833"><ele>30.666666666666664</ele><time>2026-03-29T13:25:57Z</time></trkpt><trkpt lat="39.292586547573755" lon="16.056665031541936"><ele>33.0</ele><time>2026-03-29T13:25:58Z</time></trkpt><trkpt lat="39.29243835572444" lon="16.056713426030313"><ele>33.0</ele><time>2026-03-29T13:25:59Z</time></trkpt><trkpt lat="39.29229051506586" lon="16.05676718603972"><ele>33.0</ele><time>2026-03-29T13:26:00Z</time></trkpt><trkpt lat="39.29214109368765" lon="16.056821879340173"><ele>33.0</ele><time>2026-03-29T13:26:01Z</time></trkpt><trkpt lat="39.291989701364045" lon="16.056881081733334"><ele>31.666666666666664</ele><time>2026-03-29T13:26:02Z</time></trkpt><trkpt lat="39.29183409192364" lon="16.056943891487"><ele>30.333333333333332</ele><time>2026-03-29T13:26:03Z</time></trkpt><trkpt lat="39.2916733955994" lon="16.057007889500287"><ele>29.0</ele><time>2026-03-29T13:26:04Z</time></trkpt><trkpt lat="39.291507224571006" lon="16.05707563231449"><ele>24.666666666666664</ele><time>2026-03-29T13:26:05Z</time></trkpt><trkpt lat="39.291341845512946" lon="16.05714165555835"><ele>20.333333333333332</ele><time>2026-03-29T13:26:06Z</time></trkpt><trkpt lat="39.2911756878142" lon="16.05720918662302"><ele>16.0</ele><time>2026-03-29T13:26:07Z</time></trkpt><trkpt lat="39.29100848990497" lon="16.057277187192597"><ele>16.0</ele><time>2026-03-29T13:26:08Z</time></trkpt><trkpt lat="39.29084136361628" lon="16.0573447657331"><ele>16.0</ele><time>2026-03-29T13:26:09Z</time></trkpt><trkpt lat="39.290672955089185" lon="16.05741059869716"><ele>16.0</ele><time>2026-03-29T13:26:10Z</time></trkpt><trkpt lat="39.29050552446328" lon="16.057480557117263"><ele>17.333333333333332</ele><time>2026-03-29T13:26:11Z</time></trkpt><trkpt lat="39.290338086523" lon="16.057551123866624"><ele>18.666666666666668</ele><time>2026-03-29T13:26:12Z</time></trkpt><trkpt lat="39.29016957625355" lon="16.057620397976606"><ele>20.0</ele><time>2026-03-29T13:26:13Z</time></trkpt><trkpt lat="39.29000006856022" lon="16.057683458152333"><ele>20.0</ele><time>2026-03-29T13:26:14Z</time></trkpt><trkpt lat="39.28982785930358" lon="16.057736112566126"><ele>20.0</ele><time>2026-03-29T13:26:15Z</time></trkpt><trkpt lat="39.28965421636187" lon="16.057775814394716"><ele>20.0</ele><time>2026-03-29T13:26:16Z</time></trkpt><trkpt lat="39.28947912894838" lon="16.057803827542084"><ele>18.666666666666668</ele><time>2026-03-29T13:26:17Z</time></trkpt><trkpt lat="39.289301649527545" lon="16.057818418614193"><ele>17.333333333333332</ele><time>2026-03-29T13:26:18Z</time></trkpt><trkpt lat="39.28912653804475" lon="16.057821077886572"><ele>16.0</ele><time>2026-03-29T13:26:19Z</time></trkpt><trkpt lat="39.28894936368609" lon="16.057813432714944"><ele>15.0</ele><time>2026-03-29T13:26:20Z</time></trkpt><trkpt lat="39.28877628779388" lon="16.05780238159084"><ele>14.0</ele><time>2026-03-29T13:26:21Z</time></trkpt><trkpt lat="39.28860322724967" lon="16.057790330363442"><ele>13.0</ele><time>2026-03-29T13:26:22Z</time></trkpt><trkpt lat="39.28842942323925" lon="16.057776735254897"><ele>13.0</ele><time>2026-03-29T13:26:23Z</time></trkpt><trkpt lat="39.2882579972459" lon="16.057761861829988"><ele>13.0</ele><time>2026-03-29T13:26:24Z</time></trkpt><trkpt lat="39.28808691126417" lon="16.057748694548284"><ele>13.0</ele><time>2026-03-29T13:26:25Z</time></trkpt><trkpt lat="39.28791574970469" lon="16.057734468742048"><ele>13.333333333333332</ele><time>2026-03-29T13:26:26Z</time></trkpt><trkpt lat="39.287745918364436" lon="16.0577176777843"><ele>13.666666666666668</ele><time>2026-03-29T13:26:27Z</time></trkpt><trkpt lat="39.287575915393326" lon="16.057701686545016"><ele>14.0</ele><time>2026-03-29T13:26:28Z</time></trkpt><trkpt lat="39.28740522492855" lon="16.057686476941175"><ele>13.666666666666668</ele><time>2026-03-29T13:26:29Z</time></trkpt><trkpt lat="39.287228610754916" lon="16.057670623876128"><ele>13.333333333333332</ele><time>2026-03-29T13:26:30Z</time></trkpt><trkpt lat="39.287053731839755" lon="16.057651200491264"><ele>13.0</ele><time>2026-03-29T13:26:31Z</time></trkpt><trkpt lat="39.286876246957995" lon="16.057630908247905"><ele>13.0</ele><time>2026-03-29T13:26:32Z</time></trkpt><trkpt lat="39.286699365696784" lon="16.057613741221225"><ele>13.0</ele><time>2026-03-29T13:26:33Z</time></trkpt><trkpt lat="39.286521755964216" lon="16.057597227324237"><ele>13.0</ele><time>2026-03-29T13:26:34Z</time></trkpt><trkpt lat="39.286342631693216" lon="16.057583769367625"><ele>13.333333333333332</ele><time>2026-03-29T13:26:35Z</time></trkpt><trkpt lat="39.28616427937593" lon="16.057569435855587"><ele>13.666666666666668</ele><time>2026-03-29T13:26:36Z</time></trkpt><trkpt lat="39.2859857591047" lon="16.057558248554496"><ele>14.0</ele><time>2026-03-29T13:26:37Z</time></trkpt><trkpt lat="39.28580945364693" lon="16.057549683074"><ele>14.0</ele><time>2026-03-29T13:26:38Z</time></trkpt><trkpt lat="39.28563691231751" lon="16.057543723574614"><ele>14.0</ele><time>2026-03-29T13:26:39Z</time></trkpt><trkpt lat="39.28547424409521" lon="16.057537395609778"><ele>14.0</ele><time>2026-03-29T13:26:40Z</time></trkpt><trkpt lat="39.28531632280391" lon="16.05753138910333"><ele>12.666666666666668</ele><time>2026-03-29T13:26:41Z</time></trkpt><trkpt lat="39.285162256813095" lon="16.057527044008808"><ele>11.333333333333334</ele><time>2026-03-29T13:26:42Z</time></trkpt><trkpt lat="39.2850097311509" lon="16.057521002827656"><ele>10.0</ele><time>2026-03-29T13:26:43Z</time></trkpt><trkpt lat="39.28486107617723" lon="16.057512315291607"><ele>9.8</ele><time>2026-03-29T13:26:44Z</time></trkpt><trkpt lat="39.28472739710051" lon="16.057502257582726"><ele>9.6</ele><time>2026-03-29T13:26:45Z</time></trkpt><trkpt lat="39.284609288201935" lon="16.057490959576928"><ele>9.4</ele><time>2026-03-29T13:26:46Z</time></trkpt><trkpt lat="39.28451379007541" lon="16.057475982210203"><ele>9.2</ele><time>2026-03-29T13:26:47Z</time></trkpt><trkpt lat="39.28443377522809" lon="16.057444888900363"><ele>9.0</ele><time>2026-03-29T13:26:48Z</time></trkpt><trkpt lat="39.28437256882522" lon="16.057382999409462"><ele>8.5</ele><time>2026-03-29T13:26:49Z</time></trkpt><trkpt lat="39.284322719557935" lon="16.057304413971117"><ele>8.0</ele><time>2026-03-29T13:26:50Z</time></trkpt><trkpt lat="39.284281717767335" lon="16.057218528669875"><ele>7.5</ele><time>2026-03-29T13:26:51Z</time></trkpt><trkpt lat="39.284233928536" lon="16.057139920684214"><ele>7.0</ele><time>2026-03-29T13:26:52.001Z</time></trkpt><trkpt lat="39.284187989486" lon="16.057043251872763"><ele>6.5</ele><time>2026-03-29T13:26:53.001Z</time></trkpt><trkpt lat="39.28419580332709" lon="16.056917194459892"><ele>6.0</ele><time>2026-03-29T13:26:54.001Z</time></trkpt><trkpt lat="39.284178610175395" lon="16.056809546102045"><ele>6.0</ele><time>2026-03-29T13:26:55.001Z</time></trkpt><trkpt lat="39.28416700337069" lon="16.056703174692725"><ele>6.0</ele><time>2026-03-29T13:26:56.001Z</time></trkpt><trkpt lat="39.28415703803361" lon="16.056598496640976"><ele>6.0</ele><time>2026-03-29T13:26:57.001Z</time></trkpt><trkpt lat="39.28414643648327" lon="16.056497749455414"><ele>6.0</ele><time>2026-03-29T13:26:58.001Z</time></trkpt><trkpt lat="39.28413592294663" lon="16.056397563220212"><ele>6.0</ele><time>2026-03-29T13:26:59.001Z</time></trkpt><trkpt lat="39.28412381100968" lon="16.056291267099663"><ele>6.0</ele><time>2026-03-29T13:27:00Z</time></trkpt><trkpt lat="39.28411267316983" lon="16.056185629318122"><ele>5.857142857142857</ele><time>2026-03-29T13:27:01Z</time></trkpt><trkpt lat="39.28410170166897" lon="16.056082188484535"><ele>5.714285714285714</ele><time>2026-03-29T13:27:02Z</time></trkpt><trkpt lat="39.284089619575006" lon="16.05598224008864"><ele>5.571428571428571</ele><time>2026-03-29T13:27:03Z</time></trkpt><trkpt lat="39.28407813577765" lon="16.05588715825562"><ele>5.428571428571429</ele><time>2026-03-29T13:27:04Z</time></trkpt><trkpt lat="39.28406583870449" lon="16.055793391618312"><ele>5.285714285714286</ele><time>2026-03-29T13:27:05Z</time></trkpt><trkpt lat="39.284055505017584" lon="16.055704869763023"><ele>5.142857142857142</ele><time>2026-03-29T13:27:06Z</time></trkpt><trkpt lat="39.28404694074497" lon="16.055623369803456"><ele>5.0</ele><time>2026-03-29T13:27:07Z</time></trkpt><trkpt lat="39.284027456648595" lon="16.055477638533254"><ele>4.6</ele><time>2026-03-29T13:27:09Z</time></trkpt><trkpt lat="39.284019871064345" lon="16.05534317897579"><ele>4.2</ele><time>2026-03-29T13:27:11Z</time></trkpt><trkpt lat="39.28399984020731" lon="16.055225925005253"><ele>3.8</ele><time>2026-03-29T13:27:13Z</time></trkpt><trkpt lat="39.28392864245212" lon="16.055117026408713"><ele>3.4</ele><time>2026-03-29T13:27:15Z</time></trkpt><trkpt lat="39.283828471712575" lon="16.05507757189595"><ele>3.0</ele><time>2026-03-29T13:27:17Z</time></trkpt><trkpt lat="39.283701839472265" lon="16.055069255907746"><ele>2.9999999999999996</ele><time>2026-03-29T13:27:19Z</time></trkpt><trkpt lat="39.28363604802065" lon="16.055085904878215"><ele>3.0</ele><time>2026-03-29T13:27:20Z</time></trkpt><trkpt lat="39.28356987533363" lon="16.055106156928957"><ele>3.0</ele><time>2026-03-29T13:27:21Z</time></trkpt><trkpt lat="39.2835030902644" lon="16.05512659640317"><ele>3.0</ele><time>2026-03-29T13:27:22Z</time></trkpt><trkpt lat="39.283436666546734" lon="16.055146925275427"><ele>3.0</ele><time>2026-03-29T13:27:23Z</time></trkpt><trkpt lat="39.28336689553543" lon="16.055167132794978"><ele>2.9999999999999996</ele><time>2026-03-29T13:27:24Z</time></trkpt><trkpt lat="39.28328805363157" lon="16.05518832814351"><ele>3.0</ele><time>2026-03-29T13:27:25Z</time></trkpt><trkpt lat="39.28320557436495" lon="16.05520635021928"><ele>3.0</ele><time>2026-03-29T13:27:26Z</time></trkpt><trkpt lat="39.28311934581918" lon="16.0552251915441"><ele>3.0</ele><time>2026-03-29T13:27:27Z</time></trkpt><trkpt lat="39.2830327525197" lon="16.05526516380923"><ele>3.0</ele><time>2026-03-29T13:27:28Z</time></trkpt><trkpt lat="39.28294390865833" lon="16.055283276963298"><ele>3.0</ele><time>2026-03-29T13:27:29Z</time></trkpt><trkpt lat="39.28285392398231" lon="16.05530105847724"><ele>3.0</ele><time>2026-03-29T13:27:30Z</time></trkpt><trkpt lat="39.282764620882695" lon="16.055317838740358"><ele>3.4</ele><time>2026-03-29T13:27:31Z</time></trkpt><trkpt lat="39.28267560165314" lon="16.055335906065192"><ele>3.8</ele><time>2026-03-29T13:27:32Z</time></trkpt><trkpt lat="39.28258121669374" lon="16.055355274982762"><ele>4.2</ele><time>2026-03-29T13:27:33Z</time></trkpt><trkpt lat="39.28248638333448" lon="16.055375373867122"><ele>4.6</ele><time>2026-03-29T13:27:34Z</time></trkpt><trkpt lat="39.282389374820056" lon="16.055395377808914"><ele>5.0</ele><time>2026-03-29T13:27:35Z</time></trkpt><trkpt lat="39.28229074767964" lon="16.055415294145536"><ele>4.8</ele><time>2026-03-29T13:27:36Z</time></trkpt><trkpt lat="39.28219098131865" lon="16.055433792371463"><ele>4.6</ele><time>2026-03-29T13:27:37Z</time></trkpt><trkpt lat="39.2820910344778" lon="16.05545214643862"><ele>4.4</ele><time>2026-03-29T13:27:38Z</time></trkpt><trkpt lat="39.28199078627365" lon="16.055472279003563"><ele>4.2</ele><time>2026-03-29T13:27:39Z</time></trkpt><trkpt lat="39.28188948076116" lon="16.055489156306106"><ele>4.0</ele><time>2026-03-29T13:27:40Z</time></trkpt><trkpt lat="39.28178802707443" lon="16.055507716834764"><ele>4.0</ele><time>2026-03-29T13:27:41Z</time></trkpt><trkpt lat="39.28168651627279" lon="16.05552793865977"><ele>4.0</ele><time>2026-03-29T13:27:42Z</time></trkpt><trkpt lat="39.281584518614046" lon="16.055548686673244"><ele>4.0</ele><time>2026-03-29T13:27:43Z</time></trkpt><trkpt lat="39.28148232631861" lon="16.05556828862019"><ele>4.0</ele><time>2026-03-29T13:27:44Z</time></trkpt><trkpt lat="39.281379692785926" lon="16.055589027471857"><ele>4.0</ele><time>2026-03-29T13:27:45Z</time></trkpt><trkpt lat="39.28127806873946" lon="16.05560787528315"><ele>4.0</ele><time>2026-03-29T13:27:46Z</time></trkpt><trkpt lat="39.28117741682952" lon="16.055627877686366"><ele>4.0</ele><time>2026-03-29T13:27:47Z</time></trkpt><trkpt lat="39.28107846469661" lon="16.055645527226215"><ele>4.0</ele><time>2026-03-29T13:27:48Z</time></trkpt><trkpt lat="39.28098125484423" lon="16.055663540162115"><ele>4.0</ele><time>2026-03-29T13:27:49Z</time></trkpt><trkpt lat="39.280885337447195" lon="16.055682124187243"><ele>4.0</ele><time>2026-03-29T13:27:50Z</time></trkpt><trkpt lat="39.280791407832695" lon="16.055701363000676"><ele>4.0</ele><time>2026-03-29T13:27:51Z</time></trkpt><trkpt lat="39.28069815198781" lon="16.05572391274157"><ele>4.0</ele><time>2026-03-29T13:27:52Z</time></trkpt><trkpt lat="39.280607095114384" lon="16.055741417731255"><ele>4.0</ele><time>2026-03-29T13:27:53Z</time></trkpt><trkpt lat="39.28051660841234" lon="16.055758505675506"><ele>4.0</ele><time>2026-03-29T13:27:54Z</time></trkpt><trkpt lat="39.28042593060433" lon="16.055776282798497"><ele>4.0</ele><time>2026-03-29T13:27:55Z</time></trkpt><trkpt lat="39.280334860487336" lon="16.0557963070423"><ele>4.4</ele><time>2026-03-29T13:27:56Z</time></trkpt><trkpt lat="39.28023995577506" lon="16.055816810215774"><ele>4.800000000000001</ele><time>2026-03-29T13:27:57Z</time></trkpt><trkpt lat="39.28014114522633" lon="16.055836231394167"><ele>5.199999999999999</ele><time>2026-03-29T13:27:58Z</time></trkpt><trkpt lat="39.28003763282737" lon="16.055833760643928"><ele>5.6</ele><time>2026-03-29T13:27:59Z</time></trkpt><trkpt lat="39.279938437069795" lon="16.055852063826023"><ele>6.0</ele><time>2026-03-29T13:28:00Z</time></trkpt><trkpt lat="39.27983990021799" lon="16.05587024542971"><ele>6.4</ele><time>2026-03-29T13:28:01Z</time></trkpt><trkpt lat="39.279744894440476" lon="16.05588895395755"><ele>6.8</ele><time>2026-03-29T13:28:02Z</time></trkpt><trkpt lat="39.279648291617" lon="16.055909019941804"><ele>7.200000000000001</ele><time>2026-03-29T13:28:03Z</time></trkpt><trkpt lat="39.279553873007245" lon="16.0559286322333"><ele>7.6000000000000005</ele><time>2026-03-29T13:28:04Z</time></trkpt><trkpt lat="39.2794623066611" lon="16.055947652054677"><ele>8.0</ele><time>2026-03-29T13:28:05Z</time></trkpt><trkpt lat="39.27937394451253" lon="16.055966006314996"><ele>7.999999999999999</ele><time>2026-03-29T13:28:06Z</time></trkpt><trkpt lat="39.27929066476998" lon="16.055983304879405"><ele>8.0</ele><time>2026-03-29T13:28:07Z</time></trkpt><trkpt lat="39.279213301560546" lon="16.05602029848906"><ele>8.0</ele><time>2026-03-29T13:28:08Z</time></trkpt><trkpt lat="39.27913483365774" lon="16.056034422252985"><ele>8.0</ele><time>2026-03-29T13:28:09Z</time></trkpt><trkpt lat="39.2790633194891" lon="16.056051084591218"><ele>7.999999999999999</ele><time>2026-03-29T13:28:10Z</time></trkpt><trkpt lat="39.278996339903436" lon="16.056064399880082"><ele>8.0</ele><time>2026-03-29T13:28:11Z</time></trkpt><trkpt lat="39.278926093486874" lon="16.056081070172922"><ele>7.666666666666666</ele><time>2026-03-29T13:28:12Z</time></trkpt><trkpt lat="39.27885314190139" lon="16.056095160963697"><ele>7.333333333333333</ele><time>2026-03-29T13:28:13Z</time></trkpt><trkpt lat="39.27877527129288" lon="16.05611108719418"><ele>7.0</ele><time>2026-03-29T13:28:14Z</time></trkpt><trkpt lat="39.27869264881363" lon="16.05612968879207"><ele>6.666666666666666</ele><time>2026-03-29T13:28:15Z</time></trkpt><trkpt lat="39.2786095146305" lon="16.056148256622464"><ele>6.333333333333333</ele><time>2026-03-29T13:28:16Z</time></trkpt><trkpt lat="39.278522739095614" lon="16.05616604764129"><ele>6.0</ele><time>2026-03-29T13:28:17Z</time></trkpt><trkpt lat="39.27843478406309" lon="16.05618272650543"><ele>6.0</ele><time>2026-03-29T13:28:18Z</time></trkpt><trkpt lat="39.27834705812547" lon="16.056197398605743"><ele>6.0</ele><time>2026-03-29T13:28:19Z</time></trkpt><trkpt lat="39.27825999305516" lon="16.056212892284556"><ele>6.0</ele><time>2026-03-29T13:28:20Z</time></trkpt><trkpt lat="39.27817354557225" lon="16.056228199912344"><ele>6.0</ele><time>2026-03-29T13:28:21Z</time></trkpt><trkpt lat="39.2780889579073" lon="16.0562430495247"><ele>6.0</ele><time>2026-03-29T13:28:22Z</time></trkpt><trkpt lat="39.2780036361805" lon="16.056231712423983"><ele>6.0</ele><time>2026-03-29T13:28:23Z</time></trkpt><trkpt lat="39.277920928286676" lon="16.056243694096963"><ele>5.666666666666667</ele><time>2026-03-29T13:28:24Z</time></trkpt><trkpt lat="39.277841262595125" lon="16.056258984400927"><ele>5.333333333333333</ele><time>2026-03-29T13:28:25Z</time></trkpt><trkpt lat="39.27775907538039" lon="16.056275017915745"><ele>5.0</ele><time>2026-03-29T13:28:26Z</time></trkpt><trkpt lat="39.27767569895059" lon="16.056290573127296"><ele>4.666666666666666</ele><time>2026-03-29T13:28:27Z</time></trkpt><trkpt lat="39.27759166860819" lon="16.05630549294052"><ele>4.333333333333333</ele><time>2026-03-29T13:28:28Z</time></trkpt><trkpt lat="39.27750853991217" lon="16.056320252663852"><ele>4.0</ele><time>2026-03-29T13:28:29Z</time></trkpt><trkpt lat="39.277425904595695" lon="16.056334924788118"><ele>3.9999999999999996</ele><time>2026-03-29T13:28:30Z</time></trkpt><trkpt lat="39.27734605675855" lon="16.056349101990744"><ele>4.0</ele><time>2026-03-29T13:28:31Z</time></trkpt><trkpt lat="39.27726760737749" lon="16.05636303089"><ele>4.0</ele><time>2026-03-29T13:28:32Z</time></trkpt><trkpt lat="39.27719081865946" lon="16.056376576738344"><ele>4.0</ele><time>2026-03-29T13:28:33Z</time></trkpt><trkpt lat="39.27711254267051" lon="16.05639030936561"><ele>3.9999999999999996</ele><time>2026-03-29T13:28:34Z</time></trkpt><trkpt lat="39.27703550544207" lon="16.056425452788027"><ele>4.0</ele><time>2026-03-29T13:28:35Z</time></trkpt><trkpt lat="39.27695741665501" lon="16.05643837148474"><ele>3.833333333333333</ele><time>2026-03-29T13:28:36Z</time></trkpt><trkpt lat="39.276880873843474" lon="16.05645018311361"><ele>3.6666666666666665</ele><time>2026-03-29T13:28:37Z</time></trkpt><trkpt lat="39.276802333213126" lon="16.056460764846026"><ele>3.5</ele><time>2026-03-29T13:28:38Z</time></trkpt><trkpt lat="39.276724421755226" lon="16.0564737551421"><ele>3.333333333333333</ele><time>2026-03-29T13:28:39Z</time></trkpt><trkpt lat="39.276646807180704" lon="16.05648588669944"><ele>3.1666666666666665</ele><time>2026-03-29T13:28:40Z</time></trkpt><trkpt lat="39.276571838508104" lon="16.056499546667276"><ele>3.0</ele><time>2026-03-29T13:28:41Z</time></trkpt><trkpt lat="39.276501113391845" lon="16.05651380672026"><ele>2.8571428571428568</ele><time>2026-03-29T13:28:42Z</time></trkpt><trkpt lat="39.276433792361566" lon="16.056525972350425"><ele>2.7142857142857144</ele><time>2026-03-29T13:28:43Z</time></trkpt><trkpt lat="39.2763682496986" lon="16.056537456812755"><ele>2.571428571428571</ele><time>2026-03-29T13:28:44Z</time></trkpt><trkpt lat="39.27630058573514" lon="16.05654828637676"><ele>2.4285714285714284</ele><time>2026-03-29T13:28:45Z</time></trkpt><trkpt lat="39.276230604060736" lon="16.056557571132767"><ele>2.2857142857142856</ele><time>2026-03-29T13:28:46Z</time></trkpt><trkpt lat="39.27615855251458" lon="16.056567979914096"><ele>2.142857142857143</ele><time>2026-03-29T13:28:47Z</time></trkpt><trkpt lat="39.276084350770326" lon="16.05657338028112"><ele>2.0</ele><time>2026-03-29T13:28:48Z</time></trkpt><trkpt lat="39.27601186986922" lon="16.05658759779465"><ele>1.9999999999999998</ele><time>2026-03-29T13:28:49Z</time></trkpt><trkpt lat="39.27593985517032" lon="16.05659696996537"><ele>2.0</ele><time>2026-03-29T13:28:50Z</time></trkpt><trkpt lat="39.27586816530897" lon="16.056608417068517"><ele>2.0</ele><time>2026-03-29T13:28:51Z</time></trkpt><trkpt lat="39.275793844476915" lon="16.056619102479868"><ele>2.0</ele><time>2026-03-29T13:28:52Z</time></trkpt><trkpt lat="39.27571793657301" lon="16.056630249484655"><ele>1.9999999999999998</ele><time>2026-03-29T13:28:53Z</time></trkpt><trkpt lat="39.27563930197552" lon="16.056642092620777"><ele>2.0</ele><time>2026-03-29T13:28:54Z</time></trkpt><trkpt lat="39.27555846907136" lon="16.056653751857315"><ele>2.1666666666666665</ele><time>2026-03-29T13:28:55Z</time></trkpt><trkpt lat="39.27547616799193" lon="16.056668648636084"><ele>2.333333333333333</ele><time>2026-03-29T13:28:56Z</time></trkpt><trkpt lat="39.275391738688654" lon="16.05668294033351"><ele>2.5</ele><time>2026-03-29T13:28:57Z</time></trkpt><trkpt lat="39.2753048047535" lon="16.056697273204907"><ele>2.6666666666666665</ele><time>2026-03-29T13:28:58Z</time></trkpt><trkpt lat="39.275218534719585" lon="16.05671484436312"><ele>2.8333333333333335</ele><time>2026-03-29T13:28:59Z</time></trkpt><trkpt lat="39.275131339010855" lon="16.056731260254033"><ele>3.0</ele><time>2026-03-29T13:29:00Z</time></trkpt><trkpt lat="39.27504657950212" lon="16.056745251140462"><ele>3.0</ele><time>2026-03-29T13:29:01Z</time></trkpt><trkpt lat="39.27496327333078" lon="16.056759675404034"><ele>3.0</ele><time>2026-03-29T13:29:02Z</time></trkpt><trkpt lat="39.27487864600503" lon="16.056775265054814"><ele>3.0</ele><time>2026-03-29T13:29:03Z</time></trkpt><trkpt lat="39.27479367622145" lon="16.056788593669335"><ele>3.0</ele><time>2026-03-29T13:29:04Z</time></trkpt><trkpt lat="39.27470698867903" lon="16.056802057535794"><ele>3.0</ele><time>2026-03-29T13:29:05Z</time></trkpt><trkpt lat="39.274620100439165" lon="16.0568160709619"><ele>3.0</ele><time>2026-03-29T13:29:06Z</time></trkpt><trkpt lat="39.27453272216323" lon="16.056829530741503"><ele>3.0</ele><time>2026-03-29T13:29:07Z</time></trkpt><trkpt lat="39.2744435435194" lon="16.05684282250059"><ele>3.0</ele><time>2026-03-29T13:29:08Z</time></trkpt><trkpt lat="39.27435425981056" lon="16.056855448156227"><ele>3.0</ele><time>2026-03-29T13:29:09Z</time></trkpt><trkpt lat="39.274262818286445" lon="16.056871490709828"><ele>3.0</ele><time>2026-03-29T13:29:10Z</time></trkpt><trkpt lat="39.27417110642147" lon="16.05688520544496"><ele>3.0</ele><time>2026-03-29T13:29:11Z</time></trkpt><trkpt lat="39.27407703626548" lon="16.05689999520927"><ele>3.0</ele><time>2026-03-29T13:29:12Z</time></trkpt><trkpt lat="39.273983666254296" lon="16.056915721745703"><ele>3.0</ele><time>2026-03-29T13:29:13Z</time></trkpt><trkpt lat="39.27389315261163" lon="16.056933558462422"><ele>3.0</ele><time>2026-03-29T13:29:14Z</time></trkpt><trkpt lat="39.27380466558183" lon="16.05694979124713"><ele>3.0</ele><time>2026-03-29T13:29:15Z</time></trkpt><trkpt lat="39.27371946593342" lon="16.05696599998072"><ele>3.0</ele><time>2026-03-29T13:29:16Z</time></trkpt><trkpt lat="39.27364180935462" lon="16.056980626641888"><ele>3.0</ele><time>2026-03-29T13:29:17Z</time></trkpt><trkpt lat="39.27357601652011" lon="16.056990537055267"><ele>2.8</ele><time>2026-03-29T13:29:18Z</time></trkpt><trkpt lat="39.27349173354802" lon="16.05694789259587"><ele>2.5999999999999996</ele><time>2026-03-29T13:29:20Z</time></trkpt><trkpt lat="39.27346415990056" lon="16.056830609405733"><ele>2.4000000000000004</ele><time>2026-03-29T13:29:22Z</time></trkpt><trkpt lat="39.27345108245548" lon="16.0566995748194"><ele>2.2</ele><time>2026-03-29T13:29:24Z</time></trkpt><trkpt lat="39.27343165546872" lon="16.05655548683155"><ele>2.0</ele><time>2026-03-29T13:29:26Z</time></trkpt><trkpt lat="39.27341391369905" lon="16.056422554655445"><ele>1.8333333333333333</ele><time>2026-03-29T13:29:28Z</time></trkpt><trkpt lat="39.27339745147049" lon="16.056307596289418"><ele>1.6666666666666665</ele><time>2026-03-29T13:29:30Z</time></trkpt><trkpt lat="39.27338227333995" lon="16.05620950681913"><ele>1.5</ele><time>2026-03-29T13:29:33Z</time></trkpt><trkpt lat="39.27334515797198" lon="16.05610560214548"><ele>1.3333333333333333</ele><time>2026-03-29T13:29:36Z</time></trkpt><trkpt lat="39.27327274705885" lon="16.05606738910419"><ele>1.1666666666666665</ele><time>2026-03-29T13:29:38Z</time></trkpt><trkpt lat="39.27318022717567" lon="16.05607550085481"><ele>1.0</ele><time>2026-03-29T13:29:40Z</time></trkpt><trkpt lat="39.27307851577552" lon="16.056081813210255"><ele>0.75</ele><time>2026-03-29T13:29:42Z</time></trkpt><trkpt lat="39.272970364178825" lon="16.056085836443213"><ele>0.5</ele><time>2026-03-29T13:29:44Z</time></trkpt><trkpt lat="39.27285464290771" lon="16.05608982625061"><ele>0.25</ele><time>2026-03-29T13:29:46Z</time></trkpt><trkpt lat="39.27273335127736" lon="16.056091925711137"><ele>0.0</ele><time>2026-03-29T13:29:48Z</time></trkpt><trkpt lat="39.27262046928548" lon="16.056095230685393"><ele>0.0</ele><time>2026-03-29T13:29:50Z</time></trkpt><trkpt lat="39.272511300121586" lon="16.056099796970894"><ele>0.0</ele><time>2026-03-29T13:29:52Z</time></trkpt><trkpt lat="39.27239689018459" lon="16.056104084667613"><ele>0.0</ele><time>2026-03-29T13:29:54Z</time></trkpt><trkpt lat="39.27228081423377" lon="16.056104563180366"><ele>0.0</ele><time>2026-03-29T13:29:56Z</time></trkpt><trkpt lat="39.27215986504502" lon="16.056110032140047"><ele>0.0</ele><time>2026-03-29T13:29:58Z</time></trkpt><trkpt lat="39.272035573681116" lon="16.056115053139905"><ele>0.0</ele><time>2026-03-29T13:30:00Z</time></trkpt><trkpt lat="39.27191875079298" lon="16.056121200417536"><ele>0.0</ele><time>2026-03-29T13:30:02Z</time></trkpt><trkpt lat="39.27185011336918" lon="16.0561304369835"><ele>0.0</ele><time>2026-03-29T13:30:03Z</time></trkpt><trkpt lat="39.271778593531195" lon="16.05613417608065"><ele>0.0</ele><time>2026-03-29T13:30:04Z</time></trkpt><trkpt lat="39.271711685398515" lon="16.056134498425326"><ele>0.0</ele><time>2026-03-29T13:30:05Z</time></trkpt><trkpt lat="39.27159210982771" lon="16.05613193599367"><ele>0.0</ele><time>2026-03-29T13:30:07Z</time></trkpt><trkpt lat="39.27147676427261" lon="16.05613812180413"><ele>0.0</ele><time>2026-03-29T13:30:09Z</time></trkpt><trkpt lat="39.27135951459667" lon="16.05613840530872"><ele>0.0</ele><time>2026-03-29T13:30:11Z</time></trkpt><trkpt lat="39.271247112032185" lon="16.056144024715707"><ele>0.0</ele><time>2026-03-29T13:30:13Z</time></trkpt><trkpt lat="39.27113696139119" lon="16.056148505375038"><ele>0.0</ele><time>2026-03-29T13:30:15Z</time></trkpt><trkpt lat="39.27104602900184" lon="16.0561550921897"><ele>0.0</ele><time>2026-03-29T13:30:17Z</time></trkpt><trkpt lat="39.270937074489325" lon="16.0561560507697"><ele>0.0</ele><time>2026-03-29T13:30:19Z</time></trkpt><trkpt lat="39.27082544523731" lon="16.05616347076399"><ele>0.0</ele><time>2026-03-29T13:30:21Z</time></trkpt><trkpt lat="39.27070340678447" lon="16.056167422289157"><ele>0.0</ele><time>2026-03-29T13:30:23Z</time></trkpt><trkpt lat="39.270589166383225" lon="16.056174768704413"><ele>0.0</ele><time>2026-03-29T13:30:25Z</time></trkpt><trkpt lat="39.27047360311634" lon="16.05618407045325"><ele>0.0</ele><time>2026-03-29T13:30:27Z</time></trkpt><trkpt lat="39.2703477531384" lon="16.0561943388889"><ele>0.0</ele><time>2026-03-29T13:30:29Z</time></trkpt><trkpt lat="39.2702819941855" lon="16.056198057985394"><ele>0.0</ele><time>2026-03-29T13:30:30Z</time></trkpt><trkpt lat="39.27021486211852" lon="16.056202245361057"><ele>0.0</ele><time>2026-03-29T13:30:31Z</time></trkpt><trkpt lat="39.27009371223974" lon="16.05620555130137"><ele>0.0</ele><time>2026-03-29T13:30:33Z</time></trkpt><trkpt lat="39.26999095001737" lon="16.056211278232976"><ele>0.0</ele><time>2026-03-29T13:30:35Z</time></trkpt><trkpt lat="39.269886938946236" lon="16.056218089360485"><ele>0.0</ele><time>2026-03-29T13:30:37Z</time></trkpt><trkpt lat="39.26976548529692" lon="16.05622830045391"><ele>0.0</ele><time>2026-03-29T13:30:39Z</time></trkpt><trkpt lat="39.26964845951472" lon="16.056236587730968"><ele>0.0</ele><time>2026-03-29T13:30:41Z</time></trkpt><trkpt lat="39.26953619359405" lon="16.0562212325511"><ele>0.0</ele><time>2026-03-29T13:30:43Z</time></trkpt><trkpt lat="39.26941075724892" lon="16.056225936678594"><ele>0.0</ele><time>2026-03-29T13:30:45Z</time></trkpt><trkpt lat="39.269344526225304" lon="16.056228420481904"><ele>0.0</ele><time>2026-03-29T13:30:46Z</time></trkpt><trkpt lat="39.26927933454196" lon="16.05623086530805"><ele>0.0</ele><time>2026-03-29T13:30:47Z</time></trkpt><trkpt lat="39.2691582792614" lon="16.056235405136782"><ele>0.0</ele><time>2026-03-29T13:30:49Z</time></trkpt><trkpt lat="39.26903899410739" lon="16.056239878582033"><ele>0.0</ele><time>2026-03-29T13:30:51Z</time></trkpt><trkpt lat="39.26894536573937" lon="16.056243389843342"><ele>0.0</ele><time>2026-03-29T13:30:53Z</time></trkpt><trkpt lat="39.26884939149199" lon="16.056246989078435"><ele>0.0</ele><time>2026-03-29T13:30:55Z</time></trkpt><trkpt lat="39.26875311774355" lon="16.056270464768772"><ele>0.0</ele><time>2026-03-29T13:30:57Z</time></trkpt><trkpt lat="39.26865908681942" lon="16.056267866651527"><ele>0.0</ele><time>2026-03-29T13:30:59Z</time></trkpt><trkpt lat="39.26855652716787" lon="16.05627457963085"><ele>0.0</ele><time>2026-03-29T13:31:01Z</time></trkpt><trkpt lat="39.26845399974819" lon="16.05627854909082"><ele>0.0</ele><time>2026-03-29T13:31:03Z</time></trkpt><trkpt lat="39.26835752581373" lon="16.056275759010564"><ele>0.0</ele><time>2026-03-29T13:31:05Z</time></trkpt><trkpt lat="39.26824750695561" lon="16.05627916989698"><ele>0.0</ele><time>2026-03-29T13:31:07Z</time></trkpt><trkpt lat="39.268140616674444" lon="16.05628354759192"><ele>0.0</ele><time>2026-03-29T13:31:09Z</time></trkpt><trkpt lat="39.268037646247485" lon="16.056284154721833"><ele>0.0</ele><time>2026-03-29T13:31:11Z</time></trkpt><trkpt lat="39.267928432739936" lon="16.056287010626626"><ele>0.0</ele><time>2026-03-29T13:31:13Z</time></trkpt><trkpt lat="39.26781476721872" lon="16.056293050680495"><ele>0.0</ele><time>2026-03-29T13:31:15Z</time></trkpt><trkpt lat="39.2676996323649" lon="16.056298024263395"><ele>0.0</ele><time>2026-03-29T13:31:17Z</time></trkpt><trkpt lat="39.26758181209006" lon="16.05629947004016"><ele>0.0</ele><time>2026-03-29T13:31:19Z</time></trkpt><trkpt lat="39.267462215373286" lon="16.05630330520866"><ele>0.0</ele><time>2026-03-29T13:31:21Z</time></trkpt><trkpt lat="39.26733960567614" lon="16.0563093248161"><ele>0.0</ele><time>2026-03-29T13:31:23Z</time></trkpt><trkpt lat="39.26721951657251" lon="16.056311439515127"><ele>0.0</ele><time>2026-03-29T13:31:25Z</time></trkpt><trkpt lat="39.267114448646126" lon="16.056314859444164"><ele>0.0</ele><time>2026-03-29T13:31:27Z</time></trkpt><trkpt lat="39.26699682276075" lon="16.05631682467528"><ele>0.0</ele><time>2026-03-29T13:31:29Z</time></trkpt><trkpt lat="39.26693375637169" lon="16.05631910998827"><ele>0.0</ele><time>2026-03-29T13:31:30Z</time></trkpt><trkpt lat="39.2668699862707" lon="16.056322117853806"><ele>0.0</ele><time>2026-03-29T13:31:31Z</time></trkpt><trkpt lat="39.26675173638999" lon="16.056325169100006"><ele>0.0</ele><time>2026-03-29T13:31:33Z</time></trkpt><trkpt lat="39.26664754665509" lon="16.056330364215086"><ele>0.0</ele><time>2026-03-29T13:31:35Z</time></trkpt><trkpt lat="39.266547146626195" lon="16.0563354713546"><ele>0.0</ele><time>2026-03-29T13:31:37Z</time></trkpt><trkpt lat="39.26642949750227" lon="16.056339351977204"><ele>0.0</ele><time>2026-03-29T13:31:39Z</time></trkpt><trkpt lat="39.26636475518144" lon="16.05633996608841"><ele>0.0</ele><time>2026-03-29T13:31:40Z</time></trkpt><trkpt lat="39.266291502631574" lon="16.056341680562095"><ele>0.0</ele><time>2026-03-29T13:31:41Z</time></trkpt><trkpt lat="39.26617433895155" lon="16.05634469579222"><ele>0.0</ele><time>2026-03-29T13:31:43Z</time></trkpt><trkpt lat="39.266077564928" lon="16.0563486611006"><ele>0.0</ele><time>2026-03-29T13:31:45Z</time></trkpt><trkpt lat="39.26595632826495" lon="16.056347466590925"><ele>0.0</ele><time>2026-03-29T13:31:47Z</time></trkpt><trkpt lat="39.26588983779428" lon="16.056350614123236"><ele>0.0</ele><time>2026-03-29T13:31:48Z</time></trkpt><trkpt lat="39.265817800158125" lon="16.0563522602695"><ele>0.0</ele><time>2026-03-29T13:31:49Z</time></trkpt><trkpt lat="39.26574392956024" lon="16.05635509167313"><ele>0.0</ele><time>2026-03-29T13:31:50Z</time></trkpt><trkpt lat="39.26566768987095" lon="16.05635912077146"><ele>0.0</ele><time>2026-03-29T13:31:51Z</time></trkpt><trkpt lat="39.265593294325114" lon="16.05636211435578"><ele>0.0</ele><time>2026-03-29T13:31:52Z</time></trkpt><trkpt lat="39.26552161229446" lon="16.056360758389022"><ele>0.0</ele><time>2026-03-29T13:31:53Z</time></trkpt><trkpt lat="39.26545056682794" lon="16.056359982329393"><ele>0.0</ele><time>2026-03-29T13:31:54Z</time></trkpt><trkpt lat="39.265381552455345" lon="16.05636193725287"><ele>0.0</ele><time>2026-03-29T13:31:55Z</time></trkpt><trkpt lat="39.26530969485848" lon="16.056366660422732"><ele>0.0</ele><time>2026-03-29T13:31:56Z</time></trkpt><trkpt lat="39.26523347750006" lon="16.05637211194338"><ele>0.0</ele><time>2026-03-29T13:31:57Z</time></trkpt><trkpt lat="39.26515925331995" lon="16.05637581240285"><ele>0.0</ele><time>2026-03-29T13:31:58Z</time></trkpt><trkpt lat="39.265087071693415" lon="16.05637848016895"><ele>0.0</ele><time>2026-03-29T13:31:59Z</time></trkpt><trkpt lat="39.265018882089564" lon="16.056381350472083"><ele>0.0</ele><time>2026-03-29T13:32:00Z</time></trkpt><trkpt lat="39.264954506917675" lon="16.056383318489505"><ele>0.0</ele><time>2026-03-29T13:32:01Z</time></trkpt><trkpt lat="39.26483963296804" lon="16.056384162073847"><ele>0.0</ele><time>2026-03-29T13:32:03Z</time></trkpt><trkpt lat="39.26473407980135" lon="16.056390317044798"><ele>0.0</ele><time>2026-03-29T13:32:05Z</time></trkpt><trkpt lat="39.26463482716576" lon="16.056388472705997"><ele>0.0</ele><time>2026-03-29T13:32:07Z</time></trkpt><trkpt lat="39.26453108211254" lon="16.056394986522573"><ele>0.0</ele><time>2026-03-29T13:32:09Z</time></trkpt><trkpt lat="39.26441013233617" lon="16.056402036085508"><ele>0.0</ele><time>2026-03-29T13:32:11Z</time></trkpt><trkpt lat="39.26429204636302" lon="16.05640886642758"><ele>0.0</ele><time>2026-03-29T13:32:13Z</time></trkpt><trkpt lat="39.26417057648817" lon="16.056414664357654"><ele>0.0</ele><time>2026-03-29T13:32:15Z</time></trkpt><trkpt lat="39.26405490205943" lon="16.056414373403175"><ele>0.0</ele><time>2026-03-29T13:32:17Z</time></trkpt><trkpt lat="39.26394222344012" lon="16.056414971256068"><ele>0.0</ele><time>2026-03-29T13:32:19Z</time></trkpt><trkpt lat="39.26383119837299" lon="16.056423272887322"><ele>0.0</ele><time>2026-03-29T13:32:21Z</time></trkpt><trkpt lat="39.26372303961678" lon="16.05643129951475"><ele>0.0</ele><time>2026-03-29T13:32:23Z</time></trkpt><trkpt lat="39.263623305234624" lon="16.056437896163377"><ele>0.0</ele><time>2026-03-29T13:32:25Z</time></trkpt><trkpt lat="39.26353855447272" lon="16.05644382252667"><ele>0.0</ele><time>2026-03-29T13:32:27Z</time></trkpt><trkpt lat="39.26346796101001" lon="16.056448598982342"><ele>0.0</ele><time>2026-03-29T13:32:29Z</time></trkpt><trkpt lat="39.263398567900836" lon="16.056459112611975"><ele>0.0</ele><time>2026-03-29T13:32:31Z</time></trkpt><trkpt lat="39.26332044410047" lon="16.056458840811064"><ele>0.0</ele><time>2026-03-29T13:32:33Z</time></trkpt><trkpt lat="39.26323621197314" lon="16.056478413008563"><ele>0.0</ele><time>2026-03-29T13:32:35Z</time></trkpt><trkpt lat="39.26315869671331" lon="16.0564769402064"><ele>0.0</ele><time>2026-03-29T13:32:37Z</time></trkpt><trkpt lat="39.26306911270856" lon="16.056480549812353"><ele>0.0</ele><time>2026-03-29T13:32:39Z</time></trkpt><trkpt lat="39.26298580773777" lon="16.05648602069972"><ele>0.0</ele><time>2026-03-29T13:32:41Z</time></trkpt><trkpt lat="39.26290902440738" lon="16.056492323282868"><ele>0.0</ele><time>2026-03-29T13:32:43Z</time></trkpt><trkpt lat="39.262837866522204" lon="16.056495730849154"><ele>0.0</ele><time>2026-03-29T13:32:45Z</time></trkpt><trkpt lat="39.26275307246504" lon="16.05650562560463"><ele>0.0</ele><time>2026-03-29T13:32:47Z</time></trkpt><trkpt lat="39.262655013863146" lon="16.0565258645434"><ele>0.0</ele><time>2026-03-29T13:32:49Z</time></trkpt><trkpt lat="39.26258438076466" lon="16.056553574934608"><ele>0.0</ele><time>2026-03-29T13:32:51Z</time></trkpt><trkpt lat="39.262492536568566" lon="16.056560944365263"><ele>0.0</ele><time>2026-03-29T13:32:53Z</time></trkpt><trkpt lat="39.26239616863107" lon="16.05656139985369"><ele>0.0</ele><time>2026-03-29T13:32:54.999Z</time></trkpt><trkpt lat="39.262315599269115" lon="16.056567976566278"><ele>0.0</ele><time>2026-03-29T13:32:56.999Z</time></trkpt><trkpt lat="39.262240565569655" lon="16.056580797093538"><ele>0.0</ele><time>2026-03-29T13:32:58.999Z</time></trkpt><trkpt lat="39.262153915466655" lon="16.05659546058924"><ele>0.0</ele><time>2026-03-29T13:33:00.999Z</time></trkpt><trkpt lat="39.26207971874745" lon="16.05660639738421"><ele>0.0</ele><time>2026-03-29T13:33:02.999Z</time></trkpt><trkpt lat="39.26199183935473" lon="16.056620324939516"><ele>0.0</ele><time>2026-03-29T13:33:04.999Z</time></trkpt><trkpt lat="39.261893596739405" lon="16.056635769618907"><ele>0.0</ele><time>2026-03-29T13:33:06.999Z</time></trkpt><trkpt lat="39.261788543482005" lon="16.05664169691964"><ele>0.0</ele><time>2026-03-29T13:33:08.999Z</time></trkpt><trkpt lat="39.261675916073195" lon="16.05663612490658"><ele>0.5</ele><time>2026-03-29T13:33:11Z</time></trkpt><trkpt lat="39.261557157521835" lon="16.05664104131099"><ele>1.0</ele><time>2026-03-29T13:33:13Z</time></trkpt><trkpt lat="39.26144262345515" lon="16.056649401522723"><ele>1.5</ele><time>2026-03-29T13:33:15Z</time></trkpt><trkpt lat="39.26133291904656" lon="16.0566560992951"><ele>2.0</ele><time>2026-03-29T13:33:17Z</time></trkpt><trkpt lat="39.261221084191845" lon="16.056666704233457"><ele>2.0</ele><time>2026-03-29T13:33:19Z</time></trkpt><trkpt lat="39.26111020738891" lon="16.056676879681387"><ele>2.0</ele><time>2026-03-29T13:33:21Z</time></trkpt><trkpt lat="39.261014953780276" lon="16.056684741856827"><ele>2.0</ele><time>2026-03-29T13:33:23Z</time></trkpt><trkpt lat="39.26091512502519" lon="16.05669021712016"><ele>2.0</ele><time>2026-03-29T13:33:25Z</time></trkpt><trkpt lat="39.26085219007818" lon="16.056692817801963"><ele>2.0</ele><time>2026-03-29T13:33:26Z</time></trkpt><trkpt lat="39.26073113111428" lon="16.05669612883502"><ele>2.0</ele><time>2026-03-29T13:33:28Z</time></trkpt><trkpt lat="39.260616205546164" lon="16.0566975019895"><ele>2.0</ele><time>2026-03-29T13:33:30Z</time></trkpt><trkpt lat="39.26051355991888" lon="16.05669895768326"><ele>2.0</ele><time>2026-03-29T13:33:32Z</time></trkpt><trkpt lat="39.26042292819139" lon="16.056710486039055"><ele>2.0</ele><time>2026-03-29T13:33:34Z</time></trkpt><trkpt lat="39.26032695109461" lon="16.05672661308523"><ele>2.0</ele><time>2026-03-29T13:33:36Z</time></trkpt><trkpt lat="39.26024635575793" lon="16.05674426361153"><ele>1.8</ele><time>2026-03-29T13:33:38Z</time></trkpt><trkpt lat="39.26018557775982" lon="16.05678485587329"><ele>1.6</ele><time>2026-03-29T13:33:40Z</time></trkpt><trkpt lat="39.260164451618714" lon="16.056884576561362"><ele>1.4000000000000001</ele><time>2026-03-29T13:33:42Z</time></trkpt><trkpt lat="39.26016985852417" lon="16.05700913965944"><ele>1.2000000000000002</ele><time>2026-03-29T13:33:44Z</time></trkpt><trkpt lat="39.26017372153152" lon="16.057142007375163"><ele>1.0</ele><time>2026-03-29T13:33:46Z</time></trkpt><trkpt lat="39.26017861823241" lon="16.05728463155273"><ele>0.9999999999999999</ele><time>2026-03-29T13:33:48Z</time></trkpt><trkpt lat="39.2601831452093" lon="16.0574135124107"><ele>1.0</ele><time>2026-03-29T13:33:50Z</time></trkpt><trkpt lat="39.26018599206983" lon="16.057524216615214"><ele>1.0</ele><time>2026-03-29T13:33:52Z</time></trkpt><trkpt lat="39.26018704154514" lon="16.057639092419322"><ele>1.0</ele><time>2026-03-29T13:33:54Z</time></trkpt><trkpt lat="39.260186274253925" lon="16.057747044843065"><ele>0.9999999999999999</ele><time>2026-03-29T13:33:56Z</time></trkpt><trkpt lat="39.260188502868424" lon="16.057834422414057"><ele>1.0</ele><time>2026-03-29T13:33:58Z</time></trkpt><trkpt lat="39.26021887542434" lon="16.05791063251447"><ele>1.8</ele><time>2026-03-29T13:34:01Z</time></trkpt><trkpt lat="39.260361351573565" lon="16.057884964506023"><ele>2.6</ele><time>2026-03-29T13:34:09Z</time></trkpt><trkpt lat="39.260455592851436" lon="16.057848526990718"><ele>3.4</ele><time>2026-03-29T13:34:11Z</time></trkpt><trkpt lat="39.26057551895035" lon="16.057842405720162"><ele>4.2</ele><time>2026-03-29T13:34:13Z</time></trkpt><trkpt lat="39.26063951276859" lon="16.057843632100546"><ele>5.0</ele><time>2026-03-29T13:34:14Z</time></trkpt><trkpt lat="39.260763047734294" lon="16.05785339317871"><ele>5.2</ele><time>2026-03-29T13:34:16Z</time></trkpt><trkpt lat="39.26088455140075" lon="16.0578687163937"><ele>5.4</ele><time>2026-03-29T13:34:18Z</time></trkpt><trkpt lat="39.261008676967364" lon="16.05788112543493"><ele>5.6</ele><time>2026-03-29T13:34:20Z</time></trkpt><trkpt lat="39.261132098403664" lon="16.057914038529706"><ele>5.8</ele><time>2026-03-29T13:34:22Z</time></trkpt><trkpt lat="39.26119588461294" lon="16.057921052687547"><ele>6.0</ele><time>2026-03-29T13:34:23Z</time></trkpt><trkpt lat="39.26126025984179" lon="16.057907029590798"><ele>6.0</ele><time>2026-03-29T13:34:24Z</time></trkpt><trkpt lat="39.26132515629557" lon="16.057934527902635"><ele>6.0</ele><time>2026-03-29T13:34:25Z</time></trkpt><trkpt lat="39.26139350848663" lon="16.057919672476423"><ele>6.0</ele><time>2026-03-29T13:34:26Z</time></trkpt><trkpt lat="39.26145977511543" lon="16.05792601550902"><ele>6.0</ele><time>2026-03-29T13:34:27Z</time></trkpt><trkpt lat="39.26152353007542" lon="16.057929120685824"><ele>6.0</ele><time>2026-03-29T13:34:28Z</time></trkpt><trkpt lat="39.26164824083176" lon="16.05792549430918"><ele>6.0</ele><time>2026-03-29T13:34:30Z</time></trkpt><trkpt lat="39.261772059010454" lon="16.057915544133103"><ele>6.25</ele><time>2026-03-29T13:34:32Z</time></trkpt><trkpt lat="39.26189470639583" lon="16.057905902403927"><ele>6.5</ele><time>2026-03-29T13:34:34Z</time></trkpt><trkpt lat="39.26201068311467" lon="16.057895199263744"><ele>6.75</ele><time>2026-03-29T13:34:36Z</time></trkpt><trkpt lat="39.26212150816007" lon="16.057895522898942"><ele>7.0</ele><time>2026-03-29T13:34:38Z</time></trkpt><trkpt lat="39.262220924786675" lon="16.057885065137906"><ele>7.5</ele><time>2026-03-29T13:34:40Z</time></trkpt><trkpt lat="39.262322530424456" lon="16.057855860272298"><ele>8.0</ele><time>2026-03-29T13:34:41.999Z</time></trkpt><trkpt lat="39.26242805042459" lon="16.057848540332532"><ele>8.5</ele><time>2026-03-29T13:34:43.999Z</time></trkpt><trkpt lat="39.26254844362156" lon="16.057836623644103"><ele>9.0</ele><time>2026-03-29T13:34:45.999Z</time></trkpt><trkpt lat="39.262667235347394" lon="16.057822833051876"><ele>9.0</ele><time>2026-03-29T13:34:47.999Z</time></trkpt><trkpt lat="39.26278021091389" lon="16.05780722465817"><ele>9.0</ele><time>2026-03-29T13:34:49.999Z</time></trkpt><trkpt lat="39.262900601539975" lon="16.0578146258515"><ele>9.0</ele><time>2026-03-29T13:34:51.999Z</time></trkpt><trkpt lat="39.26296698098525" lon="16.057807971354386"><ele>9.0</ele><time>2026-03-29T13:34:52.999Z</time></trkpt><trkpt lat="39.263035183027405" lon="16.0578011341415"><ele>9.0</ele><time>2026-03-29T13:34:53.999Z</time></trkpt><trkpt lat="39.26310603362229" lon="16.05779482477066"><ele>9.0</ele><time>2026-03-29T13:34:54.999Z</time></trkpt><trkpt lat="39.263178562281624" lon="16.05778850769635"><ele>8.333333333333334</ele><time>2026-03-29T13:34:55.999Z</time></trkpt><trkpt lat="39.263253812503635" lon="16.057781953580008"><ele>7.666666666666667</ele><time>2026-03-29T13:34:56.999Z</time></trkpt><trkpt lat="39.26333124480248" lon="16.05777520940852"><ele>7.0</ele><time>2026-03-29T13:34:57.999Z</time></trkpt><trkpt lat="39.263410083648964" lon="16.057768342731915"><ele>6.333333333333334</ele><time>2026-03-29T13:34:58.999Z</time></trkpt><trkpt lat="39.26348950227782" lon="16.057761684789703"><ele>5.666666666666667</ele><time>2026-03-29T13:34:59.999Z</time></trkpt><trkpt lat="39.263570766561784" lon="16.057754890781602"><ele>5.0</ele><time>2026-03-29T13:35:00.999Z</time></trkpt><trkpt lat="39.26365315676761" lon="16.05774800263796"><ele>5.0</ele><time>2026-03-29T13:35:01.999Z</time></trkpt><trkpt lat="39.26373511976184" lon="16.057741150205707"><ele>5.0</ele><time>2026-03-29T13:35:02.999Z</time></trkpt><trkpt lat="39.26381844907386" lon="16.057733875357926"><ele>5.0</ele><time>2026-03-29T13:35:03.999Z</time></trkpt><trkpt lat="39.263900985231466" lon="16.057726215893403"><ele>5.0</ele><time>2026-03-29T13:35:04.999Z</time></trkpt><trkpt lat="39.263981188812245" lon="16.057718772981012"><ele>5.0</ele><time>2026-03-29T13:35:05.999Z</time></trkpt><trkpt lat="39.264061161107925" lon="16.05771282812083"><ele>5.0</ele><time>2026-03-29T13:35:06.999Z</time></trkpt><trkpt lat="39.26413931842129" lon="16.057707633166345"><ele>5.0</ele><time>2026-03-29T13:35:07.999Z</time></trkpt><trkpt lat="39.26421221488028" lon="16.057709452411846"><ele>5.0</ele><time>2026-03-29T13:35:08.999Z</time></trkpt><trkpt lat="39.264290929945766" lon="16.057709890466676"><ele>5.0</ele><time>2026-03-29T13:35:09.999Z</time></trkpt><trkpt lat="39.264368189992986" lon="16.05770970969168"><ele>5.0</ele><time>2026-03-29T13:35:10.999Z</time></trkpt><trkpt lat="39.26444059522611" lon="16.057707184170237"><ele>5.0</ele><time>2026-03-29T13:35:11.999Z</time></trkpt><trkpt lat="39.26451160724294" lon="16.05770470724406"><ele>5.0</ele><time>2026-03-29T13:35:12.999Z</time></trkpt><trkpt lat="39.26458167229014" lon="16.0577022633498"><ele>5.0</ele><time>2026-03-29T13:35:13.999Z</time></trkpt><trkpt lat="39.26464871525612" lon="16.057699924865908"><ele>5.0</ele><time>2026-03-29T13:35:14.999Z</time></trkpt><trkpt lat="39.264712852852725" lon="16.05769813513354"><ele>5.0</ele><time>2026-03-29T13:35:16Z</time></trkpt><trkpt lat="39.264777173061375" lon="16.057698114365717"><ele>5.0</ele><time>2026-03-29T13:35:17Z</time></trkpt><trkpt lat="39.26483974025744" lon="16.057685049646746"><ele>5.0</ele><time>2026-03-29T13:35:18Z</time></trkpt><trkpt lat="39.264959781417915" lon="16.05768620621757"><ele>5.0</ele><time>2026-03-29T13:35:20Z</time></trkpt><trkpt lat="39.26507221618923" lon="16.057705978113646"><ele>5.0</ele><time>2026-03-29T13:35:22Z</time></trkpt><trkpt lat="39.265170227150726" lon="16.057709096782826"><ele>5.2</ele><time>2026-03-29T13:35:24Z</time></trkpt><trkpt lat="39.26526757423017" lon="16.05771120413503"><ele>5.4</ele><time>2026-03-29T13:35:26Z</time></trkpt><trkpt lat="39.26536826034659" lon="16.05771338376978"><ele>5.6</ele><time>2026-03-29T13:35:28Z</time></trkpt><trkpt lat="39.265486386043435" lon="16.057715940929025"><ele>5.8</ele><time>2026-03-29T13:35:30Z</time></trkpt><trkpt lat="39.265606342845345" lon="16.057719185325382"><ele>6.0</ele><time>2026-03-29T13:35:32Z</time></trkpt><trkpt lat="39.2657309620871" lon="16.057722484173294"><ele>6.0</ele><time>2026-03-29T13:35:34Z</time></trkpt><trkpt lat="39.26585207874526" lon="16.0577256902927"><ele>6.0</ele><time>2026-03-29T13:35:36Z</time></trkpt><trkpt lat="39.265946902539234" lon="16.057726468209367"><ele>6.0</ele><time>2026-03-29T13:35:38Z</time></trkpt><trkpt lat="39.266022443098414" lon="16.057741759140967"><ele>6.0</ele><time>2026-03-29T13:35:41Z</time></trkpt></trkseg><trkseg><trkpt lat="39.26606845942883" lon="16.057736676927036"><ele>6.0</ele><time>2026-03-29T14:16:08Z</time></trkpt><trkpt lat="39.266170711226415" lon="16.057721536041672"><ele>6.0</ele><time>2026-03-29T14:16:10Z</time></trkpt><trkpt lat="39.26628580867024" lon="16.05771227029406"><ele>6.0</ele><time>2026-03-29T14:16:12Z</time></trkpt><trkpt lat="39.26640521773798" lon="16.057703440563937"><ele>6.0</ele><time>2026-03-29T14:16:13.999Z</time></trkpt><trkpt lat="39.26647050083011" lon="16.057702366847586"><ele>6.0</ele><time>2026-03-29T14:16:14.999Z</time></trkpt><trkpt lat="39.26653999991054" lon="16.057696314337463"><ele>5.833333333333333</ele><time>2026-03-29T14:16:15.999Z</time></trkpt><trkpt lat="39.26660895671444" lon="16.057693483500405"><ele>5.666666666666667</ele><time>2026-03-29T14:16:16.999Z</time></trkpt><trkpt lat="39.26667872182413" lon="16.057688557677984"><ele>5.5</ele><time>2026-03-29T14:16:17.999Z</time></trkpt><trkpt lat="39.26675203198909" lon="16.057686539012465"><ele>5.333333333333334</ele><time>2026-03-29T14:16:18.999Z</time></trkpt><trkpt lat="39.266827438826134" lon="16.05770464723264"><ele>5.166666666666667</ele><time>2026-03-29T14:16:19.999Z</time></trkpt><trkpt lat="39.26690709358686" lon="16.057680136733605"><ele>5.0</ele><time>2026-03-29T14:16:20.999Z</time></trkpt><trkpt lat="39.26698947906976" lon="16.057695976501485"><ele>5.0</ele><time>2026-03-29T14:16:21.999Z</time></trkpt><trkpt lat="39.267075456112856" lon="16.057691247852937"><ele>5.0</ele><time>2026-03-29T14:16:22.999Z</time></trkpt><trkpt lat="39.267162622763244" lon="16.057686453777677"><ele>5.0</ele><time>2026-03-29T14:16:23.999Z</time></trkpt><trkpt lat="39.267249712255314" lon="16.057663635020894"><ele>5.0</ele><time>2026-03-29T14:16:24.999Z</time></trkpt><trkpt lat="39.26733397900941" lon="16.057656250648584"><ele>5.0</ele><time>2026-03-29T14:16:25.999Z</time></trkpt><trkpt lat="39.26742003859762" lon="16.057671563496015"><ele>5.0</ele><time>2026-03-29T14:16:26.999Z</time></trkpt><trkpt lat="39.26750366339808" lon="16.057665846981497"><ele>5.0</ele><time>2026-03-29T14:16:27.999Z</time></trkpt><trkpt lat="39.26759106969363" lon="16.057642494217937"><ele>5.0</ele><time>2026-03-29T14:16:28.999Z</time></trkpt><trkpt lat="39.26767295166404" lon="16.05763398766337"><ele>5.0</ele><time>2026-03-29T14:16:29.999Z</time></trkpt><trkpt lat="39.267757877585716" lon="16.05764846912606"><ele>5.0</ele><time>2026-03-29T14:16:30.999Z</time></trkpt><trkpt lat="39.267848009237916" lon="16.057642307804464"><ele>5.0</ele><time>2026-03-29T14:16:31.999Z</time></trkpt><trkpt lat="39.267942054286976" lon="16.0576184014803"><ele>5.0</ele><time>2026-03-29T14:16:32.999Z</time></trkpt><trkpt lat="39.26803818642124" lon="16.057620003443045"><ele>5.0</ele><time>2026-03-29T14:16:33.999Z</time></trkpt><trkpt lat="39.268138096840445" lon="16.05761454785264"><ele>5.0</ele><time>2026-03-29T14:16:34.999Z</time></trkpt><trkpt lat="39.26823806713334" lon="16.057609002416307"><ele>5.0</ele><time>2026-03-29T14:16:35.999Z</time></trkpt><trkpt lat="39.26834330127452" lon="16.057603271902675"><ele>5.0</ele><time>2026-03-29T14:16:36.999Z</time></trkpt><trkpt lat="39.26844916640795" lon="16.057594788628222"><ele>5.0</ele><time>2026-03-29T14:16:37.999Z</time></trkpt><trkpt lat="39.26855791266853" lon="16.057587420298027"><ele>5.0</ele><time>2026-03-29T14:16:38.999Z</time></trkpt><trkpt lat="39.2686719990141" lon="16.05758307228009"><ele>5.0</ele><time>2026-03-29T14:16:39.999Z</time></trkpt><trkpt lat="39.268783814079434" lon="16.057575792870807"><ele>5.0</ele><time>2026-03-29T14:16:40.999Z</time></trkpt><trkpt lat="39.2688976909074" lon="16.057573840823824"><ele>5.0</ele><time>2026-03-29T14:16:41.999Z</time></trkpt><trkpt lat="39.26901052960226" lon="16.057566939149577"><ele>5.25</ele><time>2026-03-29T14:16:42.999Z</time></trkpt><trkpt lat="39.2691212722474" lon="16.057560699177845"><ele>5.5</ele><time>2026-03-29T14:16:43.999Z</time></trkpt><trkpt lat="39.26923675281424" lon="16.057555356863325"><ele>5.75</ele><time>2026-03-29T14:16:44.999Z</time></trkpt><trkpt lat="39.26935408820037" lon="16.057547517558056"><ele>6.0</ele><time>2026-03-29T14:16:45.999Z</time></trkpt><trkpt lat="39.26947083248519" lon="16.057540745109222"><ele>6.0</ele><time>2026-03-29T14:16:46.999Z</time></trkpt><trkpt lat="39.26958725985839" lon="16.05753740791918"><ele>6.0</ele><time>2026-03-29T14:16:47.999Z</time></trkpt><trkpt lat="39.26970522696612" lon="16.0575261634774"><ele>6.0</ele><time>2026-03-29T14:16:48.999Z</time></trkpt><trkpt lat="39.2698261055773" lon="16.057518306559658"><ele>6.0</ele><time>2026-03-29T14:16:49.999Z</time></trkpt><trkpt lat="39.26994807174678" lon="16.057514695377932"><ele>5.5</ele><time>2026-03-29T14:16:50.999Z</time></trkpt><trkpt lat="39.27007044958267" lon="16.057509436946845"><ele>5.0</ele><time>2026-03-29T14:16:51.999Z</time></trkpt><trkpt lat="39.270191761587945" lon="16.05749740016012"><ele>4.5</ele><time>2026-03-29T14:16:52.999Z</time></trkpt><trkpt lat="39.27031685917833" lon="16.05748809073666"><ele>4.0</ele><time>2026-03-29T14:16:53.999Z</time></trkpt><trkpt lat="39.2704386039965" lon="16.05748737313796"><ele>4.0</ele><time>2026-03-29T14:16:54.999Z</time></trkpt><trkpt lat="39.27056809495337" lon="16.05747615582029"><ele>4.0</ele><time>2026-03-29T14:16:55.999Z</time></trkpt><trkpt lat="39.27069521702968" lon="16.057466948920464"><ele>4.0</ele><time>2026-03-29T14:16:56.999Z</time></trkpt><trkpt lat="39.270821480980636" lon="16.057459193126636"><ele>4.0</ele><time>2026-03-29T14:16:57.999Z</time></trkpt><trkpt lat="39.27094376979636" lon="16.057449817999593"><ele>3.5</ele><time>2026-03-29T14:16:58.999Z</time></trkpt><trkpt lat="39.27106475104545" lon="16.057440262890793"><ele>3.0</ele><time>2026-03-29T14:16:59.999Z</time></trkpt><trkpt lat="39.27118338430935" lon="16.057422127442262"><ele>2.5</ele><time>2026-03-29T14:17:00.999Z</time></trkpt><trkpt lat="39.27130359327172" lon="16.05740653625376"><ele>2.0</ele><time>2026-03-29T14:17:01.999Z</time></trkpt><trkpt lat="39.271429564893666" lon="16.05739415642267"><ele>2.75</ele><time>2026-03-29T14:17:02.999Z</time></trkpt><trkpt lat="39.27155628368592" lon="16.0573818313459"><ele>3.5</ele><time>2026-03-29T14:17:03.999Z</time></trkpt><trkpt lat="39.271683356314234" lon="16.057361902310078"><ele>4.25</ele><time>2026-03-29T14:17:04.999Z</time></trkpt><trkpt lat="39.27180953250586" lon="16.057338182948182"><ele>5.0</ele><time>2026-03-29T14:17:05.999Z</time></trkpt><trkpt lat="39.27193352678094" lon="16.057315169865742"><ele>5.0</ele><time>2026-03-29T14:17:06.999Z</time></trkpt><trkpt lat="39.272055787333244" lon="16.057291534805927"><ele>5.0</ele><time>2026-03-29T14:17:07.999Z</time></trkpt><trkpt lat="39.272180179391796" lon="16.057267750060806"><ele>5.0</ele><time>2026-03-29T14:17:08.999Z</time></trkpt><trkpt lat="39.272307608862725" lon="16.057244969405176"><ele>5.0</ele><time>2026-03-29T14:17:09.999Z</time></trkpt><trkpt lat="39.272437652161834" lon="16.057221197267452"><ele>5.0</ele><time>2026-03-29T14:17:10.999Z</time></trkpt><trkpt lat="39.272567823963605" lon="16.057200452122746"><ele>5.0</ele><time>2026-03-29T14:17:11.999Z</time></trkpt><trkpt lat="39.2726954499016" lon="16.057178698568308"><ele>5.0</ele><time>2026-03-29T14:17:12.999Z</time></trkpt><trkpt lat="39.272821891608345" lon="16.057159013637598"><ele>5.0</ele><time>2026-03-29T14:17:13.999Z</time></trkpt><trkpt lat="39.27294589071054" lon="16.057139633479604"><ele>5.0</ele><time>2026-03-29T14:17:14.999Z</time></trkpt><trkpt lat="39.27306756093887" lon="16.057119946342123"><ele>5.0</ele><time>2026-03-29T14:17:16Z</time></trkpt><trkpt lat="39.27318840943091" lon="16.05710040958532"><ele>5.0</ele><time>2026-03-29T14:17:17Z</time></trkpt><trkpt lat="39.27330703508124" lon="16.057080260428105"><ele>5.0</ele><time>2026-03-29T14:17:18Z</time></trkpt><trkpt lat="39.27342328245525" lon="16.05705741627302"><ele>4.25</ele><time>2026-03-29T14:17:19Z</time></trkpt><trkpt lat="39.27353529019346" lon="16.0570370317583"><ele>3.5</ele><time>2026-03-29T14:17:20Z</time></trkpt><trkpt lat="39.273647948337285" lon="16.05701545811236"><ele>2.75</ele><time>2026-03-29T14:17:21Z</time></trkpt><trkpt lat="39.27375829735588" lon="16.056997204493445"><ele>2.0</ele><time>2026-03-29T14:17:22Z</time></trkpt><trkpt lat="39.273870024147726" lon="16.056977587750374"><ele>2.25</ele><time>2026-03-29T14:17:23Z</time></trkpt><trkpt lat="39.273985556549334" lon="16.056972823871828"><ele>2.5</ele><time>2026-03-29T14:17:24Z</time></trkpt><trkpt lat="39.27410488366536" lon="16.05695290898171"><ele>2.75</ele><time>2026-03-29T14:17:25Z</time></trkpt><trkpt lat="39.274222877494346" lon="16.05693321661351"><ele>3.0</ele><time>2026-03-29T14:17:26Z</time></trkpt><trkpt lat="39.27434163705842" lon="16.05691339644719"><ele>3.0</ele><time>2026-03-29T14:17:27Z</time></trkpt><trkpt lat="39.2744612755806" lon="16.056893429588047"><ele>3.0</ele><time>2026-03-29T14:17:28Z</time></trkpt><trkpt lat="39.274585204017164" lon="16.056852135596905"><ele>3.0</ele><time>2026-03-29T14:17:29Z</time></trkpt><trkpt lat="39.27471573095442" lon="16.056838972198292"><ele>3.0</ele><time>2026-03-29T14:17:30Z</time></trkpt><trkpt lat="39.27484322151785" lon="16.056817078630132"><ele>3.0</ele><time>2026-03-29T14:17:31Z</time></trkpt><trkpt lat="39.27497158827053" lon="16.056795911556122"><ele>3.0</ele><time>2026-03-29T14:17:32Z</time></trkpt><trkpt lat="39.275098111370234" lon="16.05677453105514"><ele>3.0</ele><time>2026-03-29T14:17:33Z</time></trkpt><trkpt lat="39.27522361864155" lon="16.056754654094984"><ele>3.0</ele><time>2026-03-29T14:17:34Z</time></trkpt><trkpt lat="39.27534528958004" lon="16.056736220746124"><ele>3.0</ele><time>2026-03-29T14:17:35Z</time></trkpt><trkpt lat="39.27546651634342" lon="16.056715802401516"><ele>3.0</ele><time>2026-03-29T14:17:36Z</time></trkpt><trkpt lat="39.275586785218174" lon="16.05669407770137"><ele>3.0</ele><time>2026-03-29T14:17:37Z</time></trkpt><trkpt lat="39.27570663934764" lon="16.056674036434707"><ele>3.0</ele><time>2026-03-29T14:17:38Z</time></trkpt><trkpt lat="39.27582750113467" lon="16.056654627872188"><ele>2.75</ele><time>2026-03-29T14:17:39Z</time></trkpt><trkpt lat="39.275950581225764" lon="16.05663407157389"><ele>2.5</ele><time>2026-03-29T14:17:40Z</time></trkpt><trkpt lat="39.276073379410185" lon="16.056610815634357"><ele>2.25</ele><time>2026-03-29T14:17:41Z</time></trkpt><trkpt lat="39.27619727148526" lon="16.056588737880524"><ele>2.0</ele><time>2026-03-29T14:17:42Z</time></trkpt><trkpt lat="39.2763198428202" lon="16.056566384643567"><ele>2.25</ele><time>2026-03-29T14:17:43Z</time></trkpt><trkpt lat="39.27644063997714" lon="16.05654407176081"><ele>2.5</ele><time>2026-03-29T14:17:44Z</time></trkpt><trkpt lat="39.27655954688457" lon="16.05652269290879"><ele>2.75</ele><time>2026-03-29T14:17:45Z</time></trkpt><trkpt lat="39.27667563432195" lon="16.056499811274175"><ele>3.0</ele><time>2026-03-29T14:17:46Z</time></trkpt><trkpt lat="39.27678884558067" lon="16.05648058680987"><ele>3.0</ele><time>2026-03-29T14:17:47Z</time></trkpt><trkpt lat="39.27689901859221" lon="16.056458330203668"><ele>3.0</ele><time>2026-03-29T14:17:48Z</time></trkpt><trkpt lat="39.27700616757972" lon="16.056438240512104"><ele>3.0</ele><time>2026-03-29T14:17:49Z</time></trkpt><trkpt lat="39.27710290914684" lon="16.05642185171089"><ele>3.0</ele><time>2026-03-29T14:17:50Z</time></trkpt><trkpt lat="39.27718582882337" lon="16.056410134141377"><ele>3.0</ele><time>2026-03-29T14:17:51Z</time></trkpt><trkpt lat="39.27726148905187" lon="16.056399735044128"><ele>3.1666666666666665</ele><time>2026-03-29T14:17:52Z</time></trkpt><trkpt lat="39.27733261230109" lon="16.05638953364103"><ele>3.333333333333333</ele><time>2026-03-29T14:17:53Z</time></trkpt><trkpt lat="39.277401652488955" lon="16.056381009290003"><ele>3.5</ele><time>2026-03-29T14:17:54Z</time></trkpt><trkpt lat="39.277474060744275" lon="16.056369969868825"><ele>3.6666666666666665</ele><time>2026-03-29T14:17:55Z</time></trkpt><trkpt lat="39.27755014150376" lon="16.056357757386508"><ele>3.833333333333333</ele><time>2026-03-29T14:17:56Z</time></trkpt><trkpt lat="39.277630401134914" lon="16.056343217988765"><ele>4.0</ele><time>2026-03-29T14:17:57Z</time></trkpt><trkpt lat="39.27771917408721" lon="16.056328140292404"><ele>4.0</ele><time>2026-03-29T14:17:58Z</time></trkpt><trkpt lat="39.277815848375305" lon="16.056310451943155"><ele>4.0</ele><time>2026-03-29T14:17:59Z</time></trkpt><trkpt lat="39.27792100736767" lon="16.056289280689036"><ele>4.0</ele><time>2026-03-29T14:18:00Z</time></trkpt><trkpt lat="39.27802768997876" lon="16.05626919367581"><ele>4.0</ele><time>2026-03-29T14:18:01Z</time></trkpt><trkpt lat="39.2781378704571" lon="16.056248654927238"><ele>4.0</ele><time>2026-03-29T14:18:02Z</time></trkpt><trkpt lat="39.27824901762627" lon="16.05622875503151"><ele>4.5</ele><time>2026-03-29T14:18:03Z</time></trkpt><trkpt lat="39.27836221599986" lon="16.056207982708553"><ele>5.0</ele><time>2026-03-29T14:18:04Z</time></trkpt><trkpt lat="39.27847883138898" lon="16.056184666417572"><ele>5.5</ele><time>2026-03-29T14:18:05Z</time></trkpt><trkpt lat="39.278598823924945" lon="16.056159887123332"><ele>6.0</ele><time>2026-03-29T14:18:06Z</time></trkpt><trkpt lat="39.27871927567197" lon="16.056136526833026"><ele>6.0</ele><time>2026-03-29T14:18:07Z</time></trkpt><trkpt lat="39.278836801733114" lon="16.056116136720476"><ele>6.0</ele><time>2026-03-29T14:18:08Z</time></trkpt><trkpt lat="39.278949757438596" lon="16.056091754793105"><ele>6.0</ele><time>2026-03-29T14:18:09Z</time></trkpt><trkpt lat="39.279058269119425" lon="16.056068525235492"><ele>6.0</ele><time>2026-03-29T14:18:10Z</time></trkpt><trkpt lat="39.27916575430241" lon="16.056050231249724"><ele>6.5</ele><time>2026-03-29T14:18:11Z</time></trkpt><trkpt lat="39.27927222758331" lon="16.056029298684273"><ele>7.0</ele><time>2026-03-29T14:18:12Z</time></trkpt><trkpt lat="39.27938145360027" lon="16.0560050372227"><ele>7.5</ele><time>2026-03-29T14:18:13Z</time></trkpt><trkpt lat="39.279492925526235" lon="16.05598136274658"><ele>8.0</ele><time>2026-03-29T14:18:13.999Z</time></trkpt><trkpt lat="39.27961076810733" lon="16.055959648341652"><ele>8.0</ele><time>2026-03-29T14:18:14.999Z</time></trkpt><trkpt lat="39.27973004338678" lon="16.055936551367115"><ele>8.0</ele><time>2026-03-29T14:18:15.999Z</time></trkpt><trkpt lat="39.27985150956377" lon="16.055911144754795"><ele>8.0</ele><time>2026-03-29T14:18:16.999Z</time></trkpt><trkpt lat="39.27997003082511" lon="16.055884735087833"><ele>8.0</ele><time>2026-03-29T14:18:17.999Z</time></trkpt><trkpt lat="39.28008820193494" lon="16.05586335416769"><ele>7.5</ele><time>2026-03-29T14:18:18.999Z</time></trkpt><trkpt lat="39.280207674740296" lon="16.05584312828034"><ele>7.0</ele><time>2026-03-29T14:18:19.999Z</time></trkpt><trkpt lat="39.28032762314248" lon="16.05582046216964"><ele>6.5</ele><time>2026-03-29T14:18:20.999Z</time></trkpt><trkpt lat="39.28044918525362" lon="16.055794690697336"><ele>6.0</ele><time>2026-03-29T14:18:21.999Z</time></trkpt><trkpt lat="39.280570850495636" lon="16.05576837362386"><ele>5.5</ele><time>2026-03-29T14:18:22.999Z</time></trkpt><trkpt lat="39.28069715481447" lon="16.055741761646214"><ele>5.0</ele><time>2026-03-29T14:18:23.999Z</time></trkpt><trkpt lat="39.28082652358838" lon="16.05571493383074"><ele>4.5</ele><time>2026-03-29T14:18:24.999Z</time></trkpt><trkpt lat="39.280957853168516" lon="16.055689595134663"><ele>4.0</ele><time>2026-03-29T14:18:25.999Z</time></trkpt><trkpt lat="39.28109162120062" lon="16.055667076032197"><ele>4.0</ele><time>2026-03-29T14:18:26.999Z</time></trkpt><trkpt lat="39.28122783415506" lon="16.055642917766324"><ele>4.0</ele><time>2026-03-29T14:18:27.999Z</time></trkpt><trkpt lat="39.28136682827949" lon="16.055617807964715"><ele>4.0</ele><time>2026-03-29T14:18:28.999Z</time></trkpt><trkpt lat="39.28150866670135" lon="16.05559312150752"><ele>4.0</ele><time>2026-03-29T14:18:29.999Z</time></trkpt><trkpt lat="39.28164986126207" lon="16.055566775217127"><ele>4.0</ele><time>2026-03-29T14:18:30.999Z</time></trkpt><trkpt lat="39.281795114378674" lon="16.05553941424871"><ele>4.0</ele><time>2026-03-29T14:18:31.999Z</time></trkpt><trkpt lat="39.28194085719208" lon="16.055512233449374"><ele>4.0</ele><time>2026-03-29T14:18:32.999Z</time></trkpt><trkpt lat="39.282085413977384" lon="16.055483100079236"><ele>4.0</ele><time>2026-03-29T14:18:33.999Z</time></trkpt><trkpt lat="39.28222962411547" lon="16.055452710123326"><ele>4.25</ele><time>2026-03-29T14:18:34.999Z</time></trkpt><trkpt lat="39.28237325252212" lon="16.05542338468244"><ele>4.5</ele><time>2026-03-29T14:18:35.999Z</time></trkpt><trkpt lat="39.28251491918491" lon="16.055393448672625"><ele>4.75</ele><time>2026-03-29T14:18:36.999Z</time></trkpt><trkpt lat="39.282655906109376" lon="16.05536481086691"><ele>5.0</ele><time>2026-03-29T14:18:37.999Z</time></trkpt><trkpt lat="39.28279439573517" lon="16.055335616348785"><ele>5.0</ele><time>2026-03-29T14:18:38.999Z</time></trkpt><trkpt lat="39.28293135766811" lon="16.055307978462352"><ele>5.0</ele><time>2026-03-29T14:18:39.999Z</time></trkpt><trkpt lat="39.28306442873091" lon="16.055280460291836"><ele>5.0</ele><time>2026-03-29T14:18:40.999Z</time></trkpt><trkpt lat="39.283194858159064" lon="16.05525169292873"><ele>5.0</ele><time>2026-03-29T14:18:41.999Z</time></trkpt><trkpt lat="39.28331875094657" lon="16.055222191156354"><ele>4.6</ele><time>2026-03-29T14:18:42.999Z</time></trkpt><trkpt lat="39.28342992885316" lon="16.05519136981271"><ele>4.2</ele><time>2026-03-29T14:18:43.999Z</time></trkpt><trkpt lat="39.28353621537447" lon="16.055157475475568"><ele>3.8</ele><time>2026-03-29T14:18:44.999Z</time></trkpt><trkpt lat="39.28363748436826" lon="16.055124226899512"><ele>3.4</ele><time>2026-03-29T14:18:45.999Z</time></trkpt><trkpt lat="39.28373470310579" lon="16.05509693762511"><ele>3.0</ele><time>2026-03-29T14:18:46.999Z</time></trkpt><trkpt lat="39.283826940254166" lon="16.055095371185736"><ele>3.0</ele><time>2026-03-29T14:18:47.999Z</time></trkpt><trkpt lat="39.283905034467686" lon="16.055145011654886"><ele>3.0</ele><time>2026-03-29T14:18:48.999Z</time></trkpt><trkpt lat="39.28395503924276" lon="16.055222716929496"><ele>3.0</ele><time>2026-03-29T14:18:49.999Z</time></trkpt><trkpt lat="39.2839930094141" lon="16.055319405197483"><ele>3.0</ele><time>2026-03-29T14:18:50.999Z</time></trkpt><trkpt lat="39.28398599052918" lon="16.05542777268079"><ele>3.0</ele><time>2026-03-29T14:18:51.999Z</time></trkpt><trkpt lat="39.28399547799662" lon="16.055547198175745"><ele>3.0</ele><time>2026-03-29T14:18:52.999Z</time></trkpt><trkpt lat="39.284008262577274" lon="16.05568514051616"><ele>3.4</ele><time>2026-03-29T14:18:53.999Z</time></trkpt><trkpt lat="39.28402274456581" lon="16.05579679865744"><ele>3.8</ele><time>2026-03-29T14:18:54.999Z</time></trkpt><trkpt lat="39.2840392902648" lon="16.055925504036836"><ele>4.2</ele><time>2026-03-29T14:18:55.999Z</time></trkpt><trkpt lat="39.28405499402427" lon="16.056056351984274"><ele>4.6</ele><time>2026-03-29T14:18:56.999Z</time></trkpt><trkpt lat="39.28407045843981" lon="16.056189438325532"><ele>5.0</ele><time>2026-03-29T14:18:57.999Z</time></trkpt><trkpt lat="39.28408618602246" lon="16.0563247894653"><ele>5.0</ele><time>2026-03-29T14:18:58.999Z</time></trkpt><trkpt lat="39.28410218162332" lon="16.05646244717011"><ele>5.0</ele><time>2026-03-29T14:18:59.999Z</time></trkpt><trkpt lat="39.28411802546937" lon="16.056598798902126"><ele>5.0</ele><time>2026-03-29T14:19:00.999Z</time></trkpt><trkpt lat="39.284133855262176" lon="16.05673502966962"><ele>5.0</ele><time>2026-03-29T14:19:01.999Z</time></trkpt><trkpt lat="39.28414927184942" lon="16.056867704122492"><ele>5.0</ele><time>2026-03-29T14:19:02.999Z</time></trkpt><trkpt lat="39.284183415142465" lon="16.056989204110433"><ele>5.166666666666667</ele><time>2026-03-29T14:19:03.999Z</time></trkpt><trkpt lat="39.28418627190662" lon="16.05710410981608"><ele>5.333333333333334</ele><time>2026-03-29T14:19:04.999Z</time></trkpt><trkpt lat="39.28418445076023" lon="16.057202588860385"><ele>5.5</ele><time>2026-03-29T14:19:05.999Z</time></trkpt><trkpt lat="39.28417995452293" lon="16.057330626146296"><ele>5.666666666666667</ele><time>2026-03-29T14:19:07.999Z</time></trkpt><trkpt lat="39.28418152304352" lon="16.05741562440266"><ele>5.833333333333333</ele><time>2026-03-29T14:19:22Z</time></trkpt><trkpt lat="39.284248613353626" lon="16.057500192901532"><ele>6.0</ele><time>2026-03-29T14:19:25Z</time></trkpt><trkpt lat="39.284313142354534" lon="16.057517442675508"><ele>6.6</ele><time>2026-03-29T14:19:26Z</time></trkpt><trkpt lat="39.28439247174393" lon="16.057526303658907"><ele>7.199999999999999</ele><time>2026-03-29T14:19:27Z</time></trkpt><trkpt lat="39.284480626848335" lon="16.057536282731576"><ele>7.800000000000001</ele><time>2026-03-29T14:19:28Z</time></trkpt><trkpt lat="39.28457807818554" lon="16.057542837082043"><ele>8.4</ele><time>2026-03-29T14:19:29Z</time></trkpt><trkpt lat="39.284692846444" lon="16.05754675755025"><ele>9.0</ele><time>2026-03-29T14:19:30Z</time></trkpt><trkpt lat="39.28481230359651" lon="16.057551906398604"><ele>9.25</ele><time>2026-03-29T14:19:31Z</time></trkpt><trkpt lat="39.28493328465619" lon="16.05755694930635"><ele>9.5</ele><time>2026-03-29T14:19:32Z</time></trkpt><trkpt lat="39.28505777541692" lon="16.05756134871187"><ele>9.75</ele><time>2026-03-29T14:19:33Z</time></trkpt><trkpt lat="39.28518556589077" lon="16.057566193600767"><ele>10.0</ele><time>2026-03-29T14:19:34Z</time></trkpt><trkpt lat="39.285320986725814" lon="16.05757042877907"><ele>10.0</ele><time>2026-03-29T14:19:35Z</time></trkpt><trkpt lat="39.28546352569701" lon="16.05758286094185"><ele>10.0</ele><time>2026-03-29T14:19:36Z</time></trkpt><trkpt lat="39.285602878011886" lon="16.057582284125786"><ele>10.0</ele><time>2026-03-29T14:19:37Z</time></trkpt><trkpt lat="39.285743672273675" lon="16.057586155957264"><ele>10.0</ele><time>2026-03-29T14:19:38Z</time></trkpt><trkpt lat="39.28588728720191" lon="16.057590213444414"><ele>10.75</ele><time>2026-03-29T14:19:39Z</time></trkpt><trkpt lat="39.286034371809016" lon="16.05759536924412"><ele>11.5</ele><time>2026-03-29T14:19:40Z</time></trkpt><trkpt lat="39.286181571869825" lon="16.05760358382331"><ele>12.25</ele><time>2026-03-29T14:19:41Z</time></trkpt><trkpt lat="39.286331191773876" lon="16.057615589362747"><ele>13.0</ele><time>2026-03-29T14:19:42Z</time></trkpt><trkpt lat="39.286483527891136" lon="16.057625429359668"><ele>13.0</ele><time>2026-03-29T14:19:43Z</time></trkpt><trkpt lat="39.28664121681663" lon="16.057639865662914"><ele>13.0</ele><time>2026-03-29T14:19:44Z</time></trkpt><trkpt lat="39.28679797696499" lon="16.057656873981628"><ele>13.0</ele><time>2026-03-29T14:19:45Z</time></trkpt><trkpt lat="39.28695913726472" lon="16.057673220545247"><ele>13.0</ele><time>2026-03-29T14:19:46Z</time></trkpt><trkpt lat="39.287126537709405" lon="16.05769165901872"><ele>13.0</ele><time>2026-03-29T14:19:47Z</time></trkpt><trkpt lat="39.287292878720756" lon="16.057708561939325"><ele>13.0</ele><time>2026-03-29T14:19:48Z</time></trkpt><trkpt lat="39.28745804599664" lon="16.057725801259654"><ele>13.333333333333332</ele><time>2026-03-29T14:19:49Z</time></trkpt><trkpt lat="39.28762348422779" lon="16.057743452483553"><ele>13.666666666666668</ele><time>2026-03-29T14:19:50Z</time></trkpt><trkpt lat="39.2877942724884" lon="16.057757539393286"><ele>14.0</ele><time>2026-03-29T14:19:51Z</time></trkpt><trkpt lat="39.28796755048021" lon="16.057771846582735"><ele>13.666666666666668</ele><time>2026-03-29T14:19:52Z</time></trkpt><trkpt lat="39.28814434882606" lon="16.05778720456518"><ele>13.333333333333332</ele><time>2026-03-29T14:19:53Z</time></trkpt><trkpt lat="39.28832161240621" lon="16.057799048764178"><ele>13.0</ele><time>2026-03-29T14:19:54Z</time></trkpt><trkpt lat="39.28850244833998" lon="16.0578109632382"><ele>13.0</ele><time>2026-03-29T14:19:55Z</time></trkpt><trkpt lat="39.288685467037254" lon="16.057824419134334"><ele>13.0</ele><time>2026-03-29T14:19:56Z</time></trkpt><trkpt lat="39.288868482220266" lon="16.05783802764427"><ele>13.0</ele><time>2026-03-29T14:19:57Z</time></trkpt><trkpt lat="39.2890504442649" lon="16.057846598778713"><ele>14.0</ele><time>2026-03-29T14:19:58Z</time></trkpt><trkpt lat="39.28923296512678" lon="16.057848837929402"><ele>15.0</ele><time>2026-03-29T14:19:59Z</time></trkpt><trkpt lat="39.289417535262324" lon="16.05784039832066"><ele>16.0</ele><time>2026-03-29T14:20:00Z</time></trkpt><trkpt lat="39.28960171601835" lon="16.05781760813075"><ele>17.333333333333332</ele><time>2026-03-29T14:20:01Z</time></trkpt><trkpt lat="39.289786114127025" lon="16.057781446964324"><ele>18.666666666666668</ele><time>2026-03-29T14:20:02Z</time></trkpt><trkpt lat="39.289968658027846" lon="16.05772875825052"><ele>20.0</ele><time>2026-03-29T14:20:03Z</time></trkpt><trkpt lat="39.290147459593506" lon="16.057662737632"><ele>20.0</ele><time>2026-03-29T14:20:04Z</time></trkpt><trkpt lat="39.29032632096305" lon="16.057593980489656"><ele>20.0</ele><time>2026-03-29T14:20:05Z</time></trkpt><trkpt lat="39.29050638318719" lon="16.057522396344286"><ele>20.0</ele><time>2026-03-29T14:20:06Z</time></trkpt><trkpt lat="39.29068757151486" lon="16.057449917055095"><ele>18.666666666666668</ele><time>2026-03-29T14:20:07Z</time></trkpt><trkpt lat="39.29087139869499" lon="16.05737866437627"><ele>17.333333333333332</ele><time>2026-03-29T14:20:08Z</time></trkpt><trkpt lat="39.291057847083245" lon="16.057302087094186"><ele>16.0</ele><time>2026-03-29T14:20:09Z</time></trkpt><trkpt lat="39.29124497941792" lon="16.057224825216473"><ele>20.333333333333332</ele><time>2026-03-29T14:20:10Z</time></trkpt><trkpt lat="39.29143039223997" lon="16.0571465141316"><ele>24.666666666666664</ele><time>2026-03-29T14:20:11Z</time></trkpt><trkpt lat="39.29161718770867" lon="16.057068831044383"><ele>29.0</ele><time>2026-03-29T14:20:12Z</time></trkpt><trkpt lat="39.291806653964905" lon="16.056990208355042"><ele>29.0</ele><time>2026-03-29T14:20:13Z</time></trkpt><trkpt lat="39.29199312128319" lon="16.056913198563436"><ele>29.0</ele><time>2026-03-29T14:20:14Z</time></trkpt><trkpt lat="39.29217362708355" lon="16.056840061001108"><ele>29.0</ele><time>2026-03-29T14:20:15Z</time></trkpt><trkpt lat="39.292354139210225" lon="16.05677366786711"><ele>30.333333333333332</ele><time>2026-03-29T14:20:16Z</time></trkpt><trkpt lat="39.29253419539735" lon="16.056711723144247"><ele>31.666666666666664</ele><time>2026-03-29T14:20:17Z</time></trkpt><trkpt lat="39.29271998676038" lon="16.056663299798366"><ele>33.0</ele><time>2026-03-29T14:20:18Z</time></trkpt><trkpt lat="39.29290816260487" lon="16.05661955527437"><ele>30.666666666666664</ele><time>2026-03-29T14:20:19Z</time></trkpt><trkpt lat="39.2930975805811" lon="16.056581000849434"><ele>28.333333333333332</ele><time>2026-03-29T14:20:20Z</time></trkpt><trkpt lat="39.2932877015645" lon="16.0565471874674"><ele>26.0</ele><time>2026-03-29T14:20:21Z</time></trkpt><trkpt lat="39.29347811007496" lon="16.056513445753758"><ele>26.0</ele><time>2026-03-29T14:20:22Z</time></trkpt><trkpt lat="39.29366930412388" lon="16.056481983891384"><ele>26.0</ele><time>2026-03-29T14:20:23Z</time></trkpt><trkpt lat="39.293860074603394" lon="16.056450665703714"><ele>26.0</ele><time>2026-03-29T14:20:24Z</time></trkpt><trkpt lat="39.294050103642896" lon="16.056417345174804"><ele>27.333333333333332</ele><time>2026-03-29T14:20:25Z</time></trkpt><trkpt lat="39.29423933838705" lon="16.05638468679235"><ele>28.666666666666664</ele><time>2026-03-29T14:20:26Z</time></trkpt><trkpt lat="39.294428561615995" lon="16.05634969352139"><ele>30.0</ele><time>2026-03-29T14:20:27Z</time></trkpt><trkpt lat="39.29461562346422" lon="16.056312181794063"><ele>31.333333333333336</ele><time>2026-03-29T14:20:28Z</time></trkpt><trkpt lat="39.294802268358005" lon="16.056275791684914"><ele>32.66666666666667</ele><time>2026-03-29T14:20:29Z</time></trkpt><trkpt lat="39.29498760861974" lon="16.05623867502159"><ele>34.0</ele><time>2026-03-29T14:20:30Z</time></trkpt><trkpt lat="39.29517053930676" lon="16.056202942453105"><ele>34.0</ele><time>2026-03-29T14:20:31Z</time></trkpt><trkpt lat="39.29535299358232" lon="16.05616715319375"><ele>34.0</ele><time>2026-03-29T14:20:32Z</time></trkpt><trkpt lat="39.295535315242" lon="16.056131989310128"><ele>34.0</ele><time>2026-03-29T14:20:33Z</time></trkpt><trkpt lat="39.29571882035898" lon="16.056096762380086"><ele>35.66666666666667</ele><time>2026-03-29T14:20:34Z</time></trkpt><trkpt lat="39.295903255423276" lon="16.05606107948353"><ele>37.333333333333336</ele><time>2026-03-29T14:20:35Z</time></trkpt><trkpt lat="39.29608691660943" lon="16.056025705597854"><ele>39.0</ele><time>2026-03-29T14:20:36Z</time></trkpt><trkpt lat="39.296268048608866" lon="16.055988871329056"><ele>40.333333333333336</ele><time>2026-03-29T14:20:37Z</time></trkpt><trkpt lat="39.29644773922379" lon="16.05595449288654"><ele>41.66666666666667</ele><time>2026-03-29T14:20:38Z</time></trkpt><trkpt lat="39.29662879653125" lon="16.055920617548566"><ele>43.0</ele><time>2026-03-29T14:20:39Z</time></trkpt><trkpt lat="39.29681049184693" lon="16.0558860132983"><ele>43.0</ele><time>2026-03-29T14:20:40Z</time></trkpt><trkpt lat="39.296993450156485" lon="16.055848457430294"><ele>43.0</ele><time>2026-03-29T14:20:41Z</time></trkpt><trkpt lat="39.297173196283026" lon="16.055800779072026"><ele>43.0</ele><time>2026-03-29T14:20:42Z</time></trkpt><trkpt lat="39.2973506902653" lon="16.055748124150497"><ele>41.333333333333336</ele><time>2026-03-29T14:20:43Z</time></trkpt><trkpt lat="39.297524899965495" lon="16.0556840183881"><ele>39.666666666666664</ele><time>2026-03-29T14:20:44Z</time></trkpt><trkpt lat="39.29769425583315" lon="16.055611438616193"><ele>38.0</ele><time>2026-03-29T14:20:45Z</time></trkpt><trkpt lat="39.29786019788016" lon="16.055529025875384"><ele>38.0</ele><time>2026-03-29T14:20:46Z</time></trkpt><trkpt lat="39.29802644015344" lon="16.055437590924594"><ele>38.0</ele><time>2026-03-29T14:20:46.999Z</time></trkpt><trkpt lat="39.29819295146543" lon="16.05534462050373"><ele>38.0</ele><time>2026-03-29T14:20:47.999Z</time></trkpt><trkpt lat="39.29835810180168" lon="16.055251429329857"><ele>40.33333333333333</ele><time>2026-03-29T14:20:48.999Z</time></trkpt><trkpt lat="39.29852225937241" lon="16.055160042871215"><ele>42.666666666666664</ele><time>2026-03-29T14:20:49.999Z</time></trkpt><trkpt lat="39.29868636478464" lon="16.055070417594614"><ele>45.0</ele><time>2026-03-29T14:20:50.999Z</time></trkpt><trkpt lat="39.29885181610975" lon="16.054977724493675"><ele>42.0</ele><time>2026-03-29T14:20:51.999Z</time></trkpt><trkpt lat="39.299020823351775" lon="16.054885887175317"><ele>39.0</ele><time>2026-03-29T14:20:52.999Z</time></trkpt><trkpt lat="39.29919476506891" lon="16.054790339328555"><ele>36.0</ele><time>2026-03-29T14:20:53.999Z</time></trkpt><trkpt lat="39.29937122534242" lon="16.054695303145735"><ele>36.0</ele><time>2026-03-29T14:20:54.999Z</time></trkpt><trkpt lat="39.29954736390308" lon="16.0546022456886"><ele>36.0</ele><time>2026-03-29T14:20:55.999Z</time></trkpt><trkpt lat="39.299721948572476" lon="16.054511175788395"><ele>36.0</ele><time>2026-03-29T14:20:56.999Z</time></trkpt><trkpt lat="39.29989667924473" lon="16.054423495347223"><ele>38.0</ele><time>2026-03-29T14:20:57.999Z</time></trkpt><trkpt lat="39.300074976578415" lon="16.05434127600518"><ele>40.0</ele><time>2026-03-29T14:20:58.999Z</time></trkpt><trkpt lat="39.30025350252863" lon="16.05426272513556"><ele>42.0</ele><time>2026-03-29T14:20:59.999Z</time></trkpt><trkpt lat="39.30043038215542" lon="16.054186601189127"><ele>39.666666666666664</ele><time>2026-03-29T14:21:00.999Z</time></trkpt><trkpt lat="39.30060594955903" lon="16.054112230108096"><ele>37.33333333333333</ele><time>2026-03-29T14:21:01.999Z</time></trkpt><trkpt lat="39.300779806578966" lon="16.054037713343124"><ele>35.0</ele><time>2026-03-29T14:21:02.999Z</time></trkpt><trkpt lat="39.30095286408355" lon="16.05396568036445"><ele>35.0</ele><time>2026-03-29T14:21:03.999Z</time></trkpt><trkpt lat="39.301123568781904" lon="16.053895958273234"><ele>35.0</ele><time>2026-03-29T14:21:04.999Z</time></trkpt><trkpt lat="39.30128643599728" lon="16.053832558148457"><ele>35.0</ele><time>2026-03-29T14:21:05.999Z</time></trkpt><trkpt lat="39.30144836822193" lon="16.053765717692794"><ele>36.666666666666664</ele><time>2026-03-29T14:21:06.999Z</time></trkpt><trkpt lat="39.30160802119381" lon="16.05369642314933"><ele>38.333333333333336</ele><time>2026-03-29T14:21:07.999Z</time></trkpt><trkpt lat="39.30176838995217" lon="16.053629349242136"><ele>40.0</ele><time>2026-03-29T14:21:08.999Z</time></trkpt><trkpt lat="39.30192726780763" lon="16.053567168223143"><ele>40.0</ele><time>2026-03-29T14:21:09.999Z</time></trkpt><trkpt lat="39.302083688028986" lon="16.05350837486878"><ele>40.0</ele><time>2026-03-29T14:21:10.999Z</time></trkpt><trkpt lat="39.30223731094393" lon="16.05344685129285"><ele>40.0</ele><time>2026-03-29T14:21:11.999Z</time></trkpt><trkpt lat="39.302390422780704" lon="16.05338445956492"><ele>39.333333333333336</ele><time>2026-03-29T14:21:12.999Z</time></trkpt><trkpt lat="39.30254057710805" lon="16.05332238914937"><ele>38.666666666666664</ele><time>2026-03-29T14:21:13.999Z</time></trkpt><trkpt lat="39.302687199851626" lon="16.053260922625736"><ele>38.0</ele><time>2026-03-29T14:21:14.999Z</time></trkpt><trkpt lat="39.30283301712295" lon="16.05320155903529"><ele>38.0</ele><time>2026-03-29T14:21:15.999Z</time></trkpt><trkpt lat="39.302978044316134" lon="16.053145384228387"><ele>38.0</ele><time>2026-03-29T14:21:16.999Z</time></trkpt><trkpt lat="39.30312401437523" lon="16.053089857473548"><ele>38.0</ele><time>2026-03-29T14:21:17.999Z</time></trkpt><trkpt lat="39.30327011379552" lon="16.053034603771835"><ele>40.666666666666664</ele><time>2026-03-29T14:21:18.999Z</time></trkpt><trkpt lat="39.30341836630226" lon="16.052978470878166"><ele>43.333333333333336</ele><time>2026-03-29T14:21:19.999Z</time></trkpt><trkpt lat="39.30356704437994" lon="16.052923918370716"><ele>46.0</ele><time>2026-03-29T14:21:20.999Z</time></trkpt><trkpt lat="39.30371926646499" lon="16.05287911579221"><ele>46.0</ele><time>2026-03-29T14:21:21.999Z</time></trkpt><trkpt lat="39.30387577075244" lon="16.05284389063046"><ele>46.0</ele><time>2026-03-29T14:21:22.999Z</time></trkpt><trkpt lat="39.30403843128314" lon="16.05281511430673"><ele>46.0</ele><time>2026-03-29T14:21:23.999Z</time></trkpt><trkpt lat="39.30420120177699" lon="16.052798518277747"><ele>47.66666666666667</ele><time>2026-03-29T14:21:24.999Z</time></trkpt><trkpt lat="39.30436216748954" lon="16.052792447066427"><ele>49.333333333333336</ele><time>2026-03-29T14:21:25.999Z</time></trkpt><trkpt lat="39.30452032194832" lon="16.05279281820481"><ele>51.0</ele><time>2026-03-29T14:21:26.999Z</time></trkpt><trkpt lat="39.30468226499389" lon="16.052800607483135"><ele>53.0</ele><time>2026-03-29T14:21:28Z</time></trkpt><trkpt lat="39.30484220069796" lon="16.05281750672798"><ele>55.0</ele><time>2026-03-29T14:21:29Z</time></trkpt><trkpt lat="39.30500319048309" lon="16.05284285108691"><ele>57.0</ele><time>2026-03-29T14:21:30Z</time></trkpt><trkpt lat="39.30516501626749" lon="16.052878757876677"><ele>57.0</ele><time>2026-03-29T14:21:31Z</time></trkpt><trkpt lat="39.3053238312751" lon="16.05291903381549"><ele>57.0</ele><time>2026-03-29T14:21:32Z</time></trkpt><trkpt lat="39.305476425622864" lon="16.052963213094934"><ele>57.0</ele><time>2026-03-29T14:21:33Z</time></trkpt><trkpt lat="39.305629072076194" lon="16.053007779302234"><ele>57.0</ele><time>2026-03-29T14:21:34Z</time></trkpt><trkpt lat="39.30578449484671" lon="16.053054664211526"><ele>57.0</ele><time>2026-03-29T14:21:35Z</time></trkpt><trkpt lat="39.3059446163884" lon="16.0531009731061"><ele>57.0</ele><time>2026-03-29T14:21:36Z</time></trkpt><trkpt lat="39.30610705453509" lon="16.053142459242235"><ele>57.0</ele><time>2026-03-29T14:21:37Z</time></trkpt><trkpt lat="39.30627127256447" lon="16.053180556666803"><ele>57.0</ele><time>2026-03-29T14:21:38Z</time></trkpt><trkpt lat="39.30644025269608" lon="16.05322165090185"><ele>57.0</ele><time>2026-03-29T14:21:39Z</time></trkpt><trkpt lat="39.30660874670102" lon="16.05325915085946"><ele>62.0</ele><time>2026-03-29T14:21:40Z</time></trkpt><trkpt lat="39.30677555287426" lon="16.05329218443496"><ele>67.0</ele><time>2026-03-29T14:21:41Z</time></trkpt><trkpt lat="39.30694138169683" lon="16.05331845341467"><ele>72.0</ele><time>2026-03-29T14:21:42Z</time></trkpt><trkpt lat="39.3071049365751" lon="16.053329693704974"><ele>72.33333333333333</ele><time>2026-03-29T14:21:43Z</time></trkpt><trkpt lat="39.30727078077586" lon="16.05332451797414"><ele>72.66666666666666</ele><time>2026-03-29T14:21:44Z</time></trkpt><trkpt lat="39.30743835382876" lon="16.05330065825375"><ele>73.0</ele><time>2026-03-29T14:21:45Z</time></trkpt><trkpt lat="39.307606525899764" lon="16.053265105277948"><ele>73.0</ele><time>2026-03-29T14:21:46Z</time></trkpt><trkpt lat="39.307775084221134" lon="16.053225693415992"><ele>73.0</ele><time>2026-03-29T14:21:47Z</time></trkpt><trkpt lat="39.30794480592169" lon="16.053182286604198"><ele>73.0</ele><time>2026-03-29T14:21:48Z</time></trkpt><trkpt lat="39.308117397997535" lon="16.053137177689223"><ele>71.33333333333333</ele><time>2026-03-29T14:21:49Z</time></trkpt><trkpt lat="39.308293042661724" lon="16.053091521075"><ele>69.66666666666667</ele><time>2026-03-29T14:21:50Z</time></trkpt><trkpt lat="39.30845101685245" lon="16.053061621503012"><ele>68.0</ele><time>2026-03-29T14:21:51Z</time></trkpt><trkpt lat="39.30863455147558" lon="16.053008335507744"><ele>68.0</ele><time>2026-03-29T14:21:52Z</time></trkpt><trkpt lat="39.308800291120484" lon="16.052966599326247"><ele>68.0</ele><time>2026-03-29T14:21:53Z</time></trkpt><trkpt lat="39.308967538687504" lon="16.052941481755102"><ele>68.0</ele><time>2026-03-29T14:21:54Z</time></trkpt><trkpt lat="39.309122320904194" lon="16.052888938934316"><ele>69.0</ele><time>2026-03-29T14:21:55Z</time></trkpt><trkpt lat="39.30927478082989" lon="16.052858046707254"><ele>70.0</ele><time>2026-03-29T14:21:56Z</time></trkpt><trkpt lat="39.30942060668816" lon="16.052834163974836"><ele>71.0</ele><time>2026-03-29T14:21:57Z</time></trkpt><trkpt lat="39.30956267461047" lon="16.052815096190916"><ele>72.0</ele><time>2026-03-29T14:21:58Z</time></trkpt><trkpt lat="39.309702608930934" lon="16.05280386527085"><ele>73.0</ele><time>2026-03-29T14:21:59Z</time></trkpt><trkpt lat="39.309841844349826" lon="16.052804624973408"><ele>74.0</ele><time>2026-03-29T14:22:00Z</time></trkpt><trkpt lat="39.30998406680086" lon="16.052809603329703"><ele>75.0</ele><time>2026-03-29T14:22:01Z</time></trkpt><trkpt lat="39.31012178318033" lon="16.052824096876176"><ele>76.0</ele><time>2026-03-29T14:22:02Z</time></trkpt><trkpt lat="39.31025291265121" lon="16.05283425748535"><ele>76.0</ele><time>2026-03-29T14:22:03Z</time></trkpt><trkpt lat="39.310388565086676" lon="16.052845083793148"><ele>76.0</ele><time>2026-03-29T14:22:04Z</time></trkpt><trkpt lat="39.31051468197017" lon="16.05285447728168"><ele>76.0</ele><time>2026-03-29T14:22:05Z</time></trkpt><trkpt lat="39.310640791638896" lon="16.052861533660984"><ele>76.0</ele><time>2026-03-29T14:22:06Z</time></trkpt><trkpt lat="39.31076875441959" lon="16.052872453868478"><ele>75.5</ele><time>2026-03-29T14:22:07Z</time></trkpt><trkpt lat="39.310891538834596" lon="16.052880034543406"><ele>75.0</ele><time>2026-03-29T14:22:08Z</time></trkpt><trkpt lat="39.31101099900539" lon="16.05288474244568"><ele>74.5</ele><time>2026-03-29T14:22:09Z</time></trkpt><trkpt lat="39.31113102287041" lon="16.052897112087752"><ele>74.0</ele><time>2026-03-29T14:22:10Z</time></trkpt><trkpt lat="39.31124860321466" lon="16.052899518780603"><ele>74.0</ele><time>2026-03-29T14:22:11Z</time></trkpt><trkpt lat="39.31136813471312" lon="16.052905858430726"><ele>74.0</ele><time>2026-03-29T14:22:12Z</time></trkpt><trkpt lat="39.31149111737666" lon="16.052916099124168"><ele>74.0</ele><time>2026-03-29T14:22:13Z</time></trkpt><trkpt lat="39.311612977030414" lon="16.052927781951496"><ele>74.0</ele><time>2026-03-29T14:22:14Z</time></trkpt><trkpt lat="39.31173144844284" lon="16.052939903959967"><ele>74.5</ele><time>2026-03-29T14:22:15Z</time></trkpt><trkpt lat="39.31184641915368" lon="16.05295166709017"><ele>75.0</ele><time>2026-03-29T14:22:16Z</time></trkpt><trkpt lat="39.31195955735662" lon="16.05296216098796"><ele>75.5</ele><time>2026-03-29T14:22:17Z</time></trkpt><trkpt lat="39.31207187318084" lon="16.05296854211424"><ele>76.0</ele><time>2026-03-29T14:22:18Z</time></trkpt><trkpt lat="39.31218477080343" lon="16.05297676848397"><ele>75.5</ele><time>2026-03-29T14:22:19Z</time></trkpt><trkpt lat="39.312302524192134" lon="16.052988581584042"><ele>75.0</ele><time>2026-03-29T14:22:20Z</time></trkpt><trkpt lat="39.31242266375906" lon="16.052996108169413"><ele>74.5</ele><time>2026-03-29T14:22:21Z</time></trkpt><trkpt lat="39.31254484827492" lon="16.053006107741577"><ele>74.0</ele><time>2026-03-29T14:22:22Z</time></trkpt><trkpt lat="39.312666903319624" lon="16.053017403322105"><ele>74.0</ele><time>2026-03-29T14:22:23Z</time></trkpt><trkpt lat="39.31278972977385" lon="16.053026596444482"><ele>74.0</ele><time>2026-03-29T14:22:24Z</time></trkpt><trkpt lat="39.312920539232" lon="16.053037669642546"><ele>74.0</ele><time>2026-03-29T14:22:25Z</time></trkpt><trkpt lat="39.31305493137127" lon="16.053056016756543"><ele>74.0</ele><time>2026-03-29T14:22:26Z</time></trkpt><trkpt lat="39.313189196778346" lon="16.053069601017988"><ele>73.5</ele><time>2026-03-29T14:22:27Z</time></trkpt><trkpt lat="39.31332059903016" lon="16.05308284420753"><ele>73.0</ele><time>2026-03-29T14:22:28Z</time></trkpt><trkpt lat="39.31346090964813" lon="16.05309317980105"><ele>72.5</ele><time>2026-03-29T14:22:29Z</time></trkpt><trkpt lat="39.31360273027978" lon="16.05310516606525"><ele>72.0</ele><time>2026-03-29T14:22:30Z</time></trkpt><trkpt lat="39.31374612042669" lon="16.05311562860675"><ele>72.0</ele><time>2026-03-29T14:22:31Z</time></trkpt><trkpt lat="39.31389155380017" lon="16.05312173681147"><ele>72.0</ele><time>2026-03-29T14:22:32Z</time></trkpt><trkpt lat="39.31404159881232" lon="16.05313364485082"><ele>72.0</ele><time>2026-03-29T14:22:33Z</time></trkpt><trkpt lat="39.3142073172711" lon="16.053148300728562"><ele>71.66666666666667</ele><time>2026-03-29T14:22:34Z</time></trkpt><trkpt lat="39.31437050249313" lon="16.05316274502181"><ele>71.33333333333334</ele><time>2026-03-29T14:22:35Z</time></trkpt><trkpt lat="39.3145333056095" lon="16.0531786014226"><ele>71.0</ele><time>2026-03-29T14:22:36Z</time></trkpt><trkpt lat="39.314693704702094" lon="16.05319382770286"><ele>72.33333333333334</ele><time>2026-03-29T14:22:37Z</time></trkpt><trkpt lat="39.314849510929044" lon="16.053212812606027"><ele>73.66666666666667</ele><time>2026-03-29T14:22:38Z</time></trkpt><trkpt lat="39.315004084614465" lon="16.053227319665893"><ele>75.0</ele><time>2026-03-29T14:22:39Z</time></trkpt><trkpt lat="39.31515859513149" lon="16.05324194376061"><ele>75.0</ele><time>2026-03-29T14:22:40Z</time></trkpt><trkpt lat="39.31531572171707" lon="16.053255077776047"><ele>75.0</ele><time>2026-03-29T14:22:41Z</time></trkpt><trkpt lat="39.31547400707936" lon="16.05326743822996"><ele>75.0</ele><time>2026-03-29T14:22:42Z</time></trkpt><trkpt lat="39.31563583228066" lon="16.053278706637048"><ele>77.33333333333333</ele><time>2026-03-29T14:22:43Z</time></trkpt><trkpt lat="39.3157977564853" lon="16.053290110130266"><ele>79.66666666666666</ele><time>2026-03-29T14:22:44Z</time></trkpt><trkpt lat="39.31595622035209" lon="16.05330251427488"><ele>82.0</ele><time>2026-03-29T14:22:45Z</time></trkpt><trkpt lat="39.31611237914751" lon="16.053314763322394"><ele>82.0</ele><time>2026-03-29T14:22:46Z</time></trkpt><trkpt lat="39.31626957861273" lon="16.0533294078371"><ele>82.0</ele><time>2026-03-29T14:22:47Z</time></trkpt><trkpt lat="39.31642646433259" lon="16.053341031168642"><ele>82.0</ele><time>2026-03-29T14:22:48Z</time></trkpt><trkpt lat="39.316585727938104" lon="16.05335158875846"><ele>81.33333333333333</ele><time>2026-03-29T14:22:49Z</time></trkpt><trkpt lat="39.31674587680487" lon="16.05336133308759"><ele>80.66666666666667</ele><time>2026-03-29T14:22:50Z</time></trkpt><trkpt lat="39.31690967488375" lon="16.053372587401636"><ele>80.0</ele><time>2026-03-29T14:22:51Z</time></trkpt><trkpt lat="39.317069890643" lon="16.053378687813172"><ele>80.0</ele><time>2026-03-29T14:22:52Z</time></trkpt><trkpt lat="39.31722546143766" lon="16.053377431051562"><ele>80.0</ele><time>2026-03-29T14:22:53Z</time></trkpt><trkpt lat="39.31737972547093" lon="16.053369950682495"><ele>80.0</ele><time>2026-03-29T14:22:54Z</time></trkpt><trkpt lat="39.31753408503151" lon="16.053354217461106"><ele>79.66666666666667</ele><time>2026-03-29T14:22:55Z</time></trkpt><trkpt lat="39.31769128575106" lon="16.05332346271371"><ele>79.33333333333333</ele><time>2026-03-29T14:22:56Z</time></trkpt><trkpt lat="39.317848233543245" lon="16.053274680980586"><ele>79.0</ele><time>2026-03-29T14:22:57Z</time></trkpt><trkpt lat="39.3180058620469" lon="16.05320924965201"><ele>77.66666666666666</ele><time>2026-03-29T14:22:57.999Z</time></trkpt><trkpt lat="39.31816568885755" lon="16.05314203403572"><ele>76.33333333333333</ele><time>2026-03-29T14:22:58.999Z</time></trkpt><trkpt lat="39.31832939386701" lon="16.053069417152738"><ele>75.0</ele><time>2026-03-29T14:22:59.999Z</time></trkpt><trkpt lat="39.31849320086404" lon="16.052996251487816"><ele>75.0</ele><time>2026-03-29T14:23:00.999Z</time></trkpt><trkpt lat="39.3186546426916" lon="16.052925995182772"><ele>75.0</ele><time>2026-03-29T14:23:01.999Z</time></trkpt><trkpt lat="39.31881245122293" lon="16.052856305974977"><ele>75.0</ele><time>2026-03-29T14:23:02.999Z</time></trkpt><trkpt lat="39.31896749286288" lon="16.0527884185815"><ele>77.0</ele><time>2026-03-29T14:23:03.999Z</time></trkpt><trkpt lat="39.31911949625487" lon="16.052720680304592"><ele>79.0</ele><time>2026-03-29T14:23:04.999Z</time></trkpt><trkpt lat="39.31926693750885" lon="16.052650723055415"><ele>81.0</ele><time>2026-03-29T14:23:05.999Z</time></trkpt><trkpt lat="39.31940921310971" lon="16.05258475773209"><ele>81.0</ele><time>2026-03-29T14:23:06.999Z</time></trkpt><trkpt lat="39.31954338698281" lon="16.052520064858292"><ele>81.0</ele><time>2026-03-29T14:23:07.999Z</time></trkpt><trkpt lat="39.31967186231748" lon="16.052458519607537"><ele>81.0</ele><time>2026-03-29T14:23:08.999Z</time></trkpt><trkpt lat="39.319793154618864" lon="16.05240019572816"><ele>81.0</ele><time>2026-03-29T14:23:09.999Z</time></trkpt><trkpt lat="39.31990691572516" lon="16.05234580521372"><ele>79.39999999999999</ele><time>2026-03-29T14:23:10.999Z</time></trkpt><trkpt lat="39.3200131684689" lon="16.052296619390173"><ele>77.8</ele><time>2026-03-29T14:23:11.999Z</time></trkpt><trkpt lat="39.32011180404285" lon="16.052251920541725"><ele>76.19999999999999</ele><time>2026-03-29T14:23:12.999Z</time></trkpt><trkpt lat="39.320198749318735" lon="16.05222006275062"><ele>74.6</ele><time>2026-03-29T14:23:13.999Z</time></trkpt><trkpt lat="39.320279002413876" lon="16.052203390556954"><ele>73.0</ele><time>2026-03-29T14:23:14.999Z</time></trkpt><trkpt lat="39.32036068806799" lon="16.052200617549335"><ele>73.0</ele><time>2026-03-29T14:23:15.999Z</time></trkpt><trkpt lat="39.32043947507944" lon="16.05219443133426"><ele>73.0</ele><time>2026-03-29T14:23:16.999Z</time></trkpt><trkpt lat="39.320512787047235" lon="16.052152574109936"><ele>73.0</ele><time>2026-03-29T14:23:17.999Z</time></trkpt><trkpt lat="39.32057454591406" lon="16.05208472155468"><ele>73.0</ele><time>2026-03-29T14:23:18.999Z</time></trkpt><trkpt lat="39.32063965165538" lon="16.052024054007166"><ele>73.0</ele><time>2026-03-29T14:23:19.999Z</time></trkpt><trkpt lat="39.32071720413948" lon="16.05199428634882"><ele>73.0</ele><time>2026-03-29T14:23:20.999Z</time></trkpt><trkpt lat="39.32080676838711" lon="16.05197749444163"><ele>71.8</ele><time>2026-03-29T14:23:21.999Z</time></trkpt><trkpt lat="39.32090469041629" lon="16.051959202965506"><ele>70.6</ele><time>2026-03-29T14:23:22.999Z</time></trkpt><trkpt lat="39.32100951281138" lon="16.051940496913787"><ele>69.4</ele><time>2026-03-29T14:23:23.999Z</time></trkpt><trkpt lat="39.321116206395715" lon="16.05191967488477"><ele>68.2</ele><time>2026-03-29T14:23:24.999Z</time></trkpt><trkpt lat="39.3212257596092" lon="16.051894637284036"><ele>67.0</ele><time>2026-03-29T14:23:25.999Z</time></trkpt><trkpt lat="39.32133822350808" lon="16.051863709208885"><ele>65.25</ele><time>2026-03-29T14:23:26.999Z</time></trkpt><trkpt lat="39.321457897830484" lon="16.051829370930307"><ele>63.5</ele><time>2026-03-29T14:23:27.999Z</time></trkpt><trkpt lat="39.321584805900535" lon="16.05179199779401"><ele>61.75</ele><time>2026-03-29T14:23:28.999Z</time></trkpt><trkpt lat="39.321712343258916" lon="16.051755596902094"><ele>60.0</ele><time>2026-03-29T14:23:29.999Z</time></trkpt><trkpt lat="39.32184207192754" lon="16.051716379677945"><ele>60.0</ele><time>2026-03-29T14:23:30.999Z</time></trkpt><trkpt lat="39.321972969411526" lon="16.05167318971537"><ele>60.0</ele><time>2026-03-29T14:23:31.999Z</time></trkpt><trkpt lat="39.32210537589619" lon="16.05162722498025"><ele>60.0</ele><time>2026-03-29T14:23:32.999Z</time></trkpt><trkpt lat="39.32224178033233" lon="16.051577168532024"><ele>60.0</ele><time>2026-03-29T14:23:34Z</time></trkpt><trkpt lat="39.3223780533401" lon="16.051511888538204"><ele>58.25</ele><time>2026-03-29T14:23:35Z</time></trkpt><trkpt lat="39.322512527163354" lon="16.051435024120384"><ele>56.5</ele><time>2026-03-29T14:23:36Z</time></trkpt><trkpt lat="39.32264397157358" lon="16.051349343785713"><ele>54.75</ele><time>2026-03-29T14:23:37Z</time></trkpt><trkpt lat="39.32277892372473" lon="16.05125379013365"><ele>53.0</ele><time>2026-03-29T14:23:38Z</time></trkpt><trkpt lat="39.322918730687576" lon="16.051152994997558"><ele>53.0</ele><time>2026-03-29T14:23:39Z</time></trkpt><trkpt lat="39.323056503365606" lon="16.05105223560969"><ele>53.0</ele><time>2026-03-29T14:23:40Z</time></trkpt><trkpt lat="39.323194523870455" lon="16.050952251259712"><ele>53.0</ele><time>2026-03-29T14:23:41Z</time></trkpt><trkpt lat="39.323333561648624" lon="16.050852944438347"><ele>50.333333333333336</ele><time>2026-03-29T14:23:42Z</time></trkpt><trkpt lat="39.32347017233957" lon="16.050749636678272"><ele>47.66666666666667</ele><time>2026-03-29T14:23:43Z</time></trkpt><trkpt lat="39.323606341321245" lon="16.05064278526611"><ele>45.0</ele><time>2026-03-29T14:23:44Z</time></trkpt><trkpt lat="39.32374234108487" lon="16.050533136921274"><ele>45.0</ele><time>2026-03-29T14:23:45Z</time></trkpt><trkpt lat="39.32387821828754" lon="16.050418577109454"><ele>45.0</ele><time>2026-03-29T14:23:46Z</time></trkpt><trkpt lat="39.32401419090535" lon="16.050297414495386"><ele>45.0</ele><time>2026-03-29T14:23:47Z</time></trkpt><trkpt lat="39.32414563285931" lon="16.05017097365486"><ele>45.0</ele><time>2026-03-29T14:23:48Z</time></trkpt><trkpt lat="39.324275369359945" lon="16.050041790718943"><ele>45.0</ele><time>2026-03-29T14:23:49Z</time></trkpt><trkpt lat="39.32440482075695" lon="16.049905400825264"><ele>45.0</ele><time>2026-03-29T14:23:50Z</time></trkpt><trkpt lat="39.324530926205135" lon="16.049765709031398"><ele>45.0</ele><time>2026-03-29T14:23:51Z</time></trkpt><trkpt lat="39.32465429034498" lon="16.04962627766082"><ele>45.0</ele><time>2026-03-29T14:23:52Z</time></trkpt><trkpt lat="39.32477683190541" lon="16.049486787071412"><ele>45.0</ele><time>2026-03-29T14:23:53Z</time></trkpt><trkpt lat="39.32489915762138" lon="16.049348886615043"><ele>45.333333333333336</ele><time>2026-03-29T14:23:54Z</time></trkpt><trkpt lat="39.32502019914159" lon="16.04921335571064"><ele>45.66666666666667</ele><time>2026-03-29T14:23:55Z</time></trkpt><trkpt lat="39.32514106307557" lon="16.049076269421256"><ele>46.0</ele><time>2026-03-29T14:23:56Z</time></trkpt><trkpt lat="39.325259783153385" lon="16.04894148761357"><ele>46.0</ele><time>2026-03-29T14:23:57Z</time></trkpt><trkpt lat="39.32537911273934" lon="16.048816323009984"><ele>46.0</ele><time>2026-03-29T14:23:58Z</time></trkpt><trkpt lat="39.32550292296528" lon="16.048700430281347"><ele>46.0</ele><time>2026-03-29T14:23:59Z</time></trkpt><trkpt lat="39.325631937789" lon="16.048591918721957"><ele>44.25</ele><time>2026-03-29T14:24:00Z</time></trkpt><trkpt lat="39.32576245410355" lon="16.04849482065359"><ele>42.5</ele><time>2026-03-29T14:24:01Z</time></trkpt><trkpt lat="39.325896225433574" lon="16.048407937742073"><ele>40.75</ele><time>2026-03-29T14:24:02Z</time></trkpt><trkpt lat="39.3260325558437" lon="16.048332902017584"><ele>39.0</ele><time>2026-03-29T14:24:03Z</time></trkpt><trkpt lat="39.326169666595895" lon="16.048271477285798"><ele>39.0</ele><time>2026-03-29T14:24:04Z</time></trkpt><trkpt lat="39.326306281079695" lon="16.04822675725311"><ele>39.0</ele><time>2026-03-29T14:24:05Z</time></trkpt><trkpt lat="39.32643379532682" lon="16.04819473258796"><ele>39.0</ele><time>2026-03-29T14:24:06Z</time></trkpt><trkpt lat="39.32655507426299" lon="16.048172259570563"><ele>39.0</ele><time>2026-03-29T14:24:07Z</time></trkpt><trkpt lat="39.326674029402035" lon="16.048171270279163"><ele>39.8</ele><time>2026-03-29T14:24:08Z</time></trkpt><trkpt lat="39.326791511924114" lon="16.048194995150023"><ele>40.599999999999994</ele><time>2026-03-29T14:24:09Z</time></trkpt><trkpt lat="39.32689373061957" lon="16.048222317840978"><ele>41.4</ele><time>2026-03-29T14:24:10Z</time></trkpt><trkpt lat="39.32698687185166" lon="16.048228925174353"><ele>42.199999999999996</ele><time>2026-03-29T14:24:11Z</time></trkpt><trkpt lat="39.3270755349934" lon="16.048198811804408"><ele>43.0</ele><time>2026-03-29T14:24:12Z</time></trkpt><trkpt lat="39.32716355210023" lon="16.04815666244076"><ele>43.16666666666667</ele><time>2026-03-29T14:24:13Z</time></trkpt><trkpt lat="39.32724820782445" lon="16.04812208117635"><ele>43.333333333333336</ele><time>2026-03-29T14:24:14Z</time></trkpt><trkpt lat="39.327329653138285" lon="16.048116725289145"><ele>43.5</ele><time>2026-03-29T14:24:15Z</time></trkpt><trkpt lat="39.32740301438902" lon="16.04812042344508"><ele>43.666666666666664</ele><time>2026-03-29T14:24:16Z</time></trkpt><trkpt lat="39.32746632259086" lon="16.04812925025621"><ele>43.83333333333333</ele><time>2026-03-29T14:24:17Z</time></trkpt><trkpt lat="39.32755695252391" lon="16.048131027872643"><ele>44.0</ele><time>2026-03-29T14:24:19Z</time></trkpt><trkpt lat="39.32762939369028" lon="16.04809143103087"><ele>44.0</ele><time>2026-03-29T14:24:21Z</time></trkpt><trkpt lat="39.32766255213361" lon="16.047956159286386"><ele>44.0</ele><time>2026-03-29T14:24:23Z</time></trkpt><trkpt lat="39.327676305238164" lon="16.04787059301993"><ele>44.0</ele><time>2026-03-29T14:24:24Z</time></trkpt><trkpt lat="39.32768759542692" lon="16.047787063055807"><ele>44.0</ele><time>2026-03-29T14:24:25Z</time></trkpt><trkpt lat="39.327705085647985" lon="16.04770027765956"><ele>44.0</ele><time>2026-03-29T14:24:26Z</time></trkpt><trkpt lat="39.32772203460586" lon="16.047610459336376"><ele>44.0</ele><time>2026-03-29T14:24:27Z</time></trkpt><trkpt lat="39.32773801292944" lon="16.04751952089975"><ele>42.0</ele><time>2026-03-29T14:24:28Z</time></trkpt><trkpt lat="39.32775362758045" lon="16.04743125628869"><ele>40.0</ele><time>2026-03-29T14:24:29Z</time></trkpt><trkpt lat="39.32776697525544" lon="16.047351622292865"><ele>38.0</ele><time>2026-03-29T14:24:30Z</time></trkpt><trkpt lat="39.32775880274249" lon="16.047215129365366"><ele>36.0</ele><time>2026-03-29T14:24:32Z</time></trkpt><trkpt lat="39.32765615955963" lon="16.047139355033483"><ele>34.0</ele><time>2026-03-29T14:24:34Z</time></trkpt><trkpt lat="39.327587828886735" lon="16.047156525658604"><ele>32.0</ele><time>2026-03-29T14:24:35Z</time></trkpt><trkpt lat="39.327517145971285" lon="16.04717899515586"><ele>32.0</ele><time>2026-03-29T14:24:36Z</time></trkpt><trkpt lat="39.32744653818935" lon="16.047204542468574"><ele>32.0</ele><time>2026-03-29T14:24:36.999Z</time></trkpt><trkpt lat="39.32737718253287" lon="16.047226953067838"><ele>32.0</ele><time>2026-03-29T14:24:37.999Z</time></trkpt><trkpt lat="39.32727194638139" lon="16.047261239899537"><ele>32.0</ele><time>2026-03-29T14:24:39.999Z</time></trkpt><trkpt lat="39.327199223415256" lon="16.047215371019384"><ele>32.0</ele><time>2026-03-29T14:24:42.999Z</time></trkpt><trkpt lat="39.32731538871028" lon="16.047138704916932"><ele>32.0</ele><time>2026-03-29T14:24:45.999Z</time></trkpt><trkpt lat="39.32743393068677" lon="16.047067376992025"><ele>32.0</ele><time>2026-03-29T14:24:47.999Z</time></trkpt><trkpt lat="39.32750365391249" lon="16.047022327991932"><ele>32.0</ele><time>2026-03-29T14:24:48.999Z</time></trkpt><trkpt lat="39.327570380415715" lon="16.046961709350317"><ele>32.0</ele><time>2026-03-29T14:24:49.999Z</time></trkpt><trkpt lat="39.32763168199378" lon="16.04688588418183"><ele>32.0</ele><time>2026-03-29T14:24:50.999Z</time></trkpt><trkpt lat="39.327686197404134" lon="16.046798653844593"><ele>32.0</ele><time>2026-03-29T14:24:51.999Z</time></trkpt><trkpt lat="39.32773350713755" lon="16.04671065159523"><ele>32.0</ele><time>2026-03-29T14:24:52.999Z</time></trkpt><trkpt lat="39.32776893329775" lon="16.04663755289415"><ele>32.0</ele><time>2026-03-29T14:24:53.999Z</time></trkpt><trkpt lat="39.327809319578286" lon="16.0465121592465"><ele>32.0</ele><time>2026-03-29T14:24:55.999Z</time></trkpt><trkpt lat="39.32783814162723" lon="16.046365338531015"><ele>32.0</ele><time>2026-03-29T14:24:57.999Z</time></trkpt><trkpt lat="39.3278644109797" lon="16.046203421464238"><ele>30.499999999999996</ele><time>2026-03-29T14:24:59.999Z</time></trkpt><trkpt lat="39.32787744501654" lon="16.04611619663347"><ele>29.0</ele><time>2026-03-29T14:25:00.999Z</time></trkpt><trkpt lat="39.32788799787173" lon="16.046033834824193"><ele>27.5</ele><time>2026-03-29T14:25:01.999Z</time></trkpt><trkpt lat="39.327898364409116" lon="16.04588339316818"><ele>26.0</ele><time>2026-03-29T14:25:03.999Z</time></trkpt><trkpt lat="39.32790023593773" lon="16.045800414984722"><ele>24.5</ele><time>2026-03-29T14:25:04.999Z</time></trkpt><trkpt lat="39.327909470336415" lon="16.04571622565035"><ele>23.0</ele><time>2026-03-29T14:25:05.999Z</time></trkpt><trkpt lat="39.32791778307" lon="16.04562606320847"><ele>22.142857142857142</ele><time>2026-03-29T14:25:06.999Z</time></trkpt><trkpt lat="39.327928600468596" lon="16.045531077645073"><ele>21.285714285714285</ele><time>2026-03-29T14:25:07.999Z</time></trkpt><trkpt lat="39.327940041483195" lon="16.045441359439913"><ele>20.428571428571427</ele><time>2026-03-29T14:25:08.999Z</time></trkpt><trkpt lat="39.32794376965243" lon="16.045345849307747"><ele>19.57142857142857</ele><time>2026-03-29T14:25:09.999Z</time></trkpt><trkpt lat="39.32795134067693" lon="16.04525259103285"><ele>18.714285714285715</ele><time>2026-03-29T14:25:10.999Z</time></trkpt><trkpt lat="39.32796311172117" lon="16.045170325283095"><ele>17.857142857142854</ele><time>2026-03-29T14:25:11.999Z</time></trkpt><trkpt lat="39.32798180485011" lon="16.045091244594712"><ele>17.0</ele><time>2026-03-29T14:25:12.999Z</time></trkpt><trkpt lat="39.32802004077189" lon="16.045023782302206"><ele>17.6</ele><time>2026-03-29T14:25:13.999Z</time></trkpt><trkpt lat="39.32813005425754" lon="16.044971787134802"><ele>18.2</ele><time>2026-03-29T14:25:15.999Z</time></trkpt><trkpt lat="39.328232215933006" lon="16.044934203663555"><ele>18.8</ele><time>2026-03-29T14:25:17.999Z</time></trkpt><trkpt lat="39.32830401603472" lon="16.044816906828437"><ele>19.4</ele><time>2026-03-29T14:25:19.999Z</time></trkpt><trkpt lat="39.328318762182" lon="16.044731451329845"><ele>20.0</ele><time>2026-03-29T14:25:20.999Z</time></trkpt><trkpt lat="39.32832519558096" lon="16.044636841180377"><ele>19.0</ele><time>2026-03-29T14:25:21.999Z</time></trkpt><trkpt lat="39.328325275182664" lon="16.04453976445136"><ele>18.0</ele><time>2026-03-29T14:25:22.999Z</time></trkpt><trkpt lat="39.32830881344105" lon="16.04444263449499"><ele>17.0</ele><time>2026-03-29T14:25:23.999Z</time></trkpt><trkpt lat="39.32829809018762" lon="16.044352271451675"><ele>16.0</ele><time>2026-03-29T14:25:24.999Z</time></trkpt><trkpt lat="39.32830759147665" lon="16.044256960161928"><ele>15.000000000000002</ele><time>2026-03-29T14:25:25.999Z</time></trkpt><trkpt lat="39.328319250116365" lon="16.04414947430583"><ele>14.0</ele><time>2026-03-29T14:25:26.999Z</time></trkpt><trkpt lat="39.32832442139585" lon="16.044024025566294"><ele>12.75</ele><time>2026-03-29T14:25:27.999Z</time></trkpt><trkpt lat="39.328325162789305" lon="16.04388470545906"><ele>11.5</ele><time>2026-03-29T14:25:28.999Z</time></trkpt><trkpt lat="39.32832467298972" lon="16.043735743415322"><ele>10.25</ele><time>2026-03-29T14:25:29.999Z</time></trkpt><trkpt lat="39.32832036893767" lon="16.043586427147414"><ele>9.0</ele><time>2026-03-29T14:25:30.999Z</time></trkpt><trkpt lat="39.3283138798223" lon="16.0434372857492"><ele>8.4</ele><time>2026-03-29T14:25:31.999Z</time></trkpt><trkpt lat="39.32830663635679" lon="16.0432950975351"><ele>7.800000000000001</ele><time>2026-03-29T14:25:32.999Z</time></trkpt><trkpt lat="39.328295866181456" lon="16.043161893214727"><ele>7.199999999999999</ele><time>2026-03-29T14:25:33.999Z</time></trkpt><trkpt lat="39.32828459267106" lon="16.043034972488528"><ele>6.6</ele><time>2026-03-29T14:25:34.999Z</time></trkpt><trkpt lat="39.32827541059584" lon="16.04291678554852"><ele>6.0</ele><time>2026-03-29T14:25:35.999Z</time></trkpt><trkpt lat="39.328267409203136" lon="16.042805234007904"><ele>6.0</ele><time>2026-03-29T14:25:36.999Z</time></trkpt><trkpt lat="39.32825950435746" lon="16.0426987679908"><ele>6.0</ele><time>2026-03-29T14:25:37.999Z</time></trkpt><trkpt lat="39.32825392574176" lon="16.04259985846375"><ele>6.0</ele><time>2026-03-29T14:25:39Z</time></trkpt><trkpt lat="39.32824852000641" lon="16.042507991012602"><ele>6.0</ele><time>2026-03-29T14:25:40Z</time></trkpt><trkpt lat="39.32824100069607" lon="16.042422412608452"><ele>6.0</ele><time>2026-03-29T14:25:41Z</time></trkpt><trkpt lat="39.32822432936095" lon="16.042284442706055"><ele>6.0</ele><time>2026-03-29T14:25:43Z</time></trkpt><trkpt lat="39.32820981866767" lon="16.042160882889597"><ele>5.3999999999999995</ele><time>2026-03-29T14:25:45Z</time></trkpt><trkpt lat="39.32819764197779" lon="16.042038016434624"><ele>4.8</ele><time>2026-03-29T14:25:47Z</time></trkpt><trkpt lat="39.32820457038255" lon="16.041915158599956"><ele>4.199999999999999</ele><time>2026-03-29T14:25:49Z</time></trkpt><trkpt lat="39.328271466910245" lon="16.04192911647358"><ele>3.5999999999999996</ele><time>2026-03-29T14:25:51Z</time></trkpt><trkpt lat="39.32834710069975" lon="16.041945287557777"><ele>3.0</ele><time>2026-03-29T14:25:53Z</time></trkpt><trkpt lat="39.32846752164243" lon="16.041934378323155"><ele>3.0</ele><time>2026-03-29T14:25:55Z</time></trkpt><trkpt lat="39.32855661145296" lon="16.04192268744842"><ele>3.0</ele><time>2026-03-29T14:25:56Z</time></trkpt><trkpt lat="39.328648233299454" lon="16.04190137502361"><ele>3.0</ele><time>2026-03-29T14:25:57Z</time></trkpt><trkpt lat="39.32872782012515" lon="16.04188428518908"><ele>3.0</ele><time>2026-03-29T14:25:58Z</time></trkpt><trkpt lat="39.328817328534804" lon="16.0418672961922"><ele>3.0</ele><time>2026-03-29T14:25:59Z</time></trkpt><trkpt lat="39.32890719819252" lon="16.04185023869613"><ele>3.0</ele><time>2026-03-29T14:26:00Z</time></trkpt><trkpt lat="39.3290020796172" lon="16.04183165622421"><ele>3.1666666666666665</ele><time>2026-03-29T14:26:01Z</time></trkpt><trkpt lat="39.32909537607596" lon="16.041813183599643"><ele>3.333333333333333</ele><time>2026-03-29T14:26:02Z</time></trkpt><trkpt lat="39.3291859335141" lon="16.04179379424228"><ele>3.5</ele><time>2026-03-29T14:26:03Z</time></trkpt><trkpt lat="39.329271530291805" lon="16.04177488735842"><ele>3.6666666666666665</ele><time>2026-03-29T14:26:04Z</time></trkpt><trkpt lat="39.32936075941483" lon="16.041755178079207"><ele>3.833333333333333</ele><time>2026-03-29T14:26:05Z</time></trkpt><trkpt lat="39.329445650393296" lon="16.041740816939193"><ele>4.0</ele><time>2026-03-29T14:26:06Z</time></trkpt><trkpt lat="39.3295302902621" lon="16.04172949511577"><ele>3.9999999999999996</ele><time>2026-03-29T14:26:07Z</time></trkpt><trkpt lat="39.329610147815835" lon="16.04169372081585"><ele>4.0</ele><time>2026-03-29T14:26:08Z</time></trkpt><trkpt lat="39.329697818594944" lon="16.0416969309909"><ele>4.0</ele><time>2026-03-29T14:26:09Z</time></trkpt><trkpt lat="39.32978012841399" lon="16.041664916459556"><ele>4.0</ele><time>2026-03-29T14:26:10Z</time></trkpt><trkpt lat="39.32986822207905" lon="16.04164997611148"><ele>3.9999999999999996</ele><time>2026-03-29T14:26:11Z</time></trkpt><trkpt lat="39.32995581579863" lon="16.041634819279857"><ele>4.0</ele><time>2026-03-29T14:26:12Z</time></trkpt><trkpt lat="39.33002857505653" lon="16.041629206297436"><ele>3.4999999999999996</ele><time>2026-03-29T14:26:13Z</time></trkpt><trkpt lat="39.33011195137145" lon="16.041608195183183"><ele>3.0</ele><time>2026-03-29T14:26:14Z</time></trkpt><trkpt lat="39.33019474599849" lon="16.04159462544413"><ele>2.5</ele><time>2026-03-29T14:26:15Z</time></trkpt><trkpt lat="39.33028056133671" lon="16.041572203555432"><ele>2.0</ele><time>2026-03-29T14:26:16Z</time></trkpt><trkpt lat="39.33036551162913" lon="16.041549891149042"><ele>1.5</ele><time>2026-03-29T14:26:17Z</time></trkpt><trkpt lat="39.33045934049098" lon="16.041527701673637"><ele>1.0</ele><time>2026-03-29T14:26:18Z</time></trkpt><trkpt lat="39.330558560725734" lon="16.041510305782577"><ele>1.0</ele><time>2026-03-29T14:26:19Z</time></trkpt><trkpt lat="39.330652581044866" lon="16.041490715465237"><ele>1.0</ele><time>2026-03-29T14:26:20Z</time></trkpt><trkpt lat="39.33075080295027" lon="16.041473015259722"><ele>1.0</ele><time>2026-03-29T14:26:21Z</time></trkpt><trkpt lat="39.33083739466568" lon="16.041451017983654"><ele>1.0</ele><time>2026-03-29T14:26:22Z</time></trkpt><trkpt lat="39.33092534318303" lon="16.041430873756987"><ele>1.0</ele><time>2026-03-29T14:26:23Z</time></trkpt><trkpt lat="39.331003011425246" lon="16.041411813222048"><ele>1.0</ele><time>2026-03-29T14:26:24Z</time></trkpt><trkpt lat="39.33106837661959" lon="16.04139401645448"><ele>1.0</ele><time>2026-03-29T14:26:25Z</time></trkpt><trkpt lat="39.33112986262616" lon="16.041376088802767"><ele>1.0</ele><time>2026-03-29T14:26:26Z</time></trkpt><trkpt lat="39.33124604762059" lon="16.04134976145624"><ele>1.0</ele><time>2026-03-29T14:26:28Z</time></trkpt><trkpt lat="39.3313567694746" lon="16.04133638010342"><ele>1.0</ele><time>2026-03-29T14:26:30Z</time></trkpt><trkpt lat="39.33148646668143" lon="16.041324295378256"><ele>1.1666666666666665</ele><time>2026-03-29T14:26:32Z</time></trkpt><trkpt lat="39.331558734069944" lon="16.041307523825946"><ele>1.3333333333333333</ele><time>2026-03-29T14:26:33Z</time></trkpt><trkpt lat="39.331636199932376" lon="16.041288331709666"><ele>1.5</ele><time>2026-03-29T14:26:34Z</time></trkpt><trkpt lat="39.33172124663061" lon="16.041269688869274"><ele>1.6666666666666665</ele><time>2026-03-29T14:26:35Z</time></trkpt><trkpt lat="39.33181464174735" lon="16.04124714054497"><ele>1.8333333333333333</ele><time>2026-03-29T14:26:36Z</time></trkpt><trkpt lat="39.33190981733083" lon="16.041225287833168"><ele>2.0</ele><time>2026-03-29T14:26:37Z</time></trkpt><trkpt lat="39.33201506922732" lon="16.04120092485284"><ele>2.0</ele><time>2026-03-29T14:26:38Z</time></trkpt><trkpt lat="39.332132239442814" lon="16.04117725724231"><ele>2.0</ele><time>2026-03-29T14:26:39Z</time></trkpt><trkpt lat="39.33224642115312" lon="16.04115612223876"><ele>2.0</ele><time>2026-03-29T14:26:40Z</time></trkpt><trkpt lat="39.33235793722637" lon="16.041135636874156"><ele>2.0</ele><time>2026-03-29T14:26:41Z</time></trkpt><trkpt lat="39.33245844089446" lon="16.041111200578527"><ele>2.0</ele><time>2026-03-29T14:26:42Z</time></trkpt><trkpt lat="39.33253466571113" lon="16.041088490206555"><ele>2.1666666666666665</ele><time>2026-03-29T14:26:43Z</time></trkpt><trkpt lat="39.33259862139485" lon="16.04107001251568"><ele>2.333333333333333</ele><time>2026-03-29T14:26:44Z</time></trkpt><trkpt lat="39.33267686392493" lon="16.041045348191016"><ele>2.5</ele><time>2026-03-29T14:26:46Z</time></trkpt><trkpt lat="39.33275129235372" lon="16.041021510174847"><ele>2.6666666666666665</ele><time>2026-03-29T14:26:48Z</time></trkpt><trkpt lat="39.33286937912407" lon="16.040995723622448"><ele>2.8333333333333335</ele><time>2026-03-29T14:26:50Z</time></trkpt><trkpt lat="39.33294914617553" lon="16.040980291527745"><ele>3.0</ele><time>2026-03-29T14:26:51Z</time></trkpt><trkpt lat="39.333037841222826" lon="16.040964345039562"><ele>3.2</ele><time>2026-03-29T14:26:51.999Z</time></trkpt><trkpt lat="39.33312993579857" lon="16.04094663270826"><ele>3.4</ele><time>2026-03-29T14:26:52.999Z</time></trkpt><trkpt lat="39.3332235701564" lon="16.040931716270546"><ele>3.6000000000000005</ele><time>2026-03-29T14:26:53.999Z</time></trkpt><trkpt lat="39.33331706576529" lon="16.04091197700008"><ele>3.8000000000000003</ele><time>2026-03-29T14:26:54.999Z</time></trkpt><trkpt lat="39.33341278912368" lon="16.040892396189225"><ele>4.0</ele><time>2026-03-29T14:26:55.999Z</time></trkpt><trkpt lat="39.33351218094165" lon="16.040876018370717"><ele>4.0</ele><time>2026-03-29T14:26:56.999Z</time></trkpt><trkpt lat="39.33361151452356" lon="16.040857231267378"><ele>4.0</ele><time>2026-03-29T14:26:57.999Z</time></trkpt><trkpt lat="39.333712283907246" lon="16.040835838535713"><ele>4.0</ele><time>2026-03-29T14:26:58.999Z</time></trkpt><trkpt lat="39.33381405571812" lon="16.040812370541584"><ele>4.0</ele><time>2026-03-29T14:26:59.999Z</time></trkpt><trkpt lat="39.33391587529512" lon="16.040788567092726"><ele>4.0</ele><time>2026-03-29T14:27:00.999Z</time></trkpt><trkpt lat="39.33402054468847" lon="16.04076561652"><ele>3.4000000000000004</ele><time>2026-03-29T14:27:01.999Z</time></trkpt><trkpt lat="39.33412361087663" lon="16.040743169598127"><ele>2.8000000000000003</ele><time>2026-03-29T14:27:02.999Z</time></trkpt><trkpt lat="39.33422345880396" lon="16.04072697593355"><ele>2.2</ele><time>2026-03-29T14:27:03.999Z</time></trkpt><trkpt lat="39.33432328555078" lon="16.040703683857984"><ele>1.6</ele><time>2026-03-29T14:27:04.999Z</time></trkpt><trkpt lat="39.334428919560814" lon="16.040674325787197"><ele>1.0</ele><time>2026-03-29T14:27:05.999Z</time></trkpt><trkpt lat="39.33454048145719" lon="16.04064661039688"><ele>1.0</ele><time>2026-03-29T14:27:06.999Z</time></trkpt><trkpt lat="39.33464967253671" lon="16.04062191600205"><ele>1.0</ele><time>2026-03-29T14:27:07.999Z</time></trkpt><trkpt lat="39.33476073292213" lon="16.040596374881414"><ele>1.0</ele><time>2026-03-29T14:27:08.999Z</time></trkpt><trkpt lat="39.334872580732124" lon="16.04057204458201"><ele>1.0</ele><time>2026-03-29T14:27:09.999Z</time></trkpt><trkpt lat="39.334988427357324" lon="16.04054820747786"><ele>1.4</ele><time>2026-03-29T14:27:10.999Z</time></trkpt><trkpt lat="39.33510125876819" lon="16.040523093132137"><ele>1.8</ele><time>2026-03-29T14:27:11.999Z</time></trkpt><trkpt lat="39.33521348496924" lon="16.040498567322512"><ele>2.1999999999999997</ele><time>2026-03-29T14:27:12.999Z</time></trkpt><trkpt lat="39.33532341881964" lon="16.040479371752834"><ele>2.6</ele><time>2026-03-29T14:27:13.999Z</time></trkpt><trkpt lat="39.335431016244385" lon="16.040459872963517"><ele>3.0</ele><time>2026-03-29T14:27:14.999Z</time></trkpt><trkpt lat="39.33553723364933" lon="16.040440560797016"><ele>3.2</ele><time>2026-03-29T14:27:15.999Z</time></trkpt><trkpt lat="39.33563755876209" lon="16.04042063337674"><ele>3.4</ele><time>2026-03-29T14:27:16.999Z</time></trkpt><trkpt lat="39.33572537272819" lon="16.040404789136115"><ele>3.6000000000000005</ele><time>2026-03-29T14:27:17.999Z</time></trkpt><trkpt lat="39.33579986853397" lon="16.040387324011014"><ele>3.8000000000000003</ele><time>2026-03-29T14:27:18.999Z</time></trkpt><trkpt lat="39.335865057968185" lon="16.040373893424427"><ele>4.0</ele><time>2026-03-29T14:27:19.999Z</time></trkpt><trkpt lat="39.335984610648495" lon="16.040349492449863"><ele>3.9999999999999996</ele><time>2026-03-29T14:27:21.999Z</time></trkpt><trkpt lat="39.33605525090324" lon="16.04033008082123"><ele>4.0</ele><time>2026-03-29T14:27:22.999Z</time></trkpt><trkpt lat="39.336136167550634" lon="16.040306369893223"><ele>4.0</ele><time>2026-03-29T14:27:23.999Z</time></trkpt><trkpt lat="39.33622196285068" lon="16.040282285463164"><ele>4.0</ele><time>2026-03-29T14:27:24.999Z</time></trkpt><trkpt lat="39.33631370180292" lon="16.04025822672751"><ele>3.9999999999999996</ele><time>2026-03-29T14:27:25.999Z</time></trkpt><trkpt lat="39.33641250952632" lon="16.040236816916778"><ele>4.0</ele><time>2026-03-29T14:27:26.999Z</time></trkpt><trkpt lat="39.336512276307246" lon="16.040215540034303"><ele>3.8000000000000003</ele><time>2026-03-29T14:27:27.999Z</time></trkpt><trkpt lat="39.33661402844634" lon="16.040195393622515"><ele>3.6000000000000005</ele><time>2026-03-29T14:27:28.999Z</time></trkpt><trkpt lat="39.33671617032524" lon="16.040177519510745"><ele>3.4</ele><time>2026-03-29T14:27:29.999Z</time></trkpt><trkpt lat="39.336815608835764" lon="16.040159141548568"><ele>3.2</ele><time>2026-03-29T14:27:30.999Z</time></trkpt><trkpt lat="39.33691317993349" lon="16.040142161095325"><ele>3.0</ele><time>2026-03-29T14:27:31.999Z</time></trkpt><trkpt lat="39.33700667637971" lon="16.04012439262678"><ele>3.0</ele><time>2026-03-29T14:27:32.999Z</time></trkpt><trkpt lat="39.33709209110974" lon="16.040107204834577"><ele>3.0</ele><time>2026-03-29T14:27:33.999Z</time></trkpt><trkpt lat="39.337177499382975" lon="16.04008986591195"><ele>3.0</ele><time>2026-03-29T14:27:34.999Z</time></trkpt><trkpt lat="39.3372658210832" lon="16.0400744776858"><ele>3.0</ele><time>2026-03-29T14:27:35.999Z</time></trkpt><trkpt lat="39.337360245699294" lon="16.040059781159666"><ele>3.0</ele><time>2026-03-29T14:27:36.999Z</time></trkpt><trkpt lat="39.33746276825688" lon="16.040043659850625"><ele>3.75</ele><time>2026-03-29T14:27:37.999Z</time></trkpt><trkpt lat="39.33757042781493" lon="16.040027242912934"><ele>4.5</ele><time>2026-03-29T14:27:38.999Z</time></trkpt><trkpt lat="39.33768227778686" lon="16.040008768854978"><ele>5.25</ele><time>2026-03-29T14:27:39.999Z</time></trkpt><trkpt lat="39.33779493951375" lon="16.039984338772467"><ele>6.0</ele><time>2026-03-29T14:27:40.999Z</time></trkpt><trkpt lat="39.33790734539988" lon="16.039957667773194"><ele>4.5</ele><time>2026-03-29T14:27:41.999Z</time></trkpt><trkpt lat="39.338017525306334" lon="16.039930069331458"><ele>3.0</ele><time>2026-03-29T14:27:42.999Z</time></trkpt><trkpt lat="39.33812987498695" lon="16.03990368202167"><ele>1.5</ele><time>2026-03-29T14:27:43.999Z</time></trkpt><trkpt lat="39.33823920518873" lon="16.039866057633972"><ele>0.0</ele><time>2026-03-29T14:27:45Z</time></trkpt><trkpt lat="39.33835077627379" lon="16.039840376957688"><ele>0.0</ele><time>2026-03-29T14:27:46Z</time></trkpt><trkpt lat="39.338463370972356" lon="16.03982460958159"><ele>0.0</ele><time>2026-03-29T14:27:47Z</time></trkpt><trkpt lat="39.338571339482186" lon="16.03980440148653"><ele>0.0</ele><time>2026-03-29T14:27:48Z</time></trkpt><trkpt lat="39.338676426747654" lon="16.03978030822606"><ele>0.0</ele><time>2026-03-29T14:27:49Z</time></trkpt><trkpt lat="39.338779508667606" lon="16.039755957804463"><ele>0.0</ele><time>2026-03-29T14:27:50Z</time></trkpt><trkpt lat="39.33888208260766" lon="16.039734191141452"><ele>0.0</ele><time>2026-03-29T14:27:51Z</time></trkpt><trkpt lat="39.33898084979017" lon="16.03971445213692"><ele>0.0</ele><time>2026-03-29T14:27:52Z</time></trkpt><trkpt lat="39.33906751347725" lon="16.03969144243556"><ele>0.0</ele><time>2026-03-29T14:27:53Z</time></trkpt><trkpt lat="39.339145150259164" lon="16.039668373670377"><ele>0.0</ele><time>2026-03-29T14:27:54Z</time></trkpt><trkpt lat="39.33921042775955" lon="16.039649008927213"><ele>0.0</ele><time>2026-03-29T14:27:55Z</time></trkpt><trkpt lat="39.33928314847406" lon="16.039640360758934"><ele>0.0</ele><time>2026-03-29T14:27:56Z</time></trkpt><trkpt lat="39.33935412645634" lon="16.039626205996186"><ele>0.0</ele><time>2026-03-29T14:27:57Z</time></trkpt><trkpt lat="39.33943584368478" lon="16.039618120589118"><ele>0.0</ele><time>2026-03-29T14:27:58Z</time></trkpt><trkpt lat="39.3395277905136" lon="16.039609798531288"><ele>0.0</ele><time>2026-03-29T14:27:59Z</time></trkpt><trkpt lat="39.33964440097155" lon="16.03958295043657"><ele>0.0</ele><time>2026-03-29T14:28:00Z</time></trkpt><trkpt lat="39.339753386519604" lon="16.039569779428042"><ele>0.0</ele><time>2026-03-29T14:28:01Z</time></trkpt><trkpt lat="39.33988939799619" lon="16.03952271019441"><ele>0.0</ele><time>2026-03-29T14:28:02Z</time></trkpt><trkpt lat="39.34001923160126" lon="16.039498905615172"><ele>0.0</ele><time>2026-03-29T14:28:03Z</time></trkpt><trkpt lat="39.340151406897434" lon="16.039475909464006"><ele>0.0</ele><time>2026-03-29T14:28:04Z</time></trkpt><trkpt lat="39.340285050627514" lon="16.039448663221584"><ele>0.0</ele><time>2026-03-29T14:28:05Z</time></trkpt><trkpt lat="39.340427209164154" lon="16.039420345605766"><ele>0.5</ele><time>2026-03-29T14:28:06Z</time></trkpt><trkpt lat="39.34057477407625" lon="16.039391448860176"><ele>1.0</ele><time>2026-03-29T14:28:07Z</time></trkpt><trkpt lat="39.340719534410454" lon="16.039397408722103"><ele>1.5</ele><time>2026-03-29T14:28:08Z</time></trkpt><trkpt lat="39.34085307769344" lon="16.03935416252082"><ele>2.0</ele><time>2026-03-29T14:28:09Z</time></trkpt><trkpt lat="39.340994529123" lon="16.039323601570597"><ele>2.0</ele><time>2026-03-29T14:28:10Z</time></trkpt><trkpt lat="39.34113809967365" lon="16.03930341877119"><ele>2.0</ele><time>2026-03-29T14:28:11Z</time></trkpt><trkpt lat="39.341274128864754" lon="16.039282660153052"><ele>2.0</ele><time>2026-03-29T14:28:12Z</time></trkpt><trkpt lat="39.34138912246494" lon="16.039275777846044"><ele>2.0</ele><time>2026-03-29T14:28:13Z</time></trkpt><trkpt lat="39.34148408010813" lon="16.039259391372372"><ele>2.4000000000000004</ele><time>2026-03-29T14:28:14Z</time></trkpt><trkpt lat="39.34156246674011" lon="16.039248495381347"><ele>2.8000000000000003</ele><time>2026-03-29T14:28:15Z</time></trkpt><trkpt lat="39.341638596999275" lon="16.03923678406856"><ele>3.2</ele><time>2026-03-29T14:28:16Z</time></trkpt><trkpt lat="39.34173684126646" lon="16.03922103487093"><ele>3.6</ele><time>2026-03-29T14:28:17Z</time></trkpt><trkpt lat="39.341851368071524" lon="16.039197300105187"><ele>4.0</ele><time>2026-03-29T14:28:18Z</time></trkpt><trkpt lat="39.34197686052457" lon="16.039171752793372"><ele>4.0</ele><time>2026-03-29T14:28:19Z</time></trkpt><trkpt lat="39.342102014309916" lon="16.039142803936045"><ele>4.0</ele><time>2026-03-29T14:28:20Z</time></trkpt><trkpt lat="39.34221617032336" lon="16.039119517064023"><ele>4.0</ele><time>2026-03-29T14:28:21Z</time></trkpt><trkpt lat="39.342317734054525" lon="16.03909545094684"><ele>4.0</ele><time>2026-03-29T14:28:22Z</time></trkpt><trkpt lat="39.34241239647273" lon="16.039072730467"><ele>4.0</ele><time>2026-03-29T14:28:23Z</time></trkpt><trkpt lat="39.342493466352146" lon="16.039039826942446"><ele>3.2</ele><time>2026-03-29T14:28:24Z</time></trkpt><trkpt lat="39.34258049984029" lon="16.039022473594507"><ele>2.4000000000000004</ele><time>2026-03-29T14:28:25Z</time></trkpt><trkpt lat="39.34267530447915" lon="16.038993788428037"><ele>1.6</ele><time>2026-03-29T14:28:26Z</time></trkpt><trkpt lat="39.34276826991831" lon="16.03897084239256"><ele>0.8</ele><time>2026-03-29T14:28:27Z</time></trkpt><trkpt lat="39.34287223718765" lon="16.038943668965064"><ele>0.0</ele><time>2026-03-29T14:28:28Z</time></trkpt><trkpt lat="39.3429837501997" lon="16.038912754565253"><ele>0.5</ele><time>2026-03-29T14:28:29Z</time></trkpt><trkpt lat="39.34310437047399" lon="16.038877858137017"><ele>1.0</ele><time>2026-03-29T14:28:30Z</time></trkpt><trkpt lat="39.343225515226635" lon="16.038842277662514"><ele>1.5</ele><time>2026-03-29T14:28:31Z</time></trkpt><trkpt lat="39.34334183208054" lon="16.038806499907132"><ele>2.0</ele><time>2026-03-29T14:28:32Z</time></trkpt><trkpt lat="39.3434529727062" lon="16.038771304379797"><ele>2.0</ele><time>2026-03-29T14:28:33Z</time></trkpt><trkpt lat="39.34356113211006" lon="16.03874097884974"><ele>2.0</ele><time>2026-03-29T14:28:34Z</time></trkpt><trkpt lat="39.34366457684769" lon="16.0387150953388"><ele>2.0</ele><time>2026-03-29T14:28:35Z</time></trkpt><trkpt lat="39.3437615558928" lon="16.038687705740656"><ele>2.0</ele><time>2026-03-29T14:28:36Z</time></trkpt><trkpt lat="39.34384045035846" lon="16.038659838318573"><ele>2.0</ele><time>2026-03-29T14:28:37Z</time></trkpt><trkpt lat="39.34390657878342" lon="16.03863671381505"><ele>2.1666666666666665</ele><time>2026-03-29T14:28:38Z</time></trkpt><trkpt lat="39.34397865278855" lon="16.03861400894876"><ele>2.333333333333333</ele><time>2026-03-29T14:28:39Z</time></trkpt><trkpt lat="39.34405375956334" lon="16.03859324878462"><ele>2.5</ele><time>2026-03-29T14:28:40Z</time></trkpt><trkpt lat="39.34413414184648" lon="16.03857312565008"><ele>2.6666666666666665</ele><time>2026-03-29T14:28:41Z</time></trkpt><trkpt lat="39.34422411451596" lon="16.038548069951794"><ele>2.8333333333333335</ele><time>2026-03-29T14:28:42Z</time></trkpt><trkpt lat="39.34432461741775" lon="16.038517397098598"><ele>3.0</ele><time>2026-03-29T14:28:43Z</time></trkpt><trkpt lat="39.34443017980698" lon="16.038478570587728"><ele>3.0</ele><time>2026-03-29T14:28:44Z</time></trkpt><trkpt lat="39.34453550670014" lon="16.038443541263103"><ele>3.0</ele><time>2026-03-29T14:28:45Z</time></trkpt><trkpt lat="39.34463726061956" lon="16.03840662385407"><ele>3.0</ele><time>2026-03-29T14:28:46Z</time></trkpt><trkpt lat="39.344739044749375" lon="16.038368214509834"><ele>3.0</ele><time>2026-03-29T14:28:47Z</time></trkpt><trkpt lat="39.34484040902358" lon="16.038329230586"><ele>3.0</ele><time>2026-03-29T14:28:48Z</time></trkpt><trkpt lat="39.344943783832875" lon="16.038290324977375"><ele>2.4</ele><time>2026-03-29T14:28:49Z</time></trkpt><trkpt lat="39.34504592618417" lon="16.038252947396106"><ele>1.7999999999999998</ele><time>2026-03-29T14:28:50Z</time></trkpt><trkpt lat="39.345143269805895" lon="16.03821715299118"><ele>1.2</ele><time>2026-03-29T14:28:51Z</time></trkpt><trkpt lat="39.345237762473644" lon="16.038181640434708"><ele>0.6</ele><time>2026-03-29T14:28:52Z</time></trkpt><trkpt lat="39.34533309576957" lon="16.038150558329416"><ele>0.0</ele><time>2026-03-29T14:28:53Z</time></trkpt><trkpt lat="39.34543461108932" lon="16.03812005903101"><ele>0.0</ele><time>2026-03-29T14:28:53.999Z</time></trkpt><trkpt lat="39.34553627864896" lon="16.03808698488071"><ele>0.0</ele><time>2026-03-29T14:28:54.999Z</time></trkpt><trkpt lat="39.34562982640788" lon="16.038055676446348"><ele>0.0</ele><time>2026-03-29T14:28:55.999Z</time></trkpt><trkpt lat="39.34571974212755" lon="16.038022316618513"><ele>0.0</ele><time>2026-03-29T14:28:56.999Z</time></trkpt><trkpt lat="39.345807603240274" lon="16.037996388606476"><ele>0.0</ele><time>2026-03-29T14:28:57.999Z</time></trkpt><trkpt lat="39.34588887615532" lon="16.03797112936405"><ele>0.16666666666666666</ele><time>2026-03-29T14:28:58.999Z</time></trkpt><trkpt lat="39.34596846085382" lon="16.037948657944543"><ele>0.3333333333333333</ele><time>2026-03-29T14:28:59.999Z</time></trkpt><trkpt lat="39.346043990764365" lon="16.037926855839768"><ele>0.5</ele><time>2026-03-29T14:29:00.999Z</time></trkpt><trkpt lat="39.34611231529053" lon="16.037903491168766"><ele>0.6666666666666666</ele><time>2026-03-29T14:29:01.999Z</time></trkpt><trkpt lat="39.34617980225851" lon="16.037882241955664"><ele>0.8333333333333333</ele><time>2026-03-29T14:29:02.999Z</time></trkpt><trkpt lat="39.34625636223196" lon="16.03786199419633"><ele>1.0</ele><time>2026-03-29T14:29:03.999Z</time></trkpt><trkpt lat="39.34633480084045" lon="16.037841251754166"><ele>1.8</ele><time>2026-03-29T14:29:04.999Z</time></trkpt><trkpt lat="39.34640859680807" lon="16.037820521544063"><ele>2.6</ele><time>2026-03-29T14:29:05.999Z</time></trkpt><trkpt lat="39.346473017707" lon="16.03780022646615"><ele>3.4</ele><time>2026-03-29T14:29:06.999Z</time></trkpt><trkpt lat="39.34659231999167" lon="16.037764063075635"><ele>4.2</ele><time>2026-03-29T14:29:08.999Z</time></trkpt><trkpt lat="39.34670413276867" lon="16.037734515354057"><ele>5.0</ele><time>2026-03-29T14:29:10.999Z</time></trkpt><trkpt lat="39.3468033381712" lon="16.03770721424338"><ele>5.0</ele><time>2026-03-29T14:29:12.999Z</time></trkpt><trkpt lat="39.34687323172755" lon="16.03768409736787"><ele>5.0</ele><time>2026-03-29T14:29:14.999Z</time></trkpt><trkpt lat="39.346952031560754" lon="16.037661903907747"><ele>5.0</ele><time>2026-03-29T14:29:16.999Z</time></trkpt><trkpt lat="39.34703696117435" lon="16.037636806350015"><ele>5.0</ele><time>2026-03-29T14:29:18.999Z</time></trkpt><trkpt lat="39.34710686089488" lon="16.037612725908154"><ele>5.0</ele><time>2026-03-29T14:29:20.999Z</time></trkpt><trkpt lat="39.347181874965656" lon="16.03759256371379"><ele>5.0</ele><time>2026-03-29T14:29:22.999Z</time></trkpt><trkpt lat="39.34726170419055" lon="16.037570978532493"><ele>5.2</ele><time>2026-03-29T14:29:24.999Z</time></trkpt><trkpt lat="39.34735059740849" lon="16.037545264176025"><ele>5.4</ele><time>2026-03-29T14:29:26.999Z</time></trkpt><trkpt lat="39.347454015614694" lon="16.037519542597796"><ele>5.6</ele><time>2026-03-29T14:29:28.999Z</time></trkpt><trkpt lat="39.347556614540984" lon="16.037496076407013"><ele>5.8</ele><time>2026-03-29T14:29:30.999Z</time></trkpt><trkpt lat="39.347640089680986" lon="16.037474621265318"><ele>6.0</ele><time>2026-03-29T14:29:32.999Z</time></trkpt><trkpt lat="39.34772226029974" lon="16.037450113674673"><ele>5.428571428571428</ele><time>2026-03-29T14:29:34.999Z</time></trkpt><trkpt lat="39.34780743228397" lon="16.037425321268397"><ele>4.857142857142857</ele><time>2026-03-29T14:29:37.999Z</time></trkpt><trkpt lat="39.34787172175385" lon="16.037407387958197"><ele>4.285714285714286</ele><time>2026-03-29T14:29:41.999Z</time></trkpt><trkpt lat="39.34795031185235" lon="16.037377605763087"><ele>3.714285714285714</ele><time>2026-03-29T14:29:47.999Z</time></trkpt><trkpt lat="39.348025521036945" lon="16.037351352536234"><ele>3.1428571428571423</ele><time>2026-03-29T14:29:51Z</time></trkpt><trkpt lat="39.3480846654442" lon="16.037321680527793"><ele>2.571428571428571</ele><time>2026-03-29T14:29:53Z</time></trkpt><trkpt lat="39.34814883419856" lon="16.037301869177874"><ele>2.0</ele><time>2026-03-29T14:29:55Z</time></trkpt><trkpt lat="39.348214424057204" lon="16.037284106887288"><ele>1.9999999999999998</ele><time>2026-03-29T14:30:39Z</time></trkpt><trkpt lat="39.34827677141963" lon="16.037254320635878"><ele>2.0</ele><time>2026-03-29T14:30:50Z</time></trkpt><trkpt lat="39.34835328901055" lon="16.037221728013435"><ele>2.0</ele><time>2026-03-29T14:30:52Z</time></trkpt><trkpt lat="39.348441939980695" lon="16.037186474132483"><ele>2.0</ele><time>2026-03-29T14:30:54Z</time></trkpt><trkpt lat="39.34850537975498" lon="16.03716399022585"><ele>1.9999999999999998</ele><time>2026-03-29T14:30:56Z</time></trkpt><trkpt lat="39.34858485410344" lon="16.037133788435"><ele>2.0</ele><time>2026-03-29T14:30:59Z</time></trkpt><trkpt lat="39.348675034918976" lon="16.037100420646762"><ele>2.0</ele><time>2026-03-29T14:31:01Z</time></trkpt><trkpt lat="39.34874681265462" lon="16.037077076905852"><ele>1.9999999999999998</ele><time>2026-03-29T14:31:03Z</time></trkpt><trkpt lat="39.348838637280664" lon="16.037035954514174"><ele>2.0</ele><time>2026-03-29T14:31:06Z</time></trkpt><trkpt lat="39.34890486445397" lon="16.03700462513753"><ele>2.0</ele><time>2026-03-29T14:31:08Z</time></trkpt><trkpt lat="39.348972438341576" lon="16.036978293578372"><ele>1.9999999999999998</ele><time>2026-03-29T14:31:25.999Z</time></trkpt><trkpt lat="39.349032874737745" lon="16.036954543239176"><ele>2.0</ele><time>2026-03-29T14:31:46.999Z</time></trkpt><trkpt lat="39.3489608568683" lon="16.036964158190855"><ele>2.0</ele><time>2026-03-29T14:32:05Z</time></trkpt><trkpt lat="39.34888579931419" lon="16.036906907235476"><ele>2.0</ele><time>2026-03-29T14:32:17Z</time></trkpt><trkpt lat="39.348817634507625" lon="16.03691965947323"><ele>1.9999999999999998</ele><time>2026-03-29T14:32:26Z</time></trkpt><trkpt lat="39.3487496044535" lon="16.036944636252517"><ele>2.0</ele><time>2026-03-29T14:32:37Z</time></trkpt><trkpt lat="39.348681603733745" lon="16.03697901755769"><ele>2.0</ele><time>2026-03-29T14:33:00Z</time></trkpt><trkpt lat="39.348621565723356" lon="16.037012374733575"><ele>1.9999999999999998</ele><time>2026-03-29T14:33:08Z</time></trkpt><trkpt lat="39.3485563912204" lon="16.037015886337123"><ele>2.0</ele><time>2026-03-29T14:33:16Z</time></trkpt><trkpt lat="39.348499033771866" lon="16.037054946585876"><ele>2.0</ele><time>2026-03-29T14:33:25.999Z</time></trkpt><trkpt lat="39.34843769305006" lon="16.037034127792474"><ele>1.9999999999999998</ele><time>2026-03-29T14:33:34.999Z</time></trkpt><trkpt lat="39.348374988491976" lon="16.037042335424122"><ele>2.0</ele><time>2026-03-29T14:33:41.999Z</time></trkpt><trkpt lat="39.34830845699866" lon="16.037044930944926"><ele>2.0</ele><time>2026-03-29T14:33:51.999Z</time></trkpt><trkpt lat="39.34820827433235" lon="16.037059846391827"><ele>2.0</ele><time>2026-03-29T14:34:20Z</time></trkpt><trkpt lat="39.34811230141489" lon="16.037021982304683"><ele>1.9999999999999998</ele><time>2026-03-29T14:34:39Z</time></trkpt><trkpt lat="39.34804296772093" lon="16.037017870785935"><ele>2.0</ele><time>2026-03-29T14:34:55Z</time></trkpt><trkpt lat="39.34797927941707" lon="16.03707945594573"><ele>2.0</ele><time>2026-03-29T14:36:02.999Z</time></trkpt><trkpt lat="39.348050797783834" lon="16.037012016886372"><ele>1.9999999999999998</ele><time>2026-03-29T14:37:03Z</time></trkpt><trkpt lat="39.348112066731254" lon="16.0370390130901"><ele>2.0</ele><time>2026-03-29T14:39:45.999Z</time></trkpt><trkpt lat="39.348175520316076" lon="16.037064137473447"><ele>2.0</ele><time>2026-03-29T14:40:07.999Z</time></trkpt><trkpt lat="39.34824047450219" lon="16.03709486673785"><ele>1.9999999999999998</ele><time>2026-03-29T14:40:14.999Z</time></trkpt><trkpt lat="39.34830952116769" lon="16.03708859651307"><ele>2.0</ele><time>2026-03-29T14:40:21Z</time></trkpt><trkpt lat="39.34837673833358" lon="16.03706055250492"><ele>2.0</ele><time>2026-03-29T14:40:30Z</time></trkpt><trkpt lat="39.348444089025286" lon="16.037054495088462"><ele>2.0</ele><time>2026-03-29T14:40:36Z</time></trkpt><trkpt lat="39.348514063004494" lon="16.037023144973478"><ele>2.0</ele><time>2026-03-29T14:40:45Z</time></trkpt><trkpt lat="39.34857791499633" lon="16.03700990391815"><ele>2.0</ele><time>2026-03-29T14:40:54Z</time></trkpt><trkpt lat="39.34863238260427" lon="16.03696508478733"><ele>2.0</ele><time>2026-03-29T14:41:05Z</time></trkpt><trkpt lat="39.34867910446078" lon="16.03704253646728"><ele>2.0</ele><time>2026-03-29T14:41:15Z</time></trkpt><trkpt lat="39.34863577968605" lon="16.036973575812837"><ele>2.0</ele><time>2026-03-29T14:41:30.999Z</time></trkpt></trkseg></trk></gpx>